<?xml version="1.0" encoding="UTF-8" standalone="no" ?>
<gpx xmlns="http://www.topografix.com/GPX/1/1" xmlns:xsi="http://www.w3.org/2001/XMLSchema-instance" xsi:schemaLocation="http://www.topografix.com/GPX/1/1 http://www.topografix.com/GPX/1/1/gpx.xsd" version="1.1" creator="VisuGPX - https://www.visugpx.com">
  <metadata>
    <name>Ronde Saint-Marcellin Trail2020</name>
    <desc><![CDATA[
]]></desc>
  </metadata>
  <trk>
    <name><![CDATA[Saint-Marcellin Trail]]></name>
    <trkseg>
      <trkpt lat="45.1593" lon="5.31675">
        <ele>558.59997558594</ele>
        <time>2020-03-01T09:01:33.000Z</time>
      </trkpt>
      <trkpt lat="45.15932" lon="5.31677">
        <ele>552.20001220703</ele>
        <time>2020-03-01T09:01:34.000Z</time>
      </trkpt>
      <trkpt lat="45.15932" lon="5.31675">
        <ele>555.20001220703</ele>
        <time>2020-03-01T09:01:35.000Z</time>
      </trkpt>
      <trkpt lat="45.15935" lon="5.31676">
        <ele>556.79998779297</ele>
        <time>2020-03-01T09:01:36.000Z</time>
      </trkpt>
      <trkpt lat="45.15938" lon="5.31679">
        <ele>557.40002441406</ele>
        <time>2020-03-01T09:01:37.000Z</time>
      </trkpt>
      <trkpt lat="45.15941" lon="5.3168">
        <ele>558</ele>
        <time>2020-03-01T09:01:38.000Z</time>
      </trkpt>
      <trkpt lat="45.15943" lon="5.31682">
        <ele>558.20001220703</ele>
        <time>2020-03-01T09:01:39.000Z</time>
      </trkpt>
      <trkpt lat="45.15945" lon="5.31684">
        <ele>558.20001220703</ele>
        <time>2020-03-01T09:01:40.000Z</time>
      </trkpt>
      <trkpt lat="45.15948" lon="5.31685">
        <ele>558.40002441406</ele>
        <time>2020-03-01T09:01:41.000Z</time>
      </trkpt>
      <trkpt lat="45.15951" lon="5.31686">
        <ele>558.40002441406</ele>
        <time>2020-03-01T09:01:42.000Z</time>
      </trkpt>
      <trkpt lat="45.15953" lon="5.31688">
        <ele>558.40002441406</ele>
        <time>2020-03-01T09:01:43.000Z</time>
      </trkpt>
      <trkpt lat="45.15955" lon="5.3169">
        <ele>558.59997558594</ele>
        <time>2020-03-01T09:01:44.000Z</time>
      </trkpt>
      <trkpt lat="45.15957" lon="5.31692">
        <ele>558.59997558594</ele>
        <time>2020-03-01T09:01:45.000Z</time>
      </trkpt>
      <trkpt lat="45.15959" lon="5.31695">
        <ele>558.59997558594</ele>
        <time>2020-03-01T09:01:46.000Z</time>
      </trkpt>
      <trkpt lat="45.15961" lon="5.31698">
        <ele>558.59997558594</ele>
        <time>2020-03-01T09:01:47.000Z</time>
      </trkpt>
      <trkpt lat="45.15963" lon="5.31701">
        <ele>558.79998779297</ele>
        <time>2020-03-01T09:01:48.000Z</time>
      </trkpt>
      <trkpt lat="45.15965" lon="5.31705">
        <ele>558.79998779297</ele>
        <time>2020-03-01T09:01:49.000Z</time>
      </trkpt>
      <trkpt lat="45.15968" lon="5.31708">
        <ele>559</ele>
        <time>2020-03-01T09:01:50.000Z</time>
      </trkpt>
      <trkpt lat="45.15969" lon="5.31713">
        <ele>559</ele>
        <time>2020-03-01T09:01:51.000Z</time>
      </trkpt>
      <trkpt lat="45.15971" lon="5.31717">
        <ele>559</ele>
        <time>2020-03-01T09:01:52.000Z</time>
      </trkpt>
      <trkpt lat="45.15972" lon="5.31722">
        <ele>559</ele>
        <time>2020-03-01T09:01:53.000Z</time>
      </trkpt>
      <trkpt lat="45.15974" lon="5.31726">
        <ele>559.20001220703</ele>
        <time>2020-03-01T09:01:54.000Z</time>
      </trkpt>
      <trkpt lat="45.15975" lon="5.31731">
        <ele>559</ele>
        <time>2020-03-01T09:01:55.000Z</time>
      </trkpt>
      <trkpt lat="45.15975" lon="5.31735">
        <ele>559</ele>
        <time>2020-03-01T09:01:56.000Z</time>
      </trkpt>
      <trkpt lat="45.15976" lon="5.31739">
        <ele>559</ele>
        <time>2020-03-01T09:01:57.000Z</time>
      </trkpt>
      <trkpt lat="45.15976" lon="5.31743">
        <ele>558.79998779297</ele>
        <time>2020-03-01T09:01:58.000Z</time>
      </trkpt>
      <trkpt lat="45.15976" lon="5.31748">
        <ele>559</ele>
        <time>2020-03-01T09:01:59.000Z</time>
      </trkpt>
      <trkpt lat="45.15976" lon="5.31752">
        <ele>558.79998779297</ele>
        <time>2020-03-01T09:02:00.000Z</time>
      </trkpt>
      <trkpt lat="45.15976" lon="5.31756">
        <ele>558.79998779297</ele>
        <time>2020-03-01T09:02:01.000Z</time>
      </trkpt>
      <trkpt lat="45.15975" lon="5.31761">
        <ele>558.79998779297</ele>
        <time>2020-03-01T09:02:02.000Z</time>
      </trkpt>
      <trkpt lat="45.15973" lon="5.31765">
        <ele>558.79998779297</ele>
        <time>2020-03-01T09:02:03.000Z</time>
      </trkpt>
      <trkpt lat="45.15972" lon="5.31769">
        <ele>558.59997558594</ele>
        <time>2020-03-01T09:02:04.000Z</time>
      </trkpt>
      <trkpt lat="45.15971" lon="5.31773">
        <ele>559</ele>
        <time>2020-03-01T09:02:05.000Z</time>
      </trkpt>
      <trkpt lat="45.15969" lon="5.31777">
        <ele>558.79998779297</ele>
        <time>2020-03-01T09:02:06.000Z</time>
      </trkpt>
      <trkpt lat="45.15968" lon="5.3178">
        <ele>558.59997558594</ele>
        <time>2020-03-01T09:02:07.000Z</time>
      </trkpt>
      <trkpt lat="45.15966" lon="5.31783">
        <ele>558.79998779297</ele>
        <time>2020-03-01T09:02:08.000Z</time>
      </trkpt>
      <trkpt lat="45.15965" lon="5.31787">
        <ele>558.59997558594</ele>
        <time>2020-03-01T09:02:09.000Z</time>
      </trkpt>
      <trkpt lat="45.15963" lon="5.3179">
        <ele>558.59997558594</ele>
        <time>2020-03-01T09:02:10.000Z</time>
      </trkpt>
      <trkpt lat="45.1596" lon="5.31793">
        <ele>558.59997558594</ele>
        <time>2020-03-01T09:02:11.000Z</time>
      </trkpt>
      <trkpt lat="45.15959" lon="5.31797">
        <ele>558.59997558594</ele>
        <time>2020-03-01T09:02:12.000Z</time>
      </trkpt>
      <trkpt lat="45.15957" lon="5.318">
        <ele>558.59997558594</ele>
        <time>2020-03-01T09:02:13.000Z</time>
      </trkpt>
      <trkpt lat="45.15956" lon="5.31804">
        <ele>558.59997558594</ele>
        <time>2020-03-01T09:02:14.000Z</time>
      </trkpt>
      <trkpt lat="45.15954" lon="5.31808">
        <ele>558.59997558594</ele>
        <time>2020-03-01T09:02:15.000Z</time>
      </trkpt>
      <trkpt lat="45.15953" lon="5.31811">
        <ele>558.79998779297</ele>
        <time>2020-03-01T09:02:16.000Z</time>
      </trkpt>
      <trkpt lat="45.15953" lon="5.31814">
        <ele>558.59997558594</ele>
        <time>2020-03-01T09:02:17.000Z</time>
      </trkpt>
      <trkpt lat="45.15952" lon="5.31817">
        <ele>558.79998779297</ele>
        <time>2020-03-01T09:02:18.000Z</time>
      </trkpt>
      <trkpt lat="45.15951" lon="5.31821">
        <ele>558.79998779297</ele>
        <time>2020-03-01T09:02:19.000Z</time>
      </trkpt>
      <trkpt lat="45.15951" lon="5.31825">
        <ele>558.79998779297</ele>
        <time>2020-03-01T09:02:20.000Z</time>
      </trkpt>
      <trkpt lat="45.15951" lon="5.31829">
        <ele>558.79998779297</ele>
        <time>2020-03-01T09:02:21.000Z</time>
      </trkpt>
      <trkpt lat="45.15951" lon="5.31833">
        <ele>558.79998779297</ele>
        <time>2020-03-01T09:02:22.000Z</time>
      </trkpt>
      <trkpt lat="45.15952" lon="5.31836">
        <ele>559</ele>
        <time>2020-03-01T09:02:23.000Z</time>
      </trkpt>
      <trkpt lat="45.15953" lon="5.3184">
        <ele>559.20001220703</ele>
        <time>2020-03-01T09:02:24.000Z</time>
      </trkpt>
      <trkpt lat="45.15954" lon="5.31843">
        <ele>559.59997558594</ele>
        <time>2020-03-01T09:02:25.000Z</time>
      </trkpt>
      <trkpt lat="45.15954" lon="5.31846">
        <ele>559.59997558594</ele>
        <time>2020-03-01T09:02:26.000Z</time>
      </trkpt>
      <trkpt lat="45.15956" lon="5.31849">
        <ele>559.79998779297</ele>
        <time>2020-03-01T09:02:27.000Z</time>
      </trkpt>
      <trkpt lat="45.15958" lon="5.31852">
        <ele>560</ele>
        <time>2020-03-01T09:02:28.000Z</time>
      </trkpt>
      <trkpt lat="45.15959" lon="5.31854">
        <ele>560</ele>
        <time>2020-03-01T09:02:29.000Z</time>
      </trkpt>
      <trkpt lat="45.1596" lon="5.31857">
        <ele>560.20001220703</ele>
        <time>2020-03-01T09:02:30.000Z</time>
      </trkpt>
      <trkpt lat="45.15961" lon="5.31859">
        <ele>560.20001220703</ele>
        <time>2020-03-01T09:02:31.000Z</time>
      </trkpt>
      <trkpt lat="45.15963" lon="5.31861">
        <ele>560.20001220703</ele>
        <time>2020-03-01T09:02:32.000Z</time>
      </trkpt>
      <trkpt lat="45.15965" lon="5.31863">
        <ele>560.20001220703</ele>
        <time>2020-03-01T09:02:33.000Z</time>
      </trkpt>
      <trkpt lat="45.15968" lon="5.31865">
        <ele>560.20001220703</ele>
        <time>2020-03-01T09:02:34.000Z</time>
      </trkpt>
      <trkpt lat="45.15971" lon="5.31866">
        <ele>560.20001220703</ele>
        <time>2020-03-01T09:02:35.000Z</time>
      </trkpt>
      <trkpt lat="45.15974" lon="5.31868">
        <ele>560.20001220703</ele>
        <time>2020-03-01T09:02:36.000Z</time>
      </trkpt>
      <trkpt lat="45.15978" lon="5.31869">
        <ele>560.20001220703</ele>
        <time>2020-03-01T09:02:37.000Z</time>
      </trkpt>
      <trkpt lat="45.15981" lon="5.31871">
        <ele>560.20001220703</ele>
        <time>2020-03-01T09:02:38.000Z</time>
      </trkpt>
      <trkpt lat="45.15984" lon="5.31872">
        <ele>560.20001220703</ele>
        <time>2020-03-01T09:02:39.000Z</time>
      </trkpt>
      <trkpt lat="45.15987" lon="5.31874">
        <ele>560.20001220703</ele>
        <time>2020-03-01T09:02:40.000Z</time>
      </trkpt>
      <trkpt lat="45.1599" lon="5.31875">
        <ele>560.59997558594</ele>
        <time>2020-03-01T09:02:41.000Z</time>
      </trkpt>
      <trkpt lat="45.15992" lon="5.31876">
        <ele>560.59997558594</ele>
        <time>2020-03-01T09:02:42.000Z</time>
      </trkpt>
      <trkpt lat="45.15995" lon="5.31877">
        <ele>560.59997558594</ele>
        <time>2020-03-01T09:02:43.000Z</time>
      </trkpt>
      <trkpt lat="45.15997" lon="5.31878">
        <ele>560.79998779297</ele>
        <time>2020-03-01T09:02:44.000Z</time>
      </trkpt>
      <trkpt lat="45.16001" lon="5.31879">
        <ele>560.79998779297</ele>
        <time>2020-03-01T09:02:45.000Z</time>
      </trkpt>
      <trkpt lat="45.16003" lon="5.3188">
        <ele>561</ele>
        <time>2020-03-01T09:02:46.000Z</time>
      </trkpt>
      <trkpt lat="45.16005" lon="5.31882">
        <ele>561</ele>
        <time>2020-03-01T09:02:47.000Z</time>
      </trkpt>
      <trkpt lat="45.16008" lon="5.31883">
        <ele>560.79998779297</ele>
        <time>2020-03-01T09:02:48.000Z</time>
      </trkpt>
      <trkpt lat="45.16011" lon="5.31884">
        <ele>560.79998779297</ele>
        <time>2020-03-01T09:02:49.000Z</time>
      </trkpt>
      <trkpt lat="45.16013" lon="5.31885">
        <ele>561</ele>
        <time>2020-03-01T09:02:50.000Z</time>
      </trkpt>
      <trkpt lat="45.16017" lon="5.31886">
        <ele>561</ele>
        <time>2020-03-01T09:02:51.000Z</time>
      </trkpt>
      <trkpt lat="45.1602" lon="5.31888">
        <ele>561.20001220703</ele>
        <time>2020-03-01T09:02:52.000Z</time>
      </trkpt>
      <trkpt lat="45.16024" lon="5.3189">
        <ele>561.20001220703</ele>
        <time>2020-03-01T09:02:53.000Z</time>
      </trkpt>
      <trkpt lat="45.16027" lon="5.31891">
        <ele>561.20001220703</ele>
        <time>2020-03-01T09:02:54.000Z</time>
      </trkpt>
      <trkpt lat="45.1603" lon="5.31892">
        <ele>561.40002441406</ele>
        <time>2020-03-01T09:02:55.000Z</time>
      </trkpt>
      <trkpt lat="45.16033" lon="5.31894">
        <ele>561.40002441406</ele>
        <time>2020-03-01T09:02:56.000Z</time>
      </trkpt>
      <trkpt lat="45.16035" lon="5.31895">
        <ele>561.59997558594</ele>
        <time>2020-03-01T09:02:57.000Z</time>
      </trkpt>
      <trkpt lat="45.16037" lon="5.31897">
        <ele>561.79998779297</ele>
        <time>2020-03-01T09:02:58.000Z</time>
      </trkpt>
      <trkpt lat="45.1604" lon="5.31899">
        <ele>562</ele>
        <time>2020-03-01T09:02:59.000Z</time>
      </trkpt>
      <trkpt lat="45.16043" lon="5.319">
        <ele>562</ele>
        <time>2020-03-01T09:03:00.000Z</time>
      </trkpt>
      <trkpt lat="45.16045" lon="5.31901">
        <ele>562</ele>
        <time>2020-03-01T09:03:01.000Z</time>
      </trkpt>
      <trkpt lat="45.16047" lon="5.31902">
        <ele>562</ele>
        <time>2020-03-01T09:03:02.000Z</time>
      </trkpt>
      <trkpt lat="45.16049" lon="5.31903">
        <ele>562.20001220703</ele>
        <time>2020-03-01T09:03:03.000Z</time>
      </trkpt>
      <trkpt lat="45.16051" lon="5.31904">
        <ele>562.20001220703</ele>
        <time>2020-03-01T09:03:04.000Z</time>
      </trkpt>
      <trkpt lat="45.16054" lon="5.31905">
        <ele>562.20001220703</ele>
        <time>2020-03-01T09:03:05.000Z</time>
      </trkpt>
      <trkpt lat="45.16056" lon="5.31907">
        <ele>562.20001220703</ele>
        <time>2020-03-01T09:03:06.000Z</time>
      </trkpt>
      <trkpt lat="45.16057" lon="5.31908">
        <ele>562.40002441406</ele>
        <time>2020-03-01T09:03:07.000Z</time>
      </trkpt>
      <trkpt lat="45.16059" lon="5.31909">
        <ele>562.40002441406</ele>
        <time>2020-03-01T09:03:08.000Z</time>
      </trkpt>
      <trkpt lat="45.16062" lon="5.3191">
        <ele>562.40002441406</ele>
        <time>2020-03-01T09:03:09.000Z</time>
      </trkpt>
      <trkpt lat="45.16064" lon="5.31911">
        <ele>562.59997558594</ele>
        <time>2020-03-01T09:03:10.000Z</time>
      </trkpt>
      <trkpt lat="45.16065" lon="5.31912">
        <ele>562.59997558594</ele>
        <time>2020-03-01T09:03:11.000Z</time>
      </trkpt>
      <trkpt lat="45.16067" lon="5.31913">
        <ele>562.79998779297</ele>
        <time>2020-03-01T09:03:12.000Z</time>
      </trkpt>
      <trkpt lat="45.16069" lon="5.31914">
        <ele>563</ele>
        <time>2020-03-01T09:03:13.000Z</time>
      </trkpt>
      <trkpt lat="45.16071" lon="5.31915">
        <ele>563</ele>
        <time>2020-03-01T09:03:14.000Z</time>
      </trkpt>
      <trkpt lat="45.16075" lon="5.31916">
        <ele>563</ele>
        <time>2020-03-01T09:03:15.000Z</time>
      </trkpt>
      <trkpt lat="45.16077" lon="5.31916">
        <ele>563</ele>
        <time>2020-03-01T09:03:16.000Z</time>
      </trkpt>
      <trkpt lat="45.16081" lon="5.31916">
        <ele>563</ele>
        <time>2020-03-01T09:03:17.000Z</time>
      </trkpt>
      <trkpt lat="45.16084" lon="5.31917">
        <ele>563</ele>
        <time>2020-03-01T09:03:18.000Z</time>
      </trkpt>
      <trkpt lat="45.16086" lon="5.31918">
        <ele>563</ele>
        <time>2020-03-01T09:03:19.000Z</time>
      </trkpt>
      <trkpt lat="45.16089" lon="5.31919">
        <ele>563</ele>
        <time>2020-03-01T09:03:20.000Z</time>
      </trkpt>
      <trkpt lat="45.16092" lon="5.31919">
        <ele>563</ele>
        <time>2020-03-01T09:03:21.000Z</time>
      </trkpt>
      <trkpt lat="45.16096" lon="5.3192">
        <ele>563.20001220703</ele>
        <time>2020-03-01T09:03:22.000Z</time>
      </trkpt>
      <trkpt lat="45.16098" lon="5.31921">
        <ele>563.40002441406</ele>
        <time>2020-03-01T09:03:23.000Z</time>
      </trkpt>
      <trkpt lat="45.161" lon="5.31921">
        <ele>563.59997558594</ele>
        <time>2020-03-01T09:03:24.000Z</time>
      </trkpt>
      <trkpt lat="45.16102" lon="5.31922">
        <ele>563.79998779297</ele>
        <time>2020-03-01T09:03:25.000Z</time>
      </trkpt>
      <trkpt lat="45.16104" lon="5.31922">
        <ele>564.20001220703</ele>
        <time>2020-03-01T09:03:26.000Z</time>
      </trkpt>
      <trkpt lat="45.16105" lon="5.31923">
        <ele>564.20001220703</ele>
        <time>2020-03-01T09:03:27.000Z</time>
      </trkpt>
      <trkpt lat="45.16107" lon="5.31923">
        <ele>564.40002441406</ele>
        <time>2020-03-01T09:03:28.000Z</time>
      </trkpt>
      <trkpt lat="45.16108" lon="5.31923">
        <ele>564.40002441406</ele>
        <time>2020-03-01T09:03:29.000Z</time>
      </trkpt>
      <trkpt lat="45.16109" lon="5.31923">
        <ele>564.40002441406</ele>
        <time>2020-03-01T09:03:30.000Z</time>
      </trkpt>
      <trkpt lat="45.16111" lon="5.31924">
        <ele>564.40002441406</ele>
        <time>2020-03-01T09:03:31.000Z</time>
      </trkpt>
      <trkpt lat="45.16113" lon="5.31924">
        <ele>564.20001220703</ele>
        <time>2020-03-01T09:03:32.000Z</time>
      </trkpt>
      <trkpt lat="45.16116" lon="5.31925">
        <ele>564.20001220703</ele>
        <time>2020-03-01T09:03:33.000Z</time>
      </trkpt>
      <trkpt lat="45.16119" lon="5.31925">
        <ele>564.20001220703</ele>
        <time>2020-03-01T09:03:34.000Z</time>
      </trkpt>
      <trkpt lat="45.16121" lon="5.31926">
        <ele>564.20001220703</ele>
        <time>2020-03-01T09:03:35.000Z</time>
      </trkpt>
      <trkpt lat="45.16123" lon="5.31927">
        <ele>564.20001220703</ele>
        <time>2020-03-01T09:03:36.000Z</time>
      </trkpt>
      <trkpt lat="45.16126" lon="5.31928">
        <ele>564.20001220703</ele>
        <time>2020-03-01T09:03:37.000Z</time>
      </trkpt>
      <trkpt lat="45.16129" lon="5.31928">
        <ele>564.40002441406</ele>
        <time>2020-03-01T09:03:38.000Z</time>
      </trkpt>
      <trkpt lat="45.16132" lon="5.31929">
        <ele>564.40002441406</ele>
        <time>2020-03-01T09:03:39.000Z</time>
      </trkpt>
      <trkpt lat="45.16135" lon="5.31929">
        <ele>564.40002441406</ele>
        <time>2020-03-01T09:03:40.000Z</time>
      </trkpt>
      <trkpt lat="45.16138" lon="5.31929">
        <ele>564.40002441406</ele>
        <time>2020-03-01T09:03:41.000Z</time>
      </trkpt>
      <trkpt lat="45.16141" lon="5.31931">
        <ele>564.40002441406</ele>
        <time>2020-03-01T09:03:42.000Z</time>
      </trkpt>
      <trkpt lat="45.16145" lon="5.31932">
        <ele>564.40002441406</ele>
        <time>2020-03-01T09:03:43.000Z</time>
      </trkpt>
      <trkpt lat="45.16149" lon="5.31933">
        <ele>564.40002441406</ele>
        <time>2020-03-01T09:03:44.000Z</time>
      </trkpt>
      <trkpt lat="45.16153" lon="5.31934">
        <ele>564.40002441406</ele>
        <time>2020-03-01T09:03:45.000Z</time>
      </trkpt>
      <trkpt lat="45.16157" lon="5.31936">
        <ele>564.59997558594</ele>
        <time>2020-03-01T09:03:46.000Z</time>
      </trkpt>
      <trkpt lat="45.1616" lon="5.31937">
        <ele>564.79998779297</ele>
        <time>2020-03-01T09:03:47.000Z</time>
      </trkpt>
      <trkpt lat="45.16163" lon="5.31937">
        <ele>565</ele>
        <time>2020-03-01T09:03:48.000Z</time>
      </trkpt>
      <trkpt lat="45.16165" lon="5.31938">
        <ele>565.20001220703</ele>
        <time>2020-03-01T09:03:49.000Z</time>
      </trkpt>
      <trkpt lat="45.16168" lon="5.31939">
        <ele>565.20001220703</ele>
        <time>2020-03-01T09:03:50.000Z</time>
      </trkpt>
      <trkpt lat="45.16172" lon="5.3194">
        <ele>565.40002441406</ele>
        <time>2020-03-01T09:03:51.000Z</time>
      </trkpt>
      <trkpt lat="45.16174" lon="5.31941">
        <ele>565.59997558594</ele>
        <time>2020-03-01T09:03:52.000Z</time>
      </trkpt>
      <trkpt lat="45.16176" lon="5.31942">
        <ele>565.40002441406</ele>
        <time>2020-03-01T09:03:53.000Z</time>
      </trkpt>
      <trkpt lat="45.16178" lon="5.31943">
        <ele>565.59997558594</ele>
        <time>2020-03-01T09:03:54.000Z</time>
      </trkpt>
      <trkpt lat="45.16181" lon="5.31944">
        <ele>565.79998779297</ele>
        <time>2020-03-01T09:03:55.000Z</time>
      </trkpt>
      <trkpt lat="45.16185" lon="5.31945">
        <ele>565.79998779297</ele>
        <time>2020-03-01T09:03:56.000Z</time>
      </trkpt>
      <trkpt lat="45.16188" lon="5.31945">
        <ele>566</ele>
        <time>2020-03-01T09:03:57.000Z</time>
      </trkpt>
      <trkpt lat="45.16191" lon="5.31945">
        <ele>566.40002441406</ele>
        <time>2020-03-01T09:03:58.000Z</time>
      </trkpt>
      <trkpt lat="45.16194" lon="5.31944">
        <ele>566.79998779297</ele>
        <time>2020-03-01T09:03:59.000Z</time>
      </trkpt>
      <trkpt lat="45.16197" lon="5.31943">
        <ele>567.20001220703</ele>
        <time>2020-03-01T09:04:00.000Z</time>
      </trkpt>
      <trkpt lat="45.16199" lon="5.31942">
        <ele>567.20001220703</ele>
        <time>2020-03-01T09:04:01.000Z</time>
      </trkpt>
      <trkpt lat="45.16202" lon="5.31941">
        <ele>567.40002441406</ele>
        <time>2020-03-01T09:04:02.000Z</time>
      </trkpt>
      <trkpt lat="45.16205" lon="5.31941">
        <ele>567.40002441406</ele>
        <time>2020-03-01T09:04:03.000Z</time>
      </trkpt>
      <trkpt lat="45.16208" lon="5.31941">
        <ele>567.40002441406</ele>
        <time>2020-03-01T09:04:04.000Z</time>
      </trkpt>
      <trkpt lat="45.1621" lon="5.31942">
        <ele>567.40002441406</ele>
        <time>2020-03-01T09:04:05.000Z</time>
      </trkpt>
      <trkpt lat="45.16213" lon="5.31942">
        <ele>567.20001220703</ele>
        <time>2020-03-01T09:04:06.000Z</time>
      </trkpt>
      <trkpt lat="45.16215" lon="5.31943">
        <ele>567.20001220703</ele>
        <time>2020-03-01T09:04:07.000Z</time>
      </trkpt>
      <trkpt lat="45.16217" lon="5.31943">
        <ele>567.20001220703</ele>
        <time>2020-03-01T09:04:08.000Z</time>
      </trkpt>
      <trkpt lat="45.1622" lon="5.31943">
        <ele>567.40002441406</ele>
        <time>2020-03-01T09:04:09.000Z</time>
      </trkpt>
      <trkpt lat="45.16223" lon="5.31943">
        <ele>567.40002441406</ele>
        <time>2020-03-01T09:04:10.000Z</time>
      </trkpt>
      <trkpt lat="45.16226" lon="5.31942">
        <ele>567.40002441406</ele>
        <time>2020-03-01T09:04:11.000Z</time>
      </trkpt>
      <trkpt lat="45.16229" lon="5.31942">
        <ele>567.59997558594</ele>
        <time>2020-03-01T09:04:12.000Z</time>
      </trkpt>
      <trkpt lat="45.16231" lon="5.31941">
        <ele>567.79998779297</ele>
        <time>2020-03-01T09:04:13.000Z</time>
      </trkpt>
      <trkpt lat="45.16234" lon="5.3194">
        <ele>567.79998779297</ele>
        <time>2020-03-01T09:04:14.000Z</time>
      </trkpt>
      <trkpt lat="45.16236" lon="5.31939">
        <ele>567.59997558594</ele>
        <time>2020-03-01T09:04:15.000Z</time>
      </trkpt>
      <trkpt lat="45.16239" lon="5.31938">
        <ele>567.79998779297</ele>
        <time>2020-03-01T09:04:16.000Z</time>
      </trkpt>
      <trkpt lat="45.16242" lon="5.31938">
        <ele>567.79998779297</ele>
        <time>2020-03-01T09:04:17.000Z</time>
      </trkpt>
      <trkpt lat="45.16246" lon="5.31938">
        <ele>568</ele>
        <time>2020-03-01T09:04:18.000Z</time>
      </trkpt>
      <trkpt lat="45.16249" lon="5.31937">
        <ele>568</ele>
        <time>2020-03-01T09:04:19.000Z</time>
      </trkpt>
      <trkpt lat="45.16252" lon="5.31937">
        <ele>568</ele>
        <time>2020-03-01T09:04:20.000Z</time>
      </trkpt>
      <trkpt lat="45.16254" lon="5.31936">
        <ele>568.20001220703</ele>
        <time>2020-03-01T09:04:21.000Z</time>
      </trkpt>
      <trkpt lat="45.16257" lon="5.31936">
        <ele>568.20001220703</ele>
        <time>2020-03-01T09:04:22.000Z</time>
      </trkpt>
      <trkpt lat="45.16259" lon="5.31936">
        <ele>568.20001220703</ele>
        <time>2020-03-01T09:04:23.000Z</time>
      </trkpt>
      <trkpt lat="45.16261" lon="5.31935">
        <ele>568.20001220703</ele>
        <time>2020-03-01T09:04:24.000Z</time>
      </trkpt>
      <trkpt lat="45.16263" lon="5.31934">
        <ele>568.20001220703</ele>
        <time>2020-03-01T09:04:25.000Z</time>
      </trkpt>
      <trkpt lat="45.16264" lon="5.31933">
        <ele>568.20001220703</ele>
        <time>2020-03-01T09:04:26.000Z</time>
      </trkpt>
      <trkpt lat="45.16266" lon="5.31931">
        <ele>568.40002441406</ele>
        <time>2020-03-01T09:04:27.000Z</time>
      </trkpt>
      <trkpt lat="45.16268" lon="5.31929">
        <ele>568.40002441406</ele>
        <time>2020-03-01T09:04:28.000Z</time>
      </trkpt>
      <trkpt lat="45.1627" lon="5.31928">
        <ele>568.59997558594</ele>
        <time>2020-03-01T09:04:29.000Z</time>
      </trkpt>
      <trkpt lat="45.16272" lon="5.31928">
        <ele>568.79998779297</ele>
        <time>2020-03-01T09:04:30.000Z</time>
      </trkpt>
      <trkpt lat="45.16274" lon="5.31928">
        <ele>568.79998779297</ele>
        <time>2020-03-01T09:04:31.000Z</time>
      </trkpt>
      <trkpt lat="45.16276" lon="5.31926">
        <ele>568.79998779297</ele>
        <time>2020-03-01T09:04:32.000Z</time>
      </trkpt>
      <trkpt lat="45.16277" lon="5.31925">
        <ele>569</ele>
        <time>2020-03-01T09:04:33.000Z</time>
      </trkpt>
      <trkpt lat="45.16279" lon="5.31923">
        <ele>569</ele>
        <time>2020-03-01T09:04:34.000Z</time>
      </trkpt>
      <trkpt lat="45.16281" lon="5.31922">
        <ele>569</ele>
        <time>2020-03-01T09:04:35.000Z</time>
      </trkpt>
      <trkpt lat="45.16283" lon="5.31921">
        <ele>569</ele>
        <time>2020-03-01T09:04:36.000Z</time>
      </trkpt>
      <trkpt lat="45.16285" lon="5.3192">
        <ele>569</ele>
        <time>2020-03-01T09:04:37.000Z</time>
      </trkpt>
      <trkpt lat="45.16287" lon="5.31919">
        <ele>569.20001220703</ele>
        <time>2020-03-01T09:04:38.000Z</time>
      </trkpt>
      <trkpt lat="45.1629" lon="5.31918">
        <ele>569.20001220703</ele>
        <time>2020-03-01T09:04:39.000Z</time>
      </trkpt>
      <trkpt lat="45.16292" lon="5.31917">
        <ele>569.40002441406</ele>
        <time>2020-03-01T09:04:40.000Z</time>
      </trkpt>
      <trkpt lat="45.16294" lon="5.31917">
        <ele>569.40002441406</ele>
        <time>2020-03-01T09:04:41.000Z</time>
      </trkpt>
      <trkpt lat="45.16296" lon="5.31916">
        <ele>569.40002441406</ele>
        <time>2020-03-01T09:04:42.000Z</time>
      </trkpt>
      <trkpt lat="45.16298" lon="5.31915">
        <ele>569.59997558594</ele>
        <time>2020-03-01T09:04:43.000Z</time>
      </trkpt>
      <trkpt lat="45.163" lon="5.31913">
        <ele>569.59997558594</ele>
        <time>2020-03-01T09:04:44.000Z</time>
      </trkpt>
      <trkpt lat="45.16302" lon="5.31912">
        <ele>569.59997558594</ele>
        <time>2020-03-01T09:04:45.000Z</time>
      </trkpt>
      <trkpt lat="45.16304" lon="5.31911">
        <ele>569.59997558594</ele>
        <time>2020-03-01T09:04:46.000Z</time>
      </trkpt>
      <trkpt lat="45.16306" lon="5.3191">
        <ele>570</ele>
        <time>2020-03-01T09:04:47.000Z</time>
      </trkpt>
      <trkpt lat="45.16309" lon="5.31909">
        <ele>570.20001220703</ele>
        <time>2020-03-01T09:04:48.000Z</time>
      </trkpt>
      <trkpt lat="45.16311" lon="5.31908">
        <ele>570</ele>
        <time>2020-03-01T09:04:49.000Z</time>
      </trkpt>
      <trkpt lat="45.16313" lon="5.31907">
        <ele>570</ele>
        <time>2020-03-01T09:04:50.000Z</time>
      </trkpt>
      <trkpt lat="45.16316" lon="5.31905">
        <ele>570</ele>
        <time>2020-03-01T09:04:51.000Z</time>
      </trkpt>
      <trkpt lat="45.1632" lon="5.31904">
        <ele>570.20001220703</ele>
        <time>2020-03-01T09:04:52.000Z</time>
      </trkpt>
      <trkpt lat="45.16322" lon="5.31904">
        <ele>570.40002441406</ele>
        <time>2020-03-01T09:04:53.000Z</time>
      </trkpt>
      <trkpt lat="45.16324" lon="5.31902">
        <ele>570.40002441406</ele>
        <time>2020-03-01T09:04:54.000Z</time>
      </trkpt>
      <trkpt lat="45.16325" lon="5.31899">
        <ele>570.59997558594</ele>
        <time>2020-03-01T09:04:55.000Z</time>
      </trkpt>
      <trkpt lat="45.16327" lon="5.31897">
        <ele>570.79998779297</ele>
        <time>2020-03-01T09:04:56.000Z</time>
      </trkpt>
      <trkpt lat="45.16329" lon="5.31896">
        <ele>571</ele>
        <time>2020-03-01T09:04:57.000Z</time>
      </trkpt>
      <trkpt lat="45.16332" lon="5.31895">
        <ele>571</ele>
        <time>2020-03-01T09:04:58.000Z</time>
      </trkpt>
      <trkpt lat="45.16335" lon="5.31894">
        <ele>571</ele>
        <time>2020-03-01T09:04:59.000Z</time>
      </trkpt>
      <trkpt lat="45.1634" lon="5.31893">
        <ele>571.20001220703</ele>
        <time>2020-03-01T09:05:00.000Z</time>
      </trkpt>
      <trkpt lat="45.16343" lon="5.31891">
        <ele>571.20001220703</ele>
        <time>2020-03-01T09:05:01.000Z</time>
      </trkpt>
      <trkpt lat="45.16345" lon="5.3189">
        <ele>571.20001220703</ele>
        <time>2020-03-01T09:05:02.000Z</time>
      </trkpt>
      <trkpt lat="45.16348" lon="5.31889">
        <ele>571.40002441406</ele>
        <time>2020-03-01T09:05:03.000Z</time>
      </trkpt>
      <trkpt lat="45.1635" lon="5.31887">
        <ele>571.40002441406</ele>
        <time>2020-03-01T09:05:04.000Z</time>
      </trkpt>
      <trkpt lat="45.16353" lon="5.31885">
        <ele>571.59997558594</ele>
        <time>2020-03-01T09:05:05.000Z</time>
      </trkpt>
      <trkpt lat="45.16356" lon="5.31883">
        <ele>571.59997558594</ele>
        <time>2020-03-01T09:05:06.000Z</time>
      </trkpt>
      <trkpt lat="45.16357" lon="5.31881">
        <ele>571.59997558594</ele>
        <time>2020-03-01T09:05:07.000Z</time>
      </trkpt>
      <trkpt lat="45.16359" lon="5.31879">
        <ele>571.59997558594</ele>
        <time>2020-03-01T09:05:08.000Z</time>
      </trkpt>
      <trkpt lat="45.1636" lon="5.31877">
        <ele>571.40002441406</ele>
        <time>2020-03-01T09:05:09.000Z</time>
      </trkpt>
      <trkpt lat="45.1636" lon="5.31875">
        <ele>571.40002441406</ele>
        <time>2020-03-01T09:05:10.000Z</time>
      </trkpt>
      <trkpt lat="45.1636" lon="5.31872">
        <ele>571.20001220703</ele>
        <time>2020-03-01T09:05:11.000Z</time>
      </trkpt>
      <trkpt lat="45.1636" lon="5.31869">
        <ele>571.20001220703</ele>
        <time>2020-03-01T09:05:12.000Z</time>
      </trkpt>
      <trkpt lat="45.16359" lon="5.31865">
        <ele>571.20001220703</ele>
        <time>2020-03-01T09:05:13.000Z</time>
      </trkpt>
      <trkpt lat="45.16358" lon="5.3186">
        <ele>571.20001220703</ele>
        <time>2020-03-01T09:05:14.000Z</time>
      </trkpt>
      <trkpt lat="45.16357" lon="5.31856">
        <ele>571.20001220703</ele>
        <time>2020-03-01T09:05:15.000Z</time>
      </trkpt>
      <trkpt lat="45.16357" lon="5.31853">
        <ele>571.20001220703</ele>
        <time>2020-03-01T09:05:16.000Z</time>
      </trkpt>
      <trkpt lat="45.16356" lon="5.3185">
        <ele>571.40002441406</ele>
        <time>2020-03-01T09:05:17.000Z</time>
      </trkpt>
      <trkpt lat="45.16356" lon="5.31848">
        <ele>571.40002441406</ele>
        <time>2020-03-01T09:05:18.000Z</time>
      </trkpt>
      <trkpt lat="45.16356" lon="5.31845">
        <ele>571.40002441406</ele>
        <time>2020-03-01T09:05:19.000Z</time>
      </trkpt>
      <trkpt lat="45.16355" lon="5.31842">
        <ele>571.59997558594</ele>
        <time>2020-03-01T09:05:20.000Z</time>
      </trkpt>
      <trkpt lat="45.16355" lon="5.31839">
        <ele>571.59997558594</ele>
        <time>2020-03-01T09:05:21.000Z</time>
      </trkpt>
      <trkpt lat="45.16355" lon="5.31836">
        <ele>571.79998779297</ele>
        <time>2020-03-01T09:05:22.000Z</time>
      </trkpt>
      <trkpt lat="45.16356" lon="5.31834">
        <ele>572</ele>
        <time>2020-03-01T09:05:23.000Z</time>
      </trkpt>
      <trkpt lat="45.16357" lon="5.31832">
        <ele>572</ele>
        <time>2020-03-01T09:05:24.000Z</time>
      </trkpt>
      <trkpt lat="45.16357" lon="5.31831">
        <ele>572.20001220703</ele>
        <time>2020-03-01T09:05:25.000Z</time>
      </trkpt>
      <trkpt lat="45.16358" lon="5.31828">
        <ele>572.40002441406</ele>
        <time>2020-03-01T09:05:26.000Z</time>
      </trkpt>
      <trkpt lat="45.1636" lon="5.31826">
        <ele>572.59997558594</ele>
        <time>2020-03-01T09:05:27.000Z</time>
      </trkpt>
      <trkpt lat="45.16362" lon="5.31824">
        <ele>573</ele>
        <time>2020-03-01T09:05:28.000Z</time>
      </trkpt>
      <trkpt lat="45.16364" lon="5.31822">
        <ele>573.20001220703</ele>
        <time>2020-03-01T09:05:29.000Z</time>
      </trkpt>
      <trkpt lat="45.16365" lon="5.31819">
        <ele>573.40002441406</ele>
        <time>2020-03-01T09:05:30.000Z</time>
      </trkpt>
      <trkpt lat="45.16366" lon="5.31817">
        <ele>573.40002441406</ele>
        <time>2020-03-01T09:05:31.000Z</time>
      </trkpt>
      <trkpt lat="45.16367" lon="5.31815">
        <ele>573.59997558594</ele>
        <time>2020-03-01T09:05:32.000Z</time>
      </trkpt>
      <trkpt lat="45.16369" lon="5.31812">
        <ele>573.79998779297</ele>
        <time>2020-03-01T09:05:33.000Z</time>
      </trkpt>
      <trkpt lat="45.16371" lon="5.3181">
        <ele>574</ele>
        <time>2020-03-01T09:05:34.000Z</time>
      </trkpt>
      <trkpt lat="45.16373" lon="5.31808">
        <ele>574.20001220703</ele>
        <time>2020-03-01T09:05:35.000Z</time>
      </trkpt>
      <trkpt lat="45.16375" lon="5.31807">
        <ele>574.40002441406</ele>
        <time>2020-03-01T09:05:36.000Z</time>
      </trkpt>
      <trkpt lat="45.16377" lon="5.31805">
        <ele>574.59997558594</ele>
        <time>2020-03-01T09:05:37.000Z</time>
      </trkpt>
      <trkpt lat="45.16379" lon="5.31803">
        <ele>574.59997558594</ele>
        <time>2020-03-01T09:05:38.000Z</time>
      </trkpt>
      <trkpt lat="45.16381" lon="5.31801">
        <ele>574.79998779297</ele>
        <time>2020-03-01T09:05:39.000Z</time>
      </trkpt>
      <trkpt lat="45.16382" lon="5.31799">
        <ele>574.59997558594</ele>
        <time>2020-03-01T09:05:40.000Z</time>
      </trkpt>
      <trkpt lat="45.16384" lon="5.31797">
        <ele>574.59997558594</ele>
        <time>2020-03-01T09:05:41.000Z</time>
      </trkpt>
      <trkpt lat="45.16387" lon="5.31797">
        <ele>574.79998779297</ele>
        <time>2020-03-01T09:05:42.000Z</time>
      </trkpt>
      <trkpt lat="45.16389" lon="5.31796">
        <ele>574.79998779297</ele>
        <time>2020-03-01T09:05:43.000Z</time>
      </trkpt>
      <trkpt lat="45.16391" lon="5.31794">
        <ele>575</ele>
        <time>2020-03-01T09:05:44.000Z</time>
      </trkpt>
      <trkpt lat="45.16393" lon="5.31794">
        <ele>575</ele>
        <time>2020-03-01T09:05:45.000Z</time>
      </trkpt>
      <trkpt lat="45.16395" lon="5.31794">
        <ele>575</ele>
        <time>2020-03-01T09:05:46.000Z</time>
      </trkpt>
      <trkpt lat="45.16398" lon="5.31793">
        <ele>575.20001220703</ele>
        <time>2020-03-01T09:05:47.000Z</time>
      </trkpt>
      <trkpt lat="45.164" lon="5.31792">
        <ele>575.40002441406</ele>
        <time>2020-03-01T09:05:48.000Z</time>
      </trkpt>
      <trkpt lat="45.16402" lon="5.31791">
        <ele>575.40002441406</ele>
        <time>2020-03-01T09:05:49.000Z</time>
      </trkpt>
      <trkpt lat="45.16404" lon="5.31789">
        <ele>575.40002441406</ele>
        <time>2020-03-01T09:05:50.000Z</time>
      </trkpt>
      <trkpt lat="45.16405" lon="5.31788">
        <ele>575.59997558594</ele>
        <time>2020-03-01T09:05:51.000Z</time>
      </trkpt>
      <trkpt lat="45.16404" lon="5.31783">
        <ele>575.59997558594</ele>
        <time>2020-03-01T09:05:52.000Z</time>
      </trkpt>
      <trkpt lat="45.16405" lon="5.31783">
        <ele>575.59997558594</ele>
        <time>2020-03-01T09:05:53.000Z</time>
      </trkpt>
      <trkpt lat="45.16406" lon="5.31782">
        <ele>575.59997558594</ele>
        <time>2020-03-01T09:05:54.000Z</time>
      </trkpt>
      <trkpt lat="45.16408" lon="5.31781">
        <ele>575.59997558594</ele>
        <time>2020-03-01T09:05:55.000Z</time>
      </trkpt>
      <trkpt lat="45.16409" lon="5.3178">
        <ele>575.79998779297</ele>
        <time>2020-03-01T09:05:56.000Z</time>
      </trkpt>
      <trkpt lat="45.16411" lon="5.31779">
        <ele>575.79998779297</ele>
        <time>2020-03-01T09:05:57.000Z</time>
      </trkpt>
      <trkpt lat="45.16413" lon="5.31778">
        <ele>575.79998779297</ele>
        <time>2020-03-01T09:05:58.000Z</time>
      </trkpt>
      <trkpt lat="45.16417" lon="5.31776">
        <ele>576</ele>
        <time>2020-03-01T09:05:59.000Z</time>
      </trkpt>
      <trkpt lat="45.16419" lon="5.31775">
        <ele>576</ele>
        <time>2020-03-01T09:06:00.000Z</time>
      </trkpt>
      <trkpt lat="45.16421" lon="5.31774">
        <ele>576</ele>
        <time>2020-03-01T09:06:01.000Z</time>
      </trkpt>
      <trkpt lat="45.16424" lon="5.31772">
        <ele>576.20001220703</ele>
        <time>2020-03-01T09:06:02.000Z</time>
      </trkpt>
      <trkpt lat="45.16426" lon="5.31768">
        <ele>576.59997558594</ele>
        <time>2020-03-01T09:06:03.000Z</time>
      </trkpt>
      <trkpt lat="45.16428" lon="5.31766">
        <ele>577</ele>
        <time>2020-03-01T09:06:04.000Z</time>
      </trkpt>
      <trkpt lat="45.1643" lon="5.31763">
        <ele>577.40002441406</ele>
        <time>2020-03-01T09:06:05.000Z</time>
      </trkpt>
      <trkpt lat="45.16432" lon="5.31761">
        <ele>577.79998779297</ele>
        <time>2020-03-01T09:06:06.000Z</time>
      </trkpt>
      <trkpt lat="45.16434" lon="5.3176">
        <ele>578</ele>
        <time>2020-03-01T09:06:07.000Z</time>
      </trkpt>
      <trkpt lat="45.16436" lon="5.31759">
        <ele>578</ele>
        <time>2020-03-01T09:06:08.000Z</time>
      </trkpt>
      <trkpt lat="45.16438" lon="5.31758">
        <ele>578.20001220703</ele>
        <time>2020-03-01T09:06:09.000Z</time>
      </trkpt>
      <trkpt lat="45.1644" lon="5.31756">
        <ele>578.59997558594</ele>
        <time>2020-03-01T09:06:10.000Z</time>
      </trkpt>
      <trkpt lat="45.16443" lon="5.31755">
        <ele>578.79998779297</ele>
        <time>2020-03-01T09:06:11.000Z</time>
      </trkpt>
      <trkpt lat="45.16445" lon="5.31754">
        <ele>578.79998779297</ele>
        <time>2020-03-01T09:06:12.000Z</time>
      </trkpt>
      <trkpt lat="45.16446" lon="5.31753">
        <ele>578.79998779297</ele>
        <time>2020-03-01T09:06:13.000Z</time>
      </trkpt>
      <trkpt lat="45.16448" lon="5.31751">
        <ele>579</ele>
        <time>2020-03-01T09:06:14.000Z</time>
      </trkpt>
      <trkpt lat="45.16449" lon="5.3175">
        <ele>579.20001220703</ele>
        <time>2020-03-01T09:06:15.000Z</time>
      </trkpt>
      <trkpt lat="45.1645" lon="5.31749">
        <ele>579.20001220703</ele>
        <time>2020-03-01T09:06:16.000Z</time>
      </trkpt>
      <trkpt lat="45.16452" lon="5.31748">
        <ele>579.40002441406</ele>
        <time>2020-03-01T09:06:17.000Z</time>
      </trkpt>
      <trkpt lat="45.16454" lon="5.31747">
        <ele>579.59997558594</ele>
        <time>2020-03-01T09:06:18.000Z</time>
      </trkpt>
      <trkpt lat="45.16456" lon="5.31745">
        <ele>579.79998779297</ele>
        <time>2020-03-01T09:06:19.000Z</time>
      </trkpt>
      <trkpt lat="45.16457" lon="5.31743">
        <ele>580</ele>
        <time>2020-03-01T09:06:20.000Z</time>
      </trkpt>
      <trkpt lat="45.16458" lon="5.31741">
        <ele>580.40002441406</ele>
        <time>2020-03-01T09:06:21.000Z</time>
      </trkpt>
      <trkpt lat="45.16459" lon="5.31739">
        <ele>581</ele>
        <time>2020-03-01T09:06:22.000Z</time>
      </trkpt>
      <trkpt lat="45.1646" lon="5.31737">
        <ele>581.20001220703</ele>
        <time>2020-03-01T09:06:23.000Z</time>
      </trkpt>
      <trkpt lat="45.16461" lon="5.31735">
        <ele>581.59997558594</ele>
        <time>2020-03-01T09:06:24.000Z</time>
      </trkpt>
      <trkpt lat="45.16462" lon="5.31734">
        <ele>581.59997558594</ele>
        <time>2020-03-01T09:06:25.000Z</time>
      </trkpt>
      <trkpt lat="45.16463" lon="5.31732">
        <ele>581.79998779297</ele>
        <time>2020-03-01T09:06:26.000Z</time>
      </trkpt>
      <trkpt lat="45.16464" lon="5.3173">
        <ele>581.79998779297</ele>
        <time>2020-03-01T09:06:27.000Z</time>
      </trkpt>
      <trkpt lat="45.16464" lon="5.31727">
        <ele>581.79998779297</ele>
        <time>2020-03-01T09:06:28.000Z</time>
      </trkpt>
      <trkpt lat="45.16465" lon="5.31725">
        <ele>581.79998779297</ele>
        <time>2020-03-01T09:06:29.000Z</time>
      </trkpt>
      <trkpt lat="45.16466" lon="5.31722">
        <ele>582</ele>
        <time>2020-03-01T09:06:30.000Z</time>
      </trkpt>
      <trkpt lat="45.16466" lon="5.3172">
        <ele>582.20001220703</ele>
        <time>2020-03-01T09:06:31.000Z</time>
      </trkpt>
      <trkpt lat="45.16467" lon="5.31716">
        <ele>582.59997558594</ele>
        <time>2020-03-01T09:06:32.000Z</time>
      </trkpt>
      <trkpt lat="45.16468" lon="5.31714">
        <ele>583</ele>
        <time>2020-03-01T09:06:33.000Z</time>
      </trkpt>
      <trkpt lat="45.1647" lon="5.31711">
        <ele>583.20001220703</ele>
        <time>2020-03-01T09:06:34.000Z</time>
      </trkpt>
      <trkpt lat="45.16471" lon="5.31708">
        <ele>583.59997558594</ele>
        <time>2020-03-01T09:06:35.000Z</time>
      </trkpt>
      <trkpt lat="45.16472" lon="5.31706">
        <ele>583.79998779297</ele>
        <time>2020-03-01T09:06:36.000Z</time>
      </trkpt>
      <trkpt lat="45.16474" lon="5.31703">
        <ele>584</ele>
        <time>2020-03-01T09:06:37.000Z</time>
      </trkpt>
      <trkpt lat="45.16475" lon="5.317">
        <ele>584</ele>
        <time>2020-03-01T09:06:38.000Z</time>
      </trkpt>
      <trkpt lat="45.16475" lon="5.31698">
        <ele>584.20001220703</ele>
        <time>2020-03-01T09:06:39.000Z</time>
      </trkpt>
      <trkpt lat="45.16477" lon="5.31696">
        <ele>584.40002441406</ele>
        <time>2020-03-01T09:06:40.000Z</time>
      </trkpt>
      <trkpt lat="45.16478" lon="5.31695">
        <ele>584.59997558594</ele>
        <time>2020-03-01T09:06:41.000Z</time>
      </trkpt>
      <trkpt lat="45.16479" lon="5.31693">
        <ele>584.79998779297</ele>
        <time>2020-03-01T09:06:42.000Z</time>
      </trkpt>
      <trkpt lat="45.16481" lon="5.31691">
        <ele>585.40002441406</ele>
        <time>2020-03-01T09:06:43.000Z</time>
      </trkpt>
      <trkpt lat="45.16483" lon="5.31689">
        <ele>585.79998779297</ele>
        <time>2020-03-01T09:06:44.000Z</time>
      </trkpt>
      <trkpt lat="45.16485" lon="5.31688">
        <ele>586</ele>
        <time>2020-03-01T09:06:45.000Z</time>
      </trkpt>
      <trkpt lat="45.16487" lon="5.31687">
        <ele>586.40002441406</ele>
        <time>2020-03-01T09:06:46.000Z</time>
      </trkpt>
      <trkpt lat="45.1649" lon="5.31683">
        <ele>586.59997558594</ele>
        <time>2020-03-01T09:06:47.000Z</time>
      </trkpt>
      <trkpt lat="45.16491" lon="5.31682">
        <ele>586.79998779297</ele>
        <time>2020-03-01T09:06:48.000Z</time>
      </trkpt>
      <trkpt lat="45.16493" lon="5.31681">
        <ele>587</ele>
        <time>2020-03-01T09:06:49.000Z</time>
      </trkpt>
      <trkpt lat="45.16495" lon="5.31679">
        <ele>587</ele>
        <time>2020-03-01T09:06:50.000Z</time>
      </trkpt>
      <trkpt lat="45.16496" lon="5.31677">
        <ele>587.20001220703</ele>
        <time>2020-03-01T09:06:51.000Z</time>
      </trkpt>
      <trkpt lat="45.16497" lon="5.31675">
        <ele>587.40002441406</ele>
        <time>2020-03-01T09:06:52.000Z</time>
      </trkpt>
      <trkpt lat="45.16498" lon="5.31673">
        <ele>587.59997558594</ele>
        <time>2020-03-01T09:06:53.000Z</time>
      </trkpt>
      <trkpt lat="45.16499" lon="5.31671">
        <ele>587.79998779297</ele>
        <time>2020-03-01T09:06:54.000Z</time>
      </trkpt>
      <trkpt lat="45.165" lon="5.31669">
        <ele>587.79998779297</ele>
        <time>2020-03-01T09:06:55.000Z</time>
      </trkpt>
      <trkpt lat="45.16501" lon="5.31666">
        <ele>588</ele>
        <time>2020-03-01T09:06:56.000Z</time>
      </trkpt>
      <trkpt lat="45.16503" lon="5.31664">
        <ele>588.40002441406</ele>
        <time>2020-03-01T09:06:57.000Z</time>
      </trkpt>
      <trkpt lat="45.16503" lon="5.31661">
        <ele>588.79998779297</ele>
        <time>2020-03-01T09:06:58.000Z</time>
      </trkpt>
      <trkpt lat="45.16504" lon="5.31658">
        <ele>589.20001220703</ele>
        <time>2020-03-01T09:06:59.000Z</time>
      </trkpt>
      <trkpt lat="45.16505" lon="5.31657">
        <ele>589.40002441406</ele>
        <time>2020-03-01T09:07:00.000Z</time>
      </trkpt>
      <trkpt lat="45.16506" lon="5.31655">
        <ele>589.59997558594</ele>
        <time>2020-03-01T09:07:01.000Z</time>
      </trkpt>
      <trkpt lat="45.16507" lon="5.31653">
        <ele>589.79998779297</ele>
        <time>2020-03-01T09:07:02.000Z</time>
      </trkpt>
      <trkpt lat="45.16506" lon="5.3165">
        <ele>590</ele>
        <time>2020-03-01T09:07:03.000Z</time>
      </trkpt>
      <trkpt lat="45.16505" lon="5.31648">
        <ele>590.20001220703</ele>
        <time>2020-03-01T09:07:04.000Z</time>
      </trkpt>
      <trkpt lat="45.16503" lon="5.31644">
        <ele>590.40002441406</ele>
        <time>2020-03-01T09:07:05.000Z</time>
      </trkpt>
      <trkpt lat="45.16503" lon="5.31643">
        <ele>590.79998779297</ele>
        <time>2020-03-01T09:07:06.000Z</time>
      </trkpt>
      <trkpt lat="45.165" lon="5.3164">
        <ele>591</ele>
        <time>2020-03-01T09:07:07.000Z</time>
      </trkpt>
      <trkpt lat="45.16501" lon="5.31641">
        <ele>591.20001220703</ele>
        <time>2020-03-01T09:07:08.000Z</time>
      </trkpt>
      <trkpt lat="45.165" lon="5.31641">
        <ele>591.40002441406</ele>
        <time>2020-03-01T09:07:09.000Z</time>
      </trkpt>
      <trkpt lat="45.16499" lon="5.3164">
        <ele>591.59997558594</ele>
        <time>2020-03-01T09:07:10.000Z</time>
      </trkpt>
      <trkpt lat="45.16499" lon="5.3164">
        <ele>591.79998779297</ele>
        <time>2020-03-01T09:07:11.000Z</time>
      </trkpt>
      <trkpt lat="45.16499" lon="5.3164">
        <ele>591.79998779297</ele>
        <time>2020-03-01T09:07:12.000Z</time>
      </trkpt>
      <trkpt lat="45.16499" lon="5.3164">
        <ele>592</ele>
        <time>2020-03-01T09:07:13.000Z</time>
      </trkpt>
      <trkpt lat="45.16498" lon="5.3164">
        <ele>592.40002441406</ele>
        <time>2020-03-01T09:07:14.000Z</time>
      </trkpt>
      <trkpt lat="45.16497" lon="5.31639">
        <ele>592.59997558594</ele>
        <time>2020-03-01T09:07:15.000Z</time>
      </trkpt>
      <trkpt lat="45.16497" lon="5.31639">
        <ele>593</ele>
        <time>2020-03-01T09:07:16.000Z</time>
      </trkpt>
      <trkpt lat="45.16498" lon="5.31639">
        <ele>593.20001220703</ele>
        <time>2020-03-01T09:07:17.000Z</time>
      </trkpt>
      <trkpt lat="45.16497" lon="5.31638">
        <ele>593.40002441406</ele>
        <time>2020-03-01T09:07:18.000Z</time>
      </trkpt>
      <trkpt lat="45.16497" lon="5.31637">
        <ele>593.59997558594</ele>
        <time>2020-03-01T09:07:19.000Z</time>
      </trkpt>
      <trkpt lat="45.16497" lon="5.31636">
        <ele>594</ele>
        <time>2020-03-01T09:07:20.000Z</time>
      </trkpt>
      <trkpt lat="45.16497" lon="5.31635">
        <ele>594.20001220703</ele>
        <time>2020-03-01T09:07:21.000Z</time>
      </trkpt>
      <trkpt lat="45.16497" lon="5.31634">
        <ele>594.40002441406</ele>
        <time>2020-03-01T09:07:22.000Z</time>
      </trkpt>
      <trkpt lat="45.16497" lon="5.31633">
        <ele>594.79998779297</ele>
        <time>2020-03-01T09:07:23.000Z</time>
      </trkpt>
      <trkpt lat="45.16497" lon="5.31632">
        <ele>595</ele>
        <time>2020-03-01T09:07:24.000Z</time>
      </trkpt>
      <trkpt lat="45.16498" lon="5.31631">
        <ele>595.40002441406</ele>
        <time>2020-03-01T09:07:25.000Z</time>
      </trkpt>
      <trkpt lat="45.16499" lon="5.3163">
        <ele>595.79998779297</ele>
        <time>2020-03-01T09:07:26.000Z</time>
      </trkpt>
      <trkpt lat="45.165" lon="5.31629">
        <ele>596.20001220703</ele>
        <time>2020-03-01T09:07:27.000Z</time>
      </trkpt>
      <trkpt lat="45.165" lon="5.31628">
        <ele>596.40002441406</ele>
        <time>2020-03-01T09:07:28.000Z</time>
      </trkpt>
      <trkpt lat="45.165" lon="5.31627">
        <ele>596.59997558594</ele>
        <time>2020-03-01T09:07:29.000Z</time>
      </trkpt>
      <trkpt lat="45.165" lon="5.31626">
        <ele>597</ele>
        <time>2020-03-01T09:07:30.000Z</time>
      </trkpt>
      <trkpt lat="45.165" lon="5.31624">
        <ele>597.20001220703</ele>
        <time>2020-03-01T09:07:31.000Z</time>
      </trkpt>
      <trkpt lat="45.16501" lon="5.31622">
        <ele>597.40002441406</ele>
        <time>2020-03-01T09:07:32.000Z</time>
      </trkpt>
      <trkpt lat="45.16502" lon="5.31621">
        <ele>598</ele>
        <time>2020-03-01T09:07:33.000Z</time>
      </trkpt>
      <trkpt lat="45.16502" lon="5.31619">
        <ele>598.40002441406</ele>
        <time>2020-03-01T09:07:34.000Z</time>
      </trkpt>
      <trkpt lat="45.16502" lon="5.31617">
        <ele>598.40002441406</ele>
        <time>2020-03-01T09:07:35.000Z</time>
      </trkpt>
      <trkpt lat="45.16503" lon="5.31614">
        <ele>598.79998779297</ele>
        <time>2020-03-01T09:07:36.000Z</time>
      </trkpt>
      <trkpt lat="45.16504" lon="5.31612">
        <ele>599</ele>
        <time>2020-03-01T09:07:37.000Z</time>
      </trkpt>
      <trkpt lat="45.16504" lon="5.31609">
        <ele>599.40002441406</ele>
        <time>2020-03-01T09:07:38.000Z</time>
      </trkpt>
      <trkpt lat="45.16504" lon="5.31608">
        <ele>599.40002441406</ele>
        <time>2020-03-01T09:07:39.000Z</time>
      </trkpt>
      <trkpt lat="45.16503" lon="5.31606">
        <ele>599.79998779297</ele>
        <time>2020-03-01T09:07:40.000Z</time>
      </trkpt>
      <trkpt lat="45.16503" lon="5.31604">
        <ele>599.79998779297</ele>
        <time>2020-03-01T09:07:41.000Z</time>
      </trkpt>
      <trkpt lat="45.16502" lon="5.31603">
        <ele>600</ele>
        <time>2020-03-01T09:07:42.000Z</time>
      </trkpt>
      <trkpt lat="45.16501" lon="5.31601">
        <ele>599.79998779297</ele>
        <time>2020-03-01T09:07:43.000Z</time>
      </trkpt>
      <trkpt lat="45.165" lon="5.31597">
        <ele>600</ele>
        <time>2020-03-01T09:07:44.000Z</time>
      </trkpt>
      <trkpt lat="45.16499" lon="5.31595">
        <ele>600</ele>
        <time>2020-03-01T09:07:45.000Z</time>
      </trkpt>
      <trkpt lat="45.16499" lon="5.31592">
        <ele>600.20001220703</ele>
        <time>2020-03-01T09:07:46.000Z</time>
      </trkpt>
      <trkpt lat="45.16498" lon="5.3159">
        <ele>600.20001220703</ele>
        <time>2020-03-01T09:07:47.000Z</time>
      </trkpt>
      <trkpt lat="45.16498" lon="5.31588">
        <ele>600.59997558594</ele>
        <time>2020-03-01T09:07:48.000Z</time>
      </trkpt>
      <trkpt lat="45.16498" lon="5.31585">
        <ele>601</ele>
        <time>2020-03-01T09:07:49.000Z</time>
      </trkpt>
      <trkpt lat="45.16498" lon="5.31583">
        <ele>601.40002441406</ele>
        <time>2020-03-01T09:07:50.000Z</time>
      </trkpt>
      <trkpt lat="45.16498" lon="5.31581">
        <ele>601.79998779297</ele>
        <time>2020-03-01T09:07:51.000Z</time>
      </trkpt>
      <trkpt lat="45.16498" lon="5.31578">
        <ele>602</ele>
        <time>2020-03-01T09:07:52.000Z</time>
      </trkpt>
      <trkpt lat="45.16498" lon="5.31576">
        <ele>602.40002441406</ele>
        <time>2020-03-01T09:07:53.000Z</time>
      </trkpt>
      <trkpt lat="45.16497" lon="5.31573">
        <ele>602.79998779297</ele>
        <time>2020-03-01T09:07:54.000Z</time>
      </trkpt>
      <trkpt lat="45.16497" lon="5.31571">
        <ele>603.20001220703</ele>
        <time>2020-03-01T09:07:55.000Z</time>
      </trkpt>
      <trkpt lat="45.16496" lon="5.31568">
        <ele>603.40002441406</ele>
        <time>2020-03-01T09:07:56.000Z</time>
      </trkpt>
      <trkpt lat="45.16495" lon="5.31567">
        <ele>603.59997558594</ele>
        <time>2020-03-01T09:07:57.000Z</time>
      </trkpt>
      <trkpt lat="45.16494" lon="5.31565">
        <ele>603.59997558594</ele>
        <time>2020-03-01T09:07:58.000Z</time>
      </trkpt>
      <trkpt lat="45.16494" lon="5.31564">
        <ele>603.59997558594</ele>
        <time>2020-03-01T09:07:59.000Z</time>
      </trkpt>
      <trkpt lat="45.16493" lon="5.31562">
        <ele>603.79998779297</ele>
        <time>2020-03-01T09:08:00.000Z</time>
      </trkpt>
      <trkpt lat="45.16493" lon="5.31559">
        <ele>603.79998779297</ele>
        <time>2020-03-01T09:08:01.000Z</time>
      </trkpt>
      <trkpt lat="45.16493" lon="5.31556">
        <ele>603.79998779297</ele>
        <time>2020-03-01T09:08:02.000Z</time>
      </trkpt>
      <trkpt lat="45.16492" lon="5.31553">
        <ele>604</ele>
        <time>2020-03-01T09:08:03.000Z</time>
      </trkpt>
      <trkpt lat="45.16492" lon="5.3155">
        <ele>604.20001220703</ele>
        <time>2020-03-01T09:08:04.000Z</time>
      </trkpt>
      <trkpt lat="45.16492" lon="5.31547">
        <ele>604.40002441406</ele>
        <time>2020-03-01T09:08:05.000Z</time>
      </trkpt>
      <trkpt lat="45.16491" lon="5.31545">
        <ele>604.59997558594</ele>
        <time>2020-03-01T09:08:06.000Z</time>
      </trkpt>
      <trkpt lat="45.1649" lon="5.31543">
        <ele>604.79998779297</ele>
        <time>2020-03-01T09:08:07.000Z</time>
      </trkpt>
      <trkpt lat="45.1649" lon="5.31541">
        <ele>605.20001220703</ele>
        <time>2020-03-01T09:08:08.000Z</time>
      </trkpt>
      <trkpt lat="45.1649" lon="5.31539">
        <ele>605.40002441406</ele>
        <time>2020-03-01T09:08:09.000Z</time>
      </trkpt>
      <trkpt lat="45.16489" lon="5.31537">
        <ele>605.59997558594</ele>
        <time>2020-03-01T09:08:10.000Z</time>
      </trkpt>
      <trkpt lat="45.16489" lon="5.31535">
        <ele>605.59997558594</ele>
        <time>2020-03-01T09:08:11.000Z</time>
      </trkpt>
      <trkpt lat="45.16489" lon="5.31533">
        <ele>605.79998779297</ele>
        <time>2020-03-01T09:08:12.000Z</time>
      </trkpt>
      <trkpt lat="45.16489" lon="5.3153">
        <ele>606</ele>
        <time>2020-03-01T09:08:13.000Z</time>
      </trkpt>
      <trkpt lat="45.16489" lon="5.31528">
        <ele>606.20001220703</ele>
        <time>2020-03-01T09:08:14.000Z</time>
      </trkpt>
      <trkpt lat="45.16489" lon="5.31525">
        <ele>606.40002441406</ele>
        <time>2020-03-01T09:08:15.000Z</time>
      </trkpt>
      <trkpt lat="45.16489" lon="5.31522">
        <ele>606.79998779297</ele>
        <time>2020-03-01T09:08:16.000Z</time>
      </trkpt>
      <trkpt lat="45.16488" lon="5.3152">
        <ele>607</ele>
        <time>2020-03-01T09:08:17.000Z</time>
      </trkpt>
      <trkpt lat="45.16488" lon="5.31516">
        <ele>607.20001220703</ele>
        <time>2020-03-01T09:08:18.000Z</time>
      </trkpt>
      <trkpt lat="45.16488" lon="5.31515">
        <ele>607.40002441406</ele>
        <time>2020-03-01T09:08:19.000Z</time>
      </trkpt>
      <trkpt lat="45.16487" lon="5.31513">
        <ele>607.40002441406</ele>
        <time>2020-03-01T09:08:20.000Z</time>
      </trkpt>
      <trkpt lat="45.16486" lon="5.31512">
        <ele>607.59997558594</ele>
        <time>2020-03-01T09:08:21.000Z</time>
      </trkpt>
      <trkpt lat="45.16486" lon="5.31509">
        <ele>607.79998779297</ele>
        <time>2020-03-01T09:08:22.000Z</time>
      </trkpt>
      <trkpt lat="45.16486" lon="5.31507">
        <ele>608</ele>
        <time>2020-03-01T09:08:23.000Z</time>
      </trkpt>
      <trkpt lat="45.16485" lon="5.31505">
        <ele>608</ele>
        <time>2020-03-01T09:08:24.000Z</time>
      </trkpt>
      <trkpt lat="45.16485" lon="5.31502">
        <ele>608.20001220703</ele>
        <time>2020-03-01T09:08:25.000Z</time>
      </trkpt>
      <trkpt lat="45.16484" lon="5.315">
        <ele>608.40002441406</ele>
        <time>2020-03-01T09:08:26.000Z</time>
      </trkpt>
      <trkpt lat="45.16484" lon="5.31498">
        <ele>608.59997558594</ele>
        <time>2020-03-01T09:08:27.000Z</time>
      </trkpt>
      <trkpt lat="45.16483" lon="5.31496">
        <ele>608.59997558594</ele>
        <time>2020-03-01T09:08:28.000Z</time>
      </trkpt>
      <trkpt lat="45.16483" lon="5.31494">
        <ele>608.79998779297</ele>
        <time>2020-03-01T09:08:29.000Z</time>
      </trkpt>
      <trkpt lat="45.16482" lon="5.31491">
        <ele>609</ele>
        <time>2020-03-01T09:08:30.000Z</time>
      </trkpt>
      <trkpt lat="45.16481" lon="5.31489">
        <ele>609.20001220703</ele>
        <time>2020-03-01T09:08:31.000Z</time>
      </trkpt>
      <trkpt lat="45.1648" lon="5.31487">
        <ele>609.40002441406</ele>
        <time>2020-03-01T09:08:32.000Z</time>
      </trkpt>
      <trkpt lat="45.16478" lon="5.31485">
        <ele>609.79998779297</ele>
        <time>2020-03-01T09:08:33.000Z</time>
      </trkpt>
      <trkpt lat="45.16477" lon="5.31483">
        <ele>610.20001220703</ele>
        <time>2020-03-01T09:08:34.000Z</time>
      </trkpt>
      <trkpt lat="45.16476" lon="5.31481">
        <ele>610.59997558594</ele>
        <time>2020-03-01T09:08:35.000Z</time>
      </trkpt>
      <trkpt lat="45.16474" lon="5.3148">
        <ele>610.79998779297</ele>
        <time>2020-03-01T09:08:36.000Z</time>
      </trkpt>
      <trkpt lat="45.16473" lon="5.31478">
        <ele>611</ele>
        <time>2020-03-01T09:08:37.000Z</time>
      </trkpt>
      <trkpt lat="45.16472" lon="5.31477">
        <ele>611.20001220703</ele>
        <time>2020-03-01T09:08:38.000Z</time>
      </trkpt>
      <trkpt lat="45.16471" lon="5.31475">
        <ele>611.40002441406</ele>
        <time>2020-03-01T09:08:39.000Z</time>
      </trkpt>
      <trkpt lat="45.16469" lon="5.31473">
        <ele>611.59997558594</ele>
        <time>2020-03-01T09:08:40.000Z</time>
      </trkpt>
      <trkpt lat="45.16467" lon="5.31472">
        <ele>611.79998779297</ele>
        <time>2020-03-01T09:08:41.000Z</time>
      </trkpt>
      <trkpt lat="45.16465" lon="5.3147">
        <ele>612</ele>
        <time>2020-03-01T09:08:42.000Z</time>
      </trkpt>
      <trkpt lat="45.16463" lon="5.3147">
        <ele>612.20001220703</ele>
        <time>2020-03-01T09:08:43.000Z</time>
      </trkpt>
      <trkpt lat="45.16462" lon="5.31469">
        <ele>612.59997558594</ele>
        <time>2020-03-01T09:08:44.000Z</time>
      </trkpt>
      <trkpt lat="45.16461" lon="5.31468">
        <ele>612.79998779297</ele>
        <time>2020-03-01T09:08:45.000Z</time>
      </trkpt>
      <trkpt lat="45.16459" lon="5.31467">
        <ele>613.20001220703</ele>
        <time>2020-03-01T09:08:46.000Z</time>
      </trkpt>
      <trkpt lat="45.16458" lon="5.31467">
        <ele>613.40002441406</ele>
        <time>2020-03-01T09:08:47.000Z</time>
      </trkpt>
      <trkpt lat="45.16458" lon="5.31465">
        <ele>613.59997558594</ele>
        <time>2020-03-01T09:08:48.000Z</time>
      </trkpt>
      <trkpt lat="45.16458" lon="5.31464">
        <ele>613.59997558594</ele>
        <time>2020-03-01T09:08:49.000Z</time>
      </trkpt>
      <trkpt lat="45.16458" lon="5.31462">
        <ele>613.79998779297</ele>
        <time>2020-03-01T09:08:50.000Z</time>
      </trkpt>
      <trkpt lat="45.16458" lon="5.31461">
        <ele>614</ele>
        <time>2020-03-01T09:08:51.000Z</time>
      </trkpt>
      <trkpt lat="45.16457" lon="5.31459">
        <ele>614.40002441406</ele>
        <time>2020-03-01T09:08:52.000Z</time>
      </trkpt>
      <trkpt lat="45.16456" lon="5.31458">
        <ele>614.59997558594</ele>
        <time>2020-03-01T09:08:53.000Z</time>
      </trkpt>
      <trkpt lat="45.16455" lon="5.31457">
        <ele>615</ele>
        <time>2020-03-01T09:08:54.000Z</time>
      </trkpt>
      <trkpt lat="45.16454" lon="5.31457">
        <ele>615.20001220703</ele>
        <time>2020-03-01T09:08:55.000Z</time>
      </trkpt>
      <trkpt lat="45.16454" lon="5.31456">
        <ele>615.40002441406</ele>
        <time>2020-03-01T09:08:56.000Z</time>
      </trkpt>
      <trkpt lat="45.16454" lon="5.31455">
        <ele>615.59997558594</ele>
        <time>2020-03-01T09:08:57.000Z</time>
      </trkpt>
      <trkpt lat="45.16453" lon="5.31453">
        <ele>615.79998779297</ele>
        <time>2020-03-01T09:08:58.000Z</time>
      </trkpt>
      <trkpt lat="45.16453" lon="5.31452">
        <ele>616.20001220703</ele>
        <time>2020-03-01T09:08:59.000Z</time>
      </trkpt>
      <trkpt lat="45.16451" lon="5.31451">
        <ele>616.59997558594</ele>
        <time>2020-03-01T09:09:00.000Z</time>
      </trkpt>
      <trkpt lat="45.1645" lon="5.3145">
        <ele>617</ele>
        <time>2020-03-01T09:09:01.000Z</time>
      </trkpt>
      <trkpt lat="45.1645" lon="5.3145">
        <ele>617.20001220703</ele>
        <time>2020-03-01T09:09:02.000Z</time>
      </trkpt>
      <trkpt lat="45.16449" lon="5.31449">
        <ele>617.59997558594</ele>
        <time>2020-03-01T09:09:03.000Z</time>
      </trkpt>
      <trkpt lat="45.16448" lon="5.31449">
        <ele>617.79998779297</ele>
        <time>2020-03-01T09:09:04.000Z</time>
      </trkpt>
      <trkpt lat="45.16447" lon="5.31448">
        <ele>618</ele>
        <time>2020-03-01T09:09:05.000Z</time>
      </trkpt>
      <trkpt lat="45.16446" lon="5.31448">
        <ele>618.40002441406</ele>
        <time>2020-03-01T09:09:06.000Z</time>
      </trkpt>
      <trkpt lat="45.16445" lon="5.31448">
        <ele>618.59997558594</ele>
        <time>2020-03-01T09:09:07.000Z</time>
      </trkpt>
      <trkpt lat="45.16444" lon="5.31448">
        <ele>619</ele>
        <time>2020-03-01T09:09:08.000Z</time>
      </trkpt>
      <trkpt lat="45.16443" lon="5.31448">
        <ele>619.20001220703</ele>
        <time>2020-03-01T09:09:09.000Z</time>
      </trkpt>
      <trkpt lat="45.16442" lon="5.31447">
        <ele>619.40002441406</ele>
        <time>2020-03-01T09:09:10.000Z</time>
      </trkpt>
      <trkpt lat="45.16441" lon="5.31446">
        <ele>619.59997558594</ele>
        <time>2020-03-01T09:09:11.000Z</time>
      </trkpt>
      <trkpt lat="45.1644" lon="5.31445">
        <ele>619.79998779297</ele>
        <time>2020-03-01T09:09:12.000Z</time>
      </trkpt>
      <trkpt lat="45.16439" lon="5.31444">
        <ele>620</ele>
        <time>2020-03-01T09:09:13.000Z</time>
      </trkpt>
      <trkpt lat="45.16438" lon="5.31444">
        <ele>620.20001220703</ele>
        <time>2020-03-01T09:09:14.000Z</time>
      </trkpt>
      <trkpt lat="45.16437" lon="5.31443">
        <ele>620.40002441406</ele>
        <time>2020-03-01T09:09:15.000Z</time>
      </trkpt>
      <trkpt lat="45.16436" lon="5.31441">
        <ele>620.59997558594</ele>
        <time>2020-03-01T09:09:16.000Z</time>
      </trkpt>
      <trkpt lat="45.16435" lon="5.31441">
        <ele>620.79998779297</ele>
        <time>2020-03-01T09:09:17.000Z</time>
      </trkpt>
      <trkpt lat="45.16434" lon="5.3144">
        <ele>621</ele>
        <time>2020-03-01T09:09:18.000Z</time>
      </trkpt>
      <trkpt lat="45.16432" lon="5.31439">
        <ele>621.20001220703</ele>
        <time>2020-03-01T09:09:19.000Z</time>
      </trkpt>
      <trkpt lat="45.16431" lon="5.31439">
        <ele>621.40002441406</ele>
        <time>2020-03-01T09:09:20.000Z</time>
      </trkpt>
      <trkpt lat="45.16429" lon="5.31437">
        <ele>621.59997558594</ele>
        <time>2020-03-01T09:09:21.000Z</time>
      </trkpt>
      <trkpt lat="45.16427" lon="5.31435">
        <ele>621.79998779297</ele>
        <time>2020-03-01T09:09:22.000Z</time>
      </trkpt>
      <trkpt lat="45.16426" lon="5.31435">
        <ele>622</ele>
        <time>2020-03-01T09:09:23.000Z</time>
      </trkpt>
      <trkpt lat="45.16425" lon="5.31434">
        <ele>622.20001220703</ele>
        <time>2020-03-01T09:09:24.000Z</time>
      </trkpt>
      <trkpt lat="45.16424" lon="5.31434">
        <ele>622.40002441406</ele>
        <time>2020-03-01T09:09:25.000Z</time>
      </trkpt>
      <trkpt lat="45.16423" lon="5.31433">
        <ele>622.59997558594</ele>
        <time>2020-03-01T09:09:26.000Z</time>
      </trkpt>
      <trkpt lat="45.16422" lon="5.31432">
        <ele>622.79998779297</ele>
        <time>2020-03-01T09:09:27.000Z</time>
      </trkpt>
      <trkpt lat="45.16421" lon="5.31432">
        <ele>623</ele>
        <time>2020-03-01T09:09:28.000Z</time>
      </trkpt>
      <trkpt lat="45.1642" lon="5.31432">
        <ele>623.20001220703</ele>
        <time>2020-03-01T09:09:29.000Z</time>
      </trkpt>
      <trkpt lat="45.16418" lon="5.31432">
        <ele>623.20001220703</ele>
        <time>2020-03-01T09:09:30.000Z</time>
      </trkpt>
      <trkpt lat="45.16417" lon="5.31431">
        <ele>623.40002441406</ele>
        <time>2020-03-01T09:09:31.000Z</time>
      </trkpt>
      <trkpt lat="45.16416" lon="5.31431">
        <ele>623.79998779297</ele>
        <time>2020-03-01T09:09:32.000Z</time>
      </trkpt>
      <trkpt lat="45.16414" lon="5.3143">
        <ele>624.40002441406</ele>
        <time>2020-03-01T09:09:33.000Z</time>
      </trkpt>
      <trkpt lat="45.16414" lon="5.3143">
        <ele>624.79998779297</ele>
        <time>2020-03-01T09:09:34.000Z</time>
      </trkpt>
      <trkpt lat="45.16413" lon="5.31429">
        <ele>625</ele>
        <time>2020-03-01T09:09:35.000Z</time>
      </trkpt>
      <trkpt lat="45.16412" lon="5.31428">
        <ele>625.20001220703</ele>
        <time>2020-03-01T09:09:36.000Z</time>
      </trkpt>
      <trkpt lat="45.16411" lon="5.31427">
        <ele>625.40002441406</ele>
        <time>2020-03-01T09:09:37.000Z</time>
      </trkpt>
      <trkpt lat="45.1641" lon="5.31426">
        <ele>625.40002441406</ele>
        <time>2020-03-01T09:09:38.000Z</time>
      </trkpt>
      <trkpt lat="45.16409" lon="5.31426">
        <ele>625.59997558594</ele>
        <time>2020-03-01T09:09:39.000Z</time>
      </trkpt>
      <trkpt lat="45.16408" lon="5.31426">
        <ele>626</ele>
        <time>2020-03-01T09:09:40.000Z</time>
      </trkpt>
      <trkpt lat="45.16407" lon="5.31425">
        <ele>626.40002441406</ele>
        <time>2020-03-01T09:09:41.000Z</time>
      </trkpt>
      <trkpt lat="45.16406" lon="5.31425">
        <ele>626.59997558594</ele>
        <time>2020-03-01T09:09:42.000Z</time>
      </trkpt>
      <trkpt lat="45.16405" lon="5.31424">
        <ele>626.79998779297</ele>
        <time>2020-03-01T09:09:43.000Z</time>
      </trkpt>
      <trkpt lat="45.16404" lon="5.31424">
        <ele>627</ele>
        <time>2020-03-01T09:09:44.000Z</time>
      </trkpt>
      <trkpt lat="45.16403" lon="5.31423">
        <ele>627.20001220703</ele>
        <time>2020-03-01T09:09:45.000Z</time>
      </trkpt>
      <trkpt lat="45.16401" lon="5.31423">
        <ele>627.59997558594</ele>
        <time>2020-03-01T09:09:46.000Z</time>
      </trkpt>
      <trkpt lat="45.164" lon="5.31422">
        <ele>628</ele>
        <time>2020-03-01T09:09:47.000Z</time>
      </trkpt>
      <trkpt lat="45.16399" lon="5.31422">
        <ele>628.20001220703</ele>
        <time>2020-03-01T09:09:48.000Z</time>
      </trkpt>
      <trkpt lat="45.16398" lon="5.31421">
        <ele>628.40002441406</ele>
        <time>2020-03-01T09:09:49.000Z</time>
      </trkpt>
      <trkpt lat="45.16397" lon="5.31421">
        <ele>628.59997558594</ele>
        <time>2020-03-01T09:09:50.000Z</time>
      </trkpt>
      <trkpt lat="45.16395" lon="5.31421">
        <ele>629</ele>
        <time>2020-03-01T09:09:51.000Z</time>
      </trkpt>
      <trkpt lat="45.16394" lon="5.3142">
        <ele>629.20001220703</ele>
        <time>2020-03-01T09:09:52.000Z</time>
      </trkpt>
      <trkpt lat="45.16393" lon="5.31419">
        <ele>629.59997558594</ele>
        <time>2020-03-01T09:09:53.000Z</time>
      </trkpt>
      <trkpt lat="45.16392" lon="5.31419">
        <ele>629.79998779297</ele>
        <time>2020-03-01T09:09:54.000Z</time>
      </trkpt>
      <trkpt lat="45.16391" lon="5.31419">
        <ele>630.20001220703</ele>
        <time>2020-03-01T09:09:55.000Z</time>
      </trkpt>
      <trkpt lat="45.16391" lon="5.31419">
        <ele>630.40002441406</ele>
        <time>2020-03-01T09:09:56.000Z</time>
      </trkpt>
      <trkpt lat="45.1639" lon="5.31419">
        <ele>630.59997558594</ele>
        <time>2020-03-01T09:09:57.000Z</time>
      </trkpt>
      <trkpt lat="45.16389" lon="5.31418">
        <ele>631</ele>
        <time>2020-03-01T09:09:58.000Z</time>
      </trkpt>
      <trkpt lat="45.16389" lon="5.31418">
        <ele>631.20001220703</ele>
        <time>2020-03-01T09:09:59.000Z</time>
      </trkpt>
      <trkpt lat="45.16388" lon="5.31417">
        <ele>631.59997558594</ele>
        <time>2020-03-01T09:10:00.000Z</time>
      </trkpt>
      <trkpt lat="45.16387" lon="5.31416">
        <ele>631.79998779297</ele>
        <time>2020-03-01T09:10:01.000Z</time>
      </trkpt>
      <trkpt lat="45.16386" lon="5.31415">
        <ele>632</ele>
        <time>2020-03-01T09:10:02.000Z</time>
      </trkpt>
      <trkpt lat="45.16386" lon="5.31414">
        <ele>632.20001220703</ele>
        <time>2020-03-01T09:10:03.000Z</time>
      </trkpt>
      <trkpt lat="45.16385" lon="5.31413">
        <ele>632.40002441406</ele>
        <time>2020-03-01T09:10:04.000Z</time>
      </trkpt>
      <trkpt lat="45.16384" lon="5.31412">
        <ele>632.59997558594</ele>
        <time>2020-03-01T09:10:05.000Z</time>
      </trkpt>
      <trkpt lat="45.16384" lon="5.31411">
        <ele>632.79998779297</ele>
        <time>2020-03-01T09:10:06.000Z</time>
      </trkpt>
      <trkpt lat="45.16383" lon="5.3141">
        <ele>633</ele>
        <time>2020-03-01T09:10:07.000Z</time>
      </trkpt>
      <trkpt lat="45.16382" lon="5.31409">
        <ele>633</ele>
        <time>2020-03-01T09:10:08.000Z</time>
      </trkpt>
      <trkpt lat="45.16381" lon="5.31408">
        <ele>633.20001220703</ele>
        <time>2020-03-01T09:10:09.000Z</time>
      </trkpt>
      <trkpt lat="45.16381" lon="5.31406">
        <ele>633.59997558594</ele>
        <time>2020-03-01T09:10:10.000Z</time>
      </trkpt>
      <trkpt lat="45.1638" lon="5.31405">
        <ele>634</ele>
        <time>2020-03-01T09:10:11.000Z</time>
      </trkpt>
      <trkpt lat="45.16379" lon="5.31404">
        <ele>634.20001220703</ele>
        <time>2020-03-01T09:10:12.000Z</time>
      </trkpt>
      <trkpt lat="45.16378" lon="5.31404">
        <ele>634.40002441406</ele>
        <time>2020-03-01T09:10:13.000Z</time>
      </trkpt>
      <trkpt lat="45.16377" lon="5.31403">
        <ele>634.59997558594</ele>
        <time>2020-03-01T09:10:14.000Z</time>
      </trkpt>
      <trkpt lat="45.16376" lon="5.31403">
        <ele>634.79998779297</ele>
        <time>2020-03-01T09:10:15.000Z</time>
      </trkpt>
      <trkpt lat="45.16375" lon="5.31402">
        <ele>635</ele>
        <time>2020-03-01T09:10:16.000Z</time>
      </trkpt>
      <trkpt lat="45.16374" lon="5.31401">
        <ele>635.20001220703</ele>
        <time>2020-03-01T09:10:17.000Z</time>
      </trkpt>
      <trkpt lat="45.16373" lon="5.314">
        <ele>635.40002441406</ele>
        <time>2020-03-01T09:10:18.000Z</time>
      </trkpt>
      <trkpt lat="45.16371" lon="5.314">
        <ele>635.59997558594</ele>
        <time>2020-03-01T09:10:19.000Z</time>
      </trkpt>
      <trkpt lat="45.1637" lon="5.314">
        <ele>635.59997558594</ele>
        <time>2020-03-01T09:10:20.000Z</time>
      </trkpt>
      <trkpt lat="45.16368" lon="5.31399">
        <ele>635.79998779297</ele>
        <time>2020-03-01T09:10:21.000Z</time>
      </trkpt>
      <trkpt lat="45.16367" lon="5.31399">
        <ele>636.20001220703</ele>
        <time>2020-03-01T09:10:22.000Z</time>
      </trkpt>
      <trkpt lat="45.16366" lon="5.31399">
        <ele>636.79998779297</ele>
        <time>2020-03-01T09:10:23.000Z</time>
      </trkpt>
      <trkpt lat="45.16365" lon="5.31398">
        <ele>637.20001220703</ele>
        <time>2020-03-01T09:10:24.000Z</time>
      </trkpt>
      <trkpt lat="45.16364" lon="5.31397">
        <ele>637.59997558594</ele>
        <time>2020-03-01T09:10:25.000Z</time>
      </trkpt>
      <trkpt lat="45.16363" lon="5.31397">
        <ele>637.79998779297</ele>
        <time>2020-03-01T09:10:26.000Z</time>
      </trkpt>
      <trkpt lat="45.16362" lon="5.31397">
        <ele>638</ele>
        <time>2020-03-01T09:10:27.000Z</time>
      </trkpt>
      <trkpt lat="45.16362" lon="5.31397">
        <ele>638.20001220703</ele>
        <time>2020-03-01T09:10:28.000Z</time>
      </trkpt>
      <trkpt lat="45.16361" lon="5.31396">
        <ele>638.20001220703</ele>
        <time>2020-03-01T09:10:29.000Z</time>
      </trkpt>
      <trkpt lat="45.16361" lon="5.31396">
        <ele>638.40002441406</ele>
        <time>2020-03-01T09:10:30.000Z</time>
      </trkpt>
      <trkpt lat="45.1636" lon="5.31396">
        <ele>639</ele>
        <time>2020-03-01T09:10:31.000Z</time>
      </trkpt>
      <trkpt lat="45.1636" lon="5.31396">
        <ele>639.40002441406</ele>
        <time>2020-03-01T09:10:32.000Z</time>
      </trkpt>
      <trkpt lat="45.16359" lon="5.31396">
        <ele>639.59997558594</ele>
        <time>2020-03-01T09:10:33.000Z</time>
      </trkpt>
      <trkpt lat="45.16359" lon="5.31396">
        <ele>639.79998779297</ele>
        <time>2020-03-01T09:10:34.000Z</time>
      </trkpt>
      <trkpt lat="45.16358" lon="5.31396">
        <ele>640</ele>
        <time>2020-03-01T09:10:35.000Z</time>
      </trkpt>
      <trkpt lat="45.16358" lon="5.31396">
        <ele>640.20001220703</ele>
        <time>2020-03-01T09:10:36.000Z</time>
      </trkpt>
      <trkpt lat="45.16357" lon="5.31396">
        <ele>640.20001220703</ele>
        <time>2020-03-01T09:10:37.000Z</time>
      </trkpt>
      <trkpt lat="45.16356" lon="5.31396">
        <ele>640.40002441406</ele>
        <time>2020-03-01T09:10:38.000Z</time>
      </trkpt>
      <trkpt lat="45.16355" lon="5.31396">
        <ele>640.59997558594</ele>
        <time>2020-03-01T09:10:39.000Z</time>
      </trkpt>
      <trkpt lat="45.16355" lon="5.31395">
        <ele>640.59997558594</ele>
        <time>2020-03-01T09:10:40.000Z</time>
      </trkpt>
      <trkpt lat="45.16354" lon="5.31393">
        <ele>641</ele>
        <time>2020-03-01T09:10:41.000Z</time>
      </trkpt>
      <trkpt lat="45.16353" lon="5.31391">
        <ele>641.20001220703</ele>
        <time>2020-03-01T09:10:42.000Z</time>
      </trkpt>
      <trkpt lat="45.16353" lon="5.3139">
        <ele>641.40002441406</ele>
        <time>2020-03-01T09:10:43.000Z</time>
      </trkpt>
      <trkpt lat="45.16352" lon="5.31388">
        <ele>641.79998779297</ele>
        <time>2020-03-01T09:10:44.000Z</time>
      </trkpt>
      <trkpt lat="45.16353" lon="5.31387">
        <ele>642</ele>
        <time>2020-03-01T09:10:45.000Z</time>
      </trkpt>
      <trkpt lat="45.16353" lon="5.31385">
        <ele>642.20001220703</ele>
        <time>2020-03-01T09:10:46.000Z</time>
      </trkpt>
      <trkpt lat="45.16354" lon="5.31384">
        <ele>642.40002441406</ele>
        <time>2020-03-01T09:10:47.000Z</time>
      </trkpt>
      <trkpt lat="45.16354" lon="5.31382">
        <ele>642.59997558594</ele>
        <time>2020-03-01T09:10:48.000Z</time>
      </trkpt>
      <trkpt lat="45.16355" lon="5.3138">
        <ele>642.59997558594</ele>
        <time>2020-03-01T09:10:49.000Z</time>
      </trkpt>
      <trkpt lat="45.16356" lon="5.31379">
        <ele>642.79998779297</ele>
        <time>2020-03-01T09:10:50.000Z</time>
      </trkpt>
      <trkpt lat="45.16357" lon="5.31378">
        <ele>643</ele>
        <time>2020-03-01T09:10:51.000Z</time>
      </trkpt>
      <trkpt lat="45.16358" lon="5.31376">
        <ele>643</ele>
        <time>2020-03-01T09:10:52.000Z</time>
      </trkpt>
      <trkpt lat="45.16359" lon="5.31375">
        <ele>643.20001220703</ele>
        <time>2020-03-01T09:10:53.000Z</time>
      </trkpt>
      <trkpt lat="45.1636" lon="5.31372">
        <ele>643.59997558594</ele>
        <time>2020-03-01T09:10:54.000Z</time>
      </trkpt>
      <trkpt lat="45.1636" lon="5.3137">
        <ele>643.59997558594</ele>
        <time>2020-03-01T09:10:55.000Z</time>
      </trkpt>
      <trkpt lat="45.16361" lon="5.31368">
        <ele>643.79998779297</ele>
        <time>2020-03-01T09:10:56.000Z</time>
      </trkpt>
      <trkpt lat="45.16361" lon="5.31365">
        <ele>644</ele>
        <time>2020-03-01T09:10:57.000Z</time>
      </trkpt>
      <trkpt lat="45.16361" lon="5.31363">
        <ele>644.20001220703</ele>
        <time>2020-03-01T09:10:58.000Z</time>
      </trkpt>
      <trkpt lat="45.16361" lon="5.31362">
        <ele>644.40002441406</ele>
        <time>2020-03-01T09:10:59.000Z</time>
      </trkpt>
      <trkpt lat="45.16361" lon="5.3136">
        <ele>644.59997558594</ele>
        <time>2020-03-01T09:11:00.000Z</time>
      </trkpt>
      <trkpt lat="45.16361" lon="5.31358">
        <ele>644.79998779297</ele>
        <time>2020-03-01T09:11:01.000Z</time>
      </trkpt>
      <trkpt lat="45.16361" lon="5.31356">
        <ele>644.79998779297</ele>
        <time>2020-03-01T09:11:02.000Z</time>
      </trkpt>
      <trkpt lat="45.16361" lon="5.31353">
        <ele>645</ele>
        <time>2020-03-01T09:11:03.000Z</time>
      </trkpt>
      <trkpt lat="45.16362" lon="5.31353">
        <ele>645.20001220703</ele>
        <time>2020-03-01T09:11:04.000Z</time>
      </trkpt>
      <trkpt lat="45.16363" lon="5.31352">
        <ele>645.40002441406</ele>
        <time>2020-03-01T09:11:05.000Z</time>
      </trkpt>
      <trkpt lat="45.16363" lon="5.3135">
        <ele>645.40002441406</ele>
        <time>2020-03-01T09:11:06.000Z</time>
      </trkpt>
      <trkpt lat="45.16364" lon="5.31349">
        <ele>645.59997558594</ele>
        <time>2020-03-01T09:11:07.000Z</time>
      </trkpt>
      <trkpt lat="45.16364" lon="5.31348">
        <ele>645.79998779297</ele>
        <time>2020-03-01T09:11:08.000Z</time>
      </trkpt>
      <trkpt lat="45.16364" lon="5.31347">
        <ele>646</ele>
        <time>2020-03-01T09:11:09.000Z</time>
      </trkpt>
      <trkpt lat="45.16365" lon="5.31345">
        <ele>646</ele>
        <time>2020-03-01T09:11:10.000Z</time>
      </trkpt>
      <trkpt lat="45.16365" lon="5.31344">
        <ele>646.20001220703</ele>
        <time>2020-03-01T09:11:11.000Z</time>
      </trkpt>
      <trkpt lat="45.16366" lon="5.31343">
        <ele>646.40002441406</ele>
        <time>2020-03-01T09:11:12.000Z</time>
      </trkpt>
      <trkpt lat="45.16366" lon="5.3134">
        <ele>646.59997558594</ele>
        <time>2020-03-01T09:11:13.000Z</time>
      </trkpt>
      <trkpt lat="45.16366" lon="5.31339">
        <ele>646.79998779297</ele>
        <time>2020-03-01T09:11:14.000Z</time>
      </trkpt>
      <trkpt lat="45.16367" lon="5.31337">
        <ele>646.79998779297</ele>
        <time>2020-03-01T09:11:15.000Z</time>
      </trkpt>
      <trkpt lat="45.16367" lon="5.31334">
        <ele>646.79998779297</ele>
        <time>2020-03-01T09:11:16.000Z</time>
      </trkpt>
      <trkpt lat="45.16368" lon="5.31332">
        <ele>647</ele>
        <time>2020-03-01T09:11:17.000Z</time>
      </trkpt>
      <trkpt lat="45.16368" lon="5.3133">
        <ele>647.40002441406</ele>
        <time>2020-03-01T09:11:18.000Z</time>
      </trkpt>
      <trkpt lat="45.16369" lon="5.31328">
        <ele>647.40002441406</ele>
        <time>2020-03-01T09:11:19.000Z</time>
      </trkpt>
      <trkpt lat="45.1637" lon="5.31327">
        <ele>647.59997558594</ele>
        <time>2020-03-01T09:11:20.000Z</time>
      </trkpt>
      <trkpt lat="45.1637" lon="5.31325">
        <ele>647.79998779297</ele>
        <time>2020-03-01T09:11:21.000Z</time>
      </trkpt>
      <trkpt lat="45.16371" lon="5.31323">
        <ele>648</ele>
        <time>2020-03-01T09:11:22.000Z</time>
      </trkpt>
      <trkpt lat="45.16372" lon="5.31322">
        <ele>648.40002441406</ele>
        <time>2020-03-01T09:11:23.000Z</time>
      </trkpt>
      <trkpt lat="45.16373" lon="5.3132">
        <ele>648.59997558594</ele>
        <time>2020-03-01T09:11:24.000Z</time>
      </trkpt>
      <trkpt lat="45.16374" lon="5.31319">
        <ele>649</ele>
        <time>2020-03-01T09:11:25.000Z</time>
      </trkpt>
      <trkpt lat="45.16375" lon="5.31316">
        <ele>649.20001220703</ele>
        <time>2020-03-01T09:11:26.000Z</time>
      </trkpt>
      <trkpt lat="45.16377" lon="5.31314">
        <ele>649.40002441406</ele>
        <time>2020-03-01T09:11:27.000Z</time>
      </trkpt>
      <trkpt lat="45.16378" lon="5.31313">
        <ele>649.59997558594</ele>
        <time>2020-03-01T09:11:28.000Z</time>
      </trkpt>
      <trkpt lat="45.16378" lon="5.3131">
        <ele>649.59997558594</ele>
        <time>2020-03-01T09:11:29.000Z</time>
      </trkpt>
      <trkpt lat="45.16379" lon="5.31308">
        <ele>649.79998779297</ele>
        <time>2020-03-01T09:11:30.000Z</time>
      </trkpt>
      <trkpt lat="45.1638" lon="5.31306">
        <ele>650.20001220703</ele>
        <time>2020-03-01T09:11:31.000Z</time>
      </trkpt>
      <trkpt lat="45.16381" lon="5.31304">
        <ele>650.40002441406</ele>
        <time>2020-03-01T09:11:32.000Z</time>
      </trkpt>
      <trkpt lat="45.16381" lon="5.31303">
        <ele>650.79998779297</ele>
        <time>2020-03-01T09:11:33.000Z</time>
      </trkpt>
      <trkpt lat="45.16381" lon="5.31301">
        <ele>650.79998779297</ele>
        <time>2020-03-01T09:11:34.000Z</time>
      </trkpt>
      <trkpt lat="45.16382" lon="5.313">
        <ele>651</ele>
        <time>2020-03-01T09:11:35.000Z</time>
      </trkpt>
      <trkpt lat="45.16383" lon="5.31298">
        <ele>651.20001220703</ele>
        <time>2020-03-01T09:11:36.000Z</time>
      </trkpt>
      <trkpt lat="45.16383" lon="5.31297">
        <ele>651.20001220703</ele>
        <time>2020-03-01T09:11:37.000Z</time>
      </trkpt>
      <trkpt lat="45.16384" lon="5.31295">
        <ele>651.40002441406</ele>
        <time>2020-03-01T09:11:38.000Z</time>
      </trkpt>
      <trkpt lat="45.16384" lon="5.31294">
        <ele>651.40002441406</ele>
        <time>2020-03-01T09:11:39.000Z</time>
      </trkpt>
      <trkpt lat="45.16384" lon="5.31292">
        <ele>651.59997558594</ele>
        <time>2020-03-01T09:11:40.000Z</time>
      </trkpt>
      <trkpt lat="45.16384" lon="5.31291">
        <ele>651.79998779297</ele>
        <time>2020-03-01T09:11:41.000Z</time>
      </trkpt>
      <trkpt lat="45.16384" lon="5.31289">
        <ele>652</ele>
        <time>2020-03-01T09:11:42.000Z</time>
      </trkpt>
      <trkpt lat="45.16384" lon="5.31287">
        <ele>652.20001220703</ele>
        <time>2020-03-01T09:11:43.000Z</time>
      </trkpt>
      <trkpt lat="45.16384" lon="5.31284">
        <ele>652.59997558594</ele>
        <time>2020-03-01T09:11:44.000Z</time>
      </trkpt>
      <trkpt lat="45.16384" lon="5.31282">
        <ele>652.79998779297</ele>
        <time>2020-03-01T09:11:45.000Z</time>
      </trkpt>
      <trkpt lat="45.16383" lon="5.3128">
        <ele>653</ele>
        <time>2020-03-01T09:11:46.000Z</time>
      </trkpt>
      <trkpt lat="45.16383" lon="5.31278">
        <ele>653.20001220703</ele>
        <time>2020-03-01T09:11:47.000Z</time>
      </trkpt>
      <trkpt lat="45.16382" lon="5.31277">
        <ele>653.40002441406</ele>
        <time>2020-03-01T09:11:48.000Z</time>
      </trkpt>
      <trkpt lat="45.16382" lon="5.31275">
        <ele>653.59997558594</ele>
        <time>2020-03-01T09:11:49.000Z</time>
      </trkpt>
      <trkpt lat="45.16382" lon="5.31274">
        <ele>654</ele>
        <time>2020-03-01T09:11:50.000Z</time>
      </trkpt>
      <trkpt lat="45.16382" lon="5.31272">
        <ele>654.40002441406</ele>
        <time>2020-03-01T09:11:51.000Z</time>
      </trkpt>
      <trkpt lat="45.16382" lon="5.3127">
        <ele>654.59997558594</ele>
        <time>2020-03-01T09:11:52.000Z</time>
      </trkpt>
      <trkpt lat="45.16381" lon="5.31267">
        <ele>655</ele>
        <time>2020-03-01T09:11:53.000Z</time>
      </trkpt>
      <trkpt lat="45.16381" lon="5.31265">
        <ele>655</ele>
        <time>2020-03-01T09:11:54.000Z</time>
      </trkpt>
      <trkpt lat="45.1638" lon="5.31263">
        <ele>655.20001220703</ele>
        <time>2020-03-01T09:11:55.000Z</time>
      </trkpt>
      <trkpt lat="45.1638" lon="5.31261">
        <ele>655.40002441406</ele>
        <time>2020-03-01T09:11:56.000Z</time>
      </trkpt>
      <trkpt lat="45.1638" lon="5.31259">
        <ele>655.79998779297</ele>
        <time>2020-03-01T09:11:57.000Z</time>
      </trkpt>
      <trkpt lat="45.16379" lon="5.31256">
        <ele>656</ele>
        <time>2020-03-01T09:11:58.000Z</time>
      </trkpt>
      <trkpt lat="45.16379" lon="5.31254">
        <ele>656.20001220703</ele>
        <time>2020-03-01T09:11:59.000Z</time>
      </trkpt>
      <trkpt lat="45.16379" lon="5.31252">
        <ele>656.40002441406</ele>
        <time>2020-03-01T09:12:00.000Z</time>
      </trkpt>
      <trkpt lat="45.16379" lon="5.31251">
        <ele>656.79998779297</ele>
        <time>2020-03-01T09:12:01.000Z</time>
      </trkpt>
      <trkpt lat="45.16378" lon="5.31249">
        <ele>657</ele>
        <time>2020-03-01T09:12:02.000Z</time>
      </trkpt>
      <trkpt lat="45.16378" lon="5.31248">
        <ele>657.20001220703</ele>
        <time>2020-03-01T09:12:03.000Z</time>
      </trkpt>
      <trkpt lat="45.16377" lon="5.31246">
        <ele>657.40002441406</ele>
        <time>2020-03-01T09:12:04.000Z</time>
      </trkpt>
      <trkpt lat="45.16377" lon="5.31244">
        <ele>657.40002441406</ele>
        <time>2020-03-01T09:12:05.000Z</time>
      </trkpt>
      <trkpt lat="45.16376" lon="5.31243">
        <ele>657.59997558594</ele>
        <time>2020-03-01T09:12:06.000Z</time>
      </trkpt>
      <trkpt lat="45.16376" lon="5.31241">
        <ele>657.79998779297</ele>
        <time>2020-03-01T09:12:07.000Z</time>
      </trkpt>
      <trkpt lat="45.16375" lon="5.31239">
        <ele>658.20001220703</ele>
        <time>2020-03-01T09:12:08.000Z</time>
      </trkpt>
      <trkpt lat="45.16374" lon="5.31237">
        <ele>658.20001220703</ele>
        <time>2020-03-01T09:12:09.000Z</time>
      </trkpt>
      <trkpt lat="45.16374" lon="5.31235">
        <ele>658.40002441406</ele>
        <time>2020-03-01T09:12:10.000Z</time>
      </trkpt>
      <trkpt lat="45.16373" lon="5.31233">
        <ele>658.59997558594</ele>
        <time>2020-03-01T09:12:11.000Z</time>
      </trkpt>
      <trkpt lat="45.16372" lon="5.3123">
        <ele>658.79998779297</ele>
        <time>2020-03-01T09:12:12.000Z</time>
      </trkpt>
      <trkpt lat="45.16372" lon="5.31229">
        <ele>659</ele>
        <time>2020-03-01T09:12:13.000Z</time>
      </trkpt>
      <trkpt lat="45.16371" lon="5.31227">
        <ele>659.20001220703</ele>
        <time>2020-03-01T09:12:14.000Z</time>
      </trkpt>
      <trkpt lat="45.16369" lon="5.31225">
        <ele>659.20001220703</ele>
        <time>2020-03-01T09:12:15.000Z</time>
      </trkpt>
      <trkpt lat="45.16369" lon="5.31224">
        <ele>659.40002441406</ele>
        <time>2020-03-01T09:12:16.000Z</time>
      </trkpt>
      <trkpt lat="45.16368" lon="5.31221">
        <ele>659.59997558594</ele>
        <time>2020-03-01T09:12:17.000Z</time>
      </trkpt>
      <trkpt lat="45.16367" lon="5.31219">
        <ele>659.79998779297</ele>
        <time>2020-03-01T09:12:18.000Z</time>
      </trkpt>
      <trkpt lat="45.16367" lon="5.31218">
        <ele>660</ele>
        <time>2020-03-01T09:12:19.000Z</time>
      </trkpt>
      <trkpt lat="45.16366" lon="5.31216">
        <ele>660.40002441406</ele>
        <time>2020-03-01T09:12:20.000Z</time>
      </trkpt>
      <trkpt lat="45.16365" lon="5.31215">
        <ele>660.40002441406</ele>
        <time>2020-03-01T09:12:21.000Z</time>
      </trkpt>
      <trkpt lat="45.16364" lon="5.31212">
        <ele>660.40002441406</ele>
        <time>2020-03-01T09:12:22.000Z</time>
      </trkpt>
      <trkpt lat="45.16363" lon="5.3121">
        <ele>660.59997558594</ele>
        <time>2020-03-01T09:12:23.000Z</time>
      </trkpt>
      <trkpt lat="45.16362" lon="5.31208">
        <ele>660.79998779297</ele>
        <time>2020-03-01T09:12:24.000Z</time>
      </trkpt>
      <trkpt lat="45.16361" lon="5.31205">
        <ele>661</ele>
        <time>2020-03-01T09:12:25.000Z</time>
      </trkpt>
      <trkpt lat="45.1636" lon="5.31203">
        <ele>661.40002441406</ele>
        <time>2020-03-01T09:12:26.000Z</time>
      </trkpt>
      <trkpt lat="45.16359" lon="5.31201">
        <ele>661.59997558594</ele>
        <time>2020-03-01T09:12:27.000Z</time>
      </trkpt>
      <trkpt lat="45.16358" lon="5.31201">
        <ele>661.79998779297</ele>
        <time>2020-03-01T09:12:28.000Z</time>
      </trkpt>
      <trkpt lat="45.16356" lon="5.312">
        <ele>662</ele>
        <time>2020-03-01T09:12:29.000Z</time>
      </trkpt>
      <trkpt lat="45.16356" lon="5.31199">
        <ele>662</ele>
        <time>2020-03-01T09:12:30.000Z</time>
      </trkpt>
      <trkpt lat="45.16355" lon="5.31198">
        <ele>662.20001220703</ele>
        <time>2020-03-01T09:12:31.000Z</time>
      </trkpt>
      <trkpt lat="45.16354" lon="5.31197">
        <ele>662.40002441406</ele>
        <time>2020-03-01T09:12:32.000Z</time>
      </trkpt>
      <trkpt lat="45.16353" lon="5.31196">
        <ele>662.40002441406</ele>
        <time>2020-03-01T09:12:33.000Z</time>
      </trkpt>
      <trkpt lat="45.16352" lon="5.31195">
        <ele>662.79998779297</ele>
        <time>2020-03-01T09:12:34.000Z</time>
      </trkpt>
      <trkpt lat="45.16351" lon="5.31193">
        <ele>663</ele>
        <time>2020-03-01T09:12:35.000Z</time>
      </trkpt>
      <trkpt lat="45.16351" lon="5.31192">
        <ele>663.40002441406</ele>
        <time>2020-03-01T09:12:36.000Z</time>
      </trkpt>
      <trkpt lat="45.1635" lon="5.31191">
        <ele>663.59997558594</ele>
        <time>2020-03-01T09:12:37.000Z</time>
      </trkpt>
      <trkpt lat="45.16348" lon="5.3119">
        <ele>664</ele>
        <time>2020-03-01T09:12:38.000Z</time>
      </trkpt>
      <trkpt lat="45.16347" lon="5.3119">
        <ele>664.20001220703</ele>
        <time>2020-03-01T09:12:39.000Z</time>
      </trkpt>
      <trkpt lat="45.16346" lon="5.31189">
        <ele>664.40002441406</ele>
        <time>2020-03-01T09:12:40.000Z</time>
      </trkpt>
      <trkpt lat="45.16346" lon="5.31188">
        <ele>664.59997558594</ele>
        <time>2020-03-01T09:12:41.000Z</time>
      </trkpt>
      <trkpt lat="45.16346" lon="5.31188">
        <ele>664.79998779297</ele>
        <time>2020-03-01T09:12:42.000Z</time>
      </trkpt>
      <trkpt lat="45.16345" lon="5.31187">
        <ele>665</ele>
        <time>2020-03-01T09:12:43.000Z</time>
      </trkpt>
      <trkpt lat="45.16345" lon="5.31186">
        <ele>665.40002441406</ele>
        <time>2020-03-01T09:12:44.000Z</time>
      </trkpt>
      <trkpt lat="45.16345" lon="5.31185">
        <ele>665.59997558594</ele>
        <time>2020-03-01T09:12:45.000Z</time>
      </trkpt>
      <trkpt lat="45.16344" lon="5.31184">
        <ele>665.79998779297</ele>
        <time>2020-03-01T09:12:46.000Z</time>
      </trkpt>
      <trkpt lat="45.16343" lon="5.31183">
        <ele>666</ele>
        <time>2020-03-01T09:12:47.000Z</time>
      </trkpt>
      <trkpt lat="45.16343" lon="5.31182">
        <ele>666.20001220703</ele>
        <time>2020-03-01T09:12:48.000Z</time>
      </trkpt>
      <trkpt lat="45.16342" lon="5.31182">
        <ele>666.40002441406</ele>
        <time>2020-03-01T09:12:49.000Z</time>
      </trkpt>
      <trkpt lat="45.1634" lon="5.3118">
        <ele>666.59997558594</ele>
        <time>2020-03-01T09:12:50.000Z</time>
      </trkpt>
      <trkpt lat="45.16339" lon="5.31179">
        <ele>666.79998779297</ele>
        <time>2020-03-01T09:12:51.000Z</time>
      </trkpt>
      <trkpt lat="45.16337" lon="5.31177">
        <ele>667</ele>
        <time>2020-03-01T09:12:52.000Z</time>
      </trkpt>
      <trkpt lat="45.16335" lon="5.31174">
        <ele>667.20001220703</ele>
        <time>2020-03-01T09:12:53.000Z</time>
      </trkpt>
      <trkpt lat="45.16333" lon="5.31172">
        <ele>667.59997558594</ele>
        <time>2020-03-01T09:12:54.000Z</time>
      </trkpt>
      <trkpt lat="45.16332" lon="5.31171">
        <ele>667.79998779297</ele>
        <time>2020-03-01T09:12:55.000Z</time>
      </trkpt>
      <trkpt lat="45.16331" lon="5.3117">
        <ele>668.20001220703</ele>
        <time>2020-03-01T09:12:56.000Z</time>
      </trkpt>
      <trkpt lat="45.16331" lon="5.31169">
        <ele>668.40002441406</ele>
        <time>2020-03-01T09:12:57.000Z</time>
      </trkpt>
      <trkpt lat="45.16329" lon="5.31168">
        <ele>668.40002441406</ele>
        <time>2020-03-01T09:12:58.000Z</time>
      </trkpt>
      <trkpt lat="45.16328" lon="5.31167">
        <ele>668.59997558594</ele>
        <time>2020-03-01T09:12:59.000Z</time>
      </trkpt>
      <trkpt lat="45.16327" lon="5.31165">
        <ele>668.79998779297</ele>
        <time>2020-03-01T09:13:00.000Z</time>
      </trkpt>
      <trkpt lat="45.16326" lon="5.31164">
        <ele>669</ele>
        <time>2020-03-01T09:13:01.000Z</time>
      </trkpt>
      <trkpt lat="45.16325" lon="5.31163">
        <ele>669.20001220703</ele>
        <time>2020-03-01T09:13:02.000Z</time>
      </trkpt>
      <trkpt lat="45.16324" lon="5.31161">
        <ele>669.40002441406</ele>
        <time>2020-03-01T09:13:03.000Z</time>
      </trkpt>
      <trkpt lat="45.16324" lon="5.31159">
        <ele>669.40002441406</ele>
        <time>2020-03-01T09:13:04.000Z</time>
      </trkpt>
      <trkpt lat="45.16322" lon="5.31157">
        <ele>669.79998779297</ele>
        <time>2020-03-01T09:13:05.000Z</time>
      </trkpt>
      <trkpt lat="45.16321" lon="5.31156">
        <ele>670</ele>
        <time>2020-03-01T09:13:06.000Z</time>
      </trkpt>
      <trkpt lat="45.16321" lon="5.31156">
        <ele>670.20001220703</ele>
        <time>2020-03-01T09:13:07.000Z</time>
      </trkpt>
      <trkpt lat="45.16319" lon="5.31155">
        <ele>670.40002441406</ele>
        <time>2020-03-01T09:13:08.000Z</time>
      </trkpt>
      <trkpt lat="45.16318" lon="5.31154">
        <ele>670.59997558594</ele>
        <time>2020-03-01T09:13:09.000Z</time>
      </trkpt>
      <trkpt lat="45.16317" lon="5.31153">
        <ele>670.79998779297</ele>
        <time>2020-03-01T09:13:10.000Z</time>
      </trkpt>
      <trkpt lat="45.16315" lon="5.31151">
        <ele>671</ele>
        <time>2020-03-01T09:13:11.000Z</time>
      </trkpt>
      <trkpt lat="45.16314" lon="5.31149">
        <ele>671.20001220703</ele>
        <time>2020-03-01T09:13:12.000Z</time>
      </trkpt>
      <trkpt lat="45.16313" lon="5.31148">
        <ele>671.20001220703</ele>
        <time>2020-03-01T09:13:13.000Z</time>
      </trkpt>
      <trkpt lat="45.16312" lon="5.31146">
        <ele>671.59997558594</ele>
        <time>2020-03-01T09:13:14.000Z</time>
      </trkpt>
      <trkpt lat="45.16311" lon="5.31145">
        <ele>671.79998779297</ele>
        <time>2020-03-01T09:13:15.000Z</time>
      </trkpt>
      <trkpt lat="45.1631" lon="5.31143">
        <ele>672.20001220703</ele>
        <time>2020-03-01T09:13:16.000Z</time>
      </trkpt>
      <trkpt lat="45.16309" lon="5.31143">
        <ele>672.40002441406</ele>
        <time>2020-03-01T09:13:17.000Z</time>
      </trkpt>
      <trkpt lat="45.16308" lon="5.31143">
        <ele>672.40002441406</ele>
        <time>2020-03-01T09:13:18.000Z</time>
      </trkpt>
      <trkpt lat="45.16307" lon="5.31142">
        <ele>672.59997558594</ele>
        <time>2020-03-01T09:13:19.000Z</time>
      </trkpt>
      <trkpt lat="45.16306" lon="5.31141">
        <ele>672.59997558594</ele>
        <time>2020-03-01T09:13:20.000Z</time>
      </trkpt>
      <trkpt lat="45.16305" lon="5.3114">
        <ele>672.59997558594</ele>
        <time>2020-03-01T09:13:21.000Z</time>
      </trkpt>
      <trkpt lat="45.16304" lon="5.31139">
        <ele>672.79998779297</ele>
        <time>2020-03-01T09:13:22.000Z</time>
      </trkpt>
      <trkpt lat="45.16302" lon="5.31138">
        <ele>672.79998779297</ele>
        <time>2020-03-01T09:13:23.000Z</time>
      </trkpt>
      <trkpt lat="45.16301" lon="5.31138">
        <ele>673</ele>
        <time>2020-03-01T09:13:24.000Z</time>
      </trkpt>
      <trkpt lat="45.16299" lon="5.31137">
        <ele>673.20001220703</ele>
        <time>2020-03-01T09:13:25.000Z</time>
      </trkpt>
      <trkpt lat="45.16297" lon="5.31135">
        <ele>673.20001220703</ele>
        <time>2020-03-01T09:13:26.000Z</time>
      </trkpt>
      <trkpt lat="45.16295" lon="5.31134">
        <ele>673.40002441406</ele>
        <time>2020-03-01T09:13:27.000Z</time>
      </trkpt>
      <trkpt lat="45.16293" lon="5.31132">
        <ele>673.40002441406</ele>
        <time>2020-03-01T09:13:28.000Z</time>
      </trkpt>
      <trkpt lat="45.16292" lon="5.3113">
        <ele>673.59997558594</ele>
        <time>2020-03-01T09:13:29.000Z</time>
      </trkpt>
      <trkpt lat="45.1629" lon="5.31129">
        <ele>673.79998779297</ele>
        <time>2020-03-01T09:13:30.000Z</time>
      </trkpt>
      <trkpt lat="45.16289" lon="5.31128">
        <ele>674</ele>
        <time>2020-03-01T09:13:31.000Z</time>
      </trkpt>
      <trkpt lat="45.16288" lon="5.31127">
        <ele>674.20001220703</ele>
        <time>2020-03-01T09:13:32.000Z</time>
      </trkpt>
      <trkpt lat="45.16287" lon="5.31126">
        <ele>674.59997558594</ele>
        <time>2020-03-01T09:13:33.000Z</time>
      </trkpt>
      <trkpt lat="45.16285" lon="5.31125">
        <ele>674.79998779297</ele>
        <time>2020-03-01T09:13:34.000Z</time>
      </trkpt>
      <trkpt lat="45.16283" lon="5.31124">
        <ele>675</ele>
        <time>2020-03-01T09:13:35.000Z</time>
      </trkpt>
      <trkpt lat="45.16281" lon="5.31123">
        <ele>675.20001220703</ele>
        <time>2020-03-01T09:13:36.000Z</time>
      </trkpt>
      <trkpt lat="45.1628" lon="5.31118">
        <ele>675.40002441406</ele>
        <time>2020-03-01T09:13:37.000Z</time>
      </trkpt>
      <trkpt lat="45.16278" lon="5.31114">
        <ele>675.40002441406</ele>
        <time>2020-03-01T09:13:38.000Z</time>
      </trkpt>
      <trkpt lat="45.16277" lon="5.31112">
        <ele>675.59997558594</ele>
        <time>2020-03-01T09:13:39.000Z</time>
      </trkpt>
      <trkpt lat="45.16275" lon="5.3111">
        <ele>675.79998779297</ele>
        <time>2020-03-01T09:13:40.000Z</time>
      </trkpt>
      <trkpt lat="45.16273" lon="5.31109">
        <ele>676</ele>
        <time>2020-03-01T09:13:41.000Z</time>
      </trkpt>
      <trkpt lat="45.16272" lon="5.31108">
        <ele>676</ele>
        <time>2020-03-01T09:13:42.000Z</time>
      </trkpt>
      <trkpt lat="45.1627" lon="5.31106">
        <ele>676.20001220703</ele>
        <time>2020-03-01T09:13:43.000Z</time>
      </trkpt>
      <trkpt lat="45.16268" lon="5.31105">
        <ele>676.20001220703</ele>
        <time>2020-03-01T09:13:44.000Z</time>
      </trkpt>
      <trkpt lat="45.16266" lon="5.31104">
        <ele>676.20001220703</ele>
        <time>2020-03-01T09:13:45.000Z</time>
      </trkpt>
      <trkpt lat="45.16264" lon="5.31102">
        <ele>676.40002441406</ele>
        <time>2020-03-01T09:13:46.000Z</time>
      </trkpt>
      <trkpt lat="45.16262" lon="5.31101">
        <ele>676.59997558594</ele>
        <time>2020-03-01T09:13:47.000Z</time>
      </trkpt>
      <trkpt lat="45.1626" lon="5.31099">
        <ele>677</ele>
        <time>2020-03-01T09:13:48.000Z</time>
      </trkpt>
      <trkpt lat="45.16258" lon="5.31097">
        <ele>677.20001220703</ele>
        <time>2020-03-01T09:13:49.000Z</time>
      </trkpt>
      <trkpt lat="45.16256" lon="5.31095">
        <ele>677.40002441406</ele>
        <time>2020-03-01T09:13:50.000Z</time>
      </trkpt>
      <trkpt lat="45.16255" lon="5.31094">
        <ele>677.40002441406</ele>
        <time>2020-03-01T09:13:51.000Z</time>
      </trkpt>
      <trkpt lat="45.16254" lon="5.31092">
        <ele>677.40002441406</ele>
        <time>2020-03-01T09:13:52.000Z</time>
      </trkpt>
      <trkpt lat="45.16253" lon="5.3109">
        <ele>677.59997558594</ele>
        <time>2020-03-01T09:13:53.000Z</time>
      </trkpt>
      <trkpt lat="45.16251" lon="5.31088">
        <ele>677.59997558594</ele>
        <time>2020-03-01T09:13:54.000Z</time>
      </trkpt>
      <trkpt lat="45.16249" lon="5.31086">
        <ele>677.59997558594</ele>
        <time>2020-03-01T09:13:55.000Z</time>
      </trkpt>
      <trkpt lat="45.16247" lon="5.31085">
        <ele>677.59997558594</ele>
        <time>2020-03-01T09:13:56.000Z</time>
      </trkpt>
      <trkpt lat="45.16246" lon="5.31083">
        <ele>677.79998779297</ele>
        <time>2020-03-01T09:13:57.000Z</time>
      </trkpt>
      <trkpt lat="45.16244" lon="5.31082">
        <ele>678</ele>
        <time>2020-03-01T09:13:58.000Z</time>
      </trkpt>
      <trkpt lat="45.16242" lon="5.31081">
        <ele>677.79998779297</ele>
        <time>2020-03-01T09:13:59.000Z</time>
      </trkpt>
      <trkpt lat="45.16241" lon="5.31079">
        <ele>678</ele>
        <time>2020-03-01T09:14:00.000Z</time>
      </trkpt>
      <trkpt lat="45.16239" lon="5.31078">
        <ele>678.59997558594</ele>
        <time>2020-03-01T09:14:01.000Z</time>
      </trkpt>
      <trkpt lat="45.16237" lon="5.31077">
        <ele>679</ele>
        <time>2020-03-01T09:14:02.000Z</time>
      </trkpt>
      <trkpt lat="45.16234" lon="5.31077">
        <ele>679</ele>
        <time>2020-03-01T09:14:03.000Z</time>
      </trkpt>
      <trkpt lat="45.16232" lon="5.31076">
        <ele>679.20001220703</ele>
        <time>2020-03-01T09:14:04.000Z</time>
      </trkpt>
      <trkpt lat="45.16231" lon="5.31074">
        <ele>679.20001220703</ele>
        <time>2020-03-01T09:14:05.000Z</time>
      </trkpt>
      <trkpt lat="45.16229" lon="5.31072">
        <ele>679.20001220703</ele>
        <time>2020-03-01T09:14:06.000Z</time>
      </trkpt>
      <trkpt lat="45.16227" lon="5.3107">
        <ele>679.40002441406</ele>
        <time>2020-03-01T09:14:07.000Z</time>
      </trkpt>
      <trkpt lat="45.16226" lon="5.31068">
        <ele>679.40002441406</ele>
        <time>2020-03-01T09:14:08.000Z</time>
      </trkpt>
      <trkpt lat="45.16225" lon="5.31066">
        <ele>679.40002441406</ele>
        <time>2020-03-01T09:14:09.000Z</time>
      </trkpt>
      <trkpt lat="45.16223" lon="5.31065">
        <ele>679.59997558594</ele>
        <time>2020-03-01T09:14:10.000Z</time>
      </trkpt>
      <trkpt lat="45.16222" lon="5.31064">
        <ele>679.59997558594</ele>
        <time>2020-03-01T09:14:11.000Z</time>
      </trkpt>
      <trkpt lat="45.1622" lon="5.31062">
        <ele>679.79998779297</ele>
        <time>2020-03-01T09:14:12.000Z</time>
      </trkpt>
      <trkpt lat="45.16219" lon="5.31061">
        <ele>679.79998779297</ele>
        <time>2020-03-01T09:14:13.000Z</time>
      </trkpt>
      <trkpt lat="45.16217" lon="5.31059">
        <ele>680</ele>
        <time>2020-03-01T09:14:14.000Z</time>
      </trkpt>
      <trkpt lat="45.16215" lon="5.31058">
        <ele>680.20001220703</ele>
        <time>2020-03-01T09:14:15.000Z</time>
      </trkpt>
      <trkpt lat="45.16214" lon="5.31056">
        <ele>680.20001220703</ele>
        <time>2020-03-01T09:14:16.000Z</time>
      </trkpt>
      <trkpt lat="45.16212" lon="5.31054">
        <ele>680.40002441406</ele>
        <time>2020-03-01T09:14:17.000Z</time>
      </trkpt>
      <trkpt lat="45.16211" lon="5.31052">
        <ele>680.40002441406</ele>
        <time>2020-03-01T09:14:18.000Z</time>
      </trkpt>
      <trkpt lat="45.16209" lon="5.31051">
        <ele>680.59997558594</ele>
        <time>2020-03-01T09:14:19.000Z</time>
      </trkpt>
      <trkpt lat="45.16207" lon="5.3105">
        <ele>680.59997558594</ele>
        <time>2020-03-01T09:14:20.000Z</time>
      </trkpt>
      <trkpt lat="45.16206" lon="5.31049">
        <ele>680.59997558594</ele>
        <time>2020-03-01T09:14:21.000Z</time>
      </trkpt>
      <trkpt lat="45.16204" lon="5.31047">
        <ele>680.79998779297</ele>
        <time>2020-03-01T09:14:22.000Z</time>
      </trkpt>
      <trkpt lat="45.16202" lon="5.31047">
        <ele>681.20001220703</ele>
        <time>2020-03-01T09:14:23.000Z</time>
      </trkpt>
      <trkpt lat="45.162" lon="5.31046">
        <ele>681.20001220703</ele>
        <time>2020-03-01T09:14:24.000Z</time>
      </trkpt>
      <trkpt lat="45.16198" lon="5.31044">
        <ele>681.40002441406</ele>
        <time>2020-03-01T09:14:25.000Z</time>
      </trkpt>
      <trkpt lat="45.16196" lon="5.31043">
        <ele>681.59997558594</ele>
        <time>2020-03-01T09:14:26.000Z</time>
      </trkpt>
      <trkpt lat="45.16194" lon="5.31042">
        <ele>681.79998779297</ele>
        <time>2020-03-01T09:14:27.000Z</time>
      </trkpt>
      <trkpt lat="45.16192" lon="5.31041">
        <ele>681.79998779297</ele>
        <time>2020-03-01T09:14:28.000Z</time>
      </trkpt>
      <trkpt lat="45.1619" lon="5.31039">
        <ele>681.79998779297</ele>
        <time>2020-03-01T09:14:29.000Z</time>
      </trkpt>
      <trkpt lat="45.16188" lon="5.31038">
        <ele>682</ele>
        <time>2020-03-01T09:14:30.000Z</time>
      </trkpt>
      <trkpt lat="45.16186" lon="5.31037">
        <ele>682.20001220703</ele>
        <time>2020-03-01T09:14:31.000Z</time>
      </trkpt>
      <trkpt lat="45.16185" lon="5.31036">
        <ele>682.20001220703</ele>
        <time>2020-03-01T09:14:32.000Z</time>
      </trkpt>
      <trkpt lat="45.16183" lon="5.31034">
        <ele>682.40002441406</ele>
        <time>2020-03-01T09:14:33.000Z</time>
      </trkpt>
      <trkpt lat="45.16181" lon="5.31033">
        <ele>682.79998779297</ele>
        <time>2020-03-01T09:14:34.000Z</time>
      </trkpt>
      <trkpt lat="45.16179" lon="5.31032">
        <ele>683.20001220703</ele>
        <time>2020-03-01T09:14:35.000Z</time>
      </trkpt>
      <trkpt lat="45.16177" lon="5.31031">
        <ele>683.20001220703</ele>
        <time>2020-03-01T09:14:36.000Z</time>
      </trkpt>
      <trkpt lat="45.16175" lon="5.3103">
        <ele>683.40002441406</ele>
        <time>2020-03-01T09:14:37.000Z</time>
      </trkpt>
      <trkpt lat="45.16172" lon="5.31029">
        <ele>683.40002441406</ele>
        <time>2020-03-01T09:14:38.000Z</time>
      </trkpt>
      <trkpt lat="45.1617" lon="5.31028">
        <ele>683.79998779297</ele>
        <time>2020-03-01T09:14:39.000Z</time>
      </trkpt>
      <trkpt lat="45.16168" lon="5.31027">
        <ele>683.79998779297</ele>
        <time>2020-03-01T09:14:40.000Z</time>
      </trkpt>
      <trkpt lat="45.16166" lon="5.31026">
        <ele>683.79998779297</ele>
        <time>2020-03-01T09:14:41.000Z</time>
      </trkpt>
      <trkpt lat="45.16164" lon="5.31025">
        <ele>683.79998779297</ele>
        <time>2020-03-01T09:14:42.000Z</time>
      </trkpt>
      <trkpt lat="45.16163" lon="5.31023">
        <ele>684</ele>
        <time>2020-03-01T09:14:43.000Z</time>
      </trkpt>
      <trkpt lat="45.16161" lon="5.31021">
        <ele>684.20001220703</ele>
        <time>2020-03-01T09:14:44.000Z</time>
      </trkpt>
      <trkpt lat="45.1616" lon="5.3102">
        <ele>684.40002441406</ele>
        <time>2020-03-01T09:14:45.000Z</time>
      </trkpt>
      <trkpt lat="45.16158" lon="5.31019">
        <ele>684.59997558594</ele>
        <time>2020-03-01T09:14:46.000Z</time>
      </trkpt>
      <trkpt lat="45.16157" lon="5.31017">
        <ele>684.79998779297</ele>
        <time>2020-03-01T09:14:47.000Z</time>
      </trkpt>
      <trkpt lat="45.16155" lon="5.31016">
        <ele>685</ele>
        <time>2020-03-01T09:14:48.000Z</time>
      </trkpt>
      <trkpt lat="45.16153" lon="5.31014">
        <ele>685.20001220703</ele>
        <time>2020-03-01T09:14:49.000Z</time>
      </trkpt>
      <trkpt lat="45.16151" lon="5.31013">
        <ele>685.40002441406</ele>
        <time>2020-03-01T09:14:50.000Z</time>
      </trkpt>
      <trkpt lat="45.1615" lon="5.31012">
        <ele>685.59997558594</ele>
        <time>2020-03-01T09:14:51.000Z</time>
      </trkpt>
      <trkpt lat="45.16148" lon="5.31011">
        <ele>685.79998779297</ele>
        <time>2020-03-01T09:14:52.000Z</time>
      </trkpt>
      <trkpt lat="45.16147" lon="5.3101">
        <ele>685.79998779297</ele>
        <time>2020-03-01T09:14:53.000Z</time>
      </trkpt>
      <trkpt lat="45.16146" lon="5.31009">
        <ele>686</ele>
        <time>2020-03-01T09:14:54.000Z</time>
      </trkpt>
      <trkpt lat="45.16144" lon="5.31008">
        <ele>686.40002441406</ele>
        <time>2020-03-01T09:14:55.000Z</time>
      </trkpt>
      <trkpt lat="45.16143" lon="5.31006">
        <ele>686.59997558594</ele>
        <time>2020-03-01T09:14:56.000Z</time>
      </trkpt>
      <trkpt lat="45.16141" lon="5.31004">
        <ele>687</ele>
        <time>2020-03-01T09:14:57.000Z</time>
      </trkpt>
      <trkpt lat="45.1614" lon="5.31002">
        <ele>687.20001220703</ele>
        <time>2020-03-01T09:14:58.000Z</time>
      </trkpt>
      <trkpt lat="45.16139" lon="5.31001">
        <ele>687.20001220703</ele>
        <time>2020-03-01T09:14:59.000Z</time>
      </trkpt>
      <trkpt lat="45.16137" lon="5.30999">
        <ele>687.40002441406</ele>
        <time>2020-03-01T09:15:00.000Z</time>
      </trkpt>
      <trkpt lat="45.16137" lon="5.30998">
        <ele>687.59997558594</ele>
        <time>2020-03-01T09:15:01.000Z</time>
      </trkpt>
      <trkpt lat="45.16136" lon="5.30995">
        <ele>688</ele>
        <time>2020-03-01T09:15:02.000Z</time>
      </trkpt>
      <trkpt lat="45.16135" lon="5.30994">
        <ele>688.40002441406</ele>
        <time>2020-03-01T09:15:03.000Z</time>
      </trkpt>
      <trkpt lat="45.16134" lon="5.30992">
        <ele>688.59997558594</ele>
        <time>2020-03-01T09:15:04.000Z</time>
      </trkpt>
      <trkpt lat="45.16133" lon="5.30991">
        <ele>689</ele>
        <time>2020-03-01T09:15:05.000Z</time>
      </trkpt>
      <trkpt lat="45.16132" lon="5.3099">
        <ele>689.20001220703</ele>
        <time>2020-03-01T09:15:06.000Z</time>
      </trkpt>
      <trkpt lat="45.16131" lon="5.30989">
        <ele>689.20001220703</ele>
        <time>2020-03-01T09:15:07.000Z</time>
      </trkpt>
      <trkpt lat="45.16131" lon="5.30989">
        <ele>689.40002441406</ele>
        <time>2020-03-01T09:15:08.000Z</time>
      </trkpt>
      <trkpt lat="45.16131" lon="5.30988">
        <ele>689.40002441406</ele>
        <time>2020-03-01T09:15:09.000Z</time>
      </trkpt>
      <trkpt lat="45.16132" lon="5.30987">
        <ele>689.59997558594</ele>
        <time>2020-03-01T09:15:10.000Z</time>
      </trkpt>
      <trkpt lat="45.16133" lon="5.30985">
        <ele>689.79998779297</ele>
        <time>2020-03-01T09:15:11.000Z</time>
      </trkpt>
      <trkpt lat="45.16134" lon="5.30984">
        <ele>690</ele>
        <time>2020-03-01T09:15:12.000Z</time>
      </trkpt>
      <trkpt lat="45.16135" lon="5.30983">
        <ele>690</ele>
        <time>2020-03-01T09:15:13.000Z</time>
      </trkpt>
      <trkpt lat="45.16135" lon="5.30982">
        <ele>690.20001220703</ele>
        <time>2020-03-01T09:15:14.000Z</time>
      </trkpt>
      <trkpt lat="45.16136" lon="5.3098">
        <ele>690.59997558594</ele>
        <time>2020-03-01T09:15:15.000Z</time>
      </trkpt>
      <trkpt lat="45.16136" lon="5.30978">
        <ele>691</ele>
        <time>2020-03-01T09:15:16.000Z</time>
      </trkpt>
      <trkpt lat="45.16136" lon="5.30977">
        <ele>691.20001220703</ele>
        <time>2020-03-01T09:15:17.000Z</time>
      </trkpt>
      <trkpt lat="45.16136" lon="5.30976">
        <ele>691.40002441406</ele>
        <time>2020-03-01T09:15:18.000Z</time>
      </trkpt>
      <trkpt lat="45.16136" lon="5.30974">
        <ele>691.59997558594</ele>
        <time>2020-03-01T09:15:19.000Z</time>
      </trkpt>
      <trkpt lat="45.16136" lon="5.30972">
        <ele>691.79998779297</ele>
        <time>2020-03-01T09:15:20.000Z</time>
      </trkpt>
      <trkpt lat="45.16136" lon="5.3097">
        <ele>692</ele>
        <time>2020-03-01T09:15:21.000Z</time>
      </trkpt>
      <trkpt lat="45.16136" lon="5.30968">
        <ele>692.20001220703</ele>
        <time>2020-03-01T09:15:22.000Z</time>
      </trkpt>
      <trkpt lat="45.16137" lon="5.30966">
        <ele>692.40002441406</ele>
        <time>2020-03-01T09:15:23.000Z</time>
      </trkpt>
      <trkpt lat="45.16137" lon="5.30964">
        <ele>692.59997558594</ele>
        <time>2020-03-01T09:15:24.000Z</time>
      </trkpt>
      <trkpt lat="45.16138" lon="5.30963">
        <ele>692.79998779297</ele>
        <time>2020-03-01T09:15:25.000Z</time>
      </trkpt>
      <trkpt lat="45.16139" lon="5.30962">
        <ele>692.79998779297</ele>
        <time>2020-03-01T09:15:26.000Z</time>
      </trkpt>
      <trkpt lat="45.1614" lon="5.3096">
        <ele>693</ele>
        <time>2020-03-01T09:15:27.000Z</time>
      </trkpt>
      <trkpt lat="45.1614" lon="5.30958">
        <ele>693.20001220703</ele>
        <time>2020-03-01T09:15:28.000Z</time>
      </trkpt>
      <trkpt lat="45.16141" lon="5.30956">
        <ele>693.40002441406</ele>
        <time>2020-03-01T09:15:29.000Z</time>
      </trkpt>
      <trkpt lat="45.16142" lon="5.30954">
        <ele>693.59997558594</ele>
        <time>2020-03-01T09:15:30.000Z</time>
      </trkpt>
      <trkpt lat="45.16142" lon="5.30953">
        <ele>693.79998779297</ele>
        <time>2020-03-01T09:15:31.000Z</time>
      </trkpt>
      <trkpt lat="45.16143" lon="5.30952">
        <ele>694</ele>
        <time>2020-03-01T09:15:32.000Z</time>
      </trkpt>
      <trkpt lat="45.16143" lon="5.30951">
        <ele>694.40002441406</ele>
        <time>2020-03-01T09:15:33.000Z</time>
      </trkpt>
      <trkpt lat="45.16143" lon="5.30949">
        <ele>694.59997558594</ele>
        <time>2020-03-01T09:15:34.000Z</time>
      </trkpt>
      <trkpt lat="45.16144" lon="5.30948">
        <ele>695</ele>
        <time>2020-03-01T09:15:35.000Z</time>
      </trkpt>
      <trkpt lat="45.16143" lon="5.30946">
        <ele>695</ele>
        <time>2020-03-01T09:15:36.000Z</time>
      </trkpt>
      <trkpt lat="45.16144" lon="5.30944">
        <ele>695.20001220703</ele>
        <time>2020-03-01T09:15:37.000Z</time>
      </trkpt>
      <trkpt lat="45.16145" lon="5.30942">
        <ele>695.59997558594</ele>
        <time>2020-03-01T09:15:38.000Z</time>
      </trkpt>
      <trkpt lat="45.16145" lon="5.30941">
        <ele>695.79998779297</ele>
        <time>2020-03-01T09:15:39.000Z</time>
      </trkpt>
      <trkpt lat="45.16145" lon="5.30938">
        <ele>696</ele>
        <time>2020-03-01T09:15:40.000Z</time>
      </trkpt>
      <trkpt lat="45.16145" lon="5.30936">
        <ele>696.20001220703</ele>
        <time>2020-03-01T09:15:41.000Z</time>
      </trkpt>
      <trkpt lat="45.16146" lon="5.30935">
        <ele>696.40002441406</ele>
        <time>2020-03-01T09:15:42.000Z</time>
      </trkpt>
      <trkpt lat="45.16147" lon="5.30933">
        <ele>696.40002441406</ele>
        <time>2020-03-01T09:15:43.000Z</time>
      </trkpt>
      <trkpt lat="45.16147" lon="5.30932">
        <ele>696.59997558594</ele>
        <time>2020-03-01T09:15:44.000Z</time>
      </trkpt>
      <trkpt lat="45.16148" lon="5.30931">
        <ele>696.79998779297</ele>
        <time>2020-03-01T09:15:45.000Z</time>
      </trkpt>
      <trkpt lat="45.16149" lon="5.3093">
        <ele>697.20001220703</ele>
        <time>2020-03-01T09:15:46.000Z</time>
      </trkpt>
      <trkpt lat="45.1615" lon="5.30928">
        <ele>697.40002441406</ele>
        <time>2020-03-01T09:15:47.000Z</time>
      </trkpt>
      <trkpt lat="45.16151" lon="5.30926">
        <ele>697.59997558594</ele>
        <time>2020-03-01T09:15:48.000Z</time>
      </trkpt>
      <trkpt lat="45.16151" lon="5.30925">
        <ele>698</ele>
        <time>2020-03-01T09:15:49.000Z</time>
      </trkpt>
      <trkpt lat="45.16152" lon="5.30923">
        <ele>698.20001220703</ele>
        <time>2020-03-01T09:15:50.000Z</time>
      </trkpt>
      <trkpt lat="45.16153" lon="5.30922">
        <ele>698.20001220703</ele>
        <time>2020-03-01T09:15:51.000Z</time>
      </trkpt>
      <trkpt lat="45.16154" lon="5.3092">
        <ele>698.40002441406</ele>
        <time>2020-03-01T09:15:52.000Z</time>
      </trkpt>
      <trkpt lat="45.16155" lon="5.30918">
        <ele>698.59997558594</ele>
        <time>2020-03-01T09:15:53.000Z</time>
      </trkpt>
      <trkpt lat="45.16156" lon="5.30918">
        <ele>698.79998779297</ele>
        <time>2020-03-01T09:15:54.000Z</time>
      </trkpt>
      <trkpt lat="45.16157" lon="5.30918">
        <ele>699</ele>
        <time>2020-03-01T09:15:55.000Z</time>
      </trkpt>
      <trkpt lat="45.16158" lon="5.30917">
        <ele>699.20001220703</ele>
        <time>2020-03-01T09:15:56.000Z</time>
      </trkpt>
      <trkpt lat="45.16159" lon="5.30915">
        <ele>699.40002441406</ele>
        <time>2020-03-01T09:15:57.000Z</time>
      </trkpt>
      <trkpt lat="45.1616" lon="5.30914">
        <ele>699.59997558594</ele>
        <time>2020-03-01T09:15:58.000Z</time>
      </trkpt>
      <trkpt lat="45.16161" lon="5.30913">
        <ele>699.79998779297</ele>
        <time>2020-03-01T09:15:59.000Z</time>
      </trkpt>
      <trkpt lat="45.16162" lon="5.30912">
        <ele>699.79998779297</ele>
        <time>2020-03-01T09:16:00.000Z</time>
      </trkpt>
      <trkpt lat="45.16163" lon="5.30911">
        <ele>700</ele>
        <time>2020-03-01T09:16:01.000Z</time>
      </trkpt>
      <trkpt lat="45.16163" lon="5.3091">
        <ele>700</ele>
        <time>2020-03-01T09:16:02.000Z</time>
      </trkpt>
      <trkpt lat="45.16164" lon="5.30909">
        <ele>700.20001220703</ele>
        <time>2020-03-01T09:16:03.000Z</time>
      </trkpt>
      <trkpt lat="45.16165" lon="5.30908">
        <ele>700.40002441406</ele>
        <time>2020-03-01T09:16:04.000Z</time>
      </trkpt>
      <trkpt lat="45.16166" lon="5.30906">
        <ele>700.40002441406</ele>
        <time>2020-03-01T09:16:05.000Z</time>
      </trkpt>
      <trkpt lat="45.16167" lon="5.30905">
        <ele>700.59997558594</ele>
        <time>2020-03-01T09:16:06.000Z</time>
      </trkpt>
      <trkpt lat="45.16169" lon="5.30904">
        <ele>700.59997558594</ele>
        <time>2020-03-01T09:16:07.000Z</time>
      </trkpt>
      <trkpt lat="45.1617" lon="5.30903">
        <ele>700.59997558594</ele>
        <time>2020-03-01T09:16:08.000Z</time>
      </trkpt>
      <trkpt lat="45.16172" lon="5.30901">
        <ele>700.79998779297</ele>
        <time>2020-03-01T09:16:09.000Z</time>
      </trkpt>
      <trkpt lat="45.16173" lon="5.30901">
        <ele>700.79998779297</ele>
        <time>2020-03-01T09:16:10.000Z</time>
      </trkpt>
      <trkpt lat="45.16174" lon="5.30898">
        <ele>701</ele>
        <time>2020-03-01T09:16:11.000Z</time>
      </trkpt>
      <trkpt lat="45.16176" lon="5.30898">
        <ele>701.20001220703</ele>
        <time>2020-03-01T09:16:12.000Z</time>
      </trkpt>
      <trkpt lat="45.16177" lon="5.30897">
        <ele>701.40002441406</ele>
        <time>2020-03-01T09:16:13.000Z</time>
      </trkpt>
      <trkpt lat="45.16179" lon="5.30896">
        <ele>701.40002441406</ele>
        <time>2020-03-01T09:16:14.000Z</time>
      </trkpt>
      <trkpt lat="45.1618" lon="5.30894">
        <ele>701.59997558594</ele>
        <time>2020-03-01T09:16:15.000Z</time>
      </trkpt>
      <trkpt lat="45.1618" lon="5.30892">
        <ele>701.79998779297</ele>
        <time>2020-03-01T09:16:16.000Z</time>
      </trkpt>
      <trkpt lat="45.16181" lon="5.30891">
        <ele>702</ele>
        <time>2020-03-01T09:16:17.000Z</time>
      </trkpt>
      <trkpt lat="45.16182" lon="5.3089">
        <ele>702.20001220703</ele>
        <time>2020-03-01T09:16:18.000Z</time>
      </trkpt>
      <trkpt lat="45.16182" lon="5.30888">
        <ele>702.59997558594</ele>
        <time>2020-03-01T09:16:19.000Z</time>
      </trkpt>
      <trkpt lat="45.16183" lon="5.30886">
        <ele>702.79998779297</ele>
        <time>2020-03-01T09:16:20.000Z</time>
      </trkpt>
      <trkpt lat="45.16183" lon="5.30885">
        <ele>703</ele>
        <time>2020-03-01T09:16:21.000Z</time>
      </trkpt>
      <trkpt lat="45.16185" lon="5.30884">
        <ele>703.20001220703</ele>
        <time>2020-03-01T09:16:22.000Z</time>
      </trkpt>
      <trkpt lat="45.16186" lon="5.30882">
        <ele>703.40002441406</ele>
        <time>2020-03-01T09:16:23.000Z</time>
      </trkpt>
      <trkpt lat="45.16187" lon="5.3088">
        <ele>703.59997558594</ele>
        <time>2020-03-01T09:16:24.000Z</time>
      </trkpt>
      <trkpt lat="45.16189" lon="5.30878">
        <ele>703.79998779297</ele>
        <time>2020-03-01T09:16:25.000Z</time>
      </trkpt>
      <trkpt lat="45.16191" lon="5.30877">
        <ele>704.20001220703</ele>
        <time>2020-03-01T09:16:26.000Z</time>
      </trkpt>
      <trkpt lat="45.16193" lon="5.30875">
        <ele>704.59997558594</ele>
        <time>2020-03-01T09:16:27.000Z</time>
      </trkpt>
      <trkpt lat="45.16194" lon="5.30874">
        <ele>705</ele>
        <time>2020-03-01T09:16:28.000Z</time>
      </trkpt>
      <trkpt lat="45.16195" lon="5.30873">
        <ele>705.20001220703</ele>
        <time>2020-03-01T09:16:29.000Z</time>
      </trkpt>
      <trkpt lat="45.16196" lon="5.30872">
        <ele>705.40002441406</ele>
        <time>2020-03-01T09:16:30.000Z</time>
      </trkpt>
      <trkpt lat="45.16197" lon="5.30871">
        <ele>705.79998779297</ele>
        <time>2020-03-01T09:16:31.000Z</time>
      </trkpt>
      <trkpt lat="45.16198" lon="5.30869">
        <ele>706</ele>
        <time>2020-03-01T09:16:32.000Z</time>
      </trkpt>
      <trkpt lat="45.162" lon="5.30867">
        <ele>706</ele>
        <time>2020-03-01T09:16:33.000Z</time>
      </trkpt>
      <trkpt lat="45.16201" lon="5.30864">
        <ele>706.20001220703</ele>
        <time>2020-03-01T09:16:34.000Z</time>
      </trkpt>
      <trkpt lat="45.16202" lon="5.30861">
        <ele>706.20001220703</ele>
        <time>2020-03-01T09:16:35.000Z</time>
      </trkpt>
      <trkpt lat="45.16203" lon="5.3086">
        <ele>706.40002441406</ele>
        <time>2020-03-01T09:16:36.000Z</time>
      </trkpt>
      <trkpt lat="45.16206" lon="5.30859">
        <ele>706.40002441406</ele>
        <time>2020-03-01T09:16:37.000Z</time>
      </trkpt>
      <trkpt lat="45.16209" lon="5.30858">
        <ele>706.59997558594</ele>
        <time>2020-03-01T09:16:38.000Z</time>
      </trkpt>
      <trkpt lat="45.1621" lon="5.30855">
        <ele>707</ele>
        <time>2020-03-01T09:16:39.000Z</time>
      </trkpt>
      <trkpt lat="45.16211" lon="5.30853">
        <ele>707.40002441406</ele>
        <time>2020-03-01T09:16:40.000Z</time>
      </trkpt>
      <trkpt lat="45.16214" lon="5.30851">
        <ele>707.40002441406</ele>
        <time>2020-03-01T09:16:41.000Z</time>
      </trkpt>
      <trkpt lat="45.16215" lon="5.30849">
        <ele>707.40002441406</ele>
        <time>2020-03-01T09:16:42.000Z</time>
      </trkpt>
      <trkpt lat="45.16216" lon="5.30847">
        <ele>707.40002441406</ele>
        <time>2020-03-01T09:16:43.000Z</time>
      </trkpt>
      <trkpt lat="45.16217" lon="5.30844">
        <ele>707.59997558594</ele>
        <time>2020-03-01T09:16:44.000Z</time>
      </trkpt>
      <trkpt lat="45.16219" lon="5.30841">
        <ele>707.40002441406</ele>
        <time>2020-03-01T09:16:45.000Z</time>
      </trkpt>
      <trkpt lat="45.1622" lon="5.30839">
        <ele>707.40002441406</ele>
        <time>2020-03-01T09:16:46.000Z</time>
      </trkpt>
      <trkpt lat="45.16222" lon="5.30837">
        <ele>707.40002441406</ele>
        <time>2020-03-01T09:16:47.000Z</time>
      </trkpt>
      <trkpt lat="45.16224" lon="5.30836">
        <ele>707.59997558594</ele>
        <time>2020-03-01T09:16:48.000Z</time>
      </trkpt>
      <trkpt lat="45.16228" lon="5.30834">
        <ele>708</ele>
        <time>2020-03-01T09:16:49.000Z</time>
      </trkpt>
      <trkpt lat="45.1623" lon="5.30832">
        <ele>708</ele>
        <time>2020-03-01T09:16:50.000Z</time>
      </trkpt>
      <trkpt lat="45.16232" lon="5.3083">
        <ele>708.20001220703</ele>
        <time>2020-03-01T09:16:51.000Z</time>
      </trkpt>
      <trkpt lat="45.16234" lon="5.30829">
        <ele>708.20001220703</ele>
        <time>2020-03-01T09:16:52.000Z</time>
      </trkpt>
      <trkpt lat="45.16236" lon="5.30827">
        <ele>708.40002441406</ele>
        <time>2020-03-01T09:16:53.000Z</time>
      </trkpt>
      <trkpt lat="45.16238" lon="5.30825">
        <ele>708.59997558594</ele>
        <time>2020-03-01T09:16:54.000Z</time>
      </trkpt>
      <trkpt lat="45.16239" lon="5.30823">
        <ele>708.79998779297</ele>
        <time>2020-03-01T09:16:55.000Z</time>
      </trkpt>
      <trkpt lat="45.1624" lon="5.30822">
        <ele>709</ele>
        <time>2020-03-01T09:16:56.000Z</time>
      </trkpt>
      <trkpt lat="45.16241" lon="5.30822">
        <ele>709</ele>
        <time>2020-03-01T09:16:57.000Z</time>
      </trkpt>
      <trkpt lat="45.16243" lon="5.3082">
        <ele>709.20001220703</ele>
        <time>2020-03-01T09:16:58.000Z</time>
      </trkpt>
      <trkpt lat="45.16244" lon="5.30818">
        <ele>709.40002441406</ele>
        <time>2020-03-01T09:16:59.000Z</time>
      </trkpt>
      <trkpt lat="45.16246" lon="5.30816">
        <ele>709.40002441406</ele>
        <time>2020-03-01T09:17:00.000Z</time>
      </trkpt>
      <trkpt lat="45.16248" lon="5.30815">
        <ele>709.59997558594</ele>
        <time>2020-03-01T09:17:01.000Z</time>
      </trkpt>
      <trkpt lat="45.16249" lon="5.30814">
        <ele>709.79998779297</ele>
        <time>2020-03-01T09:17:02.000Z</time>
      </trkpt>
      <trkpt lat="45.1625" lon="5.30811">
        <ele>709.79998779297</ele>
        <time>2020-03-01T09:17:03.000Z</time>
      </trkpt>
      <trkpt lat="45.1625" lon="5.30807">
        <ele>709.79998779297</ele>
        <time>2020-03-01T09:17:04.000Z</time>
      </trkpt>
      <trkpt lat="45.16252" lon="5.30805">
        <ele>710.20001220703</ele>
        <time>2020-03-01T09:17:05.000Z</time>
      </trkpt>
      <trkpt lat="45.16252" lon="5.30802">
        <ele>710.20001220703</ele>
        <time>2020-03-01T09:17:06.000Z</time>
      </trkpt>
      <trkpt lat="45.16253" lon="5.30799">
        <ele>710.59997558594</ele>
        <time>2020-03-01T09:17:07.000Z</time>
      </trkpt>
      <trkpt lat="45.16255" lon="5.30797">
        <ele>711</ele>
        <time>2020-03-01T09:17:08.000Z</time>
      </trkpt>
      <trkpt lat="45.16256" lon="5.30794">
        <ele>711.20001220703</ele>
        <time>2020-03-01T09:17:09.000Z</time>
      </trkpt>
      <trkpt lat="45.16257" lon="5.30792">
        <ele>711.40002441406</ele>
        <time>2020-03-01T09:17:10.000Z</time>
      </trkpt>
      <trkpt lat="45.16258" lon="5.3079">
        <ele>711.79998779297</ele>
        <time>2020-03-01T09:17:11.000Z</time>
      </trkpt>
      <trkpt lat="45.16259" lon="5.30787">
        <ele>712.20001220703</ele>
        <time>2020-03-01T09:17:12.000Z</time>
      </trkpt>
      <trkpt lat="45.16259" lon="5.30784">
        <ele>712.40002441406</ele>
        <time>2020-03-01T09:17:13.000Z</time>
      </trkpt>
      <trkpt lat="45.16261" lon="5.30782">
        <ele>712.59997558594</ele>
        <time>2020-03-01T09:17:14.000Z</time>
      </trkpt>
      <trkpt lat="45.16261" lon="5.3078">
        <ele>712.59997558594</ele>
        <time>2020-03-01T09:17:15.000Z</time>
      </trkpt>
      <trkpt lat="45.16263" lon="5.30779">
        <ele>712.79998779297</ele>
        <time>2020-03-01T09:17:16.000Z</time>
      </trkpt>
      <trkpt lat="45.16264" lon="5.30777">
        <ele>713</ele>
        <time>2020-03-01T09:17:17.000Z</time>
      </trkpt>
      <trkpt lat="45.16265" lon="5.30774">
        <ele>713</ele>
        <time>2020-03-01T09:17:18.000Z</time>
      </trkpt>
      <trkpt lat="45.16265" lon="5.30773">
        <ele>713.20001220703</ele>
        <time>2020-03-01T09:17:19.000Z</time>
      </trkpt>
      <trkpt lat="45.16266" lon="5.30771">
        <ele>713.40002441406</ele>
        <time>2020-03-01T09:17:20.000Z</time>
      </trkpt>
      <trkpt lat="45.16267" lon="5.30769">
        <ele>713.59997558594</ele>
        <time>2020-03-01T09:17:21.000Z</time>
      </trkpt>
      <trkpt lat="45.16267" lon="5.30768">
        <ele>714</ele>
        <time>2020-03-01T09:17:22.000Z</time>
      </trkpt>
      <trkpt lat="45.16268" lon="5.30766">
        <ele>714.20001220703</ele>
        <time>2020-03-01T09:17:23.000Z</time>
      </trkpt>
      <trkpt lat="45.16268" lon="5.30765">
        <ele>714.40002441406</ele>
        <time>2020-03-01T09:17:24.000Z</time>
      </trkpt>
      <trkpt lat="45.16269" lon="5.30763">
        <ele>714.40002441406</ele>
        <time>2020-03-01T09:17:25.000Z</time>
      </trkpt>
      <trkpt lat="45.16269" lon="5.30761">
        <ele>714.59997558594</ele>
        <time>2020-03-01T09:17:26.000Z</time>
      </trkpt>
      <trkpt lat="45.16269" lon="5.30759">
        <ele>714.59997558594</ele>
        <time>2020-03-01T09:17:27.000Z</time>
      </trkpt>
      <trkpt lat="45.16269" lon="5.30757">
        <ele>714.79998779297</ele>
        <time>2020-03-01T09:17:28.000Z</time>
      </trkpt>
      <trkpt lat="45.16269" lon="5.30756">
        <ele>715.20001220703</ele>
        <time>2020-03-01T09:17:29.000Z</time>
      </trkpt>
      <trkpt lat="45.16269" lon="5.30753">
        <ele>715.40002441406</ele>
        <time>2020-03-01T09:17:30.000Z</time>
      </trkpt>
      <trkpt lat="45.1627" lon="5.30752">
        <ele>715.59997558594</ele>
        <time>2020-03-01T09:17:31.000Z</time>
      </trkpt>
      <trkpt lat="45.16271" lon="5.3075">
        <ele>715.59997558594</ele>
        <time>2020-03-01T09:17:32.000Z</time>
      </trkpt>
      <trkpt lat="45.16271" lon="5.30749">
        <ele>715.79998779297</ele>
        <time>2020-03-01T09:17:33.000Z</time>
      </trkpt>
      <trkpt lat="45.16272" lon="5.30746">
        <ele>715.79998779297</ele>
        <time>2020-03-01T09:17:34.000Z</time>
      </trkpt>
      <trkpt lat="45.16272" lon="5.30743">
        <ele>715.79998779297</ele>
        <time>2020-03-01T09:17:35.000Z</time>
      </trkpt>
      <trkpt lat="45.16272" lon="5.30741">
        <ele>716</ele>
        <time>2020-03-01T09:17:36.000Z</time>
      </trkpt>
      <trkpt lat="45.16273" lon="5.30739">
        <ele>716.20001220703</ele>
        <time>2020-03-01T09:17:37.000Z</time>
      </trkpt>
      <trkpt lat="45.16274" lon="5.30737">
        <ele>716.59997558594</ele>
        <time>2020-03-01T09:17:38.000Z</time>
      </trkpt>
      <trkpt lat="45.16274" lon="5.30736">
        <ele>716.59997558594</ele>
        <time>2020-03-01T09:17:39.000Z</time>
      </trkpt>
      <trkpt lat="45.16274" lon="5.30734">
        <ele>716.79998779297</ele>
        <time>2020-03-01T09:17:40.000Z</time>
      </trkpt>
      <trkpt lat="45.16275" lon="5.30732">
        <ele>716.79998779297</ele>
        <time>2020-03-01T09:17:41.000Z</time>
      </trkpt>
      <trkpt lat="45.16275" lon="5.30731">
        <ele>717</ele>
        <time>2020-03-01T09:17:42.000Z</time>
      </trkpt>
      <trkpt lat="45.16275" lon="5.30729">
        <ele>717.40002441406</ele>
        <time>2020-03-01T09:17:43.000Z</time>
      </trkpt>
      <trkpt lat="45.16275" lon="5.30727">
        <ele>717.59997558594</ele>
        <time>2020-03-01T09:17:44.000Z</time>
      </trkpt>
      <trkpt lat="45.16276" lon="5.30725">
        <ele>717.79998779297</ele>
        <time>2020-03-01T09:17:45.000Z</time>
      </trkpt>
      <trkpt lat="45.16276" lon="5.30722">
        <ele>718</ele>
        <time>2020-03-01T09:17:46.000Z</time>
      </trkpt>
      <trkpt lat="45.16276" lon="5.3072">
        <ele>718</ele>
        <time>2020-03-01T09:17:47.000Z</time>
      </trkpt>
      <trkpt lat="45.16275" lon="5.30716">
        <ele>718.20001220703</ele>
        <time>2020-03-01T09:17:48.000Z</time>
      </trkpt>
      <trkpt lat="45.16275" lon="5.30714">
        <ele>718.20001220703</ele>
        <time>2020-03-01T09:17:49.000Z</time>
      </trkpt>
      <trkpt lat="45.16275" lon="5.30711">
        <ele>718.20001220703</ele>
        <time>2020-03-01T09:17:50.000Z</time>
      </trkpt>
      <trkpt lat="45.16275" lon="5.30708">
        <ele>718</ele>
        <time>2020-03-01T09:17:51.000Z</time>
      </trkpt>
      <trkpt lat="45.16276" lon="5.30704">
        <ele>718</ele>
        <time>2020-03-01T09:17:52.000Z</time>
      </trkpt>
      <trkpt lat="45.16276" lon="5.30701">
        <ele>717.79998779297</ele>
        <time>2020-03-01T09:17:53.000Z</time>
      </trkpt>
      <trkpt lat="45.16277" lon="5.30697">
        <ele>717.79998779297</ele>
        <time>2020-03-01T09:17:54.000Z</time>
      </trkpt>
      <trkpt lat="45.16278" lon="5.30693">
        <ele>717.79998779297</ele>
        <time>2020-03-01T09:17:55.000Z</time>
      </trkpt>
      <trkpt lat="45.16279" lon="5.30689">
        <ele>717.79998779297</ele>
        <time>2020-03-01T09:17:56.000Z</time>
      </trkpt>
      <trkpt lat="45.1628" lon="5.30685">
        <ele>717.79998779297</ele>
        <time>2020-03-01T09:17:57.000Z</time>
      </trkpt>
      <trkpt lat="45.16281" lon="5.30682">
        <ele>717.79998779297</ele>
        <time>2020-03-01T09:17:58.000Z</time>
      </trkpt>
      <trkpt lat="45.16282" lon="5.30678">
        <ele>717.79998779297</ele>
        <time>2020-03-01T09:17:59.000Z</time>
      </trkpt>
      <trkpt lat="45.16284" lon="5.30675">
        <ele>717.79998779297</ele>
        <time>2020-03-01T09:18:00.000Z</time>
      </trkpt>
      <trkpt lat="45.16285" lon="5.30673">
        <ele>717.79998779297</ele>
        <time>2020-03-01T09:18:01.000Z</time>
      </trkpt>
      <trkpt lat="45.16285" lon="5.3067">
        <ele>717.79998779297</ele>
        <time>2020-03-01T09:18:02.000Z</time>
      </trkpt>
      <trkpt lat="45.16286" lon="5.30668">
        <ele>717.59997558594</ele>
        <time>2020-03-01T09:18:03.000Z</time>
      </trkpt>
      <trkpt lat="45.16287" lon="5.30665">
        <ele>717.40002441406</ele>
        <time>2020-03-01T09:18:04.000Z</time>
      </trkpt>
      <trkpt lat="45.16288" lon="5.30662">
        <ele>717</ele>
        <time>2020-03-01T09:18:05.000Z</time>
      </trkpt>
      <trkpt lat="45.1629" lon="5.30659">
        <ele>716.79998779297</ele>
        <time>2020-03-01T09:18:06.000Z</time>
      </trkpt>
      <trkpt lat="45.16291" lon="5.30656">
        <ele>716.40002441406</ele>
        <time>2020-03-01T09:18:07.000Z</time>
      </trkpt>
      <trkpt lat="45.16292" lon="5.30652">
        <ele>716.20001220703</ele>
        <time>2020-03-01T09:18:08.000Z</time>
      </trkpt>
      <trkpt lat="45.16293" lon="5.30649">
        <ele>716</ele>
        <time>2020-03-01T09:18:09.000Z</time>
      </trkpt>
      <trkpt lat="45.16295" lon="5.30646">
        <ele>716</ele>
        <time>2020-03-01T09:18:10.000Z</time>
      </trkpt>
      <trkpt lat="45.16296" lon="5.30642">
        <ele>715.59997558594</ele>
        <time>2020-03-01T09:18:11.000Z</time>
      </trkpt>
      <trkpt lat="45.16298" lon="5.30639">
        <ele>715.40002441406</ele>
        <time>2020-03-01T09:18:12.000Z</time>
      </trkpt>
      <trkpt lat="45.16299" lon="5.30635">
        <ele>715.20001220703</ele>
        <time>2020-03-01T09:18:13.000Z</time>
      </trkpt>
      <trkpt lat="45.16301" lon="5.30632">
        <ele>715</ele>
        <time>2020-03-01T09:18:14.000Z</time>
      </trkpt>
      <trkpt lat="45.16302" lon="5.30629">
        <ele>714.79998779297</ele>
        <time>2020-03-01T09:18:15.000Z</time>
      </trkpt>
      <trkpt lat="45.16304" lon="5.30626">
        <ele>714.40002441406</ele>
        <time>2020-03-01T09:18:16.000Z</time>
      </trkpt>
      <trkpt lat="45.16306" lon="5.30623">
        <ele>714</ele>
        <time>2020-03-01T09:18:17.000Z</time>
      </trkpt>
      <trkpt lat="45.16308" lon="5.30619">
        <ele>713.79998779297</ele>
        <time>2020-03-01T09:18:18.000Z</time>
      </trkpt>
      <trkpt lat="45.16309" lon="5.30616">
        <ele>713.40002441406</ele>
        <time>2020-03-01T09:18:19.000Z</time>
      </trkpt>
      <trkpt lat="45.16311" lon="5.30612">
        <ele>713.20001220703</ele>
        <time>2020-03-01T09:18:20.000Z</time>
      </trkpt>
      <trkpt lat="45.16312" lon="5.30609">
        <ele>712.79998779297</ele>
        <time>2020-03-01T09:18:21.000Z</time>
      </trkpt>
      <trkpt lat="45.16314" lon="5.30605">
        <ele>712.59997558594</ele>
        <time>2020-03-01T09:18:22.000Z</time>
      </trkpt>
      <trkpt lat="45.16315" lon="5.30602">
        <ele>712.59997558594</ele>
        <time>2020-03-01T09:18:23.000Z</time>
      </trkpt>
      <trkpt lat="45.16317" lon="5.30599">
        <ele>712.40002441406</ele>
        <time>2020-03-01T09:18:24.000Z</time>
      </trkpt>
      <trkpt lat="45.16318" lon="5.30595">
        <ele>712.40002441406</ele>
        <time>2020-03-01T09:18:25.000Z</time>
      </trkpt>
      <trkpt lat="45.16319" lon="5.30592">
        <ele>712.40002441406</ele>
        <time>2020-03-01T09:18:26.000Z</time>
      </trkpt>
      <trkpt lat="45.1632" lon="5.30589">
        <ele>712.40002441406</ele>
        <time>2020-03-01T09:18:27.000Z</time>
      </trkpt>
      <trkpt lat="45.16321" lon="5.30586">
        <ele>712</ele>
        <time>2020-03-01T09:18:28.000Z</time>
      </trkpt>
      <trkpt lat="45.16322" lon="5.30582">
        <ele>711.59997558594</ele>
        <time>2020-03-01T09:18:29.000Z</time>
      </trkpt>
      <trkpt lat="45.16323" lon="5.3058">
        <ele>711.40002441406</ele>
        <time>2020-03-01T09:18:30.000Z</time>
      </trkpt>
      <trkpt lat="45.16325" lon="5.30578">
        <ele>711</ele>
        <time>2020-03-01T09:18:31.000Z</time>
      </trkpt>
      <trkpt lat="45.16327" lon="5.30575">
        <ele>711</ele>
        <time>2020-03-01T09:18:32.000Z</time>
      </trkpt>
      <trkpt lat="45.16328" lon="5.30571">
        <ele>710.79998779297</ele>
        <time>2020-03-01T09:18:33.000Z</time>
      </trkpt>
      <trkpt lat="45.1633" lon="5.30568">
        <ele>710.40002441406</ele>
        <time>2020-03-01T09:18:34.000Z</time>
      </trkpt>
      <trkpt lat="45.16331" lon="5.30565">
        <ele>710</ele>
        <time>2020-03-01T09:18:35.000Z</time>
      </trkpt>
      <trkpt lat="45.16333" lon="5.30562">
        <ele>709.79998779297</ele>
        <time>2020-03-01T09:18:36.000Z</time>
      </trkpt>
      <trkpt lat="45.16334" lon="5.30559">
        <ele>709.59997558594</ele>
        <time>2020-03-01T09:18:37.000Z</time>
      </trkpt>
      <trkpt lat="45.16335" lon="5.30556">
        <ele>709.20001220703</ele>
        <time>2020-03-01T09:18:38.000Z</time>
      </trkpt>
      <trkpt lat="45.16336" lon="5.30552">
        <ele>709</ele>
        <time>2020-03-01T09:18:39.000Z</time>
      </trkpt>
      <trkpt lat="45.16337" lon="5.30549">
        <ele>708.59997558594</ele>
        <time>2020-03-01T09:18:40.000Z</time>
      </trkpt>
      <trkpt lat="45.16339" lon="5.30546">
        <ele>708.40002441406</ele>
        <time>2020-03-01T09:18:41.000Z</time>
      </trkpt>
      <trkpt lat="45.1634" lon="5.30542">
        <ele>708.20001220703</ele>
        <time>2020-03-01T09:18:42.000Z</time>
      </trkpt>
      <trkpt lat="45.16342" lon="5.30539">
        <ele>708</ele>
        <time>2020-03-01T09:18:43.000Z</time>
      </trkpt>
      <trkpt lat="45.16343" lon="5.30536">
        <ele>707.79998779297</ele>
        <time>2020-03-01T09:18:44.000Z</time>
      </trkpt>
      <trkpt lat="45.16344" lon="5.30532">
        <ele>707.79998779297</ele>
        <time>2020-03-01T09:18:45.000Z</time>
      </trkpt>
      <trkpt lat="45.16346" lon="5.30529">
        <ele>707.59997558594</ele>
        <time>2020-03-01T09:18:46.000Z</time>
      </trkpt>
      <trkpt lat="45.16347" lon="5.30526">
        <ele>707.40002441406</ele>
        <time>2020-03-01T09:18:47.000Z</time>
      </trkpt>
      <trkpt lat="45.16348" lon="5.30523">
        <ele>707.40002441406</ele>
        <time>2020-03-01T09:18:48.000Z</time>
      </trkpt>
      <trkpt lat="45.16349" lon="5.3052">
        <ele>707.20001220703</ele>
        <time>2020-03-01T09:18:49.000Z</time>
      </trkpt>
      <trkpt lat="45.16351" lon="5.30517">
        <ele>706.79998779297</ele>
        <time>2020-03-01T09:18:50.000Z</time>
      </trkpt>
      <trkpt lat="45.16352" lon="5.30513">
        <ele>706.59997558594</ele>
        <time>2020-03-01T09:18:51.000Z</time>
      </trkpt>
      <trkpt lat="45.16353" lon="5.30509">
        <ele>706.20001220703</ele>
        <time>2020-03-01T09:18:52.000Z</time>
      </trkpt>
      <trkpt lat="45.16354" lon="5.30505">
        <ele>706.20001220703</ele>
        <time>2020-03-01T09:18:53.000Z</time>
      </trkpt>
      <trkpt lat="45.16355" lon="5.30502">
        <ele>705.79998779297</ele>
        <time>2020-03-01T09:18:54.000Z</time>
      </trkpt>
      <trkpt lat="45.16356" lon="5.30498">
        <ele>705.40002441406</ele>
        <time>2020-03-01T09:18:55.000Z</time>
      </trkpt>
      <trkpt lat="45.16356" lon="5.30495">
        <ele>705</ele>
        <time>2020-03-01T09:18:56.000Z</time>
      </trkpt>
      <trkpt lat="45.16358" lon="5.30492">
        <ele>704.59997558594</ele>
        <time>2020-03-01T09:18:57.000Z</time>
      </trkpt>
      <trkpt lat="45.16358" lon="5.30488">
        <ele>704.40002441406</ele>
        <time>2020-03-01T09:18:58.000Z</time>
      </trkpt>
      <trkpt lat="45.16359" lon="5.30484">
        <ele>704.20001220703</ele>
        <time>2020-03-01T09:18:59.000Z</time>
      </trkpt>
      <trkpt lat="45.1636" lon="5.3048">
        <ele>704</ele>
        <time>2020-03-01T09:19:00.000Z</time>
      </trkpt>
      <trkpt lat="45.16361" lon="5.30476">
        <ele>703.79998779297</ele>
        <time>2020-03-01T09:19:01.000Z</time>
      </trkpt>
      <trkpt lat="45.16361" lon="5.30472">
        <ele>703.40002441406</ele>
        <time>2020-03-01T09:19:02.000Z</time>
      </trkpt>
      <trkpt lat="45.16362" lon="5.30468">
        <ele>703</ele>
        <time>2020-03-01T09:19:03.000Z</time>
      </trkpt>
      <trkpt lat="45.16363" lon="5.30464">
        <ele>702.79998779297</ele>
        <time>2020-03-01T09:19:04.000Z</time>
      </trkpt>
      <trkpt lat="45.16363" lon="5.30461">
        <ele>702.59997558594</ele>
        <time>2020-03-01T09:19:05.000Z</time>
      </trkpt>
      <trkpt lat="45.16364" lon="5.30457">
        <ele>702.40002441406</ele>
        <time>2020-03-01T09:19:06.000Z</time>
      </trkpt>
      <trkpt lat="45.16365" lon="5.30454">
        <ele>702</ele>
        <time>2020-03-01T09:19:07.000Z</time>
      </trkpt>
      <trkpt lat="45.16367" lon="5.3045">
        <ele>702</ele>
        <time>2020-03-01T09:19:08.000Z</time>
      </trkpt>
      <trkpt lat="45.16368" lon="5.30447">
        <ele>701.79998779297</ele>
        <time>2020-03-01T09:19:09.000Z</time>
      </trkpt>
      <trkpt lat="45.16369" lon="5.30443">
        <ele>701.59997558594</ele>
        <time>2020-03-01T09:19:10.000Z</time>
      </trkpt>
      <trkpt lat="45.1637" lon="5.3044">
        <ele>701.40002441406</ele>
        <time>2020-03-01T09:19:11.000Z</time>
      </trkpt>
      <trkpt lat="45.16372" lon="5.30435">
        <ele>701.20001220703</ele>
        <time>2020-03-01T09:19:12.000Z</time>
      </trkpt>
      <trkpt lat="45.16373" lon="5.30432">
        <ele>701</ele>
        <time>2020-03-01T09:19:13.000Z</time>
      </trkpt>
      <trkpt lat="45.16375" lon="5.30429">
        <ele>700.59997558594</ele>
        <time>2020-03-01T09:19:14.000Z</time>
      </trkpt>
      <trkpt lat="45.16376" lon="5.30427">
        <ele>700.20001220703</ele>
        <time>2020-03-01T09:19:15.000Z</time>
      </trkpt>
      <trkpt lat="45.16378" lon="5.30425">
        <ele>700</ele>
        <time>2020-03-01T09:19:16.000Z</time>
      </trkpt>
      <trkpt lat="45.16379" lon="5.30424">
        <ele>699.79998779297</ele>
        <time>2020-03-01T09:19:17.000Z</time>
      </trkpt>
      <trkpt lat="45.16381" lon="5.30422">
        <ele>699.59997558594</ele>
        <time>2020-03-01T09:19:18.000Z</time>
      </trkpt>
      <trkpt lat="45.16382" lon="5.3042">
        <ele>699.20001220703</ele>
        <time>2020-03-01T09:19:19.000Z</time>
      </trkpt>
      <trkpt lat="45.16383" lon="5.30417">
        <ele>699</ele>
        <time>2020-03-01T09:19:20.000Z</time>
      </trkpt>
      <trkpt lat="45.16384" lon="5.30416">
        <ele>698.79998779297</ele>
        <time>2020-03-01T09:19:21.000Z</time>
      </trkpt>
      <trkpt lat="45.16385" lon="5.30412">
        <ele>698.40002441406</ele>
        <time>2020-03-01T09:19:22.000Z</time>
      </trkpt>
      <trkpt lat="45.16386" lon="5.30409">
        <ele>698</ele>
        <time>2020-03-01T09:19:23.000Z</time>
      </trkpt>
      <trkpt lat="45.16388" lon="5.30405">
        <ele>697.59997558594</ele>
        <time>2020-03-01T09:19:24.000Z</time>
      </trkpt>
      <trkpt lat="45.16389" lon="5.304">
        <ele>697.40002441406</ele>
        <time>2020-03-01T09:19:25.000Z</time>
      </trkpt>
      <trkpt lat="45.16391" lon="5.30398">
        <ele>697</ele>
        <time>2020-03-01T09:19:26.000Z</time>
      </trkpt>
      <trkpt lat="45.16392" lon="5.30392">
        <ele>696.79998779297</ele>
        <time>2020-03-01T09:19:27.000Z</time>
      </trkpt>
      <trkpt lat="45.16393" lon="5.3039">
        <ele>696.40002441406</ele>
        <time>2020-03-01T09:19:28.000Z</time>
      </trkpt>
      <trkpt lat="45.16395" lon="5.30387">
        <ele>696</ele>
        <time>2020-03-01T09:19:29.000Z</time>
      </trkpt>
      <trkpt lat="45.16395" lon="5.30382">
        <ele>695.79998779297</ele>
        <time>2020-03-01T09:19:30.000Z</time>
      </trkpt>
      <trkpt lat="45.16395" lon="5.30378">
        <ele>695.79998779297</ele>
        <time>2020-03-01T09:19:31.000Z</time>
      </trkpt>
      <trkpt lat="45.16395" lon="5.30374">
        <ele>695.59997558594</ele>
        <time>2020-03-01T09:19:32.000Z</time>
      </trkpt>
      <trkpt lat="45.16395" lon="5.3037">
        <ele>695.40002441406</ele>
        <time>2020-03-01T09:19:33.000Z</time>
      </trkpt>
      <trkpt lat="45.16396" lon="5.30367">
        <ele>695.40002441406</ele>
        <time>2020-03-01T09:19:34.000Z</time>
      </trkpt>
      <trkpt lat="45.16396" lon="5.30363">
        <ele>695.40002441406</ele>
        <time>2020-03-01T09:19:35.000Z</time>
      </trkpt>
      <trkpt lat="45.16396" lon="5.3036">
        <ele>695.20001220703</ele>
        <time>2020-03-01T09:19:36.000Z</time>
      </trkpt>
      <trkpt lat="45.16396" lon="5.30358">
        <ele>694.79998779297</ele>
        <time>2020-03-01T09:19:37.000Z</time>
      </trkpt>
      <trkpt lat="45.16397" lon="5.30355">
        <ele>694.59997558594</ele>
        <time>2020-03-01T09:19:38.000Z</time>
      </trkpt>
      <trkpt lat="45.16397" lon="5.30352">
        <ele>694.40002441406</ele>
        <time>2020-03-01T09:19:39.000Z</time>
      </trkpt>
      <trkpt lat="45.16398" lon="5.30349">
        <ele>694.40002441406</ele>
        <time>2020-03-01T09:19:40.000Z</time>
      </trkpt>
      <trkpt lat="45.16398" lon="5.30347">
        <ele>694.20001220703</ele>
        <time>2020-03-01T09:19:41.000Z</time>
      </trkpt>
      <trkpt lat="45.16399" lon="5.30343">
        <ele>694.20001220703</ele>
        <time>2020-03-01T09:19:42.000Z</time>
      </trkpt>
      <trkpt lat="45.16399" lon="5.30339">
        <ele>694.20001220703</ele>
        <time>2020-03-01T09:19:43.000Z</time>
      </trkpt>
      <trkpt lat="45.164" lon="5.30335">
        <ele>694</ele>
        <time>2020-03-01T09:19:44.000Z</time>
      </trkpt>
      <trkpt lat="45.164" lon="5.30332">
        <ele>693.79998779297</ele>
        <time>2020-03-01T09:19:45.000Z</time>
      </trkpt>
      <trkpt lat="45.164" lon="5.30325">
        <ele>693.59997558594</ele>
        <time>2020-03-01T09:19:46.000Z</time>
      </trkpt>
      <trkpt lat="45.16399" lon="5.30319">
        <ele>693.40002441406</ele>
        <time>2020-03-01T09:19:47.000Z</time>
      </trkpt>
      <trkpt lat="45.164" lon="5.30316">
        <ele>693.40002441406</ele>
        <time>2020-03-01T09:19:48.000Z</time>
      </trkpt>
      <trkpt lat="45.16401" lon="5.30312">
        <ele>693.20001220703</ele>
        <time>2020-03-01T09:19:49.000Z</time>
      </trkpt>
      <trkpt lat="45.16402" lon="5.30308">
        <ele>693.20001220703</ele>
        <time>2020-03-01T09:19:50.000Z</time>
      </trkpt>
      <trkpt lat="45.16403" lon="5.30303">
        <ele>693.20001220703</ele>
        <time>2020-03-01T09:19:51.000Z</time>
      </trkpt>
      <trkpt lat="45.16404" lon="5.30299">
        <ele>693.20001220703</ele>
        <time>2020-03-01T09:19:52.000Z</time>
      </trkpt>
      <trkpt lat="45.16405" lon="5.30295">
        <ele>693.20001220703</ele>
        <time>2020-03-01T09:19:53.000Z</time>
      </trkpt>
      <trkpt lat="45.16405" lon="5.3029">
        <ele>693.40002441406</ele>
        <time>2020-03-01T09:19:54.000Z</time>
      </trkpt>
      <trkpt lat="45.16407" lon="5.30287">
        <ele>693.40002441406</ele>
        <time>2020-03-01T09:19:55.000Z</time>
      </trkpt>
      <trkpt lat="45.16408" lon="5.30283">
        <ele>693.40002441406</ele>
        <time>2020-03-01T09:19:56.000Z</time>
      </trkpt>
      <trkpt lat="45.16408" lon="5.30281">
        <ele>693.40002441406</ele>
        <time>2020-03-01T09:19:57.000Z</time>
      </trkpt>
      <trkpt lat="45.16407" lon="5.30275">
        <ele>693.40002441406</ele>
        <time>2020-03-01T09:19:58.000Z</time>
      </trkpt>
      <trkpt lat="45.16406" lon="5.30271">
        <ele>693.59997558594</ele>
        <time>2020-03-01T09:19:59.000Z</time>
      </trkpt>
      <trkpt lat="45.16405" lon="5.30268">
        <ele>693.40002441406</ele>
        <time>2020-03-01T09:20:00.000Z</time>
      </trkpt>
      <trkpt lat="45.16405" lon="5.30265">
        <ele>693.40002441406</ele>
        <time>2020-03-01T09:20:01.000Z</time>
      </trkpt>
      <trkpt lat="45.16405" lon="5.30263">
        <ele>693.40002441406</ele>
        <time>2020-03-01T09:20:02.000Z</time>
      </trkpt>
      <trkpt lat="45.16405" lon="5.30261">
        <ele>693.40002441406</ele>
        <time>2020-03-01T09:20:03.000Z</time>
      </trkpt>
      <trkpt lat="45.16405" lon="5.30259">
        <ele>693</ele>
        <time>2020-03-01T09:20:04.000Z</time>
      </trkpt>
      <trkpt lat="45.16406" lon="5.30257">
        <ele>693.20001220703</ele>
        <time>2020-03-01T09:20:05.000Z</time>
      </trkpt>
      <trkpt lat="45.16406" lon="5.30254">
        <ele>693.20001220703</ele>
        <time>2020-03-01T09:20:06.000Z</time>
      </trkpt>
      <trkpt lat="45.16406" lon="5.30251">
        <ele>693.20001220703</ele>
        <time>2020-03-01T09:20:07.000Z</time>
      </trkpt>
      <trkpt lat="45.16407" lon="5.30248">
        <ele>693.20001220703</ele>
        <time>2020-03-01T09:20:08.000Z</time>
      </trkpt>
      <trkpt lat="45.16408" lon="5.30246">
        <ele>693.20001220703</ele>
        <time>2020-03-01T09:20:09.000Z</time>
      </trkpt>
      <trkpt lat="45.16408" lon="5.30243">
        <ele>693.20001220703</ele>
        <time>2020-03-01T09:20:10.000Z</time>
      </trkpt>
      <trkpt lat="45.16409" lon="5.30241">
        <ele>693.20001220703</ele>
        <time>2020-03-01T09:20:11.000Z</time>
      </trkpt>
      <trkpt lat="45.16409" lon="5.30238">
        <ele>693</ele>
        <time>2020-03-01T09:20:12.000Z</time>
      </trkpt>
      <trkpt lat="45.1641" lon="5.30235">
        <ele>692.79998779297</ele>
        <time>2020-03-01T09:20:13.000Z</time>
      </trkpt>
      <trkpt lat="45.1641" lon="5.30232">
        <ele>693</ele>
        <time>2020-03-01T09:20:14.000Z</time>
      </trkpt>
      <trkpt lat="45.1641" lon="5.30229">
        <ele>693.20001220703</ele>
        <time>2020-03-01T09:20:15.000Z</time>
      </trkpt>
      <trkpt lat="45.1641" lon="5.30224">
        <ele>693.40002441406</ele>
        <time>2020-03-01T09:20:16.000Z</time>
      </trkpt>
      <trkpt lat="45.1641" lon="5.3022">
        <ele>693.40002441406</ele>
        <time>2020-03-01T09:20:17.000Z</time>
      </trkpt>
      <trkpt lat="45.1641" lon="5.30216">
        <ele>693.40002441406</ele>
        <time>2020-03-01T09:20:18.000Z</time>
      </trkpt>
      <trkpt lat="45.1641" lon="5.30213">
        <ele>693.59997558594</ele>
        <time>2020-03-01T09:20:19.000Z</time>
      </trkpt>
      <trkpt lat="45.1641" lon="5.3021">
        <ele>693.59997558594</ele>
        <time>2020-03-01T09:20:20.000Z</time>
      </trkpt>
      <trkpt lat="45.16409" lon="5.30208">
        <ele>693.40002441406</ele>
        <time>2020-03-01T09:20:21.000Z</time>
      </trkpt>
      <trkpt lat="45.16409" lon="5.30205">
        <ele>693.40002441406</ele>
        <time>2020-03-01T09:20:22.000Z</time>
      </trkpt>
      <trkpt lat="45.16409" lon="5.30203">
        <ele>693.40002441406</ele>
        <time>2020-03-01T09:20:23.000Z</time>
      </trkpt>
      <trkpt lat="45.16408" lon="5.302">
        <ele>693.20001220703</ele>
        <time>2020-03-01T09:20:24.000Z</time>
      </trkpt>
      <trkpt lat="45.16408" lon="5.30197">
        <ele>693.20001220703</ele>
        <time>2020-03-01T09:20:25.000Z</time>
      </trkpt>
      <trkpt lat="45.16407" lon="5.30193">
        <ele>693</ele>
        <time>2020-03-01T09:20:26.000Z</time>
      </trkpt>
      <trkpt lat="45.16407" lon="5.30189">
        <ele>693</ele>
        <time>2020-03-01T09:20:27.000Z</time>
      </trkpt>
      <trkpt lat="45.16406" lon="5.30185">
        <ele>693</ele>
        <time>2020-03-01T09:20:28.000Z</time>
      </trkpt>
      <trkpt lat="45.16406" lon="5.30181">
        <ele>692.79998779297</ele>
        <time>2020-03-01T09:20:29.000Z</time>
      </trkpt>
      <trkpt lat="45.16405" lon="5.30178">
        <ele>692.59997558594</ele>
        <time>2020-03-01T09:20:30.000Z</time>
      </trkpt>
      <trkpt lat="45.16405" lon="5.30173">
        <ele>692.40002441406</ele>
        <time>2020-03-01T09:20:31.000Z</time>
      </trkpt>
      <trkpt lat="45.16404" lon="5.30169">
        <ele>692.40002441406</ele>
        <time>2020-03-01T09:20:32.000Z</time>
      </trkpt>
      <trkpt lat="45.16403" lon="5.30166">
        <ele>692.40002441406</ele>
        <time>2020-03-01T09:20:33.000Z</time>
      </trkpt>
      <trkpt lat="45.16403" lon="5.30161">
        <ele>692.20001220703</ele>
        <time>2020-03-01T09:20:34.000Z</time>
      </trkpt>
      <trkpt lat="45.16402" lon="5.30158">
        <ele>692.20001220703</ele>
        <time>2020-03-01T09:20:35.000Z</time>
      </trkpt>
      <trkpt lat="45.16402" lon="5.30154">
        <ele>692</ele>
        <time>2020-03-01T09:20:36.000Z</time>
      </trkpt>
      <trkpt lat="45.16401" lon="5.30151">
        <ele>691.79998779297</ele>
        <time>2020-03-01T09:20:37.000Z</time>
      </trkpt>
      <trkpt lat="45.16401" lon="5.30147">
        <ele>691.79998779297</ele>
        <time>2020-03-01T09:20:38.000Z</time>
      </trkpt>
      <trkpt lat="45.16401" lon="5.30145">
        <ele>691.79998779297</ele>
        <time>2020-03-01T09:20:39.000Z</time>
      </trkpt>
      <trkpt lat="45.16401" lon="5.30143">
        <ele>691.79998779297</ele>
        <time>2020-03-01T09:20:40.000Z</time>
      </trkpt>
      <trkpt lat="45.16401" lon="5.30139">
        <ele>691.79998779297</ele>
        <time>2020-03-01T09:20:41.000Z</time>
      </trkpt>
      <trkpt lat="45.16401" lon="5.30134">
        <ele>692</ele>
        <time>2020-03-01T09:20:42.000Z</time>
      </trkpt>
      <trkpt lat="45.16401" lon="5.30131">
        <ele>692.20001220703</ele>
        <time>2020-03-01T09:20:43.000Z</time>
      </trkpt>
      <trkpt lat="45.164" lon="5.30127">
        <ele>692.40002441406</ele>
        <time>2020-03-01T09:20:44.000Z</time>
      </trkpt>
      <trkpt lat="45.164" lon="5.30123">
        <ele>692.40002441406</ele>
        <time>2020-03-01T09:20:45.000Z</time>
      </trkpt>
      <trkpt lat="45.16399" lon="5.30119">
        <ele>692.40002441406</ele>
        <time>2020-03-01T09:20:46.000Z</time>
      </trkpt>
      <trkpt lat="45.16399" lon="5.30115">
        <ele>692.40002441406</ele>
        <time>2020-03-01T09:20:47.000Z</time>
      </trkpt>
      <trkpt lat="45.16398" lon="5.30111">
        <ele>692.40002441406</ele>
        <time>2020-03-01T09:20:48.000Z</time>
      </trkpt>
      <trkpt lat="45.16396" lon="5.30104">
        <ele>692.40002441406</ele>
        <time>2020-03-01T09:20:49.000Z</time>
      </trkpt>
      <trkpt lat="45.16394" lon="5.30099">
        <ele>692.40002441406</ele>
        <time>2020-03-01T09:20:50.000Z</time>
      </trkpt>
      <trkpt lat="45.16393" lon="5.30095">
        <ele>692.40002441406</ele>
        <time>2020-03-01T09:20:51.000Z</time>
      </trkpt>
      <trkpt lat="45.16391" lon="5.3009">
        <ele>692.40002441406</ele>
        <time>2020-03-01T09:20:52.000Z</time>
      </trkpt>
      <trkpt lat="45.1639" lon="5.30086">
        <ele>692.40002441406</ele>
        <time>2020-03-01T09:20:53.000Z</time>
      </trkpt>
      <trkpt lat="45.16388" lon="5.30082">
        <ele>692.40002441406</ele>
        <time>2020-03-01T09:20:54.000Z</time>
      </trkpt>
      <trkpt lat="45.16387" lon="5.30078">
        <ele>692.40002441406</ele>
        <time>2020-03-01T09:20:55.000Z</time>
      </trkpt>
      <trkpt lat="45.16386" lon="5.30073">
        <ele>692.79998779297</ele>
        <time>2020-03-01T09:20:56.000Z</time>
      </trkpt>
      <trkpt lat="45.16385" lon="5.30068">
        <ele>692.79998779297</ele>
        <time>2020-03-01T09:20:57.000Z</time>
      </trkpt>
      <trkpt lat="45.16384" lon="5.30065">
        <ele>693</ele>
        <time>2020-03-01T09:20:58.000Z</time>
      </trkpt>
      <trkpt lat="45.16383" lon="5.30062">
        <ele>693.20001220703</ele>
        <time>2020-03-01T09:20:59.000Z</time>
      </trkpt>
      <trkpt lat="45.16382" lon="5.30059">
        <ele>693.40002441406</ele>
        <time>2020-03-01T09:21:00.000Z</time>
      </trkpt>
      <trkpt lat="45.16382" lon="5.30057">
        <ele>693.59997558594</ele>
        <time>2020-03-01T09:21:01.000Z</time>
      </trkpt>
      <trkpt lat="45.1638" lon="5.30055">
        <ele>693.59997558594</ele>
        <time>2020-03-01T09:21:02.000Z</time>
      </trkpt>
      <trkpt lat="45.16378" lon="5.30052">
        <ele>693.59997558594</ele>
        <time>2020-03-01T09:21:03.000Z</time>
      </trkpt>
      <trkpt lat="45.16377" lon="5.30049">
        <ele>693.79998779297</ele>
        <time>2020-03-01T09:21:04.000Z</time>
      </trkpt>
      <trkpt lat="45.16375" lon="5.30047">
        <ele>694</ele>
        <time>2020-03-01T09:21:05.000Z</time>
      </trkpt>
      <trkpt lat="45.16373" lon="5.30044">
        <ele>694.20001220703</ele>
        <time>2020-03-01T09:21:06.000Z</time>
      </trkpt>
      <trkpt lat="45.16372" lon="5.30039">
        <ele>694.40002441406</ele>
        <time>2020-03-01T09:21:07.000Z</time>
      </trkpt>
      <trkpt lat="45.16371" lon="5.30035">
        <ele>694.59997558594</ele>
        <time>2020-03-01T09:21:08.000Z</time>
      </trkpt>
      <trkpt lat="45.1637" lon="5.30032">
        <ele>695</ele>
        <time>2020-03-01T09:21:09.000Z</time>
      </trkpt>
      <trkpt lat="45.16369" lon="5.30025">
        <ele>695.20001220703</ele>
        <time>2020-03-01T09:21:10.000Z</time>
      </trkpt>
      <trkpt lat="45.16369" lon="5.30022">
        <ele>695.40002441406</ele>
        <time>2020-03-01T09:21:11.000Z</time>
      </trkpt>
      <trkpt lat="45.16368" lon="5.30018">
        <ele>695.40002441406</ele>
        <time>2020-03-01T09:21:12.000Z</time>
      </trkpt>
      <trkpt lat="45.16366" lon="5.30015">
        <ele>695.40002441406</ele>
        <time>2020-03-01T09:21:13.000Z</time>
      </trkpt>
      <trkpt lat="45.16365" lon="5.3001">
        <ele>695.40002441406</ele>
        <time>2020-03-01T09:21:14.000Z</time>
      </trkpt>
      <trkpt lat="45.16364" lon="5.30007">
        <ele>695.59997558594</ele>
        <time>2020-03-01T09:21:15.000Z</time>
      </trkpt>
      <trkpt lat="45.16363" lon="5.30003">
        <ele>695.59997558594</ele>
        <time>2020-03-01T09:21:16.000Z</time>
      </trkpt>
      <trkpt lat="45.16361" lon="5.3">
        <ele>695.59997558594</ele>
        <time>2020-03-01T09:21:17.000Z</time>
      </trkpt>
      <trkpt lat="45.1636" lon="5.29997">
        <ele>695.59997558594</ele>
        <time>2020-03-01T09:21:18.000Z</time>
      </trkpt>
      <trkpt lat="45.16359" lon="5.29993">
        <ele>695.59997558594</ele>
        <time>2020-03-01T09:21:19.000Z</time>
      </trkpt>
      <trkpt lat="45.16358" lon="5.29992">
        <ele>695.59997558594</ele>
        <time>2020-03-01T09:21:20.000Z</time>
      </trkpt>
      <trkpt lat="45.16358" lon="5.29989">
        <ele>695.79998779297</ele>
        <time>2020-03-01T09:21:21.000Z</time>
      </trkpt>
      <trkpt lat="45.16357" lon="5.29985">
        <ele>695.79998779297</ele>
        <time>2020-03-01T09:21:22.000Z</time>
      </trkpt>
      <trkpt lat="45.16356" lon="5.29983">
        <ele>695.79998779297</ele>
        <time>2020-03-01T09:21:23.000Z</time>
      </trkpt>
      <trkpt lat="45.16356" lon="5.2998">
        <ele>695.79998779297</ele>
        <time>2020-03-01T09:21:24.000Z</time>
      </trkpt>
      <trkpt lat="45.16355" lon="5.29977">
        <ele>695.79998779297</ele>
        <time>2020-03-01T09:21:25.000Z</time>
      </trkpt>
      <trkpt lat="45.16354" lon="5.29974">
        <ele>695.79998779297</ele>
        <time>2020-03-01T09:21:26.000Z</time>
      </trkpt>
      <trkpt lat="45.16354" lon="5.29972">
        <ele>695.79998779297</ele>
        <time>2020-03-01T09:21:27.000Z</time>
      </trkpt>
      <trkpt lat="45.16352" lon="5.2997">
        <ele>695.59997558594</ele>
        <time>2020-03-01T09:21:28.000Z</time>
      </trkpt>
      <trkpt lat="45.16351" lon="5.29969">
        <ele>695.59997558594</ele>
        <time>2020-03-01T09:21:29.000Z</time>
      </trkpt>
      <trkpt lat="45.1635" lon="5.29966">
        <ele>695.59997558594</ele>
        <time>2020-03-01T09:21:30.000Z</time>
      </trkpt>
      <trkpt lat="45.16349" lon="5.29963">
        <ele>695.40002441406</ele>
        <time>2020-03-01T09:21:31.000Z</time>
      </trkpt>
      <trkpt lat="45.16348" lon="5.2996">
        <ele>695.40002441406</ele>
        <time>2020-03-01T09:21:32.000Z</time>
      </trkpt>
      <trkpt lat="45.16347" lon="5.29956">
        <ele>695.40002441406</ele>
        <time>2020-03-01T09:21:33.000Z</time>
      </trkpt>
      <trkpt lat="45.16346" lon="5.29952">
        <ele>695.20001220703</ele>
        <time>2020-03-01T09:21:34.000Z</time>
      </trkpt>
      <trkpt lat="45.16346" lon="5.29949">
        <ele>695.20001220703</ele>
        <time>2020-03-01T09:21:35.000Z</time>
      </trkpt>
      <trkpt lat="45.16344" lon="5.29948">
        <ele>695.20001220703</ele>
        <time>2020-03-01T09:21:36.000Z</time>
      </trkpt>
      <trkpt lat="45.16342" lon="5.29945">
        <ele>695.40002441406</ele>
        <time>2020-03-01T09:21:37.000Z</time>
      </trkpt>
      <trkpt lat="45.16342" lon="5.29942">
        <ele>695.40002441406</ele>
        <time>2020-03-01T09:21:38.000Z</time>
      </trkpt>
      <trkpt lat="45.1634" lon="5.29939">
        <ele>695.40002441406</ele>
        <time>2020-03-01T09:21:39.000Z</time>
      </trkpt>
      <trkpt lat="45.16339" lon="5.29938">
        <ele>695.59997558594</ele>
        <time>2020-03-01T09:21:40.000Z</time>
      </trkpt>
      <trkpt lat="45.16338" lon="5.29935">
        <ele>695.79998779297</ele>
        <time>2020-03-01T09:21:41.000Z</time>
      </trkpt>
      <trkpt lat="45.16336" lon="5.29932">
        <ele>695.79998779297</ele>
        <time>2020-03-01T09:21:42.000Z</time>
      </trkpt>
      <trkpt lat="45.16334" lon="5.2993">
        <ele>695.59997558594</ele>
        <time>2020-03-01T09:21:43.000Z</time>
      </trkpt>
      <trkpt lat="45.16333" lon="5.29927">
        <ele>695.59997558594</ele>
        <time>2020-03-01T09:21:44.000Z</time>
      </trkpt>
      <trkpt lat="45.16331" lon="5.29924">
        <ele>695.59997558594</ele>
        <time>2020-03-01T09:21:45.000Z</time>
      </trkpt>
      <trkpt lat="45.1633" lon="5.29921">
        <ele>695.40002441406</ele>
        <time>2020-03-01T09:21:46.000Z</time>
      </trkpt>
      <trkpt lat="45.16328" lon="5.2992">
        <ele>695.20001220703</ele>
        <time>2020-03-01T09:21:47.000Z</time>
      </trkpt>
      <trkpt lat="45.16327" lon="5.29917">
        <ele>695.40002441406</ele>
        <time>2020-03-01T09:21:48.000Z</time>
      </trkpt>
      <trkpt lat="45.16325" lon="5.29914">
        <ele>695.20001220703</ele>
        <time>2020-03-01T09:21:49.000Z</time>
      </trkpt>
      <trkpt lat="45.16324" lon="5.29911">
        <ele>695.20001220703</ele>
        <time>2020-03-01T09:21:50.000Z</time>
      </trkpt>
      <trkpt lat="45.16323" lon="5.29909">
        <ele>695.20001220703</ele>
        <time>2020-03-01T09:21:51.000Z</time>
      </trkpt>
      <trkpt lat="45.16322" lon="5.29904">
        <ele>695.20001220703</ele>
        <time>2020-03-01T09:21:52.000Z</time>
      </trkpt>
      <trkpt lat="45.16322" lon="5.299">
        <ele>695.20001220703</ele>
        <time>2020-03-01T09:21:53.000Z</time>
      </trkpt>
      <trkpt lat="45.16321" lon="5.29897">
        <ele>695.40002441406</ele>
        <time>2020-03-01T09:21:54.000Z</time>
      </trkpt>
      <trkpt lat="45.1632" lon="5.29894">
        <ele>695.40002441406</ele>
        <time>2020-03-01T09:21:55.000Z</time>
      </trkpt>
      <trkpt lat="45.16319" lon="5.29891">
        <ele>695.20001220703</ele>
        <time>2020-03-01T09:21:56.000Z</time>
      </trkpt>
      <trkpt lat="45.16318" lon="5.29888">
        <ele>695</ele>
        <time>2020-03-01T09:21:57.000Z</time>
      </trkpt>
      <trkpt lat="45.16318" lon="5.29884">
        <ele>695</ele>
        <time>2020-03-01T09:21:58.000Z</time>
      </trkpt>
      <trkpt lat="45.16316" lon="5.29881">
        <ele>695</ele>
        <time>2020-03-01T09:21:59.000Z</time>
      </trkpt>
      <trkpt lat="45.16315" lon="5.29878">
        <ele>695</ele>
        <time>2020-03-01T09:22:00.000Z</time>
      </trkpt>
      <trkpt lat="45.16314" lon="5.29875">
        <ele>695</ele>
        <time>2020-03-01T09:22:01.000Z</time>
      </trkpt>
      <trkpt lat="45.16312" lon="5.29873">
        <ele>695</ele>
        <time>2020-03-01T09:22:02.000Z</time>
      </trkpt>
      <trkpt lat="45.1631" lon="5.29871">
        <ele>695</ele>
        <time>2020-03-01T09:22:03.000Z</time>
      </trkpt>
      <trkpt lat="45.16309" lon="5.29868">
        <ele>695.20001220703</ele>
        <time>2020-03-01T09:22:04.000Z</time>
      </trkpt>
      <trkpt lat="45.16307" lon="5.29865">
        <ele>695.20001220703</ele>
        <time>2020-03-01T09:22:05.000Z</time>
      </trkpt>
      <trkpt lat="45.16305" lon="5.29863">
        <ele>695.40002441406</ele>
        <time>2020-03-01T09:22:06.000Z</time>
      </trkpt>
      <trkpt lat="45.16304" lon="5.29862">
        <ele>695.59997558594</ele>
        <time>2020-03-01T09:22:07.000Z</time>
      </trkpt>
      <trkpt lat="45.16303" lon="5.29858">
        <ele>695.59997558594</ele>
        <time>2020-03-01T09:22:08.000Z</time>
      </trkpt>
      <trkpt lat="45.16301" lon="5.29853">
        <ele>695.40002441406</ele>
        <time>2020-03-01T09:22:09.000Z</time>
      </trkpt>
      <trkpt lat="45.163" lon="5.2985">
        <ele>695.20001220703</ele>
        <time>2020-03-01T09:22:10.000Z</time>
      </trkpt>
      <trkpt lat="45.16299" lon="5.29848">
        <ele>695.20001220703</ele>
        <time>2020-03-01T09:22:11.000Z</time>
      </trkpt>
      <trkpt lat="45.16298" lon="5.29845">
        <ele>695.20001220703</ele>
        <time>2020-03-01T09:22:12.000Z</time>
      </trkpt>
      <trkpt lat="45.16297" lon="5.29842">
        <ele>695.20001220703</ele>
        <time>2020-03-01T09:22:13.000Z</time>
      </trkpt>
      <trkpt lat="45.16296" lon="5.2984">
        <ele>695.20001220703</ele>
        <time>2020-03-01T09:22:14.000Z</time>
      </trkpt>
      <trkpt lat="45.16294" lon="5.29838">
        <ele>695.20001220703</ele>
        <time>2020-03-01T09:22:15.000Z</time>
      </trkpt>
      <trkpt lat="45.16292" lon="5.29836">
        <ele>695.20001220703</ele>
        <time>2020-03-01T09:22:16.000Z</time>
      </trkpt>
      <trkpt lat="45.1629" lon="5.29835">
        <ele>695</ele>
        <time>2020-03-01T09:22:17.000Z</time>
      </trkpt>
      <trkpt lat="45.16288" lon="5.29832">
        <ele>695</ele>
        <time>2020-03-01T09:22:18.000Z</time>
      </trkpt>
      <trkpt lat="45.16287" lon="5.2983">
        <ele>694.79998779297</ele>
        <time>2020-03-01T09:22:19.000Z</time>
      </trkpt>
      <trkpt lat="45.16286" lon="5.29828">
        <ele>694.79998779297</ele>
        <time>2020-03-01T09:22:20.000Z</time>
      </trkpt>
      <trkpt lat="45.16285" lon="5.29826">
        <ele>694.79998779297</ele>
        <time>2020-03-01T09:22:21.000Z</time>
      </trkpt>
      <trkpt lat="45.16283" lon="5.29824">
        <ele>694.59997558594</ele>
        <time>2020-03-01T09:22:22.000Z</time>
      </trkpt>
      <trkpt lat="45.16282" lon="5.29822">
        <ele>694.40002441406</ele>
        <time>2020-03-01T09:22:23.000Z</time>
      </trkpt>
      <trkpt lat="45.16281" lon="5.29821">
        <ele>694.40002441406</ele>
        <time>2020-03-01T09:22:24.000Z</time>
      </trkpt>
      <trkpt lat="45.16279" lon="5.29819">
        <ele>694.20001220703</ele>
        <time>2020-03-01T09:22:25.000Z</time>
      </trkpt>
      <trkpt lat="45.16278" lon="5.29817">
        <ele>694</ele>
        <time>2020-03-01T09:22:26.000Z</time>
      </trkpt>
      <trkpt lat="45.16277" lon="5.29816">
        <ele>693.79998779297</ele>
        <time>2020-03-01T09:22:27.000Z</time>
      </trkpt>
      <trkpt lat="45.16276" lon="5.29814">
        <ele>693.59997558594</ele>
        <time>2020-03-01T09:22:28.000Z</time>
      </trkpt>
      <trkpt lat="45.16274" lon="5.29811">
        <ele>693.59997558594</ele>
        <time>2020-03-01T09:22:29.000Z</time>
      </trkpt>
      <trkpt lat="45.16273" lon="5.29809">
        <ele>693.59997558594</ele>
        <time>2020-03-01T09:22:30.000Z</time>
      </trkpt>
      <trkpt lat="45.16271" lon="5.29806">
        <ele>693.40002441406</ele>
        <time>2020-03-01T09:22:31.000Z</time>
      </trkpt>
      <trkpt lat="45.1627" lon="5.29802">
        <ele>693.20001220703</ele>
        <time>2020-03-01T09:22:32.000Z</time>
      </trkpt>
      <trkpt lat="45.16269" lon="5.29799">
        <ele>692.79998779297</ele>
        <time>2020-03-01T09:22:33.000Z</time>
      </trkpt>
      <trkpt lat="45.16268" lon="5.29796">
        <ele>692.59997558594</ele>
        <time>2020-03-01T09:22:34.000Z</time>
      </trkpt>
      <trkpt lat="45.16267" lon="5.2979">
        <ele>692.20001220703</ele>
        <time>2020-03-01T09:22:35.000Z</time>
      </trkpt>
      <trkpt lat="45.16265" lon="5.29787">
        <ele>691.79998779297</ele>
        <time>2020-03-01T09:22:36.000Z</time>
      </trkpt>
      <trkpt lat="45.16264" lon="5.29785">
        <ele>691.59997558594</ele>
        <time>2020-03-01T09:22:37.000Z</time>
      </trkpt>
      <trkpt lat="45.16261" lon="5.29783">
        <ele>691.40002441406</ele>
        <time>2020-03-01T09:22:38.000Z</time>
      </trkpt>
      <trkpt lat="45.16258" lon="5.29783">
        <ele>691.20001220703</ele>
        <time>2020-03-01T09:22:39.000Z</time>
      </trkpt>
      <trkpt lat="45.16257" lon="5.29782">
        <ele>691</ele>
        <time>2020-03-01T09:22:40.000Z</time>
      </trkpt>
      <trkpt lat="45.16255" lon="5.29779">
        <ele>690.79998779297</ele>
        <time>2020-03-01T09:22:41.000Z</time>
      </trkpt>
      <trkpt lat="45.16254" lon="5.29778">
        <ele>690.59997558594</ele>
        <time>2020-03-01T09:22:42.000Z</time>
      </trkpt>
      <trkpt lat="45.16252" lon="5.29776">
        <ele>690.59997558594</ele>
        <time>2020-03-01T09:22:43.000Z</time>
      </trkpt>
      <trkpt lat="45.1625" lon="5.29774">
        <ele>690.20001220703</ele>
        <time>2020-03-01T09:22:44.000Z</time>
      </trkpt>
      <trkpt lat="45.16248" lon="5.29772">
        <ele>689.79998779297</ele>
        <time>2020-03-01T09:22:45.000Z</time>
      </trkpt>
      <trkpt lat="45.16247" lon="5.29771">
        <ele>689.20001220703</ele>
        <time>2020-03-01T09:22:46.000Z</time>
      </trkpt>
      <trkpt lat="45.16246" lon="5.29769">
        <ele>688.79998779297</ele>
        <time>2020-03-01T09:22:47.000Z</time>
      </trkpt>
      <trkpt lat="45.16244" lon="5.29767">
        <ele>688.40002441406</ele>
        <time>2020-03-01T09:22:48.000Z</time>
      </trkpt>
      <trkpt lat="45.16242" lon="5.29764">
        <ele>688</ele>
        <time>2020-03-01T09:22:49.000Z</time>
      </trkpt>
      <trkpt lat="45.16241" lon="5.29759">
        <ele>687.40002441406</ele>
        <time>2020-03-01T09:22:50.000Z</time>
      </trkpt>
      <trkpt lat="45.16239" lon="5.29756">
        <ele>686.79998779297</ele>
        <time>2020-03-01T09:22:51.000Z</time>
      </trkpt>
      <trkpt lat="45.16237" lon="5.29747">
        <ele>686.59997558594</ele>
        <time>2020-03-01T09:22:52.000Z</time>
      </trkpt>
      <trkpt lat="45.16236" lon="5.29744">
        <ele>686</ele>
        <time>2020-03-01T09:22:53.000Z</time>
      </trkpt>
      <trkpt lat="45.16233" lon="5.29741">
        <ele>685.79998779297</ele>
        <time>2020-03-01T09:22:54.000Z</time>
      </trkpt>
      <trkpt lat="45.16232" lon="5.29738">
        <ele>685.20001220703</ele>
        <time>2020-03-01T09:22:55.000Z</time>
      </trkpt>
      <trkpt lat="45.16229" lon="5.29732">
        <ele>684.59997558594</ele>
        <time>2020-03-01T09:22:56.000Z</time>
      </trkpt>
      <trkpt lat="45.16228" lon="5.29727">
        <ele>684</ele>
        <time>2020-03-01T09:22:57.000Z</time>
      </trkpt>
      <trkpt lat="45.16224" lon="5.29727">
        <ele>683.79998779297</ele>
        <time>2020-03-01T09:22:58.000Z</time>
      </trkpt>
      <trkpt lat="45.16222" lon="5.29725">
        <ele>683.59997558594</ele>
        <time>2020-03-01T09:22:59.000Z</time>
      </trkpt>
      <trkpt lat="45.1622" lon="5.29722">
        <ele>683.20001220703</ele>
        <time>2020-03-01T09:23:00.000Z</time>
      </trkpt>
      <trkpt lat="45.16218" lon="5.2972">
        <ele>683</ele>
        <time>2020-03-01T09:23:01.000Z</time>
      </trkpt>
      <trkpt lat="45.16216" lon="5.29719">
        <ele>682.79998779297</ele>
        <time>2020-03-01T09:23:02.000Z</time>
      </trkpt>
      <trkpt lat="45.16214" lon="5.29717">
        <ele>682.40002441406</ele>
        <time>2020-03-01T09:23:03.000Z</time>
      </trkpt>
      <trkpt lat="45.16211" lon="5.29712">
        <ele>682.20001220703</ele>
        <time>2020-03-01T09:23:04.000Z</time>
      </trkpt>
      <trkpt lat="45.16209" lon="5.2971">
        <ele>682.20001220703</ele>
        <time>2020-03-01T09:23:05.000Z</time>
      </trkpt>
      <trkpt lat="45.16208" lon="5.29708">
        <ele>682</ele>
        <time>2020-03-01T09:23:06.000Z</time>
      </trkpt>
      <trkpt lat="45.16205" lon="5.29704">
        <ele>681.79998779297</ele>
        <time>2020-03-01T09:23:07.000Z</time>
      </trkpt>
      <trkpt lat="45.16203" lon="5.29702">
        <ele>681.59997558594</ele>
        <time>2020-03-01T09:23:08.000Z</time>
      </trkpt>
      <trkpt lat="45.16201" lon="5.29699">
        <ele>681.59997558594</ele>
        <time>2020-03-01T09:23:09.000Z</time>
      </trkpt>
      <trkpt lat="45.16198" lon="5.29697">
        <ele>681.59997558594</ele>
        <time>2020-03-01T09:23:10.000Z</time>
      </trkpt>
      <trkpt lat="45.16196" lon="5.29695">
        <ele>681.59997558594</ele>
        <time>2020-03-01T09:23:11.000Z</time>
      </trkpt>
      <trkpt lat="45.16194" lon="5.29693">
        <ele>681.40002441406</ele>
        <time>2020-03-01T09:23:12.000Z</time>
      </trkpt>
      <trkpt lat="45.16192" lon="5.2969">
        <ele>681</ele>
        <time>2020-03-01T09:23:13.000Z</time>
      </trkpt>
      <trkpt lat="45.16188" lon="5.29685">
        <ele>680.79998779297</ele>
        <time>2020-03-01T09:23:14.000Z</time>
      </trkpt>
      <trkpt lat="45.16186" lon="5.29684">
        <ele>680.59997558594</ele>
        <time>2020-03-01T09:23:15.000Z</time>
      </trkpt>
      <trkpt lat="45.16184" lon="5.29682">
        <ele>680.20001220703</ele>
        <time>2020-03-01T09:23:16.000Z</time>
      </trkpt>
      <trkpt lat="45.16183" lon="5.2968">
        <ele>680</ele>
        <time>2020-03-01T09:23:17.000Z</time>
      </trkpt>
      <trkpt lat="45.16181" lon="5.29677">
        <ele>679.59997558594</ele>
        <time>2020-03-01T09:23:18.000Z</time>
      </trkpt>
      <trkpt lat="45.16179" lon="5.29677">
        <ele>679.40002441406</ele>
        <time>2020-03-01T09:23:19.000Z</time>
      </trkpt>
      <trkpt lat="45.16178" lon="5.29674">
        <ele>679</ele>
        <time>2020-03-01T09:23:20.000Z</time>
      </trkpt>
      <trkpt lat="45.16177" lon="5.29672">
        <ele>678.79998779297</ele>
        <time>2020-03-01T09:23:21.000Z</time>
      </trkpt>
      <trkpt lat="45.16177" lon="5.29669">
        <ele>678.20001220703</ele>
        <time>2020-03-01T09:23:22.000Z</time>
      </trkpt>
      <trkpt lat="45.16176" lon="5.29667">
        <ele>677.59997558594</ele>
        <time>2020-03-01T09:23:23.000Z</time>
      </trkpt>
      <trkpt lat="45.16175" lon="5.29664">
        <ele>677.40002441406</ele>
        <time>2020-03-01T09:23:24.000Z</time>
      </trkpt>
      <trkpt lat="45.16175" lon="5.29661">
        <ele>676.79998779297</ele>
        <time>2020-03-01T09:23:25.000Z</time>
      </trkpt>
      <trkpt lat="45.16175" lon="5.29658">
        <ele>676.40002441406</ele>
        <time>2020-03-01T09:23:26.000Z</time>
      </trkpt>
      <trkpt lat="45.16175" lon="5.29654">
        <ele>675.79998779297</ele>
        <time>2020-03-01T09:23:27.000Z</time>
      </trkpt>
      <trkpt lat="45.16175" lon="5.29651">
        <ele>675.20001220703</ele>
        <time>2020-03-01T09:23:28.000Z</time>
      </trkpt>
      <trkpt lat="45.16176" lon="5.29648">
        <ele>674.79998779297</ele>
        <time>2020-03-01T09:23:29.000Z</time>
      </trkpt>
      <trkpt lat="45.16177" lon="5.29644">
        <ele>674.20001220703</ele>
        <time>2020-03-01T09:23:30.000Z</time>
      </trkpt>
      <trkpt lat="45.16178" lon="5.29642">
        <ele>673.40002441406</ele>
        <time>2020-03-01T09:23:31.000Z</time>
      </trkpt>
      <trkpt lat="45.16179" lon="5.2964">
        <ele>672.79998779297</ele>
        <time>2020-03-01T09:23:32.000Z</time>
      </trkpt>
      <trkpt lat="45.1618" lon="5.29639">
        <ele>672.40002441406</ele>
        <time>2020-03-01T09:23:33.000Z</time>
      </trkpt>
      <trkpt lat="45.16183" lon="5.29637">
        <ele>672</ele>
        <time>2020-03-01T09:23:34.000Z</time>
      </trkpt>
      <trkpt lat="45.16184" lon="5.29634">
        <ele>671.59997558594</ele>
        <time>2020-03-01T09:23:35.000Z</time>
      </trkpt>
      <trkpt lat="45.16186" lon="5.2963">
        <ele>671.20001220703</ele>
        <time>2020-03-01T09:23:36.000Z</time>
      </trkpt>
      <trkpt lat="45.16187" lon="5.29627">
        <ele>670.59997558594</ele>
        <time>2020-03-01T09:23:37.000Z</time>
      </trkpt>
      <trkpt lat="45.16189" lon="5.29619">
        <ele>669.79998779297</ele>
        <time>2020-03-01T09:23:38.000Z</time>
      </trkpt>
      <trkpt lat="45.16189" lon="5.29614">
        <ele>669.20001220703</ele>
        <time>2020-03-01T09:23:39.000Z</time>
      </trkpt>
      <trkpt lat="45.1619" lon="5.29607">
        <ele>668.20001220703</ele>
        <time>2020-03-01T09:23:40.000Z</time>
      </trkpt>
      <trkpt lat="45.16191" lon="5.29603">
        <ele>667.59997558594</ele>
        <time>2020-03-01T09:23:41.000Z</time>
      </trkpt>
      <trkpt lat="45.16191" lon="5.29599">
        <ele>667</ele>
        <time>2020-03-01T09:23:42.000Z</time>
      </trkpt>
      <trkpt lat="45.16191" lon="5.29595">
        <ele>666.79998779297</ele>
        <time>2020-03-01T09:23:43.000Z</time>
      </trkpt>
      <trkpt lat="45.16191" lon="5.29591">
        <ele>666.40002441406</ele>
        <time>2020-03-01T09:23:44.000Z</time>
      </trkpt>
      <trkpt lat="45.16192" lon="5.29587">
        <ele>665.79998779297</ele>
        <time>2020-03-01T09:23:45.000Z</time>
      </trkpt>
      <trkpt lat="45.16192" lon="5.29582">
        <ele>665.40002441406</ele>
        <time>2020-03-01T09:23:46.000Z</time>
      </trkpt>
      <trkpt lat="45.16191" lon="5.29577">
        <ele>664.79998779297</ele>
        <time>2020-03-01T09:23:47.000Z</time>
      </trkpt>
      <trkpt lat="45.1619" lon="5.29572">
        <ele>664.40002441406</ele>
        <time>2020-03-01T09:23:48.000Z</time>
      </trkpt>
      <trkpt lat="45.16188" lon="5.29568">
        <ele>664</ele>
        <time>2020-03-01T09:23:49.000Z</time>
      </trkpt>
      <trkpt lat="45.16187" lon="5.29564">
        <ele>663.59997558594</ele>
        <time>2020-03-01T09:23:50.000Z</time>
      </trkpt>
      <trkpt lat="45.16185" lon="5.29558">
        <ele>663.20001220703</ele>
        <time>2020-03-01T09:23:51.000Z</time>
      </trkpt>
      <trkpt lat="45.16183" lon="5.29554">
        <ele>663</ele>
        <time>2020-03-01T09:23:52.000Z</time>
      </trkpt>
      <trkpt lat="45.16182" lon="5.2955">
        <ele>662.79998779297</ele>
        <time>2020-03-01T09:23:53.000Z</time>
      </trkpt>
      <trkpt lat="45.1618" lon="5.29545">
        <ele>662.79998779297</ele>
        <time>2020-03-01T09:23:54.000Z</time>
      </trkpt>
      <trkpt lat="45.16179" lon="5.29538">
        <ele>662.79998779297</ele>
        <time>2020-03-01T09:23:55.000Z</time>
      </trkpt>
      <trkpt lat="45.16177" lon="5.29535">
        <ele>662.59997558594</ele>
        <time>2020-03-01T09:23:56.000Z</time>
      </trkpt>
      <trkpt lat="45.16175" lon="5.29531">
        <ele>662.20001220703</ele>
        <time>2020-03-01T09:23:57.000Z</time>
      </trkpt>
      <trkpt lat="45.16174" lon="5.29527">
        <ele>661.79998779297</ele>
        <time>2020-03-01T09:23:58.000Z</time>
      </trkpt>
      <trkpt lat="45.16172" lon="5.29523">
        <ele>661.20001220703</ele>
        <time>2020-03-01T09:23:59.000Z</time>
      </trkpt>
      <trkpt lat="45.16171" lon="5.29519">
        <ele>660.79998779297</ele>
        <time>2020-03-01T09:24:00.000Z</time>
      </trkpt>
      <trkpt lat="45.16169" lon="5.29514">
        <ele>660.59997558594</ele>
        <time>2020-03-01T09:24:01.000Z</time>
      </trkpt>
      <trkpt lat="45.16166" lon="5.29513">
        <ele>660.40002441406</ele>
        <time>2020-03-01T09:24:02.000Z</time>
      </trkpt>
      <trkpt lat="45.16165" lon="5.29511">
        <ele>660</ele>
        <time>2020-03-01T09:24:03.000Z</time>
      </trkpt>
      <trkpt lat="45.16163" lon="5.29507">
        <ele>659.59997558594</ele>
        <time>2020-03-01T09:24:04.000Z</time>
      </trkpt>
      <trkpt lat="45.16161" lon="5.29505">
        <ele>659.20001220703</ele>
        <time>2020-03-01T09:24:05.000Z</time>
      </trkpt>
      <trkpt lat="45.1616" lon="5.29503">
        <ele>658.79998779297</ele>
        <time>2020-03-01T09:24:06.000Z</time>
      </trkpt>
      <trkpt lat="45.16159" lon="5.29499">
        <ele>658.40002441406</ele>
        <time>2020-03-01T09:24:07.000Z</time>
      </trkpt>
      <trkpt lat="45.16159" lon="5.29495">
        <ele>658.20001220703</ele>
        <time>2020-03-01T09:24:08.000Z</time>
      </trkpt>
      <trkpt lat="45.16158" lon="5.29491">
        <ele>657.79998779297</ele>
        <time>2020-03-01T09:24:09.000Z</time>
      </trkpt>
      <trkpt lat="45.16156" lon="5.29487">
        <ele>657.59997558594</ele>
        <time>2020-03-01T09:24:10.000Z</time>
      </trkpt>
      <trkpt lat="45.16155" lon="5.29483">
        <ele>657.20001220703</ele>
        <time>2020-03-01T09:24:11.000Z</time>
      </trkpt>
      <trkpt lat="45.16154" lon="5.29478">
        <ele>656.59997558594</ele>
        <time>2020-03-01T09:24:12.000Z</time>
      </trkpt>
      <trkpt lat="45.16152" lon="5.29475">
        <ele>656.20001220703</ele>
        <time>2020-03-01T09:24:13.000Z</time>
      </trkpt>
      <trkpt lat="45.16151" lon="5.29472">
        <ele>655.79998779297</ele>
        <time>2020-03-01T09:24:14.000Z</time>
      </trkpt>
      <trkpt lat="45.1615" lon="5.29469">
        <ele>655.40002441406</ele>
        <time>2020-03-01T09:24:15.000Z</time>
      </trkpt>
      <trkpt lat="45.16149" lon="5.29467">
        <ele>654.79998779297</ele>
        <time>2020-03-01T09:24:16.000Z</time>
      </trkpt>
      <trkpt lat="45.16148" lon="5.29464">
        <ele>654.40002441406</ele>
        <time>2020-03-01T09:24:17.000Z</time>
      </trkpt>
      <trkpt lat="45.16148" lon="5.2946">
        <ele>654</ele>
        <time>2020-03-01T09:24:18.000Z</time>
      </trkpt>
      <trkpt lat="45.16147" lon="5.29457">
        <ele>653.59997558594</ele>
        <time>2020-03-01T09:24:19.000Z</time>
      </trkpt>
      <trkpt lat="45.16146" lon="5.29451">
        <ele>653.20001220703</ele>
        <time>2020-03-01T09:24:20.000Z</time>
      </trkpt>
      <trkpt lat="45.16146" lon="5.29448">
        <ele>652.79998779297</ele>
        <time>2020-03-01T09:24:21.000Z</time>
      </trkpt>
      <trkpt lat="45.16146" lon="5.29444">
        <ele>652.40002441406</ele>
        <time>2020-03-01T09:24:22.000Z</time>
      </trkpt>
      <trkpt lat="45.16146" lon="5.29441">
        <ele>652.20001220703</ele>
        <time>2020-03-01T09:24:23.000Z</time>
      </trkpt>
      <trkpt lat="45.16146" lon="5.29438">
        <ele>651.79998779297</ele>
        <time>2020-03-01T09:24:24.000Z</time>
      </trkpt>
      <trkpt lat="45.16147" lon="5.29435">
        <ele>651.20001220703</ele>
        <time>2020-03-01T09:24:25.000Z</time>
      </trkpt>
      <trkpt lat="45.16147" lon="5.29431">
        <ele>650.59997558594</ele>
        <time>2020-03-01T09:24:26.000Z</time>
      </trkpt>
      <trkpt lat="45.16148" lon="5.29429">
        <ele>650</ele>
        <time>2020-03-01T09:24:27.000Z</time>
      </trkpt>
      <trkpt lat="45.16149" lon="5.29426">
        <ele>649.79998779297</ele>
        <time>2020-03-01T09:24:28.000Z</time>
      </trkpt>
      <trkpt lat="45.1615" lon="5.29424">
        <ele>649.40002441406</ele>
        <time>2020-03-01T09:24:29.000Z</time>
      </trkpt>
      <trkpt lat="45.16151" lon="5.29421">
        <ele>649.20001220703</ele>
        <time>2020-03-01T09:24:30.000Z</time>
      </trkpt>
      <trkpt lat="45.16152" lon="5.29419">
        <ele>648.79998779297</ele>
        <time>2020-03-01T09:24:31.000Z</time>
      </trkpt>
      <trkpt lat="45.16153" lon="5.29417">
        <ele>648.40002441406</ele>
        <time>2020-03-01T09:24:32.000Z</time>
      </trkpt>
      <trkpt lat="45.16153" lon="5.29415">
        <ele>648</ele>
        <time>2020-03-01T09:24:33.000Z</time>
      </trkpt>
      <trkpt lat="45.16154" lon="5.29412">
        <ele>647.59997558594</ele>
        <time>2020-03-01T09:24:34.000Z</time>
      </trkpt>
      <trkpt lat="45.16156" lon="5.2941">
        <ele>647</ele>
        <time>2020-03-01T09:24:35.000Z</time>
      </trkpt>
      <trkpt lat="45.16157" lon="5.29407">
        <ele>646.59997558594</ele>
        <time>2020-03-01T09:24:36.000Z</time>
      </trkpt>
      <trkpt lat="45.16159" lon="5.29404">
        <ele>646</ele>
        <time>2020-03-01T09:24:37.000Z</time>
      </trkpt>
      <trkpt lat="45.16161" lon="5.29402">
        <ele>645.40002441406</ele>
        <time>2020-03-01T09:24:38.000Z</time>
      </trkpt>
      <trkpt lat="45.16163" lon="5.29399">
        <ele>645</ele>
        <time>2020-03-01T09:24:39.000Z</time>
      </trkpt>
      <trkpt lat="45.16164" lon="5.29396">
        <ele>644.59997558594</ele>
        <time>2020-03-01T09:24:40.000Z</time>
      </trkpt>
      <trkpt lat="45.16165" lon="5.29393">
        <ele>644</ele>
        <time>2020-03-01T09:24:41.000Z</time>
      </trkpt>
      <trkpt lat="45.16166" lon="5.29389">
        <ele>643.40002441406</ele>
        <time>2020-03-01T09:24:42.000Z</time>
      </trkpt>
      <trkpt lat="45.16166" lon="5.29386">
        <ele>643</ele>
        <time>2020-03-01T09:24:43.000Z</time>
      </trkpt>
      <trkpt lat="45.16166" lon="5.29381">
        <ele>642.59997558594</ele>
        <time>2020-03-01T09:24:44.000Z</time>
      </trkpt>
      <trkpt lat="45.16166" lon="5.29377">
        <ele>642.40002441406</ele>
        <time>2020-03-01T09:24:45.000Z</time>
      </trkpt>
      <trkpt lat="45.16166" lon="5.29374">
        <ele>642</ele>
        <time>2020-03-01T09:24:46.000Z</time>
      </trkpt>
      <trkpt lat="45.16165" lon="5.2937">
        <ele>641.59997558594</ele>
        <time>2020-03-01T09:24:47.000Z</time>
      </trkpt>
      <trkpt lat="45.16164" lon="5.29365">
        <ele>641</ele>
        <time>2020-03-01T09:24:48.000Z</time>
      </trkpt>
      <trkpt lat="45.16163" lon="5.29361">
        <ele>640.40002441406</ele>
        <time>2020-03-01T09:24:49.000Z</time>
      </trkpt>
      <trkpt lat="45.16161" lon="5.29358">
        <ele>639.79998779297</ele>
        <time>2020-03-01T09:24:50.000Z</time>
      </trkpt>
      <trkpt lat="45.16159" lon="5.29354">
        <ele>639.40002441406</ele>
        <time>2020-03-01T09:24:51.000Z</time>
      </trkpt>
      <trkpt lat="45.16157" lon="5.2935">
        <ele>639</ele>
        <time>2020-03-01T09:24:52.000Z</time>
      </trkpt>
      <trkpt lat="45.16155" lon="5.29346">
        <ele>638.40002441406</ele>
        <time>2020-03-01T09:24:53.000Z</time>
      </trkpt>
      <trkpt lat="45.16153" lon="5.29343">
        <ele>638</ele>
        <time>2020-03-01T09:24:54.000Z</time>
      </trkpt>
      <trkpt lat="45.16151" lon="5.29339">
        <ele>637.59997558594</ele>
        <time>2020-03-01T09:24:55.000Z</time>
      </trkpt>
      <trkpt lat="45.16149" lon="5.29335">
        <ele>637</ele>
        <time>2020-03-01T09:24:56.000Z</time>
      </trkpt>
      <trkpt lat="45.16146" lon="5.29331">
        <ele>636.79998779297</ele>
        <time>2020-03-01T09:24:57.000Z</time>
      </trkpt>
      <trkpt lat="45.16144" lon="5.29328">
        <ele>636.40002441406</ele>
        <time>2020-03-01T09:24:58.000Z</time>
      </trkpt>
      <trkpt lat="45.16142" lon="5.29325">
        <ele>636</ele>
        <time>2020-03-01T09:24:59.000Z</time>
      </trkpt>
      <trkpt lat="45.1614" lon="5.29322">
        <ele>635.59997558594</ele>
        <time>2020-03-01T09:25:00.000Z</time>
      </trkpt>
      <trkpt lat="45.16138" lon="5.29319">
        <ele>635.20001220703</ele>
        <time>2020-03-01T09:25:01.000Z</time>
      </trkpt>
      <trkpt lat="45.16136" lon="5.29317">
        <ele>635</ele>
        <time>2020-03-01T09:25:02.000Z</time>
      </trkpt>
      <trkpt lat="45.16133" lon="5.29314">
        <ele>634.79998779297</ele>
        <time>2020-03-01T09:25:03.000Z</time>
      </trkpt>
      <trkpt lat="45.16131" lon="5.29311">
        <ele>634.40002441406</ele>
        <time>2020-03-01T09:25:04.000Z</time>
      </trkpt>
      <trkpt lat="45.16129" lon="5.29308">
        <ele>634.20001220703</ele>
        <time>2020-03-01T09:25:05.000Z</time>
      </trkpt>
      <trkpt lat="45.16127" lon="5.29306">
        <ele>634</ele>
        <time>2020-03-01T09:25:06.000Z</time>
      </trkpt>
      <trkpt lat="45.16125" lon="5.29303">
        <ele>633.59997558594</ele>
        <time>2020-03-01T09:25:07.000Z</time>
      </trkpt>
      <trkpt lat="45.16123" lon="5.29301">
        <ele>633</ele>
        <time>2020-03-01T09:25:08.000Z</time>
      </trkpt>
      <trkpt lat="45.16121" lon="5.29298">
        <ele>632.40002441406</ele>
        <time>2020-03-01T09:25:09.000Z</time>
      </trkpt>
      <trkpt lat="45.16118" lon="5.29294">
        <ele>632</ele>
        <time>2020-03-01T09:25:10.000Z</time>
      </trkpt>
      <trkpt lat="45.16116" lon="5.29292">
        <ele>631.79998779297</ele>
        <time>2020-03-01T09:25:11.000Z</time>
      </trkpt>
      <trkpt lat="45.16114" lon="5.2929">
        <ele>631.59997558594</ele>
        <time>2020-03-01T09:25:12.000Z</time>
      </trkpt>
      <trkpt lat="45.16112" lon="5.29287">
        <ele>631.40002441406</ele>
        <time>2020-03-01T09:25:13.000Z</time>
      </trkpt>
      <trkpt lat="45.1611" lon="5.29284">
        <ele>631</ele>
        <time>2020-03-01T09:25:14.000Z</time>
      </trkpt>
      <trkpt lat="45.16108" lon="5.29281">
        <ele>630.59997558594</ele>
        <time>2020-03-01T09:25:15.000Z</time>
      </trkpt>
      <trkpt lat="45.16106" lon="5.29278">
        <ele>630.40002441406</ele>
        <time>2020-03-01T09:25:16.000Z</time>
      </trkpt>
      <trkpt lat="45.16105" lon="5.29275">
        <ele>630.20001220703</ele>
        <time>2020-03-01T09:25:17.000Z</time>
      </trkpt>
      <trkpt lat="45.16103" lon="5.29273">
        <ele>630.20001220703</ele>
        <time>2020-03-01T09:25:18.000Z</time>
      </trkpt>
      <trkpt lat="45.16101" lon="5.29271">
        <ele>630.20001220703</ele>
        <time>2020-03-01T09:25:19.000Z</time>
      </trkpt>
      <trkpt lat="45.16098" lon="5.29268">
        <ele>630</ele>
        <time>2020-03-01T09:25:20.000Z</time>
      </trkpt>
      <trkpt lat="45.16097" lon="5.29265">
        <ele>629.59997558594</ele>
        <time>2020-03-01T09:25:21.000Z</time>
      </trkpt>
      <trkpt lat="45.16095" lon="5.29262">
        <ele>629.40002441406</ele>
        <time>2020-03-01T09:25:22.000Z</time>
      </trkpt>
      <trkpt lat="45.16093" lon="5.29259">
        <ele>629.20001220703</ele>
        <time>2020-03-01T09:25:23.000Z</time>
      </trkpt>
      <trkpt lat="45.1609" lon="5.29257">
        <ele>629</ele>
        <time>2020-03-01T09:25:24.000Z</time>
      </trkpt>
      <trkpt lat="45.16088" lon="5.29256">
        <ele>628.79998779297</ele>
        <time>2020-03-01T09:25:25.000Z</time>
      </trkpt>
      <trkpt lat="45.16086" lon="5.29254">
        <ele>628.79998779297</ele>
        <time>2020-03-01T09:25:26.000Z</time>
      </trkpt>
      <trkpt lat="45.16084" lon="5.29252">
        <ele>628.59997558594</ele>
        <time>2020-03-01T09:25:27.000Z</time>
      </trkpt>
      <trkpt lat="45.16082" lon="5.29251">
        <ele>628.59997558594</ele>
        <time>2020-03-01T09:25:28.000Z</time>
      </trkpt>
      <trkpt lat="45.1608" lon="5.29249">
        <ele>628.59997558594</ele>
        <time>2020-03-01T09:25:29.000Z</time>
      </trkpt>
      <trkpt lat="45.16078" lon="5.29248">
        <ele>628.40002441406</ele>
        <time>2020-03-01T09:25:30.000Z</time>
      </trkpt>
      <trkpt lat="45.16076" lon="5.29246">
        <ele>628.20001220703</ele>
        <time>2020-03-01T09:25:31.000Z</time>
      </trkpt>
      <trkpt lat="45.16074" lon="5.29244">
        <ele>628</ele>
        <time>2020-03-01T09:25:32.000Z</time>
      </trkpt>
      <trkpt lat="45.16072" lon="5.29244">
        <ele>627.79998779297</ele>
        <time>2020-03-01T09:25:33.000Z</time>
      </trkpt>
      <trkpt lat="45.1607" lon="5.29242">
        <ele>627.79998779297</ele>
        <time>2020-03-01T09:25:34.000Z</time>
      </trkpt>
      <trkpt lat="45.16068" lon="5.29241">
        <ele>627.59997558594</ele>
        <time>2020-03-01T09:25:35.000Z</time>
      </trkpt>
      <trkpt lat="45.16066" lon="5.29239">
        <ele>627.59997558594</ele>
        <time>2020-03-01T09:25:36.000Z</time>
      </trkpt>
      <trkpt lat="45.16064" lon="5.29237">
        <ele>627.40002441406</ele>
        <time>2020-03-01T09:25:37.000Z</time>
      </trkpt>
      <trkpt lat="45.16061" lon="5.29237">
        <ele>627.20001220703</ele>
        <time>2020-03-01T09:25:38.000Z</time>
      </trkpt>
      <trkpt lat="45.1606" lon="5.29235">
        <ele>627.20001220703</ele>
        <time>2020-03-01T09:25:39.000Z</time>
      </trkpt>
      <trkpt lat="45.16059" lon="5.29234">
        <ele>627.20001220703</ele>
        <time>2020-03-01T09:25:40.000Z</time>
      </trkpt>
      <trkpt lat="45.16058" lon="5.29233">
        <ele>627</ele>
        <time>2020-03-01T09:25:41.000Z</time>
      </trkpt>
      <trkpt lat="45.16056" lon="5.29235">
        <ele>627</ele>
        <time>2020-03-01T09:25:42.000Z</time>
      </trkpt>
      <trkpt lat="45.16056" lon="5.29236">
        <ele>626.79998779297</ele>
        <time>2020-03-01T09:25:43.000Z</time>
      </trkpt>
      <trkpt lat="45.16055" lon="5.29236">
        <ele>626.59997558594</ele>
        <time>2020-03-01T09:25:44.000Z</time>
      </trkpt>
      <trkpt lat="45.16056" lon="5.29235">
        <ele>626.59997558594</ele>
        <time>2020-03-01T09:25:45.000Z</time>
      </trkpt>
      <trkpt lat="45.16056" lon="5.29234">
        <ele>626.40002441406</ele>
        <time>2020-03-01T09:25:46.000Z</time>
      </trkpt>
      <trkpt lat="45.16057" lon="5.29234">
        <ele>626.20001220703</ele>
        <time>2020-03-01T09:25:47.000Z</time>
      </trkpt>
      <trkpt lat="45.16058" lon="5.29233">
        <ele>626</ele>
        <time>2020-03-01T09:25:48.000Z</time>
      </trkpt>
      <trkpt lat="45.16059" lon="5.29231">
        <ele>626</ele>
        <time>2020-03-01T09:25:49.000Z</time>
      </trkpt>
      <trkpt lat="45.16059" lon="5.2923">
        <ele>625.79998779297</ele>
        <time>2020-03-01T09:25:50.000Z</time>
      </trkpt>
      <trkpt lat="45.16059" lon="5.29228">
        <ele>625.59997558594</ele>
        <time>2020-03-01T09:25:51.000Z</time>
      </trkpt>
      <trkpt lat="45.1606" lon="5.29226">
        <ele>625.59997558594</ele>
        <time>2020-03-01T09:25:52.000Z</time>
      </trkpt>
      <trkpt lat="45.1606" lon="5.29225">
        <ele>625.59997558594</ele>
        <time>2020-03-01T09:25:53.000Z</time>
      </trkpt>
      <trkpt lat="45.16061" lon="5.29221">
        <ele>625.59997558594</ele>
        <time>2020-03-01T09:25:54.000Z</time>
      </trkpt>
      <trkpt lat="45.16062" lon="5.2922">
        <ele>625.59997558594</ele>
        <time>2020-03-01T09:25:55.000Z</time>
      </trkpt>
      <trkpt lat="45.16062" lon="5.29217">
        <ele>625.40002441406</ele>
        <time>2020-03-01T09:25:56.000Z</time>
      </trkpt>
      <trkpt lat="45.16063" lon="5.29215">
        <ele>625.40002441406</ele>
        <time>2020-03-01T09:25:57.000Z</time>
      </trkpt>
      <trkpt lat="45.16064" lon="5.29214">
        <ele>625.40002441406</ele>
        <time>2020-03-01T09:25:58.000Z</time>
      </trkpt>
      <trkpt lat="45.16064" lon="5.29212">
        <ele>625.40002441406</ele>
        <time>2020-03-01T09:25:59.000Z</time>
      </trkpt>
      <trkpt lat="45.16064" lon="5.29208">
        <ele>625.40002441406</ele>
        <time>2020-03-01T09:26:00.000Z</time>
      </trkpt>
      <trkpt lat="45.16064" lon="5.29206">
        <ele>625.40002441406</ele>
        <time>2020-03-01T09:26:01.000Z</time>
      </trkpt>
      <trkpt lat="45.16065" lon="5.29204">
        <ele>625.40002441406</ele>
        <time>2020-03-01T09:26:02.000Z</time>
      </trkpt>
      <trkpt lat="45.16066" lon="5.29202">
        <ele>625.40002441406</ele>
        <time>2020-03-01T09:26:03.000Z</time>
      </trkpt>
      <trkpt lat="45.16068" lon="5.292">
        <ele>625.20001220703</ele>
        <time>2020-03-01T09:26:04.000Z</time>
      </trkpt>
      <trkpt lat="45.16069" lon="5.29197">
        <ele>625.20001220703</ele>
        <time>2020-03-01T09:26:05.000Z</time>
      </trkpt>
      <trkpt lat="45.1607" lon="5.29194">
        <ele>625.20001220703</ele>
        <time>2020-03-01T09:26:06.000Z</time>
      </trkpt>
      <trkpt lat="45.16069" lon="5.2919">
        <ele>625</ele>
        <time>2020-03-01T09:26:07.000Z</time>
      </trkpt>
      <trkpt lat="45.16068" lon="5.29186">
        <ele>625</ele>
        <time>2020-03-01T09:26:08.000Z</time>
      </trkpt>
      <trkpt lat="45.16066" lon="5.29181">
        <ele>625</ele>
        <time>2020-03-01T09:26:09.000Z</time>
      </trkpt>
      <trkpt lat="45.16064" lon="5.29176">
        <ele>625</ele>
        <time>2020-03-01T09:26:10.000Z</time>
      </trkpt>
      <trkpt lat="45.16063" lon="5.29174">
        <ele>625</ele>
        <time>2020-03-01T09:26:11.000Z</time>
      </trkpt>
      <trkpt lat="45.16062" lon="5.29173">
        <ele>625</ele>
        <time>2020-03-01T09:26:12.000Z</time>
      </trkpt>
      <trkpt lat="45.1606" lon="5.29171">
        <ele>624.79998779297</ele>
        <time>2020-03-01T09:26:13.000Z</time>
      </trkpt>
      <trkpt lat="45.16059" lon="5.29169">
        <ele>624.79998779297</ele>
        <time>2020-03-01T09:26:14.000Z</time>
      </trkpt>
      <trkpt lat="45.16057" lon="5.29168">
        <ele>624.40002441406</ele>
        <time>2020-03-01T09:26:15.000Z</time>
      </trkpt>
      <trkpt lat="45.16054" lon="5.29165">
        <ele>624.40002441406</ele>
        <time>2020-03-01T09:26:16.000Z</time>
      </trkpt>
      <trkpt lat="45.16052" lon="5.29164">
        <ele>624.20001220703</ele>
        <time>2020-03-01T09:26:17.000Z</time>
      </trkpt>
      <trkpt lat="45.1605" lon="5.29164">
        <ele>624.20001220703</ele>
        <time>2020-03-01T09:26:18.000Z</time>
      </trkpt>
      <trkpt lat="45.16049" lon="5.29162">
        <ele>624</ele>
        <time>2020-03-01T09:26:19.000Z</time>
      </trkpt>
      <trkpt lat="45.16048" lon="5.2916">
        <ele>623.79998779297</ele>
        <time>2020-03-01T09:26:20.000Z</time>
      </trkpt>
      <trkpt lat="45.16047" lon="5.29159">
        <ele>623.59997558594</ele>
        <time>2020-03-01T09:26:21.000Z</time>
      </trkpt>
      <trkpt lat="45.16046" lon="5.29159">
        <ele>623.40002441406</ele>
        <time>2020-03-01T09:26:22.000Z</time>
      </trkpt>
      <trkpt lat="45.16045" lon="5.29158">
        <ele>623.59997558594</ele>
        <time>2020-03-01T09:26:23.000Z</time>
      </trkpt>
      <trkpt lat="45.16044" lon="5.29156">
        <ele>623.40002441406</ele>
        <time>2020-03-01T09:26:24.000Z</time>
      </trkpt>
      <trkpt lat="45.16044" lon="5.29154">
        <ele>623.40002441406</ele>
        <time>2020-03-01T09:26:25.000Z</time>
      </trkpt>
      <trkpt lat="45.16043" lon="5.29151">
        <ele>623.40002441406</ele>
        <time>2020-03-01T09:26:26.000Z</time>
      </trkpt>
      <trkpt lat="45.16042" lon="5.29148">
        <ele>623.40002441406</ele>
        <time>2020-03-01T09:26:27.000Z</time>
      </trkpt>
      <trkpt lat="45.16041" lon="5.29146">
        <ele>623.40002441406</ele>
        <time>2020-03-01T09:26:28.000Z</time>
      </trkpt>
      <trkpt lat="45.16041" lon="5.29145">
        <ele>623.40002441406</ele>
        <time>2020-03-01T09:26:29.000Z</time>
      </trkpt>
      <trkpt lat="45.1604" lon="5.29143">
        <ele>623.20001220703</ele>
        <time>2020-03-01T09:26:30.000Z</time>
      </trkpt>
      <trkpt lat="45.16039" lon="5.29139">
        <ele>623.20001220703</ele>
        <time>2020-03-01T09:26:31.000Z</time>
      </trkpt>
      <trkpt lat="45.16037" lon="5.29136">
        <ele>623</ele>
        <time>2020-03-01T09:26:32.000Z</time>
      </trkpt>
      <trkpt lat="45.16036" lon="5.29133">
        <ele>623.20001220703</ele>
        <time>2020-03-01T09:26:33.000Z</time>
      </trkpt>
      <trkpt lat="45.16035" lon="5.29131">
        <ele>623</ele>
        <time>2020-03-01T09:26:34.000Z</time>
      </trkpt>
      <trkpt lat="45.16033" lon="5.29128">
        <ele>623.20001220703</ele>
        <time>2020-03-01T09:26:35.000Z</time>
      </trkpt>
      <trkpt lat="45.16033" lon="5.29124">
        <ele>623.20001220703</ele>
        <time>2020-03-01T09:26:36.000Z</time>
      </trkpt>
      <trkpt lat="45.16032" lon="5.29121">
        <ele>623</ele>
        <time>2020-03-01T09:26:37.000Z</time>
      </trkpt>
      <trkpt lat="45.16031" lon="5.29119">
        <ele>623.20001220703</ele>
        <time>2020-03-01T09:26:38.000Z</time>
      </trkpt>
      <trkpt lat="45.16031" lon="5.29117">
        <ele>623.20001220703</ele>
        <time>2020-03-01T09:26:39.000Z</time>
      </trkpt>
      <trkpt lat="45.16031" lon="5.29112">
        <ele>622.79998779297</ele>
        <time>2020-03-01T09:26:40.000Z</time>
      </trkpt>
      <trkpt lat="45.16031" lon="5.29108">
        <ele>622.40002441406</ele>
        <time>2020-03-01T09:26:41.000Z</time>
      </trkpt>
      <trkpt lat="45.16031" lon="5.29107">
        <ele>622</ele>
        <time>2020-03-01T09:26:42.000Z</time>
      </trkpt>
      <trkpt lat="45.1603" lon="5.29104">
        <ele>621.79998779297</ele>
        <time>2020-03-01T09:26:43.000Z</time>
      </trkpt>
      <trkpt lat="45.16028" lon="5.29101">
        <ele>621.59997558594</ele>
        <time>2020-03-01T09:26:44.000Z</time>
      </trkpt>
      <trkpt lat="45.16027" lon="5.29098">
        <ele>621.40002441406</ele>
        <time>2020-03-01T09:26:45.000Z</time>
      </trkpt>
      <trkpt lat="45.16026" lon="5.29096">
        <ele>621</ele>
        <time>2020-03-01T09:26:46.000Z</time>
      </trkpt>
      <trkpt lat="45.16024" lon="5.29093">
        <ele>620.59997558594</ele>
        <time>2020-03-01T09:26:47.000Z</time>
      </trkpt>
      <trkpt lat="45.16022" lon="5.29093">
        <ele>620.40002441406</ele>
        <time>2020-03-01T09:26:48.000Z</time>
      </trkpt>
      <trkpt lat="45.1602" lon="5.29092">
        <ele>620.20001220703</ele>
        <time>2020-03-01T09:26:49.000Z</time>
      </trkpt>
      <trkpt lat="45.1602" lon="5.29091">
        <ele>619.59997558594</ele>
        <time>2020-03-01T09:26:50.000Z</time>
      </trkpt>
      <trkpt lat="45.1602" lon="5.29089">
        <ele>619.20001220703</ele>
        <time>2020-03-01T09:26:51.000Z</time>
      </trkpt>
      <trkpt lat="45.1602" lon="5.29087">
        <ele>618.79998779297</ele>
        <time>2020-03-01T09:26:52.000Z</time>
      </trkpt>
      <trkpt lat="45.1602" lon="5.29085">
        <ele>618.59997558594</ele>
        <time>2020-03-01T09:26:53.000Z</time>
      </trkpt>
      <trkpt lat="45.16021" lon="5.29083">
        <ele>618.20001220703</ele>
        <time>2020-03-01T09:26:54.000Z</time>
      </trkpt>
      <trkpt lat="45.16021" lon="5.29082">
        <ele>617.79998779297</ele>
        <time>2020-03-01T09:26:55.000Z</time>
      </trkpt>
      <trkpt lat="45.16021" lon="5.2908">
        <ele>617.59997558594</ele>
        <time>2020-03-01T09:26:56.000Z</time>
      </trkpt>
      <trkpt lat="45.16021" lon="5.29077">
        <ele>617.40002441406</ele>
        <time>2020-03-01T09:26:57.000Z</time>
      </trkpt>
      <trkpt lat="45.16021" lon="5.29075">
        <ele>617</ele>
        <time>2020-03-01T09:26:58.000Z</time>
      </trkpt>
      <trkpt lat="45.16021" lon="5.29073">
        <ele>616.40002441406</ele>
        <time>2020-03-01T09:26:59.000Z</time>
      </trkpt>
      <trkpt lat="45.1602" lon="5.29069">
        <ele>615.59997558594</ele>
        <time>2020-03-01T09:27:00.000Z</time>
      </trkpt>
      <trkpt lat="45.1602" lon="5.29066">
        <ele>615</ele>
        <time>2020-03-01T09:27:01.000Z</time>
      </trkpt>
      <trkpt lat="45.1602" lon="5.29061">
        <ele>614.59997558594</ele>
        <time>2020-03-01T09:27:02.000Z</time>
      </trkpt>
      <trkpt lat="45.1602" lon="5.29057">
        <ele>614</ele>
        <time>2020-03-01T09:27:03.000Z</time>
      </trkpt>
      <trkpt lat="45.16021" lon="5.29054">
        <ele>613.40002441406</ele>
        <time>2020-03-01T09:27:04.000Z</time>
      </trkpt>
      <trkpt lat="45.16021" lon="5.29049">
        <ele>613</ele>
        <time>2020-03-01T09:27:05.000Z</time>
      </trkpt>
      <trkpt lat="45.16021" lon="5.29047">
        <ele>612.40002441406</ele>
        <time>2020-03-01T09:27:06.000Z</time>
      </trkpt>
      <trkpt lat="45.16019" lon="5.29037">
        <ele>611.79998779297</ele>
        <time>2020-03-01T09:27:07.000Z</time>
      </trkpt>
      <trkpt lat="45.16019" lon="5.29033">
        <ele>611.40002441406</ele>
        <time>2020-03-01T09:27:08.000Z</time>
      </trkpt>
      <trkpt lat="45.16019" lon="5.29029">
        <ele>611</ele>
        <time>2020-03-01T09:27:09.000Z</time>
      </trkpt>
      <trkpt lat="45.16018" lon="5.29026">
        <ele>610.59997558594</ele>
        <time>2020-03-01T09:27:10.000Z</time>
      </trkpt>
      <trkpt lat="45.16018" lon="5.29024">
        <ele>610.20001220703</ele>
        <time>2020-03-01T09:27:11.000Z</time>
      </trkpt>
      <trkpt lat="45.16018" lon="5.2902">
        <ele>609.59997558594</ele>
        <time>2020-03-01T09:27:12.000Z</time>
      </trkpt>
      <trkpt lat="45.16017" lon="5.29016">
        <ele>609.20001220703</ele>
        <time>2020-03-01T09:27:13.000Z</time>
      </trkpt>
      <trkpt lat="45.16017" lon="5.29012">
        <ele>608.79998779297</ele>
        <time>2020-03-01T09:27:14.000Z</time>
      </trkpt>
      <trkpt lat="45.16018" lon="5.29009">
        <ele>608.40002441406</ele>
        <time>2020-03-01T09:27:15.000Z</time>
      </trkpt>
      <trkpt lat="45.16018" lon="5.29007">
        <ele>607.79998779297</ele>
        <time>2020-03-01T09:27:16.000Z</time>
      </trkpt>
      <trkpt lat="45.16019" lon="5.29004">
        <ele>607.40002441406</ele>
        <time>2020-03-01T09:27:17.000Z</time>
      </trkpt>
      <trkpt lat="45.16019" lon="5.29001">
        <ele>607</ele>
        <time>2020-03-01T09:27:18.000Z</time>
      </trkpt>
      <trkpt lat="45.16019" lon="5.28999">
        <ele>606.59997558594</ele>
        <time>2020-03-01T09:27:19.000Z</time>
      </trkpt>
      <trkpt lat="45.16018" lon="5.28996">
        <ele>606.20001220703</ele>
        <time>2020-03-01T09:27:20.000Z</time>
      </trkpt>
      <trkpt lat="45.16018" lon="5.28994">
        <ele>605.79998779297</ele>
        <time>2020-03-01T09:27:21.000Z</time>
      </trkpt>
      <trkpt lat="45.16017" lon="5.28989">
        <ele>605.59997558594</ele>
        <time>2020-03-01T09:27:22.000Z</time>
      </trkpt>
      <trkpt lat="45.16017" lon="5.28987">
        <ele>605.20001220703</ele>
        <time>2020-03-01T09:27:23.000Z</time>
      </trkpt>
      <trkpt lat="45.16016" lon="5.28984">
        <ele>604.59997558594</ele>
        <time>2020-03-01T09:27:24.000Z</time>
      </trkpt>
      <trkpt lat="45.16017" lon="5.28981">
        <ele>604.20001220703</ele>
        <time>2020-03-01T09:27:25.000Z</time>
      </trkpt>
      <trkpt lat="45.16018" lon="5.28978">
        <ele>603.59997558594</ele>
        <time>2020-03-01T09:27:26.000Z</time>
      </trkpt>
      <trkpt lat="45.16017" lon="5.28974">
        <ele>603</ele>
        <time>2020-03-01T09:27:27.000Z</time>
      </trkpt>
      <trkpt lat="45.16018" lon="5.28971">
        <ele>602.40002441406</ele>
        <time>2020-03-01T09:27:28.000Z</time>
      </trkpt>
      <trkpt lat="45.16018" lon="5.28967">
        <ele>602.20001220703</ele>
        <time>2020-03-01T09:27:29.000Z</time>
      </trkpt>
      <trkpt lat="45.16018" lon="5.28964">
        <ele>601.79998779297</ele>
        <time>2020-03-01T09:27:30.000Z</time>
      </trkpt>
      <trkpt lat="45.16017" lon="5.2896">
        <ele>601.40002441406</ele>
        <time>2020-03-01T09:27:31.000Z</time>
      </trkpt>
      <trkpt lat="45.16017" lon="5.28956">
        <ele>601</ele>
        <time>2020-03-01T09:27:32.000Z</time>
      </trkpt>
      <trkpt lat="45.16018" lon="5.28953">
        <ele>600.59997558594</ele>
        <time>2020-03-01T09:27:33.000Z</time>
      </trkpt>
      <trkpt lat="45.16018" lon="5.28949">
        <ele>600.20001220703</ele>
        <time>2020-03-01T09:27:34.000Z</time>
      </trkpt>
      <trkpt lat="45.16018" lon="5.28944">
        <ele>599.59997558594</ele>
        <time>2020-03-01T09:27:35.000Z</time>
      </trkpt>
      <trkpt lat="45.16019" lon="5.2894">
        <ele>599</ele>
        <time>2020-03-01T09:27:36.000Z</time>
      </trkpt>
      <trkpt lat="45.16019" lon="5.28935">
        <ele>598.59997558594</ele>
        <time>2020-03-01T09:27:37.000Z</time>
      </trkpt>
      <trkpt lat="45.16019" lon="5.28929">
        <ele>598.20001220703</ele>
        <time>2020-03-01T09:27:38.000Z</time>
      </trkpt>
      <trkpt lat="45.16018" lon="5.28924">
        <ele>597.79998779297</ele>
        <time>2020-03-01T09:27:39.000Z</time>
      </trkpt>
      <trkpt lat="45.16018" lon="5.28918">
        <ele>597.40002441406</ele>
        <time>2020-03-01T09:27:40.000Z</time>
      </trkpt>
      <trkpt lat="45.16018" lon="5.28914">
        <ele>597</ele>
        <time>2020-03-01T09:27:41.000Z</time>
      </trkpt>
      <trkpt lat="45.16018" lon="5.28909">
        <ele>596.79998779297</ele>
        <time>2020-03-01T09:27:42.000Z</time>
      </trkpt>
      <trkpt lat="45.16018" lon="5.28906">
        <ele>596.40002441406</ele>
        <time>2020-03-01T09:27:43.000Z</time>
      </trkpt>
      <trkpt lat="45.16018" lon="5.28903">
        <ele>596</ele>
        <time>2020-03-01T09:27:44.000Z</time>
      </trkpt>
      <trkpt lat="45.16017" lon="5.28899">
        <ele>595.59997558594</ele>
        <time>2020-03-01T09:27:45.000Z</time>
      </trkpt>
      <trkpt lat="45.16016" lon="5.28892">
        <ele>595.40002441406</ele>
        <time>2020-03-01T09:27:46.000Z</time>
      </trkpt>
      <trkpt lat="45.16016" lon="5.28888">
        <ele>595</ele>
        <time>2020-03-01T09:27:47.000Z</time>
      </trkpt>
      <trkpt lat="45.16015" lon="5.28886">
        <ele>595</ele>
        <time>2020-03-01T09:27:48.000Z</time>
      </trkpt>
      <trkpt lat="45.16015" lon="5.28881">
        <ele>595</ele>
        <time>2020-03-01T09:27:49.000Z</time>
      </trkpt>
      <trkpt lat="45.16015" lon="5.28879">
        <ele>594.59997558594</ele>
        <time>2020-03-01T09:27:50.000Z</time>
      </trkpt>
      <trkpt lat="45.16015" lon="5.28875">
        <ele>594.20001220703</ele>
        <time>2020-03-01T09:27:51.000Z</time>
      </trkpt>
      <trkpt lat="45.16016" lon="5.28871">
        <ele>593.79998779297</ele>
        <time>2020-03-01T09:27:52.000Z</time>
      </trkpt>
      <trkpt lat="45.16016" lon="5.28868">
        <ele>593.40002441406</ele>
        <time>2020-03-01T09:27:53.000Z</time>
      </trkpt>
      <trkpt lat="45.16016" lon="5.28864">
        <ele>593.20001220703</ele>
        <time>2020-03-01T09:27:54.000Z</time>
      </trkpt>
      <trkpt lat="45.16017" lon="5.28861">
        <ele>592.79998779297</ele>
        <time>2020-03-01T09:27:55.000Z</time>
      </trkpt>
      <trkpt lat="45.16017" lon="5.28856">
        <ele>592.40002441406</ele>
        <time>2020-03-01T09:27:56.000Z</time>
      </trkpt>
      <trkpt lat="45.16017" lon="5.28853">
        <ele>592</ele>
        <time>2020-03-01T09:27:57.000Z</time>
      </trkpt>
      <trkpt lat="45.16017" lon="5.28851">
        <ele>591.79998779297</ele>
        <time>2020-03-01T09:27:58.000Z</time>
      </trkpt>
      <trkpt lat="45.16017" lon="5.28848">
        <ele>591.59997558594</ele>
        <time>2020-03-01T09:27:59.000Z</time>
      </trkpt>
      <trkpt lat="45.16017" lon="5.28843">
        <ele>591.59997558594</ele>
        <time>2020-03-01T09:28:00.000Z</time>
      </trkpt>
      <trkpt lat="45.16017" lon="5.28838">
        <ele>591.40002441406</ele>
        <time>2020-03-01T09:28:01.000Z</time>
      </trkpt>
      <trkpt lat="45.16018" lon="5.28833">
        <ele>591</ele>
        <time>2020-03-01T09:28:02.000Z</time>
      </trkpt>
      <trkpt lat="45.16018" lon="5.28829">
        <ele>590.59997558594</ele>
        <time>2020-03-01T09:28:03.000Z</time>
      </trkpt>
      <trkpt lat="45.16019" lon="5.28825">
        <ele>590.20001220703</ele>
        <time>2020-03-01T09:28:04.000Z</time>
      </trkpt>
      <trkpt lat="45.16019" lon="5.28822">
        <ele>589.59997558594</ele>
        <time>2020-03-01T09:28:05.000Z</time>
      </trkpt>
      <trkpt lat="45.1602" lon="5.28819">
        <ele>589.20001220703</ele>
        <time>2020-03-01T09:28:06.000Z</time>
      </trkpt>
      <trkpt lat="45.16021" lon="5.28817">
        <ele>588.79998779297</ele>
        <time>2020-03-01T09:28:07.000Z</time>
      </trkpt>
      <trkpt lat="45.16022" lon="5.28814">
        <ele>588.40002441406</ele>
        <time>2020-03-01T09:28:08.000Z</time>
      </trkpt>
      <trkpt lat="45.16024" lon="5.28812">
        <ele>588</ele>
        <time>2020-03-01T09:28:09.000Z</time>
      </trkpt>
      <trkpt lat="45.16024" lon="5.28809">
        <ele>587.59997558594</ele>
        <time>2020-03-01T09:28:10.000Z</time>
      </trkpt>
      <trkpt lat="45.16024" lon="5.28805">
        <ele>587</ele>
        <time>2020-03-01T09:28:11.000Z</time>
      </trkpt>
      <trkpt lat="45.16025" lon="5.28801">
        <ele>586.59997558594</ele>
        <time>2020-03-01T09:28:12.000Z</time>
      </trkpt>
      <trkpt lat="45.16025" lon="5.28797">
        <ele>586.20001220703</ele>
        <time>2020-03-01T09:28:13.000Z</time>
      </trkpt>
      <trkpt lat="45.16025" lon="5.28792">
        <ele>585.59997558594</ele>
        <time>2020-03-01T09:28:14.000Z</time>
      </trkpt>
      <trkpt lat="45.16023" lon="5.28788">
        <ele>585</ele>
        <time>2020-03-01T09:28:15.000Z</time>
      </trkpt>
      <trkpt lat="45.16022" lon="5.28786">
        <ele>584.59997558594</ele>
        <time>2020-03-01T09:28:16.000Z</time>
      </trkpt>
      <trkpt lat="45.1602" lon="5.28782">
        <ele>584.40002441406</ele>
        <time>2020-03-01T09:28:17.000Z</time>
      </trkpt>
      <trkpt lat="45.16019" lon="5.28781">
        <ele>584.20001220703</ele>
        <time>2020-03-01T09:28:18.000Z</time>
      </trkpt>
      <trkpt lat="45.16016" lon="5.28774">
        <ele>583.79998779297</ele>
        <time>2020-03-01T09:28:19.000Z</time>
      </trkpt>
      <trkpt lat="45.16014" lon="5.28772">
        <ele>583.79998779297</ele>
        <time>2020-03-01T09:28:20.000Z</time>
      </trkpt>
      <trkpt lat="45.16013" lon="5.28769">
        <ele>583.59997558594</ele>
        <time>2020-03-01T09:28:21.000Z</time>
      </trkpt>
      <trkpt lat="45.16011" lon="5.28768">
        <ele>583.59997558594</ele>
        <time>2020-03-01T09:28:22.000Z</time>
      </trkpt>
      <trkpt lat="45.1601" lon="5.28767">
        <ele>583.59997558594</ele>
        <time>2020-03-01T09:28:23.000Z</time>
      </trkpt>
      <trkpt lat="45.16008" lon="5.28766">
        <ele>583.59997558594</ele>
        <time>2020-03-01T09:28:24.000Z</time>
      </trkpt>
      <trkpt lat="45.16006" lon="5.28765">
        <ele>583.59997558594</ele>
        <time>2020-03-01T09:28:25.000Z</time>
      </trkpt>
      <trkpt lat="45.16005" lon="5.28764">
        <ele>583.40002441406</ele>
        <time>2020-03-01T09:28:26.000Z</time>
      </trkpt>
      <trkpt lat="45.16003" lon="5.28764">
        <ele>583.40002441406</ele>
        <time>2020-03-01T09:28:27.000Z</time>
      </trkpt>
      <trkpt lat="45.16002" lon="5.28762">
        <ele>583.40002441406</ele>
        <time>2020-03-01T09:28:28.000Z</time>
      </trkpt>
      <trkpt lat="45.16" lon="5.2876">
        <ele>583.40002441406</ele>
        <time>2020-03-01T09:28:29.000Z</time>
      </trkpt>
      <trkpt lat="45.15999" lon="5.2876">
        <ele>583.40002441406</ele>
        <time>2020-03-01T09:28:30.000Z</time>
      </trkpt>
      <trkpt lat="45.15997" lon="5.28761">
        <ele>583.40002441406</ele>
        <time>2020-03-01T09:28:31.000Z</time>
      </trkpt>
      <trkpt lat="45.15995" lon="5.2876">
        <ele>583.40002441406</ele>
        <time>2020-03-01T09:28:32.000Z</time>
      </trkpt>
      <trkpt lat="45.15993" lon="5.28759">
        <ele>583.20001220703</ele>
        <time>2020-03-01T09:28:33.000Z</time>
      </trkpt>
      <trkpt lat="45.15991" lon="5.28759">
        <ele>583.20001220703</ele>
        <time>2020-03-01T09:28:34.000Z</time>
      </trkpt>
      <trkpt lat="45.15988" lon="5.28758">
        <ele>583.20001220703</ele>
        <time>2020-03-01T09:28:35.000Z</time>
      </trkpt>
      <trkpt lat="45.15986" lon="5.28757">
        <ele>583.20001220703</ele>
        <time>2020-03-01T09:28:36.000Z</time>
      </trkpt>
      <trkpt lat="45.15984" lon="5.28756">
        <ele>583</ele>
        <time>2020-03-01T09:28:37.000Z</time>
      </trkpt>
      <trkpt lat="45.15981" lon="5.28749">
        <ele>583</ele>
        <time>2020-03-01T09:28:38.000Z</time>
      </trkpt>
      <trkpt lat="45.15979" lon="5.28748">
        <ele>583</ele>
        <time>2020-03-01T09:28:39.000Z</time>
      </trkpt>
      <trkpt lat="45.15976" lon="5.28749">
        <ele>583</ele>
        <time>2020-03-01T09:28:40.000Z</time>
      </trkpt>
      <trkpt lat="45.15973" lon="5.28746">
        <ele>583</ele>
        <time>2020-03-01T09:28:41.000Z</time>
      </trkpt>
      <trkpt lat="45.15971" lon="5.28744">
        <ele>582.79998779297</ele>
        <time>2020-03-01T09:28:42.000Z</time>
      </trkpt>
      <trkpt lat="45.15969" lon="5.28743">
        <ele>582.79998779297</ele>
        <time>2020-03-01T09:28:43.000Z</time>
      </trkpt>
      <trkpt lat="45.15967" lon="5.28743">
        <ele>582.79998779297</ele>
        <time>2020-03-01T09:28:44.000Z</time>
      </trkpt>
      <trkpt lat="45.15964" lon="5.2874">
        <ele>582.79998779297</ele>
        <time>2020-03-01T09:28:45.000Z</time>
      </trkpt>
      <trkpt lat="45.15962" lon="5.2874">
        <ele>582.79998779297</ele>
        <time>2020-03-01T09:28:46.000Z</time>
      </trkpt>
      <trkpt lat="45.1596" lon="5.2874">
        <ele>582.79998779297</ele>
        <time>2020-03-01T09:28:47.000Z</time>
      </trkpt>
      <trkpt lat="45.15957" lon="5.28738">
        <ele>582.59997558594</ele>
        <time>2020-03-01T09:28:48.000Z</time>
      </trkpt>
      <trkpt lat="45.15954" lon="5.28739">
        <ele>582.59997558594</ele>
        <time>2020-03-01T09:28:49.000Z</time>
      </trkpt>
      <trkpt lat="45.15951" lon="5.28738">
        <ele>582.59997558594</ele>
        <time>2020-03-01T09:28:50.000Z</time>
      </trkpt>
      <trkpt lat="45.15948" lon="5.28737">
        <ele>582.59997558594</ele>
        <time>2020-03-01T09:28:51.000Z</time>
      </trkpt>
      <trkpt lat="45.15945" lon="5.28735">
        <ele>582.40002441406</ele>
        <time>2020-03-01T09:28:52.000Z</time>
      </trkpt>
      <trkpt lat="45.15942" lon="5.28732">
        <ele>582.40002441406</ele>
        <time>2020-03-01T09:28:53.000Z</time>
      </trkpt>
      <trkpt lat="45.15938" lon="5.28729">
        <ele>582.40002441406</ele>
        <time>2020-03-01T09:28:54.000Z</time>
      </trkpt>
      <trkpt lat="45.15935" lon="5.28728">
        <ele>582.40002441406</ele>
        <time>2020-03-01T09:28:55.000Z</time>
      </trkpt>
      <trkpt lat="45.15931" lon="5.28728">
        <ele>582.40002441406</ele>
        <time>2020-03-01T09:28:56.000Z</time>
      </trkpt>
      <trkpt lat="45.15928" lon="5.28727">
        <ele>582.40002441406</ele>
        <time>2020-03-01T09:28:57.000Z</time>
      </trkpt>
      <trkpt lat="45.15926" lon="5.28726">
        <ele>582.40002441406</ele>
        <time>2020-03-01T09:28:58.000Z</time>
      </trkpt>
      <trkpt lat="45.15923" lon="5.28726">
        <ele>582.40002441406</ele>
        <time>2020-03-01T09:28:59.000Z</time>
      </trkpt>
      <trkpt lat="45.1592" lon="5.28726">
        <ele>582.40002441406</ele>
        <time>2020-03-01T09:29:00.000Z</time>
      </trkpt>
      <trkpt lat="45.15917" lon="5.28725">
        <ele>582.40002441406</ele>
        <time>2020-03-01T09:29:01.000Z</time>
      </trkpt>
      <trkpt lat="45.15914" lon="5.28725">
        <ele>582.40002441406</ele>
        <time>2020-03-01T09:29:02.000Z</time>
      </trkpt>
      <trkpt lat="45.1591" lon="5.28724">
        <ele>582.20001220703</ele>
        <time>2020-03-01T09:29:03.000Z</time>
      </trkpt>
      <trkpt lat="45.15906" lon="5.28722">
        <ele>582.20001220703</ele>
        <time>2020-03-01T09:29:04.000Z</time>
      </trkpt>
      <trkpt lat="45.15903" lon="5.2872">
        <ele>582.20001220703</ele>
        <time>2020-03-01T09:29:05.000Z</time>
      </trkpt>
      <trkpt lat="45.15901" lon="5.28717">
        <ele>582.20001220703</ele>
        <time>2020-03-01T09:29:06.000Z</time>
      </trkpt>
      <trkpt lat="45.15897" lon="5.28714">
        <ele>582</ele>
        <time>2020-03-01T09:29:07.000Z</time>
      </trkpt>
      <trkpt lat="45.15894" lon="5.28712">
        <ele>582</ele>
        <time>2020-03-01T09:29:08.000Z</time>
      </trkpt>
      <trkpt lat="45.15891" lon="5.28712">
        <ele>582</ele>
        <time>2020-03-01T09:29:09.000Z</time>
      </trkpt>
      <trkpt lat="45.15888" lon="5.28711">
        <ele>581.79998779297</ele>
        <time>2020-03-01T09:29:10.000Z</time>
      </trkpt>
      <trkpt lat="45.15885" lon="5.28711">
        <ele>581.79998779297</ele>
        <time>2020-03-01T09:29:11.000Z</time>
      </trkpt>
      <trkpt lat="45.15883" lon="5.28711">
        <ele>581.79998779297</ele>
        <time>2020-03-01T09:29:12.000Z</time>
      </trkpt>
      <trkpt lat="45.15881" lon="5.28712">
        <ele>581.59997558594</ele>
        <time>2020-03-01T09:29:13.000Z</time>
      </trkpt>
      <trkpt lat="45.15878" lon="5.28714">
        <ele>581.59997558594</ele>
        <time>2020-03-01T09:29:14.000Z</time>
      </trkpt>
      <trkpt lat="45.15875" lon="5.28712">
        <ele>581.79998779297</ele>
        <time>2020-03-01T09:29:15.000Z</time>
      </trkpt>
      <trkpt lat="45.15872" lon="5.28714">
        <ele>582</ele>
        <time>2020-03-01T09:29:16.000Z</time>
      </trkpt>
      <trkpt lat="45.1587" lon="5.28713">
        <ele>582.20001220703</ele>
        <time>2020-03-01T09:29:17.000Z</time>
      </trkpt>
      <trkpt lat="45.15868" lon="5.28712">
        <ele>582.40002441406</ele>
        <time>2020-03-01T09:29:18.000Z</time>
      </trkpt>
      <trkpt lat="45.15867" lon="5.28711">
        <ele>582.20001220703</ele>
        <time>2020-03-01T09:29:19.000Z</time>
      </trkpt>
      <trkpt lat="45.15864" lon="5.2871">
        <ele>582.20001220703</ele>
        <time>2020-03-01T09:29:20.000Z</time>
      </trkpt>
      <trkpt lat="45.15861" lon="5.28709">
        <ele>582.20001220703</ele>
        <time>2020-03-01T09:29:21.000Z</time>
      </trkpt>
      <trkpt lat="45.15859" lon="5.28709">
        <ele>582.20001220703</ele>
        <time>2020-03-01T09:29:22.000Z</time>
      </trkpt>
      <trkpt lat="45.15856" lon="5.28708">
        <ele>582.20001220703</ele>
        <time>2020-03-01T09:29:23.000Z</time>
      </trkpt>
      <trkpt lat="45.15853" lon="5.28708">
        <ele>582.20001220703</ele>
        <time>2020-03-01T09:29:24.000Z</time>
      </trkpt>
      <trkpt lat="45.15851" lon="5.28705">
        <ele>582</ele>
        <time>2020-03-01T09:29:25.000Z</time>
      </trkpt>
      <trkpt lat="45.15848" lon="5.28705">
        <ele>582</ele>
        <time>2020-03-01T09:29:26.000Z</time>
      </trkpt>
      <trkpt lat="45.15846" lon="5.28705">
        <ele>582</ele>
        <time>2020-03-01T09:29:27.000Z</time>
      </trkpt>
      <trkpt lat="45.15843" lon="5.28705">
        <ele>582</ele>
        <time>2020-03-01T09:29:28.000Z</time>
      </trkpt>
      <trkpt lat="45.1584" lon="5.28706">
        <ele>581.79998779297</ele>
        <time>2020-03-01T09:29:29.000Z</time>
      </trkpt>
      <trkpt lat="45.15838" lon="5.28706">
        <ele>581.79998779297</ele>
        <time>2020-03-01T09:29:30.000Z</time>
      </trkpt>
      <trkpt lat="45.15836" lon="5.28705">
        <ele>581.79998779297</ele>
        <time>2020-03-01T09:29:31.000Z</time>
      </trkpt>
      <trkpt lat="45.15834" lon="5.28705">
        <ele>581.79998779297</ele>
        <time>2020-03-01T09:29:32.000Z</time>
      </trkpt>
      <trkpt lat="45.15831" lon="5.28705">
        <ele>581.79998779297</ele>
        <time>2020-03-01T09:29:33.000Z</time>
      </trkpt>
      <trkpt lat="45.15828" lon="5.28705">
        <ele>581.79998779297</ele>
        <time>2020-03-01T09:29:34.000Z</time>
      </trkpt>
      <trkpt lat="45.15826" lon="5.28705">
        <ele>581.79998779297</ele>
        <time>2020-03-01T09:29:35.000Z</time>
      </trkpt>
      <trkpt lat="45.15823" lon="5.28705">
        <ele>581.79998779297</ele>
        <time>2020-03-01T09:29:36.000Z</time>
      </trkpt>
      <trkpt lat="45.1582" lon="5.28703">
        <ele>581.79998779297</ele>
        <time>2020-03-01T09:29:37.000Z</time>
      </trkpt>
      <trkpt lat="45.15817" lon="5.28702">
        <ele>581.79998779297</ele>
        <time>2020-03-01T09:29:38.000Z</time>
      </trkpt>
      <trkpt lat="45.15813" lon="5.28699">
        <ele>582</ele>
        <time>2020-03-01T09:29:39.000Z</time>
      </trkpt>
      <trkpt lat="45.15809" lon="5.28697">
        <ele>582</ele>
        <time>2020-03-01T09:29:40.000Z</time>
      </trkpt>
      <trkpt lat="45.15806" lon="5.28697">
        <ele>581.79998779297</ele>
        <time>2020-03-01T09:29:41.000Z</time>
      </trkpt>
      <trkpt lat="45.15801" lon="5.28699">
        <ele>581.79998779297</ele>
        <time>2020-03-01T09:29:42.000Z</time>
      </trkpt>
      <trkpt lat="45.15798" lon="5.28698">
        <ele>581.59997558594</ele>
        <time>2020-03-01T09:29:43.000Z</time>
      </trkpt>
      <trkpt lat="45.15795" lon="5.287">
        <ele>581.59997558594</ele>
        <time>2020-03-01T09:29:44.000Z</time>
      </trkpt>
      <trkpt lat="45.15793" lon="5.287">
        <ele>581.59997558594</ele>
        <time>2020-03-01T09:29:45.000Z</time>
      </trkpt>
      <trkpt lat="45.1579" lon="5.28702">
        <ele>581.59997558594</ele>
        <time>2020-03-01T09:29:46.000Z</time>
      </trkpt>
      <trkpt lat="45.15788" lon="5.28702">
        <ele>581.40002441406</ele>
        <time>2020-03-01T09:29:47.000Z</time>
      </trkpt>
      <trkpt lat="45.15785" lon="5.28701">
        <ele>581.59997558594</ele>
        <time>2020-03-01T09:29:48.000Z</time>
      </trkpt>
      <trkpt lat="45.15782" lon="5.28702">
        <ele>581.59997558594</ele>
        <time>2020-03-01T09:29:49.000Z</time>
      </trkpt>
      <trkpt lat="45.15779" lon="5.287">
        <ele>581.59997558594</ele>
        <time>2020-03-01T09:29:50.000Z</time>
      </trkpt>
      <trkpt lat="45.15776" lon="5.287">
        <ele>581.59997558594</ele>
        <time>2020-03-01T09:29:51.000Z</time>
      </trkpt>
      <trkpt lat="45.15772" lon="5.28699">
        <ele>581.59997558594</ele>
        <time>2020-03-01T09:29:52.000Z</time>
      </trkpt>
      <trkpt lat="45.1577" lon="5.28698">
        <ele>581.59997558594</ele>
        <time>2020-03-01T09:29:53.000Z</time>
      </trkpt>
      <trkpt lat="45.15766" lon="5.287">
        <ele>581.59997558594</ele>
        <time>2020-03-01T09:29:54.000Z</time>
      </trkpt>
      <trkpt lat="45.15762" lon="5.28701">
        <ele>581.59997558594</ele>
        <time>2020-03-01T09:29:55.000Z</time>
      </trkpt>
      <trkpt lat="45.15758" lon="5.28702">
        <ele>581.59997558594</ele>
        <time>2020-03-01T09:29:56.000Z</time>
      </trkpt>
      <trkpt lat="45.15755" lon="5.28704">
        <ele>581.79998779297</ele>
        <time>2020-03-01T09:29:57.000Z</time>
      </trkpt>
      <trkpt lat="45.15751" lon="5.28705">
        <ele>581.79998779297</ele>
        <time>2020-03-01T09:29:58.000Z</time>
      </trkpt>
      <trkpt lat="45.15748" lon="5.28706">
        <ele>581.79998779297</ele>
        <time>2020-03-01T09:29:59.000Z</time>
      </trkpt>
      <trkpt lat="45.15745" lon="5.28706">
        <ele>581.59997558594</ele>
        <time>2020-03-01T09:30:00.000Z</time>
      </trkpt>
      <trkpt lat="45.15742" lon="5.28706">
        <ele>581.59997558594</ele>
        <time>2020-03-01T09:30:01.000Z</time>
      </trkpt>
      <trkpt lat="45.15739" lon="5.28706">
        <ele>581.40002441406</ele>
        <time>2020-03-01T09:30:02.000Z</time>
      </trkpt>
      <trkpt lat="45.15736" lon="5.28707">
        <ele>581.40002441406</ele>
        <time>2020-03-01T09:30:03.000Z</time>
      </trkpt>
      <trkpt lat="45.15733" lon="5.28707">
        <ele>581.40002441406</ele>
        <time>2020-03-01T09:30:04.000Z</time>
      </trkpt>
      <trkpt lat="45.15731" lon="5.28708">
        <ele>581.40002441406</ele>
        <time>2020-03-01T09:30:05.000Z</time>
      </trkpt>
      <trkpt lat="45.15728" lon="5.28708">
        <ele>581.20001220703</ele>
        <time>2020-03-01T09:30:06.000Z</time>
      </trkpt>
      <trkpt lat="45.15725" lon="5.28708">
        <ele>581</ele>
        <time>2020-03-01T09:30:07.000Z</time>
      </trkpt>
      <trkpt lat="45.15723" lon="5.28709">
        <ele>580.79998779297</ele>
        <time>2020-03-01T09:30:08.000Z</time>
      </trkpt>
      <trkpt lat="45.1572" lon="5.28709">
        <ele>580.59997558594</ele>
        <time>2020-03-01T09:30:09.000Z</time>
      </trkpt>
      <trkpt lat="45.15716" lon="5.28712">
        <ele>580.40002441406</ele>
        <time>2020-03-01T09:30:10.000Z</time>
      </trkpt>
      <trkpt lat="45.15713" lon="5.28713">
        <ele>580.40002441406</ele>
        <time>2020-03-01T09:30:11.000Z</time>
      </trkpt>
      <trkpt lat="45.1571" lon="5.28713">
        <ele>580.40002441406</ele>
        <time>2020-03-01T09:30:12.000Z</time>
      </trkpt>
      <trkpt lat="45.15708" lon="5.28714">
        <ele>580.20001220703</ele>
        <time>2020-03-01T09:30:13.000Z</time>
      </trkpt>
      <trkpt lat="45.15705" lon="5.28713">
        <ele>580.20001220703</ele>
        <time>2020-03-01T09:30:14.000Z</time>
      </trkpt>
      <trkpt lat="45.15702" lon="5.28714">
        <ele>580.20001220703</ele>
        <time>2020-03-01T09:30:15.000Z</time>
      </trkpt>
      <trkpt lat="45.157" lon="5.28714">
        <ele>580</ele>
        <time>2020-03-01T09:30:16.000Z</time>
      </trkpt>
      <trkpt lat="45.15697" lon="5.28715">
        <ele>580.20001220703</ele>
        <time>2020-03-01T09:30:17.000Z</time>
      </trkpt>
      <trkpt lat="45.15694" lon="5.28716">
        <ele>580</ele>
        <time>2020-03-01T09:30:18.000Z</time>
      </trkpt>
      <trkpt lat="45.15691" lon="5.28716">
        <ele>580</ele>
        <time>2020-03-01T09:30:19.000Z</time>
      </trkpt>
      <trkpt lat="45.15687" lon="5.28712">
        <ele>579.79998779297</ele>
        <time>2020-03-01T09:30:20.000Z</time>
      </trkpt>
      <trkpt lat="45.15684" lon="5.28714">
        <ele>579.79998779297</ele>
        <time>2020-03-01T09:30:21.000Z</time>
      </trkpt>
      <trkpt lat="45.15681" lon="5.28715">
        <ele>579.79998779297</ele>
        <time>2020-03-01T09:30:22.000Z</time>
      </trkpt>
      <trkpt lat="45.15679" lon="5.28714">
        <ele>579.59997558594</ele>
        <time>2020-03-01T09:30:23.000Z</time>
      </trkpt>
      <trkpt lat="45.15676" lon="5.28714">
        <ele>579.59997558594</ele>
        <time>2020-03-01T09:30:24.000Z</time>
      </trkpt>
      <trkpt lat="45.15674" lon="5.28714">
        <ele>579.40002441406</ele>
        <time>2020-03-01T09:30:25.000Z</time>
      </trkpt>
      <trkpt lat="45.15671" lon="5.28711">
        <ele>579.20001220703</ele>
        <time>2020-03-01T09:30:26.000Z</time>
      </trkpt>
      <trkpt lat="45.15668" lon="5.28711">
        <ele>579</ele>
        <time>2020-03-01T09:30:27.000Z</time>
      </trkpt>
      <trkpt lat="45.15666" lon="5.28708">
        <ele>578.79998779297</ele>
        <time>2020-03-01T09:30:28.000Z</time>
      </trkpt>
      <trkpt lat="45.15664" lon="5.28706">
        <ele>578.59997558594</ele>
        <time>2020-03-01T09:30:29.000Z</time>
      </trkpt>
      <trkpt lat="45.15661" lon="5.28703">
        <ele>578.40002441406</ele>
        <time>2020-03-01T09:30:30.000Z</time>
      </trkpt>
      <trkpt lat="45.15658" lon="5.287">
        <ele>578.20001220703</ele>
        <time>2020-03-01T09:30:31.000Z</time>
      </trkpt>
      <trkpt lat="45.15655" lon="5.28698">
        <ele>578</ele>
        <time>2020-03-01T09:30:32.000Z</time>
      </trkpt>
      <trkpt lat="45.15652" lon="5.28695">
        <ele>577.59997558594</ele>
        <time>2020-03-01T09:30:33.000Z</time>
      </trkpt>
      <trkpt lat="45.15649" lon="5.28694">
        <ele>577.59997558594</ele>
        <time>2020-03-01T09:30:34.000Z</time>
      </trkpt>
      <trkpt lat="45.15646" lon="5.28692">
        <ele>577.40002441406</ele>
        <time>2020-03-01T09:30:35.000Z</time>
      </trkpt>
      <trkpt lat="45.15643" lon="5.28688">
        <ele>577.40002441406</ele>
        <time>2020-03-01T09:30:36.000Z</time>
      </trkpt>
      <trkpt lat="45.15639" lon="5.28687">
        <ele>577.40002441406</ele>
        <time>2020-03-01T09:30:37.000Z</time>
      </trkpt>
      <trkpt lat="45.15636" lon="5.28685">
        <ele>577.40002441406</ele>
        <time>2020-03-01T09:30:38.000Z</time>
      </trkpt>
      <trkpt lat="45.15634" lon="5.28682">
        <ele>577</ele>
        <time>2020-03-01T09:30:39.000Z</time>
      </trkpt>
      <trkpt lat="45.15631" lon="5.2868">
        <ele>576.79998779297</ele>
        <time>2020-03-01T09:30:40.000Z</time>
      </trkpt>
      <trkpt lat="45.15628" lon="5.28679">
        <ele>576.59997558594</ele>
        <time>2020-03-01T09:30:41.000Z</time>
      </trkpt>
      <trkpt lat="45.15625" lon="5.28678">
        <ele>576.59997558594</ele>
        <time>2020-03-01T09:30:42.000Z</time>
      </trkpt>
      <trkpt lat="45.15622" lon="5.28676">
        <ele>576.59997558594</ele>
        <time>2020-03-01T09:30:43.000Z</time>
      </trkpt>
      <trkpt lat="45.1562" lon="5.28674">
        <ele>576.59997558594</ele>
        <time>2020-03-01T09:30:44.000Z</time>
      </trkpt>
      <trkpt lat="45.15618" lon="5.28672">
        <ele>576.59997558594</ele>
        <time>2020-03-01T09:30:45.000Z</time>
      </trkpt>
      <trkpt lat="45.15616" lon="5.2867">
        <ele>576.59997558594</ele>
        <time>2020-03-01T09:30:46.000Z</time>
      </trkpt>
      <trkpt lat="45.15613" lon="5.28668">
        <ele>576.59997558594</ele>
        <time>2020-03-01T09:30:47.000Z</time>
      </trkpt>
      <trkpt lat="45.15611" lon="5.28666">
        <ele>576.59997558594</ele>
        <time>2020-03-01T09:30:48.000Z</time>
      </trkpt>
      <trkpt lat="45.15609" lon="5.28663">
        <ele>576.59997558594</ele>
        <time>2020-03-01T09:30:49.000Z</time>
      </trkpt>
      <trkpt lat="45.15607" lon="5.28661">
        <ele>576.59997558594</ele>
        <time>2020-03-01T09:30:50.000Z</time>
      </trkpt>
      <trkpt lat="45.15604" lon="5.2866">
        <ele>576.40002441406</ele>
        <time>2020-03-01T09:30:51.000Z</time>
      </trkpt>
      <trkpt lat="45.15601" lon="5.28659">
        <ele>576.20001220703</ele>
        <time>2020-03-01T09:30:52.000Z</time>
      </trkpt>
      <trkpt lat="45.15598" lon="5.28659">
        <ele>576.20001220703</ele>
        <time>2020-03-01T09:30:53.000Z</time>
      </trkpt>
      <trkpt lat="45.15595" lon="5.28658">
        <ele>576</ele>
        <time>2020-03-01T09:30:54.000Z</time>
      </trkpt>
      <trkpt lat="45.15593" lon="5.28658">
        <ele>576</ele>
        <time>2020-03-01T09:30:55.000Z</time>
      </trkpt>
      <trkpt lat="45.1559" lon="5.28658">
        <ele>576</ele>
        <time>2020-03-01T09:30:56.000Z</time>
      </trkpt>
      <trkpt lat="45.15588" lon="5.28658">
        <ele>575.79998779297</ele>
        <time>2020-03-01T09:30:57.000Z</time>
      </trkpt>
      <trkpt lat="45.15586" lon="5.28657">
        <ele>575.79998779297</ele>
        <time>2020-03-01T09:30:58.000Z</time>
      </trkpt>
      <trkpt lat="45.15584" lon="5.28655">
        <ele>575.79998779297</ele>
        <time>2020-03-01T09:30:59.000Z</time>
      </trkpt>
      <trkpt lat="45.15581" lon="5.28656">
        <ele>575.79998779297</ele>
        <time>2020-03-01T09:31:00.000Z</time>
      </trkpt>
      <trkpt lat="45.15579" lon="5.28656">
        <ele>575.79998779297</ele>
        <time>2020-03-01T09:31:01.000Z</time>
      </trkpt>
      <trkpt lat="45.15576" lon="5.28657">
        <ele>575.79998779297</ele>
        <time>2020-03-01T09:31:02.000Z</time>
      </trkpt>
      <trkpt lat="45.15574" lon="5.28657">
        <ele>575.79998779297</ele>
        <time>2020-03-01T09:31:03.000Z</time>
      </trkpt>
      <trkpt lat="45.15571" lon="5.28656">
        <ele>575.79998779297</ele>
        <time>2020-03-01T09:31:04.000Z</time>
      </trkpt>
      <trkpt lat="45.1557" lon="5.28656">
        <ele>575.79998779297</ele>
        <time>2020-03-01T09:31:05.000Z</time>
      </trkpt>
      <trkpt lat="45.15567" lon="5.28656">
        <ele>575.79998779297</ele>
        <time>2020-03-01T09:31:06.000Z</time>
      </trkpt>
      <trkpt lat="45.15565" lon="5.28655">
        <ele>575.79998779297</ele>
        <time>2020-03-01T09:31:07.000Z</time>
      </trkpt>
      <trkpt lat="45.15563" lon="5.28655">
        <ele>575.79998779297</ele>
        <time>2020-03-01T09:31:08.000Z</time>
      </trkpt>
      <trkpt lat="45.15561" lon="5.28654">
        <ele>575.79998779297</ele>
        <time>2020-03-01T09:31:09.000Z</time>
      </trkpt>
      <trkpt lat="45.15558" lon="5.28654">
        <ele>575.79998779297</ele>
        <time>2020-03-01T09:31:10.000Z</time>
      </trkpt>
      <trkpt lat="45.15555" lon="5.28655">
        <ele>575.79998779297</ele>
        <time>2020-03-01T09:31:11.000Z</time>
      </trkpt>
      <trkpt lat="45.15553" lon="5.28655">
        <ele>576</ele>
        <time>2020-03-01T09:31:12.000Z</time>
      </trkpt>
      <trkpt lat="45.1555" lon="5.28655">
        <ele>576</ele>
        <time>2020-03-01T09:31:13.000Z</time>
      </trkpt>
      <trkpt lat="45.15548" lon="5.28654">
        <ele>576</ele>
        <time>2020-03-01T09:31:14.000Z</time>
      </trkpt>
      <trkpt lat="45.15544" lon="5.28653">
        <ele>576</ele>
        <time>2020-03-01T09:31:15.000Z</time>
      </trkpt>
      <trkpt lat="45.15542" lon="5.28652">
        <ele>576</ele>
        <time>2020-03-01T09:31:16.000Z</time>
      </trkpt>
      <trkpt lat="45.1554" lon="5.28651">
        <ele>576</ele>
        <time>2020-03-01T09:31:17.000Z</time>
      </trkpt>
      <trkpt lat="45.15536" lon="5.28652">
        <ele>576</ele>
        <time>2020-03-01T09:31:18.000Z</time>
      </trkpt>
      <trkpt lat="45.15533" lon="5.28653">
        <ele>575.79998779297</ele>
        <time>2020-03-01T09:31:19.000Z</time>
      </trkpt>
      <trkpt lat="45.1553" lon="5.28653">
        <ele>575.79998779297</ele>
        <time>2020-03-01T09:31:20.000Z</time>
      </trkpt>
      <trkpt lat="45.15527" lon="5.28654">
        <ele>575.59997558594</ele>
        <time>2020-03-01T09:31:21.000Z</time>
      </trkpt>
      <trkpt lat="45.15524" lon="5.28655">
        <ele>575.59997558594</ele>
        <time>2020-03-01T09:31:22.000Z</time>
      </trkpt>
      <trkpt lat="45.15522" lon="5.28656">
        <ele>575.59997558594</ele>
        <time>2020-03-01T09:31:23.000Z</time>
      </trkpt>
      <trkpt lat="45.15519" lon="5.28657">
        <ele>575.59997558594</ele>
        <time>2020-03-01T09:31:24.000Z</time>
      </trkpt>
      <trkpt lat="45.15516" lon="5.28659">
        <ele>575.40002441406</ele>
        <time>2020-03-01T09:31:25.000Z</time>
      </trkpt>
      <trkpt lat="45.15513" lon="5.28659">
        <ele>575.40002441406</ele>
        <time>2020-03-01T09:31:26.000Z</time>
      </trkpt>
      <trkpt lat="45.1551" lon="5.2866">
        <ele>575.40002441406</ele>
        <time>2020-03-01T09:31:27.000Z</time>
      </trkpt>
      <trkpt lat="45.15507" lon="5.28661">
        <ele>575.40002441406</ele>
        <time>2020-03-01T09:31:28.000Z</time>
      </trkpt>
      <trkpt lat="45.15505" lon="5.28659">
        <ele>575.40002441406</ele>
        <time>2020-03-01T09:31:29.000Z</time>
      </trkpt>
      <trkpt lat="45.15503" lon="5.28658">
        <ele>575.20001220703</ele>
        <time>2020-03-01T09:31:30.000Z</time>
      </trkpt>
      <trkpt lat="45.15503" lon="5.28656">
        <ele>575.20001220703</ele>
        <time>2020-03-01T09:31:31.000Z</time>
      </trkpt>
      <trkpt lat="45.15503" lon="5.28655">
        <ele>575.20001220703</ele>
        <time>2020-03-01T09:31:32.000Z</time>
      </trkpt>
      <trkpt lat="45.15503" lon="5.28653">
        <ele>575.20001220703</ele>
        <time>2020-03-01T09:31:33.000Z</time>
      </trkpt>
      <trkpt lat="45.15503" lon="5.28653">
        <ele>575.20001220703</ele>
        <time>2020-03-01T09:31:34.000Z</time>
      </trkpt>
      <trkpt lat="45.15505" lon="5.28651">
        <ele>575</ele>
        <time>2020-03-01T09:31:35.000Z</time>
      </trkpt>
      <trkpt lat="45.15506" lon="5.28648">
        <ele>575</ele>
        <time>2020-03-01T09:31:36.000Z</time>
      </trkpt>
      <trkpt lat="45.15506" lon="5.28647">
        <ele>575</ele>
        <time>2020-03-01T09:31:37.000Z</time>
      </trkpt>
      <trkpt lat="45.15506" lon="5.28647">
        <ele>575</ele>
        <time>2020-03-01T09:31:38.000Z</time>
      </trkpt>
      <trkpt lat="45.15506" lon="5.28645">
        <ele>575</ele>
        <time>2020-03-01T09:31:39.000Z</time>
      </trkpt>
      <trkpt lat="45.15507" lon="5.28644">
        <ele>574.79998779297</ele>
        <time>2020-03-01T09:31:40.000Z</time>
      </trkpt>
      <trkpt lat="45.15508" lon="5.28641">
        <ele>574.79998779297</ele>
        <time>2020-03-01T09:31:41.000Z</time>
      </trkpt>
      <trkpt lat="45.15508" lon="5.28639">
        <ele>575</ele>
        <time>2020-03-01T09:31:42.000Z</time>
      </trkpt>
      <trkpt lat="45.15509" lon="5.28637">
        <ele>575</ele>
        <time>2020-03-01T09:31:43.000Z</time>
      </trkpt>
      <trkpt lat="45.15507" lon="5.28637">
        <ele>575</ele>
        <time>2020-03-01T09:31:44.000Z</time>
      </trkpt>
      <trkpt lat="45.15508" lon="5.28635">
        <ele>574.79998779297</ele>
        <time>2020-03-01T09:31:45.000Z</time>
      </trkpt>
      <trkpt lat="45.15508" lon="5.28633">
        <ele>575</ele>
        <time>2020-03-01T09:31:46.000Z</time>
      </trkpt>
      <trkpt lat="45.15508" lon="5.2863">
        <ele>574.79998779297</ele>
        <time>2020-03-01T09:31:47.000Z</time>
      </trkpt>
      <trkpt lat="45.15509" lon="5.28629">
        <ele>574.79998779297</ele>
        <time>2020-03-01T09:31:48.000Z</time>
      </trkpt>
      <trkpt lat="45.15509" lon="5.28627">
        <ele>574.79998779297</ele>
        <time>2020-03-01T09:31:49.000Z</time>
      </trkpt>
      <trkpt lat="45.15509" lon="5.28625">
        <ele>574.79998779297</ele>
        <time>2020-03-01T09:31:50.000Z</time>
      </trkpt>
      <trkpt lat="45.1551" lon="5.28623">
        <ele>574.79998779297</ele>
        <time>2020-03-01T09:31:51.000Z</time>
      </trkpt>
      <trkpt lat="45.1551" lon="5.2862">
        <ele>574.79998779297</ele>
        <time>2020-03-01T09:31:52.000Z</time>
      </trkpt>
      <trkpt lat="45.1551" lon="5.28618">
        <ele>574.59997558594</ele>
        <time>2020-03-01T09:31:53.000Z</time>
      </trkpt>
      <trkpt lat="45.15511" lon="5.28615">
        <ele>574.40002441406</ele>
        <time>2020-03-01T09:31:54.000Z</time>
      </trkpt>
      <trkpt lat="45.15511" lon="5.28613">
        <ele>574.20001220703</ele>
        <time>2020-03-01T09:31:55.000Z</time>
      </trkpt>
      <trkpt lat="45.15511" lon="5.2861">
        <ele>574</ele>
        <time>2020-03-01T09:31:56.000Z</time>
      </trkpt>
      <trkpt lat="45.15511" lon="5.28608">
        <ele>574</ele>
        <time>2020-03-01T09:31:57.000Z</time>
      </trkpt>
      <trkpt lat="45.15511" lon="5.28605">
        <ele>573.79998779297</ele>
        <time>2020-03-01T09:31:58.000Z</time>
      </trkpt>
      <trkpt lat="45.15511" lon="5.28603">
        <ele>573.79998779297</ele>
        <time>2020-03-01T09:31:59.000Z</time>
      </trkpt>
      <trkpt lat="45.15512" lon="5.28599">
        <ele>573.79998779297</ele>
        <time>2020-03-01T09:32:00.000Z</time>
      </trkpt>
      <trkpt lat="45.15512" lon="5.28595">
        <ele>573.59997558594</ele>
        <time>2020-03-01T09:32:01.000Z</time>
      </trkpt>
      <trkpt lat="45.15513" lon="5.28591">
        <ele>573.59997558594</ele>
        <time>2020-03-01T09:32:02.000Z</time>
      </trkpt>
      <trkpt lat="45.15512" lon="5.28588">
        <ele>573.40002441406</ele>
        <time>2020-03-01T09:32:03.000Z</time>
      </trkpt>
      <trkpt lat="45.15513" lon="5.28585">
        <ele>573.40002441406</ele>
        <time>2020-03-01T09:32:04.000Z</time>
      </trkpt>
      <trkpt lat="45.15513" lon="5.28581">
        <ele>573.20001220703</ele>
        <time>2020-03-01T09:32:05.000Z</time>
      </trkpt>
      <trkpt lat="45.15513" lon="5.28577">
        <ele>573.20001220703</ele>
        <time>2020-03-01T09:32:06.000Z</time>
      </trkpt>
      <trkpt lat="45.15513" lon="5.28573">
        <ele>573.20001220703</ele>
        <time>2020-03-01T09:32:07.000Z</time>
      </trkpt>
      <trkpt lat="45.15513" lon="5.2857">
        <ele>573.20001220703</ele>
        <time>2020-03-01T09:32:08.000Z</time>
      </trkpt>
      <trkpt lat="45.15513" lon="5.28567">
        <ele>573.20001220703</ele>
        <time>2020-03-01T09:32:09.000Z</time>
      </trkpt>
      <trkpt lat="45.15513" lon="5.28564">
        <ele>573.20001220703</ele>
        <time>2020-03-01T09:32:10.000Z</time>
      </trkpt>
      <trkpt lat="45.15513" lon="5.2856">
        <ele>573.20001220703</ele>
        <time>2020-03-01T09:32:11.000Z</time>
      </trkpt>
      <trkpt lat="45.15513" lon="5.28556">
        <ele>573.40002441406</ele>
        <time>2020-03-01T09:32:12.000Z</time>
      </trkpt>
      <trkpt lat="45.15513" lon="5.28552">
        <ele>573.40002441406</ele>
        <time>2020-03-01T09:32:13.000Z</time>
      </trkpt>
      <trkpt lat="45.15514" lon="5.28548">
        <ele>573.59997558594</ele>
        <time>2020-03-01T09:32:14.000Z</time>
      </trkpt>
      <trkpt lat="45.15516" lon="5.28545">
        <ele>573.59997558594</ele>
        <time>2020-03-01T09:32:15.000Z</time>
      </trkpt>
      <trkpt lat="45.15517" lon="5.28541">
        <ele>573.59997558594</ele>
        <time>2020-03-01T09:32:16.000Z</time>
      </trkpt>
      <trkpt lat="45.15519" lon="5.28537">
        <ele>573.59997558594</ele>
        <time>2020-03-01T09:32:17.000Z</time>
      </trkpt>
      <trkpt lat="45.15521" lon="5.28533">
        <ele>573.59997558594</ele>
        <time>2020-03-01T09:32:18.000Z</time>
      </trkpt>
      <trkpt lat="45.15523" lon="5.2853">
        <ele>573.40002441406</ele>
        <time>2020-03-01T09:32:19.000Z</time>
      </trkpt>
      <trkpt lat="45.15525" lon="5.28527">
        <ele>573.40002441406</ele>
        <time>2020-03-01T09:32:20.000Z</time>
      </trkpt>
      <trkpt lat="45.15527" lon="5.28524">
        <ele>573.40002441406</ele>
        <time>2020-03-01T09:32:21.000Z</time>
      </trkpt>
      <trkpt lat="45.15529" lon="5.28521">
        <ele>573.40002441406</ele>
        <time>2020-03-01T09:32:22.000Z</time>
      </trkpt>
      <trkpt lat="45.15529" lon="5.28515">
        <ele>573.40002441406</ele>
        <time>2020-03-01T09:32:23.000Z</time>
      </trkpt>
      <trkpt lat="45.15527" lon="5.28503">
        <ele>573.40002441406</ele>
        <time>2020-03-01T09:32:24.000Z</time>
      </trkpt>
      <trkpt lat="45.15528" lon="5.28498">
        <ele>573.40002441406</ele>
        <time>2020-03-01T09:32:25.000Z</time>
      </trkpt>
      <trkpt lat="45.15529" lon="5.28493">
        <ele>573.40002441406</ele>
        <time>2020-03-01T09:32:26.000Z</time>
      </trkpt>
      <trkpt lat="45.1553" lon="5.28489">
        <ele>573.40002441406</ele>
        <time>2020-03-01T09:32:27.000Z</time>
      </trkpt>
      <trkpt lat="45.1553" lon="5.28485">
        <ele>573.40002441406</ele>
        <time>2020-03-01T09:32:28.000Z</time>
      </trkpt>
      <trkpt lat="45.15531" lon="5.28482">
        <ele>573.59997558594</ele>
        <time>2020-03-01T09:32:29.000Z</time>
      </trkpt>
      <trkpt lat="45.15533" lon="5.28479">
        <ele>573.59997558594</ele>
        <time>2020-03-01T09:32:30.000Z</time>
      </trkpt>
      <trkpt lat="45.15534" lon="5.28476">
        <ele>573.79998779297</ele>
        <time>2020-03-01T09:32:31.000Z</time>
      </trkpt>
      <trkpt lat="45.15536" lon="5.28472">
        <ele>573.79998779297</ele>
        <time>2020-03-01T09:32:32.000Z</time>
      </trkpt>
      <trkpt lat="45.15538" lon="5.28469">
        <ele>573.79998779297</ele>
        <time>2020-03-01T09:32:33.000Z</time>
      </trkpt>
      <trkpt lat="45.1554" lon="5.28466">
        <ele>573.79998779297</ele>
        <time>2020-03-01T09:32:34.000Z</time>
      </trkpt>
      <trkpt lat="45.15542" lon="5.28463">
        <ele>573.79998779297</ele>
        <time>2020-03-01T09:32:35.000Z</time>
      </trkpt>
      <trkpt lat="45.15544" lon="5.28462">
        <ele>573.79998779297</ele>
        <time>2020-03-01T09:32:36.000Z</time>
      </trkpt>
      <trkpt lat="45.15547" lon="5.2846">
        <ele>573.79998779297</ele>
        <time>2020-03-01T09:32:37.000Z</time>
      </trkpt>
      <trkpt lat="45.15549" lon="5.28458">
        <ele>573.59997558594</ele>
        <time>2020-03-01T09:32:38.000Z</time>
      </trkpt>
      <trkpt lat="45.15551" lon="5.28456">
        <ele>573.59997558594</ele>
        <time>2020-03-01T09:32:39.000Z</time>
      </trkpt>
      <trkpt lat="45.15553" lon="5.28454">
        <ele>573.59997558594</ele>
        <time>2020-03-01T09:32:40.000Z</time>
      </trkpt>
      <trkpt lat="45.15555" lon="5.28452">
        <ele>573.79998779297</ele>
        <time>2020-03-01T09:32:41.000Z</time>
      </trkpt>
      <trkpt lat="45.15557" lon="5.2845">
        <ele>573.79998779297</ele>
        <time>2020-03-01T09:32:42.000Z</time>
      </trkpt>
      <trkpt lat="45.15559" lon="5.28447">
        <ele>573.79998779297</ele>
        <time>2020-03-01T09:32:43.000Z</time>
      </trkpt>
      <trkpt lat="45.15561" lon="5.28445">
        <ele>574</ele>
        <time>2020-03-01T09:32:44.000Z</time>
      </trkpt>
      <trkpt lat="45.15563" lon="5.28442">
        <ele>574</ele>
        <time>2020-03-01T09:32:45.000Z</time>
      </trkpt>
      <trkpt lat="45.15565" lon="5.2844">
        <ele>574.20001220703</ele>
        <time>2020-03-01T09:32:46.000Z</time>
      </trkpt>
      <trkpt lat="45.15567" lon="5.28438">
        <ele>574.20001220703</ele>
        <time>2020-03-01T09:32:47.000Z</time>
      </trkpt>
      <trkpt lat="45.15569" lon="5.28436">
        <ele>574.40002441406</ele>
        <time>2020-03-01T09:32:48.000Z</time>
      </trkpt>
      <trkpt lat="45.1557" lon="5.28434">
        <ele>574.40002441406</ele>
        <time>2020-03-01T09:32:49.000Z</time>
      </trkpt>
      <trkpt lat="45.15572" lon="5.28432">
        <ele>574.59997558594</ele>
        <time>2020-03-01T09:32:50.000Z</time>
      </trkpt>
      <trkpt lat="45.15574" lon="5.28429">
        <ele>574.59997558594</ele>
        <time>2020-03-01T09:32:51.000Z</time>
      </trkpt>
      <trkpt lat="45.15576" lon="5.28428">
        <ele>574.79998779297</ele>
        <time>2020-03-01T09:32:52.000Z</time>
      </trkpt>
      <trkpt lat="45.15578" lon="5.28426">
        <ele>574.79998779297</ele>
        <time>2020-03-01T09:32:53.000Z</time>
      </trkpt>
      <trkpt lat="45.1558" lon="5.28424">
        <ele>575</ele>
        <time>2020-03-01T09:32:54.000Z</time>
      </trkpt>
      <trkpt lat="45.15581" lon="5.28423">
        <ele>575</ele>
        <time>2020-03-01T09:32:55.000Z</time>
      </trkpt>
      <trkpt lat="45.15583" lon="5.2842">
        <ele>575.20001220703</ele>
        <time>2020-03-01T09:32:56.000Z</time>
      </trkpt>
      <trkpt lat="45.15586" lon="5.28418">
        <ele>575.40002441406</ele>
        <time>2020-03-01T09:32:57.000Z</time>
      </trkpt>
      <trkpt lat="45.15588" lon="5.28415">
        <ele>575.59997558594</ele>
        <time>2020-03-01T09:32:58.000Z</time>
      </trkpt>
      <trkpt lat="45.15591" lon="5.28412">
        <ele>575.59997558594</ele>
        <time>2020-03-01T09:32:59.000Z</time>
      </trkpt>
      <trkpt lat="45.15593" lon="5.2841">
        <ele>575.59997558594</ele>
        <time>2020-03-01T09:33:00.000Z</time>
      </trkpt>
      <trkpt lat="45.15595" lon="5.28408">
        <ele>575.59997558594</ele>
        <time>2020-03-01T09:33:01.000Z</time>
      </trkpt>
      <trkpt lat="45.15597" lon="5.28406">
        <ele>575.59997558594</ele>
        <time>2020-03-01T09:33:02.000Z</time>
      </trkpt>
      <trkpt lat="45.15598" lon="5.28403">
        <ele>575.59997558594</ele>
        <time>2020-03-01T09:33:03.000Z</time>
      </trkpt>
      <trkpt lat="45.15599" lon="5.28401">
        <ele>575.59997558594</ele>
        <time>2020-03-01T09:33:04.000Z</time>
      </trkpt>
      <trkpt lat="45.15601" lon="5.28398">
        <ele>575.79998779297</ele>
        <time>2020-03-01T09:33:05.000Z</time>
      </trkpt>
      <trkpt lat="45.15602" lon="5.28396">
        <ele>575.79998779297</ele>
        <time>2020-03-01T09:33:06.000Z</time>
      </trkpt>
      <trkpt lat="45.15604" lon="5.28393">
        <ele>575.79998779297</ele>
        <time>2020-03-01T09:33:07.000Z</time>
      </trkpt>
      <trkpt lat="45.15606" lon="5.2839">
        <ele>575.79998779297</ele>
        <time>2020-03-01T09:33:08.000Z</time>
      </trkpt>
      <trkpt lat="45.15608" lon="5.28389">
        <ele>576</ele>
        <time>2020-03-01T09:33:09.000Z</time>
      </trkpt>
      <trkpt lat="45.15611" lon="5.28387">
        <ele>575.79998779297</ele>
        <time>2020-03-01T09:33:10.000Z</time>
      </trkpt>
      <trkpt lat="45.15613" lon="5.28385">
        <ele>575.79998779297</ele>
        <time>2020-03-01T09:33:11.000Z</time>
      </trkpt>
      <trkpt lat="45.15616" lon="5.28384">
        <ele>575.59997558594</ele>
        <time>2020-03-01T09:33:12.000Z</time>
      </trkpt>
      <trkpt lat="45.15618" lon="5.28383">
        <ele>575.79998779297</ele>
        <time>2020-03-01T09:33:13.000Z</time>
      </trkpt>
      <trkpt lat="45.15621" lon="5.28382">
        <ele>575.79998779297</ele>
        <time>2020-03-01T09:33:14.000Z</time>
      </trkpt>
      <trkpt lat="45.15623" lon="5.28381">
        <ele>575.79998779297</ele>
        <time>2020-03-01T09:33:15.000Z</time>
      </trkpt>
      <trkpt lat="45.15626" lon="5.28381">
        <ele>575.59997558594</ele>
        <time>2020-03-01T09:33:16.000Z</time>
      </trkpt>
      <trkpt lat="45.15628" lon="5.2838">
        <ele>575.79998779297</ele>
        <time>2020-03-01T09:33:17.000Z</time>
      </trkpt>
      <trkpt lat="45.1563" lon="5.2838">
        <ele>576</ele>
        <time>2020-03-01T09:33:18.000Z</time>
      </trkpt>
      <trkpt lat="45.15632" lon="5.28379">
        <ele>576</ele>
        <time>2020-03-01T09:33:19.000Z</time>
      </trkpt>
      <trkpt lat="45.15634" lon="5.28378">
        <ele>576</ele>
        <time>2020-03-01T09:33:20.000Z</time>
      </trkpt>
      <trkpt lat="45.15636" lon="5.28379">
        <ele>576</ele>
        <time>2020-03-01T09:33:21.000Z</time>
      </trkpt>
      <trkpt lat="45.15638" lon="5.28378">
        <ele>576</ele>
        <time>2020-03-01T09:33:22.000Z</time>
      </trkpt>
      <trkpt lat="45.1564" lon="5.28378">
        <ele>576.20001220703</ele>
        <time>2020-03-01T09:33:23.000Z</time>
      </trkpt>
      <trkpt lat="45.15642" lon="5.28378">
        <ele>576.20001220703</ele>
        <time>2020-03-01T09:33:24.000Z</time>
      </trkpt>
      <trkpt lat="45.15644" lon="5.28376">
        <ele>576.20001220703</ele>
        <time>2020-03-01T09:33:25.000Z</time>
      </trkpt>
      <trkpt lat="45.15645" lon="5.28374">
        <ele>576.40002441406</ele>
        <time>2020-03-01T09:33:26.000Z</time>
      </trkpt>
      <trkpt lat="45.15646" lon="5.28374">
        <ele>576.40002441406</ele>
        <time>2020-03-01T09:33:27.000Z</time>
      </trkpt>
      <trkpt lat="45.15648" lon="5.28373">
        <ele>576.40002441406</ele>
        <time>2020-03-01T09:33:28.000Z</time>
      </trkpt>
      <trkpt lat="45.1565" lon="5.28372">
        <ele>576.40002441406</ele>
        <time>2020-03-01T09:33:29.000Z</time>
      </trkpt>
      <trkpt lat="45.15651" lon="5.2837">
        <ele>576.40002441406</ele>
        <time>2020-03-01T09:33:30.000Z</time>
      </trkpt>
      <trkpt lat="45.15653" lon="5.28369">
        <ele>576.40002441406</ele>
        <time>2020-03-01T09:33:31.000Z</time>
      </trkpt>
      <trkpt lat="45.15654" lon="5.28369">
        <ele>576.59997558594</ele>
        <time>2020-03-01T09:33:32.000Z</time>
      </trkpt>
      <trkpt lat="45.15656" lon="5.28369">
        <ele>576.59997558594</ele>
        <time>2020-03-01T09:33:33.000Z</time>
      </trkpt>
      <trkpt lat="45.15659" lon="5.28369">
        <ele>576.59997558594</ele>
        <time>2020-03-01T09:33:34.000Z</time>
      </trkpt>
      <trkpt lat="45.15661" lon="5.28369">
        <ele>576.59997558594</ele>
        <time>2020-03-01T09:33:35.000Z</time>
      </trkpt>
      <trkpt lat="45.15663" lon="5.28368">
        <ele>576.59997558594</ele>
        <time>2020-03-01T09:33:36.000Z</time>
      </trkpt>
      <trkpt lat="45.15665" lon="5.28368">
        <ele>576.59997558594</ele>
        <time>2020-03-01T09:33:37.000Z</time>
      </trkpt>
      <trkpt lat="45.15667" lon="5.28369">
        <ele>576.59997558594</ele>
        <time>2020-03-01T09:33:38.000Z</time>
      </trkpt>
      <trkpt lat="45.1567" lon="5.28369">
        <ele>576.59997558594</ele>
        <time>2020-03-01T09:33:39.000Z</time>
      </trkpt>
      <trkpt lat="45.15673" lon="5.28369">
        <ele>576.59997558594</ele>
        <time>2020-03-01T09:33:40.000Z</time>
      </trkpt>
      <trkpt lat="45.15674" lon="5.28367">
        <ele>576.59997558594</ele>
        <time>2020-03-01T09:33:41.000Z</time>
      </trkpt>
      <trkpt lat="45.15676" lon="5.28367">
        <ele>576.59997558594</ele>
        <time>2020-03-01T09:33:42.000Z</time>
      </trkpt>
      <trkpt lat="45.15679" lon="5.28367">
        <ele>576.79998779297</ele>
        <time>2020-03-01T09:33:43.000Z</time>
      </trkpt>
      <trkpt lat="45.15682" lon="5.28367">
        <ele>576.79998779297</ele>
        <time>2020-03-01T09:33:44.000Z</time>
      </trkpt>
      <trkpt lat="45.15684" lon="5.28365">
        <ele>576.79998779297</ele>
        <time>2020-03-01T09:33:45.000Z</time>
      </trkpt>
      <trkpt lat="45.15686" lon="5.28365">
        <ele>577</ele>
        <time>2020-03-01T09:33:46.000Z</time>
      </trkpt>
      <trkpt lat="45.1569" lon="5.28365">
        <ele>577</ele>
        <time>2020-03-01T09:33:47.000Z</time>
      </trkpt>
      <trkpt lat="45.15693" lon="5.28365">
        <ele>577</ele>
        <time>2020-03-01T09:33:48.000Z</time>
      </trkpt>
      <trkpt lat="45.15695" lon="5.28366">
        <ele>577</ele>
        <time>2020-03-01T09:33:49.000Z</time>
      </trkpt>
      <trkpt lat="45.15697" lon="5.28366">
        <ele>577</ele>
        <time>2020-03-01T09:33:50.000Z</time>
      </trkpt>
      <trkpt lat="45.15699" lon="5.28366">
        <ele>577</ele>
        <time>2020-03-01T09:33:51.000Z</time>
      </trkpt>
      <trkpt lat="45.15701" lon="5.28366">
        <ele>577</ele>
        <time>2020-03-01T09:33:52.000Z</time>
      </trkpt>
      <trkpt lat="45.15702" lon="5.28365">
        <ele>576.79998779297</ele>
        <time>2020-03-01T09:33:53.000Z</time>
      </trkpt>
      <trkpt lat="45.15705" lon="5.28365">
        <ele>576.79998779297</ele>
        <time>2020-03-01T09:33:54.000Z</time>
      </trkpt>
      <trkpt lat="45.15707" lon="5.28365">
        <ele>576.79998779297</ele>
        <time>2020-03-01T09:33:55.000Z</time>
      </trkpt>
      <trkpt lat="45.15709" lon="5.28365">
        <ele>576.79998779297</ele>
        <time>2020-03-01T09:33:56.000Z</time>
      </trkpt>
      <trkpt lat="45.15711" lon="5.28365">
        <ele>576.79998779297</ele>
        <time>2020-03-01T09:33:57.000Z</time>
      </trkpt>
      <trkpt lat="45.15714" lon="5.28365">
        <ele>576.79998779297</ele>
        <time>2020-03-01T09:33:58.000Z</time>
      </trkpt>
      <trkpt lat="45.15716" lon="5.28365">
        <ele>576.79998779297</ele>
        <time>2020-03-01T09:33:59.000Z</time>
      </trkpt>
      <trkpt lat="45.15718" lon="5.28365">
        <ele>576.79998779297</ele>
        <time>2020-03-01T09:34:00.000Z</time>
      </trkpt>
      <trkpt lat="45.15721" lon="5.28365">
        <ele>576.79998779297</ele>
        <time>2020-03-01T09:34:01.000Z</time>
      </trkpt>
      <trkpt lat="45.15724" lon="5.28365">
        <ele>576.79998779297</ele>
        <time>2020-03-01T09:34:02.000Z</time>
      </trkpt>
      <trkpt lat="45.15726" lon="5.28365">
        <ele>576.79998779297</ele>
        <time>2020-03-01T09:34:03.000Z</time>
      </trkpt>
      <trkpt lat="45.15728" lon="5.28366">
        <ele>576.79998779297</ele>
        <time>2020-03-01T09:34:04.000Z</time>
      </trkpt>
      <trkpt lat="45.1573" lon="5.28366">
        <ele>577</ele>
        <time>2020-03-01T09:34:05.000Z</time>
      </trkpt>
      <trkpt lat="45.15732" lon="5.28366">
        <ele>577.20001220703</ele>
        <time>2020-03-01T09:34:06.000Z</time>
      </trkpt>
      <trkpt lat="45.15734" lon="5.28366">
        <ele>577.40002441406</ele>
        <time>2020-03-01T09:34:07.000Z</time>
      </trkpt>
      <trkpt lat="45.15736" lon="5.28367">
        <ele>577.40002441406</ele>
        <time>2020-03-01T09:34:08.000Z</time>
      </trkpt>
      <trkpt lat="45.15738" lon="5.28367">
        <ele>577.59997558594</ele>
        <time>2020-03-01T09:34:09.000Z</time>
      </trkpt>
      <trkpt lat="45.1574" lon="5.28368">
        <ele>577.59997558594</ele>
        <time>2020-03-01T09:34:10.000Z</time>
      </trkpt>
      <trkpt lat="45.15744" lon="5.28369">
        <ele>577.59997558594</ele>
        <time>2020-03-01T09:34:11.000Z</time>
      </trkpt>
      <trkpt lat="45.15745" lon="5.28369">
        <ele>577.59997558594</ele>
        <time>2020-03-01T09:34:12.000Z</time>
      </trkpt>
      <trkpt lat="45.15747" lon="5.28369">
        <ele>577.59997558594</ele>
        <time>2020-03-01T09:34:13.000Z</time>
      </trkpt>
      <trkpt lat="45.1575" lon="5.2837">
        <ele>577.79998779297</ele>
        <time>2020-03-01T09:34:14.000Z</time>
      </trkpt>
      <trkpt lat="45.15751" lon="5.2837">
        <ele>577.79998779297</ele>
        <time>2020-03-01T09:34:15.000Z</time>
      </trkpt>
      <trkpt lat="45.15753" lon="5.28369">
        <ele>577.79998779297</ele>
        <time>2020-03-01T09:34:16.000Z</time>
      </trkpt>
      <trkpt lat="45.15754" lon="5.28367">
        <ele>578.20001220703</ele>
        <time>2020-03-01T09:34:17.000Z</time>
      </trkpt>
      <trkpt lat="45.15756" lon="5.28367">
        <ele>578.40002441406</ele>
        <time>2020-03-01T09:34:18.000Z</time>
      </trkpt>
      <trkpt lat="45.15758" lon="5.28367">
        <ele>578.40002441406</ele>
        <time>2020-03-01T09:34:19.000Z</time>
      </trkpt>
      <trkpt lat="45.1576" lon="5.28368">
        <ele>578.59997558594</ele>
        <time>2020-03-01T09:34:20.000Z</time>
      </trkpt>
      <trkpt lat="45.15762" lon="5.28368">
        <ele>578.40002441406</ele>
        <time>2020-03-01T09:34:21.000Z</time>
      </trkpt>
      <trkpt lat="45.15764" lon="5.28368">
        <ele>578.40002441406</ele>
        <time>2020-03-01T09:34:22.000Z</time>
      </trkpt>
      <trkpt lat="45.15765" lon="5.28369">
        <ele>578.40002441406</ele>
        <time>2020-03-01T09:34:23.000Z</time>
      </trkpt>
      <trkpt lat="45.15768" lon="5.28369">
        <ele>578.40002441406</ele>
        <time>2020-03-01T09:34:24.000Z</time>
      </trkpt>
      <trkpt lat="45.1577" lon="5.28369">
        <ele>578.40002441406</ele>
        <time>2020-03-01T09:34:25.000Z</time>
      </trkpt>
      <trkpt lat="45.15773" lon="5.28369">
        <ele>578.40002441406</ele>
        <time>2020-03-01T09:34:26.000Z</time>
      </trkpt>
      <trkpt lat="45.15777" lon="5.28369">
        <ele>578.40002441406</ele>
        <time>2020-03-01T09:34:27.000Z</time>
      </trkpt>
      <trkpt lat="45.15779" lon="5.2837">
        <ele>578.59997558594</ele>
        <time>2020-03-01T09:34:28.000Z</time>
      </trkpt>
      <trkpt lat="45.15781" lon="5.2837">
        <ele>578.59997558594</ele>
        <time>2020-03-01T09:34:29.000Z</time>
      </trkpt>
      <trkpt lat="45.15786" lon="5.28371">
        <ele>578.59997558594</ele>
        <time>2020-03-01T09:34:30.000Z</time>
      </trkpt>
      <trkpt lat="45.15788" lon="5.28371">
        <ele>578.59997558594</ele>
        <time>2020-03-01T09:34:31.000Z</time>
      </trkpt>
      <trkpt lat="45.1579" lon="5.28371">
        <ele>578.59997558594</ele>
        <time>2020-03-01T09:34:32.000Z</time>
      </trkpt>
      <trkpt lat="45.15792" lon="5.28371">
        <ele>578.59997558594</ele>
        <time>2020-03-01T09:34:33.000Z</time>
      </trkpt>
      <trkpt lat="45.15795" lon="5.28371">
        <ele>578.79998779297</ele>
        <time>2020-03-01T09:34:34.000Z</time>
      </trkpt>
      <trkpt lat="45.15797" lon="5.28371">
        <ele>578.79998779297</ele>
        <time>2020-03-01T09:34:35.000Z</time>
      </trkpt>
      <trkpt lat="45.15799" lon="5.28371">
        <ele>578.79998779297</ele>
        <time>2020-03-01T09:34:36.000Z</time>
      </trkpt>
      <trkpt lat="45.15802" lon="5.28372">
        <ele>578.79998779297</ele>
        <time>2020-03-01T09:34:37.000Z</time>
      </trkpt>
      <trkpt lat="45.15805" lon="5.28373">
        <ele>579</ele>
        <time>2020-03-01T09:34:38.000Z</time>
      </trkpt>
      <trkpt lat="45.15807" lon="5.28373">
        <ele>579.20001220703</ele>
        <time>2020-03-01T09:34:39.000Z</time>
      </trkpt>
      <trkpt lat="45.15809" lon="5.28374">
        <ele>579.20001220703</ele>
        <time>2020-03-01T09:34:40.000Z</time>
      </trkpt>
      <trkpt lat="45.15811" lon="5.28375">
        <ele>579.20001220703</ele>
        <time>2020-03-01T09:34:41.000Z</time>
      </trkpt>
      <trkpt lat="45.15814" lon="5.28377">
        <ele>579.20001220703</ele>
        <time>2020-03-01T09:34:42.000Z</time>
      </trkpt>
      <trkpt lat="45.15816" lon="5.28378">
        <ele>579.20001220703</ele>
        <time>2020-03-01T09:34:43.000Z</time>
      </trkpt>
      <trkpt lat="45.15819" lon="5.28378">
        <ele>579.20001220703</ele>
        <time>2020-03-01T09:34:44.000Z</time>
      </trkpt>
      <trkpt lat="45.15821" lon="5.28379">
        <ele>579.20001220703</ele>
        <time>2020-03-01T09:34:45.000Z</time>
      </trkpt>
      <trkpt lat="45.15824" lon="5.28379">
        <ele>579.20001220703</ele>
        <time>2020-03-01T09:34:46.000Z</time>
      </trkpt>
      <trkpt lat="45.15826" lon="5.28379">
        <ele>579.20001220703</ele>
        <time>2020-03-01T09:34:47.000Z</time>
      </trkpt>
      <trkpt lat="45.15828" lon="5.28378">
        <ele>579.20001220703</ele>
        <time>2020-03-01T09:34:48.000Z</time>
      </trkpt>
      <trkpt lat="45.15829" lon="5.28377">
        <ele>579.20001220703</ele>
        <time>2020-03-01T09:34:49.000Z</time>
      </trkpt>
      <trkpt lat="45.1583" lon="5.28376">
        <ele>578.79998779297</ele>
        <time>2020-03-01T09:34:50.000Z</time>
      </trkpt>
      <trkpt lat="45.15831" lon="5.28375">
        <ele>578.59997558594</ele>
        <time>2020-03-01T09:34:51.000Z</time>
      </trkpt>
      <trkpt lat="45.15832" lon="5.28373">
        <ele>578.40002441406</ele>
        <time>2020-03-01T09:34:52.000Z</time>
      </trkpt>
      <trkpt lat="45.15833" lon="5.28372">
        <ele>578.20001220703</ele>
        <time>2020-03-01T09:34:53.000Z</time>
      </trkpt>
      <trkpt lat="45.15834" lon="5.28371">
        <ele>578.20001220703</ele>
        <time>2020-03-01T09:34:54.000Z</time>
      </trkpt>
      <trkpt lat="45.15835" lon="5.2837">
        <ele>578.20001220703</ele>
        <time>2020-03-01T09:34:55.000Z</time>
      </trkpt>
      <trkpt lat="45.15836" lon="5.28369">
        <ele>578.20001220703</ele>
        <time>2020-03-01T09:34:56.000Z</time>
      </trkpt>
      <trkpt lat="45.15836" lon="5.28368">
        <ele>578.59997558594</ele>
        <time>2020-03-01T09:34:57.000Z</time>
      </trkpt>
      <trkpt lat="45.15836" lon="5.28367">
        <ele>578.79998779297</ele>
        <time>2020-03-01T09:34:58.000Z</time>
      </trkpt>
      <trkpt lat="45.15837" lon="5.28366">
        <ele>579.20001220703</ele>
        <time>2020-03-01T09:34:59.000Z</time>
      </trkpt>
      <trkpt lat="45.15837" lon="5.28364">
        <ele>579.40002441406</ele>
        <time>2020-03-01T09:35:00.000Z</time>
      </trkpt>
      <trkpt lat="45.15836" lon="5.28361">
        <ele>579.59997558594</ele>
        <time>2020-03-01T09:35:01.000Z</time>
      </trkpt>
      <trkpt lat="45.15833" lon="5.28354">
        <ele>580</ele>
        <time>2020-03-01T09:35:02.000Z</time>
      </trkpt>
      <trkpt lat="45.15833" lon="5.28352">
        <ele>580.20001220703</ele>
        <time>2020-03-01T09:35:03.000Z</time>
      </trkpt>
      <trkpt lat="45.15833" lon="5.2835">
        <ele>580.40002441406</ele>
        <time>2020-03-01T09:35:04.000Z</time>
      </trkpt>
      <trkpt lat="45.15832" lon="5.28348">
        <ele>580.40002441406</ele>
        <time>2020-03-01T09:35:05.000Z</time>
      </trkpt>
      <trkpt lat="45.15832" lon="5.28346">
        <ele>580.59997558594</ele>
        <time>2020-03-01T09:35:06.000Z</time>
      </trkpt>
      <trkpt lat="45.15832" lon="5.28345">
        <ele>580.59997558594</ele>
        <time>2020-03-01T09:35:07.000Z</time>
      </trkpt>
      <trkpt lat="45.15832" lon="5.28343">
        <ele>580.40002441406</ele>
        <time>2020-03-01T09:35:08.000Z</time>
      </trkpt>
      <trkpt lat="45.15832" lon="5.28341">
        <ele>580.40002441406</ele>
        <time>2020-03-01T09:35:09.000Z</time>
      </trkpt>
      <trkpt lat="45.15832" lon="5.28338">
        <ele>580.20001220703</ele>
        <time>2020-03-01T09:35:10.000Z</time>
      </trkpt>
      <trkpt lat="45.15832" lon="5.28336">
        <ele>580</ele>
        <time>2020-03-01T09:35:11.000Z</time>
      </trkpt>
      <trkpt lat="45.15833" lon="5.28333">
        <ele>579.79998779297</ele>
        <time>2020-03-01T09:35:12.000Z</time>
      </trkpt>
      <trkpt lat="45.15833" lon="5.2833">
        <ele>579.79998779297</ele>
        <time>2020-03-01T09:35:13.000Z</time>
      </trkpt>
      <trkpt lat="45.15834" lon="5.28327">
        <ele>579.79998779297</ele>
        <time>2020-03-01T09:35:14.000Z</time>
      </trkpt>
      <trkpt lat="45.15834" lon="5.28325">
        <ele>579.59997558594</ele>
        <time>2020-03-01T09:35:15.000Z</time>
      </trkpt>
      <trkpt lat="45.15834" lon="5.28322">
        <ele>579.59997558594</ele>
        <time>2020-03-01T09:35:16.000Z</time>
      </trkpt>
      <trkpt lat="45.15835" lon="5.2832">
        <ele>579.40002441406</ele>
        <time>2020-03-01T09:35:17.000Z</time>
      </trkpt>
      <trkpt lat="45.15836" lon="5.28318">
        <ele>579.40002441406</ele>
        <time>2020-03-01T09:35:18.000Z</time>
      </trkpt>
      <trkpt lat="45.15836" lon="5.28316">
        <ele>579.40002441406</ele>
        <time>2020-03-01T09:35:19.000Z</time>
      </trkpt>
      <trkpt lat="45.15836" lon="5.28313">
        <ele>579.20001220703</ele>
        <time>2020-03-01T09:35:20.000Z</time>
      </trkpt>
      <trkpt lat="45.15836" lon="5.28311">
        <ele>579</ele>
        <time>2020-03-01T09:35:21.000Z</time>
      </trkpt>
      <trkpt lat="45.15837" lon="5.28309">
        <ele>579</ele>
        <time>2020-03-01T09:35:22.000Z</time>
      </trkpt>
      <trkpt lat="45.15837" lon="5.28306">
        <ele>579.20001220703</ele>
        <time>2020-03-01T09:35:23.000Z</time>
      </trkpt>
      <trkpt lat="45.15837" lon="5.28302">
        <ele>579.20001220703</ele>
        <time>2020-03-01T09:35:24.000Z</time>
      </trkpt>
      <trkpt lat="45.15837" lon="5.283">
        <ele>579.40002441406</ele>
        <time>2020-03-01T09:35:25.000Z</time>
      </trkpt>
      <trkpt lat="45.15837" lon="5.28297">
        <ele>579.40002441406</ele>
        <time>2020-03-01T09:35:26.000Z</time>
      </trkpt>
      <trkpt lat="45.15837" lon="5.28294">
        <ele>579.40002441406</ele>
        <time>2020-03-01T09:35:27.000Z</time>
      </trkpt>
      <trkpt lat="45.15838" lon="5.28291">
        <ele>579.59997558594</ele>
        <time>2020-03-01T09:35:28.000Z</time>
      </trkpt>
      <trkpt lat="45.15837" lon="5.28287">
        <ele>579.59997558594</ele>
        <time>2020-03-01T09:35:29.000Z</time>
      </trkpt>
      <trkpt lat="45.15837" lon="5.28283">
        <ele>579.59997558594</ele>
        <time>2020-03-01T09:35:30.000Z</time>
      </trkpt>
      <trkpt lat="45.15837" lon="5.2828">
        <ele>579.59997558594</ele>
        <time>2020-03-01T09:35:31.000Z</time>
      </trkpt>
      <trkpt lat="45.15838" lon="5.28276">
        <ele>579.59997558594</ele>
        <time>2020-03-01T09:35:32.000Z</time>
      </trkpt>
      <trkpt lat="45.15837" lon="5.28272">
        <ele>579.59997558594</ele>
        <time>2020-03-01T09:35:33.000Z</time>
      </trkpt>
      <trkpt lat="45.15838" lon="5.28269">
        <ele>579.59997558594</ele>
        <time>2020-03-01T09:35:34.000Z</time>
      </trkpt>
      <trkpt lat="45.15838" lon="5.28265">
        <ele>579.40002441406</ele>
        <time>2020-03-01T09:35:35.000Z</time>
      </trkpt>
      <trkpt lat="45.15837" lon="5.28261">
        <ele>579.40002441406</ele>
        <time>2020-03-01T09:35:36.000Z</time>
      </trkpt>
      <trkpt lat="45.15837" lon="5.28257">
        <ele>579.40002441406</ele>
        <time>2020-03-01T09:35:37.000Z</time>
      </trkpt>
      <trkpt lat="45.15837" lon="5.28253">
        <ele>579.40002441406</ele>
        <time>2020-03-01T09:35:38.000Z</time>
      </trkpt>
      <trkpt lat="45.15837" lon="5.2825">
        <ele>579.40002441406</ele>
        <time>2020-03-01T09:35:39.000Z</time>
      </trkpt>
      <trkpt lat="45.15838" lon="5.28247">
        <ele>579.40002441406</ele>
        <time>2020-03-01T09:35:40.000Z</time>
      </trkpt>
      <trkpt lat="45.15838" lon="5.28244">
        <ele>579.40002441406</ele>
        <time>2020-03-01T09:35:41.000Z</time>
      </trkpt>
      <trkpt lat="45.15839" lon="5.28241">
        <ele>579.40002441406</ele>
        <time>2020-03-01T09:35:42.000Z</time>
      </trkpt>
      <trkpt lat="45.1584" lon="5.28238">
        <ele>579.40002441406</ele>
        <time>2020-03-01T09:35:43.000Z</time>
      </trkpt>
      <trkpt lat="45.1584" lon="5.28235">
        <ele>579.40002441406</ele>
        <time>2020-03-01T09:35:44.000Z</time>
      </trkpt>
      <trkpt lat="45.15841" lon="5.28232">
        <ele>579.40002441406</ele>
        <time>2020-03-01T09:35:45.000Z</time>
      </trkpt>
      <trkpt lat="45.15841" lon="5.28229">
        <ele>579.40002441406</ele>
        <time>2020-03-01T09:35:46.000Z</time>
      </trkpt>
      <trkpt lat="45.15841" lon="5.28226">
        <ele>579.40002441406</ele>
        <time>2020-03-01T09:35:47.000Z</time>
      </trkpt>
      <trkpt lat="45.15842" lon="5.28223">
        <ele>579.40002441406</ele>
        <time>2020-03-01T09:35:48.000Z</time>
      </trkpt>
      <trkpt lat="45.15842" lon="5.2822">
        <ele>579.59997558594</ele>
        <time>2020-03-01T09:35:49.000Z</time>
      </trkpt>
      <trkpt lat="45.15843" lon="5.28217">
        <ele>579.59997558594</ele>
        <time>2020-03-01T09:35:50.000Z</time>
      </trkpt>
      <trkpt lat="45.15843" lon="5.28213">
        <ele>579.59997558594</ele>
        <time>2020-03-01T09:35:51.000Z</time>
      </trkpt>
      <trkpt lat="45.15844" lon="5.28211">
        <ele>579.59997558594</ele>
        <time>2020-03-01T09:35:52.000Z</time>
      </trkpt>
      <trkpt lat="45.15844" lon="5.28208">
        <ele>579.59997558594</ele>
        <time>2020-03-01T09:35:53.000Z</time>
      </trkpt>
      <trkpt lat="45.15844" lon="5.28205">
        <ele>579.59997558594</ele>
        <time>2020-03-01T09:35:54.000Z</time>
      </trkpt>
      <trkpt lat="45.15844" lon="5.28202">
        <ele>579.59997558594</ele>
        <time>2020-03-01T09:35:55.000Z</time>
      </trkpt>
      <trkpt lat="45.15845" lon="5.282">
        <ele>579.59997558594</ele>
        <time>2020-03-01T09:35:56.000Z</time>
      </trkpt>
      <trkpt lat="45.15845" lon="5.28198">
        <ele>579.59997558594</ele>
        <time>2020-03-01T09:35:57.000Z</time>
      </trkpt>
      <trkpt lat="45.15845" lon="5.28196">
        <ele>579.79998779297</ele>
        <time>2020-03-01T09:35:58.000Z</time>
      </trkpt>
      <trkpt lat="45.15845" lon="5.28194">
        <ele>580.20001220703</ele>
        <time>2020-03-01T09:35:59.000Z</time>
      </trkpt>
      <trkpt lat="45.15846" lon="5.28192">
        <ele>580.40002441406</ele>
        <time>2020-03-01T09:36:00.000Z</time>
      </trkpt>
      <trkpt lat="45.15846" lon="5.2819">
        <ele>580.59997558594</ele>
        <time>2020-03-01T09:36:01.000Z</time>
      </trkpt>
      <trkpt lat="45.15847" lon="5.28188">
        <ele>580.59997558594</ele>
        <time>2020-03-01T09:36:02.000Z</time>
      </trkpt>
      <trkpt lat="45.15848" lon="5.28186">
        <ele>580.79998779297</ele>
        <time>2020-03-01T09:36:03.000Z</time>
      </trkpt>
      <trkpt lat="45.15848" lon="5.28183">
        <ele>580.79998779297</ele>
        <time>2020-03-01T09:36:04.000Z</time>
      </trkpt>
      <trkpt lat="45.15849" lon="5.28181">
        <ele>581</ele>
        <time>2020-03-01T09:36:05.000Z</time>
      </trkpt>
      <trkpt lat="45.15849" lon="5.28178">
        <ele>581</ele>
        <time>2020-03-01T09:36:06.000Z</time>
      </trkpt>
      <trkpt lat="45.15849" lon="5.28175">
        <ele>581.20001220703</ele>
        <time>2020-03-01T09:36:07.000Z</time>
      </trkpt>
      <trkpt lat="45.15848" lon="5.28173">
        <ele>581.40002441406</ele>
        <time>2020-03-01T09:36:08.000Z</time>
      </trkpt>
      <trkpt lat="45.15848" lon="5.2817">
        <ele>581.59997558594</ele>
        <time>2020-03-01T09:36:09.000Z</time>
      </trkpt>
      <trkpt lat="45.15848" lon="5.28168">
        <ele>581.79998779297</ele>
        <time>2020-03-01T09:36:10.000Z</time>
      </trkpt>
      <trkpt lat="45.15848" lon="5.28166">
        <ele>582</ele>
        <time>2020-03-01T09:36:11.000Z</time>
      </trkpt>
      <trkpt lat="45.15848" lon="5.28163">
        <ele>582.20001220703</ele>
        <time>2020-03-01T09:36:12.000Z</time>
      </trkpt>
      <trkpt lat="45.15848" lon="5.28161">
        <ele>582.40002441406</ele>
        <time>2020-03-01T09:36:13.000Z</time>
      </trkpt>
      <trkpt lat="45.15848" lon="5.28158">
        <ele>582.40002441406</ele>
        <time>2020-03-01T09:36:14.000Z</time>
      </trkpt>
      <trkpt lat="45.15848" lon="5.28157">
        <ele>582.59997558594</ele>
        <time>2020-03-01T09:36:15.000Z</time>
      </trkpt>
      <trkpt lat="45.15848" lon="5.28155">
        <ele>582.59997558594</ele>
        <time>2020-03-01T09:36:16.000Z</time>
      </trkpt>
      <trkpt lat="45.15849" lon="5.28153">
        <ele>582.59997558594</ele>
        <time>2020-03-01T09:36:17.000Z</time>
      </trkpt>
      <trkpt lat="45.15849" lon="5.28151">
        <ele>582.59997558594</ele>
        <time>2020-03-01T09:36:18.000Z</time>
      </trkpt>
      <trkpt lat="45.15849" lon="5.28149">
        <ele>582.79998779297</ele>
        <time>2020-03-01T09:36:19.000Z</time>
      </trkpt>
      <trkpt lat="45.1585" lon="5.28146">
        <ele>583</ele>
        <time>2020-03-01T09:36:20.000Z</time>
      </trkpt>
      <trkpt lat="45.15852" lon="5.28144">
        <ele>583.20001220703</ele>
        <time>2020-03-01T09:36:21.000Z</time>
      </trkpt>
      <trkpt lat="45.15853" lon="5.28143">
        <ele>583.40002441406</ele>
        <time>2020-03-01T09:36:22.000Z</time>
      </trkpt>
      <trkpt lat="45.15855" lon="5.28141">
        <ele>583.79998779297</ele>
        <time>2020-03-01T09:36:23.000Z</time>
      </trkpt>
      <trkpt lat="45.15856" lon="5.2814">
        <ele>584</ele>
        <time>2020-03-01T09:36:24.000Z</time>
      </trkpt>
      <trkpt lat="45.15857" lon="5.28138">
        <ele>584.20001220703</ele>
        <time>2020-03-01T09:36:25.000Z</time>
      </trkpt>
      <trkpt lat="45.15859" lon="5.28137">
        <ele>584.40002441406</ele>
        <time>2020-03-01T09:36:26.000Z</time>
      </trkpt>
      <trkpt lat="45.1586" lon="5.28135">
        <ele>584.40002441406</ele>
        <time>2020-03-01T09:36:27.000Z</time>
      </trkpt>
      <trkpt lat="45.15861" lon="5.28133">
        <ele>584.59997558594</ele>
        <time>2020-03-01T09:36:28.000Z</time>
      </trkpt>
      <trkpt lat="45.15862" lon="5.28132">
        <ele>584.59997558594</ele>
        <time>2020-03-01T09:36:29.000Z</time>
      </trkpt>
      <trkpt lat="45.15864" lon="5.28132">
        <ele>584.79998779297</ele>
        <time>2020-03-01T09:36:30.000Z</time>
      </trkpt>
      <trkpt lat="45.15865" lon="5.28131">
        <ele>584.79998779297</ele>
        <time>2020-03-01T09:36:31.000Z</time>
      </trkpt>
      <trkpt lat="45.15865" lon="5.28128">
        <ele>585</ele>
        <time>2020-03-01T09:36:32.000Z</time>
      </trkpt>
      <trkpt lat="45.15866" lon="5.28126">
        <ele>585.20001220703</ele>
        <time>2020-03-01T09:36:33.000Z</time>
      </trkpt>
      <trkpt lat="45.15866" lon="5.28125">
        <ele>585.40002441406</ele>
        <time>2020-03-01T09:36:34.000Z</time>
      </trkpt>
      <trkpt lat="45.15868" lon="5.28125">
        <ele>585.40002441406</ele>
        <time>2020-03-01T09:36:35.000Z</time>
      </trkpt>
      <trkpt lat="45.15869" lon="5.28125">
        <ele>585.59997558594</ele>
        <time>2020-03-01T09:36:36.000Z</time>
      </trkpt>
      <trkpt lat="45.1587" lon="5.28126">
        <ele>585.79998779297</ele>
        <time>2020-03-01T09:36:37.000Z</time>
      </trkpt>
      <trkpt lat="45.15872" lon="5.28126">
        <ele>586</ele>
        <time>2020-03-01T09:36:38.000Z</time>
      </trkpt>
      <trkpt lat="45.15874" lon="5.28127">
        <ele>586</ele>
        <time>2020-03-01T09:36:39.000Z</time>
      </trkpt>
      <trkpt lat="45.15875" lon="5.28128">
        <ele>586</ele>
        <time>2020-03-01T09:36:40.000Z</time>
      </trkpt>
      <trkpt lat="45.15877" lon="5.28128">
        <ele>586.20001220703</ele>
        <time>2020-03-01T09:36:41.000Z</time>
      </trkpt>
      <trkpt lat="45.1588" lon="5.28128">
        <ele>586.20001220703</ele>
        <time>2020-03-01T09:36:42.000Z</time>
      </trkpt>
      <trkpt lat="45.15881" lon="5.28128">
        <ele>586.40002441406</ele>
        <time>2020-03-01T09:36:43.000Z</time>
      </trkpt>
      <trkpt lat="45.15883" lon="5.28128">
        <ele>586.20001220703</ele>
        <time>2020-03-01T09:36:44.000Z</time>
      </trkpt>
      <trkpt lat="45.15885" lon="5.28128">
        <ele>586.20001220703</ele>
        <time>2020-03-01T09:36:45.000Z</time>
      </trkpt>
      <trkpt lat="45.15887" lon="5.28128">
        <ele>586.40002441406</ele>
        <time>2020-03-01T09:36:46.000Z</time>
      </trkpt>
      <trkpt lat="45.15889" lon="5.28128">
        <ele>586.79998779297</ele>
        <time>2020-03-01T09:36:47.000Z</time>
      </trkpt>
      <trkpt lat="45.15891" lon="5.28127">
        <ele>586.79998779297</ele>
        <time>2020-03-01T09:36:48.000Z</time>
      </trkpt>
      <trkpt lat="45.15893" lon="5.28128">
        <ele>587</ele>
        <time>2020-03-01T09:36:49.000Z</time>
      </trkpt>
      <trkpt lat="45.15894" lon="5.28128">
        <ele>587.20001220703</ele>
        <time>2020-03-01T09:36:50.000Z</time>
      </trkpt>
      <trkpt lat="45.15895" lon="5.28128">
        <ele>587.40002441406</ele>
        <time>2020-03-01T09:36:51.000Z</time>
      </trkpt>
      <trkpt lat="45.15897" lon="5.28127">
        <ele>587.40002441406</ele>
        <time>2020-03-01T09:36:52.000Z</time>
      </trkpt>
      <trkpt lat="45.15899" lon="5.28127">
        <ele>587.79998779297</ele>
        <time>2020-03-01T09:36:53.000Z</time>
      </trkpt>
      <trkpt lat="45.159" lon="5.28128">
        <ele>588</ele>
        <time>2020-03-01T09:36:54.000Z</time>
      </trkpt>
      <trkpt lat="45.15902" lon="5.28128">
        <ele>588.40002441406</ele>
        <time>2020-03-01T09:36:55.000Z</time>
      </trkpt>
      <trkpt lat="45.15904" lon="5.28128">
        <ele>588.59997558594</ele>
        <time>2020-03-01T09:36:56.000Z</time>
      </trkpt>
      <trkpt lat="45.15905" lon="5.28128">
        <ele>588.79998779297</ele>
        <time>2020-03-01T09:36:57.000Z</time>
      </trkpt>
      <trkpt lat="45.15907" lon="5.28128">
        <ele>589</ele>
        <time>2020-03-01T09:36:58.000Z</time>
      </trkpt>
      <trkpt lat="45.15908" lon="5.28128">
        <ele>589.20001220703</ele>
        <time>2020-03-01T09:36:59.000Z</time>
      </trkpt>
      <trkpt lat="45.15909" lon="5.28128">
        <ele>589.20001220703</ele>
        <time>2020-03-01T09:37:00.000Z</time>
      </trkpt>
      <trkpt lat="45.1591" lon="5.28128">
        <ele>589.40002441406</ele>
        <time>2020-03-01T09:37:01.000Z</time>
      </trkpt>
      <trkpt lat="45.15912" lon="5.28128">
        <ele>589.40002441406</ele>
        <time>2020-03-01T09:37:02.000Z</time>
      </trkpt>
      <trkpt lat="45.15914" lon="5.28128">
        <ele>589.59997558594</ele>
        <time>2020-03-01T09:37:03.000Z</time>
      </trkpt>
      <trkpt lat="45.15915" lon="5.28129">
        <ele>589.59997558594</ele>
        <time>2020-03-01T09:37:04.000Z</time>
      </trkpt>
      <trkpt lat="45.15916" lon="5.2813">
        <ele>589.59997558594</ele>
        <time>2020-03-01T09:37:05.000Z</time>
      </trkpt>
      <trkpt lat="45.15919" lon="5.28131">
        <ele>589.79998779297</ele>
        <time>2020-03-01T09:37:06.000Z</time>
      </trkpt>
      <trkpt lat="45.1592" lon="5.28131">
        <ele>589.79998779297</ele>
        <time>2020-03-01T09:37:07.000Z</time>
      </trkpt>
      <trkpt lat="45.15922" lon="5.28132">
        <ele>590</ele>
        <time>2020-03-01T09:37:08.000Z</time>
      </trkpt>
      <trkpt lat="45.15923" lon="5.28132">
        <ele>590</ele>
        <time>2020-03-01T09:37:09.000Z</time>
      </trkpt>
      <trkpt lat="45.15926" lon="5.28133">
        <ele>590</ele>
        <time>2020-03-01T09:37:10.000Z</time>
      </trkpt>
      <trkpt lat="45.15927" lon="5.28134">
        <ele>590.20001220703</ele>
        <time>2020-03-01T09:37:11.000Z</time>
      </trkpt>
      <trkpt lat="45.1593" lon="5.28135">
        <ele>590.40002441406</ele>
        <time>2020-03-01T09:37:12.000Z</time>
      </trkpt>
      <trkpt lat="45.15932" lon="5.28136">
        <ele>590.20001220703</ele>
        <time>2020-03-01T09:37:13.000Z</time>
      </trkpt>
      <trkpt lat="45.15933" lon="5.28137">
        <ele>590.20001220703</ele>
        <time>2020-03-01T09:37:14.000Z</time>
      </trkpt>
      <trkpt lat="45.15934" lon="5.28138">
        <ele>590.40002441406</ele>
        <time>2020-03-01T09:37:15.000Z</time>
      </trkpt>
      <trkpt lat="45.15936" lon="5.28139">
        <ele>590.59997558594</ele>
        <time>2020-03-01T09:37:16.000Z</time>
      </trkpt>
      <trkpt lat="45.15938" lon="5.2814">
        <ele>590.40002441406</ele>
        <time>2020-03-01T09:37:17.000Z</time>
      </trkpt>
      <trkpt lat="45.1594" lon="5.2814">
        <ele>590.20001220703</ele>
        <time>2020-03-01T09:37:18.000Z</time>
      </trkpt>
      <trkpt lat="45.15942" lon="5.28141">
        <ele>590.20001220703</ele>
        <time>2020-03-01T09:37:19.000Z</time>
      </trkpt>
      <trkpt lat="45.15946" lon="5.28142">
        <ele>590.40002441406</ele>
        <time>2020-03-01T09:37:20.000Z</time>
      </trkpt>
      <trkpt lat="45.15948" lon="5.28144">
        <ele>590.20001220703</ele>
        <time>2020-03-01T09:37:21.000Z</time>
      </trkpt>
      <trkpt lat="45.15951" lon="5.28146">
        <ele>590</ele>
        <time>2020-03-01T09:37:22.000Z</time>
      </trkpt>
      <trkpt lat="45.15954" lon="5.28148">
        <ele>590.20001220703</ele>
        <time>2020-03-01T09:37:23.000Z</time>
      </trkpt>
      <trkpt lat="45.15958" lon="5.28151">
        <ele>590.20001220703</ele>
        <time>2020-03-01T09:37:24.000Z</time>
      </trkpt>
      <trkpt lat="45.15961" lon="5.28153">
        <ele>590.20001220703</ele>
        <time>2020-03-01T09:37:25.000Z</time>
      </trkpt>
      <trkpt lat="45.15964" lon="5.28153">
        <ele>590.20001220703</ele>
        <time>2020-03-01T09:37:26.000Z</time>
      </trkpt>
      <trkpt lat="45.15966" lon="5.28154">
        <ele>590.20001220703</ele>
        <time>2020-03-01T09:37:27.000Z</time>
      </trkpt>
      <trkpt lat="45.1597" lon="5.28155">
        <ele>590.40002441406</ele>
        <time>2020-03-01T09:37:28.000Z</time>
      </trkpt>
      <trkpt lat="45.15972" lon="5.28157">
        <ele>590.20001220703</ele>
        <time>2020-03-01T09:37:29.000Z</time>
      </trkpt>
      <trkpt lat="45.15973" lon="5.28158">
        <ele>590</ele>
        <time>2020-03-01T09:37:30.000Z</time>
      </trkpt>
      <trkpt lat="45.15975" lon="5.28158">
        <ele>590.20001220703</ele>
        <time>2020-03-01T09:37:31.000Z</time>
      </trkpt>
      <trkpt lat="45.15978" lon="5.28159">
        <ele>590.20001220703</ele>
        <time>2020-03-01T09:37:32.000Z</time>
      </trkpt>
      <trkpt lat="45.15984" lon="5.28162">
        <ele>590.20001220703</ele>
        <time>2020-03-01T09:37:33.000Z</time>
      </trkpt>
      <trkpt lat="45.15987" lon="5.28164">
        <ele>590</ele>
        <time>2020-03-01T09:37:34.000Z</time>
      </trkpt>
      <trkpt lat="45.15989" lon="5.28165">
        <ele>590.20001220703</ele>
        <time>2020-03-01T09:37:35.000Z</time>
      </trkpt>
      <trkpt lat="45.15991" lon="5.28165">
        <ele>590.40002441406</ele>
        <time>2020-03-01T09:37:36.000Z</time>
      </trkpt>
      <trkpt lat="45.15993" lon="5.28166">
        <ele>590.40002441406</ele>
        <time>2020-03-01T09:37:37.000Z</time>
      </trkpt>
      <trkpt lat="45.15996" lon="5.28167">
        <ele>590.59997558594</ele>
        <time>2020-03-01T09:37:38.000Z</time>
      </trkpt>
      <trkpt lat="45.15997" lon="5.28167">
        <ele>590.59997558594</ele>
        <time>2020-03-01T09:37:39.000Z</time>
      </trkpt>
      <trkpt lat="45.15999" lon="5.28167">
        <ele>590.79998779297</ele>
        <time>2020-03-01T09:37:40.000Z</time>
      </trkpt>
      <trkpt lat="45.16004" lon="5.28169">
        <ele>590.79998779297</ele>
        <time>2020-03-01T09:37:41.000Z</time>
      </trkpt>
      <trkpt lat="45.16006" lon="5.2817">
        <ele>590.79998779297</ele>
        <time>2020-03-01T09:37:42.000Z</time>
      </trkpt>
      <trkpt lat="45.16008" lon="5.28169">
        <ele>590.79998779297</ele>
        <time>2020-03-01T09:37:43.000Z</time>
      </trkpt>
      <trkpt lat="45.1601" lon="5.2817">
        <ele>591.20001220703</ele>
        <time>2020-03-01T09:37:44.000Z</time>
      </trkpt>
      <trkpt lat="45.16013" lon="5.28171">
        <ele>591.20001220703</ele>
        <time>2020-03-01T09:37:45.000Z</time>
      </trkpt>
      <trkpt lat="45.16014" lon="5.28171">
        <ele>591.20001220703</ele>
        <time>2020-03-01T09:37:46.000Z</time>
      </trkpt>
      <trkpt lat="45.16015" lon="5.28172">
        <ele>591.40002441406</ele>
        <time>2020-03-01T09:37:47.000Z</time>
      </trkpt>
      <trkpt lat="45.16016" lon="5.28172">
        <ele>591.79998779297</ele>
        <time>2020-03-01T09:37:48.000Z</time>
      </trkpt>
      <trkpt lat="45.16016" lon="5.28172">
        <ele>591.79998779297</ele>
        <time>2020-03-01T09:37:49.000Z</time>
      </trkpt>
      <trkpt lat="45.16016" lon="5.28172">
        <ele>591.79998779297</ele>
        <time>2020-03-01T09:37:50.000Z</time>
      </trkpt>
      <trkpt lat="45.16017" lon="5.28172">
        <ele>591.59997558594</ele>
        <time>2020-03-01T09:37:51.000Z</time>
      </trkpt>
      <trkpt lat="45.16017" lon="5.28172">
        <ele>591.79998779297</ele>
        <time>2020-03-01T09:37:52.000Z</time>
      </trkpt>
      <trkpt lat="45.16018" lon="5.28172">
        <ele>591.79998779297</ele>
        <time>2020-03-01T09:37:53.000Z</time>
      </trkpt>
      <trkpt lat="45.16019" lon="5.28171">
        <ele>591.59997558594</ele>
        <time>2020-03-01T09:37:54.000Z</time>
      </trkpt>
      <trkpt lat="45.1602" lon="5.28171">
        <ele>591.59997558594</ele>
        <time>2020-03-01T09:37:55.000Z</time>
      </trkpt>
      <trkpt lat="45.16021" lon="5.28172">
        <ele>591.79998779297</ele>
        <time>2020-03-01T09:37:56.000Z</time>
      </trkpt>
      <trkpt lat="45.16022" lon="5.28172">
        <ele>591.79998779297</ele>
        <time>2020-03-01T09:37:57.000Z</time>
      </trkpt>
      <trkpt lat="45.16024" lon="5.28172">
        <ele>592.20001220703</ele>
        <time>2020-03-01T09:37:58.000Z</time>
      </trkpt>
      <trkpt lat="45.16026" lon="5.28173">
        <ele>592.20001220703</ele>
        <time>2020-03-01T09:37:59.000Z</time>
      </trkpt>
      <trkpt lat="45.16027" lon="5.28173">
        <ele>592.40002441406</ele>
        <time>2020-03-01T09:38:00.000Z</time>
      </trkpt>
      <trkpt lat="45.16028" lon="5.28173">
        <ele>592.59997558594</ele>
        <time>2020-03-01T09:38:01.000Z</time>
      </trkpt>
      <trkpt lat="45.16029" lon="5.28173">
        <ele>592.59997558594</ele>
        <time>2020-03-01T09:38:02.000Z</time>
      </trkpt>
      <trkpt lat="45.1603" lon="5.28173">
        <ele>592.40002441406</ele>
        <time>2020-03-01T09:38:03.000Z</time>
      </trkpt>
      <trkpt lat="45.16032" lon="5.28173">
        <ele>592.40002441406</ele>
        <time>2020-03-01T09:38:04.000Z</time>
      </trkpt>
      <trkpt lat="45.16034" lon="5.28173">
        <ele>592.40002441406</ele>
        <time>2020-03-01T09:38:05.000Z</time>
      </trkpt>
      <trkpt lat="45.16035" lon="5.28173">
        <ele>592.40002441406</ele>
        <time>2020-03-01T09:38:06.000Z</time>
      </trkpt>
      <trkpt lat="45.16036" lon="5.28173">
        <ele>592.20001220703</ele>
        <time>2020-03-01T09:38:07.000Z</time>
      </trkpt>
      <trkpt lat="45.16036" lon="5.28173">
        <ele>592.20001220703</ele>
        <time>2020-03-01T09:38:08.000Z</time>
      </trkpt>
      <trkpt lat="45.16037" lon="5.28173">
        <ele>592.20001220703</ele>
        <time>2020-03-01T09:38:09.000Z</time>
      </trkpt>
      <trkpt lat="45.16038" lon="5.28173">
        <ele>592.20001220703</ele>
        <time>2020-03-01T09:38:10.000Z</time>
      </trkpt>
      <trkpt lat="45.16039" lon="5.28173">
        <ele>592.20001220703</ele>
        <time>2020-03-01T09:38:11.000Z</time>
      </trkpt>
      <trkpt lat="45.16041" lon="5.28172">
        <ele>592.20001220703</ele>
        <time>2020-03-01T09:38:12.000Z</time>
      </trkpt>
      <trkpt lat="45.16041" lon="5.28172">
        <ele>592.20001220703</ele>
        <time>2020-03-01T09:38:13.000Z</time>
      </trkpt>
      <trkpt lat="45.16042" lon="5.28172">
        <ele>592.20001220703</ele>
        <time>2020-03-01T09:38:14.000Z</time>
      </trkpt>
      <trkpt lat="45.16043" lon="5.28172">
        <ele>592.20001220703</ele>
        <time>2020-03-01T09:38:15.000Z</time>
      </trkpt>
      <trkpt lat="45.16044" lon="5.28172">
        <ele>592.40002441406</ele>
        <time>2020-03-01T09:38:16.000Z</time>
      </trkpt>
      <trkpt lat="45.16043" lon="5.28171">
        <ele>592.40002441406</ele>
        <time>2020-03-01T09:38:17.000Z</time>
      </trkpt>
      <trkpt lat="45.16043" lon="5.28171">
        <ele>592.40002441406</ele>
        <time>2020-03-01T09:38:18.000Z</time>
      </trkpt>
      <trkpt lat="45.16042" lon="5.28171">
        <ele>592.20001220703</ele>
        <time>2020-03-01T09:38:19.000Z</time>
      </trkpt>
      <trkpt lat="45.16041" lon="5.2817">
        <ele>592.20001220703</ele>
        <time>2020-03-01T09:38:20.000Z</time>
      </trkpt>
      <trkpt lat="45.16041" lon="5.28168">
        <ele>592.20001220703</ele>
        <time>2020-03-01T09:38:21.000Z</time>
      </trkpt>
      <trkpt lat="45.16041" lon="5.28166">
        <ele>592.20001220703</ele>
        <time>2020-03-01T09:38:22.000Z</time>
      </trkpt>
      <trkpt lat="45.1604" lon="5.28164">
        <ele>592.20001220703</ele>
        <time>2020-03-01T09:38:23.000Z</time>
      </trkpt>
      <trkpt lat="45.1604" lon="5.28162">
        <ele>592</ele>
        <time>2020-03-01T09:38:24.000Z</time>
      </trkpt>
      <trkpt lat="45.1604" lon="5.28158">
        <ele>592.20001220703</ele>
        <time>2020-03-01T09:38:25.000Z</time>
      </trkpt>
      <trkpt lat="45.1604" lon="5.28157">
        <ele>592</ele>
        <time>2020-03-01T09:38:26.000Z</time>
      </trkpt>
      <trkpt lat="45.16042" lon="5.28155">
        <ele>592.20001220703</ele>
        <time>2020-03-01T09:38:27.000Z</time>
      </trkpt>
      <trkpt lat="45.16045" lon="5.28153">
        <ele>592.20001220703</ele>
        <time>2020-03-01T09:38:28.000Z</time>
      </trkpt>
      <trkpt lat="45.16045" lon="5.28149">
        <ele>592.59997558594</ele>
        <time>2020-03-01T09:38:29.000Z</time>
      </trkpt>
      <trkpt lat="45.16046" lon="5.28148">
        <ele>592.59997558594</ele>
        <time>2020-03-01T09:38:30.000Z</time>
      </trkpt>
      <trkpt lat="45.16045" lon="5.28146">
        <ele>592.79998779297</ele>
        <time>2020-03-01T09:38:31.000Z</time>
      </trkpt>
      <trkpt lat="45.16046" lon="5.28142">
        <ele>592.79998779297</ele>
        <time>2020-03-01T09:38:32.000Z</time>
      </trkpt>
      <trkpt lat="45.16046" lon="5.2814">
        <ele>593</ele>
        <time>2020-03-01T09:38:33.000Z</time>
      </trkpt>
      <trkpt lat="45.16047" lon="5.28139">
        <ele>593</ele>
        <time>2020-03-01T09:38:34.000Z</time>
      </trkpt>
      <trkpt lat="45.16048" lon="5.28137">
        <ele>593</ele>
        <time>2020-03-01T09:38:35.000Z</time>
      </trkpt>
      <trkpt lat="45.16049" lon="5.28135">
        <ele>592.79998779297</ele>
        <time>2020-03-01T09:38:36.000Z</time>
      </trkpt>
      <trkpt lat="45.16049" lon="5.28132">
        <ele>593</ele>
        <time>2020-03-01T09:38:37.000Z</time>
      </trkpt>
      <trkpt lat="45.16049" lon="5.2813">
        <ele>593</ele>
        <time>2020-03-01T09:38:38.000Z</time>
      </trkpt>
      <trkpt lat="45.16049" lon="5.28127">
        <ele>592.79998779297</ele>
        <time>2020-03-01T09:38:39.000Z</time>
      </trkpt>
      <trkpt lat="45.1605" lon="5.28125">
        <ele>592.59997558594</ele>
        <time>2020-03-01T09:38:40.000Z</time>
      </trkpt>
      <trkpt lat="45.16051" lon="5.28123">
        <ele>592.79998779297</ele>
        <time>2020-03-01T09:38:41.000Z</time>
      </trkpt>
      <trkpt lat="45.16051" lon="5.28121">
        <ele>592.59997558594</ele>
        <time>2020-03-01T09:38:42.000Z</time>
      </trkpt>
      <trkpt lat="45.16053" lon="5.2812">
        <ele>592.59997558594</ele>
        <time>2020-03-01T09:38:43.000Z</time>
      </trkpt>
      <trkpt lat="45.16055" lon="5.28118">
        <ele>592.40002441406</ele>
        <time>2020-03-01T09:38:44.000Z</time>
      </trkpt>
      <trkpt lat="45.16057" lon="5.28117">
        <ele>592.59997558594</ele>
        <time>2020-03-01T09:38:45.000Z</time>
      </trkpt>
      <trkpt lat="45.16057" lon="5.28114">
        <ele>592.59997558594</ele>
        <time>2020-03-01T09:38:46.000Z</time>
      </trkpt>
      <trkpt lat="45.16057" lon="5.28111">
        <ele>592.79998779297</ele>
        <time>2020-03-01T09:38:47.000Z</time>
      </trkpt>
      <trkpt lat="45.16058" lon="5.28109">
        <ele>592.59997558594</ele>
        <time>2020-03-01T09:38:48.000Z</time>
      </trkpt>
      <trkpt lat="45.16058" lon="5.28106">
        <ele>592.79998779297</ele>
        <time>2020-03-01T09:38:49.000Z</time>
      </trkpt>
      <trkpt lat="45.16058" lon="5.28103">
        <ele>592.59997558594</ele>
        <time>2020-03-01T09:38:50.000Z</time>
      </trkpt>
      <trkpt lat="45.16058" lon="5.28101">
        <ele>592.59997558594</ele>
        <time>2020-03-01T09:38:51.000Z</time>
      </trkpt>
      <trkpt lat="45.16058" lon="5.28098">
        <ele>592.40002441406</ele>
        <time>2020-03-01T09:38:52.000Z</time>
      </trkpt>
      <trkpt lat="45.16059" lon="5.28093">
        <ele>592.59997558594</ele>
        <time>2020-03-01T09:38:53.000Z</time>
      </trkpt>
      <trkpt lat="45.16059" lon="5.2809">
        <ele>592.40002441406</ele>
        <time>2020-03-01T09:38:54.000Z</time>
      </trkpt>
      <trkpt lat="45.16061" lon="5.28086">
        <ele>592.59997558594</ele>
        <time>2020-03-01T09:38:55.000Z</time>
      </trkpt>
      <trkpt lat="45.16063" lon="5.28083">
        <ele>592.40002441406</ele>
        <time>2020-03-01T09:38:56.000Z</time>
      </trkpt>
      <trkpt lat="45.16065" lon="5.28081">
        <ele>592.59997558594</ele>
        <time>2020-03-01T09:38:57.000Z</time>
      </trkpt>
      <trkpt lat="45.16069" lon="5.28078">
        <ele>592.40002441406</ele>
        <time>2020-03-01T09:38:58.000Z</time>
      </trkpt>
      <trkpt lat="45.16072" lon="5.28075">
        <ele>592.40002441406</ele>
        <time>2020-03-01T09:38:59.000Z</time>
      </trkpt>
      <trkpt lat="45.16073" lon="5.28073">
        <ele>592.20001220703</ele>
        <time>2020-03-01T09:39:00.000Z</time>
      </trkpt>
      <trkpt lat="45.16073" lon="5.2807">
        <ele>592.20001220703</ele>
        <time>2020-03-01T09:39:01.000Z</time>
      </trkpt>
      <trkpt lat="45.16073" lon="5.28068">
        <ele>592</ele>
        <time>2020-03-01T09:39:02.000Z</time>
      </trkpt>
      <trkpt lat="45.16073" lon="5.28065">
        <ele>592</ele>
        <time>2020-03-01T09:39:03.000Z</time>
      </trkpt>
      <trkpt lat="45.16077" lon="5.28064">
        <ele>592</ele>
        <time>2020-03-01T09:39:04.000Z</time>
      </trkpt>
      <trkpt lat="45.16078" lon="5.28061">
        <ele>592</ele>
        <time>2020-03-01T09:39:05.000Z</time>
      </trkpt>
      <trkpt lat="45.16079" lon="5.28058">
        <ele>592</ele>
        <time>2020-03-01T09:39:06.000Z</time>
      </trkpt>
      <trkpt lat="45.16082" lon="5.28056">
        <ele>592</ele>
        <time>2020-03-01T09:39:07.000Z</time>
      </trkpt>
      <trkpt lat="45.16087" lon="5.28054">
        <ele>592</ele>
        <time>2020-03-01T09:39:08.000Z</time>
      </trkpt>
      <trkpt lat="45.16088" lon="5.28052">
        <ele>592</ele>
        <time>2020-03-01T09:39:09.000Z</time>
      </trkpt>
      <trkpt lat="45.16091" lon="5.2805">
        <ele>592.20001220703</ele>
        <time>2020-03-01T09:39:10.000Z</time>
      </trkpt>
      <trkpt lat="45.16093" lon="5.28049">
        <ele>592.20001220703</ele>
        <time>2020-03-01T09:39:11.000Z</time>
      </trkpt>
      <trkpt lat="45.16094" lon="5.28047">
        <ele>592</ele>
        <time>2020-03-01T09:39:12.000Z</time>
      </trkpt>
      <trkpt lat="45.16153" lon="5.28059">
        <ele>592</ele>
        <time>2020-03-01T09:39:13.000Z</time>
      </trkpt>
      <trkpt lat="45.16171" lon="5.28061">
        <ele>592.20001220703</ele>
        <time>2020-03-01T09:39:14.000Z</time>
      </trkpt>
      <trkpt lat="45.16177" lon="5.2806">
        <ele>592.20001220703</ele>
        <time>2020-03-01T09:39:15.000Z</time>
      </trkpt>
      <trkpt lat="45.16183" lon="5.28058">
        <ele>592.20001220703</ele>
        <time>2020-03-01T09:39:16.000Z</time>
      </trkpt>
      <trkpt lat="45.16186" lon="5.28056">
        <ele>592.20001220703</ele>
        <time>2020-03-01T09:39:17.000Z</time>
      </trkpt>
      <trkpt lat="45.16191" lon="5.28056">
        <ele>592.20001220703</ele>
        <time>2020-03-01T09:39:18.000Z</time>
      </trkpt>
      <trkpt lat="45.16195" lon="5.28055">
        <ele>592.20001220703</ele>
        <time>2020-03-01T09:39:19.000Z</time>
      </trkpt>
      <trkpt lat="45.16198" lon="5.28053">
        <ele>592.20001220703</ele>
        <time>2020-03-01T09:39:20.000Z</time>
      </trkpt>
      <trkpt lat="45.16201" lon="5.2805">
        <ele>592.20001220703</ele>
        <time>2020-03-01T09:39:21.000Z</time>
      </trkpt>
      <trkpt lat="45.16205" lon="5.28049">
        <ele>592.20001220703</ele>
        <time>2020-03-01T09:39:22.000Z</time>
      </trkpt>
      <trkpt lat="45.16208" lon="5.28046">
        <ele>592.40002441406</ele>
        <time>2020-03-01T09:39:23.000Z</time>
      </trkpt>
      <trkpt lat="45.1621" lon="5.28044">
        <ele>592.40002441406</ele>
        <time>2020-03-01T09:39:24.000Z</time>
      </trkpt>
      <trkpt lat="45.16212" lon="5.28043">
        <ele>592.40002441406</ele>
        <time>2020-03-01T09:39:25.000Z</time>
      </trkpt>
      <trkpt lat="45.16214" lon="5.28041">
        <ele>592.40002441406</ele>
        <time>2020-03-01T09:39:26.000Z</time>
      </trkpt>
      <trkpt lat="45.16215" lon="5.28039">
        <ele>592.59997558594</ele>
        <time>2020-03-01T09:39:27.000Z</time>
      </trkpt>
      <trkpt lat="45.16217" lon="5.28036">
        <ele>592.59997558594</ele>
        <time>2020-03-01T09:39:28.000Z</time>
      </trkpt>
      <trkpt lat="45.16219" lon="5.28034">
        <ele>592.79998779297</ele>
        <time>2020-03-01T09:39:29.000Z</time>
      </trkpt>
      <trkpt lat="45.1622" lon="5.28031">
        <ele>592.79998779297</ele>
        <time>2020-03-01T09:39:30.000Z</time>
      </trkpt>
      <trkpt lat="45.16221" lon="5.28029">
        <ele>593</ele>
        <time>2020-03-01T09:39:31.000Z</time>
      </trkpt>
      <trkpt lat="45.16223" lon="5.28027">
        <ele>592.79998779297</ele>
        <time>2020-03-01T09:39:32.000Z</time>
      </trkpt>
      <trkpt lat="45.16224" lon="5.28025">
        <ele>592.79998779297</ele>
        <time>2020-03-01T09:39:33.000Z</time>
      </trkpt>
      <trkpt lat="45.16225" lon="5.28023">
        <ele>592.79998779297</ele>
        <time>2020-03-01T09:39:34.000Z</time>
      </trkpt>
      <trkpt lat="45.16226" lon="5.28021">
        <ele>592.79998779297</ele>
        <time>2020-03-01T09:39:35.000Z</time>
      </trkpt>
      <trkpt lat="45.16227" lon="5.2802">
        <ele>592.59997558594</ele>
        <time>2020-03-01T09:39:36.000Z</time>
      </trkpt>
      <trkpt lat="45.16229" lon="5.28017">
        <ele>592.79998779297</ele>
        <time>2020-03-01T09:39:37.000Z</time>
      </trkpt>
      <trkpt lat="45.16231" lon="5.28014">
        <ele>592.79998779297</ele>
        <time>2020-03-01T09:39:38.000Z</time>
      </trkpt>
      <trkpt lat="45.16232" lon="5.28011">
        <ele>592.79998779297</ele>
        <time>2020-03-01T09:39:39.000Z</time>
      </trkpt>
      <trkpt lat="45.16234" lon="5.28009">
        <ele>592.79998779297</ele>
        <time>2020-03-01T09:39:40.000Z</time>
      </trkpt>
      <trkpt lat="45.16235" lon="5.28006">
        <ele>592.79998779297</ele>
        <time>2020-03-01T09:39:41.000Z</time>
      </trkpt>
      <trkpt lat="45.16237" lon="5.28003">
        <ele>593</ele>
        <time>2020-03-01T09:39:42.000Z</time>
      </trkpt>
      <trkpt lat="45.16239" lon="5.28001">
        <ele>592.79998779297</ele>
        <time>2020-03-01T09:39:43.000Z</time>
      </trkpt>
      <trkpt lat="45.1624" lon="5.27998">
        <ele>592.79998779297</ele>
        <time>2020-03-01T09:39:44.000Z</time>
      </trkpt>
      <trkpt lat="45.16241" lon="5.27996">
        <ele>592.79998779297</ele>
        <time>2020-03-01T09:39:45.000Z</time>
      </trkpt>
      <trkpt lat="45.16242" lon="5.27994">
        <ele>593</ele>
        <time>2020-03-01T09:39:46.000Z</time>
      </trkpt>
      <trkpt lat="45.16243" lon="5.27991">
        <ele>593</ele>
        <time>2020-03-01T09:39:47.000Z</time>
      </trkpt>
      <trkpt lat="45.16245" lon="5.27989">
        <ele>593</ele>
        <time>2020-03-01T09:39:48.000Z</time>
      </trkpt>
      <trkpt lat="45.16247" lon="5.27987">
        <ele>593.20001220703</ele>
        <time>2020-03-01T09:39:49.000Z</time>
      </trkpt>
      <trkpt lat="45.16249" lon="5.27984">
        <ele>593.20001220703</ele>
        <time>2020-03-01T09:39:50.000Z</time>
      </trkpt>
      <trkpt lat="45.16251" lon="5.27982">
        <ele>593.20001220703</ele>
        <time>2020-03-01T09:39:51.000Z</time>
      </trkpt>
      <trkpt lat="45.16251" lon="5.27975">
        <ele>593.20001220703</ele>
        <time>2020-03-01T09:39:52.000Z</time>
      </trkpt>
      <trkpt lat="45.16253" lon="5.27973">
        <ele>593.20001220703</ele>
        <time>2020-03-01T09:39:53.000Z</time>
      </trkpt>
      <trkpt lat="45.16255" lon="5.27971">
        <ele>593.40002441406</ele>
        <time>2020-03-01T09:39:54.000Z</time>
      </trkpt>
      <trkpt lat="45.16257" lon="5.27969">
        <ele>593.40002441406</ele>
        <time>2020-03-01T09:39:55.000Z</time>
      </trkpt>
      <trkpt lat="45.16259" lon="5.27967">
        <ele>593.40002441406</ele>
        <time>2020-03-01T09:39:56.000Z</time>
      </trkpt>
      <trkpt lat="45.16261" lon="5.27965">
        <ele>593.40002441406</ele>
        <time>2020-03-01T09:39:57.000Z</time>
      </trkpt>
      <trkpt lat="45.16262" lon="5.27963">
        <ele>593.59997558594</ele>
        <time>2020-03-01T09:39:58.000Z</time>
      </trkpt>
      <trkpt lat="45.16264" lon="5.27961">
        <ele>593.59997558594</ele>
        <time>2020-03-01T09:39:59.000Z</time>
      </trkpt>
      <trkpt lat="45.16266" lon="5.27959">
        <ele>593.79998779297</ele>
        <time>2020-03-01T09:40:00.000Z</time>
      </trkpt>
      <trkpt lat="45.16268" lon="5.27957">
        <ele>593.79998779297</ele>
        <time>2020-03-01T09:40:01.000Z</time>
      </trkpt>
      <trkpt lat="45.1627" lon="5.27955">
        <ele>594</ele>
        <time>2020-03-01T09:40:02.000Z</time>
      </trkpt>
      <trkpt lat="45.16271" lon="5.27951">
        <ele>594</ele>
        <time>2020-03-01T09:40:03.000Z</time>
      </trkpt>
      <trkpt lat="45.16271" lon="5.27948">
        <ele>594</ele>
        <time>2020-03-01T09:40:04.000Z</time>
      </trkpt>
      <trkpt lat="45.16272" lon="5.27945">
        <ele>594</ele>
        <time>2020-03-01T09:40:05.000Z</time>
      </trkpt>
      <trkpt lat="45.16274" lon="5.27942">
        <ele>594.59997558594</ele>
        <time>2020-03-01T09:40:06.000Z</time>
      </trkpt>
      <trkpt lat="45.16275" lon="5.2794">
        <ele>594.40002441406</ele>
        <time>2020-03-01T09:40:07.000Z</time>
      </trkpt>
      <trkpt lat="45.16276" lon="5.27938">
        <ele>594.40002441406</ele>
        <time>2020-03-01T09:40:08.000Z</time>
      </trkpt>
      <trkpt lat="45.16278" lon="5.27936">
        <ele>594.40002441406</ele>
        <time>2020-03-01T09:40:09.000Z</time>
      </trkpt>
      <trkpt lat="45.1628" lon="5.27934">
        <ele>594.79998779297</ele>
        <time>2020-03-01T09:40:10.000Z</time>
      </trkpt>
      <trkpt lat="45.16281" lon="5.27932">
        <ele>594.79998779297</ele>
        <time>2020-03-01T09:40:11.000Z</time>
      </trkpt>
      <trkpt lat="45.16283" lon="5.2793">
        <ele>594.79998779297</ele>
        <time>2020-03-01T09:40:12.000Z</time>
      </trkpt>
      <trkpt lat="45.16285" lon="5.27928">
        <ele>594.79998779297</ele>
        <time>2020-03-01T09:40:13.000Z</time>
      </trkpt>
      <trkpt lat="45.16286" lon="5.27926">
        <ele>595</ele>
        <time>2020-03-01T09:40:14.000Z</time>
      </trkpt>
      <trkpt lat="45.16287" lon="5.27922">
        <ele>595</ele>
        <time>2020-03-01T09:40:15.000Z</time>
      </trkpt>
      <trkpt lat="45.1629" lon="5.27921">
        <ele>595</ele>
        <time>2020-03-01T09:40:16.000Z</time>
      </trkpt>
      <trkpt lat="45.16292" lon="5.27919">
        <ele>595</ele>
        <time>2020-03-01T09:40:17.000Z</time>
      </trkpt>
      <trkpt lat="45.16294" lon="5.27917">
        <ele>595</ele>
        <time>2020-03-01T09:40:18.000Z</time>
      </trkpt>
      <trkpt lat="45.16296" lon="5.27914">
        <ele>595</ele>
        <time>2020-03-01T09:40:19.000Z</time>
      </trkpt>
      <trkpt lat="45.16299" lon="5.27911">
        <ele>595</ele>
        <time>2020-03-01T09:40:20.000Z</time>
      </trkpt>
      <trkpt lat="45.16301" lon="5.27908">
        <ele>595</ele>
        <time>2020-03-01T09:40:21.000Z</time>
      </trkpt>
      <trkpt lat="45.16304" lon="5.27905">
        <ele>595.20001220703</ele>
        <time>2020-03-01T09:40:22.000Z</time>
      </trkpt>
      <trkpt lat="45.16306" lon="5.27901">
        <ele>595.20001220703</ele>
        <time>2020-03-01T09:40:23.000Z</time>
      </trkpt>
      <trkpt lat="45.16308" lon="5.27899">
        <ele>595.20001220703</ele>
        <time>2020-03-01T09:40:24.000Z</time>
      </trkpt>
      <trkpt lat="45.1631" lon="5.27897">
        <ele>595.40002441406</ele>
        <time>2020-03-01T09:40:25.000Z</time>
      </trkpt>
      <trkpt lat="45.16312" lon="5.27895">
        <ele>595.59997558594</ele>
        <time>2020-03-01T09:40:26.000Z</time>
      </trkpt>
      <trkpt lat="45.16311" lon="5.27891">
        <ele>595.59997558594</ele>
        <time>2020-03-01T09:40:27.000Z</time>
      </trkpt>
      <trkpt lat="45.16311" lon="5.27888">
        <ele>595.79998779297</ele>
        <time>2020-03-01T09:40:28.000Z</time>
      </trkpt>
      <trkpt lat="45.16306" lon="5.27883">
        <ele>595.79998779297</ele>
        <time>2020-03-01T09:40:29.000Z</time>
      </trkpt>
      <trkpt lat="45.16308" lon="5.2788">
        <ele>596</ele>
        <time>2020-03-01T09:40:30.000Z</time>
      </trkpt>
      <trkpt lat="45.16305" lon="5.27875">
        <ele>596</ele>
        <time>2020-03-01T09:40:31.000Z</time>
      </trkpt>
      <trkpt lat="45.16303" lon="5.27871">
        <ele>596.20001220703</ele>
        <time>2020-03-01T09:40:32.000Z</time>
      </trkpt>
      <trkpt lat="45.16303" lon="5.27867">
        <ele>596.20001220703</ele>
        <time>2020-03-01T09:40:33.000Z</time>
      </trkpt>
      <trkpt lat="45.16304" lon="5.27866">
        <ele>596.59997558594</ele>
        <time>2020-03-01T09:40:34.000Z</time>
      </trkpt>
      <trkpt lat="45.16304" lon="5.27864">
        <ele>596.59997558594</ele>
        <time>2020-03-01T09:40:35.000Z</time>
      </trkpt>
      <trkpt lat="45.16304" lon="5.27862">
        <ele>597</ele>
        <time>2020-03-01T09:40:36.000Z</time>
      </trkpt>
      <trkpt lat="45.16304" lon="5.27859">
        <ele>597</ele>
        <time>2020-03-01T09:40:37.000Z</time>
      </trkpt>
      <trkpt lat="45.16305" lon="5.27857">
        <ele>597</ele>
        <time>2020-03-01T09:40:38.000Z</time>
      </trkpt>
      <trkpt lat="45.16305" lon="5.27855">
        <ele>597</ele>
        <time>2020-03-01T09:40:39.000Z</time>
      </trkpt>
      <trkpt lat="45.16306" lon="5.27852">
        <ele>597.20001220703</ele>
        <time>2020-03-01T09:40:40.000Z</time>
      </trkpt>
      <trkpt lat="45.16306" lon="5.2785">
        <ele>597.20001220703</ele>
        <time>2020-03-01T09:40:41.000Z</time>
      </trkpt>
      <trkpt lat="45.16307" lon="5.27848">
        <ele>597.20001220703</ele>
        <time>2020-03-01T09:40:42.000Z</time>
      </trkpt>
      <trkpt lat="45.16308" lon="5.27845">
        <ele>597.20001220703</ele>
        <time>2020-03-01T09:40:43.000Z</time>
      </trkpt>
      <trkpt lat="45.16308" lon="5.27843">
        <ele>597.20001220703</ele>
        <time>2020-03-01T09:40:44.000Z</time>
      </trkpt>
      <trkpt lat="45.1631" lon="5.27839">
        <ele>597.40002441406</ele>
        <time>2020-03-01T09:40:45.000Z</time>
      </trkpt>
      <trkpt lat="45.16311" lon="5.2783">
        <ele>597.40002441406</ele>
        <time>2020-03-01T09:40:46.000Z</time>
      </trkpt>
      <trkpt lat="45.16314" lon="5.27828">
        <ele>597.40002441406</ele>
        <time>2020-03-01T09:40:47.000Z</time>
      </trkpt>
      <trkpt lat="45.16314" lon="5.27825">
        <ele>597.40002441406</ele>
        <time>2020-03-01T09:40:48.000Z</time>
      </trkpt>
      <trkpt lat="45.16316" lon="5.27822">
        <ele>597.40002441406</ele>
        <time>2020-03-01T09:40:49.000Z</time>
      </trkpt>
      <trkpt lat="45.16317" lon="5.27819">
        <ele>597.59997558594</ele>
        <time>2020-03-01T09:40:50.000Z</time>
      </trkpt>
      <trkpt lat="45.16318" lon="5.27816">
        <ele>597.40002441406</ele>
        <time>2020-03-01T09:40:51.000Z</time>
      </trkpt>
      <trkpt lat="45.16319" lon="5.27815">
        <ele>597.40002441406</ele>
        <time>2020-03-01T09:40:52.000Z</time>
      </trkpt>
      <trkpt lat="45.16321" lon="5.27814">
        <ele>597.40002441406</ele>
        <time>2020-03-01T09:40:53.000Z</time>
      </trkpt>
      <trkpt lat="45.16323" lon="5.27813">
        <ele>597.40002441406</ele>
        <time>2020-03-01T09:40:54.000Z</time>
      </trkpt>
      <trkpt lat="45.16324" lon="5.27811">
        <ele>597.40002441406</ele>
        <time>2020-03-01T09:40:55.000Z</time>
      </trkpt>
      <trkpt lat="45.16325" lon="5.27809">
        <ele>597.40002441406</ele>
        <time>2020-03-01T09:40:56.000Z</time>
      </trkpt>
      <trkpt lat="45.16326" lon="5.27808">
        <ele>597.40002441406</ele>
        <time>2020-03-01T09:40:57.000Z</time>
      </trkpt>
      <trkpt lat="45.16328" lon="5.27806">
        <ele>597.59997558594</ele>
        <time>2020-03-01T09:40:58.000Z</time>
      </trkpt>
      <trkpt lat="45.16328" lon="5.27802">
        <ele>597.79998779297</ele>
        <time>2020-03-01T09:40:59.000Z</time>
      </trkpt>
      <trkpt lat="45.16327" lon="5.27794">
        <ele>597.79998779297</ele>
        <time>2020-03-01T09:41:00.000Z</time>
      </trkpt>
      <trkpt lat="45.16327" lon="5.2779">
        <ele>598</ele>
        <time>2020-03-01T09:41:01.000Z</time>
      </trkpt>
      <trkpt lat="45.16328" lon="5.27787">
        <ele>598.20001220703</ele>
        <time>2020-03-01T09:41:02.000Z</time>
      </trkpt>
      <trkpt lat="45.16329" lon="5.27783">
        <ele>598.20001220703</ele>
        <time>2020-03-01T09:41:03.000Z</time>
      </trkpt>
      <trkpt lat="45.1633" lon="5.2778">
        <ele>598.40002441406</ele>
        <time>2020-03-01T09:41:04.000Z</time>
      </trkpt>
      <trkpt lat="45.16331" lon="5.27778">
        <ele>598.40002441406</ele>
        <time>2020-03-01T09:41:05.000Z</time>
      </trkpt>
      <trkpt lat="45.16333" lon="5.27776">
        <ele>598.79998779297</ele>
        <time>2020-03-01T09:41:06.000Z</time>
      </trkpt>
      <trkpt lat="45.16336" lon="5.27774">
        <ele>599</ele>
        <time>2020-03-01T09:41:07.000Z</time>
      </trkpt>
      <trkpt lat="45.16343" lon="5.27773">
        <ele>599.20001220703</ele>
        <time>2020-03-01T09:41:08.000Z</time>
      </trkpt>
      <trkpt lat="45.16345" lon="5.27771">
        <ele>599.40002441406</ele>
        <time>2020-03-01T09:41:09.000Z</time>
      </trkpt>
      <trkpt lat="45.16348" lon="5.2777">
        <ele>599.59997558594</ele>
        <time>2020-03-01T09:41:10.000Z</time>
      </trkpt>
      <trkpt lat="45.16349" lon="5.27769">
        <ele>600</ele>
        <time>2020-03-01T09:41:11.000Z</time>
      </trkpt>
      <trkpt lat="45.1635" lon="5.27768">
        <ele>600.20001220703</ele>
        <time>2020-03-01T09:41:12.000Z</time>
      </trkpt>
      <trkpt lat="45.16352" lon="5.27767">
        <ele>600.40002441406</ele>
        <time>2020-03-01T09:41:13.000Z</time>
      </trkpt>
      <trkpt lat="45.16353" lon="5.27765">
        <ele>600.59997558594</ele>
        <time>2020-03-01T09:41:14.000Z</time>
      </trkpt>
      <trkpt lat="45.16354" lon="5.27764">
        <ele>600.79998779297</ele>
        <time>2020-03-01T09:41:15.000Z</time>
      </trkpt>
      <trkpt lat="45.16356" lon="5.27763">
        <ele>600.79998779297</ele>
        <time>2020-03-01T09:41:16.000Z</time>
      </trkpt>
      <trkpt lat="45.16357" lon="5.27761">
        <ele>600.59997558594</ele>
        <time>2020-03-01T09:41:17.000Z</time>
      </trkpt>
      <trkpt lat="45.16359" lon="5.2776">
        <ele>600.40002441406</ele>
        <time>2020-03-01T09:41:18.000Z</time>
      </trkpt>
      <trkpt lat="45.1636" lon="5.27758">
        <ele>600.20001220703</ele>
        <time>2020-03-01T09:41:19.000Z</time>
      </trkpt>
      <trkpt lat="45.16361" lon="5.27755">
        <ele>599.79998779297</ele>
        <time>2020-03-01T09:41:20.000Z</time>
      </trkpt>
      <trkpt lat="45.16362" lon="5.27752">
        <ele>599.59997558594</ele>
        <time>2020-03-01T09:41:21.000Z</time>
      </trkpt>
      <trkpt lat="45.16363" lon="5.27749">
        <ele>599.40002441406</ele>
        <time>2020-03-01T09:41:22.000Z</time>
      </trkpt>
      <trkpt lat="45.16364" lon="5.27747">
        <ele>599.20001220703</ele>
        <time>2020-03-01T09:41:23.000Z</time>
      </trkpt>
      <trkpt lat="45.16365" lon="5.27745">
        <ele>599.20001220703</ele>
        <time>2020-03-01T09:41:24.000Z</time>
      </trkpt>
      <trkpt lat="45.16367" lon="5.27744">
        <ele>598.79998779297</ele>
        <time>2020-03-01T09:41:25.000Z</time>
      </trkpt>
      <trkpt lat="45.16369" lon="5.27743">
        <ele>598.59997558594</ele>
        <time>2020-03-01T09:41:26.000Z</time>
      </trkpt>
      <trkpt lat="45.1637" lon="5.2774">
        <ele>598.59997558594</ele>
        <time>2020-03-01T09:41:27.000Z</time>
      </trkpt>
      <trkpt lat="45.16371" lon="5.27739">
        <ele>598.40002441406</ele>
        <time>2020-03-01T09:41:28.000Z</time>
      </trkpt>
      <trkpt lat="45.16372" lon="5.27738">
        <ele>598.20001220703</ele>
        <time>2020-03-01T09:41:29.000Z</time>
      </trkpt>
      <trkpt lat="45.16373" lon="5.27735">
        <ele>598.20001220703</ele>
        <time>2020-03-01T09:41:30.000Z</time>
      </trkpt>
      <trkpt lat="45.16374" lon="5.27734">
        <ele>598.20001220703</ele>
        <time>2020-03-01T09:41:31.000Z</time>
      </trkpt>
      <trkpt lat="45.16374" lon="5.27732">
        <ele>598.40002441406</ele>
        <time>2020-03-01T09:41:32.000Z</time>
      </trkpt>
      <trkpt lat="45.16378" lon="5.27729">
        <ele>598.79998779297</ele>
        <time>2020-03-01T09:41:33.000Z</time>
      </trkpt>
      <trkpt lat="45.16382" lon="5.27726">
        <ele>599.20001220703</ele>
        <time>2020-03-01T09:41:34.000Z</time>
      </trkpt>
      <trkpt lat="45.16381" lon="5.27721">
        <ele>599.40002441406</ele>
        <time>2020-03-01T09:41:35.000Z</time>
      </trkpt>
      <trkpt lat="45.16381" lon="5.27719">
        <ele>599.59997558594</ele>
        <time>2020-03-01T09:41:36.000Z</time>
      </trkpt>
      <trkpt lat="45.16384" lon="5.27717">
        <ele>599.79998779297</ele>
        <time>2020-03-01T09:41:37.000Z</time>
      </trkpt>
      <trkpt lat="45.16386" lon="5.27713">
        <ele>599.79998779297</ele>
        <time>2020-03-01T09:41:38.000Z</time>
      </trkpt>
      <trkpt lat="45.16386" lon="5.27711">
        <ele>600</ele>
        <time>2020-03-01T09:41:39.000Z</time>
      </trkpt>
      <trkpt lat="45.16386" lon="5.27709">
        <ele>599.79998779297</ele>
        <time>2020-03-01T09:41:40.000Z</time>
      </trkpt>
      <trkpt lat="45.16387" lon="5.27708">
        <ele>599.79998779297</ele>
        <time>2020-03-01T09:41:41.000Z</time>
      </trkpt>
      <trkpt lat="45.16387" lon="5.27707">
        <ele>599.79998779297</ele>
        <time>2020-03-01T09:41:42.000Z</time>
      </trkpt>
      <trkpt lat="45.1639" lon="5.27705">
        <ele>600.20001220703</ele>
        <time>2020-03-01T09:41:43.000Z</time>
      </trkpt>
      <trkpt lat="45.16393" lon="5.27704">
        <ele>600</ele>
        <time>2020-03-01T09:41:44.000Z</time>
      </trkpt>
      <trkpt lat="45.16396" lon="5.27701">
        <ele>600.20001220703</ele>
        <time>2020-03-01T09:41:45.000Z</time>
      </trkpt>
      <trkpt lat="45.16398" lon="5.277">
        <ele>600.20001220703</ele>
        <time>2020-03-01T09:41:46.000Z</time>
      </trkpt>
      <trkpt lat="45.16401" lon="5.27699">
        <ele>600.20001220703</ele>
        <time>2020-03-01T09:41:47.000Z</time>
      </trkpt>
      <trkpt lat="45.16404" lon="5.27699">
        <ele>600.40002441406</ele>
        <time>2020-03-01T09:41:48.000Z</time>
      </trkpt>
      <trkpt lat="45.16406" lon="5.27696">
        <ele>600.59997558594</ele>
        <time>2020-03-01T09:41:49.000Z</time>
      </trkpt>
      <trkpt lat="45.16408" lon="5.27694">
        <ele>600.59997558594</ele>
        <time>2020-03-01T09:41:50.000Z</time>
      </trkpt>
      <trkpt lat="45.16411" lon="5.27692">
        <ele>600.79998779297</ele>
        <time>2020-03-01T09:41:51.000Z</time>
      </trkpt>
      <trkpt lat="45.16412" lon="5.27691">
        <ele>600.79998779297</ele>
        <time>2020-03-01T09:41:52.000Z</time>
      </trkpt>
      <trkpt lat="45.16413" lon="5.27689">
        <ele>601.20001220703</ele>
        <time>2020-03-01T09:41:53.000Z</time>
      </trkpt>
      <trkpt lat="45.16415" lon="5.27687">
        <ele>601.20001220703</ele>
        <time>2020-03-01T09:41:54.000Z</time>
      </trkpt>
      <trkpt lat="45.16418" lon="5.27687">
        <ele>601.59997558594</ele>
        <time>2020-03-01T09:41:55.000Z</time>
      </trkpt>
      <trkpt lat="45.16419" lon="5.27685">
        <ele>601.79998779297</ele>
        <time>2020-03-01T09:41:56.000Z</time>
      </trkpt>
      <trkpt lat="45.16419" lon="5.27682">
        <ele>602</ele>
        <time>2020-03-01T09:41:57.000Z</time>
      </trkpt>
      <trkpt lat="45.16418" lon="5.27677">
        <ele>602</ele>
        <time>2020-03-01T09:41:58.000Z</time>
      </trkpt>
      <trkpt lat="45.16419" lon="5.27674">
        <ele>602</ele>
        <time>2020-03-01T09:41:59.000Z</time>
      </trkpt>
      <trkpt lat="45.16418" lon="5.27669">
        <ele>602</ele>
        <time>2020-03-01T09:42:00.000Z</time>
      </trkpt>
      <trkpt lat="45.16418" lon="5.27665">
        <ele>602.20001220703</ele>
        <time>2020-03-01T09:42:01.000Z</time>
      </trkpt>
      <trkpt lat="45.16415" lon="5.27658">
        <ele>602.20001220703</ele>
        <time>2020-03-01T09:42:02.000Z</time>
      </trkpt>
      <trkpt lat="45.16417" lon="5.27656">
        <ele>602.20001220703</ele>
        <time>2020-03-01T09:42:03.000Z</time>
      </trkpt>
      <trkpt lat="45.16413" lon="5.2765">
        <ele>602</ele>
        <time>2020-03-01T09:42:04.000Z</time>
      </trkpt>
      <trkpt lat="45.16412" lon="5.27645">
        <ele>602</ele>
        <time>2020-03-01T09:42:05.000Z</time>
      </trkpt>
      <trkpt lat="45.16412" lon="5.27643">
        <ele>602</ele>
        <time>2020-03-01T09:42:06.000Z</time>
      </trkpt>
      <trkpt lat="45.16411" lon="5.27639">
        <ele>602</ele>
        <time>2020-03-01T09:42:07.000Z</time>
      </trkpt>
      <trkpt lat="45.1641" lon="5.27637">
        <ele>602</ele>
        <time>2020-03-01T09:42:08.000Z</time>
      </trkpt>
      <trkpt lat="45.1641" lon="5.27635">
        <ele>602</ele>
        <time>2020-03-01T09:42:09.000Z</time>
      </trkpt>
      <trkpt lat="45.16409" lon="5.27633">
        <ele>602</ele>
        <time>2020-03-01T09:42:10.000Z</time>
      </trkpt>
      <trkpt lat="45.16407" lon="5.2763">
        <ele>602.20001220703</ele>
        <time>2020-03-01T09:42:11.000Z</time>
      </trkpt>
      <trkpt lat="45.16403" lon="5.27625">
        <ele>602.20001220703</ele>
        <time>2020-03-01T09:42:12.000Z</time>
      </trkpt>
      <trkpt lat="45.16401" lon="5.27622">
        <ele>602.40002441406</ele>
        <time>2020-03-01T09:42:13.000Z</time>
      </trkpt>
      <trkpt lat="45.16399" lon="5.27618">
        <ele>602.59997558594</ele>
        <time>2020-03-01T09:42:14.000Z</time>
      </trkpt>
      <trkpt lat="45.16397" lon="5.27614">
        <ele>602.79998779297</ele>
        <time>2020-03-01T09:42:15.000Z</time>
      </trkpt>
      <trkpt lat="45.16396" lon="5.27611">
        <ele>603</ele>
        <time>2020-03-01T09:42:16.000Z</time>
      </trkpt>
      <trkpt lat="45.16394" lon="5.27607">
        <ele>603.40002441406</ele>
        <time>2020-03-01T09:42:17.000Z</time>
      </trkpt>
      <trkpt lat="45.16394" lon="5.27605">
        <ele>603.40002441406</ele>
        <time>2020-03-01T09:42:18.000Z</time>
      </trkpt>
      <trkpt lat="45.16394" lon="5.27603">
        <ele>603.79998779297</ele>
        <time>2020-03-01T09:42:19.000Z</time>
      </trkpt>
      <trkpt lat="45.16395" lon="5.27601">
        <ele>603.79998779297</ele>
        <time>2020-03-01T09:42:20.000Z</time>
      </trkpt>
      <trkpt lat="45.16394" lon="5.27599">
        <ele>603.79998779297</ele>
        <time>2020-03-01T09:42:21.000Z</time>
      </trkpt>
      <trkpt lat="45.16394" lon="5.27596">
        <ele>603.79998779297</ele>
        <time>2020-03-01T09:42:22.000Z</time>
      </trkpt>
      <trkpt lat="45.16394" lon="5.27594">
        <ele>603.59997558594</ele>
        <time>2020-03-01T09:42:23.000Z</time>
      </trkpt>
      <trkpt lat="45.16394" lon="5.27592">
        <ele>603.40002441406</ele>
        <time>2020-03-01T09:42:24.000Z</time>
      </trkpt>
      <trkpt lat="45.16394" lon="5.2759">
        <ele>603.40002441406</ele>
        <time>2020-03-01T09:42:25.000Z</time>
      </trkpt>
      <trkpt lat="45.16395" lon="5.27586">
        <ele>603.20001220703</ele>
        <time>2020-03-01T09:42:26.000Z</time>
      </trkpt>
      <trkpt lat="45.16434" lon="5.27593">
        <ele>603.20001220703</ele>
        <time>2020-03-01T09:42:27.000Z</time>
      </trkpt>
      <trkpt lat="45.16435" lon="5.2759">
        <ele>603</ele>
        <time>2020-03-01T09:42:28.000Z</time>
      </trkpt>
      <trkpt lat="45.16453" lon="5.27592">
        <ele>603</ele>
        <time>2020-03-01T09:42:29.000Z</time>
      </trkpt>
      <trkpt lat="45.16462" lon="5.2759">
        <ele>603</ele>
        <time>2020-03-01T09:42:30.000Z</time>
      </trkpt>
      <trkpt lat="45.16468" lon="5.27588">
        <ele>602.79998779297</ele>
        <time>2020-03-01T09:42:31.000Z</time>
      </trkpt>
      <trkpt lat="45.16473" lon="5.27587">
        <ele>602.59997558594</ele>
        <time>2020-03-01T09:42:32.000Z</time>
      </trkpt>
      <trkpt lat="45.16474" lon="5.27586">
        <ele>602.40002441406</ele>
        <time>2020-03-01T09:42:33.000Z</time>
      </trkpt>
      <trkpt lat="45.16476" lon="5.27584">
        <ele>602.40002441406</ele>
        <time>2020-03-01T09:42:34.000Z</time>
      </trkpt>
      <trkpt lat="45.16478" lon="5.27582">
        <ele>602.40002441406</ele>
        <time>2020-03-01T09:42:35.000Z</time>
      </trkpt>
      <trkpt lat="45.16482" lon="5.2758">
        <ele>602.59997558594</ele>
        <time>2020-03-01T09:42:36.000Z</time>
      </trkpt>
      <trkpt lat="45.16485" lon="5.27578">
        <ele>602.59997558594</ele>
        <time>2020-03-01T09:42:37.000Z</time>
      </trkpt>
      <trkpt lat="45.16489" lon="5.27576">
        <ele>602.59997558594</ele>
        <time>2020-03-01T09:42:38.000Z</time>
      </trkpt>
      <trkpt lat="45.16492" lon="5.27574">
        <ele>602.59997558594</ele>
        <time>2020-03-01T09:42:39.000Z</time>
      </trkpt>
      <trkpt lat="45.16493" lon="5.27572">
        <ele>602.79998779297</ele>
        <time>2020-03-01T09:42:40.000Z</time>
      </trkpt>
      <trkpt lat="45.16494" lon="5.27566">
        <ele>602.59997558594</ele>
        <time>2020-03-01T09:42:41.000Z</time>
      </trkpt>
      <trkpt lat="45.16496" lon="5.27563">
        <ele>602.59997558594</ele>
        <time>2020-03-01T09:42:42.000Z</time>
      </trkpt>
      <trkpt lat="45.16499" lon="5.2756">
        <ele>602.40002441406</ele>
        <time>2020-03-01T09:42:43.000Z</time>
      </trkpt>
      <trkpt lat="45.16501" lon="5.27558">
        <ele>602.40002441406</ele>
        <time>2020-03-01T09:42:44.000Z</time>
      </trkpt>
      <trkpt lat="45.16503" lon="5.27556">
        <ele>602.40002441406</ele>
        <time>2020-03-01T09:42:45.000Z</time>
      </trkpt>
      <trkpt lat="45.16505" lon="5.27554">
        <ele>602.40002441406</ele>
        <time>2020-03-01T09:42:46.000Z</time>
      </trkpt>
      <trkpt lat="45.16507" lon="5.27552">
        <ele>602.40002441406</ele>
        <time>2020-03-01T09:42:47.000Z</time>
      </trkpt>
      <trkpt lat="45.16509" lon="5.2755">
        <ele>602.40002441406</ele>
        <time>2020-03-01T09:42:48.000Z</time>
      </trkpt>
      <trkpt lat="45.16511" lon="5.27549">
        <ele>602.59997558594</ele>
        <time>2020-03-01T09:42:49.000Z</time>
      </trkpt>
      <trkpt lat="45.16513" lon="5.27548">
        <ele>602.59997558594</ele>
        <time>2020-03-01T09:42:50.000Z</time>
      </trkpt>
      <trkpt lat="45.16514" lon="5.27546">
        <ele>602.59997558594</ele>
        <time>2020-03-01T09:42:51.000Z</time>
      </trkpt>
      <trkpt lat="45.16516" lon="5.27545">
        <ele>602.59997558594</ele>
        <time>2020-03-01T09:42:52.000Z</time>
      </trkpt>
      <trkpt lat="45.16518" lon="5.27543">
        <ele>602.79998779297</ele>
        <time>2020-03-01T09:42:53.000Z</time>
      </trkpt>
      <trkpt lat="45.16519" lon="5.2754">
        <ele>602.79998779297</ele>
        <time>2020-03-01T09:42:54.000Z</time>
      </trkpt>
      <trkpt lat="45.1652" lon="5.27539">
        <ele>602.79998779297</ele>
        <time>2020-03-01T09:42:55.000Z</time>
      </trkpt>
      <trkpt lat="45.16521" lon="5.27537">
        <ele>603</ele>
        <time>2020-03-01T09:42:56.000Z</time>
      </trkpt>
      <trkpt lat="45.16523" lon="5.27534">
        <ele>603</ele>
        <time>2020-03-01T09:42:57.000Z</time>
      </trkpt>
      <trkpt lat="45.16524" lon="5.27532">
        <ele>603</ele>
        <time>2020-03-01T09:42:58.000Z</time>
      </trkpt>
      <trkpt lat="45.16525" lon="5.27529">
        <ele>603.20001220703</ele>
        <time>2020-03-01T09:42:59.000Z</time>
      </trkpt>
      <trkpt lat="45.16526" lon="5.27528">
        <ele>603.20001220703</ele>
        <time>2020-03-01T09:43:00.000Z</time>
      </trkpt>
      <trkpt lat="45.16527" lon="5.27526">
        <ele>603.40002441406</ele>
        <time>2020-03-01T09:43:01.000Z</time>
      </trkpt>
      <trkpt lat="45.16528" lon="5.27524">
        <ele>603.59997558594</ele>
        <time>2020-03-01T09:43:02.000Z</time>
      </trkpt>
      <trkpt lat="45.1653" lon="5.27522">
        <ele>603.79998779297</ele>
        <time>2020-03-01T09:43:03.000Z</time>
      </trkpt>
      <trkpt lat="45.16531" lon="5.27521">
        <ele>603.79998779297</ele>
        <time>2020-03-01T09:43:04.000Z</time>
      </trkpt>
      <trkpt lat="45.16533" lon="5.27521">
        <ele>604</ele>
        <time>2020-03-01T09:43:05.000Z</time>
      </trkpt>
      <trkpt lat="45.16535" lon="5.27519">
        <ele>604</ele>
        <time>2020-03-01T09:43:06.000Z</time>
      </trkpt>
      <trkpt lat="45.16536" lon="5.27518">
        <ele>604.20001220703</ele>
        <time>2020-03-01T09:43:07.000Z</time>
      </trkpt>
      <trkpt lat="45.16537" lon="5.27516">
        <ele>604.20001220703</ele>
        <time>2020-03-01T09:43:08.000Z</time>
      </trkpt>
      <trkpt lat="45.16538" lon="5.27514">
        <ele>604.20001220703</ele>
        <time>2020-03-01T09:43:09.000Z</time>
      </trkpt>
      <trkpt lat="45.16538" lon="5.27512">
        <ele>604.40002441406</ele>
        <time>2020-03-01T09:43:10.000Z</time>
      </trkpt>
      <trkpt lat="45.16539" lon="5.27511">
        <ele>604.40002441406</ele>
        <time>2020-03-01T09:43:11.000Z</time>
      </trkpt>
      <trkpt lat="45.1654" lon="5.27509">
        <ele>604.40002441406</ele>
        <time>2020-03-01T09:43:12.000Z</time>
      </trkpt>
      <trkpt lat="45.16541" lon="5.27507">
        <ele>604.59997558594</ele>
        <time>2020-03-01T09:43:13.000Z</time>
      </trkpt>
      <trkpt lat="45.16541" lon="5.27505">
        <ele>604.59997558594</ele>
        <time>2020-03-01T09:43:14.000Z</time>
      </trkpt>
      <trkpt lat="45.16543" lon="5.27503">
        <ele>604.79998779297</ele>
        <time>2020-03-01T09:43:15.000Z</time>
      </trkpt>
      <trkpt lat="45.16544" lon="5.27501">
        <ele>604.79998779297</ele>
        <time>2020-03-01T09:43:16.000Z</time>
      </trkpt>
      <trkpt lat="45.16546" lon="5.275">
        <ele>605</ele>
        <time>2020-03-01T09:43:17.000Z</time>
      </trkpt>
      <trkpt lat="45.16548" lon="5.27498">
        <ele>605</ele>
        <time>2020-03-01T09:43:18.000Z</time>
      </trkpt>
      <trkpt lat="45.16549" lon="5.27497">
        <ele>605.20001220703</ele>
        <time>2020-03-01T09:43:19.000Z</time>
      </trkpt>
      <trkpt lat="45.1655" lon="5.27496">
        <ele>605.20001220703</ele>
        <time>2020-03-01T09:43:20.000Z</time>
      </trkpt>
      <trkpt lat="45.16551" lon="5.27494">
        <ele>605.59997558594</ele>
        <time>2020-03-01T09:43:21.000Z</time>
      </trkpt>
      <trkpt lat="45.16551" lon="5.27491">
        <ele>605.59997558594</ele>
        <time>2020-03-01T09:43:22.000Z</time>
      </trkpt>
      <trkpt lat="45.16553" lon="5.2749">
        <ele>606</ele>
        <time>2020-03-01T09:43:23.000Z</time>
      </trkpt>
      <trkpt lat="45.16554" lon="5.27489">
        <ele>606</ele>
        <time>2020-03-01T09:43:24.000Z</time>
      </trkpt>
      <trkpt lat="45.16556" lon="5.27487">
        <ele>605.79998779297</ele>
        <time>2020-03-01T09:43:25.000Z</time>
      </trkpt>
      <trkpt lat="45.16555" lon="5.27483">
        <ele>605.79998779297</ele>
        <time>2020-03-01T09:43:26.000Z</time>
      </trkpt>
      <trkpt lat="45.16557" lon="5.27481">
        <ele>605.79998779297</ele>
        <time>2020-03-01T09:43:27.000Z</time>
      </trkpt>
      <trkpt lat="45.16558" lon="5.27478">
        <ele>605.79998779297</ele>
        <time>2020-03-01T09:43:28.000Z</time>
      </trkpt>
      <trkpt lat="45.1656" lon="5.27476">
        <ele>605.79998779297</ele>
        <time>2020-03-01T09:43:29.000Z</time>
      </trkpt>
      <trkpt lat="45.16563" lon="5.27474">
        <ele>605.79998779297</ele>
        <time>2020-03-01T09:43:30.000Z</time>
      </trkpt>
      <trkpt lat="45.16567" lon="5.27472">
        <ele>605.79998779297</ele>
        <time>2020-03-01T09:43:31.000Z</time>
      </trkpt>
      <trkpt lat="45.16569" lon="5.27469">
        <ele>605.79998779297</ele>
        <time>2020-03-01T09:43:32.000Z</time>
      </trkpt>
      <trkpt lat="45.16571" lon="5.27466">
        <ele>605.59997558594</ele>
        <time>2020-03-01T09:43:33.000Z</time>
      </trkpt>
      <trkpt lat="45.16572" lon="5.27465">
        <ele>605.59997558594</ele>
        <time>2020-03-01T09:43:34.000Z</time>
      </trkpt>
      <trkpt lat="45.16575" lon="5.27463">
        <ele>605.59997558594</ele>
        <time>2020-03-01T09:43:35.000Z</time>
      </trkpt>
      <trkpt lat="45.16577" lon="5.27462">
        <ele>605.59997558594</ele>
        <time>2020-03-01T09:43:36.000Z</time>
      </trkpt>
      <trkpt lat="45.16578" lon="5.27459">
        <ele>605.59997558594</ele>
        <time>2020-03-01T09:43:37.000Z</time>
      </trkpt>
      <trkpt lat="45.16579" lon="5.27457">
        <ele>605.59997558594</ele>
        <time>2020-03-01T09:43:38.000Z</time>
      </trkpt>
      <trkpt lat="45.16579" lon="5.27454">
        <ele>605.59997558594</ele>
        <time>2020-03-01T09:43:39.000Z</time>
      </trkpt>
      <trkpt lat="45.16579" lon="5.27452">
        <ele>605.59997558594</ele>
        <time>2020-03-01T09:43:40.000Z</time>
      </trkpt>
      <trkpt lat="45.16582" lon="5.27451">
        <ele>605.59997558594</ele>
        <time>2020-03-01T09:43:41.000Z</time>
      </trkpt>
      <trkpt lat="45.16585" lon="5.27449">
        <ele>605.79998779297</ele>
        <time>2020-03-01T09:43:42.000Z</time>
      </trkpt>
      <trkpt lat="45.16587" lon="5.27448">
        <ele>605.79998779297</ele>
        <time>2020-03-01T09:43:43.000Z</time>
      </trkpt>
      <trkpt lat="45.1659" lon="5.27447">
        <ele>605.59997558594</ele>
        <time>2020-03-01T09:43:44.000Z</time>
      </trkpt>
      <trkpt lat="45.16594" lon="5.27446">
        <ele>605.79998779297</ele>
        <time>2020-03-01T09:43:45.000Z</time>
      </trkpt>
      <trkpt lat="45.16597" lon="5.27445">
        <ele>605.79998779297</ele>
        <time>2020-03-01T09:43:46.000Z</time>
      </trkpt>
      <trkpt lat="45.16599" lon="5.27443">
        <ele>605.79998779297</ele>
        <time>2020-03-01T09:43:47.000Z</time>
      </trkpt>
      <trkpt lat="45.16602" lon="5.27442">
        <ele>605.79998779297</ele>
        <time>2020-03-01T09:43:48.000Z</time>
      </trkpt>
      <trkpt lat="45.16605" lon="5.27441">
        <ele>605.79998779297</ele>
        <time>2020-03-01T09:43:49.000Z</time>
      </trkpt>
      <trkpt lat="45.16606" lon="5.27439">
        <ele>606</ele>
        <time>2020-03-01T09:43:50.000Z</time>
      </trkpt>
      <trkpt lat="45.16607" lon="5.27438">
        <ele>606</ele>
        <time>2020-03-01T09:43:51.000Z</time>
      </trkpt>
      <trkpt lat="45.16609" lon="5.27436">
        <ele>605.79998779297</ele>
        <time>2020-03-01T09:43:52.000Z</time>
      </trkpt>
      <trkpt lat="45.1661" lon="5.27433">
        <ele>605.79998779297</ele>
        <time>2020-03-01T09:43:53.000Z</time>
      </trkpt>
      <trkpt lat="45.16611" lon="5.27431">
        <ele>606</ele>
        <time>2020-03-01T09:43:54.000Z</time>
      </trkpt>
      <trkpt lat="45.16611" lon="5.27427">
        <ele>606</ele>
        <time>2020-03-01T09:43:55.000Z</time>
      </trkpt>
      <trkpt lat="45.16612" lon="5.27425">
        <ele>606</ele>
        <time>2020-03-01T09:43:56.000Z</time>
      </trkpt>
      <trkpt lat="45.16614" lon="5.27423">
        <ele>605.79998779297</ele>
        <time>2020-03-01T09:43:57.000Z</time>
      </trkpt>
      <trkpt lat="45.16614" lon="5.27421">
        <ele>606</ele>
        <time>2020-03-01T09:43:58.000Z</time>
      </trkpt>
      <trkpt lat="45.16615" lon="5.27419">
        <ele>606.20001220703</ele>
        <time>2020-03-01T09:43:59.000Z</time>
      </trkpt>
      <trkpt lat="45.16616" lon="5.27417">
        <ele>606.20001220703</ele>
        <time>2020-03-01T09:44:00.000Z</time>
      </trkpt>
      <trkpt lat="45.16617" lon="5.27414">
        <ele>606.40002441406</ele>
        <time>2020-03-01T09:44:01.000Z</time>
      </trkpt>
      <trkpt lat="45.16615" lon="5.27408">
        <ele>606.59997558594</ele>
        <time>2020-03-01T09:44:02.000Z</time>
      </trkpt>
      <trkpt lat="45.16615" lon="5.27404">
        <ele>606.79998779297</ele>
        <time>2020-03-01T09:44:03.000Z</time>
      </trkpt>
      <trkpt lat="45.16615" lon="5.27401">
        <ele>607</ele>
        <time>2020-03-01T09:44:04.000Z</time>
      </trkpt>
      <trkpt lat="45.16615" lon="5.27396">
        <ele>607</ele>
        <time>2020-03-01T09:44:05.000Z</time>
      </trkpt>
      <trkpt lat="45.16615" lon="5.27393">
        <ele>607.20001220703</ele>
        <time>2020-03-01T09:44:06.000Z</time>
      </trkpt>
      <trkpt lat="45.16616" lon="5.2739">
        <ele>607.20001220703</ele>
        <time>2020-03-01T09:44:07.000Z</time>
      </trkpt>
      <trkpt lat="45.16617" lon="5.27387">
        <ele>607.20001220703</ele>
        <time>2020-03-01T09:44:08.000Z</time>
      </trkpt>
      <trkpt lat="45.16617" lon="5.27383">
        <ele>607.20001220703</ele>
        <time>2020-03-01T09:44:09.000Z</time>
      </trkpt>
      <trkpt lat="45.16617" lon="5.27379">
        <ele>607.40002441406</ele>
        <time>2020-03-01T09:44:10.000Z</time>
      </trkpt>
      <trkpt lat="45.16618" lon="5.27376">
        <ele>607.59997558594</ele>
        <time>2020-03-01T09:44:11.000Z</time>
      </trkpt>
      <trkpt lat="45.16619" lon="5.27374">
        <ele>607.59997558594</ele>
        <time>2020-03-01T09:44:12.000Z</time>
      </trkpt>
      <trkpt lat="45.1662" lon="5.27371">
        <ele>607.79998779297</ele>
        <time>2020-03-01T09:44:13.000Z</time>
      </trkpt>
      <trkpt lat="45.1662" lon="5.27368">
        <ele>608</ele>
        <time>2020-03-01T09:44:14.000Z</time>
      </trkpt>
      <trkpt lat="45.16621" lon="5.27365">
        <ele>608.20001220703</ele>
        <time>2020-03-01T09:44:15.000Z</time>
      </trkpt>
      <trkpt lat="45.16621" lon="5.27362">
        <ele>608.40002441406</ele>
        <time>2020-03-01T09:44:16.000Z</time>
      </trkpt>
      <trkpt lat="45.16622" lon="5.27359">
        <ele>608.59997558594</ele>
        <time>2020-03-01T09:44:17.000Z</time>
      </trkpt>
      <trkpt lat="45.16622" lon="5.27358">
        <ele>608.59997558594</ele>
        <time>2020-03-01T09:44:18.000Z</time>
      </trkpt>
      <trkpt lat="45.16622" lon="5.27355">
        <ele>608.40002441406</ele>
        <time>2020-03-01T09:44:19.000Z</time>
      </trkpt>
      <trkpt lat="45.16623" lon="5.27352">
        <ele>608.40002441406</ele>
        <time>2020-03-01T09:44:20.000Z</time>
      </trkpt>
      <trkpt lat="45.16621" lon="5.2735">
        <ele>608.59997558594</ele>
        <time>2020-03-01T09:44:21.000Z</time>
      </trkpt>
      <trkpt lat="45.16619" lon="5.27345">
        <ele>608.59997558594</ele>
        <time>2020-03-01T09:44:22.000Z</time>
      </trkpt>
      <trkpt lat="45.16619" lon="5.27343">
        <ele>608.59997558594</ele>
        <time>2020-03-01T09:44:23.000Z</time>
      </trkpt>
      <trkpt lat="45.16619" lon="5.27341">
        <ele>608.59997558594</ele>
        <time>2020-03-01T09:44:24.000Z</time>
      </trkpt>
      <trkpt lat="45.16619" lon="5.27338">
        <ele>608.79998779297</ele>
        <time>2020-03-01T09:44:25.000Z</time>
      </trkpt>
      <trkpt lat="45.16619" lon="5.27336">
        <ele>608.79998779297</ele>
        <time>2020-03-01T09:44:26.000Z</time>
      </trkpt>
      <trkpt lat="45.16615" lon="5.27332">
        <ele>608.79998779297</ele>
        <time>2020-03-01T09:44:27.000Z</time>
      </trkpt>
      <trkpt lat="45.16615" lon="5.27329">
        <ele>608.79998779297</ele>
        <time>2020-03-01T09:44:28.000Z</time>
      </trkpt>
      <trkpt lat="45.16614" lon="5.27325">
        <ele>608.79998779297</ele>
        <time>2020-03-01T09:44:29.000Z</time>
      </trkpt>
      <trkpt lat="45.16614" lon="5.27322">
        <ele>608.79998779297</ele>
        <time>2020-03-01T09:44:30.000Z</time>
      </trkpt>
      <trkpt lat="45.16612" lon="5.27318">
        <ele>608.79998779297</ele>
        <time>2020-03-01T09:44:31.000Z</time>
      </trkpt>
      <trkpt lat="45.16612" lon="5.27315">
        <ele>608.79998779297</ele>
        <time>2020-03-01T09:44:32.000Z</time>
      </trkpt>
      <trkpt lat="45.1661" lon="5.27313">
        <ele>608.79998779297</ele>
        <time>2020-03-01T09:44:33.000Z</time>
      </trkpt>
      <trkpt lat="45.16608" lon="5.27309">
        <ele>608.79998779297</ele>
        <time>2020-03-01T09:44:34.000Z</time>
      </trkpt>
      <trkpt lat="45.16606" lon="5.27306">
        <ele>608.79998779297</ele>
        <time>2020-03-01T09:44:35.000Z</time>
      </trkpt>
      <trkpt lat="45.16606" lon="5.27304">
        <ele>608.79998779297</ele>
        <time>2020-03-01T09:44:36.000Z</time>
      </trkpt>
      <trkpt lat="45.16605" lon="5.27302">
        <ele>608.79998779297</ele>
        <time>2020-03-01T09:44:37.000Z</time>
      </trkpt>
      <trkpt lat="45.16605" lon="5.27299">
        <ele>609</ele>
        <time>2020-03-01T09:44:38.000Z</time>
      </trkpt>
      <trkpt lat="45.16604" lon="5.27295">
        <ele>609</ele>
        <time>2020-03-01T09:44:39.000Z</time>
      </trkpt>
      <trkpt lat="45.16603" lon="5.27292">
        <ele>609</ele>
        <time>2020-03-01T09:44:40.000Z</time>
      </trkpt>
      <trkpt lat="45.16603" lon="5.2729">
        <ele>609.20001220703</ele>
        <time>2020-03-01T09:44:41.000Z</time>
      </trkpt>
      <trkpt lat="45.16603" lon="5.27288">
        <ele>609.20001220703</ele>
        <time>2020-03-01T09:44:42.000Z</time>
      </trkpt>
      <trkpt lat="45.16602" lon="5.27285">
        <ele>609.20001220703</ele>
        <time>2020-03-01T09:44:43.000Z</time>
      </trkpt>
      <trkpt lat="45.16602" lon="5.27282">
        <ele>609.20001220703</ele>
        <time>2020-03-01T09:44:44.000Z</time>
      </trkpt>
      <trkpt lat="45.16601" lon="5.27278">
        <ele>609.40002441406</ele>
        <time>2020-03-01T09:44:45.000Z</time>
      </trkpt>
      <trkpt lat="45.16601" lon="5.27275">
        <ele>609.40002441406</ele>
        <time>2020-03-01T09:44:46.000Z</time>
      </trkpt>
      <trkpt lat="45.16604" lon="5.27272">
        <ele>609.40002441406</ele>
        <time>2020-03-01T09:44:47.000Z</time>
      </trkpt>
      <trkpt lat="45.16608" lon="5.27269">
        <ele>609.40002441406</ele>
        <time>2020-03-01T09:44:48.000Z</time>
      </trkpt>
      <trkpt lat="45.16608" lon="5.27265">
        <ele>609.59997558594</ele>
        <time>2020-03-01T09:44:49.000Z</time>
      </trkpt>
      <trkpt lat="45.16608" lon="5.27262">
        <ele>609.59997558594</ele>
        <time>2020-03-01T09:44:50.000Z</time>
      </trkpt>
      <trkpt lat="45.16607" lon="5.27259">
        <ele>609.59997558594</ele>
        <time>2020-03-01T09:44:51.000Z</time>
      </trkpt>
      <trkpt lat="45.16611" lon="5.27256">
        <ele>609.59997558594</ele>
        <time>2020-03-01T09:44:52.000Z</time>
      </trkpt>
      <trkpt lat="45.16612" lon="5.27252">
        <ele>609.59997558594</ele>
        <time>2020-03-01T09:44:53.000Z</time>
      </trkpt>
      <trkpt lat="45.16614" lon="5.2725">
        <ele>609.79998779297</ele>
        <time>2020-03-01T09:44:54.000Z</time>
      </trkpt>
      <trkpt lat="45.16615" lon="5.27248">
        <ele>609.79998779297</ele>
        <time>2020-03-01T09:44:55.000Z</time>
      </trkpt>
      <trkpt lat="45.16617" lon="5.27247">
        <ele>609.79998779297</ele>
        <time>2020-03-01T09:44:56.000Z</time>
      </trkpt>
      <trkpt lat="45.1662" lon="5.27245">
        <ele>610</ele>
        <time>2020-03-01T09:44:57.000Z</time>
      </trkpt>
      <trkpt lat="45.16623" lon="5.27244">
        <ele>610.20001220703</ele>
        <time>2020-03-01T09:44:58.000Z</time>
      </trkpt>
      <trkpt lat="45.16626" lon="5.27242">
        <ele>610.59997558594</ele>
        <time>2020-03-01T09:44:59.000Z</time>
      </trkpt>
      <trkpt lat="45.16624" lon="5.27239">
        <ele>610.79998779297</ele>
        <time>2020-03-01T09:45:00.000Z</time>
      </trkpt>
      <trkpt lat="45.16627" lon="5.27238">
        <ele>611</ele>
        <time>2020-03-01T09:45:01.000Z</time>
      </trkpt>
      <trkpt lat="45.16627" lon="5.27237">
        <ele>611.20001220703</ele>
        <time>2020-03-01T09:45:02.000Z</time>
      </trkpt>
      <trkpt lat="45.16627" lon="5.27236">
        <ele>611.40002441406</ele>
        <time>2020-03-01T09:45:03.000Z</time>
      </trkpt>
      <trkpt lat="45.16627" lon="5.27234">
        <ele>611.59997558594</ele>
        <time>2020-03-01T09:45:04.000Z</time>
      </trkpt>
      <trkpt lat="45.16631" lon="5.27232">
        <ele>611.79998779297</ele>
        <time>2020-03-01T09:45:05.000Z</time>
      </trkpt>
      <trkpt lat="45.16649" lon="5.27238">
        <ele>611.59997558594</ele>
        <time>2020-03-01T09:45:06.000Z</time>
      </trkpt>
      <trkpt lat="45.16657" lon="5.27241">
        <ele>611.40002441406</ele>
        <time>2020-03-01T09:45:07.000Z</time>
      </trkpt>
      <trkpt lat="45.16665" lon="5.27242">
        <ele>611.20001220703</ele>
        <time>2020-03-01T09:45:08.000Z</time>
      </trkpt>
      <trkpt lat="45.16668" lon="5.27236">
        <ele>610.79998779297</ele>
        <time>2020-03-01T09:45:09.000Z</time>
      </trkpt>
      <trkpt lat="45.16675" lon="5.27234">
        <ele>610.40002441406</ele>
        <time>2020-03-01T09:45:10.000Z</time>
      </trkpt>
      <trkpt lat="45.16683" lon="5.27235">
        <ele>610</ele>
        <time>2020-03-01T09:45:11.000Z</time>
      </trkpt>
      <trkpt lat="45.16689" lon="5.27236">
        <ele>609.79998779297</ele>
        <time>2020-03-01T09:45:12.000Z</time>
      </trkpt>
      <trkpt lat="45.16694" lon="5.27235">
        <ele>609.79998779297</ele>
        <time>2020-03-01T09:45:13.000Z</time>
      </trkpt>
      <trkpt lat="45.16699" lon="5.27234">
        <ele>609.59997558594</ele>
        <time>2020-03-01T09:45:14.000Z</time>
      </trkpt>
      <trkpt lat="45.16704" lon="5.27233">
        <ele>609.40002441406</ele>
        <time>2020-03-01T09:45:15.000Z</time>
      </trkpt>
      <trkpt lat="45.16708" lon="5.27232">
        <ele>609.40002441406</ele>
        <time>2020-03-01T09:45:16.000Z</time>
      </trkpt>
      <trkpt lat="45.16712" lon="5.27231">
        <ele>609.59997558594</ele>
        <time>2020-03-01T09:45:17.000Z</time>
      </trkpt>
      <trkpt lat="45.16715" lon="5.27229">
        <ele>609.79998779297</ele>
        <time>2020-03-01T09:45:18.000Z</time>
      </trkpt>
      <trkpt lat="45.16718" lon="5.27228">
        <ele>609.79998779297</ele>
        <time>2020-03-01T09:45:19.000Z</time>
      </trkpt>
      <trkpt lat="45.16718" lon="5.27226">
        <ele>609.79998779297</ele>
        <time>2020-03-01T09:45:20.000Z</time>
      </trkpt>
      <trkpt lat="45.16718" lon="5.27224">
        <ele>610</ele>
        <time>2020-03-01T09:45:21.000Z</time>
      </trkpt>
      <trkpt lat="45.16718" lon="5.27222">
        <ele>610.20001220703</ele>
        <time>2020-03-01T09:45:22.000Z</time>
      </trkpt>
      <trkpt lat="45.16718" lon="5.2722">
        <ele>610.20001220703</ele>
        <time>2020-03-01T09:45:23.000Z</time>
      </trkpt>
      <trkpt lat="45.16719" lon="5.27218">
        <ele>610.20001220703</ele>
        <time>2020-03-01T09:45:24.000Z</time>
      </trkpt>
      <trkpt lat="45.1672" lon="5.27216">
        <ele>610.20001220703</ele>
        <time>2020-03-01T09:45:25.000Z</time>
      </trkpt>
      <trkpt lat="45.16721" lon="5.27213">
        <ele>610.20001220703</ele>
        <time>2020-03-01T09:45:26.000Z</time>
      </trkpt>
      <trkpt lat="45.16721" lon="5.2721">
        <ele>610.20001220703</ele>
        <time>2020-03-01T09:45:27.000Z</time>
      </trkpt>
      <trkpt lat="45.16722" lon="5.27208">
        <ele>610.40002441406</ele>
        <time>2020-03-01T09:45:28.000Z</time>
      </trkpt>
      <trkpt lat="45.16708" lon="5.27188">
        <ele>610.40002441406</ele>
        <time>2020-03-01T09:45:29.000Z</time>
      </trkpt>
      <trkpt lat="45.16705" lon="5.27184">
        <ele>610.40002441406</ele>
        <time>2020-03-01T09:45:30.000Z</time>
      </trkpt>
      <trkpt lat="45.16704" lon="5.27182">
        <ele>610.40002441406</ele>
        <time>2020-03-01T09:45:31.000Z</time>
      </trkpt>
      <trkpt lat="45.16703" lon="5.27181">
        <ele>610.40002441406</ele>
        <time>2020-03-01T09:45:32.000Z</time>
      </trkpt>
      <trkpt lat="45.16703" lon="5.27181">
        <ele>610.40002441406</ele>
        <time>2020-03-01T09:45:33.000Z</time>
      </trkpt>
      <trkpt lat="45.16703" lon="5.27182">
        <ele>610.20001220703</ele>
        <time>2020-03-01T09:45:34.000Z</time>
      </trkpt>
      <trkpt lat="45.16704" lon="5.27184">
        <ele>610</ele>
        <time>2020-03-01T09:45:35.000Z</time>
      </trkpt>
      <trkpt lat="45.16706" lon="5.27186">
        <ele>610.20001220703</ele>
        <time>2020-03-01T09:45:36.000Z</time>
      </trkpt>
      <trkpt lat="45.16718" lon="5.27192">
        <ele>610</ele>
        <time>2020-03-01T09:45:37.000Z</time>
      </trkpt>
      <trkpt lat="45.16724" lon="5.27195">
        <ele>610</ele>
        <time>2020-03-01T09:45:38.000Z</time>
      </trkpt>
      <trkpt lat="45.16731" lon="5.27199">
        <ele>609.79998779297</ele>
        <time>2020-03-01T09:45:39.000Z</time>
      </trkpt>
      <trkpt lat="45.16734" lon="5.27201">
        <ele>609.79998779297</ele>
        <time>2020-03-01T09:45:40.000Z</time>
      </trkpt>
      <trkpt lat="45.16739" lon="5.27204">
        <ele>609.59997558594</ele>
        <time>2020-03-01T09:45:41.000Z</time>
      </trkpt>
      <trkpt lat="45.16742" lon="5.27207">
        <ele>609.59997558594</ele>
        <time>2020-03-01T09:45:42.000Z</time>
      </trkpt>
      <trkpt lat="45.16745" lon="5.2721">
        <ele>609.40002441406</ele>
        <time>2020-03-01T09:45:43.000Z</time>
      </trkpt>
      <trkpt lat="45.16748" lon="5.27212">
        <ele>609.40002441406</ele>
        <time>2020-03-01T09:45:44.000Z</time>
      </trkpt>
      <trkpt lat="45.16751" lon="5.27214">
        <ele>609.20001220703</ele>
        <time>2020-03-01T09:45:45.000Z</time>
      </trkpt>
      <trkpt lat="45.16753" lon="5.27217">
        <ele>609.40002441406</ele>
        <time>2020-03-01T09:45:46.000Z</time>
      </trkpt>
      <trkpt lat="45.16754" lon="5.27219">
        <ele>609.40002441406</ele>
        <time>2020-03-01T09:45:47.000Z</time>
      </trkpt>
      <trkpt lat="45.16757" lon="5.27222">
        <ele>609</ele>
        <time>2020-03-01T09:45:48.000Z</time>
      </trkpt>
      <trkpt lat="45.16761" lon="5.27226">
        <ele>608.59997558594</ele>
        <time>2020-03-01T09:45:49.000Z</time>
      </trkpt>
      <trkpt lat="45.16762" lon="5.27229">
        <ele>608.40002441406</ele>
        <time>2020-03-01T09:45:50.000Z</time>
      </trkpt>
      <trkpt lat="45.16762" lon="5.27233">
        <ele>608.20001220703</ele>
        <time>2020-03-01T09:45:51.000Z</time>
      </trkpt>
      <trkpt lat="45.16762" lon="5.27236">
        <ele>608</ele>
        <time>2020-03-01T09:45:52.000Z</time>
      </trkpt>
      <trkpt lat="45.16761" lon="5.2724">
        <ele>608</ele>
        <time>2020-03-01T09:45:53.000Z</time>
      </trkpt>
      <trkpt lat="45.16765" lon="5.27245">
        <ele>608</ele>
        <time>2020-03-01T09:45:54.000Z</time>
      </trkpt>
      <trkpt lat="45.16765" lon="5.27247">
        <ele>608</ele>
        <time>2020-03-01T09:45:55.000Z</time>
      </trkpt>
      <trkpt lat="45.16764" lon="5.27249">
        <ele>608</ele>
        <time>2020-03-01T09:45:56.000Z</time>
      </trkpt>
      <trkpt lat="45.16763" lon="5.27252">
        <ele>608.20001220703</ele>
        <time>2020-03-01T09:45:57.000Z</time>
      </trkpt>
      <trkpt lat="45.16765" lon="5.27255">
        <ele>608.20001220703</ele>
        <time>2020-03-01T09:45:58.000Z</time>
      </trkpt>
      <trkpt lat="45.16765" lon="5.27258">
        <ele>608.20001220703</ele>
        <time>2020-03-01T09:45:59.000Z</time>
      </trkpt>
      <trkpt lat="45.16763" lon="5.2726">
        <ele>607.79998779297</ele>
        <time>2020-03-01T09:46:00.000Z</time>
      </trkpt>
      <trkpt lat="45.16763" lon="5.27262">
        <ele>607.59997558594</ele>
        <time>2020-03-01T09:46:01.000Z</time>
      </trkpt>
      <trkpt lat="45.16762" lon="5.27264">
        <ele>607.40002441406</ele>
        <time>2020-03-01T09:46:02.000Z</time>
      </trkpt>
      <trkpt lat="45.16763" lon="5.27265">
        <ele>606.79998779297</ele>
        <time>2020-03-01T09:46:03.000Z</time>
      </trkpt>
      <trkpt lat="45.16763" lon="5.27267">
        <ele>606.20001220703</ele>
        <time>2020-03-01T09:46:04.000Z</time>
      </trkpt>
      <trkpt lat="45.16764" lon="5.27268">
        <ele>605.59997558594</ele>
        <time>2020-03-01T09:46:05.000Z</time>
      </trkpt>
      <trkpt lat="45.16764" lon="5.2727">
        <ele>605.40002441406</ele>
        <time>2020-03-01T09:46:06.000Z</time>
      </trkpt>
      <trkpt lat="45.16763" lon="5.27272">
        <ele>605.20001220703</ele>
        <time>2020-03-01T09:46:07.000Z</time>
      </trkpt>
      <trkpt lat="45.16762" lon="5.27274">
        <ele>605</ele>
        <time>2020-03-01T09:46:08.000Z</time>
      </trkpt>
      <trkpt lat="45.16762" lon="5.27277">
        <ele>605</ele>
        <time>2020-03-01T09:46:09.000Z</time>
      </trkpt>
      <trkpt lat="45.16762" lon="5.27279">
        <ele>605</ele>
        <time>2020-03-01T09:46:10.000Z</time>
      </trkpt>
      <trkpt lat="45.16762" lon="5.27281">
        <ele>605</ele>
        <time>2020-03-01T09:46:11.000Z</time>
      </trkpt>
      <trkpt lat="45.16763" lon="5.27282">
        <ele>605.20001220703</ele>
        <time>2020-03-01T09:46:12.000Z</time>
      </trkpt>
      <trkpt lat="45.16764" lon="5.27283">
        <ele>605.20001220703</ele>
        <time>2020-03-01T09:46:13.000Z</time>
      </trkpt>
      <trkpt lat="45.16765" lon="5.27284">
        <ele>605.40002441406</ele>
        <time>2020-03-01T09:46:14.000Z</time>
      </trkpt>
      <trkpt lat="45.16765" lon="5.27284">
        <ele>605.79998779297</ele>
        <time>2020-03-01T09:46:15.000Z</time>
      </trkpt>
      <trkpt lat="45.16766" lon="5.27285">
        <ele>606</ele>
        <time>2020-03-01T09:46:16.000Z</time>
      </trkpt>
      <trkpt lat="45.16768" lon="5.27287">
        <ele>606.20001220703</ele>
        <time>2020-03-01T09:46:17.000Z</time>
      </trkpt>
      <trkpt lat="45.16769" lon="5.27287">
        <ele>606.40002441406</ele>
        <time>2020-03-01T09:46:18.000Z</time>
      </trkpt>
      <trkpt lat="45.1677" lon="5.27287">
        <ele>606.59997558594</ele>
        <time>2020-03-01T09:46:19.000Z</time>
      </trkpt>
      <trkpt lat="45.16771" lon="5.27287">
        <ele>606.59997558594</ele>
        <time>2020-03-01T09:46:20.000Z</time>
      </trkpt>
      <trkpt lat="45.16772" lon="5.27286">
        <ele>606.79998779297</ele>
        <time>2020-03-01T09:46:21.000Z</time>
      </trkpt>
      <trkpt lat="45.16775" lon="5.27286">
        <ele>606.79998779297</ele>
        <time>2020-03-01T09:46:22.000Z</time>
      </trkpt>
      <trkpt lat="45.16777" lon="5.27285">
        <ele>607</ele>
        <time>2020-03-01T09:46:23.000Z</time>
      </trkpt>
      <trkpt lat="45.16778" lon="5.27284">
        <ele>607.20001220703</ele>
        <time>2020-03-01T09:46:24.000Z</time>
      </trkpt>
      <trkpt lat="45.16779" lon="5.27283">
        <ele>607.20001220703</ele>
        <time>2020-03-01T09:46:25.000Z</time>
      </trkpt>
      <trkpt lat="45.16781" lon="5.27281">
        <ele>607.20001220703</ele>
        <time>2020-03-01T09:46:26.000Z</time>
      </trkpt>
      <trkpt lat="45.16783" lon="5.27279">
        <ele>607.20001220703</ele>
        <time>2020-03-01T09:46:27.000Z</time>
      </trkpt>
      <trkpt lat="45.16784" lon="5.27278">
        <ele>607.20001220703</ele>
        <time>2020-03-01T09:46:28.000Z</time>
      </trkpt>
      <trkpt lat="45.16785" lon="5.27276">
        <ele>607.20001220703</ele>
        <time>2020-03-01T09:46:29.000Z</time>
      </trkpt>
      <trkpt lat="45.16787" lon="5.27275">
        <ele>607.20001220703</ele>
        <time>2020-03-01T09:46:30.000Z</time>
      </trkpt>
      <trkpt lat="45.16788" lon="5.27273">
        <ele>607.20001220703</ele>
        <time>2020-03-01T09:46:31.000Z</time>
      </trkpt>
      <trkpt lat="45.16789" lon="5.27272">
        <ele>607.20001220703</ele>
        <time>2020-03-01T09:46:32.000Z</time>
      </trkpt>
      <trkpt lat="45.16791" lon="5.2727">
        <ele>607.20001220703</ele>
        <time>2020-03-01T09:46:33.000Z</time>
      </trkpt>
      <trkpt lat="45.16792" lon="5.27268">
        <ele>607.40002441406</ele>
        <time>2020-03-01T09:46:34.000Z</time>
      </trkpt>
      <trkpt lat="45.16793" lon="5.27266">
        <ele>607.59997558594</ele>
        <time>2020-03-01T09:46:35.000Z</time>
      </trkpt>
      <trkpt lat="45.16794" lon="5.27265">
        <ele>607.59997558594</ele>
        <time>2020-03-01T09:46:36.000Z</time>
      </trkpt>
      <trkpt lat="45.16796" lon="5.27264">
        <ele>607.79998779297</ele>
        <time>2020-03-01T09:46:37.000Z</time>
      </trkpt>
      <trkpt lat="45.16797" lon="5.27263">
        <ele>608.20001220703</ele>
        <time>2020-03-01T09:46:38.000Z</time>
      </trkpt>
      <trkpt lat="45.16798" lon="5.27263">
        <ele>608.40002441406</ele>
        <time>2020-03-01T09:46:39.000Z</time>
      </trkpt>
      <trkpt lat="45.16799" lon="5.27263">
        <ele>608.79998779297</ele>
        <time>2020-03-01T09:46:40.000Z</time>
      </trkpt>
      <trkpt lat="45.168" lon="5.27263">
        <ele>609</ele>
        <time>2020-03-01T09:46:41.000Z</time>
      </trkpt>
      <trkpt lat="45.16801" lon="5.27264">
        <ele>609.20001220703</ele>
        <time>2020-03-01T09:46:42.000Z</time>
      </trkpt>
      <trkpt lat="45.16801" lon="5.27265">
        <ele>609.20001220703</ele>
        <time>2020-03-01T09:46:43.000Z</time>
      </trkpt>
      <trkpt lat="45.16802" lon="5.27266">
        <ele>609.20001220703</ele>
        <time>2020-03-01T09:46:44.000Z</time>
      </trkpt>
      <trkpt lat="45.16803" lon="5.27266">
        <ele>609.40002441406</ele>
        <time>2020-03-01T09:46:45.000Z</time>
      </trkpt>
      <trkpt lat="45.16803" lon="5.27265">
        <ele>609.40002441406</ele>
        <time>2020-03-01T09:46:46.000Z</time>
      </trkpt>
      <trkpt lat="45.16804" lon="5.27267">
        <ele>609.59997558594</ele>
        <time>2020-03-01T09:46:47.000Z</time>
      </trkpt>
      <trkpt lat="45.16805" lon="5.27269">
        <ele>609.79998779297</ele>
        <time>2020-03-01T09:46:48.000Z</time>
      </trkpt>
      <trkpt lat="45.16805" lon="5.27271">
        <ele>610</ele>
        <time>2020-03-01T09:46:49.000Z</time>
      </trkpt>
      <trkpt lat="45.16806" lon="5.27273">
        <ele>610.20001220703</ele>
        <time>2020-03-01T09:46:50.000Z</time>
      </trkpt>
      <trkpt lat="45.16807" lon="5.27274">
        <ele>610.59997558594</ele>
        <time>2020-03-01T09:46:51.000Z</time>
      </trkpt>
      <trkpt lat="45.16809" lon="5.27276">
        <ele>610.79998779297</ele>
        <time>2020-03-01T09:46:52.000Z</time>
      </trkpt>
      <trkpt lat="45.16811" lon="5.27278">
        <ele>610.79998779297</ele>
        <time>2020-03-01T09:46:53.000Z</time>
      </trkpt>
      <trkpt lat="45.16813" lon="5.2728">
        <ele>610.79998779297</ele>
        <time>2020-03-01T09:46:54.000Z</time>
      </trkpt>
      <trkpt lat="45.16814" lon="5.27282">
        <ele>610.79998779297</ele>
        <time>2020-03-01T09:46:55.000Z</time>
      </trkpt>
      <trkpt lat="45.16816" lon="5.27284">
        <ele>610.79998779297</ele>
        <time>2020-03-01T09:46:56.000Z</time>
      </trkpt>
      <trkpt lat="45.16816" lon="5.27285">
        <ele>610.79998779297</ele>
        <time>2020-03-01T09:46:57.000Z</time>
      </trkpt>
      <trkpt lat="45.16817" lon="5.27286">
        <ele>610.79998779297</ele>
        <time>2020-03-01T09:46:58.000Z</time>
      </trkpt>
      <trkpt lat="45.16817" lon="5.27287">
        <ele>611</ele>
        <time>2020-03-01T09:46:59.000Z</time>
      </trkpt>
      <trkpt lat="45.16817" lon="5.27288">
        <ele>611.20001220703</ele>
        <time>2020-03-01T09:47:00.000Z</time>
      </trkpt>
      <trkpt lat="45.16818" lon="5.27289">
        <ele>611.20001220703</ele>
        <time>2020-03-01T09:47:01.000Z</time>
      </trkpt>
      <trkpt lat="45.16818" lon="5.27291">
        <ele>611.59997558594</ele>
        <time>2020-03-01T09:47:02.000Z</time>
      </trkpt>
      <trkpt lat="45.1682" lon="5.27294">
        <ele>611.79998779297</ele>
        <time>2020-03-01T09:47:03.000Z</time>
      </trkpt>
      <trkpt lat="45.1682" lon="5.27296">
        <ele>612</ele>
        <time>2020-03-01T09:47:04.000Z</time>
      </trkpt>
      <trkpt lat="45.16821" lon="5.27297">
        <ele>611.79998779297</ele>
        <time>2020-03-01T09:47:05.000Z</time>
      </trkpt>
      <trkpt lat="45.16821" lon="5.27298">
        <ele>611.79998779297</ele>
        <time>2020-03-01T09:47:06.000Z</time>
      </trkpt>
      <trkpt lat="45.16822" lon="5.273">
        <ele>611.79998779297</ele>
        <time>2020-03-01T09:47:07.000Z</time>
      </trkpt>
      <trkpt lat="45.16822" lon="5.27301">
        <ele>612</ele>
        <time>2020-03-01T09:47:08.000Z</time>
      </trkpt>
      <trkpt lat="45.16824" lon="5.27304">
        <ele>612</ele>
        <time>2020-03-01T09:47:09.000Z</time>
      </trkpt>
      <trkpt lat="45.16825" lon="5.27306">
        <ele>612</ele>
        <time>2020-03-01T09:47:10.000Z</time>
      </trkpt>
      <trkpt lat="45.16827" lon="5.27309">
        <ele>612.20001220703</ele>
        <time>2020-03-01T09:47:11.000Z</time>
      </trkpt>
      <trkpt lat="45.16828" lon="5.27311">
        <ele>612.40002441406</ele>
        <time>2020-03-01T09:47:12.000Z</time>
      </trkpt>
      <trkpt lat="45.1683" lon="5.27314">
        <ele>612.59997558594</ele>
        <time>2020-03-01T09:47:13.000Z</time>
      </trkpt>
      <trkpt lat="45.16833" lon="5.27318">
        <ele>612.59997558594</ele>
        <time>2020-03-01T09:47:14.000Z</time>
      </trkpt>
      <trkpt lat="45.16835" lon="5.2732">
        <ele>612.40002441406</ele>
        <time>2020-03-01T09:47:15.000Z</time>
      </trkpt>
      <trkpt lat="45.16836" lon="5.27321">
        <ele>612.40002441406</ele>
        <time>2020-03-01T09:47:16.000Z</time>
      </trkpt>
      <trkpt lat="45.16837" lon="5.27321">
        <ele>612.40002441406</ele>
        <time>2020-03-01T09:47:17.000Z</time>
      </trkpt>
      <trkpt lat="45.16838" lon="5.27322">
        <ele>612.59997558594</ele>
        <time>2020-03-01T09:47:18.000Z</time>
      </trkpt>
      <trkpt lat="45.16839" lon="5.27322">
        <ele>612.59997558594</ele>
        <time>2020-03-01T09:47:19.000Z</time>
      </trkpt>
      <trkpt lat="45.1684" lon="5.27322">
        <ele>612.79998779297</ele>
        <time>2020-03-01T09:47:20.000Z</time>
      </trkpt>
      <trkpt lat="45.16842" lon="5.27322">
        <ele>613</ele>
        <time>2020-03-01T09:47:21.000Z</time>
      </trkpt>
      <trkpt lat="45.16844" lon="5.27322">
        <ele>613.20001220703</ele>
        <time>2020-03-01T09:47:22.000Z</time>
      </trkpt>
      <trkpt lat="45.16845" lon="5.27322">
        <ele>613.40002441406</ele>
        <time>2020-03-01T09:47:23.000Z</time>
      </trkpt>
      <trkpt lat="45.16846" lon="5.27322">
        <ele>613.59997558594</ele>
        <time>2020-03-01T09:47:24.000Z</time>
      </trkpt>
      <trkpt lat="45.16847" lon="5.27322">
        <ele>613.79998779297</ele>
        <time>2020-03-01T09:47:25.000Z</time>
      </trkpt>
      <trkpt lat="45.16849" lon="5.27322">
        <ele>614.20001220703</ele>
        <time>2020-03-01T09:47:26.000Z</time>
      </trkpt>
      <trkpt lat="45.1685" lon="5.27321">
        <ele>614.40002441406</ele>
        <time>2020-03-01T09:47:27.000Z</time>
      </trkpt>
      <trkpt lat="45.16851" lon="5.27321">
        <ele>614.59997558594</ele>
        <time>2020-03-01T09:47:28.000Z</time>
      </trkpt>
      <trkpt lat="45.16852" lon="5.27322">
        <ele>614.59997558594</ele>
        <time>2020-03-01T09:47:29.000Z</time>
      </trkpt>
      <trkpt lat="45.16853" lon="5.27322">
        <ele>614.79998779297</ele>
        <time>2020-03-01T09:47:30.000Z</time>
      </trkpt>
      <trkpt lat="45.16854" lon="5.27322">
        <ele>614.79998779297</ele>
        <time>2020-03-01T09:47:31.000Z</time>
      </trkpt>
      <trkpt lat="45.16855" lon="5.27322">
        <ele>615</ele>
        <time>2020-03-01T09:47:32.000Z</time>
      </trkpt>
      <trkpt lat="45.16857" lon="5.27323">
        <ele>615</ele>
        <time>2020-03-01T09:47:33.000Z</time>
      </trkpt>
      <trkpt lat="45.16857" lon="5.27323">
        <ele>615.20001220703</ele>
        <time>2020-03-01T09:47:34.000Z</time>
      </trkpt>
      <trkpt lat="45.16858" lon="5.27323">
        <ele>615.40002441406</ele>
        <time>2020-03-01T09:47:35.000Z</time>
      </trkpt>
      <trkpt lat="45.16859" lon="5.27323">
        <ele>615.40002441406</ele>
        <time>2020-03-01T09:47:36.000Z</time>
      </trkpt>
      <trkpt lat="45.16861" lon="5.27322">
        <ele>615.59997558594</ele>
        <time>2020-03-01T09:47:37.000Z</time>
      </trkpt>
      <trkpt lat="45.16863" lon="5.27323">
        <ele>615.79998779297</ele>
        <time>2020-03-01T09:47:38.000Z</time>
      </trkpt>
      <trkpt lat="45.16865" lon="5.27323">
        <ele>616</ele>
        <time>2020-03-01T09:47:39.000Z</time>
      </trkpt>
      <trkpt lat="45.16868" lon="5.27323">
        <ele>616.20001220703</ele>
        <time>2020-03-01T09:47:40.000Z</time>
      </trkpt>
      <trkpt lat="45.16871" lon="5.27323">
        <ele>616.40002441406</ele>
        <time>2020-03-01T09:47:41.000Z</time>
      </trkpt>
      <trkpt lat="45.16872" lon="5.27323">
        <ele>616.59997558594</ele>
        <time>2020-03-01T09:47:42.000Z</time>
      </trkpt>
      <trkpt lat="45.16874" lon="5.27324">
        <ele>616.79998779297</ele>
        <time>2020-03-01T09:47:43.000Z</time>
      </trkpt>
      <trkpt lat="45.16876" lon="5.27324">
        <ele>617</ele>
        <time>2020-03-01T09:47:44.000Z</time>
      </trkpt>
      <trkpt lat="45.16877" lon="5.27325">
        <ele>617.20001220703</ele>
        <time>2020-03-01T09:47:45.000Z</time>
      </trkpt>
      <trkpt lat="45.16879" lon="5.27326">
        <ele>617.40002441406</ele>
        <time>2020-03-01T09:47:46.000Z</time>
      </trkpt>
      <trkpt lat="45.16879" lon="5.27327">
        <ele>617.59997558594</ele>
        <time>2020-03-01T09:47:47.000Z</time>
      </trkpt>
      <trkpt lat="45.1688" lon="5.27327">
        <ele>617.59997558594</ele>
        <time>2020-03-01T09:47:48.000Z</time>
      </trkpt>
      <trkpt lat="45.16881" lon="5.27328">
        <ele>617.79998779297</ele>
        <time>2020-03-01T09:47:49.000Z</time>
      </trkpt>
      <trkpt lat="45.16882" lon="5.27328">
        <ele>617.79998779297</ele>
        <time>2020-03-01T09:47:50.000Z</time>
      </trkpt>
      <trkpt lat="45.16883" lon="5.27328">
        <ele>618</ele>
        <time>2020-03-01T09:47:51.000Z</time>
      </trkpt>
      <trkpt lat="45.16884" lon="5.27329">
        <ele>618</ele>
        <time>2020-03-01T09:47:52.000Z</time>
      </trkpt>
      <trkpt lat="45.16885" lon="5.27329">
        <ele>618.20001220703</ele>
        <time>2020-03-01T09:47:53.000Z</time>
      </trkpt>
      <trkpt lat="45.16886" lon="5.2733">
        <ele>618.59997558594</ele>
        <time>2020-03-01T09:47:54.000Z</time>
      </trkpt>
      <trkpt lat="45.16887" lon="5.2733">
        <ele>618.79998779297</ele>
        <time>2020-03-01T09:47:55.000Z</time>
      </trkpt>
      <trkpt lat="45.16888" lon="5.2733">
        <ele>618.79998779297</ele>
        <time>2020-03-01T09:47:56.000Z</time>
      </trkpt>
      <trkpt lat="45.16889" lon="5.2733">
        <ele>619</ele>
        <time>2020-03-01T09:47:57.000Z</time>
      </trkpt>
      <trkpt lat="45.16888" lon="5.27329">
        <ele>619</ele>
        <time>2020-03-01T09:47:58.000Z</time>
      </trkpt>
      <trkpt lat="45.16889" lon="5.27329">
        <ele>619.79998779297</ele>
        <time>2020-03-01T09:47:59.000Z</time>
      </trkpt>
      <trkpt lat="45.16889" lon="5.27328">
        <ele>620.20001220703</ele>
        <time>2020-03-01T09:48:00.000Z</time>
      </trkpt>
      <trkpt lat="45.16889" lon="5.27327">
        <ele>620.20001220703</ele>
        <time>2020-03-01T09:48:01.000Z</time>
      </trkpt>
      <trkpt lat="45.16889" lon="5.27327">
        <ele>620.40002441406</ele>
        <time>2020-03-01T09:48:02.000Z</time>
      </trkpt>
      <trkpt lat="45.16889" lon="5.27327">
        <ele>620.40002441406</ele>
        <time>2020-03-01T09:48:03.000Z</time>
      </trkpt>
      <trkpt lat="45.1689" lon="5.27326">
        <ele>619.59997558594</ele>
        <time>2020-03-01T09:48:04.000Z</time>
      </trkpt>
      <trkpt lat="45.1689" lon="5.27325">
        <ele>619.20001220703</ele>
        <time>2020-03-01T09:48:05.000Z</time>
      </trkpt>
      <trkpt lat="45.16891" lon="5.27325">
        <ele>619</ele>
        <time>2020-03-01T09:48:06.000Z</time>
      </trkpt>
      <trkpt lat="45.16891" lon="5.27325">
        <ele>618.79998779297</ele>
        <time>2020-03-01T09:48:07.000Z</time>
      </trkpt>
      <trkpt lat="45.16892" lon="5.27325">
        <ele>618.79998779297</ele>
        <time>2020-03-01T09:48:08.000Z</time>
      </trkpt>
      <trkpt lat="45.16892" lon="5.27325">
        <ele>618.79998779297</ele>
        <time>2020-03-01T09:48:09.000Z</time>
      </trkpt>
      <trkpt lat="45.16893" lon="5.27325">
        <ele>618.79998779297</ele>
        <time>2020-03-01T09:48:10.000Z</time>
      </trkpt>
      <trkpt lat="45.16892" lon="5.27327">
        <ele>618.79998779297</ele>
        <time>2020-03-01T09:48:11.000Z</time>
      </trkpt>
      <trkpt lat="45.16892" lon="5.27328">
        <ele>618.59997558594</ele>
        <time>2020-03-01T09:48:12.000Z</time>
      </trkpt>
      <trkpt lat="45.16892" lon="5.27336">
        <ele>618.59997558594</ele>
        <time>2020-03-01T09:48:13.000Z</time>
      </trkpt>
      <trkpt lat="45.16891" lon="5.27335">
        <ele>618.40002441406</ele>
        <time>2020-03-01T09:48:14.000Z</time>
      </trkpt>
      <trkpt lat="45.16891" lon="5.27338">
        <ele>618.40002441406</ele>
        <time>2020-03-01T09:48:15.000Z</time>
      </trkpt>
      <trkpt lat="45.1689" lon="5.27338">
        <ele>618.40002441406</ele>
        <time>2020-03-01T09:48:16.000Z</time>
      </trkpt>
      <trkpt lat="45.16889" lon="5.27337">
        <ele>618.40002441406</ele>
        <time>2020-03-01T09:48:17.000Z</time>
      </trkpt>
      <trkpt lat="45.16889" lon="5.27337">
        <ele>618.59997558594</ele>
        <time>2020-03-01T09:48:18.000Z</time>
      </trkpt>
      <trkpt lat="45.16888" lon="5.2734">
        <ele>618.59997558594</ele>
        <time>2020-03-01T09:48:19.000Z</time>
      </trkpt>
      <trkpt lat="45.16889" lon="5.2734">
        <ele>618.59997558594</ele>
        <time>2020-03-01T09:48:20.000Z</time>
      </trkpt>
      <trkpt lat="45.16889" lon="5.2734">
        <ele>618.59997558594</ele>
        <time>2020-03-01T09:48:21.000Z</time>
      </trkpt>
      <trkpt lat="45.16889" lon="5.2734">
        <ele>618.59997558594</ele>
        <time>2020-03-01T09:48:22.000Z</time>
      </trkpt>
      <trkpt lat="45.16889" lon="5.2734">
        <ele>618.59997558594</ele>
        <time>2020-03-01T09:48:23.000Z</time>
      </trkpt>
      <trkpt lat="45.16889" lon="5.2734">
        <ele>618.59997558594</ele>
        <time>2020-03-01T09:48:24.000Z</time>
      </trkpt>
      <trkpt lat="45.1689" lon="5.2734">
        <ele>618.59997558594</ele>
        <time>2020-03-01T09:48:25.000Z</time>
      </trkpt>
      <trkpt lat="45.1689" lon="5.27339">
        <ele>618.79998779297</ele>
        <time>2020-03-01T09:48:26.000Z</time>
      </trkpt>
      <trkpt lat="45.1689" lon="5.27339">
        <ele>618.79998779297</ele>
        <time>2020-03-01T09:48:27.000Z</time>
      </trkpt>
      <trkpt lat="45.1689" lon="5.27339">
        <ele>618.79998779297</ele>
        <time>2020-03-01T09:48:28.000Z</time>
      </trkpt>
      <trkpt lat="45.1689" lon="5.27338">
        <ele>618.79998779297</ele>
        <time>2020-03-01T09:48:29.000Z</time>
      </trkpt>
      <trkpt lat="45.1689" lon="5.27338">
        <ele>618.79998779297</ele>
        <time>2020-03-01T09:48:30.000Z</time>
      </trkpt>
      <trkpt lat="45.1689" lon="5.27338">
        <ele>618.79998779297</ele>
        <time>2020-03-01T09:48:31.000Z</time>
      </trkpt>
      <trkpt lat="45.1689" lon="5.27338">
        <ele>618.79998779297</ele>
        <time>2020-03-01T09:48:32.000Z</time>
      </trkpt>
      <trkpt lat="45.1689" lon="5.27338">
        <ele>618.79998779297</ele>
        <time>2020-03-01T09:48:33.000Z</time>
      </trkpt>
      <trkpt lat="45.16891" lon="5.27338">
        <ele>619</ele>
        <time>2020-03-01T09:48:34.000Z</time>
      </trkpt>
      <trkpt lat="45.16891" lon="5.27339">
        <ele>619</ele>
        <time>2020-03-01T09:48:35.000Z</time>
      </trkpt>
      <trkpt lat="45.16891" lon="5.2734">
        <ele>619</ele>
        <time>2020-03-01T09:48:36.000Z</time>
      </trkpt>
      <trkpt lat="45.16892" lon="5.27341">
        <ele>619</ele>
        <time>2020-03-01T09:48:37.000Z</time>
      </trkpt>
      <trkpt lat="45.16892" lon="5.27342">
        <ele>619.20001220703</ele>
        <time>2020-03-01T09:48:38.000Z</time>
      </trkpt>
      <trkpt lat="45.16892" lon="5.27343">
        <ele>619.40002441406</ele>
        <time>2020-03-01T09:48:39.000Z</time>
      </trkpt>
      <trkpt lat="45.16893" lon="5.27344">
        <ele>619.59997558594</ele>
        <time>2020-03-01T09:48:40.000Z</time>
      </trkpt>
      <trkpt lat="45.16893" lon="5.27345">
        <ele>619.79998779297</ele>
        <time>2020-03-01T09:48:41.000Z</time>
      </trkpt>
      <trkpt lat="45.16894" lon="5.27346">
        <ele>620</ele>
        <time>2020-03-01T09:48:42.000Z</time>
      </trkpt>
      <trkpt lat="45.16894" lon="5.27347">
        <ele>620</ele>
        <time>2020-03-01T09:48:43.000Z</time>
      </trkpt>
      <trkpt lat="45.16893" lon="5.27347">
        <ele>620.40002441406</ele>
        <time>2020-03-01T09:48:44.000Z</time>
      </trkpt>
      <trkpt lat="45.16894" lon="5.27348">
        <ele>620.59997558594</ele>
        <time>2020-03-01T09:48:45.000Z</time>
      </trkpt>
      <trkpt lat="45.16894" lon="5.27348">
        <ele>620.79998779297</ele>
        <time>2020-03-01T09:48:46.000Z</time>
      </trkpt>
      <trkpt lat="45.16895" lon="5.27349">
        <ele>621</ele>
        <time>2020-03-01T09:48:47.000Z</time>
      </trkpt>
      <trkpt lat="45.16896" lon="5.2735">
        <ele>621.40002441406</ele>
        <time>2020-03-01T09:48:48.000Z</time>
      </trkpt>
      <trkpt lat="45.16896" lon="5.27351">
        <ele>621.59997558594</ele>
        <time>2020-03-01T09:48:49.000Z</time>
      </trkpt>
      <trkpt lat="45.16897" lon="5.27351">
        <ele>621.79998779297</ele>
        <time>2020-03-01T09:48:50.000Z</time>
      </trkpt>
      <trkpt lat="45.16898" lon="5.27352">
        <ele>622</ele>
        <time>2020-03-01T09:48:51.000Z</time>
      </trkpt>
      <trkpt lat="45.16899" lon="5.27353">
        <ele>622</ele>
        <time>2020-03-01T09:48:52.000Z</time>
      </trkpt>
      <trkpt lat="45.169" lon="5.27355">
        <ele>622.20001220703</ele>
        <time>2020-03-01T09:48:53.000Z</time>
      </trkpt>
      <trkpt lat="45.16901" lon="5.27356">
        <ele>622.59997558594</ele>
        <time>2020-03-01T09:48:54.000Z</time>
      </trkpt>
      <trkpt lat="45.16902" lon="5.27358">
        <ele>622.79998779297</ele>
        <time>2020-03-01T09:48:55.000Z</time>
      </trkpt>
      <trkpt lat="45.16903" lon="5.2736">
        <ele>622.79998779297</ele>
        <time>2020-03-01T09:48:56.000Z</time>
      </trkpt>
      <trkpt lat="45.16903" lon="5.27361">
        <ele>623</ele>
        <time>2020-03-01T09:48:57.000Z</time>
      </trkpt>
      <trkpt lat="45.16904" lon="5.27364">
        <ele>623.20001220703</ele>
        <time>2020-03-01T09:48:58.000Z</time>
      </trkpt>
      <trkpt lat="45.16905" lon="5.27364">
        <ele>623.40002441406</ele>
        <time>2020-03-01T09:48:59.000Z</time>
      </trkpt>
      <trkpt lat="45.16905" lon="5.27365">
        <ele>623.59997558594</ele>
        <time>2020-03-01T09:49:00.000Z</time>
      </trkpt>
      <trkpt lat="45.16906" lon="5.27365">
        <ele>623.79998779297</ele>
        <time>2020-03-01T09:49:01.000Z</time>
      </trkpt>
      <trkpt lat="45.16907" lon="5.27365">
        <ele>624</ele>
        <time>2020-03-01T09:49:02.000Z</time>
      </trkpt>
      <trkpt lat="45.16907" lon="5.27366">
        <ele>624</ele>
        <time>2020-03-01T09:49:03.000Z</time>
      </trkpt>
      <trkpt lat="45.16908" lon="5.27366">
        <ele>624.20001220703</ele>
        <time>2020-03-01T09:49:04.000Z</time>
      </trkpt>
      <trkpt lat="45.16908" lon="5.27366">
        <ele>624.40002441406</ele>
        <time>2020-03-01T09:49:05.000Z</time>
      </trkpt>
      <trkpt lat="45.16909" lon="5.27367">
        <ele>624.59997558594</ele>
        <time>2020-03-01T09:49:06.000Z</time>
      </trkpt>
      <trkpt lat="45.16909" lon="5.27368">
        <ele>624.79998779297</ele>
        <time>2020-03-01T09:49:07.000Z</time>
      </trkpt>
      <trkpt lat="45.1691" lon="5.27369">
        <ele>625.20001220703</ele>
        <time>2020-03-01T09:49:08.000Z</time>
      </trkpt>
      <trkpt lat="45.16911" lon="5.2737">
        <ele>625.40002441406</ele>
        <time>2020-03-01T09:49:09.000Z</time>
      </trkpt>
      <trkpt lat="45.16913" lon="5.27371">
        <ele>625.59997558594</ele>
        <time>2020-03-01T09:49:10.000Z</time>
      </trkpt>
      <trkpt lat="45.16914" lon="5.27372">
        <ele>625.79998779297</ele>
        <time>2020-03-01T09:49:11.000Z</time>
      </trkpt>
      <trkpt lat="45.16916" lon="5.27373">
        <ele>626</ele>
        <time>2020-03-01T09:49:12.000Z</time>
      </trkpt>
      <trkpt lat="45.16917" lon="5.27374">
        <ele>626.20001220703</ele>
        <time>2020-03-01T09:49:13.000Z</time>
      </trkpt>
      <trkpt lat="45.16919" lon="5.27374">
        <ele>626.40002441406</ele>
        <time>2020-03-01T09:49:14.000Z</time>
      </trkpt>
      <trkpt lat="45.1692" lon="5.27375">
        <ele>626.59997558594</ele>
        <time>2020-03-01T09:49:15.000Z</time>
      </trkpt>
      <trkpt lat="45.1692" lon="5.27376">
        <ele>626.79998779297</ele>
        <time>2020-03-01T09:49:16.000Z</time>
      </trkpt>
      <trkpt lat="45.1692" lon="5.27378">
        <ele>627</ele>
        <time>2020-03-01T09:49:17.000Z</time>
      </trkpt>
      <trkpt lat="45.16921" lon="5.2738">
        <ele>627.20001220703</ele>
        <time>2020-03-01T09:49:18.000Z</time>
      </trkpt>
      <trkpt lat="45.16921" lon="5.27381">
        <ele>627.40002441406</ele>
        <time>2020-03-01T09:49:19.000Z</time>
      </trkpt>
      <trkpt lat="45.16921" lon="5.27382">
        <ele>627.59997558594</ele>
        <time>2020-03-01T09:49:20.000Z</time>
      </trkpt>
      <trkpt lat="45.16921" lon="5.27383">
        <ele>627.79998779297</ele>
        <time>2020-03-01T09:49:21.000Z</time>
      </trkpt>
      <trkpt lat="45.16922" lon="5.27384">
        <ele>628</ele>
        <time>2020-03-01T09:49:22.000Z</time>
      </trkpt>
      <trkpt lat="45.16922" lon="5.27385">
        <ele>628.20001220703</ele>
        <time>2020-03-01T09:49:23.000Z</time>
      </trkpt>
      <trkpt lat="45.16922" lon="5.27385">
        <ele>628.40002441406</ele>
        <time>2020-03-01T09:49:24.000Z</time>
      </trkpt>
      <trkpt lat="45.16922" lon="5.27386">
        <ele>628.59997558594</ele>
        <time>2020-03-01T09:49:25.000Z</time>
      </trkpt>
      <trkpt lat="45.16922" lon="5.27386">
        <ele>628.79998779297</ele>
        <time>2020-03-01T09:49:26.000Z</time>
      </trkpt>
      <trkpt lat="45.16925" lon="5.27387">
        <ele>629.20001220703</ele>
        <time>2020-03-01T09:49:27.000Z</time>
      </trkpt>
      <trkpt lat="45.16925" lon="5.27388">
        <ele>629.40002441406</ele>
        <time>2020-03-01T09:49:28.000Z</time>
      </trkpt>
      <trkpt lat="45.16926" lon="5.27389">
        <ele>629.59997558594</ele>
        <time>2020-03-01T09:49:29.000Z</time>
      </trkpt>
      <trkpt lat="45.16927" lon="5.2739">
        <ele>629.79998779297</ele>
        <time>2020-03-01T09:49:30.000Z</time>
      </trkpt>
      <trkpt lat="45.16928" lon="5.27391">
        <ele>630</ele>
        <time>2020-03-01T09:49:31.000Z</time>
      </trkpt>
      <trkpt lat="45.16928" lon="5.27392">
        <ele>630.40002441406</ele>
        <time>2020-03-01T09:49:32.000Z</time>
      </trkpt>
      <trkpt lat="45.16928" lon="5.27393">
        <ele>630.59997558594</ele>
        <time>2020-03-01T09:49:33.000Z</time>
      </trkpt>
      <trkpt lat="45.16929" lon="5.27394">
        <ele>631</ele>
        <time>2020-03-01T09:49:34.000Z</time>
      </trkpt>
      <trkpt lat="45.16929" lon="5.27395">
        <ele>631</ele>
        <time>2020-03-01T09:49:35.000Z</time>
      </trkpt>
      <trkpt lat="45.1693" lon="5.27396">
        <ele>631.20001220703</ele>
        <time>2020-03-01T09:49:36.000Z</time>
      </trkpt>
      <trkpt lat="45.16931" lon="5.27396">
        <ele>631.40002441406</ele>
        <time>2020-03-01T09:49:37.000Z</time>
      </trkpt>
      <trkpt lat="45.16931" lon="5.27397">
        <ele>631.59997558594</ele>
        <time>2020-03-01T09:49:38.000Z</time>
      </trkpt>
      <trkpt lat="45.16932" lon="5.27398">
        <ele>631.79998779297</ele>
        <time>2020-03-01T09:49:39.000Z</time>
      </trkpt>
      <trkpt lat="45.16932" lon="5.27399">
        <ele>632</ele>
        <time>2020-03-01T09:49:40.000Z</time>
      </trkpt>
      <trkpt lat="45.16933" lon="5.274">
        <ele>632.20001220703</ele>
        <time>2020-03-01T09:49:41.000Z</time>
      </trkpt>
      <trkpt lat="45.16933" lon="5.27401">
        <ele>632.59997558594</ele>
        <time>2020-03-01T09:49:42.000Z</time>
      </trkpt>
      <trkpt lat="45.16933" lon="5.27403">
        <ele>632.79998779297</ele>
        <time>2020-03-01T09:49:43.000Z</time>
      </trkpt>
      <trkpt lat="45.16933" lon="5.27404">
        <ele>632.79998779297</ele>
        <time>2020-03-01T09:49:44.000Z</time>
      </trkpt>
      <trkpt lat="45.16935" lon="5.27405">
        <ele>633</ele>
        <time>2020-03-01T09:49:45.000Z</time>
      </trkpt>
      <trkpt lat="45.16936" lon="5.27405">
        <ele>633</ele>
        <time>2020-03-01T09:49:46.000Z</time>
      </trkpt>
      <trkpt lat="45.16938" lon="5.27406">
        <ele>633.20001220703</ele>
        <time>2020-03-01T09:49:47.000Z</time>
      </trkpt>
      <trkpt lat="45.16939" lon="5.27407">
        <ele>633.40002441406</ele>
        <time>2020-03-01T09:49:48.000Z</time>
      </trkpt>
      <trkpt lat="45.16939" lon="5.27408">
        <ele>633.59997558594</ele>
        <time>2020-03-01T09:49:49.000Z</time>
      </trkpt>
      <trkpt lat="45.16939" lon="5.27408">
        <ele>633.79998779297</ele>
        <time>2020-03-01T09:49:50.000Z</time>
      </trkpt>
      <trkpt lat="45.1694" lon="5.27409">
        <ele>633.79998779297</ele>
        <time>2020-03-01T09:49:51.000Z</time>
      </trkpt>
      <trkpt lat="45.1694" lon="5.2741">
        <ele>634</ele>
        <time>2020-03-01T09:49:52.000Z</time>
      </trkpt>
      <trkpt lat="45.16941" lon="5.27412">
        <ele>634.20001220703</ele>
        <time>2020-03-01T09:49:53.000Z</time>
      </trkpt>
      <trkpt lat="45.16942" lon="5.27413">
        <ele>634.40002441406</ele>
        <time>2020-03-01T09:49:54.000Z</time>
      </trkpt>
      <trkpt lat="45.16943" lon="5.27414">
        <ele>634.59997558594</ele>
        <time>2020-03-01T09:49:55.000Z</time>
      </trkpt>
      <trkpt lat="45.16944" lon="5.27415">
        <ele>634.79998779297</ele>
        <time>2020-03-01T09:49:56.000Z</time>
      </trkpt>
      <trkpt lat="45.16944" lon="5.27416">
        <ele>634.79998779297</ele>
        <time>2020-03-01T09:49:57.000Z</time>
      </trkpt>
      <trkpt lat="45.16945" lon="5.27417">
        <ele>635</ele>
        <time>2020-03-01T09:49:58.000Z</time>
      </trkpt>
      <trkpt lat="45.16945" lon="5.27418">
        <ele>635</ele>
        <time>2020-03-01T09:49:59.000Z</time>
      </trkpt>
      <trkpt lat="45.16945" lon="5.27418">
        <ele>635.20001220703</ele>
        <time>2020-03-01T09:50:00.000Z</time>
      </trkpt>
      <trkpt lat="45.16946" lon="5.27419">
        <ele>635.40002441406</ele>
        <time>2020-03-01T09:50:01.000Z</time>
      </trkpt>
      <trkpt lat="45.16946" lon="5.2742">
        <ele>635.40002441406</ele>
        <time>2020-03-01T09:50:02.000Z</time>
      </trkpt>
      <trkpt lat="45.16946" lon="5.27421">
        <ele>635</ele>
        <time>2020-03-01T09:50:03.000Z</time>
      </trkpt>
      <trkpt lat="45.16948" lon="5.27422">
        <ele>635.40002441406</ele>
        <time>2020-03-01T09:50:04.000Z</time>
      </trkpt>
      <trkpt lat="45.16951" lon="5.27423">
        <ele>635.20001220703</ele>
        <time>2020-03-01T09:50:05.000Z</time>
      </trkpt>
      <trkpt lat="45.16952" lon="5.27424">
        <ele>635.40002441406</ele>
        <time>2020-03-01T09:50:06.000Z</time>
      </trkpt>
      <trkpt lat="45.16953" lon="5.27425">
        <ele>634.79998779297</ele>
        <time>2020-03-01T09:50:07.000Z</time>
      </trkpt>
      <trkpt lat="45.16953" lon="5.27425">
        <ele>634</ele>
        <time>2020-03-01T09:50:08.000Z</time>
      </trkpt>
      <trkpt lat="45.16954" lon="5.27426">
        <ele>633.59997558594</ele>
        <time>2020-03-01T09:50:09.000Z</time>
      </trkpt>
      <trkpt lat="45.16955" lon="5.27426">
        <ele>634</ele>
        <time>2020-03-01T09:50:10.000Z</time>
      </trkpt>
      <trkpt lat="45.16956" lon="5.27427">
        <ele>634</ele>
        <time>2020-03-01T09:50:11.000Z</time>
      </trkpt>
      <trkpt lat="45.16957" lon="5.27429">
        <ele>634.20001220703</ele>
        <time>2020-03-01T09:50:12.000Z</time>
      </trkpt>
      <trkpt lat="45.16958" lon="5.2743">
        <ele>634.40002441406</ele>
        <time>2020-03-01T09:50:13.000Z</time>
      </trkpt>
      <trkpt lat="45.16958" lon="5.27433">
        <ele>634.79998779297</ele>
        <time>2020-03-01T09:50:14.000Z</time>
      </trkpt>
      <trkpt lat="45.16958" lon="5.27435">
        <ele>635</ele>
        <time>2020-03-01T09:50:15.000Z</time>
      </trkpt>
      <trkpt lat="45.16959" lon="5.27437">
        <ele>635.59997558594</ele>
        <time>2020-03-01T09:50:16.000Z</time>
      </trkpt>
      <trkpt lat="45.16959" lon="5.27439">
        <ele>635.59997558594</ele>
        <time>2020-03-01T09:50:17.000Z</time>
      </trkpt>
      <trkpt lat="45.16959" lon="5.27441">
        <ele>635.79998779297</ele>
        <time>2020-03-01T09:50:18.000Z</time>
      </trkpt>
      <trkpt lat="45.16959" lon="5.27441">
        <ele>636.59997558594</ele>
        <time>2020-03-01T09:50:19.000Z</time>
      </trkpt>
      <trkpt lat="45.1696" lon="5.27443">
        <ele>636.40002441406</ele>
        <time>2020-03-01T09:50:20.000Z</time>
      </trkpt>
      <trkpt lat="45.1696" lon="5.27443">
        <ele>637</ele>
        <time>2020-03-01T09:50:21.000Z</time>
      </trkpt>
      <trkpt lat="45.1696" lon="5.27445">
        <ele>638</ele>
        <time>2020-03-01T09:50:22.000Z</time>
      </trkpt>
      <trkpt lat="45.1696" lon="5.27445">
        <ele>638.40002441406</ele>
        <time>2020-03-01T09:50:23.000Z</time>
      </trkpt>
      <trkpt lat="45.1696" lon="5.27447">
        <ele>639.20001220703</ele>
        <time>2020-03-01T09:50:24.000Z</time>
      </trkpt>
      <trkpt lat="45.16961" lon="5.27449">
        <ele>639.59997558594</ele>
        <time>2020-03-01T09:50:25.000Z</time>
      </trkpt>
      <trkpt lat="45.16961" lon="5.27451">
        <ele>640</ele>
        <time>2020-03-01T09:50:26.000Z</time>
      </trkpt>
      <trkpt lat="45.16961" lon="5.27453">
        <ele>640.79998779297</ele>
        <time>2020-03-01T09:50:27.000Z</time>
      </trkpt>
      <trkpt lat="45.16961" lon="5.27453">
        <ele>641.59997558594</ele>
        <time>2020-03-01T09:50:28.000Z</time>
      </trkpt>
      <trkpt lat="45.16962" lon="5.27454">
        <ele>641.79998779297</ele>
        <time>2020-03-01T09:50:29.000Z</time>
      </trkpt>
      <trkpt lat="45.16962" lon="5.27455">
        <ele>641.79998779297</ele>
        <time>2020-03-01T09:50:30.000Z</time>
      </trkpt>
      <trkpt lat="45.16962" lon="5.27457">
        <ele>641.59997558594</ele>
        <time>2020-03-01T09:50:31.000Z</time>
      </trkpt>
      <trkpt lat="45.16962" lon="5.27458">
        <ele>641.20001220703</ele>
        <time>2020-03-01T09:50:32.000Z</time>
      </trkpt>
      <trkpt lat="45.16962" lon="5.27459">
        <ele>641.20001220703</ele>
        <time>2020-03-01T09:50:33.000Z</time>
      </trkpt>
      <trkpt lat="45.16963" lon="5.27461">
        <ele>641</ele>
        <time>2020-03-01T09:50:34.000Z</time>
      </trkpt>
      <trkpt lat="45.16963" lon="5.27462">
        <ele>640.79998779297</ele>
        <time>2020-03-01T09:50:35.000Z</time>
      </trkpt>
      <trkpt lat="45.16964" lon="5.27464">
        <ele>640.59997558594</ele>
        <time>2020-03-01T09:50:36.000Z</time>
      </trkpt>
      <trkpt lat="45.16963" lon="5.27466">
        <ele>640.20001220703</ele>
        <time>2020-03-01T09:50:37.000Z</time>
      </trkpt>
      <trkpt lat="45.16963" lon="5.27467">
        <ele>640.59997558594</ele>
        <time>2020-03-01T09:50:38.000Z</time>
      </trkpt>
      <trkpt lat="45.16963" lon="5.27468">
        <ele>641.40002441406</ele>
        <time>2020-03-01T09:50:39.000Z</time>
      </trkpt>
      <trkpt lat="45.16963" lon="5.27469">
        <ele>641.59997558594</ele>
        <time>2020-03-01T09:50:40.000Z</time>
      </trkpt>
      <trkpt lat="45.16963" lon="5.2747">
        <ele>641.79998779297</ele>
        <time>2020-03-01T09:50:41.000Z</time>
      </trkpt>
      <trkpt lat="45.16965" lon="5.27471">
        <ele>641.59997558594</ele>
        <time>2020-03-01T09:50:42.000Z</time>
      </trkpt>
      <trkpt lat="45.16965" lon="5.27472">
        <ele>641.79998779297</ele>
        <time>2020-03-01T09:50:43.000Z</time>
      </trkpt>
      <trkpt lat="45.16966" lon="5.27473">
        <ele>642.40002441406</ele>
        <time>2020-03-01T09:50:44.000Z</time>
      </trkpt>
      <trkpt lat="45.16966" lon="5.27474">
        <ele>642.59997558594</ele>
        <time>2020-03-01T09:50:45.000Z</time>
      </trkpt>
      <trkpt lat="45.16967" lon="5.27475">
        <ele>642.79998779297</ele>
        <time>2020-03-01T09:50:46.000Z</time>
      </trkpt>
      <trkpt lat="45.16967" lon="5.27476">
        <ele>642.40002441406</ele>
        <time>2020-03-01T09:50:47.000Z</time>
      </trkpt>
      <trkpt lat="45.16968" lon="5.27476">
        <ele>642.79998779297</ele>
        <time>2020-03-01T09:50:48.000Z</time>
      </trkpt>
      <trkpt lat="45.16968" lon="5.27476">
        <ele>644.20001220703</ele>
        <time>2020-03-01T09:50:49.000Z</time>
      </trkpt>
      <trkpt lat="45.16969" lon="5.27476">
        <ele>644</ele>
        <time>2020-03-01T09:50:50.000Z</time>
      </trkpt>
      <trkpt lat="45.16969" lon="5.27477">
        <ele>643.59997558594</ele>
        <time>2020-03-01T09:50:51.000Z</time>
      </trkpt>
      <trkpt lat="45.16969" lon="5.27479">
        <ele>643.40002441406</ele>
        <time>2020-03-01T09:50:52.000Z</time>
      </trkpt>
      <trkpt lat="45.16969" lon="5.2748">
        <ele>644.40002441406</ele>
        <time>2020-03-01T09:50:53.000Z</time>
      </trkpt>
      <trkpt lat="45.1697" lon="5.27482">
        <ele>645.59997558594</ele>
        <time>2020-03-01T09:50:54.000Z</time>
      </trkpt>
      <trkpt lat="45.1697" lon="5.27483">
        <ele>645.59997558594</ele>
        <time>2020-03-01T09:50:55.000Z</time>
      </trkpt>
      <trkpt lat="45.1697" lon="5.27484">
        <ele>645</ele>
        <time>2020-03-01T09:50:56.000Z</time>
      </trkpt>
      <trkpt lat="45.1697" lon="5.27486">
        <ele>645.59997558594</ele>
        <time>2020-03-01T09:50:57.000Z</time>
      </trkpt>
      <trkpt lat="45.16971" lon="5.27487">
        <ele>645.79998779297</ele>
        <time>2020-03-01T09:50:58.000Z</time>
      </trkpt>
      <trkpt lat="45.16971" lon="5.27488">
        <ele>646</ele>
        <time>2020-03-01T09:50:59.000Z</time>
      </trkpt>
      <trkpt lat="45.16972" lon="5.2749">
        <ele>645.79998779297</ele>
        <time>2020-03-01T09:51:00.000Z</time>
      </trkpt>
      <trkpt lat="45.16972" lon="5.27491">
        <ele>645.40002441406</ele>
        <time>2020-03-01T09:51:01.000Z</time>
      </trkpt>
      <trkpt lat="45.16972" lon="5.27492">
        <ele>645.20001220703</ele>
        <time>2020-03-01T09:51:02.000Z</time>
      </trkpt>
      <trkpt lat="45.16973" lon="5.27493">
        <ele>645.40002441406</ele>
        <time>2020-03-01T09:51:03.000Z</time>
      </trkpt>
      <trkpt lat="45.16973" lon="5.27495">
        <ele>645.59997558594</ele>
        <time>2020-03-01T09:51:04.000Z</time>
      </trkpt>
      <trkpt lat="45.16973" lon="5.27496">
        <ele>645.59997558594</ele>
        <time>2020-03-01T09:51:05.000Z</time>
      </trkpt>
      <trkpt lat="45.16974" lon="5.27496">
        <ele>645.20001220703</ele>
        <time>2020-03-01T09:51:06.000Z</time>
      </trkpt>
      <trkpt lat="45.16974" lon="5.27497">
        <ele>645.40002441406</ele>
        <time>2020-03-01T09:51:07.000Z</time>
      </trkpt>
      <trkpt lat="45.16975" lon="5.27498">
        <ele>645.40002441406</ele>
        <time>2020-03-01T09:51:08.000Z</time>
      </trkpt>
      <trkpt lat="45.16975" lon="5.27499">
        <ele>645.40002441406</ele>
        <time>2020-03-01T09:51:09.000Z</time>
      </trkpt>
      <trkpt lat="45.16976" lon="5.275">
        <ele>645.20001220703</ele>
        <time>2020-03-01T09:51:10.000Z</time>
      </trkpt>
      <trkpt lat="45.16976" lon="5.27501">
        <ele>644.79998779297</ele>
        <time>2020-03-01T09:51:11.000Z</time>
      </trkpt>
      <trkpt lat="45.16976" lon="5.27503">
        <ele>644.79998779297</ele>
        <time>2020-03-01T09:51:12.000Z</time>
      </trkpt>
      <trkpt lat="45.16976" lon="5.27504">
        <ele>645.40002441406</ele>
        <time>2020-03-01T09:51:13.000Z</time>
      </trkpt>
      <trkpt lat="45.16976" lon="5.27505">
        <ele>645.40002441406</ele>
        <time>2020-03-01T09:51:14.000Z</time>
      </trkpt>
      <trkpt lat="45.16977" lon="5.27507">
        <ele>645.79998779297</ele>
        <time>2020-03-01T09:51:15.000Z</time>
      </trkpt>
      <trkpt lat="45.16977" lon="5.27508">
        <ele>647</ele>
        <time>2020-03-01T09:51:16.000Z</time>
      </trkpt>
      <trkpt lat="45.16977" lon="5.27509">
        <ele>647.79998779297</ele>
        <time>2020-03-01T09:51:17.000Z</time>
      </trkpt>
      <trkpt lat="45.16977" lon="5.27511">
        <ele>648.20001220703</ele>
        <time>2020-03-01T09:51:18.000Z</time>
      </trkpt>
      <trkpt lat="45.16976" lon="5.27512">
        <ele>648.40002441406</ele>
        <time>2020-03-01T09:51:19.000Z</time>
      </trkpt>
      <trkpt lat="45.16976" lon="5.27513">
        <ele>648.59997558594</ele>
        <time>2020-03-01T09:51:20.000Z</time>
      </trkpt>
      <trkpt lat="45.16976" lon="5.27514">
        <ele>648.79998779297</ele>
        <time>2020-03-01T09:51:21.000Z</time>
      </trkpt>
      <trkpt lat="45.16976" lon="5.27515">
        <ele>649.20001220703</ele>
        <time>2020-03-01T09:51:22.000Z</time>
      </trkpt>
      <trkpt lat="45.16976" lon="5.27516">
        <ele>648.79998779297</ele>
        <time>2020-03-01T09:51:23.000Z</time>
      </trkpt>
      <trkpt lat="45.16976" lon="5.27517">
        <ele>648.59997558594</ele>
        <time>2020-03-01T09:51:24.000Z</time>
      </trkpt>
      <trkpt lat="45.16976" lon="5.27518">
        <ele>648.59997558594</ele>
        <time>2020-03-01T09:51:25.000Z</time>
      </trkpt>
      <trkpt lat="45.16975" lon="5.27519">
        <ele>648.40002441406</ele>
        <time>2020-03-01T09:51:26.000Z</time>
      </trkpt>
      <trkpt lat="45.16975" lon="5.2752">
        <ele>648.20001220703</ele>
        <time>2020-03-01T09:51:27.000Z</time>
      </trkpt>
      <trkpt lat="45.16975" lon="5.27522">
        <ele>648.59997558594</ele>
        <time>2020-03-01T09:51:28.000Z</time>
      </trkpt>
      <trkpt lat="45.16974" lon="5.27523">
        <ele>649.20001220703</ele>
        <time>2020-03-01T09:51:29.000Z</time>
      </trkpt>
      <trkpt lat="45.16974" lon="5.27524">
        <ele>650</ele>
        <time>2020-03-01T09:51:30.000Z</time>
      </trkpt>
      <trkpt lat="45.16973" lon="5.27526">
        <ele>650.40002441406</ele>
        <time>2020-03-01T09:51:31.000Z</time>
      </trkpt>
      <trkpt lat="45.16973" lon="5.27527">
        <ele>651.20001220703</ele>
        <time>2020-03-01T09:51:32.000Z</time>
      </trkpt>
      <trkpt lat="45.16976" lon="5.27528">
        <ele>651.59997558594</ele>
        <time>2020-03-01T09:51:33.000Z</time>
      </trkpt>
      <trkpt lat="45.16977" lon="5.27529">
        <ele>651.79998779297</ele>
        <time>2020-03-01T09:51:34.000Z</time>
      </trkpt>
      <trkpt lat="45.16978" lon="5.2753">
        <ele>651.59997558594</ele>
        <time>2020-03-01T09:51:35.000Z</time>
      </trkpt>
      <trkpt lat="45.1698" lon="5.2753">
        <ele>651.59997558594</ele>
        <time>2020-03-01T09:51:36.000Z</time>
      </trkpt>
      <trkpt lat="45.16981" lon="5.27531">
        <ele>651.79998779297</ele>
        <time>2020-03-01T09:51:37.000Z</time>
      </trkpt>
      <trkpt lat="45.1698" lon="5.27532">
        <ele>652</ele>
        <time>2020-03-01T09:51:38.000Z</time>
      </trkpt>
      <trkpt lat="45.1698" lon="5.27533">
        <ele>652.20001220703</ele>
        <time>2020-03-01T09:51:39.000Z</time>
      </trkpt>
      <trkpt lat="45.1698" lon="5.27533">
        <ele>652.59997558594</ele>
        <time>2020-03-01T09:51:40.000Z</time>
      </trkpt>
      <trkpt lat="45.16979" lon="5.27535">
        <ele>653.40002441406</ele>
        <time>2020-03-01T09:51:41.000Z</time>
      </trkpt>
      <trkpt lat="45.16979" lon="5.27536">
        <ele>654.20001220703</ele>
        <time>2020-03-01T09:51:42.000Z</time>
      </trkpt>
      <trkpt lat="45.16978" lon="5.27537">
        <ele>654.59997558594</ele>
        <time>2020-03-01T09:51:43.000Z</time>
      </trkpt>
      <trkpt lat="45.16977" lon="5.27539">
        <ele>655</ele>
        <time>2020-03-01T09:51:44.000Z</time>
      </trkpt>
      <trkpt lat="45.16977" lon="5.2754">
        <ele>655.20001220703</ele>
        <time>2020-03-01T09:51:45.000Z</time>
      </trkpt>
      <trkpt lat="45.16978" lon="5.27542">
        <ele>655.59997558594</ele>
        <time>2020-03-01T09:51:46.000Z</time>
      </trkpt>
      <trkpt lat="45.1698" lon="5.27542">
        <ele>655.79998779297</ele>
        <time>2020-03-01T09:51:47.000Z</time>
      </trkpt>
      <trkpt lat="45.1698" lon="5.27543">
        <ele>656</ele>
        <time>2020-03-01T09:51:48.000Z</time>
      </trkpt>
      <trkpt lat="45.16981" lon="5.27544">
        <ele>656</ele>
        <time>2020-03-01T09:51:49.000Z</time>
      </trkpt>
      <trkpt lat="45.16981" lon="5.27545">
        <ele>656</ele>
        <time>2020-03-01T09:51:50.000Z</time>
      </trkpt>
      <trkpt lat="45.16981" lon="5.27546">
        <ele>656.20001220703</ele>
        <time>2020-03-01T09:51:51.000Z</time>
      </trkpt>
      <trkpt lat="45.16982" lon="5.27547">
        <ele>656.40002441406</ele>
        <time>2020-03-01T09:51:52.000Z</time>
      </trkpt>
      <trkpt lat="45.16982" lon="5.27548">
        <ele>656.40002441406</ele>
        <time>2020-03-01T09:51:53.000Z</time>
      </trkpt>
      <trkpt lat="45.16983" lon="5.27548">
        <ele>656.40002441406</ele>
        <time>2020-03-01T09:51:54.000Z</time>
      </trkpt>
      <trkpt lat="45.16983" lon="5.2755">
        <ele>656.20001220703</ele>
        <time>2020-03-01T09:51:55.000Z</time>
      </trkpt>
      <trkpt lat="45.16984" lon="5.2755">
        <ele>655.59997558594</ele>
        <time>2020-03-01T09:51:56.000Z</time>
      </trkpt>
      <trkpt lat="45.16984" lon="5.27551">
        <ele>655</ele>
        <time>2020-03-01T09:51:57.000Z</time>
      </trkpt>
      <trkpt lat="45.16984" lon="5.27552">
        <ele>654.59997558594</ele>
        <time>2020-03-01T09:51:58.000Z</time>
      </trkpt>
      <trkpt lat="45.16985" lon="5.27552">
        <ele>654.59997558594</ele>
        <time>2020-03-01T09:51:59.000Z</time>
      </trkpt>
      <trkpt lat="45.16986" lon="5.27552">
        <ele>654.59997558594</ele>
        <time>2020-03-01T09:52:00.000Z</time>
      </trkpt>
      <trkpt lat="45.16987" lon="5.27554">
        <ele>654.40002441406</ele>
        <time>2020-03-01T09:52:01.000Z</time>
      </trkpt>
      <trkpt lat="45.16987" lon="5.27554">
        <ele>654.40002441406</ele>
        <time>2020-03-01T09:52:02.000Z</time>
      </trkpt>
      <trkpt lat="45.16987" lon="5.27555">
        <ele>654.40002441406</ele>
        <time>2020-03-01T09:52:03.000Z</time>
      </trkpt>
      <trkpt lat="45.16988" lon="5.27556">
        <ele>654.59997558594</ele>
        <time>2020-03-01T09:52:04.000Z</time>
      </trkpt>
      <trkpt lat="45.16988" lon="5.27556">
        <ele>654.79998779297</ele>
        <time>2020-03-01T09:52:05.000Z</time>
      </trkpt>
      <trkpt lat="45.16989" lon="5.27557">
        <ele>654.59997558594</ele>
        <time>2020-03-01T09:52:06.000Z</time>
      </trkpt>
      <trkpt lat="45.16989" lon="5.27558">
        <ele>654.40002441406</ele>
        <time>2020-03-01T09:52:07.000Z</time>
      </trkpt>
      <trkpt lat="45.16989" lon="5.27559">
        <ele>654.40002441406</ele>
        <time>2020-03-01T09:52:08.000Z</time>
      </trkpt>
      <trkpt lat="45.16989" lon="5.2756">
        <ele>654.40002441406</ele>
        <time>2020-03-01T09:52:09.000Z</time>
      </trkpt>
      <trkpt lat="45.1699" lon="5.27561">
        <ele>654.79998779297</ele>
        <time>2020-03-01T09:52:10.000Z</time>
      </trkpt>
      <trkpt lat="45.1699" lon="5.27562">
        <ele>655.79998779297</ele>
        <time>2020-03-01T09:52:11.000Z</time>
      </trkpt>
      <trkpt lat="45.1699" lon="5.27563">
        <ele>656.40002441406</ele>
        <time>2020-03-01T09:52:12.000Z</time>
      </trkpt>
      <trkpt lat="45.1699" lon="5.27565">
        <ele>656.79998779297</ele>
        <time>2020-03-01T09:52:13.000Z</time>
      </trkpt>
      <trkpt lat="45.16991" lon="5.27566">
        <ele>657.59997558594</ele>
        <time>2020-03-01T09:52:14.000Z</time>
      </trkpt>
      <trkpt lat="45.16993" lon="5.27568">
        <ele>657.59997558594</ele>
        <time>2020-03-01T09:52:15.000Z</time>
      </trkpt>
      <trkpt lat="45.16993" lon="5.27569">
        <ele>657.59997558594</ele>
        <time>2020-03-01T09:52:16.000Z</time>
      </trkpt>
      <trkpt lat="45.16993" lon="5.2757">
        <ele>657.59997558594</ele>
        <time>2020-03-01T09:52:17.000Z</time>
      </trkpt>
      <trkpt lat="45.16992" lon="5.27571">
        <ele>657.59997558594</ele>
        <time>2020-03-01T09:52:18.000Z</time>
      </trkpt>
      <trkpt lat="45.16992" lon="5.27572">
        <ele>657.59997558594</ele>
        <time>2020-03-01T09:52:19.000Z</time>
      </trkpt>
      <trkpt lat="45.16991" lon="5.27573">
        <ele>657.79998779297</ele>
        <time>2020-03-01T09:52:20.000Z</time>
      </trkpt>
      <trkpt lat="45.16991" lon="5.27574">
        <ele>658</ele>
        <time>2020-03-01T09:52:21.000Z</time>
      </trkpt>
      <trkpt lat="45.16991" lon="5.27575">
        <ele>658.59997558594</ele>
        <time>2020-03-01T09:52:22.000Z</time>
      </trkpt>
      <trkpt lat="45.16991" lon="5.27576">
        <ele>659.59997558594</ele>
        <time>2020-03-01T09:52:23.000Z</time>
      </trkpt>
      <trkpt lat="45.1699" lon="5.27577">
        <ele>660.20001220703</ele>
        <time>2020-03-01T09:52:24.000Z</time>
      </trkpt>
      <trkpt lat="45.1699" lon="5.27579">
        <ele>660.20001220703</ele>
        <time>2020-03-01T09:52:25.000Z</time>
      </trkpt>
      <trkpt lat="45.16989" lon="5.2758">
        <ele>659.59997558594</ele>
        <time>2020-03-01T09:52:26.000Z</time>
      </trkpt>
      <trkpt lat="45.16988" lon="5.27581">
        <ele>659.79998779297</ele>
        <time>2020-03-01T09:52:27.000Z</time>
      </trkpt>
      <trkpt lat="45.16987" lon="5.27584">
        <ele>660.59997558594</ele>
        <time>2020-03-01T09:52:28.000Z</time>
      </trkpt>
      <trkpt lat="45.16986" lon="5.27585">
        <ele>660.79998779297</ele>
        <time>2020-03-01T09:52:29.000Z</time>
      </trkpt>
      <trkpt lat="45.16986" lon="5.27586">
        <ele>661</ele>
        <time>2020-03-01T09:52:30.000Z</time>
      </trkpt>
      <trkpt lat="45.16985" lon="5.27587">
        <ele>661.79998779297</ele>
        <time>2020-03-01T09:52:31.000Z</time>
      </trkpt>
      <trkpt lat="45.16985" lon="5.27588">
        <ele>662.40002441406</ele>
        <time>2020-03-01T09:52:32.000Z</time>
      </trkpt>
      <trkpt lat="45.16984" lon="5.27589">
        <ele>662.79998779297</ele>
        <time>2020-03-01T09:52:33.000Z</time>
      </trkpt>
      <trkpt lat="45.16983" lon="5.27589">
        <ele>663.20001220703</ele>
        <time>2020-03-01T09:52:34.000Z</time>
      </trkpt>
      <trkpt lat="45.16983" lon="5.2759">
        <ele>663.40002441406</ele>
        <time>2020-03-01T09:52:35.000Z</time>
      </trkpt>
      <trkpt lat="45.16982" lon="5.2759">
        <ele>663.79998779297</ele>
        <time>2020-03-01T09:52:36.000Z</time>
      </trkpt>
      <trkpt lat="45.16982" lon="5.27591">
        <ele>664</ele>
        <time>2020-03-01T09:52:37.000Z</time>
      </trkpt>
      <trkpt lat="45.16981" lon="5.27593">
        <ele>664.40002441406</ele>
        <time>2020-03-01T09:52:38.000Z</time>
      </trkpt>
      <trkpt lat="45.16981" lon="5.27593">
        <ele>664.59997558594</ele>
        <time>2020-03-01T09:52:39.000Z</time>
      </trkpt>
      <trkpt lat="45.1698" lon="5.27594">
        <ele>664.79998779297</ele>
        <time>2020-03-01T09:52:40.000Z</time>
      </trkpt>
      <trkpt lat="45.1698" lon="5.27595">
        <ele>665</ele>
        <time>2020-03-01T09:52:41.000Z</time>
      </trkpt>
      <trkpt lat="45.1698" lon="5.27595">
        <ele>665</ele>
        <time>2020-03-01T09:52:42.000Z</time>
      </trkpt>
      <trkpt lat="45.16979" lon="5.27596">
        <ele>665.20001220703</ele>
        <time>2020-03-01T09:52:43.000Z</time>
      </trkpt>
      <trkpt lat="45.16979" lon="5.27596">
        <ele>665.40002441406</ele>
        <time>2020-03-01T09:52:44.000Z</time>
      </trkpt>
      <trkpt lat="45.16979" lon="5.27597">
        <ele>665.59997558594</ele>
        <time>2020-03-01T09:52:45.000Z</time>
      </trkpt>
      <trkpt lat="45.16978" lon="5.27597">
        <ele>665.79998779297</ele>
        <time>2020-03-01T09:52:46.000Z</time>
      </trkpt>
      <trkpt lat="45.16978" lon="5.27598">
        <ele>665.79998779297</ele>
        <time>2020-03-01T09:52:47.000Z</time>
      </trkpt>
      <trkpt lat="45.16977" lon="5.27599">
        <ele>666</ele>
        <time>2020-03-01T09:52:48.000Z</time>
      </trkpt>
      <trkpt lat="45.16977" lon="5.276">
        <ele>666</ele>
        <time>2020-03-01T09:52:49.000Z</time>
      </trkpt>
      <trkpt lat="45.16976" lon="5.276">
        <ele>666.20001220703</ele>
        <time>2020-03-01T09:52:50.000Z</time>
      </trkpt>
      <trkpt lat="45.16975" lon="5.276">
        <ele>666.40002441406</ele>
        <time>2020-03-01T09:52:51.000Z</time>
      </trkpt>
      <trkpt lat="45.16974" lon="5.27601">
        <ele>666.40002441406</ele>
        <time>2020-03-01T09:52:52.000Z</time>
      </trkpt>
      <trkpt lat="45.16973" lon="5.27601">
        <ele>666.59997558594</ele>
        <time>2020-03-01T09:52:53.000Z</time>
      </trkpt>
      <trkpt lat="45.16972" lon="5.27601">
        <ele>666.59997558594</ele>
        <time>2020-03-01T09:52:54.000Z</time>
      </trkpt>
      <trkpt lat="45.16972" lon="5.27601">
        <ele>666.79998779297</ele>
        <time>2020-03-01T09:52:55.000Z</time>
      </trkpt>
      <trkpt lat="45.16971" lon="5.27601">
        <ele>667</ele>
        <time>2020-03-01T09:52:56.000Z</time>
      </trkpt>
      <trkpt lat="45.1697" lon="5.27602">
        <ele>667.20001220703</ele>
        <time>2020-03-01T09:52:57.000Z</time>
      </trkpt>
      <trkpt lat="45.16969" lon="5.27602">
        <ele>667.40002441406</ele>
        <time>2020-03-01T09:52:58.000Z</time>
      </trkpt>
      <trkpt lat="45.16968" lon="5.27604">
        <ele>667.40002441406</ele>
        <time>2020-03-01T09:52:59.000Z</time>
      </trkpt>
      <trkpt lat="45.16966" lon="5.27605">
        <ele>667.59997558594</ele>
        <time>2020-03-01T09:53:00.000Z</time>
      </trkpt>
      <trkpt lat="45.16965" lon="5.27605">
        <ele>667.59997558594</ele>
        <time>2020-03-01T09:53:01.000Z</time>
      </trkpt>
      <trkpt lat="45.16964" lon="5.27605">
        <ele>667.79998779297</ele>
        <time>2020-03-01T09:53:02.000Z</time>
      </trkpt>
      <trkpt lat="45.16961" lon="5.27605">
        <ele>668</ele>
        <time>2020-03-01T09:53:03.000Z</time>
      </trkpt>
      <trkpt lat="45.16959" lon="5.27605">
        <ele>668</ele>
        <time>2020-03-01T09:53:04.000Z</time>
      </trkpt>
      <trkpt lat="45.16958" lon="5.27606">
        <ele>668.20001220703</ele>
        <time>2020-03-01T09:53:05.000Z</time>
      </trkpt>
      <trkpt lat="45.16957" lon="5.27606">
        <ele>668.20001220703</ele>
        <time>2020-03-01T09:53:06.000Z</time>
      </trkpt>
      <trkpt lat="45.16956" lon="5.27606">
        <ele>668.40002441406</ele>
        <time>2020-03-01T09:53:07.000Z</time>
      </trkpt>
      <trkpt lat="45.16954" lon="5.27605">
        <ele>668.59997558594</ele>
        <time>2020-03-01T09:53:08.000Z</time>
      </trkpt>
      <trkpt lat="45.16953" lon="5.27604">
        <ele>668.79998779297</ele>
        <time>2020-03-01T09:53:09.000Z</time>
      </trkpt>
      <trkpt lat="45.16951" lon="5.27604">
        <ele>669</ele>
        <time>2020-03-01T09:53:10.000Z</time>
      </trkpt>
      <trkpt lat="45.16949" lon="5.27603">
        <ele>669.20001220703</ele>
        <time>2020-03-01T09:53:11.000Z</time>
      </trkpt>
      <trkpt lat="45.16948" lon="5.27603">
        <ele>669.20001220703</ele>
        <time>2020-03-01T09:53:12.000Z</time>
      </trkpt>
      <trkpt lat="45.16947" lon="5.27602">
        <ele>669.40002441406</ele>
        <time>2020-03-01T09:53:13.000Z</time>
      </trkpt>
      <trkpt lat="45.16945" lon="5.27602">
        <ele>669.59997558594</ele>
        <time>2020-03-01T09:53:14.000Z</time>
      </trkpt>
      <trkpt lat="45.16943" lon="5.27603">
        <ele>669.79998779297</ele>
        <time>2020-03-01T09:53:15.000Z</time>
      </trkpt>
      <trkpt lat="45.16942" lon="5.27603">
        <ele>670</ele>
        <time>2020-03-01T09:53:16.000Z</time>
      </trkpt>
      <trkpt lat="45.16941" lon="5.27603">
        <ele>670.20001220703</ele>
        <time>2020-03-01T09:53:17.000Z</time>
      </trkpt>
      <trkpt lat="45.1694" lon="5.27603">
        <ele>670.20001220703</ele>
        <time>2020-03-01T09:53:18.000Z</time>
      </trkpt>
      <trkpt lat="45.16939" lon="5.27603">
        <ele>670.40002441406</ele>
        <time>2020-03-01T09:53:19.000Z</time>
      </trkpt>
      <trkpt lat="45.16939" lon="5.27603">
        <ele>670.40002441406</ele>
        <time>2020-03-01T09:53:20.000Z</time>
      </trkpt>
      <trkpt lat="45.16938" lon="5.27603">
        <ele>670.59997558594</ele>
        <time>2020-03-01T09:53:21.000Z</time>
      </trkpt>
      <trkpt lat="45.16937" lon="5.27605">
        <ele>670.59997558594</ele>
        <time>2020-03-01T09:53:22.000Z</time>
      </trkpt>
      <trkpt lat="45.16936" lon="5.27606">
        <ele>670.79998779297</ele>
        <time>2020-03-01T09:53:23.000Z</time>
      </trkpt>
      <trkpt lat="45.16936" lon="5.27607">
        <ele>671</ele>
        <time>2020-03-01T09:53:24.000Z</time>
      </trkpt>
      <trkpt lat="45.16935" lon="5.27608">
        <ele>671.20001220703</ele>
        <time>2020-03-01T09:53:25.000Z</time>
      </trkpt>
      <trkpt lat="45.16934" lon="5.27608">
        <ele>671.20001220703</ele>
        <time>2020-03-01T09:53:26.000Z</time>
      </trkpt>
      <trkpt lat="45.16934" lon="5.27609">
        <ele>671.40002441406</ele>
        <time>2020-03-01T09:53:27.000Z</time>
      </trkpt>
      <trkpt lat="45.16933" lon="5.27609">
        <ele>671.59997558594</ele>
        <time>2020-03-01T09:53:28.000Z</time>
      </trkpt>
      <trkpt lat="45.16932" lon="5.27609">
        <ele>672</ele>
        <time>2020-03-01T09:53:29.000Z</time>
      </trkpt>
      <trkpt lat="45.16931" lon="5.27611">
        <ele>672.20001220703</ele>
        <time>2020-03-01T09:53:30.000Z</time>
      </trkpt>
      <trkpt lat="45.1693" lon="5.27612">
        <ele>672.40002441406</ele>
        <time>2020-03-01T09:53:31.000Z</time>
      </trkpt>
      <trkpt lat="45.1693" lon="5.27613">
        <ele>672.59997558594</ele>
        <time>2020-03-01T09:53:32.000Z</time>
      </trkpt>
      <trkpt lat="45.16929" lon="5.27615">
        <ele>672.59997558594</ele>
        <time>2020-03-01T09:53:33.000Z</time>
      </trkpt>
      <trkpt lat="45.16929" lon="5.27616">
        <ele>672.79998779297</ele>
        <time>2020-03-01T09:53:34.000Z</time>
      </trkpt>
      <trkpt lat="45.16928" lon="5.27616">
        <ele>673.20001220703</ele>
        <time>2020-03-01T09:53:35.000Z</time>
      </trkpt>
      <trkpt lat="45.16928" lon="5.27617">
        <ele>673.20001220703</ele>
        <time>2020-03-01T09:53:36.000Z</time>
      </trkpt>
      <trkpt lat="45.16927" lon="5.27618">
        <ele>673.59997558594</ele>
        <time>2020-03-01T09:53:37.000Z</time>
      </trkpt>
      <trkpt lat="45.16926" lon="5.2762">
        <ele>674</ele>
        <time>2020-03-01T09:53:38.000Z</time>
      </trkpt>
      <trkpt lat="45.16926" lon="5.27621">
        <ele>674.20001220703</ele>
        <time>2020-03-01T09:53:39.000Z</time>
      </trkpt>
      <trkpt lat="45.16925" lon="5.27623">
        <ele>674.40002441406</ele>
        <time>2020-03-01T09:53:40.000Z</time>
      </trkpt>
      <trkpt lat="45.16925" lon="5.27625">
        <ele>674.79998779297</ele>
        <time>2020-03-01T09:53:41.000Z</time>
      </trkpt>
      <trkpt lat="45.16925" lon="5.27626">
        <ele>674.79998779297</ele>
        <time>2020-03-01T09:53:42.000Z</time>
      </trkpt>
      <trkpt lat="45.16925" lon="5.27626">
        <ele>675</ele>
        <time>2020-03-01T09:53:43.000Z</time>
      </trkpt>
      <trkpt lat="45.16925" lon="5.27628">
        <ele>675.40002441406</ele>
        <time>2020-03-01T09:53:44.000Z</time>
      </trkpt>
      <trkpt lat="45.16925" lon="5.27629">
        <ele>675.79998779297</ele>
        <time>2020-03-01T09:53:45.000Z</time>
      </trkpt>
      <trkpt lat="45.16925" lon="5.27631">
        <ele>676</ele>
        <time>2020-03-01T09:53:46.000Z</time>
      </trkpt>
      <trkpt lat="45.16925" lon="5.27632">
        <ele>676.20001220703</ele>
        <time>2020-03-01T09:53:47.000Z</time>
      </trkpt>
      <trkpt lat="45.16924" lon="5.27633">
        <ele>676.40002441406</ele>
        <time>2020-03-01T09:53:48.000Z</time>
      </trkpt>
      <trkpt lat="45.16924" lon="5.27636">
        <ele>676.40002441406</ele>
        <time>2020-03-01T09:53:49.000Z</time>
      </trkpt>
      <trkpt lat="45.16924" lon="5.27637">
        <ele>676.59997558594</ele>
        <time>2020-03-01T09:53:50.000Z</time>
      </trkpt>
      <trkpt lat="45.16923" lon="5.27639">
        <ele>676.59997558594</ele>
        <time>2020-03-01T09:53:51.000Z</time>
      </trkpt>
      <trkpt lat="45.16923" lon="5.2764">
        <ele>676.79998779297</ele>
        <time>2020-03-01T09:53:52.000Z</time>
      </trkpt>
      <trkpt lat="45.16922" lon="5.27641">
        <ele>677.20001220703</ele>
        <time>2020-03-01T09:53:53.000Z</time>
      </trkpt>
      <trkpt lat="45.16922" lon="5.27642">
        <ele>677.40002441406</ele>
        <time>2020-03-01T09:53:54.000Z</time>
      </trkpt>
      <trkpt lat="45.16921" lon="5.27643">
        <ele>677.79998779297</ele>
        <time>2020-03-01T09:53:55.000Z</time>
      </trkpt>
      <trkpt lat="45.16921" lon="5.27644">
        <ele>678</ele>
        <time>2020-03-01T09:53:56.000Z</time>
      </trkpt>
      <trkpt lat="45.1692" lon="5.27647">
        <ele>678.20001220703</ele>
        <time>2020-03-01T09:53:57.000Z</time>
      </trkpt>
      <trkpt lat="45.1692" lon="5.27648">
        <ele>678.20001220703</ele>
        <time>2020-03-01T09:53:58.000Z</time>
      </trkpt>
      <trkpt lat="45.1692" lon="5.27649">
        <ele>678.40002441406</ele>
        <time>2020-03-01T09:53:59.000Z</time>
      </trkpt>
      <trkpt lat="45.16919" lon="5.2765">
        <ele>678.40002441406</ele>
        <time>2020-03-01T09:54:00.000Z</time>
      </trkpt>
      <trkpt lat="45.16919" lon="5.27651">
        <ele>678.59997558594</ele>
        <time>2020-03-01T09:54:01.000Z</time>
      </trkpt>
      <trkpt lat="45.16919" lon="5.27652">
        <ele>678.79998779297</ele>
        <time>2020-03-01T09:54:02.000Z</time>
      </trkpt>
      <trkpt lat="45.16918" lon="5.27653">
        <ele>679</ele>
        <time>2020-03-01T09:54:03.000Z</time>
      </trkpt>
      <trkpt lat="45.16918" lon="5.27654">
        <ele>679</ele>
        <time>2020-03-01T09:54:04.000Z</time>
      </trkpt>
      <trkpt lat="45.16917" lon="5.27655">
        <ele>679.20001220703</ele>
        <time>2020-03-01T09:54:05.000Z</time>
      </trkpt>
      <trkpt lat="45.16915" lon="5.27659">
        <ele>679.40002441406</ele>
        <time>2020-03-01T09:54:06.000Z</time>
      </trkpt>
      <trkpt lat="45.16914" lon="5.27661">
        <ele>679.40002441406</ele>
        <time>2020-03-01T09:54:07.000Z</time>
      </trkpt>
      <trkpt lat="45.16914" lon="5.27662">
        <ele>679.59997558594</ele>
        <time>2020-03-01T09:54:08.000Z</time>
      </trkpt>
      <trkpt lat="45.16913" lon="5.27664">
        <ele>679.59997558594</ele>
        <time>2020-03-01T09:54:09.000Z</time>
      </trkpt>
      <trkpt lat="45.16913" lon="5.27665">
        <ele>679.79998779297</ele>
        <time>2020-03-01T09:54:10.000Z</time>
      </trkpt>
      <trkpt lat="45.16913" lon="5.27667">
        <ele>679.79998779297</ele>
        <time>2020-03-01T09:54:11.000Z</time>
      </trkpt>
      <trkpt lat="45.16914" lon="5.27668">
        <ele>680</ele>
        <time>2020-03-01T09:54:12.000Z</time>
      </trkpt>
      <trkpt lat="45.16914" lon="5.2767">
        <ele>680</ele>
        <time>2020-03-01T09:54:13.000Z</time>
      </trkpt>
      <trkpt lat="45.16915" lon="5.27672">
        <ele>680.20001220703</ele>
        <time>2020-03-01T09:54:14.000Z</time>
      </trkpt>
      <trkpt lat="45.16916" lon="5.27674">
        <ele>680.20001220703</ele>
        <time>2020-03-01T09:54:15.000Z</time>
      </trkpt>
      <trkpt lat="45.16916" lon="5.27676">
        <ele>680.40002441406</ele>
        <time>2020-03-01T09:54:16.000Z</time>
      </trkpt>
      <trkpt lat="45.16917" lon="5.27678">
        <ele>680.40002441406</ele>
        <time>2020-03-01T09:54:17.000Z</time>
      </trkpt>
      <trkpt lat="45.16917" lon="5.2768">
        <ele>680.79998779297</ele>
        <time>2020-03-01T09:54:18.000Z</time>
      </trkpt>
      <trkpt lat="45.16917" lon="5.27682">
        <ele>680.79998779297</ele>
        <time>2020-03-01T09:54:19.000Z</time>
      </trkpt>
      <trkpt lat="45.16917" lon="5.27685">
        <ele>681</ele>
        <time>2020-03-01T09:54:20.000Z</time>
      </trkpt>
      <trkpt lat="45.16917" lon="5.27687">
        <ele>680.79998779297</ele>
        <time>2020-03-01T09:54:21.000Z</time>
      </trkpt>
      <trkpt lat="45.16917" lon="5.27688">
        <ele>681</ele>
        <time>2020-03-01T09:54:22.000Z</time>
      </trkpt>
      <trkpt lat="45.16917" lon="5.2769">
        <ele>681</ele>
        <time>2020-03-01T09:54:23.000Z</time>
      </trkpt>
      <trkpt lat="45.16917" lon="5.27692">
        <ele>681.20001220703</ele>
        <time>2020-03-01T09:54:24.000Z</time>
      </trkpt>
      <trkpt lat="45.16918" lon="5.27693">
        <ele>681</ele>
        <time>2020-03-01T09:54:25.000Z</time>
      </trkpt>
      <trkpt lat="45.16918" lon="5.27695">
        <ele>681.20001220703</ele>
        <time>2020-03-01T09:54:26.000Z</time>
      </trkpt>
      <trkpt lat="45.16918" lon="5.27697">
        <ele>681.20001220703</ele>
        <time>2020-03-01T09:54:27.000Z</time>
      </trkpt>
      <trkpt lat="45.16919" lon="5.27699">
        <ele>681.40002441406</ele>
        <time>2020-03-01T09:54:28.000Z</time>
      </trkpt>
      <trkpt lat="45.1692" lon="5.27701">
        <ele>681.20001220703</ele>
        <time>2020-03-01T09:54:29.000Z</time>
      </trkpt>
      <trkpt lat="45.1692" lon="5.27703">
        <ele>681.20001220703</ele>
        <time>2020-03-01T09:54:30.000Z</time>
      </trkpt>
      <trkpt lat="45.1692" lon="5.27706">
        <ele>681</ele>
        <time>2020-03-01T09:54:31.000Z</time>
      </trkpt>
      <trkpt lat="45.16921" lon="5.27709">
        <ele>681.20001220703</ele>
        <time>2020-03-01T09:54:32.000Z</time>
      </trkpt>
      <trkpt lat="45.16921" lon="5.27712">
        <ele>681</ele>
        <time>2020-03-01T09:54:33.000Z</time>
      </trkpt>
      <trkpt lat="45.16921" lon="5.27715">
        <ele>681.40002441406</ele>
        <time>2020-03-01T09:54:34.000Z</time>
      </trkpt>
      <trkpt lat="45.16924" lon="5.27718">
        <ele>681.20001220703</ele>
        <time>2020-03-01T09:54:35.000Z</time>
      </trkpt>
      <trkpt lat="45.16927" lon="5.2772">
        <ele>681.20001220703</ele>
        <time>2020-03-01T09:54:36.000Z</time>
      </trkpt>
      <trkpt lat="45.16929" lon="5.27724">
        <ele>681.40002441406</ele>
        <time>2020-03-01T09:54:37.000Z</time>
      </trkpt>
      <trkpt lat="45.16931" lon="5.27727">
        <ele>681.59997558594</ele>
        <time>2020-03-01T09:54:38.000Z</time>
      </trkpt>
      <trkpt lat="45.16933" lon="5.2773">
        <ele>681.59997558594</ele>
        <time>2020-03-01T09:54:39.000Z</time>
      </trkpt>
      <trkpt lat="45.16935" lon="5.27732">
        <ele>681.40002441406</ele>
        <time>2020-03-01T09:54:40.000Z</time>
      </trkpt>
      <trkpt lat="45.16936" lon="5.27735">
        <ele>681.40002441406</ele>
        <time>2020-03-01T09:54:41.000Z</time>
      </trkpt>
      <trkpt lat="45.16937" lon="5.27738">
        <ele>681.40002441406</ele>
        <time>2020-03-01T09:54:42.000Z</time>
      </trkpt>
      <trkpt lat="45.16939" lon="5.2774">
        <ele>681.40002441406</ele>
        <time>2020-03-01T09:54:43.000Z</time>
      </trkpt>
      <trkpt lat="45.1694" lon="5.27742">
        <ele>681.40002441406</ele>
        <time>2020-03-01T09:54:44.000Z</time>
      </trkpt>
      <trkpt lat="45.16941" lon="5.27744">
        <ele>681.40002441406</ele>
        <time>2020-03-01T09:54:45.000Z</time>
      </trkpt>
      <trkpt lat="45.16942" lon="5.27746">
        <ele>681.40002441406</ele>
        <time>2020-03-01T09:54:46.000Z</time>
      </trkpt>
      <trkpt lat="45.16942" lon="5.27749">
        <ele>681.40002441406</ele>
        <time>2020-03-01T09:54:47.000Z</time>
      </trkpt>
      <trkpt lat="45.16943" lon="5.2775">
        <ele>681.40002441406</ele>
        <time>2020-03-01T09:54:48.000Z</time>
      </trkpt>
      <trkpt lat="45.16944" lon="5.27754">
        <ele>681.20001220703</ele>
        <time>2020-03-01T09:54:49.000Z</time>
      </trkpt>
      <trkpt lat="45.16945" lon="5.27756">
        <ele>681.40002441406</ele>
        <time>2020-03-01T09:54:50.000Z</time>
      </trkpt>
      <trkpt lat="45.16945" lon="5.2776">
        <ele>681.59997558594</ele>
        <time>2020-03-01T09:54:51.000Z</time>
      </trkpt>
      <trkpt lat="45.16946" lon="5.27763">
        <ele>681.79998779297</ele>
        <time>2020-03-01T09:54:52.000Z</time>
      </trkpt>
      <trkpt lat="45.16947" lon="5.27766">
        <ele>681.79998779297</ele>
        <time>2020-03-01T09:54:53.000Z</time>
      </trkpt>
      <trkpt lat="45.16949" lon="5.27769">
        <ele>682</ele>
        <time>2020-03-01T09:54:54.000Z</time>
      </trkpt>
      <trkpt lat="45.1695" lon="5.27771">
        <ele>682</ele>
        <time>2020-03-01T09:54:55.000Z</time>
      </trkpt>
      <trkpt lat="45.16954" lon="5.27774">
        <ele>682</ele>
        <time>2020-03-01T09:54:56.000Z</time>
      </trkpt>
      <trkpt lat="45.16956" lon="5.27777">
        <ele>682</ele>
        <time>2020-03-01T09:54:57.000Z</time>
      </trkpt>
      <trkpt lat="45.16961" lon="5.27782">
        <ele>681.79998779297</ele>
        <time>2020-03-01T09:54:58.000Z</time>
      </trkpt>
      <trkpt lat="45.16961" lon="5.27784">
        <ele>682</ele>
        <time>2020-03-01T09:54:59.000Z</time>
      </trkpt>
      <trkpt lat="45.16963" lon="5.27786">
        <ele>682.20001220703</ele>
        <time>2020-03-01T09:55:00.000Z</time>
      </trkpt>
      <trkpt lat="45.16964" lon="5.27788">
        <ele>682.20001220703</ele>
        <time>2020-03-01T09:55:01.000Z</time>
      </trkpt>
      <trkpt lat="45.16967" lon="5.27791">
        <ele>682.40002441406</ele>
        <time>2020-03-01T09:55:02.000Z</time>
      </trkpt>
      <trkpt lat="45.16969" lon="5.27793">
        <ele>682.59997558594</ele>
        <time>2020-03-01T09:55:03.000Z</time>
      </trkpt>
      <trkpt lat="45.16971" lon="5.27795">
        <ele>682.79998779297</ele>
        <time>2020-03-01T09:55:04.000Z</time>
      </trkpt>
      <trkpt lat="45.16972" lon="5.27796">
        <ele>683.20001220703</ele>
        <time>2020-03-01T09:55:05.000Z</time>
      </trkpt>
      <trkpt lat="45.16973" lon="5.27797">
        <ele>683.40002441406</ele>
        <time>2020-03-01T09:55:06.000Z</time>
      </trkpt>
      <trkpt lat="45.16975" lon="5.27799">
        <ele>683.59997558594</ele>
        <time>2020-03-01T09:55:07.000Z</time>
      </trkpt>
      <trkpt lat="45.16975" lon="5.27801">
        <ele>683.59997558594</ele>
        <time>2020-03-01T09:55:08.000Z</time>
      </trkpt>
      <trkpt lat="45.16977" lon="5.27802">
        <ele>683.79998779297</ele>
        <time>2020-03-01T09:55:09.000Z</time>
      </trkpt>
      <trkpt lat="45.16979" lon="5.27804">
        <ele>683.79998779297</ele>
        <time>2020-03-01T09:55:10.000Z</time>
      </trkpt>
      <trkpt lat="45.1698" lon="5.27806">
        <ele>684</ele>
        <time>2020-03-01T09:55:11.000Z</time>
      </trkpt>
      <trkpt lat="45.16982" lon="5.27808">
        <ele>684</ele>
        <time>2020-03-01T09:55:12.000Z</time>
      </trkpt>
      <trkpt lat="45.16983" lon="5.27809">
        <ele>684</ele>
        <time>2020-03-01T09:55:13.000Z</time>
      </trkpt>
      <trkpt lat="45.16985" lon="5.2781">
        <ele>684.20001220703</ele>
        <time>2020-03-01T09:55:14.000Z</time>
      </trkpt>
      <trkpt lat="45.16985" lon="5.27812">
        <ele>684.20001220703</ele>
        <time>2020-03-01T09:55:15.000Z</time>
      </trkpt>
      <trkpt lat="45.16986" lon="5.27813">
        <ele>684.20001220703</ele>
        <time>2020-03-01T09:55:16.000Z</time>
      </trkpt>
      <trkpt lat="45.16987" lon="5.27814">
        <ele>684.40002441406</ele>
        <time>2020-03-01T09:55:17.000Z</time>
      </trkpt>
      <trkpt lat="45.16988" lon="5.27816">
        <ele>684.59997558594</ele>
        <time>2020-03-01T09:55:18.000Z</time>
      </trkpt>
      <trkpt lat="45.16989" lon="5.27817">
        <ele>684.79998779297</ele>
        <time>2020-03-01T09:55:19.000Z</time>
      </trkpt>
      <trkpt lat="45.16991" lon="5.27819">
        <ele>685</ele>
        <time>2020-03-01T09:55:20.000Z</time>
      </trkpt>
      <trkpt lat="45.16992" lon="5.2782">
        <ele>685.20001220703</ele>
        <time>2020-03-01T09:55:21.000Z</time>
      </trkpt>
      <trkpt lat="45.16994" lon="5.27822">
        <ele>685.20001220703</ele>
        <time>2020-03-01T09:55:22.000Z</time>
      </trkpt>
      <trkpt lat="45.16995" lon="5.27823">
        <ele>685.40002441406</ele>
        <time>2020-03-01T09:55:23.000Z</time>
      </trkpt>
      <trkpt lat="45.16997" lon="5.27825">
        <ele>685.40002441406</ele>
        <time>2020-03-01T09:55:24.000Z</time>
      </trkpt>
      <trkpt lat="45.16999" lon="5.27826">
        <ele>685.40002441406</ele>
        <time>2020-03-01T09:55:25.000Z</time>
      </trkpt>
      <trkpt lat="45.17001" lon="5.27828">
        <ele>685.59997558594</ele>
        <time>2020-03-01T09:55:26.000Z</time>
      </trkpt>
      <trkpt lat="45.17003" lon="5.27829">
        <ele>685.79998779297</ele>
        <time>2020-03-01T09:55:27.000Z</time>
      </trkpt>
      <trkpt lat="45.17005" lon="5.27831">
        <ele>685.79998779297</ele>
        <time>2020-03-01T09:55:28.000Z</time>
      </trkpt>
      <trkpt lat="45.17006" lon="5.27833">
        <ele>686</ele>
        <time>2020-03-01T09:55:29.000Z</time>
      </trkpt>
      <trkpt lat="45.17008" lon="5.27834">
        <ele>686.20001220703</ele>
        <time>2020-03-01T09:55:30.000Z</time>
      </trkpt>
      <trkpt lat="45.17009" lon="5.27836">
        <ele>686.20001220703</ele>
        <time>2020-03-01T09:55:31.000Z</time>
      </trkpt>
      <trkpt lat="45.17012" lon="5.27837">
        <ele>686.20001220703</ele>
        <time>2020-03-01T09:55:32.000Z</time>
      </trkpt>
      <trkpt lat="45.17013" lon="5.27839">
        <ele>686</ele>
        <time>2020-03-01T09:55:33.000Z</time>
      </trkpt>
      <trkpt lat="45.17014" lon="5.27841">
        <ele>686.20001220703</ele>
        <time>2020-03-01T09:55:34.000Z</time>
      </trkpt>
      <trkpt lat="45.17016" lon="5.27843">
        <ele>686.40002441406</ele>
        <time>2020-03-01T09:55:35.000Z</time>
      </trkpt>
      <trkpt lat="45.17017" lon="5.27844">
        <ele>686.40002441406</ele>
        <time>2020-03-01T09:55:36.000Z</time>
      </trkpt>
      <trkpt lat="45.17019" lon="5.27846">
        <ele>686.40002441406</ele>
        <time>2020-03-01T09:55:37.000Z</time>
      </trkpt>
      <trkpt lat="45.17021" lon="5.27847">
        <ele>686.40002441406</ele>
        <time>2020-03-01T09:55:38.000Z</time>
      </trkpt>
      <trkpt lat="45.17022" lon="5.27849">
        <ele>686.59997558594</ele>
        <time>2020-03-01T09:55:39.000Z</time>
      </trkpt>
      <trkpt lat="45.17024" lon="5.2785">
        <ele>686.79998779297</ele>
        <time>2020-03-01T09:55:40.000Z</time>
      </trkpt>
      <trkpt lat="45.17026" lon="5.27851">
        <ele>687</ele>
        <time>2020-03-01T09:55:41.000Z</time>
      </trkpt>
      <trkpt lat="45.17028" lon="5.27852">
        <ele>687</ele>
        <time>2020-03-01T09:55:42.000Z</time>
      </trkpt>
      <trkpt lat="45.17029" lon="5.27853">
        <ele>687.20001220703</ele>
        <time>2020-03-01T09:55:43.000Z</time>
      </trkpt>
      <trkpt lat="45.17031" lon="5.27855">
        <ele>687.20001220703</ele>
        <time>2020-03-01T09:55:44.000Z</time>
      </trkpt>
      <trkpt lat="45.17033" lon="5.27856">
        <ele>687.20001220703</ele>
        <time>2020-03-01T09:55:45.000Z</time>
      </trkpt>
      <trkpt lat="45.17034" lon="5.27857">
        <ele>687.20001220703</ele>
        <time>2020-03-01T09:55:46.000Z</time>
      </trkpt>
      <trkpt lat="45.17036" lon="5.27859">
        <ele>687.40002441406</ele>
        <time>2020-03-01T09:55:47.000Z</time>
      </trkpt>
      <trkpt lat="45.17037" lon="5.2786">
        <ele>687.40002441406</ele>
        <time>2020-03-01T09:55:48.000Z</time>
      </trkpt>
      <trkpt lat="45.17039" lon="5.27861">
        <ele>687.59997558594</ele>
        <time>2020-03-01T09:55:49.000Z</time>
      </trkpt>
      <trkpt lat="45.17039" lon="5.27864">
        <ele>687.59997558594</ele>
        <time>2020-03-01T09:55:50.000Z</time>
      </trkpt>
      <trkpt lat="45.17041" lon="5.27866">
        <ele>687.59997558594</ele>
        <time>2020-03-01T09:55:51.000Z</time>
      </trkpt>
      <trkpt lat="45.17042" lon="5.27867">
        <ele>687.79998779297</ele>
        <time>2020-03-01T09:55:52.000Z</time>
      </trkpt>
      <trkpt lat="45.17044" lon="5.27869">
        <ele>688</ele>
        <time>2020-03-01T09:55:53.000Z</time>
      </trkpt>
      <trkpt lat="45.17046" lon="5.2787">
        <ele>688.20001220703</ele>
        <time>2020-03-01T09:55:54.000Z</time>
      </trkpt>
      <trkpt lat="45.17047" lon="5.27871">
        <ele>688</ele>
        <time>2020-03-01T09:55:55.000Z</time>
      </trkpt>
      <trkpt lat="45.17049" lon="5.27873">
        <ele>688</ele>
        <time>2020-03-01T09:55:56.000Z</time>
      </trkpt>
      <trkpt lat="45.17051" lon="5.27874">
        <ele>688.20001220703</ele>
        <time>2020-03-01T09:55:57.000Z</time>
      </trkpt>
      <trkpt lat="45.17053" lon="5.27876">
        <ele>688.20001220703</ele>
        <time>2020-03-01T09:55:58.000Z</time>
      </trkpt>
      <trkpt lat="45.17056" lon="5.27876">
        <ele>688</ele>
        <time>2020-03-01T09:55:59.000Z</time>
      </trkpt>
      <trkpt lat="45.17058" lon="5.27877">
        <ele>688</ele>
        <time>2020-03-01T09:56:00.000Z</time>
      </trkpt>
      <trkpt lat="45.1706" lon="5.27876">
        <ele>688.20001220703</ele>
        <time>2020-03-01T09:56:01.000Z</time>
      </trkpt>
      <trkpt lat="45.17062" lon="5.27875">
        <ele>688.40002441406</ele>
        <time>2020-03-01T09:56:02.000Z</time>
      </trkpt>
      <trkpt lat="45.17064" lon="5.27875">
        <ele>688.40002441406</ele>
        <time>2020-03-01T09:56:03.000Z</time>
      </trkpt>
      <trkpt lat="45.17065" lon="5.27874">
        <ele>688.40002441406</ele>
        <time>2020-03-01T09:56:04.000Z</time>
      </trkpt>
      <trkpt lat="45.17066" lon="5.27874">
        <ele>688.59997558594</ele>
        <time>2020-03-01T09:56:05.000Z</time>
      </trkpt>
      <trkpt lat="45.17066" lon="5.27875">
        <ele>688.79998779297</ele>
        <time>2020-03-01T09:56:06.000Z</time>
      </trkpt>
      <trkpt lat="45.17065" lon="5.27877">
        <ele>688.79998779297</ele>
        <time>2020-03-01T09:56:07.000Z</time>
      </trkpt>
      <trkpt lat="45.17064" lon="5.27879">
        <ele>688.79998779297</ele>
        <time>2020-03-01T09:56:08.000Z</time>
      </trkpt>
      <trkpt lat="45.17063" lon="5.27881">
        <ele>689</ele>
        <time>2020-03-01T09:56:09.000Z</time>
      </trkpt>
      <trkpt lat="45.17062" lon="5.27883">
        <ele>689</ele>
        <time>2020-03-01T09:56:10.000Z</time>
      </trkpt>
      <trkpt lat="45.17061" lon="5.27885">
        <ele>689</ele>
        <time>2020-03-01T09:56:11.000Z</time>
      </trkpt>
      <trkpt lat="45.17061" lon="5.27887">
        <ele>689</ele>
        <time>2020-03-01T09:56:12.000Z</time>
      </trkpt>
      <trkpt lat="45.1706" lon="5.27889">
        <ele>689</ele>
        <time>2020-03-01T09:56:13.000Z</time>
      </trkpt>
      <trkpt lat="45.1706" lon="5.27891">
        <ele>689</ele>
        <time>2020-03-01T09:56:14.000Z</time>
      </trkpt>
      <trkpt lat="45.1706" lon="5.27893">
        <ele>689.20001220703</ele>
        <time>2020-03-01T09:56:15.000Z</time>
      </trkpt>
      <trkpt lat="45.17059" lon="5.27895">
        <ele>689</ele>
        <time>2020-03-01T09:56:16.000Z</time>
      </trkpt>
      <trkpt lat="45.17059" lon="5.27896">
        <ele>689</ele>
        <time>2020-03-01T09:56:17.000Z</time>
      </trkpt>
      <trkpt lat="45.17058" lon="5.279">
        <ele>689</ele>
        <time>2020-03-01T09:56:18.000Z</time>
      </trkpt>
      <trkpt lat="45.17058" lon="5.27902">
        <ele>689</ele>
        <time>2020-03-01T09:56:19.000Z</time>
      </trkpt>
      <trkpt lat="45.17058" lon="5.27906">
        <ele>688.79998779297</ele>
        <time>2020-03-01T09:56:20.000Z</time>
      </trkpt>
      <trkpt lat="45.17057" lon="5.27908">
        <ele>688.79998779297</ele>
        <time>2020-03-01T09:56:21.000Z</time>
      </trkpt>
      <trkpt lat="45.17057" lon="5.2791">
        <ele>688.59997558594</ele>
        <time>2020-03-01T09:56:22.000Z</time>
      </trkpt>
      <trkpt lat="45.17057" lon="5.27913">
        <ele>688.59997558594</ele>
        <time>2020-03-01T09:56:23.000Z</time>
      </trkpt>
      <trkpt lat="45.17057" lon="5.27915">
        <ele>688.40002441406</ele>
        <time>2020-03-01T09:56:24.000Z</time>
      </trkpt>
      <trkpt lat="45.17057" lon="5.27918">
        <ele>688.20001220703</ele>
        <time>2020-03-01T09:56:25.000Z</time>
      </trkpt>
      <trkpt lat="45.17057" lon="5.27921">
        <ele>688</ele>
        <time>2020-03-01T09:56:26.000Z</time>
      </trkpt>
      <trkpt lat="45.17056" lon="5.27924">
        <ele>688</ele>
        <time>2020-03-01T09:56:27.000Z</time>
      </trkpt>
      <trkpt lat="45.17056" lon="5.27928">
        <ele>687.79998779297</ele>
        <time>2020-03-01T09:56:28.000Z</time>
      </trkpt>
      <trkpt lat="45.17056" lon="5.27931">
        <ele>687.79998779297</ele>
        <time>2020-03-01T09:56:29.000Z</time>
      </trkpt>
      <trkpt lat="45.17056" lon="5.27935">
        <ele>687.59997558594</ele>
        <time>2020-03-01T09:56:30.000Z</time>
      </trkpt>
      <trkpt lat="45.17056" lon="5.27938">
        <ele>687.59997558594</ele>
        <time>2020-03-01T09:56:31.000Z</time>
      </trkpt>
      <trkpt lat="45.17055" lon="5.27941">
        <ele>687.20001220703</ele>
        <time>2020-03-01T09:56:32.000Z</time>
      </trkpt>
      <trkpt lat="45.17055" lon="5.27945">
        <ele>687.20001220703</ele>
        <time>2020-03-01T09:56:33.000Z</time>
      </trkpt>
      <trkpt lat="45.17056" lon="5.27947">
        <ele>687</ele>
        <time>2020-03-01T09:56:34.000Z</time>
      </trkpt>
      <trkpt lat="45.17057" lon="5.2795">
        <ele>686.79998779297</ele>
        <time>2020-03-01T09:56:35.000Z</time>
      </trkpt>
      <trkpt lat="45.17058" lon="5.27953">
        <ele>686.79998779297</ele>
        <time>2020-03-01T09:56:36.000Z</time>
      </trkpt>
      <trkpt lat="45.17058" lon="5.27956">
        <ele>686.59997558594</ele>
        <time>2020-03-01T09:56:37.000Z</time>
      </trkpt>
      <trkpt lat="45.17058" lon="5.27959">
        <ele>686.59997558594</ele>
        <time>2020-03-01T09:56:38.000Z</time>
      </trkpt>
      <trkpt lat="45.17058" lon="5.27962">
        <ele>686.40002441406</ele>
        <time>2020-03-01T09:56:39.000Z</time>
      </trkpt>
      <trkpt lat="45.17058" lon="5.27965">
        <ele>686</ele>
        <time>2020-03-01T09:56:40.000Z</time>
      </trkpt>
      <trkpt lat="45.17059" lon="5.27969">
        <ele>685.59997558594</ele>
        <time>2020-03-01T09:56:41.000Z</time>
      </trkpt>
      <trkpt lat="45.17059" lon="5.27974">
        <ele>685.40002441406</ele>
        <time>2020-03-01T09:56:42.000Z</time>
      </trkpt>
      <trkpt lat="45.17059" lon="5.27977">
        <ele>685.40002441406</ele>
        <time>2020-03-01T09:56:43.000Z</time>
      </trkpt>
      <trkpt lat="45.17058" lon="5.2798">
        <ele>685.20001220703</ele>
        <time>2020-03-01T09:56:44.000Z</time>
      </trkpt>
      <trkpt lat="45.17058" lon="5.27984">
        <ele>685.20001220703</ele>
        <time>2020-03-01T09:56:45.000Z</time>
      </trkpt>
      <trkpt lat="45.17058" lon="5.27986">
        <ele>685</ele>
        <time>2020-03-01T09:56:46.000Z</time>
      </trkpt>
      <trkpt lat="45.17058" lon="5.27989">
        <ele>684.79998779297</ele>
        <time>2020-03-01T09:56:47.000Z</time>
      </trkpt>
      <trkpt lat="45.17059" lon="5.27993">
        <ele>684.59997558594</ele>
        <time>2020-03-01T09:56:48.000Z</time>
      </trkpt>
      <trkpt lat="45.17058" lon="5.27997">
        <ele>684.59997558594</ele>
        <time>2020-03-01T09:56:49.000Z</time>
      </trkpt>
      <trkpt lat="45.17057" lon="5.28003">
        <ele>684.59997558594</ele>
        <time>2020-03-01T09:56:50.000Z</time>
      </trkpt>
      <trkpt lat="45.17056" lon="5.28007">
        <ele>684.40002441406</ele>
        <time>2020-03-01T09:56:51.000Z</time>
      </trkpt>
      <trkpt lat="45.17055" lon="5.28012">
        <ele>684.40002441406</ele>
        <time>2020-03-01T09:56:52.000Z</time>
      </trkpt>
      <trkpt lat="45.17054" lon="5.28016">
        <ele>684.40002441406</ele>
        <time>2020-03-01T09:56:53.000Z</time>
      </trkpt>
      <trkpt lat="45.17053" lon="5.2802">
        <ele>684.20001220703</ele>
        <time>2020-03-01T09:56:54.000Z</time>
      </trkpt>
      <trkpt lat="45.17052" lon="5.28023">
        <ele>684</ele>
        <time>2020-03-01T09:56:55.000Z</time>
      </trkpt>
      <trkpt lat="45.17051" lon="5.28027">
        <ele>683.59997558594</ele>
        <time>2020-03-01T09:56:56.000Z</time>
      </trkpt>
      <trkpt lat="45.1705" lon="5.28031">
        <ele>683.40002441406</ele>
        <time>2020-03-01T09:56:57.000Z</time>
      </trkpt>
      <trkpt lat="45.1705" lon="5.28035">
        <ele>683.20001220703</ele>
        <time>2020-03-01T09:56:58.000Z</time>
      </trkpt>
      <trkpt lat="45.17048" lon="5.28042">
        <ele>683</ele>
        <time>2020-03-01T09:56:59.000Z</time>
      </trkpt>
      <trkpt lat="45.17046" lon="5.28048">
        <ele>682.79998779297</ele>
        <time>2020-03-01T09:57:00.000Z</time>
      </trkpt>
      <trkpt lat="45.17044" lon="5.28053">
        <ele>682.59997558594</ele>
        <time>2020-03-01T09:57:01.000Z</time>
      </trkpt>
      <trkpt lat="45.17042" lon="5.28061">
        <ele>682.59997558594</ele>
        <time>2020-03-01T09:57:02.000Z</time>
      </trkpt>
      <trkpt lat="45.17041" lon="5.28066">
        <ele>682.40002441406</ele>
        <time>2020-03-01T09:57:03.000Z</time>
      </trkpt>
      <trkpt lat="45.17039" lon="5.28071">
        <ele>682.40002441406</ele>
        <time>2020-03-01T09:57:04.000Z</time>
      </trkpt>
      <trkpt lat="45.17038" lon="5.28076">
        <ele>682.40002441406</ele>
        <time>2020-03-01T09:57:05.000Z</time>
      </trkpt>
      <trkpt lat="45.17037" lon="5.28081">
        <ele>682.40002441406</ele>
        <time>2020-03-01T09:57:06.000Z</time>
      </trkpt>
      <trkpt lat="45.17036" lon="5.28085">
        <ele>682.59997558594</ele>
        <time>2020-03-01T09:57:07.000Z</time>
      </trkpt>
      <trkpt lat="45.17035" lon="5.28088">
        <ele>682.59997558594</ele>
        <time>2020-03-01T09:57:08.000Z</time>
      </trkpt>
      <trkpt lat="45.17034" lon="5.28091">
        <ele>682.59997558594</ele>
        <time>2020-03-01T09:57:09.000Z</time>
      </trkpt>
      <trkpt lat="45.17033" lon="5.28095">
        <ele>682.40002441406</ele>
        <time>2020-03-01T09:57:10.000Z</time>
      </trkpt>
      <trkpt lat="45.17033" lon="5.28098">
        <ele>682.40002441406</ele>
        <time>2020-03-01T09:57:11.000Z</time>
      </trkpt>
      <trkpt lat="45.17033" lon="5.281">
        <ele>682.40002441406</ele>
        <time>2020-03-01T09:57:12.000Z</time>
      </trkpt>
      <trkpt lat="45.17033" lon="5.28102">
        <ele>682.40002441406</ele>
        <time>2020-03-01T09:57:13.000Z</time>
      </trkpt>
      <trkpt lat="45.17033" lon="5.28104">
        <ele>682.20001220703</ele>
        <time>2020-03-01T09:57:14.000Z</time>
      </trkpt>
      <trkpt lat="45.17033" lon="5.28106">
        <ele>682</ele>
        <time>2020-03-01T09:57:15.000Z</time>
      </trkpt>
      <trkpt lat="45.17033" lon="5.28107">
        <ele>682</ele>
        <time>2020-03-01T09:57:16.000Z</time>
      </trkpt>
      <trkpt lat="45.17033" lon="5.28109">
        <ele>681.79998779297</ele>
        <time>2020-03-01T09:57:17.000Z</time>
      </trkpt>
      <trkpt lat="45.17032" lon="5.2811">
        <ele>681.79998779297</ele>
        <time>2020-03-01T09:57:18.000Z</time>
      </trkpt>
      <trkpt lat="45.17033" lon="5.28112">
        <ele>681.59997558594</ele>
        <time>2020-03-01T09:57:19.000Z</time>
      </trkpt>
      <trkpt lat="45.17033" lon="5.28113">
        <ele>681.59997558594</ele>
        <time>2020-03-01T09:57:20.000Z</time>
      </trkpt>
      <trkpt lat="45.17033" lon="5.28114">
        <ele>681.59997558594</ele>
        <time>2020-03-01T09:57:21.000Z</time>
      </trkpt>
      <trkpt lat="45.17032" lon="5.28115">
        <ele>681.40002441406</ele>
        <time>2020-03-01T09:57:22.000Z</time>
      </trkpt>
      <trkpt lat="45.17032" lon="5.28115">
        <ele>681.40002441406</ele>
        <time>2020-03-01T09:57:23.000Z</time>
      </trkpt>
      <trkpt lat="45.1703" lon="5.28115">
        <ele>681.20001220703</ele>
        <time>2020-03-01T09:57:24.000Z</time>
      </trkpt>
      <trkpt lat="45.17029" lon="5.28115">
        <ele>681</ele>
        <time>2020-03-01T09:57:25.000Z</time>
      </trkpt>
      <trkpt lat="45.17027" lon="5.28115">
        <ele>680.79998779297</ele>
        <time>2020-03-01T09:57:26.000Z</time>
      </trkpt>
      <trkpt lat="45.17025" lon="5.28116">
        <ele>680.59997558594</ele>
        <time>2020-03-01T09:57:27.000Z</time>
      </trkpt>
      <trkpt lat="45.17022" lon="5.28116">
        <ele>680.40002441406</ele>
        <time>2020-03-01T09:57:28.000Z</time>
      </trkpt>
      <trkpt lat="45.17019" lon="5.28119">
        <ele>680.20001220703</ele>
        <time>2020-03-01T09:57:29.000Z</time>
      </trkpt>
      <trkpt lat="45.17015" lon="5.28121">
        <ele>680.20001220703</ele>
        <time>2020-03-01T09:57:30.000Z</time>
      </trkpt>
      <trkpt lat="45.17011" lon="5.28123">
        <ele>680.20001220703</ele>
        <time>2020-03-01T09:57:31.000Z</time>
      </trkpt>
      <trkpt lat="45.17007" lon="5.28125">
        <ele>680</ele>
        <time>2020-03-01T09:57:32.000Z</time>
      </trkpt>
      <trkpt lat="45.17003" lon="5.28127">
        <ele>679.79998779297</ele>
        <time>2020-03-01T09:57:33.000Z</time>
      </trkpt>
      <trkpt lat="45.17" lon="5.28128">
        <ele>679.40002441406</ele>
        <time>2020-03-01T09:57:34.000Z</time>
      </trkpt>
      <trkpt lat="45.16995" lon="5.2813">
        <ele>679.40002441406</ele>
        <time>2020-03-01T09:57:35.000Z</time>
      </trkpt>
      <trkpt lat="45.16991" lon="5.28131">
        <ele>679.20001220703</ele>
        <time>2020-03-01T09:57:36.000Z</time>
      </trkpt>
      <trkpt lat="45.16988" lon="5.2813">
        <ele>679</ele>
        <time>2020-03-01T09:57:37.000Z</time>
      </trkpt>
      <trkpt lat="45.16985" lon="5.28131">
        <ele>678.59997558594</ele>
        <time>2020-03-01T09:57:38.000Z</time>
      </trkpt>
      <trkpt lat="45.16981" lon="5.28131">
        <ele>678.59997558594</ele>
        <time>2020-03-01T09:57:39.000Z</time>
      </trkpt>
      <trkpt lat="45.16978" lon="5.28131">
        <ele>678.59997558594</ele>
        <time>2020-03-01T09:57:40.000Z</time>
      </trkpt>
      <trkpt lat="45.16974" lon="5.28131">
        <ele>678.59997558594</ele>
        <time>2020-03-01T09:57:41.000Z</time>
      </trkpt>
      <trkpt lat="45.16971" lon="5.28131">
        <ele>678.40002441406</ele>
        <time>2020-03-01T09:57:42.000Z</time>
      </trkpt>
      <trkpt lat="45.16969" lon="5.28131">
        <ele>678.40002441406</ele>
        <time>2020-03-01T09:57:43.000Z</time>
      </trkpt>
      <trkpt lat="45.16966" lon="5.28131">
        <ele>678.40002441406</ele>
        <time>2020-03-01T09:57:44.000Z</time>
      </trkpt>
      <trkpt lat="45.16963" lon="5.2813">
        <ele>678.59997558594</ele>
        <time>2020-03-01T09:57:45.000Z</time>
      </trkpt>
      <trkpt lat="45.1696" lon="5.2813">
        <ele>678.40002441406</ele>
        <time>2020-03-01T09:57:46.000Z</time>
      </trkpt>
      <trkpt lat="45.16957" lon="5.2813">
        <ele>677.79998779297</ele>
        <time>2020-03-01T09:57:47.000Z</time>
      </trkpt>
      <trkpt lat="45.16952" lon="5.28132">
        <ele>677.40002441406</ele>
        <time>2020-03-01T09:57:48.000Z</time>
      </trkpt>
      <trkpt lat="45.16949" lon="5.28132">
        <ele>677.20001220703</ele>
        <time>2020-03-01T09:57:49.000Z</time>
      </trkpt>
      <trkpt lat="45.16947" lon="5.28132">
        <ele>677</ele>
        <time>2020-03-01T09:57:50.000Z</time>
      </trkpt>
      <trkpt lat="45.16944" lon="5.28132">
        <ele>676.59997558594</ele>
        <time>2020-03-01T09:57:51.000Z</time>
      </trkpt>
      <trkpt lat="45.16941" lon="5.28132">
        <ele>676.40002441406</ele>
        <time>2020-03-01T09:57:52.000Z</time>
      </trkpt>
      <trkpt lat="45.16938" lon="5.28132">
        <ele>676.20001220703</ele>
        <time>2020-03-01T09:57:53.000Z</time>
      </trkpt>
      <trkpt lat="45.16935" lon="5.28132">
        <ele>676</ele>
        <time>2020-03-01T09:57:54.000Z</time>
      </trkpt>
      <trkpt lat="45.16932" lon="5.28132">
        <ele>675.59997558594</ele>
        <time>2020-03-01T09:57:55.000Z</time>
      </trkpt>
      <trkpt lat="45.16929" lon="5.28131">
        <ele>675.20001220703</ele>
        <time>2020-03-01T09:57:56.000Z</time>
      </trkpt>
      <trkpt lat="45.16926" lon="5.28131">
        <ele>675</ele>
        <time>2020-03-01T09:57:57.000Z</time>
      </trkpt>
      <trkpt lat="45.16923" lon="5.28131">
        <ele>675</ele>
        <time>2020-03-01T09:57:58.000Z</time>
      </trkpt>
      <trkpt lat="45.1692" lon="5.2813">
        <ele>674.59997558594</ele>
        <time>2020-03-01T09:57:59.000Z</time>
      </trkpt>
      <trkpt lat="45.16917" lon="5.28129">
        <ele>674.59997558594</ele>
        <time>2020-03-01T09:58:00.000Z</time>
      </trkpt>
      <trkpt lat="45.16915" lon="5.28129">
        <ele>674.40002441406</ele>
        <time>2020-03-01T09:58:01.000Z</time>
      </trkpt>
      <trkpt lat="45.16912" lon="5.28128">
        <ele>674.20001220703</ele>
        <time>2020-03-01T09:58:02.000Z</time>
      </trkpt>
      <trkpt lat="45.16909" lon="5.28128">
        <ele>674</ele>
        <time>2020-03-01T09:58:03.000Z</time>
      </trkpt>
      <trkpt lat="45.16906" lon="5.28128">
        <ele>674.20001220703</ele>
        <time>2020-03-01T09:58:04.000Z</time>
      </trkpt>
      <trkpt lat="45.16903" lon="5.28128">
        <ele>673.79998779297</ele>
        <time>2020-03-01T09:58:05.000Z</time>
      </trkpt>
      <trkpt lat="45.169" lon="5.28127">
        <ele>673.20001220703</ele>
        <time>2020-03-01T09:58:06.000Z</time>
      </trkpt>
      <trkpt lat="45.16897" lon="5.28127">
        <ele>672.59997558594</ele>
        <time>2020-03-01T09:58:07.000Z</time>
      </trkpt>
      <trkpt lat="45.16894" lon="5.28127">
        <ele>672</ele>
        <time>2020-03-01T09:58:08.000Z</time>
      </trkpt>
      <trkpt lat="45.16891" lon="5.28126">
        <ele>671.59997558594</ele>
        <time>2020-03-01T09:58:09.000Z</time>
      </trkpt>
      <trkpt lat="45.16888" lon="5.28125">
        <ele>671.20001220703</ele>
        <time>2020-03-01T09:58:10.000Z</time>
      </trkpt>
      <trkpt lat="45.16885" lon="5.28125">
        <ele>670.79998779297</ele>
        <time>2020-03-01T09:58:11.000Z</time>
      </trkpt>
      <trkpt lat="45.16882" lon="5.28125">
        <ele>670.59997558594</ele>
        <time>2020-03-01T09:58:12.000Z</time>
      </trkpt>
      <trkpt lat="45.16879" lon="5.28124">
        <ele>670.40002441406</ele>
        <time>2020-03-01T09:58:13.000Z</time>
      </trkpt>
      <trkpt lat="45.16876" lon="5.28123">
        <ele>670.20001220703</ele>
        <time>2020-03-01T09:58:14.000Z</time>
      </trkpt>
      <trkpt lat="45.16874" lon="5.28122">
        <ele>669.59997558594</ele>
        <time>2020-03-01T09:58:15.000Z</time>
      </trkpt>
      <trkpt lat="45.16871" lon="5.28122">
        <ele>669.20001220703</ele>
        <time>2020-03-01T09:58:16.000Z</time>
      </trkpt>
      <trkpt lat="45.16869" lon="5.28121">
        <ele>668.79998779297</ele>
        <time>2020-03-01T09:58:17.000Z</time>
      </trkpt>
      <trkpt lat="45.16866" lon="5.2812">
        <ele>668.40002441406</ele>
        <time>2020-03-01T09:58:18.000Z</time>
      </trkpt>
      <trkpt lat="45.16864" lon="5.28119">
        <ele>668</ele>
        <time>2020-03-01T09:58:19.000Z</time>
      </trkpt>
      <trkpt lat="45.16861" lon="5.28118">
        <ele>668.20001220703</ele>
        <time>2020-03-01T09:58:20.000Z</time>
      </trkpt>
      <trkpt lat="45.16859" lon="5.28117">
        <ele>667.79998779297</ele>
        <time>2020-03-01T09:58:21.000Z</time>
      </trkpt>
      <trkpt lat="45.16856" lon="5.28116">
        <ele>667.40002441406</ele>
        <time>2020-03-01T09:58:22.000Z</time>
      </trkpt>
      <trkpt lat="45.16853" lon="5.28115">
        <ele>667.40002441406</ele>
        <time>2020-03-01T09:58:23.000Z</time>
      </trkpt>
      <trkpt lat="45.16851" lon="5.28115">
        <ele>667.40002441406</ele>
        <time>2020-03-01T09:58:24.000Z</time>
      </trkpt>
      <trkpt lat="45.16848" lon="5.28114">
        <ele>667.20001220703</ele>
        <time>2020-03-01T09:58:25.000Z</time>
      </trkpt>
      <trkpt lat="45.16845" lon="5.28114">
        <ele>667.20001220703</ele>
        <time>2020-03-01T09:58:26.000Z</time>
      </trkpt>
      <trkpt lat="45.16842" lon="5.28113">
        <ele>667</ele>
        <time>2020-03-01T09:58:27.000Z</time>
      </trkpt>
      <trkpt lat="45.1684" lon="5.28113">
        <ele>667</ele>
        <time>2020-03-01T09:58:28.000Z</time>
      </trkpt>
      <trkpt lat="45.16837" lon="5.28112">
        <ele>667</ele>
        <time>2020-03-01T09:58:29.000Z</time>
      </trkpt>
      <trkpt lat="45.16834" lon="5.28112">
        <ele>666.79998779297</ele>
        <time>2020-03-01T09:58:30.000Z</time>
      </trkpt>
      <trkpt lat="45.16832" lon="5.28111">
        <ele>666.79998779297</ele>
        <time>2020-03-01T09:58:31.000Z</time>
      </trkpt>
      <trkpt lat="45.16829" lon="5.2811">
        <ele>667</ele>
        <time>2020-03-01T09:58:32.000Z</time>
      </trkpt>
      <trkpt lat="45.16826" lon="5.28109">
        <ele>666.79998779297</ele>
        <time>2020-03-01T09:58:33.000Z</time>
      </trkpt>
      <trkpt lat="45.16823" lon="5.28108">
        <ele>666.59997558594</ele>
        <time>2020-03-01T09:58:34.000Z</time>
      </trkpt>
      <trkpt lat="45.1682" lon="5.28108">
        <ele>666</ele>
        <time>2020-03-01T09:58:35.000Z</time>
      </trkpt>
      <trkpt lat="45.16817" lon="5.28108">
        <ele>666</ele>
        <time>2020-03-01T09:58:36.000Z</time>
      </trkpt>
      <trkpt lat="45.16815" lon="5.28108">
        <ele>665.79998779297</ele>
        <time>2020-03-01T09:58:37.000Z</time>
      </trkpt>
      <trkpt lat="45.16812" lon="5.28108">
        <ele>665.40002441406</ele>
        <time>2020-03-01T09:58:38.000Z</time>
      </trkpt>
      <trkpt lat="45.16809" lon="5.28108">
        <ele>665</ele>
        <time>2020-03-01T09:58:39.000Z</time>
      </trkpt>
      <trkpt lat="45.16806" lon="5.28109">
        <ele>664.79998779297</ele>
        <time>2020-03-01T09:58:40.000Z</time>
      </trkpt>
      <trkpt lat="45.16804" lon="5.2811">
        <ele>664.79998779297</ele>
        <time>2020-03-01T09:58:41.000Z</time>
      </trkpt>
      <trkpt lat="45.16801" lon="5.28111">
        <ele>664.79998779297</ele>
        <time>2020-03-01T09:58:42.000Z</time>
      </trkpt>
      <trkpt lat="45.168" lon="5.28111">
        <ele>664.79998779297</ele>
        <time>2020-03-01T09:58:43.000Z</time>
      </trkpt>
      <trkpt lat="45.16797" lon="5.28111">
        <ele>664.79998779297</ele>
        <time>2020-03-01T09:58:44.000Z</time>
      </trkpt>
      <trkpt lat="45.16795" lon="5.28112">
        <ele>664.79998779297</ele>
        <time>2020-03-01T09:58:45.000Z</time>
      </trkpt>
      <trkpt lat="45.16793" lon="5.28112">
        <ele>665</ele>
        <time>2020-03-01T09:58:46.000Z</time>
      </trkpt>
      <trkpt lat="45.16791" lon="5.28112">
        <ele>664.79998779297</ele>
        <time>2020-03-01T09:58:47.000Z</time>
      </trkpt>
      <trkpt lat="45.16788" lon="5.28112">
        <ele>664.79998779297</ele>
        <time>2020-03-01T09:58:48.000Z</time>
      </trkpt>
      <trkpt lat="45.16786" lon="5.28113">
        <ele>664.59997558594</ele>
        <time>2020-03-01T09:58:49.000Z</time>
      </trkpt>
      <trkpt lat="45.16783" lon="5.28113">
        <ele>664.59997558594</ele>
        <time>2020-03-01T09:58:50.000Z</time>
      </trkpt>
      <trkpt lat="45.16781" lon="5.28113">
        <ele>664.40002441406</ele>
        <time>2020-03-01T09:58:51.000Z</time>
      </trkpt>
      <trkpt lat="45.16779" lon="5.28113">
        <ele>664.59997558594</ele>
        <time>2020-03-01T09:58:52.000Z</time>
      </trkpt>
      <trkpt lat="45.16777" lon="5.28114">
        <ele>664.40002441406</ele>
        <time>2020-03-01T09:58:53.000Z</time>
      </trkpt>
      <trkpt lat="45.16774" lon="5.28114">
        <ele>664.40002441406</ele>
        <time>2020-03-01T09:58:54.000Z</time>
      </trkpt>
      <trkpt lat="45.16772" lon="5.28113">
        <ele>664.20001220703</ele>
        <time>2020-03-01T09:58:55.000Z</time>
      </trkpt>
      <trkpt lat="45.16769" lon="5.28114">
        <ele>664.20001220703</ele>
        <time>2020-03-01T09:58:56.000Z</time>
      </trkpt>
      <trkpt lat="45.16767" lon="5.28114">
        <ele>664</ele>
        <time>2020-03-01T09:58:57.000Z</time>
      </trkpt>
      <trkpt lat="45.16764" lon="5.28114">
        <ele>663.79998779297</ele>
        <time>2020-03-01T09:58:58.000Z</time>
      </trkpt>
      <trkpt lat="45.16761" lon="5.28114">
        <ele>663.59997558594</ele>
        <time>2020-03-01T09:58:59.000Z</time>
      </trkpt>
      <trkpt lat="45.16759" lon="5.28114">
        <ele>663.59997558594</ele>
        <time>2020-03-01T09:59:00.000Z</time>
      </trkpt>
      <trkpt lat="45.16756" lon="5.28114">
        <ele>663.40002441406</ele>
        <time>2020-03-01T09:59:01.000Z</time>
      </trkpt>
      <trkpt lat="45.16754" lon="5.28115">
        <ele>663.40002441406</ele>
        <time>2020-03-01T09:59:02.000Z</time>
      </trkpt>
      <trkpt lat="45.16751" lon="5.28116">
        <ele>663.20001220703</ele>
        <time>2020-03-01T09:59:03.000Z</time>
      </trkpt>
      <trkpt lat="45.16748" lon="5.28116">
        <ele>663.20001220703</ele>
        <time>2020-03-01T09:59:04.000Z</time>
      </trkpt>
      <trkpt lat="45.16745" lon="5.28116">
        <ele>663</ele>
        <time>2020-03-01T09:59:05.000Z</time>
      </trkpt>
      <trkpt lat="45.16742" lon="5.28116">
        <ele>662.79998779297</ele>
        <time>2020-03-01T09:59:06.000Z</time>
      </trkpt>
      <trkpt lat="45.1674" lon="5.28116">
        <ele>662.59997558594</ele>
        <time>2020-03-01T09:59:07.000Z</time>
      </trkpt>
      <trkpt lat="45.16738" lon="5.28116">
        <ele>662.59997558594</ele>
        <time>2020-03-01T09:59:08.000Z</time>
      </trkpt>
      <trkpt lat="45.16736" lon="5.28116">
        <ele>662.40002441406</ele>
        <time>2020-03-01T09:59:09.000Z</time>
      </trkpt>
      <trkpt lat="45.16734" lon="5.28115">
        <ele>662.20001220703</ele>
        <time>2020-03-01T09:59:10.000Z</time>
      </trkpt>
      <trkpt lat="45.16733" lon="5.28114">
        <ele>662</ele>
        <time>2020-03-01T09:59:11.000Z</time>
      </trkpt>
      <trkpt lat="45.16731" lon="5.28114">
        <ele>661.79998779297</ele>
        <time>2020-03-01T09:59:12.000Z</time>
      </trkpt>
      <trkpt lat="45.16729" lon="5.28113">
        <ele>661.79998779297</ele>
        <time>2020-03-01T09:59:13.000Z</time>
      </trkpt>
      <trkpt lat="45.16727" lon="5.28112">
        <ele>661.59997558594</ele>
        <time>2020-03-01T09:59:14.000Z</time>
      </trkpt>
      <trkpt lat="45.16725" lon="5.28111">
        <ele>661.40002441406</ele>
        <time>2020-03-01T09:59:15.000Z</time>
      </trkpt>
      <trkpt lat="45.16723" lon="5.28111">
        <ele>661.20001220703</ele>
        <time>2020-03-01T09:59:16.000Z</time>
      </trkpt>
      <trkpt lat="45.1672" lon="5.28112">
        <ele>661</ele>
        <time>2020-03-01T09:59:17.000Z</time>
      </trkpt>
      <trkpt lat="45.16718" lon="5.28112">
        <ele>661</ele>
        <time>2020-03-01T09:59:18.000Z</time>
      </trkpt>
      <trkpt lat="45.16716" lon="5.2811">
        <ele>660.79998779297</ele>
        <time>2020-03-01T09:59:19.000Z</time>
      </trkpt>
      <trkpt lat="45.16714" lon="5.28109">
        <ele>660.40002441406</ele>
        <time>2020-03-01T09:59:20.000Z</time>
      </trkpt>
      <trkpt lat="45.16713" lon="5.28108">
        <ele>660</ele>
        <time>2020-03-01T09:59:21.000Z</time>
      </trkpt>
      <trkpt lat="45.16711" lon="5.28107">
        <ele>659.79998779297</ele>
        <time>2020-03-01T09:59:22.000Z</time>
      </trkpt>
      <trkpt lat="45.16709" lon="5.28107">
        <ele>659.59997558594</ele>
        <time>2020-03-01T09:59:23.000Z</time>
      </trkpt>
      <trkpt lat="45.16707" lon="5.28106">
        <ele>659.40002441406</ele>
        <time>2020-03-01T09:59:24.000Z</time>
      </trkpt>
      <trkpt lat="45.16705" lon="5.28105">
        <ele>659.20001220703</ele>
        <time>2020-03-01T09:59:25.000Z</time>
      </trkpt>
      <trkpt lat="45.16704" lon="5.28104">
        <ele>658.79998779297</ele>
        <time>2020-03-01T09:59:26.000Z</time>
      </trkpt>
      <trkpt lat="45.16702" lon="5.28104">
        <ele>658.59997558594</ele>
        <time>2020-03-01T09:59:27.000Z</time>
      </trkpt>
      <trkpt lat="45.16699" lon="5.28104">
        <ele>658.40002441406</ele>
        <time>2020-03-01T09:59:28.000Z</time>
      </trkpt>
      <trkpt lat="45.16697" lon="5.28104">
        <ele>658.20001220703</ele>
        <time>2020-03-01T09:59:29.000Z</time>
      </trkpt>
      <trkpt lat="45.16694" lon="5.28105">
        <ele>658</ele>
        <time>2020-03-01T09:59:30.000Z</time>
      </trkpt>
      <trkpt lat="45.16692" lon="5.28104">
        <ele>657.59997558594</ele>
        <time>2020-03-01T09:59:31.000Z</time>
      </trkpt>
      <trkpt lat="45.1669" lon="5.28104">
        <ele>657.59997558594</ele>
        <time>2020-03-01T09:59:32.000Z</time>
      </trkpt>
      <trkpt lat="45.16688" lon="5.28104">
        <ele>657.59997558594</ele>
        <time>2020-03-01T09:59:33.000Z</time>
      </trkpt>
      <trkpt lat="45.16685" lon="5.28103">
        <ele>657.59997558594</ele>
        <time>2020-03-01T09:59:34.000Z</time>
      </trkpt>
      <trkpt lat="45.16681" lon="5.28104">
        <ele>657.20001220703</ele>
        <time>2020-03-01T09:59:35.000Z</time>
      </trkpt>
      <trkpt lat="45.16677" lon="5.28103">
        <ele>656.79998779297</ele>
        <time>2020-03-01T09:59:36.000Z</time>
      </trkpt>
      <trkpt lat="45.16667" lon="5.2811">
        <ele>656.59997558594</ele>
        <time>2020-03-01T09:59:37.000Z</time>
      </trkpt>
      <trkpt lat="45.16664" lon="5.28109">
        <ele>656.59997558594</ele>
        <time>2020-03-01T09:59:38.000Z</time>
      </trkpt>
      <trkpt lat="45.1666" lon="5.28109">
        <ele>656.40002441406</ele>
        <time>2020-03-01T09:59:39.000Z</time>
      </trkpt>
      <trkpt lat="45.16657" lon="5.28109">
        <ele>656.40002441406</ele>
        <time>2020-03-01T09:59:40.000Z</time>
      </trkpt>
      <trkpt lat="45.16653" lon="5.28109">
        <ele>656.20001220703</ele>
        <time>2020-03-01T09:59:41.000Z</time>
      </trkpt>
      <trkpt lat="45.16649" lon="5.28109">
        <ele>656.20001220703</ele>
        <time>2020-03-01T09:59:42.000Z</time>
      </trkpt>
      <trkpt lat="45.16646" lon="5.28109">
        <ele>656</ele>
        <time>2020-03-01T09:59:43.000Z</time>
      </trkpt>
      <trkpt lat="45.16642" lon="5.28109">
        <ele>655.79998779297</ele>
        <time>2020-03-01T09:59:44.000Z</time>
      </trkpt>
      <trkpt lat="45.16638" lon="5.28109">
        <ele>655.59997558594</ele>
        <time>2020-03-01T09:59:45.000Z</time>
      </trkpt>
      <trkpt lat="45.16635" lon="5.28109">
        <ele>655.40002441406</ele>
        <time>2020-03-01T09:59:46.000Z</time>
      </trkpt>
      <trkpt lat="45.16631" lon="5.28109">
        <ele>655.20001220703</ele>
        <time>2020-03-01T09:59:47.000Z</time>
      </trkpt>
      <trkpt lat="45.16628" lon="5.28109">
        <ele>655</ele>
        <time>2020-03-01T09:59:48.000Z</time>
      </trkpt>
      <trkpt lat="45.16624" lon="5.2811">
        <ele>654.79998779297</ele>
        <time>2020-03-01T09:59:49.000Z</time>
      </trkpt>
      <trkpt lat="45.16621" lon="5.28111">
        <ele>654.20001220703</ele>
        <time>2020-03-01T09:59:50.000Z</time>
      </trkpt>
      <trkpt lat="45.16617" lon="5.28112">
        <ele>654</ele>
        <time>2020-03-01T09:59:51.000Z</time>
      </trkpt>
      <trkpt lat="45.16614" lon="5.28113">
        <ele>653.59997558594</ele>
        <time>2020-03-01T09:59:52.000Z</time>
      </trkpt>
      <trkpt lat="45.16612" lon="5.28115">
        <ele>653.40002441406</ele>
        <time>2020-03-01T09:59:53.000Z</time>
      </trkpt>
      <trkpt lat="45.16609" lon="5.28116">
        <ele>653</ele>
        <time>2020-03-01T09:59:54.000Z</time>
      </trkpt>
      <trkpt lat="45.16606" lon="5.28118">
        <ele>652.79998779297</ele>
        <time>2020-03-01T09:59:55.000Z</time>
      </trkpt>
      <trkpt lat="45.16603" lon="5.2812">
        <ele>652.40002441406</ele>
        <time>2020-03-01T09:59:56.000Z</time>
      </trkpt>
      <trkpt lat="45.166" lon="5.28122">
        <ele>652</ele>
        <time>2020-03-01T09:59:57.000Z</time>
      </trkpt>
      <trkpt lat="45.16598" lon="5.28123">
        <ele>651.79998779297</ele>
        <time>2020-03-01T09:59:58.000Z</time>
      </trkpt>
      <trkpt lat="45.16595" lon="5.28125">
        <ele>651.40002441406</ele>
        <time>2020-03-01T09:59:59.000Z</time>
      </trkpt>
      <trkpt lat="45.16593" lon="5.28127">
        <ele>651</ele>
        <time>2020-03-01T10:00:00.000Z</time>
      </trkpt>
      <trkpt lat="45.1659" lon="5.28128">
        <ele>650.59997558594</ele>
        <time>2020-03-01T10:00:01.000Z</time>
      </trkpt>
      <trkpt lat="45.16587" lon="5.2813">
        <ele>650.40002441406</ele>
        <time>2020-03-01T10:00:02.000Z</time>
      </trkpt>
      <trkpt lat="45.16584" lon="5.28132">
        <ele>650.20001220703</ele>
        <time>2020-03-01T10:00:03.000Z</time>
      </trkpt>
      <trkpt lat="45.16581" lon="5.28135">
        <ele>650</ele>
        <time>2020-03-01T10:00:04.000Z</time>
      </trkpt>
      <trkpt lat="45.16578" lon="5.28136">
        <ele>649.59997558594</ele>
        <time>2020-03-01T10:00:05.000Z</time>
      </trkpt>
      <trkpt lat="45.16575" lon="5.28138">
        <ele>649.40002441406</ele>
        <time>2020-03-01T10:00:06.000Z</time>
      </trkpt>
      <trkpt lat="45.16572" lon="5.28138">
        <ele>649.20001220703</ele>
        <time>2020-03-01T10:00:07.000Z</time>
      </trkpt>
      <trkpt lat="45.16569" lon="5.28139">
        <ele>649</ele>
        <time>2020-03-01T10:00:08.000Z</time>
      </trkpt>
      <trkpt lat="45.16566" lon="5.28139">
        <ele>648.59997558594</ele>
        <time>2020-03-01T10:00:09.000Z</time>
      </trkpt>
      <trkpt lat="45.16562" lon="5.28139">
        <ele>648.20001220703</ele>
        <time>2020-03-01T10:00:10.000Z</time>
      </trkpt>
      <trkpt lat="45.1656" lon="5.28139">
        <ele>648</ele>
        <time>2020-03-01T10:00:11.000Z</time>
      </trkpt>
      <trkpt lat="45.16557" lon="5.28138">
        <ele>647.59997558594</ele>
        <time>2020-03-01T10:00:12.000Z</time>
      </trkpt>
      <trkpt lat="45.16554" lon="5.28137">
        <ele>647.40002441406</ele>
        <time>2020-03-01T10:00:13.000Z</time>
      </trkpt>
      <trkpt lat="45.16551" lon="5.28137">
        <ele>646.79998779297</ele>
        <time>2020-03-01T10:00:14.000Z</time>
      </trkpt>
      <trkpt lat="45.16548" lon="5.28136">
        <ele>646.40002441406</ele>
        <time>2020-03-01T10:00:15.000Z</time>
      </trkpt>
      <trkpt lat="45.16545" lon="5.28136">
        <ele>646</ele>
        <time>2020-03-01T10:00:16.000Z</time>
      </trkpt>
      <trkpt lat="45.16542" lon="5.28135">
        <ele>645.79998779297</ele>
        <time>2020-03-01T10:00:17.000Z</time>
      </trkpt>
      <trkpt lat="45.16539" lon="5.28134">
        <ele>645.59997558594</ele>
        <time>2020-03-01T10:00:18.000Z</time>
      </trkpt>
      <trkpt lat="45.16535" lon="5.28133">
        <ele>645.20001220703</ele>
        <time>2020-03-01T10:00:19.000Z</time>
      </trkpt>
      <trkpt lat="45.16532" lon="5.28132">
        <ele>645</ele>
        <time>2020-03-01T10:00:20.000Z</time>
      </trkpt>
      <trkpt lat="45.16528" lon="5.28132">
        <ele>644.79998779297</ele>
        <time>2020-03-01T10:00:21.000Z</time>
      </trkpt>
      <trkpt lat="45.16525" lon="5.28132">
        <ele>644.40002441406</ele>
        <time>2020-03-01T10:00:22.000Z</time>
      </trkpt>
      <trkpt lat="45.16522" lon="5.28132">
        <ele>644.20001220703</ele>
        <time>2020-03-01T10:00:23.000Z</time>
      </trkpt>
      <trkpt lat="45.16519" lon="5.28133">
        <ele>644</ele>
        <time>2020-03-01T10:00:24.000Z</time>
      </trkpt>
      <trkpt lat="45.16516" lon="5.28134">
        <ele>643.59997558594</ele>
        <time>2020-03-01T10:00:25.000Z</time>
      </trkpt>
      <trkpt lat="45.16513" lon="5.28135">
        <ele>643.20001220703</ele>
        <time>2020-03-01T10:00:26.000Z</time>
      </trkpt>
      <trkpt lat="45.16509" lon="5.28135">
        <ele>643</ele>
        <time>2020-03-01T10:00:27.000Z</time>
      </trkpt>
      <trkpt lat="45.16506" lon="5.28136">
        <ele>642.59997558594</ele>
        <time>2020-03-01T10:00:28.000Z</time>
      </trkpt>
      <trkpt lat="45.16504" lon="5.28138">
        <ele>642.20001220703</ele>
        <time>2020-03-01T10:00:29.000Z</time>
      </trkpt>
      <trkpt lat="45.16501" lon="5.28139">
        <ele>642</ele>
        <time>2020-03-01T10:00:30.000Z</time>
      </trkpt>
      <trkpt lat="45.16499" lon="5.28141">
        <ele>642</ele>
        <time>2020-03-01T10:00:31.000Z</time>
      </trkpt>
      <trkpt lat="45.16496" lon="5.28142">
        <ele>642</ele>
        <time>2020-03-01T10:00:32.000Z</time>
      </trkpt>
      <trkpt lat="45.16494" lon="5.28143">
        <ele>641.59997558594</ele>
        <time>2020-03-01T10:00:33.000Z</time>
      </trkpt>
      <trkpt lat="45.16492" lon="5.28143">
        <ele>641.40002441406</ele>
        <time>2020-03-01T10:00:34.000Z</time>
      </trkpt>
      <trkpt lat="45.16489" lon="5.28144">
        <ele>641.20001220703</ele>
        <time>2020-03-01T10:00:35.000Z</time>
      </trkpt>
      <trkpt lat="45.16486" lon="5.28146">
        <ele>640.79998779297</ele>
        <time>2020-03-01T10:00:36.000Z</time>
      </trkpt>
      <trkpt lat="45.16484" lon="5.28147">
        <ele>640.40002441406</ele>
        <time>2020-03-01T10:00:37.000Z</time>
      </trkpt>
      <trkpt lat="45.16481" lon="5.28149">
        <ele>640</ele>
        <time>2020-03-01T10:00:38.000Z</time>
      </trkpt>
      <trkpt lat="45.16478" lon="5.28151">
        <ele>639.79998779297</ele>
        <time>2020-03-01T10:00:39.000Z</time>
      </trkpt>
      <trkpt lat="45.16475" lon="5.28152">
        <ele>639.59997558594</ele>
        <time>2020-03-01T10:00:40.000Z</time>
      </trkpt>
      <trkpt lat="45.16473" lon="5.28154">
        <ele>639.40002441406</ele>
        <time>2020-03-01T10:00:41.000Z</time>
      </trkpt>
      <trkpt lat="45.1647" lon="5.28155">
        <ele>639</ele>
        <time>2020-03-01T10:00:42.000Z</time>
      </trkpt>
      <trkpt lat="45.16467" lon="5.28156">
        <ele>638.79998779297</ele>
        <time>2020-03-01T10:00:43.000Z</time>
      </trkpt>
      <trkpt lat="45.16464" lon="5.28158">
        <ele>638.59997558594</ele>
        <time>2020-03-01T10:00:44.000Z</time>
      </trkpt>
      <trkpt lat="45.16462" lon="5.2816">
        <ele>638.40002441406</ele>
        <time>2020-03-01T10:00:45.000Z</time>
      </trkpt>
      <trkpt lat="45.1646" lon="5.28162">
        <ele>638.40002441406</ele>
        <time>2020-03-01T10:00:46.000Z</time>
      </trkpt>
      <trkpt lat="45.16457" lon="5.28163">
        <ele>638.40002441406</ele>
        <time>2020-03-01T10:00:47.000Z</time>
      </trkpt>
      <trkpt lat="45.16455" lon="5.28165">
        <ele>638.20001220703</ele>
        <time>2020-03-01T10:00:48.000Z</time>
      </trkpt>
      <trkpt lat="45.16452" lon="5.28167">
        <ele>638.20001220703</ele>
        <time>2020-03-01T10:00:49.000Z</time>
      </trkpt>
      <trkpt lat="45.1645" lon="5.28169">
        <ele>638.20001220703</ele>
        <time>2020-03-01T10:00:50.000Z</time>
      </trkpt>
      <trkpt lat="45.16447" lon="5.28171">
        <ele>638.20001220703</ele>
        <time>2020-03-01T10:00:51.000Z</time>
      </trkpt>
      <trkpt lat="45.16444" lon="5.28173">
        <ele>638.20001220703</ele>
        <time>2020-03-01T10:00:52.000Z</time>
      </trkpt>
      <trkpt lat="45.16441" lon="5.28175">
        <ele>638</ele>
        <time>2020-03-01T10:00:53.000Z</time>
      </trkpt>
      <trkpt lat="45.16438" lon="5.28178">
        <ele>637.79998779297</ele>
        <time>2020-03-01T10:00:54.000Z</time>
      </trkpt>
      <trkpt lat="45.16437" lon="5.28179">
        <ele>637.59997558594</ele>
        <time>2020-03-01T10:00:55.000Z</time>
      </trkpt>
      <trkpt lat="45.16435" lon="5.2818">
        <ele>637.40002441406</ele>
        <time>2020-03-01T10:00:56.000Z</time>
      </trkpt>
      <trkpt lat="45.16433" lon="5.28183">
        <ele>637.20001220703</ele>
        <time>2020-03-01T10:00:57.000Z</time>
      </trkpt>
      <trkpt lat="45.16431" lon="5.28185">
        <ele>637</ele>
        <time>2020-03-01T10:00:58.000Z</time>
      </trkpt>
      <trkpt lat="45.16429" lon="5.28186">
        <ele>636.59997558594</ele>
        <time>2020-03-01T10:00:59.000Z</time>
      </trkpt>
      <trkpt lat="45.16427" lon="5.28188">
        <ele>636.40002441406</ele>
        <time>2020-03-01T10:01:00.000Z</time>
      </trkpt>
      <trkpt lat="45.16425" lon="5.2819">
        <ele>636.40002441406</ele>
        <time>2020-03-01T10:01:01.000Z</time>
      </trkpt>
      <trkpt lat="45.16423" lon="5.28193">
        <ele>636.40002441406</ele>
        <time>2020-03-01T10:01:02.000Z</time>
      </trkpt>
      <trkpt lat="45.1642" lon="5.28195">
        <ele>636.20001220703</ele>
        <time>2020-03-01T10:01:03.000Z</time>
      </trkpt>
      <trkpt lat="45.16418" lon="5.28197">
        <ele>636</ele>
        <time>2020-03-01T10:01:04.000Z</time>
      </trkpt>
      <trkpt lat="45.16416" lon="5.282">
        <ele>635.79998779297</ele>
        <time>2020-03-01T10:01:05.000Z</time>
      </trkpt>
      <trkpt lat="45.16414" lon="5.28203">
        <ele>635.59997558594</ele>
        <time>2020-03-01T10:01:06.000Z</time>
      </trkpt>
      <trkpt lat="45.16412" lon="5.28204">
        <ele>635.59997558594</ele>
        <time>2020-03-01T10:01:07.000Z</time>
      </trkpt>
      <trkpt lat="45.1641" lon="5.28207">
        <ele>635.40002441406</ele>
        <time>2020-03-01T10:01:08.000Z</time>
      </trkpt>
      <trkpt lat="45.16408" lon="5.28209">
        <ele>635</ele>
        <time>2020-03-01T10:01:09.000Z</time>
      </trkpt>
      <trkpt lat="45.16406" lon="5.28212">
        <ele>634.59997558594</ele>
        <time>2020-03-01T10:01:10.000Z</time>
      </trkpt>
      <trkpt lat="45.16404" lon="5.28215">
        <ele>634.20001220703</ele>
        <time>2020-03-01T10:01:11.000Z</time>
      </trkpt>
      <trkpt lat="45.16402" lon="5.28217">
        <ele>633.79998779297</ele>
        <time>2020-03-01T10:01:12.000Z</time>
      </trkpt>
      <trkpt lat="45.164" lon="5.2822">
        <ele>633.59997558594</ele>
        <time>2020-03-01T10:01:13.000Z</time>
      </trkpt>
      <trkpt lat="45.16398" lon="5.28223">
        <ele>633.20001220703</ele>
        <time>2020-03-01T10:01:14.000Z</time>
      </trkpt>
      <trkpt lat="45.16397" lon="5.28226">
        <ele>632.79998779297</ele>
        <time>2020-03-01T10:01:15.000Z</time>
      </trkpt>
      <trkpt lat="45.16396" lon="5.28228">
        <ele>632.40002441406</ele>
        <time>2020-03-01T10:01:16.000Z</time>
      </trkpt>
      <trkpt lat="45.16395" lon="5.28232">
        <ele>632</ele>
        <time>2020-03-01T10:01:17.000Z</time>
      </trkpt>
      <trkpt lat="45.16394" lon="5.28235">
        <ele>631.40002441406</ele>
        <time>2020-03-01T10:01:18.000Z</time>
      </trkpt>
      <trkpt lat="45.16394" lon="5.28239">
        <ele>631</ele>
        <time>2020-03-01T10:01:19.000Z</time>
      </trkpt>
      <trkpt lat="45.16394" lon="5.28243">
        <ele>630.59997558594</ele>
        <time>2020-03-01T10:01:20.000Z</time>
      </trkpt>
      <trkpt lat="45.16395" lon="5.28247">
        <ele>630.20001220703</ele>
        <time>2020-03-01T10:01:21.000Z</time>
      </trkpt>
      <trkpt lat="45.16396" lon="5.2825">
        <ele>629.79998779297</ele>
        <time>2020-03-01T10:01:22.000Z</time>
      </trkpt>
      <trkpt lat="45.16397" lon="5.28253">
        <ele>629.40002441406</ele>
        <time>2020-03-01T10:01:23.000Z</time>
      </trkpt>
      <trkpt lat="45.16397" lon="5.28257">
        <ele>629</ele>
        <time>2020-03-01T10:01:24.000Z</time>
      </trkpt>
      <trkpt lat="45.16398" lon="5.2826">
        <ele>628.79998779297</ele>
        <time>2020-03-01T10:01:25.000Z</time>
      </trkpt>
      <trkpt lat="45.16399" lon="5.28263">
        <ele>628.59997558594</ele>
        <time>2020-03-01T10:01:26.000Z</time>
      </trkpt>
      <trkpt lat="45.16399" lon="5.28266">
        <ele>628.40002441406</ele>
        <time>2020-03-01T10:01:27.000Z</time>
      </trkpt>
      <trkpt lat="45.164" lon="5.28269">
        <ele>628</ele>
        <time>2020-03-01T10:01:28.000Z</time>
      </trkpt>
      <trkpt lat="45.164" lon="5.28271">
        <ele>627.40002441406</ele>
        <time>2020-03-01T10:01:29.000Z</time>
      </trkpt>
      <trkpt lat="45.16401" lon="5.28273">
        <ele>626.79998779297</ele>
        <time>2020-03-01T10:01:30.000Z</time>
      </trkpt>
      <trkpt lat="45.16402" lon="5.28275">
        <ele>626.40002441406</ele>
        <time>2020-03-01T10:01:31.000Z</time>
      </trkpt>
      <trkpt lat="45.16402" lon="5.28276">
        <ele>626.20001220703</ele>
        <time>2020-03-01T10:01:32.000Z</time>
      </trkpt>
      <trkpt lat="45.16404" lon="5.28278">
        <ele>625.79998779297</ele>
        <time>2020-03-01T10:01:33.000Z</time>
      </trkpt>
      <trkpt lat="45.16406" lon="5.28281">
        <ele>625.59997558594</ele>
        <time>2020-03-01T10:01:34.000Z</time>
      </trkpt>
      <trkpt lat="45.16406" lon="5.28285">
        <ele>625.40002441406</ele>
        <time>2020-03-01T10:01:35.000Z</time>
      </trkpt>
      <trkpt lat="45.16405" lon="5.28287">
        <ele>625.20001220703</ele>
        <time>2020-03-01T10:01:36.000Z</time>
      </trkpt>
      <trkpt lat="45.16405" lon="5.28294">
        <ele>624.79998779297</ele>
        <time>2020-03-01T10:01:37.000Z</time>
      </trkpt>
      <trkpt lat="45.16404" lon="5.28301">
        <ele>624.40002441406</ele>
        <time>2020-03-01T10:01:38.000Z</time>
      </trkpt>
      <trkpt lat="45.16403" lon="5.28302">
        <ele>624</ele>
        <time>2020-03-01T10:01:39.000Z</time>
      </trkpt>
      <trkpt lat="45.16401" lon="5.28301">
        <ele>623.59997558594</ele>
        <time>2020-03-01T10:01:40.000Z</time>
      </trkpt>
      <trkpt lat="45.16399" lon="5.28301">
        <ele>623.40002441406</ele>
        <time>2020-03-01T10:01:41.000Z</time>
      </trkpt>
      <trkpt lat="45.16397" lon="5.28299">
        <ele>623.20001220703</ele>
        <time>2020-03-01T10:01:42.000Z</time>
      </trkpt>
      <trkpt lat="45.16395" lon="5.28297">
        <ele>623</ele>
        <time>2020-03-01T10:01:43.000Z</time>
      </trkpt>
      <trkpt lat="45.16392" lon="5.28296">
        <ele>622.79998779297</ele>
        <time>2020-03-01T10:01:44.000Z</time>
      </trkpt>
      <trkpt lat="45.1639" lon="5.28294">
        <ele>622.59997558594</ele>
        <time>2020-03-01T10:01:45.000Z</time>
      </trkpt>
      <trkpt lat="45.16388" lon="5.28293">
        <ele>622.59997558594</ele>
        <time>2020-03-01T10:01:46.000Z</time>
      </trkpt>
      <trkpt lat="45.16385" lon="5.28291">
        <ele>622.59997558594</ele>
        <time>2020-03-01T10:01:47.000Z</time>
      </trkpt>
      <trkpt lat="45.16383" lon="5.28289">
        <ele>622.20001220703</ele>
        <time>2020-03-01T10:01:48.000Z</time>
      </trkpt>
      <trkpt lat="45.16381" lon="5.28287">
        <ele>622</ele>
        <time>2020-03-01T10:01:49.000Z</time>
      </trkpt>
      <trkpt lat="45.16379" lon="5.28286">
        <ele>621.79998779297</ele>
        <time>2020-03-01T10:01:50.000Z</time>
      </trkpt>
      <trkpt lat="45.16377" lon="5.28284">
        <ele>621.59997558594</ele>
        <time>2020-03-01T10:01:51.000Z</time>
      </trkpt>
      <trkpt lat="45.16376" lon="5.28282">
        <ele>621.59997558594</ele>
        <time>2020-03-01T10:01:52.000Z</time>
      </trkpt>
      <trkpt lat="45.16374" lon="5.28281">
        <ele>621.40002441406</ele>
        <time>2020-03-01T10:01:53.000Z</time>
      </trkpt>
      <trkpt lat="45.16372" lon="5.28279">
        <ele>621.20001220703</ele>
        <time>2020-03-01T10:01:54.000Z</time>
      </trkpt>
      <trkpt lat="45.1637" lon="5.28278">
        <ele>621.20001220703</ele>
        <time>2020-03-01T10:01:55.000Z</time>
      </trkpt>
      <trkpt lat="45.16369" lon="5.28278">
        <ele>621</ele>
        <time>2020-03-01T10:01:56.000Z</time>
      </trkpt>
      <trkpt lat="45.16367" lon="5.28283">
        <ele>620.59997558594</ele>
        <time>2020-03-01T10:01:57.000Z</time>
      </trkpt>
      <trkpt lat="45.16365" lon="5.28289">
        <ele>620.40002441406</ele>
        <time>2020-03-01T10:01:58.000Z</time>
      </trkpt>
      <trkpt lat="45.16365" lon="5.28291">
        <ele>620</ele>
        <time>2020-03-01T10:01:59.000Z</time>
      </trkpt>
      <trkpt lat="45.16366" lon="5.28294">
        <ele>619.59997558594</ele>
        <time>2020-03-01T10:02:00.000Z</time>
      </trkpt>
      <trkpt lat="45.16367" lon="5.28296">
        <ele>619.20001220703</ele>
        <time>2020-03-01T10:02:01.000Z</time>
      </trkpt>
      <trkpt lat="45.16368" lon="5.28298">
        <ele>618.79998779297</ele>
        <time>2020-03-01T10:02:02.000Z</time>
      </trkpt>
      <trkpt lat="45.1637" lon="5.28299">
        <ele>618.40002441406</ele>
        <time>2020-03-01T10:02:03.000Z</time>
      </trkpt>
      <trkpt lat="45.16371" lon="5.28301">
        <ele>618.20001220703</ele>
        <time>2020-03-01T10:02:04.000Z</time>
      </trkpt>
      <trkpt lat="45.16372" lon="5.28302">
        <ele>617.79998779297</ele>
        <time>2020-03-01T10:02:05.000Z</time>
      </trkpt>
      <trkpt lat="45.16373" lon="5.28304">
        <ele>617.59997558594</ele>
        <time>2020-03-01T10:02:06.000Z</time>
      </trkpt>
      <trkpt lat="45.16373" lon="5.28307">
        <ele>617.40002441406</ele>
        <time>2020-03-01T10:02:07.000Z</time>
      </trkpt>
      <trkpt lat="45.16375" lon="5.28309">
        <ele>617</ele>
        <time>2020-03-01T10:02:08.000Z</time>
      </trkpt>
      <trkpt lat="45.16378" lon="5.28311">
        <ele>616.79998779297</ele>
        <time>2020-03-01T10:02:09.000Z</time>
      </trkpt>
      <trkpt lat="45.1638" lon="5.28314">
        <ele>616.59997558594</ele>
        <time>2020-03-01T10:02:10.000Z</time>
      </trkpt>
      <trkpt lat="45.16381" lon="5.28316">
        <ele>616.20001220703</ele>
        <time>2020-03-01T10:02:11.000Z</time>
      </trkpt>
      <trkpt lat="45.16382" lon="5.28318">
        <ele>616</ele>
        <time>2020-03-01T10:02:12.000Z</time>
      </trkpt>
      <trkpt lat="45.16383" lon="5.28319">
        <ele>615.40002441406</ele>
        <time>2020-03-01T10:02:13.000Z</time>
      </trkpt>
      <trkpt lat="45.16385" lon="5.28321">
        <ele>615</ele>
        <time>2020-03-01T10:02:14.000Z</time>
      </trkpt>
      <trkpt lat="45.16386" lon="5.28323">
        <ele>614.79998779297</ele>
        <time>2020-03-01T10:02:15.000Z</time>
      </trkpt>
      <trkpt lat="45.16387" lon="5.28325">
        <ele>614.40002441406</ele>
        <time>2020-03-01T10:02:16.000Z</time>
      </trkpt>
      <trkpt lat="45.16388" lon="5.28326">
        <ele>614.20001220703</ele>
        <time>2020-03-01T10:02:17.000Z</time>
      </trkpt>
      <trkpt lat="45.16389" lon="5.28328">
        <ele>613.59997558594</ele>
        <time>2020-03-01T10:02:18.000Z</time>
      </trkpt>
      <trkpt lat="45.1639" lon="5.2833">
        <ele>613.20001220703</ele>
        <time>2020-03-01T10:02:19.000Z</time>
      </trkpt>
      <trkpt lat="45.16391" lon="5.28332">
        <ele>612.79998779297</ele>
        <time>2020-03-01T10:02:20.000Z</time>
      </trkpt>
      <trkpt lat="45.16393" lon="5.28335">
        <ele>612.20001220703</ele>
        <time>2020-03-01T10:02:21.000Z</time>
      </trkpt>
      <trkpt lat="45.16396" lon="5.28336">
        <ele>611.59997558594</ele>
        <time>2020-03-01T10:02:22.000Z</time>
      </trkpt>
      <trkpt lat="45.16399" lon="5.28338">
        <ele>611</ele>
        <time>2020-03-01T10:02:23.000Z</time>
      </trkpt>
      <trkpt lat="45.16401" lon="5.2834">
        <ele>610.59997558594</ele>
        <time>2020-03-01T10:02:24.000Z</time>
      </trkpt>
      <trkpt lat="45.16404" lon="5.28341">
        <ele>610.20001220703</ele>
        <time>2020-03-01T10:02:25.000Z</time>
      </trkpt>
      <trkpt lat="45.16406" lon="5.28343">
        <ele>610</ele>
        <time>2020-03-01T10:02:26.000Z</time>
      </trkpt>
      <trkpt lat="45.16408" lon="5.28345">
        <ele>609.40002441406</ele>
        <time>2020-03-01T10:02:27.000Z</time>
      </trkpt>
      <trkpt lat="45.1641" lon="5.28347">
        <ele>609</ele>
        <time>2020-03-01T10:02:28.000Z</time>
      </trkpt>
      <trkpt lat="45.16414" lon="5.2835">
        <ele>608.59997558594</ele>
        <time>2020-03-01T10:02:29.000Z</time>
      </trkpt>
      <trkpt lat="45.16419" lon="5.28351">
        <ele>608.20001220703</ele>
        <time>2020-03-01T10:02:30.000Z</time>
      </trkpt>
      <trkpt lat="45.16421" lon="5.28354">
        <ele>608</ele>
        <time>2020-03-01T10:02:31.000Z</time>
      </trkpt>
      <trkpt lat="45.16424" lon="5.28356">
        <ele>607.79998779297</ele>
        <time>2020-03-01T10:02:32.000Z</time>
      </trkpt>
      <trkpt lat="45.16427" lon="5.28359">
        <ele>607.40002441406</ele>
        <time>2020-03-01T10:02:33.000Z</time>
      </trkpt>
      <trkpt lat="45.16429" lon="5.28363">
        <ele>607</ele>
        <time>2020-03-01T10:02:34.000Z</time>
      </trkpt>
      <trkpt lat="45.16429" lon="5.28371">
        <ele>606.59997558594</ele>
        <time>2020-03-01T10:02:35.000Z</time>
      </trkpt>
      <trkpt lat="45.1643" lon="5.28378">
        <ele>606</ele>
        <time>2020-03-01T10:02:36.000Z</time>
      </trkpt>
      <trkpt lat="45.16431" lon="5.28381">
        <ele>605.59997558594</ele>
        <time>2020-03-01T10:02:37.000Z</time>
      </trkpt>
      <trkpt lat="45.16433" lon="5.28384">
        <ele>605.40002441406</ele>
        <time>2020-03-01T10:02:38.000Z</time>
      </trkpt>
      <trkpt lat="45.16435" lon="5.28386">
        <ele>604.79998779297</ele>
        <time>2020-03-01T10:02:39.000Z</time>
      </trkpt>
      <trkpt lat="45.16436" lon="5.28388">
        <ele>604.40002441406</ele>
        <time>2020-03-01T10:02:40.000Z</time>
      </trkpt>
      <trkpt lat="45.16438" lon="5.2839">
        <ele>603.79998779297</ele>
        <time>2020-03-01T10:02:41.000Z</time>
      </trkpt>
      <trkpt lat="45.16443" lon="5.2839">
        <ele>603.20001220703</ele>
        <time>2020-03-01T10:02:42.000Z</time>
      </trkpt>
      <trkpt lat="45.16448" lon="5.2839">
        <ele>602.59997558594</ele>
        <time>2020-03-01T10:02:43.000Z</time>
      </trkpt>
      <trkpt lat="45.16453" lon="5.2839">
        <ele>601.79998779297</ele>
        <time>2020-03-01T10:02:44.000Z</time>
      </trkpt>
      <trkpt lat="45.16458" lon="5.28392">
        <ele>601.20001220703</ele>
        <time>2020-03-01T10:02:45.000Z</time>
      </trkpt>
      <trkpt lat="45.16462" lon="5.28394">
        <ele>600.79998779297</ele>
        <time>2020-03-01T10:02:46.000Z</time>
      </trkpt>
      <trkpt lat="45.16466" lon="5.28396">
        <ele>600.79998779297</ele>
        <time>2020-03-01T10:02:47.000Z</time>
      </trkpt>
      <trkpt lat="45.16468" lon="5.284">
        <ele>600.59997558594</ele>
        <time>2020-03-01T10:02:48.000Z</time>
      </trkpt>
      <trkpt lat="45.16468" lon="5.28404">
        <ele>600.40002441406</ele>
        <time>2020-03-01T10:02:49.000Z</time>
      </trkpt>
      <trkpt lat="45.16467" lon="5.28408">
        <ele>600.20001220703</ele>
        <time>2020-03-01T10:02:50.000Z</time>
      </trkpt>
      <trkpt lat="45.16465" lon="5.28411">
        <ele>599.79998779297</ele>
        <time>2020-03-01T10:02:51.000Z</time>
      </trkpt>
      <trkpt lat="45.16464" lon="5.28414">
        <ele>599.40002441406</ele>
        <time>2020-03-01T10:02:52.000Z</time>
      </trkpt>
      <trkpt lat="45.16462" lon="5.28418">
        <ele>598.79998779297</ele>
        <time>2020-03-01T10:02:53.000Z</time>
      </trkpt>
      <trkpt lat="45.16461" lon="5.28421">
        <ele>598.59997558594</ele>
        <time>2020-03-01T10:02:54.000Z</time>
      </trkpt>
      <trkpt lat="45.1646" lon="5.28425">
        <ele>598.20001220703</ele>
        <time>2020-03-01T10:02:55.000Z</time>
      </trkpt>
      <trkpt lat="45.16459" lon="5.28429">
        <ele>598.20001220703</ele>
        <time>2020-03-01T10:02:56.000Z</time>
      </trkpt>
      <trkpt lat="45.16458" lon="5.28432">
        <ele>597.79998779297</ele>
        <time>2020-03-01T10:02:57.000Z</time>
      </trkpt>
      <trkpt lat="45.16457" lon="5.28433">
        <ele>597.40002441406</ele>
        <time>2020-03-01T10:02:58.000Z</time>
      </trkpt>
      <trkpt lat="45.16458" lon="5.28433">
        <ele>597</ele>
        <time>2020-03-01T10:02:59.000Z</time>
      </trkpt>
      <trkpt lat="45.16458" lon="5.28436">
        <ele>597</ele>
        <time>2020-03-01T10:03:00.000Z</time>
      </trkpt>
      <trkpt lat="45.16457" lon="5.2844">
        <ele>596.79998779297</ele>
        <time>2020-03-01T10:03:01.000Z</time>
      </trkpt>
      <trkpt lat="45.16456" lon="5.28444">
        <ele>596.59997558594</ele>
        <time>2020-03-01T10:03:02.000Z</time>
      </trkpt>
      <trkpt lat="45.16454" lon="5.28448">
        <ele>596.59997558594</ele>
        <time>2020-03-01T10:03:03.000Z</time>
      </trkpt>
      <trkpt lat="45.16453" lon="5.28452">
        <ele>596.59997558594</ele>
        <time>2020-03-01T10:03:04.000Z</time>
      </trkpt>
      <trkpt lat="45.16453" lon="5.28456">
        <ele>596.20001220703</ele>
        <time>2020-03-01T10:03:05.000Z</time>
      </trkpt>
      <trkpt lat="45.16452" lon="5.2846">
        <ele>595.59997558594</ele>
        <time>2020-03-01T10:03:06.000Z</time>
      </trkpt>
      <trkpt lat="45.16451" lon="5.28465">
        <ele>595.20001220703</ele>
        <time>2020-03-01T10:03:07.000Z</time>
      </trkpt>
      <trkpt lat="45.16451" lon="5.2847">
        <ele>595</ele>
        <time>2020-03-01T10:03:08.000Z</time>
      </trkpt>
      <trkpt lat="45.1645" lon="5.28474">
        <ele>595</ele>
        <time>2020-03-01T10:03:09.000Z</time>
      </trkpt>
      <trkpt lat="45.16448" lon="5.28479">
        <ele>594.79998779297</ele>
        <time>2020-03-01T10:03:10.000Z</time>
      </trkpt>
      <trkpt lat="45.16447" lon="5.28483">
        <ele>594.79998779297</ele>
        <time>2020-03-01T10:03:11.000Z</time>
      </trkpt>
      <trkpt lat="45.16446" lon="5.28488">
        <ele>594.59997558594</ele>
        <time>2020-03-01T10:03:12.000Z</time>
      </trkpt>
      <trkpt lat="45.16445" lon="5.28492">
        <ele>594.40002441406</ele>
        <time>2020-03-01T10:03:13.000Z</time>
      </trkpt>
      <trkpt lat="45.16443" lon="5.28495">
        <ele>594</ele>
        <time>2020-03-01T10:03:14.000Z</time>
      </trkpt>
      <trkpt lat="45.16442" lon="5.28499">
        <ele>593.79998779297</ele>
        <time>2020-03-01T10:03:15.000Z</time>
      </trkpt>
      <trkpt lat="45.16441" lon="5.28503">
        <ele>593.40002441406</ele>
        <time>2020-03-01T10:03:16.000Z</time>
      </trkpt>
      <trkpt lat="45.16439" lon="5.28506">
        <ele>593.20001220703</ele>
        <time>2020-03-01T10:03:17.000Z</time>
      </trkpt>
      <trkpt lat="45.16437" lon="5.2851">
        <ele>593.20001220703</ele>
        <time>2020-03-01T10:03:18.000Z</time>
      </trkpt>
      <trkpt lat="45.16435" lon="5.28513">
        <ele>593</ele>
        <time>2020-03-01T10:03:19.000Z</time>
      </trkpt>
      <trkpt lat="45.16434" lon="5.28516">
        <ele>593</ele>
        <time>2020-03-01T10:03:20.000Z</time>
      </trkpt>
      <trkpt lat="45.16433" lon="5.2852">
        <ele>593</ele>
        <time>2020-03-01T10:03:21.000Z</time>
      </trkpt>
      <trkpt lat="45.16432" lon="5.28524">
        <ele>593</ele>
        <time>2020-03-01T10:03:22.000Z</time>
      </trkpt>
      <trkpt lat="45.16431" lon="5.28527">
        <ele>593</ele>
        <time>2020-03-01T10:03:23.000Z</time>
      </trkpt>
      <trkpt lat="45.1643" lon="5.28531">
        <ele>592.79998779297</ele>
        <time>2020-03-01T10:03:24.000Z</time>
      </trkpt>
      <trkpt lat="45.16428" lon="5.28534">
        <ele>592.79998779297</ele>
        <time>2020-03-01T10:03:25.000Z</time>
      </trkpt>
      <trkpt lat="45.16427" lon="5.28538">
        <ele>592.59997558594</ele>
        <time>2020-03-01T10:03:26.000Z</time>
      </trkpt>
      <trkpt lat="45.16426" lon="5.28541">
        <ele>592.79998779297</ele>
        <time>2020-03-01T10:03:27.000Z</time>
      </trkpt>
      <trkpt lat="45.16426" lon="5.28545">
        <ele>592.59997558594</ele>
        <time>2020-03-01T10:03:28.000Z</time>
      </trkpt>
      <trkpt lat="45.16425" lon="5.28549">
        <ele>592.40002441406</ele>
        <time>2020-03-01T10:03:29.000Z</time>
      </trkpt>
      <trkpt lat="45.16425" lon="5.28554">
        <ele>592.40002441406</ele>
        <time>2020-03-01T10:03:30.000Z</time>
      </trkpt>
      <trkpt lat="45.16424" lon="5.28558">
        <ele>592.40002441406</ele>
        <time>2020-03-01T10:03:31.000Z</time>
      </trkpt>
      <trkpt lat="45.16424" lon="5.28564">
        <ele>592.40002441406</ele>
        <time>2020-03-01T10:03:32.000Z</time>
      </trkpt>
      <trkpt lat="45.16424" lon="5.28568">
        <ele>592.40002441406</ele>
        <time>2020-03-01T10:03:33.000Z</time>
      </trkpt>
      <trkpt lat="45.16423" lon="5.28573">
        <ele>592.40002441406</ele>
        <time>2020-03-01T10:03:34.000Z</time>
      </trkpt>
      <trkpt lat="45.16423" lon="5.28577">
        <ele>592.40002441406</ele>
        <time>2020-03-01T10:03:35.000Z</time>
      </trkpt>
      <trkpt lat="45.16423" lon="5.28582">
        <ele>592.40002441406</ele>
        <time>2020-03-01T10:03:36.000Z</time>
      </trkpt>
      <trkpt lat="45.16423" lon="5.28585">
        <ele>592.40002441406</ele>
        <time>2020-03-01T10:03:37.000Z</time>
      </trkpt>
      <trkpt lat="45.16423" lon="5.28588">
        <ele>592.40002441406</ele>
        <time>2020-03-01T10:03:38.000Z</time>
      </trkpt>
      <trkpt lat="45.16424" lon="5.28592">
        <ele>592.40002441406</ele>
        <time>2020-03-01T10:03:39.000Z</time>
      </trkpt>
      <trkpt lat="45.16424" lon="5.28595">
        <ele>592.40002441406</ele>
        <time>2020-03-01T10:03:40.000Z</time>
      </trkpt>
      <trkpt lat="45.16425" lon="5.28598">
        <ele>592.20001220703</ele>
        <time>2020-03-01T10:03:41.000Z</time>
      </trkpt>
      <trkpt lat="45.16425" lon="5.28601">
        <ele>592.20001220703</ele>
        <time>2020-03-01T10:03:42.000Z</time>
      </trkpt>
      <trkpt lat="45.16426" lon="5.28605">
        <ele>592.20001220703</ele>
        <time>2020-03-01T10:03:43.000Z</time>
      </trkpt>
      <trkpt lat="45.16427" lon="5.28608">
        <ele>592.20001220703</ele>
        <time>2020-03-01T10:03:44.000Z</time>
      </trkpt>
      <trkpt lat="45.16427" lon="5.28611">
        <ele>592.20001220703</ele>
        <time>2020-03-01T10:03:45.000Z</time>
      </trkpt>
      <trkpt lat="45.16428" lon="5.28614">
        <ele>592.20001220703</ele>
        <time>2020-03-01T10:03:46.000Z</time>
      </trkpt>
      <trkpt lat="45.16429" lon="5.28617">
        <ele>592.20001220703</ele>
        <time>2020-03-01T10:03:47.000Z</time>
      </trkpt>
      <trkpt lat="45.16429" lon="5.2862">
        <ele>592.20001220703</ele>
        <time>2020-03-01T10:03:48.000Z</time>
      </trkpt>
      <trkpt lat="45.1643" lon="5.28624">
        <ele>592.20001220703</ele>
        <time>2020-03-01T10:03:49.000Z</time>
      </trkpt>
      <trkpt lat="45.16431" lon="5.28627">
        <ele>592.20001220703</ele>
        <time>2020-03-01T10:03:50.000Z</time>
      </trkpt>
      <trkpt lat="45.16431" lon="5.2863">
        <ele>592.20001220703</ele>
        <time>2020-03-01T10:03:51.000Z</time>
      </trkpt>
      <trkpt lat="45.16432" lon="5.28634">
        <ele>592.20001220703</ele>
        <time>2020-03-01T10:03:52.000Z</time>
      </trkpt>
      <trkpt lat="45.16433" lon="5.28637">
        <ele>592.20001220703</ele>
        <time>2020-03-01T10:03:53.000Z</time>
      </trkpt>
      <trkpt lat="45.16433" lon="5.28641">
        <ele>592.20001220703</ele>
        <time>2020-03-01T10:03:54.000Z</time>
      </trkpt>
      <trkpt lat="45.16435" lon="5.28645">
        <ele>592.20001220703</ele>
        <time>2020-03-01T10:03:55.000Z</time>
      </trkpt>
      <trkpt lat="45.16435" lon="5.28649">
        <ele>592.20001220703</ele>
        <time>2020-03-01T10:03:56.000Z</time>
      </trkpt>
      <trkpt lat="45.16436" lon="5.28653">
        <ele>592</ele>
        <time>2020-03-01T10:03:57.000Z</time>
      </trkpt>
      <trkpt lat="45.16437" lon="5.28656">
        <ele>592</ele>
        <time>2020-03-01T10:03:58.000Z</time>
      </trkpt>
      <trkpt lat="45.16437" lon="5.2866">
        <ele>592</ele>
        <time>2020-03-01T10:03:59.000Z</time>
      </trkpt>
      <trkpt lat="45.16438" lon="5.28664">
        <ele>592</ele>
        <time>2020-03-01T10:04:00.000Z</time>
      </trkpt>
      <trkpt lat="45.16438" lon="5.28667">
        <ele>591.79998779297</ele>
        <time>2020-03-01T10:04:01.000Z</time>
      </trkpt>
      <trkpt lat="45.16439" lon="5.28671">
        <ele>591.79998779297</ele>
        <time>2020-03-01T10:04:02.000Z</time>
      </trkpt>
      <trkpt lat="45.16439" lon="5.28675">
        <ele>591.79998779297</ele>
        <time>2020-03-01T10:04:03.000Z</time>
      </trkpt>
      <trkpt lat="45.16439" lon="5.28679">
        <ele>591.79998779297</ele>
        <time>2020-03-01T10:04:04.000Z</time>
      </trkpt>
      <trkpt lat="45.16439" lon="5.28683">
        <ele>591.79998779297</ele>
        <time>2020-03-01T10:04:05.000Z</time>
      </trkpt>
      <trkpt lat="45.1644" lon="5.28686">
        <ele>592</ele>
        <time>2020-03-01T10:04:06.000Z</time>
      </trkpt>
      <trkpt lat="45.16441" lon="5.2869">
        <ele>592</ele>
        <time>2020-03-01T10:04:07.000Z</time>
      </trkpt>
      <trkpt lat="45.16441" lon="5.28693">
        <ele>592</ele>
        <time>2020-03-01T10:04:08.000Z</time>
      </trkpt>
      <trkpt lat="45.16441" lon="5.28697">
        <ele>592</ele>
        <time>2020-03-01T10:04:09.000Z</time>
      </trkpt>
      <trkpt lat="45.16442" lon="5.28701">
        <ele>592</ele>
        <time>2020-03-01T10:04:10.000Z</time>
      </trkpt>
      <trkpt lat="45.16443" lon="5.28704">
        <ele>592</ele>
        <time>2020-03-01T10:04:11.000Z</time>
      </trkpt>
      <trkpt lat="45.16443" lon="5.28708">
        <ele>592</ele>
        <time>2020-03-01T10:04:12.000Z</time>
      </trkpt>
      <trkpt lat="45.16444" lon="5.28711">
        <ele>592</ele>
        <time>2020-03-01T10:04:13.000Z</time>
      </trkpt>
      <trkpt lat="45.16445" lon="5.28715">
        <ele>591.79998779297</ele>
        <time>2020-03-01T10:04:14.000Z</time>
      </trkpt>
      <trkpt lat="45.16446" lon="5.28719">
        <ele>591.79998779297</ele>
        <time>2020-03-01T10:04:15.000Z</time>
      </trkpt>
      <trkpt lat="45.16447" lon="5.28722">
        <ele>592</ele>
        <time>2020-03-01T10:04:16.000Z</time>
      </trkpt>
      <trkpt lat="45.16447" lon="5.28726">
        <ele>592</ele>
        <time>2020-03-01T10:04:17.000Z</time>
      </trkpt>
      <trkpt lat="45.16448" lon="5.2873">
        <ele>592</ele>
        <time>2020-03-01T10:04:18.000Z</time>
      </trkpt>
      <trkpt lat="45.16449" lon="5.28733">
        <ele>592.20001220703</ele>
        <time>2020-03-01T10:04:19.000Z</time>
      </trkpt>
      <trkpt lat="45.1645" lon="5.28737">
        <ele>592.20001220703</ele>
        <time>2020-03-01T10:04:20.000Z</time>
      </trkpt>
      <trkpt lat="45.16451" lon="5.2874">
        <ele>592.40002441406</ele>
        <time>2020-03-01T10:04:21.000Z</time>
      </trkpt>
      <trkpt lat="45.16452" lon="5.28743">
        <ele>592.40002441406</ele>
        <time>2020-03-01T10:04:22.000Z</time>
      </trkpt>
      <trkpt lat="45.16453" lon="5.28746">
        <ele>592.40002441406</ele>
        <time>2020-03-01T10:04:23.000Z</time>
      </trkpt>
      <trkpt lat="45.16454" lon="5.2875">
        <ele>592.40002441406</ele>
        <time>2020-03-01T10:04:24.000Z</time>
      </trkpt>
      <trkpt lat="45.16455" lon="5.28753">
        <ele>592.40002441406</ele>
        <time>2020-03-01T10:04:25.000Z</time>
      </trkpt>
      <trkpt lat="45.16455" lon="5.28756">
        <ele>592.40002441406</ele>
        <time>2020-03-01T10:04:26.000Z</time>
      </trkpt>
      <trkpt lat="45.16456" lon="5.2876">
        <ele>592.40002441406</ele>
        <time>2020-03-01T10:04:27.000Z</time>
      </trkpt>
      <trkpt lat="45.16457" lon="5.28763">
        <ele>592.40002441406</ele>
        <time>2020-03-01T10:04:28.000Z</time>
      </trkpt>
      <trkpt lat="45.16458" lon="5.28766">
        <ele>592.40002441406</ele>
        <time>2020-03-01T10:04:29.000Z</time>
      </trkpt>
      <trkpt lat="45.1646" lon="5.28769">
        <ele>592.40002441406</ele>
        <time>2020-03-01T10:04:30.000Z</time>
      </trkpt>
      <trkpt lat="45.1646" lon="5.28771">
        <ele>592.59997558594</ele>
        <time>2020-03-01T10:04:31.000Z</time>
      </trkpt>
      <trkpt lat="45.16461" lon="5.28774">
        <ele>592.79998779297</ele>
        <time>2020-03-01T10:04:32.000Z</time>
      </trkpt>
      <trkpt lat="45.16462" lon="5.28777">
        <ele>593</ele>
        <time>2020-03-01T10:04:33.000Z</time>
      </trkpt>
      <trkpt lat="45.16464" lon="5.28779">
        <ele>593</ele>
        <time>2020-03-01T10:04:34.000Z</time>
      </trkpt>
      <trkpt lat="45.16466" lon="5.28782">
        <ele>593</ele>
        <time>2020-03-01T10:04:35.000Z</time>
      </trkpt>
      <trkpt lat="45.16467" lon="5.28785">
        <ele>592.79998779297</ele>
        <time>2020-03-01T10:04:36.000Z</time>
      </trkpt>
      <trkpt lat="45.16469" lon="5.28788">
        <ele>592.79998779297</ele>
        <time>2020-03-01T10:04:37.000Z</time>
      </trkpt>
      <trkpt lat="45.1647" lon="5.2879">
        <ele>592.59997558594</ele>
        <time>2020-03-01T10:04:38.000Z</time>
      </trkpt>
      <trkpt lat="45.1647" lon="5.28793">
        <ele>592.40002441406</ele>
        <time>2020-03-01T10:04:39.000Z</time>
      </trkpt>
      <trkpt lat="45.16471" lon="5.28796">
        <ele>592.40002441406</ele>
        <time>2020-03-01T10:04:40.000Z</time>
      </trkpt>
      <trkpt lat="45.16472" lon="5.28799">
        <ele>592.20001220703</ele>
        <time>2020-03-01T10:04:41.000Z</time>
      </trkpt>
      <trkpt lat="45.16473" lon="5.28802">
        <ele>592.40002441406</ele>
        <time>2020-03-01T10:04:42.000Z</time>
      </trkpt>
      <trkpt lat="45.16474" lon="5.28804">
        <ele>592.40002441406</ele>
        <time>2020-03-01T10:04:43.000Z</time>
      </trkpt>
      <trkpt lat="45.16476" lon="5.28808">
        <ele>592.40002441406</ele>
        <time>2020-03-01T10:04:44.000Z</time>
      </trkpt>
      <trkpt lat="45.16477" lon="5.28811">
        <ele>592.59997558594</ele>
        <time>2020-03-01T10:04:45.000Z</time>
      </trkpt>
      <trkpt lat="45.16477" lon="5.28815">
        <ele>592.79998779297</ele>
        <time>2020-03-01T10:04:46.000Z</time>
      </trkpt>
      <trkpt lat="45.16478" lon="5.28818">
        <ele>593</ele>
        <time>2020-03-01T10:04:47.000Z</time>
      </trkpt>
      <trkpt lat="45.1648" lon="5.2882">
        <ele>593.20001220703</ele>
        <time>2020-03-01T10:04:48.000Z</time>
      </trkpt>
      <trkpt lat="45.16481" lon="5.28823">
        <ele>593.20001220703</ele>
        <time>2020-03-01T10:04:49.000Z</time>
      </trkpt>
      <trkpt lat="45.16482" lon="5.28825">
        <ele>593.20001220703</ele>
        <time>2020-03-01T10:04:50.000Z</time>
      </trkpt>
      <trkpt lat="45.16482" lon="5.28829">
        <ele>593.20001220703</ele>
        <time>2020-03-01T10:04:51.000Z</time>
      </trkpt>
      <trkpt lat="45.16482" lon="5.28832">
        <ele>593</ele>
        <time>2020-03-01T10:04:52.000Z</time>
      </trkpt>
      <trkpt lat="45.16481" lon="5.28835">
        <ele>593</ele>
        <time>2020-03-01T10:04:53.000Z</time>
      </trkpt>
      <trkpt lat="45.16482" lon="5.28838">
        <ele>592.79998779297</ele>
        <time>2020-03-01T10:04:54.000Z</time>
      </trkpt>
      <trkpt lat="45.16484" lon="5.28842">
        <ele>592.79998779297</ele>
        <time>2020-03-01T10:04:55.000Z</time>
      </trkpt>
      <trkpt lat="45.16485" lon="5.28845">
        <ele>592.79998779297</ele>
        <time>2020-03-01T10:04:56.000Z</time>
      </trkpt>
      <trkpt lat="45.16486" lon="5.28847">
        <ele>592.79998779297</ele>
        <time>2020-03-01T10:04:57.000Z</time>
      </trkpt>
      <trkpt lat="45.16487" lon="5.28849">
        <ele>592.79998779297</ele>
        <time>2020-03-01T10:04:58.000Z</time>
      </trkpt>
      <trkpt lat="45.16488" lon="5.28852">
        <ele>592.79998779297</ele>
        <time>2020-03-01T10:04:59.000Z</time>
      </trkpt>
      <trkpt lat="45.16489" lon="5.28854">
        <ele>592.79998779297</ele>
        <time>2020-03-01T10:05:00.000Z</time>
      </trkpt>
      <trkpt lat="45.16489" lon="5.28857">
        <ele>593</ele>
        <time>2020-03-01T10:05:01.000Z</time>
      </trkpt>
      <trkpt lat="45.1649" lon="5.2886">
        <ele>593</ele>
        <time>2020-03-01T10:05:02.000Z</time>
      </trkpt>
      <trkpt lat="45.16491" lon="5.28863">
        <ele>593</ele>
        <time>2020-03-01T10:05:03.000Z</time>
      </trkpt>
      <trkpt lat="45.16491" lon="5.28866">
        <ele>593.20001220703</ele>
        <time>2020-03-01T10:05:04.000Z</time>
      </trkpt>
      <trkpt lat="45.16492" lon="5.28868">
        <ele>593.20001220703</ele>
        <time>2020-03-01T10:05:05.000Z</time>
      </trkpt>
      <trkpt lat="45.16493" lon="5.28871">
        <ele>593.40002441406</ele>
        <time>2020-03-01T10:05:06.000Z</time>
      </trkpt>
      <trkpt lat="45.16494" lon="5.28873">
        <ele>593.20001220703</ele>
        <time>2020-03-01T10:05:07.000Z</time>
      </trkpt>
      <trkpt lat="45.16495" lon="5.28876">
        <ele>593.40002441406</ele>
        <time>2020-03-01T10:05:08.000Z</time>
      </trkpt>
      <trkpt lat="45.16496" lon="5.28879">
        <ele>593.40002441406</ele>
        <time>2020-03-01T10:05:09.000Z</time>
      </trkpt>
      <trkpt lat="45.16497" lon="5.28882">
        <ele>593.40002441406</ele>
        <time>2020-03-01T10:05:10.000Z</time>
      </trkpt>
      <trkpt lat="45.16498" lon="5.28885">
        <ele>593.40002441406</ele>
        <time>2020-03-01T10:05:11.000Z</time>
      </trkpt>
      <trkpt lat="45.16498" lon="5.28888">
        <ele>593.59997558594</ele>
        <time>2020-03-01T10:05:12.000Z</time>
      </trkpt>
      <trkpt lat="45.165" lon="5.28891">
        <ele>593.79998779297</ele>
        <time>2020-03-01T10:05:13.000Z</time>
      </trkpt>
      <trkpt lat="45.16501" lon="5.28894">
        <ele>594.20001220703</ele>
        <time>2020-03-01T10:05:14.000Z</time>
      </trkpt>
      <trkpt lat="45.16501" lon="5.28897">
        <ele>594.20001220703</ele>
        <time>2020-03-01T10:05:15.000Z</time>
      </trkpt>
      <trkpt lat="45.16501" lon="5.289">
        <ele>594.59997558594</ele>
        <time>2020-03-01T10:05:16.000Z</time>
      </trkpt>
      <trkpt lat="45.16501" lon="5.28904">
        <ele>594.79998779297</ele>
        <time>2020-03-01T10:05:17.000Z</time>
      </trkpt>
      <trkpt lat="45.165" lon="5.28907">
        <ele>595</ele>
        <time>2020-03-01T10:05:18.000Z</time>
      </trkpt>
      <trkpt lat="45.165" lon="5.2891">
        <ele>595</ele>
        <time>2020-03-01T10:05:19.000Z</time>
      </trkpt>
      <trkpt lat="45.16499" lon="5.28913">
        <ele>595.40002441406</ele>
        <time>2020-03-01T10:05:20.000Z</time>
      </trkpt>
      <trkpt lat="45.16498" lon="5.28916">
        <ele>595.40002441406</ele>
        <time>2020-03-01T10:05:21.000Z</time>
      </trkpt>
      <trkpt lat="45.16498" lon="5.28919">
        <ele>595.59997558594</ele>
        <time>2020-03-01T10:05:22.000Z</time>
      </trkpt>
      <trkpt lat="45.16497" lon="5.28923">
        <ele>595.59997558594</ele>
        <time>2020-03-01T10:05:23.000Z</time>
      </trkpt>
      <trkpt lat="45.16496" lon="5.28926">
        <ele>595.59997558594</ele>
        <time>2020-03-01T10:05:24.000Z</time>
      </trkpt>
      <trkpt lat="45.16495" lon="5.28929">
        <ele>595.40002441406</ele>
        <time>2020-03-01T10:05:25.000Z</time>
      </trkpt>
      <trkpt lat="45.16495" lon="5.28932">
        <ele>595.59997558594</ele>
        <time>2020-03-01T10:05:26.000Z</time>
      </trkpt>
      <trkpt lat="45.16494" lon="5.28935">
        <ele>595.40002441406</ele>
        <time>2020-03-01T10:05:27.000Z</time>
      </trkpt>
      <trkpt lat="45.16493" lon="5.28938">
        <ele>595.40002441406</ele>
        <time>2020-03-01T10:05:28.000Z</time>
      </trkpt>
      <trkpt lat="45.16492" lon="5.28941">
        <ele>595.20001220703</ele>
        <time>2020-03-01T10:05:29.000Z</time>
      </trkpt>
      <trkpt lat="45.16491" lon="5.28943">
        <ele>595.20001220703</ele>
        <time>2020-03-01T10:05:30.000Z</time>
      </trkpt>
      <trkpt lat="45.1649" lon="5.28946">
        <ele>595.20001220703</ele>
        <time>2020-03-01T10:05:31.000Z</time>
      </trkpt>
      <trkpt lat="45.16488" lon="5.28949">
        <ele>595.40002441406</ele>
        <time>2020-03-01T10:05:32.000Z</time>
      </trkpt>
      <trkpt lat="45.16487" lon="5.28951">
        <ele>595.40002441406</ele>
        <time>2020-03-01T10:05:33.000Z</time>
      </trkpt>
      <trkpt lat="45.16485" lon="5.28954">
        <ele>595.59997558594</ele>
        <time>2020-03-01T10:05:34.000Z</time>
      </trkpt>
      <trkpt lat="45.16484" lon="5.28957">
        <ele>595.59997558594</ele>
        <time>2020-03-01T10:05:35.000Z</time>
      </trkpt>
      <trkpt lat="45.16482" lon="5.2896">
        <ele>596</ele>
        <time>2020-03-01T10:05:36.000Z</time>
      </trkpt>
      <trkpt lat="45.16481" lon="5.28963">
        <ele>596</ele>
        <time>2020-03-01T10:05:37.000Z</time>
      </trkpt>
      <trkpt lat="45.16479" lon="5.28965">
        <ele>596.40002441406</ele>
        <time>2020-03-01T10:05:38.000Z</time>
      </trkpt>
      <trkpt lat="45.16478" lon="5.28968">
        <ele>596.20001220703</ele>
        <time>2020-03-01T10:05:39.000Z</time>
      </trkpt>
      <trkpt lat="45.16478" lon="5.2897">
        <ele>596.59997558594</ele>
        <time>2020-03-01T10:05:40.000Z</time>
      </trkpt>
      <trkpt lat="45.16476" lon="5.28972">
        <ele>596.40002441406</ele>
        <time>2020-03-01T10:05:41.000Z</time>
      </trkpt>
      <trkpt lat="45.16475" lon="5.28974">
        <ele>596.79998779297</ele>
        <time>2020-03-01T10:05:42.000Z</time>
      </trkpt>
      <trkpt lat="45.16474" lon="5.28977">
        <ele>596.59997558594</ele>
        <time>2020-03-01T10:05:43.000Z</time>
      </trkpt>
      <trkpt lat="45.16473" lon="5.28979">
        <ele>596.59997558594</ele>
        <time>2020-03-01T10:05:44.000Z</time>
      </trkpt>
      <trkpt lat="45.16472" lon="5.28982">
        <ele>596.40002441406</ele>
        <time>2020-03-01T10:05:45.000Z</time>
      </trkpt>
      <trkpt lat="45.16471" lon="5.28985">
        <ele>596.40002441406</ele>
        <time>2020-03-01T10:05:46.000Z</time>
      </trkpt>
      <trkpt lat="45.16471" lon="5.28989">
        <ele>596.20001220703</ele>
        <time>2020-03-01T10:05:47.000Z</time>
      </trkpt>
      <trkpt lat="45.1647" lon="5.28992">
        <ele>596.40002441406</ele>
        <time>2020-03-01T10:05:48.000Z</time>
      </trkpt>
      <trkpt lat="45.1647" lon="5.28995">
        <ele>596.20001220703</ele>
        <time>2020-03-01T10:05:49.000Z</time>
      </trkpt>
      <trkpt lat="45.16469" lon="5.28999">
        <ele>596.40002441406</ele>
        <time>2020-03-01T10:05:50.000Z</time>
      </trkpt>
      <trkpt lat="45.16468" lon="5.29002">
        <ele>596.20001220703</ele>
        <time>2020-03-01T10:05:51.000Z</time>
      </trkpt>
      <trkpt lat="45.16468" lon="5.29005">
        <ele>596.40002441406</ele>
        <time>2020-03-01T10:05:52.000Z</time>
      </trkpt>
      <trkpt lat="45.16467" lon="5.29008">
        <ele>596.40002441406</ele>
        <time>2020-03-01T10:05:53.000Z</time>
      </trkpt>
      <trkpt lat="45.16467" lon="5.29011">
        <ele>596.40002441406</ele>
        <time>2020-03-01T10:05:54.000Z</time>
      </trkpt>
      <trkpt lat="45.16466" lon="5.29015">
        <ele>596.40002441406</ele>
        <time>2020-03-01T10:05:55.000Z</time>
      </trkpt>
      <trkpt lat="45.16466" lon="5.29018">
        <ele>596.40002441406</ele>
        <time>2020-03-01T10:05:56.000Z</time>
      </trkpt>
      <trkpt lat="45.16465" lon="5.29021">
        <ele>596.40002441406</ele>
        <time>2020-03-01T10:05:57.000Z</time>
      </trkpt>
      <trkpt lat="45.16464" lon="5.29024">
        <ele>596.40002441406</ele>
        <time>2020-03-01T10:05:58.000Z</time>
      </trkpt>
      <trkpt lat="45.16464" lon="5.29027">
        <ele>596.40002441406</ele>
        <time>2020-03-01T10:05:59.000Z</time>
      </trkpt>
      <trkpt lat="45.16464" lon="5.2903">
        <ele>596.40002441406</ele>
        <time>2020-03-01T10:06:00.000Z</time>
      </trkpt>
      <trkpt lat="45.16463" lon="5.29034">
        <ele>596.40002441406</ele>
        <time>2020-03-01T10:06:01.000Z</time>
      </trkpt>
      <trkpt lat="45.16463" lon="5.29037">
        <ele>596.59997558594</ele>
        <time>2020-03-01T10:06:02.000Z</time>
      </trkpt>
      <trkpt lat="45.16463" lon="5.29041">
        <ele>596.40002441406</ele>
        <time>2020-03-01T10:06:03.000Z</time>
      </trkpt>
      <trkpt lat="45.16463" lon="5.29044">
        <ele>596.59997558594</ele>
        <time>2020-03-01T10:06:04.000Z</time>
      </trkpt>
      <trkpt lat="45.16462" lon="5.29048">
        <ele>596.59997558594</ele>
        <time>2020-03-01T10:06:05.000Z</time>
      </trkpt>
      <trkpt lat="45.16463" lon="5.29051">
        <ele>596.59997558594</ele>
        <time>2020-03-01T10:06:06.000Z</time>
      </trkpt>
      <trkpt lat="45.16463" lon="5.29054">
        <ele>596.79998779297</ele>
        <time>2020-03-01T10:06:07.000Z</time>
      </trkpt>
      <trkpt lat="45.16463" lon="5.29058">
        <ele>596.79998779297</ele>
        <time>2020-03-01T10:06:08.000Z</time>
      </trkpt>
      <trkpt lat="45.16463" lon="5.29061">
        <ele>596.79998779297</ele>
        <time>2020-03-01T10:06:09.000Z</time>
      </trkpt>
      <trkpt lat="45.16462" lon="5.29064">
        <ele>596.79998779297</ele>
        <time>2020-03-01T10:06:10.000Z</time>
      </trkpt>
      <trkpt lat="45.16462" lon="5.29067">
        <ele>597</ele>
        <time>2020-03-01T10:06:11.000Z</time>
      </trkpt>
      <trkpt lat="45.16462" lon="5.29071">
        <ele>597</ele>
        <time>2020-03-01T10:06:12.000Z</time>
      </trkpt>
      <trkpt lat="45.16462" lon="5.29074">
        <ele>597</ele>
        <time>2020-03-01T10:06:13.000Z</time>
      </trkpt>
      <trkpt lat="45.16462" lon="5.29078">
        <ele>597</ele>
        <time>2020-03-01T10:06:14.000Z</time>
      </trkpt>
      <trkpt lat="45.16461" lon="5.29081">
        <ele>597.20001220703</ele>
        <time>2020-03-01T10:06:15.000Z</time>
      </trkpt>
      <trkpt lat="45.16461" lon="5.29084">
        <ele>597.20001220703</ele>
        <time>2020-03-01T10:06:16.000Z</time>
      </trkpt>
      <trkpt lat="45.16461" lon="5.29087">
        <ele>597.40002441406</ele>
        <time>2020-03-01T10:06:17.000Z</time>
      </trkpt>
      <trkpt lat="45.1646" lon="5.29091">
        <ele>597.40002441406</ele>
        <time>2020-03-01T10:06:18.000Z</time>
      </trkpt>
      <trkpt lat="45.1646" lon="5.29094">
        <ele>597.40002441406</ele>
        <time>2020-03-01T10:06:19.000Z</time>
      </trkpt>
      <trkpt lat="45.16461" lon="5.29097">
        <ele>597.40002441406</ele>
        <time>2020-03-01T10:06:20.000Z</time>
      </trkpt>
      <trkpt lat="45.16461" lon="5.29101">
        <ele>597.59997558594</ele>
        <time>2020-03-01T10:06:21.000Z</time>
      </trkpt>
      <trkpt lat="45.16461" lon="5.29104">
        <ele>597.79998779297</ele>
        <time>2020-03-01T10:06:22.000Z</time>
      </trkpt>
      <trkpt lat="45.16461" lon="5.29107">
        <ele>598.20001220703</ele>
        <time>2020-03-01T10:06:23.000Z</time>
      </trkpt>
      <trkpt lat="45.16461" lon="5.2911">
        <ele>598.20001220703</ele>
        <time>2020-03-01T10:06:24.000Z</time>
      </trkpt>
      <trkpt lat="45.16461" lon="5.29113">
        <ele>598.40002441406</ele>
        <time>2020-03-01T10:06:25.000Z</time>
      </trkpt>
      <trkpt lat="45.16462" lon="5.29116">
        <ele>598.40002441406</ele>
        <time>2020-03-01T10:06:26.000Z</time>
      </trkpt>
      <trkpt lat="45.16463" lon="5.29119">
        <ele>598.40002441406</ele>
        <time>2020-03-01T10:06:27.000Z</time>
      </trkpt>
      <trkpt lat="45.16465" lon="5.29121">
        <ele>598.40002441406</ele>
        <time>2020-03-01T10:06:28.000Z</time>
      </trkpt>
      <trkpt lat="45.16467" lon="5.29123">
        <ele>598.20001220703</ele>
        <time>2020-03-01T10:06:29.000Z</time>
      </trkpt>
      <trkpt lat="45.16469" lon="5.29124">
        <ele>598</ele>
        <time>2020-03-01T10:06:30.000Z</time>
      </trkpt>
      <trkpt lat="45.16472" lon="5.29125">
        <ele>598</ele>
        <time>2020-03-01T10:06:31.000Z</time>
      </trkpt>
      <trkpt lat="45.16475" lon="5.29127">
        <ele>598</ele>
        <time>2020-03-01T10:06:32.000Z</time>
      </trkpt>
      <trkpt lat="45.16477" lon="5.29128">
        <ele>597.79998779297</ele>
        <time>2020-03-01T10:06:33.000Z</time>
      </trkpt>
      <trkpt lat="45.16479" lon="5.2913">
        <ele>598</ele>
        <time>2020-03-01T10:06:34.000Z</time>
      </trkpt>
      <trkpt lat="45.16482" lon="5.2913">
        <ele>598</ele>
        <time>2020-03-01T10:06:35.000Z</time>
      </trkpt>
      <trkpt lat="45.16484" lon="5.29131">
        <ele>598.40002441406</ele>
        <time>2020-03-01T10:06:36.000Z</time>
      </trkpt>
      <trkpt lat="45.16486" lon="5.29132">
        <ele>598.20001220703</ele>
        <time>2020-03-01T10:06:37.000Z</time>
      </trkpt>
      <trkpt lat="45.16489" lon="5.29133">
        <ele>598.40002441406</ele>
        <time>2020-03-01T10:06:38.000Z</time>
      </trkpt>
      <trkpt lat="45.16491" lon="5.29134">
        <ele>598.40002441406</ele>
        <time>2020-03-01T10:06:39.000Z</time>
      </trkpt>
      <trkpt lat="45.16493" lon="5.29135">
        <ele>598.79998779297</ele>
        <time>2020-03-01T10:06:40.000Z</time>
      </trkpt>
      <trkpt lat="45.16495" lon="5.29135">
        <ele>598.59997558594</ele>
        <time>2020-03-01T10:06:41.000Z</time>
      </trkpt>
      <trkpt lat="45.16496" lon="5.29135">
        <ele>598.79998779297</ele>
        <time>2020-03-01T10:06:42.000Z</time>
      </trkpt>
      <trkpt lat="45.16498" lon="5.29136">
        <ele>598.59997558594</ele>
        <time>2020-03-01T10:06:43.000Z</time>
      </trkpt>
      <trkpt lat="45.16499" lon="5.29138">
        <ele>598.79998779297</ele>
        <time>2020-03-01T10:06:44.000Z</time>
      </trkpt>
      <trkpt lat="45.165" lon="5.2914">
        <ele>598.79998779297</ele>
        <time>2020-03-01T10:06:45.000Z</time>
      </trkpt>
      <trkpt lat="45.16502" lon="5.29143">
        <ele>598.79998779297</ele>
        <time>2020-03-01T10:06:46.000Z</time>
      </trkpt>
      <trkpt lat="45.16503" lon="5.29146">
        <ele>598.79998779297</ele>
        <time>2020-03-01T10:06:47.000Z</time>
      </trkpt>
      <trkpt lat="45.16503" lon="5.29149">
        <ele>599</ele>
        <time>2020-03-01T10:06:48.000Z</time>
      </trkpt>
      <trkpt lat="45.16502" lon="5.29152">
        <ele>599</ele>
        <time>2020-03-01T10:06:49.000Z</time>
      </trkpt>
      <trkpt lat="45.16502" lon="5.29155">
        <ele>599</ele>
        <time>2020-03-01T10:06:50.000Z</time>
      </trkpt>
      <trkpt lat="45.16501" lon="5.29158">
        <ele>599</ele>
        <time>2020-03-01T10:06:51.000Z</time>
      </trkpt>
      <trkpt lat="45.165" lon="5.29161">
        <ele>599</ele>
        <time>2020-03-01T10:06:52.000Z</time>
      </trkpt>
      <trkpt lat="45.165" lon="5.29163">
        <ele>599.20001220703</ele>
        <time>2020-03-01T10:06:53.000Z</time>
      </trkpt>
      <trkpt lat="45.165" lon="5.29166">
        <ele>599.40002441406</ele>
        <time>2020-03-01T10:06:54.000Z</time>
      </trkpt>
      <trkpt lat="45.16499" lon="5.29169">
        <ele>599.40002441406</ele>
        <time>2020-03-01T10:06:55.000Z</time>
      </trkpt>
      <trkpt lat="45.16498" lon="5.29172">
        <ele>599.59997558594</ele>
        <time>2020-03-01T10:06:56.000Z</time>
      </trkpt>
      <trkpt lat="45.16498" lon="5.29176">
        <ele>599.40002441406</ele>
        <time>2020-03-01T10:06:57.000Z</time>
      </trkpt>
      <trkpt lat="45.16496" lon="5.29179">
        <ele>599.59997558594</ele>
        <time>2020-03-01T10:06:58.000Z</time>
      </trkpt>
      <trkpt lat="45.16495" lon="5.29182">
        <ele>599.40002441406</ele>
        <time>2020-03-01T10:06:59.000Z</time>
      </trkpt>
      <trkpt lat="45.16494" lon="5.29184">
        <ele>599.59997558594</ele>
        <time>2020-03-01T10:07:00.000Z</time>
      </trkpt>
      <trkpt lat="45.16494" lon="5.29187">
        <ele>599.59997558594</ele>
        <time>2020-03-01T10:07:01.000Z</time>
      </trkpt>
      <trkpt lat="45.16493" lon="5.29189">
        <ele>599.79998779297</ele>
        <time>2020-03-01T10:07:02.000Z</time>
      </trkpt>
      <trkpt lat="45.16491" lon="5.29191">
        <ele>599.79998779297</ele>
        <time>2020-03-01T10:07:03.000Z</time>
      </trkpt>
      <trkpt lat="45.1649" lon="5.29193">
        <ele>600</ele>
        <time>2020-03-01T10:07:04.000Z</time>
      </trkpt>
      <trkpt lat="45.16489" lon="5.29196">
        <ele>600.20001220703</ele>
        <time>2020-03-01T10:07:05.000Z</time>
      </trkpt>
      <trkpt lat="45.16488" lon="5.29198">
        <ele>600.40002441406</ele>
        <time>2020-03-01T10:07:06.000Z</time>
      </trkpt>
      <trkpt lat="45.16488" lon="5.29202">
        <ele>600.59997558594</ele>
        <time>2020-03-01T10:07:07.000Z</time>
      </trkpt>
      <trkpt lat="45.16487" lon="5.29204">
        <ele>600.59997558594</ele>
        <time>2020-03-01T10:07:08.000Z</time>
      </trkpt>
      <trkpt lat="45.16486" lon="5.29207">
        <ele>600.79998779297</ele>
        <time>2020-03-01T10:07:09.000Z</time>
      </trkpt>
      <trkpt lat="45.16485" lon="5.29209">
        <ele>601.20001220703</ele>
        <time>2020-03-01T10:07:10.000Z</time>
      </trkpt>
      <trkpt lat="45.16484" lon="5.29212">
        <ele>601.40002441406</ele>
        <time>2020-03-01T10:07:11.000Z</time>
      </trkpt>
      <trkpt lat="45.16484" lon="5.29214">
        <ele>601.40002441406</ele>
        <time>2020-03-01T10:07:12.000Z</time>
      </trkpt>
      <trkpt lat="45.16483" lon="5.29217">
        <ele>601.59997558594</ele>
        <time>2020-03-01T10:07:13.000Z</time>
      </trkpt>
      <trkpt lat="45.16482" lon="5.29219">
        <ele>601.59997558594</ele>
        <time>2020-03-01T10:07:14.000Z</time>
      </trkpt>
      <trkpt lat="45.16482" lon="5.29222">
        <ele>601.79998779297</ele>
        <time>2020-03-01T10:07:15.000Z</time>
      </trkpt>
      <trkpt lat="45.16482" lon="5.29225">
        <ele>602</ele>
        <time>2020-03-01T10:07:16.000Z</time>
      </trkpt>
      <trkpt lat="45.16481" lon="5.29228">
        <ele>602</ele>
        <time>2020-03-01T10:07:17.000Z</time>
      </trkpt>
      <trkpt lat="45.16481" lon="5.2923">
        <ele>602.20001220703</ele>
        <time>2020-03-01T10:07:18.000Z</time>
      </trkpt>
      <trkpt lat="45.1648" lon="5.29232">
        <ele>602.40002441406</ele>
        <time>2020-03-01T10:07:19.000Z</time>
      </trkpt>
      <trkpt lat="45.16479" lon="5.29235">
        <ele>602.59997558594</ele>
        <time>2020-03-01T10:07:20.000Z</time>
      </trkpt>
      <trkpt lat="45.16479" lon="5.29238">
        <ele>603</ele>
        <time>2020-03-01T10:07:21.000Z</time>
      </trkpt>
      <trkpt lat="45.16478" lon="5.2924">
        <ele>603</ele>
        <time>2020-03-01T10:07:22.000Z</time>
      </trkpt>
      <trkpt lat="45.16477" lon="5.29243">
        <ele>603.20001220703</ele>
        <time>2020-03-01T10:07:23.000Z</time>
      </trkpt>
      <trkpt lat="45.16476" lon="5.29246">
        <ele>603</ele>
        <time>2020-03-01T10:07:24.000Z</time>
      </trkpt>
      <trkpt lat="45.16475" lon="5.29249">
        <ele>603.40002441406</ele>
        <time>2020-03-01T10:07:25.000Z</time>
      </trkpt>
      <trkpt lat="45.16474" lon="5.29251">
        <ele>603.20001220703</ele>
        <time>2020-03-01T10:07:26.000Z</time>
      </trkpt>
      <trkpt lat="45.16473" lon="5.29254">
        <ele>603.20001220703</ele>
        <time>2020-03-01T10:07:27.000Z</time>
      </trkpt>
      <trkpt lat="45.16473" lon="5.29256">
        <ele>603</ele>
        <time>2020-03-01T10:07:28.000Z</time>
      </trkpt>
      <trkpt lat="45.16472" lon="5.29258">
        <ele>603</ele>
        <time>2020-03-01T10:07:29.000Z</time>
      </trkpt>
      <trkpt lat="45.16471" lon="5.2926">
        <ele>603</ele>
        <time>2020-03-01T10:07:30.000Z</time>
      </trkpt>
      <trkpt lat="45.1647" lon="5.29263">
        <ele>603.20001220703</ele>
        <time>2020-03-01T10:07:31.000Z</time>
      </trkpt>
      <trkpt lat="45.16469" lon="5.29265">
        <ele>603.20001220703</ele>
        <time>2020-03-01T10:07:32.000Z</time>
      </trkpt>
      <trkpt lat="45.16468" lon="5.29267">
        <ele>603.40002441406</ele>
        <time>2020-03-01T10:07:33.000Z</time>
      </trkpt>
      <trkpt lat="45.16467" lon="5.29269">
        <ele>603.59997558594</ele>
        <time>2020-03-01T10:07:34.000Z</time>
      </trkpt>
      <trkpt lat="45.16467" lon="5.29272">
        <ele>603.59997558594</ele>
        <time>2020-03-01T10:07:35.000Z</time>
      </trkpt>
      <trkpt lat="45.16466" lon="5.29274">
        <ele>603.59997558594</ele>
        <time>2020-03-01T10:07:36.000Z</time>
      </trkpt>
      <trkpt lat="45.16466" lon="5.29276">
        <ele>603.79998779297</ele>
        <time>2020-03-01T10:07:37.000Z</time>
      </trkpt>
      <trkpt lat="45.16466" lon="5.29278">
        <ele>603.79998779297</ele>
        <time>2020-03-01T10:07:38.000Z</time>
      </trkpt>
      <trkpt lat="45.16465" lon="5.29281">
        <ele>603.79998779297</ele>
        <time>2020-03-01T10:07:39.000Z</time>
      </trkpt>
      <trkpt lat="45.16464" lon="5.29283">
        <ele>603.79998779297</ele>
        <time>2020-03-01T10:07:40.000Z</time>
      </trkpt>
      <trkpt lat="45.16463" lon="5.29285">
        <ele>603.79998779297</ele>
        <time>2020-03-01T10:07:41.000Z</time>
      </trkpt>
      <trkpt lat="45.16463" lon="5.29288">
        <ele>603.79998779297</ele>
        <time>2020-03-01T10:07:42.000Z</time>
      </trkpt>
      <trkpt lat="45.16462" lon="5.29291">
        <ele>604</ele>
        <time>2020-03-01T10:07:43.000Z</time>
      </trkpt>
      <trkpt lat="45.16462" lon="5.29294">
        <ele>604</ele>
        <time>2020-03-01T10:07:44.000Z</time>
      </trkpt>
      <trkpt lat="45.16461" lon="5.29297">
        <ele>604.20001220703</ele>
        <time>2020-03-01T10:07:45.000Z</time>
      </trkpt>
      <trkpt lat="45.16461" lon="5.293">
        <ele>604.20001220703</ele>
        <time>2020-03-01T10:07:46.000Z</time>
      </trkpt>
      <trkpt lat="45.16461" lon="5.29303">
        <ele>604.40002441406</ele>
        <time>2020-03-01T10:07:47.000Z</time>
      </trkpt>
      <trkpt lat="45.1646" lon="5.29306">
        <ele>604.40002441406</ele>
        <time>2020-03-01T10:07:48.000Z</time>
      </trkpt>
      <trkpt lat="45.16459" lon="5.29308">
        <ele>604.40002441406</ele>
        <time>2020-03-01T10:07:49.000Z</time>
      </trkpt>
      <trkpt lat="45.16459" lon="5.29311">
        <ele>604.59997558594</ele>
        <time>2020-03-01T10:07:50.000Z</time>
      </trkpt>
      <trkpt lat="45.16458" lon="5.29313">
        <ele>604.79998779297</ele>
        <time>2020-03-01T10:07:51.000Z</time>
      </trkpt>
      <trkpt lat="45.16457" lon="5.29315">
        <ele>604.79998779297</ele>
        <time>2020-03-01T10:07:52.000Z</time>
      </trkpt>
      <trkpt lat="45.16456" lon="5.29317">
        <ele>604.79998779297</ele>
        <time>2020-03-01T10:07:53.000Z</time>
      </trkpt>
      <trkpt lat="45.16456" lon="5.2932">
        <ele>604.79998779297</ele>
        <time>2020-03-01T10:07:54.000Z</time>
      </trkpt>
      <trkpt lat="45.16457" lon="5.29324">
        <ele>605</ele>
        <time>2020-03-01T10:07:55.000Z</time>
      </trkpt>
      <trkpt lat="45.16456" lon="5.29327">
        <ele>605</ele>
        <time>2020-03-01T10:07:56.000Z</time>
      </trkpt>
      <trkpt lat="45.16457" lon="5.2933">
        <ele>605</ele>
        <time>2020-03-01T10:07:57.000Z</time>
      </trkpt>
      <trkpt lat="45.16457" lon="5.29334">
        <ele>605</ele>
        <time>2020-03-01T10:07:58.000Z</time>
      </trkpt>
      <trkpt lat="45.16457" lon="5.29337">
        <ele>605.20001220703</ele>
        <time>2020-03-01T10:07:59.000Z</time>
      </trkpt>
      <trkpt lat="45.16457" lon="5.2934">
        <ele>605.20001220703</ele>
        <time>2020-03-01T10:08:00.000Z</time>
      </trkpt>
      <trkpt lat="45.16457" lon="5.29343">
        <ele>605.20001220703</ele>
        <time>2020-03-01T10:08:01.000Z</time>
      </trkpt>
      <trkpt lat="45.16456" lon="5.29345">
        <ele>605.40002441406</ele>
        <time>2020-03-01T10:08:02.000Z</time>
      </trkpt>
      <trkpt lat="45.16455" lon="5.29347">
        <ele>605.40002441406</ele>
        <time>2020-03-01T10:08:03.000Z</time>
      </trkpt>
      <trkpt lat="45.16454" lon="5.29348">
        <ele>605.59997558594</ele>
        <time>2020-03-01T10:08:04.000Z</time>
      </trkpt>
      <trkpt lat="45.16453" lon="5.29349">
        <ele>605.40002441406</ele>
        <time>2020-03-01T10:08:05.000Z</time>
      </trkpt>
      <trkpt lat="45.16451" lon="5.2935">
        <ele>605.40002441406</ele>
        <time>2020-03-01T10:08:06.000Z</time>
      </trkpt>
      <trkpt lat="45.16449" lon="5.29351">
        <ele>605.40002441406</ele>
        <time>2020-03-01T10:08:07.000Z</time>
      </trkpt>
      <trkpt lat="45.16448" lon="5.29351">
        <ele>605.40002441406</ele>
        <time>2020-03-01T10:08:08.000Z</time>
      </trkpt>
      <trkpt lat="45.16447" lon="5.29351">
        <ele>605.20001220703</ele>
        <time>2020-03-01T10:08:09.000Z</time>
      </trkpt>
      <trkpt lat="45.16446" lon="5.29351">
        <ele>604.79998779297</ele>
        <time>2020-03-01T10:08:10.000Z</time>
      </trkpt>
      <trkpt lat="45.16444" lon="5.29351">
        <ele>604.79998779297</ele>
        <time>2020-03-01T10:08:11.000Z</time>
      </trkpt>
      <trkpt lat="45.16444" lon="5.2935">
        <ele>604.59997558594</ele>
        <time>2020-03-01T10:08:12.000Z</time>
      </trkpt>
      <trkpt lat="45.16443" lon="5.2935">
        <ele>604.59997558594</ele>
        <time>2020-03-01T10:08:13.000Z</time>
      </trkpt>
      <trkpt lat="45.16441" lon="5.29348">
        <ele>604.59997558594</ele>
        <time>2020-03-01T10:08:14.000Z</time>
      </trkpt>
      <trkpt lat="45.16441" lon="5.29348">
        <ele>604.40002441406</ele>
        <time>2020-03-01T10:08:15.000Z</time>
      </trkpt>
      <trkpt lat="45.1644" lon="5.29347">
        <ele>604.20001220703</ele>
        <time>2020-03-01T10:08:16.000Z</time>
      </trkpt>
      <trkpt lat="45.16441" lon="5.29348">
        <ele>604.20001220703</ele>
        <time>2020-03-01T10:08:17.000Z</time>
      </trkpt>
      <trkpt lat="45.16441" lon="5.29347">
        <ele>604.20001220703</ele>
        <time>2020-03-01T10:08:18.000Z</time>
      </trkpt>
      <trkpt lat="45.16439" lon="5.29347">
        <ele>604.20001220703</ele>
        <time>2020-03-01T10:08:19.000Z</time>
      </trkpt>
      <trkpt lat="45.16438" lon="5.29347">
        <ele>604.20001220703</ele>
        <time>2020-03-01T10:08:20.000Z</time>
      </trkpt>
      <trkpt lat="45.16437" lon="5.29347">
        <ele>604.20001220703</ele>
        <time>2020-03-01T10:08:21.000Z</time>
      </trkpt>
      <trkpt lat="45.16436" lon="5.29346">
        <ele>604.40002441406</ele>
        <time>2020-03-01T10:08:22.000Z</time>
      </trkpt>
      <trkpt lat="45.16435" lon="5.29345">
        <ele>604.59997558594</ele>
        <time>2020-03-01T10:08:23.000Z</time>
      </trkpt>
      <trkpt lat="45.16434" lon="5.29344">
        <ele>605</ele>
        <time>2020-03-01T10:08:24.000Z</time>
      </trkpt>
      <trkpt lat="45.16433" lon="5.29343">
        <ele>605.20001220703</ele>
        <time>2020-03-01T10:08:25.000Z</time>
      </trkpt>
      <trkpt lat="45.16431" lon="5.29342">
        <ele>605.40002441406</ele>
        <time>2020-03-01T10:08:26.000Z</time>
      </trkpt>
      <trkpt lat="45.1643" lon="5.29341">
        <ele>605.40002441406</ele>
        <time>2020-03-01T10:08:27.000Z</time>
      </trkpt>
      <trkpt lat="45.16429" lon="5.2934">
        <ele>605.40002441406</ele>
        <time>2020-03-01T10:08:28.000Z</time>
      </trkpt>
      <trkpt lat="45.16427" lon="5.29339">
        <ele>605.59997558594</ele>
        <time>2020-03-01T10:08:29.000Z</time>
      </trkpt>
      <trkpt lat="45.16425" lon="5.29338">
        <ele>605.59997558594</ele>
        <time>2020-03-01T10:08:30.000Z</time>
      </trkpt>
      <trkpt lat="45.16423" lon="5.29337">
        <ele>605.79998779297</ele>
        <time>2020-03-01T10:08:31.000Z</time>
      </trkpt>
      <trkpt lat="45.16421" lon="5.29336">
        <ele>606</ele>
        <time>2020-03-01T10:08:32.000Z</time>
      </trkpt>
      <trkpt lat="45.1642" lon="5.29335">
        <ele>606</ele>
        <time>2020-03-01T10:08:33.000Z</time>
      </trkpt>
      <trkpt lat="45.16418" lon="5.29334">
        <ele>606</ele>
        <time>2020-03-01T10:08:34.000Z</time>
      </trkpt>
      <trkpt lat="45.16418" lon="5.29333">
        <ele>606.20001220703</ele>
        <time>2020-03-01T10:08:35.000Z</time>
      </trkpt>
      <trkpt lat="45.16417" lon="5.29333">
        <ele>606.20001220703</ele>
        <time>2020-03-01T10:08:36.000Z</time>
      </trkpt>
      <trkpt lat="45.16416" lon="5.29332">
        <ele>606.20001220703</ele>
        <time>2020-03-01T10:08:37.000Z</time>
      </trkpt>
      <trkpt lat="45.16415" lon="5.29331">
        <ele>606.40002441406</ele>
        <time>2020-03-01T10:08:38.000Z</time>
      </trkpt>
      <trkpt lat="45.16416" lon="5.2933">
        <ele>606.40002441406</ele>
        <time>2020-03-01T10:08:39.000Z</time>
      </trkpt>
      <trkpt lat="45.16415" lon="5.29329">
        <ele>606.59997558594</ele>
        <time>2020-03-01T10:08:40.000Z</time>
      </trkpt>
      <trkpt lat="45.16414" lon="5.29328">
        <ele>606.59997558594</ele>
        <time>2020-03-01T10:08:41.000Z</time>
      </trkpt>
      <trkpt lat="45.16412" lon="5.29326">
        <ele>606.79998779297</ele>
        <time>2020-03-01T10:08:42.000Z</time>
      </trkpt>
      <trkpt lat="45.16412" lon="5.29326">
        <ele>607</ele>
        <time>2020-03-01T10:08:43.000Z</time>
      </trkpt>
      <trkpt lat="45.16412" lon="5.29325">
        <ele>607</ele>
        <time>2020-03-01T10:08:44.000Z</time>
      </trkpt>
      <trkpt lat="45.16412" lon="5.29324">
        <ele>607.20001220703</ele>
        <time>2020-03-01T10:08:45.000Z</time>
      </trkpt>
      <trkpt lat="45.16412" lon="5.29323">
        <ele>607.40002441406</ele>
        <time>2020-03-01T10:08:46.000Z</time>
      </trkpt>
      <trkpt lat="45.16411" lon="5.29322">
        <ele>607.59997558594</ele>
        <time>2020-03-01T10:08:47.000Z</time>
      </trkpt>
      <trkpt lat="45.16409" lon="5.2932">
        <ele>607.79998779297</ele>
        <time>2020-03-01T10:08:48.000Z</time>
      </trkpt>
      <trkpt lat="45.16406" lon="5.29318">
        <ele>607.79998779297</ele>
        <time>2020-03-01T10:08:49.000Z</time>
      </trkpt>
      <trkpt lat="45.16404" lon="5.29317">
        <ele>608</ele>
        <time>2020-03-01T10:08:50.000Z</time>
      </trkpt>
      <trkpt lat="45.16403" lon="5.29316">
        <ele>608</ele>
        <time>2020-03-01T10:08:51.000Z</time>
      </trkpt>
      <trkpt lat="45.16402" lon="5.29316">
        <ele>608.20001220703</ele>
        <time>2020-03-01T10:08:52.000Z</time>
      </trkpt>
      <trkpt lat="45.16402" lon="5.29315">
        <ele>608.40002441406</ele>
        <time>2020-03-01T10:08:53.000Z</time>
      </trkpt>
      <trkpt lat="45.16401" lon="5.29314">
        <ele>608.40002441406</ele>
        <time>2020-03-01T10:08:54.000Z</time>
      </trkpt>
      <trkpt lat="45.16398" lon="5.29311">
        <ele>608.59997558594</ele>
        <time>2020-03-01T10:08:55.000Z</time>
      </trkpt>
      <trkpt lat="45.16397" lon="5.29309">
        <ele>608.79998779297</ele>
        <time>2020-03-01T10:08:56.000Z</time>
      </trkpt>
      <trkpt lat="45.16396" lon="5.29307">
        <ele>609</ele>
        <time>2020-03-01T10:08:57.000Z</time>
      </trkpt>
      <trkpt lat="45.16395" lon="5.29305">
        <ele>609</ele>
        <time>2020-03-01T10:08:58.000Z</time>
      </trkpt>
      <trkpt lat="45.16394" lon="5.29304">
        <ele>609.40002441406</ele>
        <time>2020-03-01T10:08:59.000Z</time>
      </trkpt>
      <trkpt lat="45.16391" lon="5.29304">
        <ele>609.40002441406</ele>
        <time>2020-03-01T10:09:00.000Z</time>
      </trkpt>
      <trkpt lat="45.16386" lon="5.29303">
        <ele>609.59997558594</ele>
        <time>2020-03-01T10:09:01.000Z</time>
      </trkpt>
      <trkpt lat="45.16382" lon="5.29302">
        <ele>609.79998779297</ele>
        <time>2020-03-01T10:09:02.000Z</time>
      </trkpt>
      <trkpt lat="45.1638" lon="5.293">
        <ele>609.79998779297</ele>
        <time>2020-03-01T10:09:03.000Z</time>
      </trkpt>
      <trkpt lat="45.16378" lon="5.29299">
        <ele>610</ele>
        <time>2020-03-01T10:09:04.000Z</time>
      </trkpt>
      <trkpt lat="45.16377" lon="5.29298">
        <ele>610.20001220703</ele>
        <time>2020-03-01T10:09:05.000Z</time>
      </trkpt>
      <trkpt lat="45.16375" lon="5.29297">
        <ele>610.20001220703</ele>
        <time>2020-03-01T10:09:06.000Z</time>
      </trkpt>
      <trkpt lat="45.16373" lon="5.29295">
        <ele>610.40002441406</ele>
        <time>2020-03-01T10:09:07.000Z</time>
      </trkpt>
      <trkpt lat="45.16372" lon="5.29294">
        <ele>610.40002441406</ele>
        <time>2020-03-01T10:09:08.000Z</time>
      </trkpt>
      <trkpt lat="45.16372" lon="5.29293">
        <ele>610.79998779297</ele>
        <time>2020-03-01T10:09:09.000Z</time>
      </trkpt>
      <trkpt lat="45.16372" lon="5.29291">
        <ele>611</ele>
        <time>2020-03-01T10:09:10.000Z</time>
      </trkpt>
      <trkpt lat="45.16372" lon="5.2929">
        <ele>611.20001220703</ele>
        <time>2020-03-01T10:09:11.000Z</time>
      </trkpt>
      <trkpt lat="45.16371" lon="5.29289">
        <ele>611.40002441406</ele>
        <time>2020-03-01T10:09:12.000Z</time>
      </trkpt>
      <trkpt lat="45.1637" lon="5.29287">
        <ele>611.59997558594</ele>
        <time>2020-03-01T10:09:13.000Z</time>
      </trkpt>
      <trkpt lat="45.16369" lon="5.29286">
        <ele>611.59997558594</ele>
        <time>2020-03-01T10:09:14.000Z</time>
      </trkpt>
      <trkpt lat="45.16367" lon="5.29285">
        <ele>611.59997558594</ele>
        <time>2020-03-01T10:09:15.000Z</time>
      </trkpt>
      <trkpt lat="45.16365" lon="5.29284">
        <ele>611.79998779297</ele>
        <time>2020-03-01T10:09:16.000Z</time>
      </trkpt>
      <trkpt lat="45.16364" lon="5.29283">
        <ele>611.79998779297</ele>
        <time>2020-03-01T10:09:17.000Z</time>
      </trkpt>
      <trkpt lat="45.16363" lon="5.29283">
        <ele>612</ele>
        <time>2020-03-01T10:09:18.000Z</time>
      </trkpt>
      <trkpt lat="45.16363" lon="5.29282">
        <ele>612.20001220703</ele>
        <time>2020-03-01T10:09:19.000Z</time>
      </trkpt>
      <trkpt lat="45.16361" lon="5.29281">
        <ele>612.20001220703</ele>
        <time>2020-03-01T10:09:20.000Z</time>
      </trkpt>
      <trkpt lat="45.16361" lon="5.2928">
        <ele>612.40002441406</ele>
        <time>2020-03-01T10:09:21.000Z</time>
      </trkpt>
      <trkpt lat="45.16361" lon="5.29279">
        <ele>612.59997558594</ele>
        <time>2020-03-01T10:09:22.000Z</time>
      </trkpt>
      <trkpt lat="45.16361" lon="5.29278">
        <ele>612.79998779297</ele>
        <time>2020-03-01T10:09:23.000Z</time>
      </trkpt>
      <trkpt lat="45.16362" lon="5.29278">
        <ele>613</ele>
        <time>2020-03-01T10:09:24.000Z</time>
      </trkpt>
      <trkpt lat="45.16361" lon="5.29277">
        <ele>613.40002441406</ele>
        <time>2020-03-01T10:09:25.000Z</time>
      </trkpt>
      <trkpt lat="45.16361" lon="5.29275">
        <ele>613.59997558594</ele>
        <time>2020-03-01T10:09:26.000Z</time>
      </trkpt>
      <trkpt lat="45.16361" lon="5.29274">
        <ele>613.79998779297</ele>
        <time>2020-03-01T10:09:27.000Z</time>
      </trkpt>
      <trkpt lat="45.16361" lon="5.29273">
        <ele>613.79998779297</ele>
        <time>2020-03-01T10:09:28.000Z</time>
      </trkpt>
      <trkpt lat="45.16367" lon="5.29271">
        <ele>614</ele>
        <time>2020-03-01T10:09:29.000Z</time>
      </trkpt>
      <trkpt lat="45.16369" lon="5.2927">
        <ele>614.40002441406</ele>
        <time>2020-03-01T10:09:30.000Z</time>
      </trkpt>
      <trkpt lat="45.1637" lon="5.29268">
        <ele>614.59997558594</ele>
        <time>2020-03-01T10:09:31.000Z</time>
      </trkpt>
      <trkpt lat="45.1637" lon="5.29268">
        <ele>614.79998779297</ele>
        <time>2020-03-01T10:09:32.000Z</time>
      </trkpt>
      <trkpt lat="45.16369" lon="5.29266">
        <ele>614.79998779297</ele>
        <time>2020-03-01T10:09:33.000Z</time>
      </trkpt>
      <trkpt lat="45.16368" lon="5.29264">
        <ele>615</ele>
        <time>2020-03-01T10:09:34.000Z</time>
      </trkpt>
      <trkpt lat="45.16368" lon="5.29263">
        <ele>615</ele>
        <time>2020-03-01T10:09:35.000Z</time>
      </trkpt>
      <trkpt lat="45.16366" lon="5.29261">
        <ele>615.20001220703</ele>
        <time>2020-03-01T10:09:36.000Z</time>
      </trkpt>
      <trkpt lat="45.16365" lon="5.29259">
        <ele>615.40002441406</ele>
        <time>2020-03-01T10:09:37.000Z</time>
      </trkpt>
      <trkpt lat="45.16365" lon="5.29257">
        <ele>615.59997558594</ele>
        <time>2020-03-01T10:09:38.000Z</time>
      </trkpt>
      <trkpt lat="45.16364" lon="5.29255">
        <ele>615.79998779297</ele>
        <time>2020-03-01T10:09:39.000Z</time>
      </trkpt>
      <trkpt lat="45.16364" lon="5.29254">
        <ele>616</ele>
        <time>2020-03-01T10:09:40.000Z</time>
      </trkpt>
      <trkpt lat="45.16363" lon="5.29253">
        <ele>616.20001220703</ele>
        <time>2020-03-01T10:09:41.000Z</time>
      </trkpt>
      <trkpt lat="45.16363" lon="5.29251">
        <ele>616.40002441406</ele>
        <time>2020-03-01T10:09:42.000Z</time>
      </trkpt>
      <trkpt lat="45.16362" lon="5.2925">
        <ele>616.59997558594</ele>
        <time>2020-03-01T10:09:43.000Z</time>
      </trkpt>
      <trkpt lat="45.16362" lon="5.2925">
        <ele>616.79998779297</ele>
        <time>2020-03-01T10:09:44.000Z</time>
      </trkpt>
      <trkpt lat="45.16362" lon="5.29249">
        <ele>616.79998779297</ele>
        <time>2020-03-01T10:09:45.000Z</time>
      </trkpt>
      <trkpt lat="45.16361" lon="5.29249">
        <ele>617</ele>
        <time>2020-03-01T10:09:46.000Z</time>
      </trkpt>
      <trkpt lat="45.16361" lon="5.29248">
        <ele>617.20001220703</ele>
        <time>2020-03-01T10:09:47.000Z</time>
      </trkpt>
      <trkpt lat="45.16361" lon="5.29247">
        <ele>617.40002441406</ele>
        <time>2020-03-01T10:09:48.000Z</time>
      </trkpt>
      <trkpt lat="45.16361" lon="5.29247">
        <ele>617.59997558594</ele>
        <time>2020-03-01T10:09:49.000Z</time>
      </trkpt>
      <trkpt lat="45.16359" lon="5.29245">
        <ele>617.79998779297</ele>
        <time>2020-03-01T10:09:50.000Z</time>
      </trkpt>
      <trkpt lat="45.16359" lon="5.29245">
        <ele>618</ele>
        <time>2020-03-01T10:09:51.000Z</time>
      </trkpt>
      <trkpt lat="45.16358" lon="5.29244">
        <ele>618.20001220703</ele>
        <time>2020-03-01T10:09:52.000Z</time>
      </trkpt>
      <trkpt lat="45.16357" lon="5.29243">
        <ele>618.20001220703</ele>
        <time>2020-03-01T10:09:53.000Z</time>
      </trkpt>
      <trkpt lat="45.16357" lon="5.29242">
        <ele>618.40002441406</ele>
        <time>2020-03-01T10:09:54.000Z</time>
      </trkpt>
      <trkpt lat="45.16356" lon="5.29242">
        <ele>618.59997558594</ele>
        <time>2020-03-01T10:09:55.000Z</time>
      </trkpt>
      <trkpt lat="45.16356" lon="5.2924">
        <ele>618.79998779297</ele>
        <time>2020-03-01T10:09:56.000Z</time>
      </trkpt>
      <trkpt lat="45.16355" lon="5.29239">
        <ele>619</ele>
        <time>2020-03-01T10:09:57.000Z</time>
      </trkpt>
      <trkpt lat="45.16354" lon="5.29237">
        <ele>619.20001220703</ele>
        <time>2020-03-01T10:09:58.000Z</time>
      </trkpt>
      <trkpt lat="45.16353" lon="5.29236">
        <ele>619.59997558594</ele>
        <time>2020-03-01T10:09:59.000Z</time>
      </trkpt>
      <trkpt lat="45.16353" lon="5.29234">
        <ele>619.59997558594</ele>
        <time>2020-03-01T10:10:00.000Z</time>
      </trkpt>
      <trkpt lat="45.16352" lon="5.29234">
        <ele>619.79998779297</ele>
        <time>2020-03-01T10:10:01.000Z</time>
      </trkpt>
      <trkpt lat="45.16352" lon="5.29233">
        <ele>620</ele>
        <time>2020-03-01T10:10:02.000Z</time>
      </trkpt>
      <trkpt lat="45.16352" lon="5.29232">
        <ele>620.20001220703</ele>
        <time>2020-03-01T10:10:03.000Z</time>
      </trkpt>
      <trkpt lat="45.16352" lon="5.29232">
        <ele>620.59997558594</ele>
        <time>2020-03-01T10:10:04.000Z</time>
      </trkpt>
      <trkpt lat="45.16352" lon="5.29232">
        <ele>620.79998779297</ele>
        <time>2020-03-01T10:10:05.000Z</time>
      </trkpt>
      <trkpt lat="45.16352" lon="5.29232">
        <ele>621</ele>
        <time>2020-03-01T10:10:06.000Z</time>
      </trkpt>
      <trkpt lat="45.16352" lon="5.29232">
        <ele>621</ele>
        <time>2020-03-01T10:10:07.000Z</time>
      </trkpt>
      <trkpt lat="45.16351" lon="5.2923">
        <ele>621.20001220703</ele>
        <time>2020-03-01T10:10:08.000Z</time>
      </trkpt>
      <trkpt lat="45.1635" lon="5.2923">
        <ele>621.59997558594</ele>
        <time>2020-03-01T10:10:09.000Z</time>
      </trkpt>
      <trkpt lat="45.1635" lon="5.29229">
        <ele>621.79998779297</ele>
        <time>2020-03-01T10:10:10.000Z</time>
      </trkpt>
      <trkpt lat="45.16349" lon="5.29229">
        <ele>622.20001220703</ele>
        <time>2020-03-01T10:10:11.000Z</time>
      </trkpt>
      <trkpt lat="45.16348" lon="5.29229">
        <ele>622.40002441406</ele>
        <time>2020-03-01T10:10:12.000Z</time>
      </trkpt>
      <trkpt lat="45.16348" lon="5.29228">
        <ele>622.40002441406</ele>
        <time>2020-03-01T10:10:13.000Z</time>
      </trkpt>
      <trkpt lat="45.16348" lon="5.29228">
        <ele>622.59997558594</ele>
        <time>2020-03-01T10:10:14.000Z</time>
      </trkpt>
      <trkpt lat="45.16347" lon="5.29227">
        <ele>622.59997558594</ele>
        <time>2020-03-01T10:10:15.000Z</time>
      </trkpt>
      <trkpt lat="45.16347" lon="5.29227">
        <ele>622.79998779297</ele>
        <time>2020-03-01T10:10:16.000Z</time>
      </trkpt>
      <trkpt lat="45.16347" lon="5.29227">
        <ele>623.20001220703</ele>
        <time>2020-03-01T10:10:17.000Z</time>
      </trkpt>
      <trkpt lat="45.16347" lon="5.29227">
        <ele>623.40002441406</ele>
        <time>2020-03-01T10:10:18.000Z</time>
      </trkpt>
      <trkpt lat="45.16347" lon="5.29227">
        <ele>623.59997558594</ele>
        <time>2020-03-01T10:10:19.000Z</time>
      </trkpt>
      <trkpt lat="45.16347" lon="5.29227">
        <ele>623.59997558594</ele>
        <time>2020-03-01T10:10:20.000Z</time>
      </trkpt>
      <trkpt lat="45.16347" lon="5.29227">
        <ele>623.79998779297</ele>
        <time>2020-03-01T10:10:21.000Z</time>
      </trkpt>
      <trkpt lat="45.16347" lon="5.29227">
        <ele>624</ele>
        <time>2020-03-01T10:10:22.000Z</time>
      </trkpt>
      <trkpt lat="45.16346" lon="5.29227">
        <ele>624.20001220703</ele>
        <time>2020-03-01T10:10:23.000Z</time>
      </trkpt>
      <trkpt lat="45.16345" lon="5.29226">
        <ele>624.20001220703</ele>
        <time>2020-03-01T10:10:24.000Z</time>
      </trkpt>
      <trkpt lat="45.16345" lon="5.29225">
        <ele>624.40002441406</ele>
        <time>2020-03-01T10:10:25.000Z</time>
      </trkpt>
      <trkpt lat="45.16344" lon="5.29224">
        <ele>624.59997558594</ele>
        <time>2020-03-01T10:10:26.000Z</time>
      </trkpt>
      <trkpt lat="45.16344" lon="5.29224">
        <ele>624.79998779297</ele>
        <time>2020-03-01T10:10:27.000Z</time>
      </trkpt>
      <trkpt lat="45.16344" lon="5.29224">
        <ele>625.20001220703</ele>
        <time>2020-03-01T10:10:28.000Z</time>
      </trkpt>
      <trkpt lat="45.16343" lon="5.29224">
        <ele>625.20001220703</ele>
        <time>2020-03-01T10:10:29.000Z</time>
      </trkpt>
      <trkpt lat="45.16342" lon="5.29224">
        <ele>625.40002441406</ele>
        <time>2020-03-01T10:10:30.000Z</time>
      </trkpt>
      <trkpt lat="45.16342" lon="5.29224">
        <ele>625.79998779297</ele>
        <time>2020-03-01T10:10:31.000Z</time>
      </trkpt>
      <trkpt lat="45.16341" lon="5.29225">
        <ele>626.20001220703</ele>
        <time>2020-03-01T10:10:32.000Z</time>
      </trkpt>
      <trkpt lat="45.16341" lon="5.29226">
        <ele>626.40002441406</ele>
        <time>2020-03-01T10:10:33.000Z</time>
      </trkpt>
      <trkpt lat="45.16341" lon="5.29227">
        <ele>626.59997558594</ele>
        <time>2020-03-01T10:10:34.000Z</time>
      </trkpt>
      <trkpt lat="45.1634" lon="5.29228">
        <ele>626.79998779297</ele>
        <time>2020-03-01T10:10:35.000Z</time>
      </trkpt>
      <trkpt lat="45.16339" lon="5.29229">
        <ele>627</ele>
        <time>2020-03-01T10:10:36.000Z</time>
      </trkpt>
      <trkpt lat="45.16338" lon="5.29229">
        <ele>627</ele>
        <time>2020-03-01T10:10:37.000Z</time>
      </trkpt>
      <trkpt lat="45.16337" lon="5.2923">
        <ele>627</ele>
        <time>2020-03-01T10:10:38.000Z</time>
      </trkpt>
      <trkpt lat="45.16336" lon="5.29231">
        <ele>627.20001220703</ele>
        <time>2020-03-01T10:10:39.000Z</time>
      </trkpt>
      <trkpt lat="45.16335" lon="5.29231">
        <ele>627.20001220703</ele>
        <time>2020-03-01T10:10:40.000Z</time>
      </trkpt>
      <trkpt lat="45.16334" lon="5.29234">
        <ele>627.40002441406</ele>
        <time>2020-03-01T10:10:41.000Z</time>
      </trkpt>
      <trkpt lat="45.16334" lon="5.29236">
        <ele>627.40002441406</ele>
        <time>2020-03-01T10:10:42.000Z</time>
      </trkpt>
      <trkpt lat="45.16333" lon="5.29237">
        <ele>627.59997558594</ele>
        <time>2020-03-01T10:10:43.000Z</time>
      </trkpt>
      <trkpt lat="45.16332" lon="5.29239">
        <ele>627.79998779297</ele>
        <time>2020-03-01T10:10:44.000Z</time>
      </trkpt>
      <trkpt lat="45.16331" lon="5.29241">
        <ele>627.79998779297</ele>
        <time>2020-03-01T10:10:45.000Z</time>
      </trkpt>
      <trkpt lat="45.1633" lon="5.29244">
        <ele>628</ele>
        <time>2020-03-01T10:10:46.000Z</time>
      </trkpt>
      <trkpt lat="45.16329" lon="5.29245">
        <ele>628</ele>
        <time>2020-03-01T10:10:47.000Z</time>
      </trkpt>
      <trkpt lat="45.1633" lon="5.29248">
        <ele>628</ele>
        <time>2020-03-01T10:10:48.000Z</time>
      </trkpt>
      <trkpt lat="45.1633" lon="5.29249">
        <ele>628</ele>
        <time>2020-03-01T10:10:49.000Z</time>
      </trkpt>
      <trkpt lat="45.16329" lon="5.29251">
        <ele>628.20001220703</ele>
        <time>2020-03-01T10:10:50.000Z</time>
      </trkpt>
      <trkpt lat="45.16329" lon="5.29254">
        <ele>628.20001220703</ele>
        <time>2020-03-01T10:10:51.000Z</time>
      </trkpt>
      <trkpt lat="45.16328" lon="5.29255">
        <ele>628.40002441406</ele>
        <time>2020-03-01T10:10:52.000Z</time>
      </trkpt>
      <trkpt lat="45.16328" lon="5.29257">
        <ele>628.59997558594</ele>
        <time>2020-03-01T10:10:53.000Z</time>
      </trkpt>
      <trkpt lat="45.16327" lon="5.29259">
        <ele>628.79998779297</ele>
        <time>2020-03-01T10:10:54.000Z</time>
      </trkpt>
      <trkpt lat="45.16327" lon="5.2926">
        <ele>629</ele>
        <time>2020-03-01T10:10:55.000Z</time>
      </trkpt>
      <trkpt lat="45.16326" lon="5.29262">
        <ele>629.20001220703</ele>
        <time>2020-03-01T10:10:56.000Z</time>
      </trkpt>
      <trkpt lat="45.16325" lon="5.29263">
        <ele>629.40002441406</ele>
        <time>2020-03-01T10:10:57.000Z</time>
      </trkpt>
      <trkpt lat="45.16324" lon="5.29264">
        <ele>629.59997558594</ele>
        <time>2020-03-01T10:10:58.000Z</time>
      </trkpt>
      <trkpt lat="45.16324" lon="5.29266">
        <ele>629.59997558594</ele>
        <time>2020-03-01T10:10:59.000Z</time>
      </trkpt>
      <trkpt lat="45.16324" lon="5.29267">
        <ele>629.79998779297</ele>
        <time>2020-03-01T10:11:00.000Z</time>
      </trkpt>
      <trkpt lat="45.16324" lon="5.29268">
        <ele>629.79998779297</ele>
        <time>2020-03-01T10:11:01.000Z</time>
      </trkpt>
      <trkpt lat="45.16324" lon="5.29269">
        <ele>630</ele>
        <time>2020-03-01T10:11:02.000Z</time>
      </trkpt>
      <trkpt lat="45.16323" lon="5.29271">
        <ele>629.79998779297</ele>
        <time>2020-03-01T10:11:03.000Z</time>
      </trkpt>
      <trkpt lat="45.16322" lon="5.29272">
        <ele>629.79998779297</ele>
        <time>2020-03-01T10:11:04.000Z</time>
      </trkpt>
      <trkpt lat="45.1632" lon="5.29274">
        <ele>629.79998779297</ele>
        <time>2020-03-01T10:11:05.000Z</time>
      </trkpt>
      <trkpt lat="45.16319" lon="5.29276">
        <ele>630</ele>
        <time>2020-03-01T10:11:06.000Z</time>
      </trkpt>
      <trkpt lat="45.16318" lon="5.29278">
        <ele>630.40002441406</ele>
        <time>2020-03-01T10:11:07.000Z</time>
      </trkpt>
      <trkpt lat="45.16316" lon="5.29281">
        <ele>630.79998779297</ele>
        <time>2020-03-01T10:11:08.000Z</time>
      </trkpt>
      <trkpt lat="45.16316" lon="5.29283">
        <ele>631</ele>
        <time>2020-03-01T10:11:09.000Z</time>
      </trkpt>
      <trkpt lat="45.16315" lon="5.29285">
        <ele>631.20001220703</ele>
        <time>2020-03-01T10:11:10.000Z</time>
      </trkpt>
      <trkpt lat="45.16314" lon="5.29287">
        <ele>631.20001220703</ele>
        <time>2020-03-01T10:11:11.000Z</time>
      </trkpt>
      <trkpt lat="45.16314" lon="5.29289">
        <ele>631.20001220703</ele>
        <time>2020-03-01T10:11:12.000Z</time>
      </trkpt>
      <trkpt lat="45.16313" lon="5.29291">
        <ele>631.20001220703</ele>
        <time>2020-03-01T10:11:13.000Z</time>
      </trkpt>
      <trkpt lat="45.16313" lon="5.29292">
        <ele>631.20001220703</ele>
        <time>2020-03-01T10:11:14.000Z</time>
      </trkpt>
      <trkpt lat="45.16313" lon="5.29294">
        <ele>631.40002441406</ele>
        <time>2020-03-01T10:11:15.000Z</time>
      </trkpt>
      <trkpt lat="45.16311" lon="5.29295">
        <ele>631.40002441406</ele>
        <time>2020-03-01T10:11:16.000Z</time>
      </trkpt>
      <trkpt lat="45.16311" lon="5.29296">
        <ele>631.40002441406</ele>
        <time>2020-03-01T10:11:17.000Z</time>
      </trkpt>
      <trkpt lat="45.16311" lon="5.29298">
        <ele>631.59997558594</ele>
        <time>2020-03-01T10:11:18.000Z</time>
      </trkpt>
      <trkpt lat="45.16311" lon="5.293">
        <ele>631.79998779297</ele>
        <time>2020-03-01T10:11:19.000Z</time>
      </trkpt>
      <trkpt lat="45.16312" lon="5.29302">
        <ele>631.79998779297</ele>
        <time>2020-03-01T10:11:20.000Z</time>
      </trkpt>
      <trkpt lat="45.16312" lon="5.29303">
        <ele>631.79998779297</ele>
        <time>2020-03-01T10:11:21.000Z</time>
      </trkpt>
      <trkpt lat="45.16312" lon="5.29304">
        <ele>632</ele>
        <time>2020-03-01T10:11:22.000Z</time>
      </trkpt>
      <trkpt lat="45.16312" lon="5.29306">
        <ele>632</ele>
        <time>2020-03-01T10:11:23.000Z</time>
      </trkpt>
      <trkpt lat="45.16312" lon="5.29307">
        <ele>632.20001220703</ele>
        <time>2020-03-01T10:11:24.000Z</time>
      </trkpt>
      <trkpt lat="45.16312" lon="5.29309">
        <ele>632.40002441406</ele>
        <time>2020-03-01T10:11:25.000Z</time>
      </trkpt>
      <trkpt lat="45.16312" lon="5.29311">
        <ele>632.79998779297</ele>
        <time>2020-03-01T10:11:26.000Z</time>
      </trkpt>
      <trkpt lat="45.16313" lon="5.29312">
        <ele>633</ele>
        <time>2020-03-01T10:11:27.000Z</time>
      </trkpt>
      <trkpt lat="45.16312" lon="5.29314">
        <ele>633.40002441406</ele>
        <time>2020-03-01T10:11:28.000Z</time>
      </trkpt>
      <trkpt lat="45.16312" lon="5.29315">
        <ele>633.40002441406</ele>
        <time>2020-03-01T10:11:29.000Z</time>
      </trkpt>
      <trkpt lat="45.16313" lon="5.29316">
        <ele>633.59997558594</ele>
        <time>2020-03-01T10:11:30.000Z</time>
      </trkpt>
      <trkpt lat="45.16312" lon="5.29317">
        <ele>633.79998779297</ele>
        <time>2020-03-01T10:11:31.000Z</time>
      </trkpt>
      <trkpt lat="45.16312" lon="5.29319">
        <ele>634</ele>
        <time>2020-03-01T10:11:32.000Z</time>
      </trkpt>
      <trkpt lat="45.16312" lon="5.29321">
        <ele>634.20001220703</ele>
        <time>2020-03-01T10:11:33.000Z</time>
      </trkpt>
      <trkpt lat="45.16311" lon="5.29322">
        <ele>634.20001220703</ele>
        <time>2020-03-01T10:11:34.000Z</time>
      </trkpt>
      <trkpt lat="45.16312" lon="5.29323">
        <ele>634.40002441406</ele>
        <time>2020-03-01T10:11:35.000Z</time>
      </trkpt>
      <trkpt lat="45.16311" lon="5.29325">
        <ele>634.59997558594</ele>
        <time>2020-03-01T10:11:36.000Z</time>
      </trkpt>
      <trkpt lat="45.16311" lon="5.29326">
        <ele>634.59997558594</ele>
        <time>2020-03-01T10:11:37.000Z</time>
      </trkpt>
      <trkpt lat="45.16312" lon="5.29328">
        <ele>634.59997558594</ele>
        <time>2020-03-01T10:11:38.000Z</time>
      </trkpt>
      <trkpt lat="45.16312" lon="5.2933">
        <ele>634.79998779297</ele>
        <time>2020-03-01T10:11:39.000Z</time>
      </trkpt>
      <trkpt lat="45.16313" lon="5.29332">
        <ele>634.79998779297</ele>
        <time>2020-03-01T10:11:40.000Z</time>
      </trkpt>
      <trkpt lat="45.16314" lon="5.29334">
        <ele>635</ele>
        <time>2020-03-01T10:11:41.000Z</time>
      </trkpt>
      <trkpt lat="45.16314" lon="5.29335">
        <ele>635.20001220703</ele>
        <time>2020-03-01T10:11:42.000Z</time>
      </trkpt>
      <trkpt lat="45.16315" lon="5.29336">
        <ele>635.59997558594</ele>
        <time>2020-03-01T10:11:43.000Z</time>
      </trkpt>
      <trkpt lat="45.16316" lon="5.29337">
        <ele>635.79998779297</ele>
        <time>2020-03-01T10:11:44.000Z</time>
      </trkpt>
      <trkpt lat="45.16317" lon="5.29338">
        <ele>636</ele>
        <time>2020-03-01T10:11:45.000Z</time>
      </trkpt>
      <trkpt lat="45.16318" lon="5.29339">
        <ele>636</ele>
        <time>2020-03-01T10:11:46.000Z</time>
      </trkpt>
      <trkpt lat="45.16319" lon="5.29339">
        <ele>636.20001220703</ele>
        <time>2020-03-01T10:11:47.000Z</time>
      </trkpt>
      <trkpt lat="45.16319" lon="5.29341">
        <ele>636.40002441406</ele>
        <time>2020-03-01T10:11:48.000Z</time>
      </trkpt>
      <trkpt lat="45.1632" lon="5.29342">
        <ele>636.40002441406</ele>
        <time>2020-03-01T10:11:49.000Z</time>
      </trkpt>
      <trkpt lat="45.1632" lon="5.29344">
        <ele>636.59997558594</ele>
        <time>2020-03-01T10:11:50.000Z</time>
      </trkpt>
      <trkpt lat="45.1632" lon="5.29345">
        <ele>636.59997558594</ele>
        <time>2020-03-01T10:11:51.000Z</time>
      </trkpt>
      <trkpt lat="45.16321" lon="5.29346">
        <ele>636.79998779297</ele>
        <time>2020-03-01T10:11:52.000Z</time>
      </trkpt>
      <trkpt lat="45.16322" lon="5.29347">
        <ele>636.79998779297</ele>
        <time>2020-03-01T10:11:53.000Z</time>
      </trkpt>
      <trkpt lat="45.16323" lon="5.29348">
        <ele>636.79998779297</ele>
        <time>2020-03-01T10:11:54.000Z</time>
      </trkpt>
      <trkpt lat="45.16324" lon="5.2935">
        <ele>637.20001220703</ele>
        <time>2020-03-01T10:11:55.000Z</time>
      </trkpt>
      <trkpt lat="45.16325" lon="5.29351">
        <ele>637.40002441406</ele>
        <time>2020-03-01T10:11:56.000Z</time>
      </trkpt>
      <trkpt lat="45.16326" lon="5.29352">
        <ele>637.59997558594</ele>
        <time>2020-03-01T10:11:57.000Z</time>
      </trkpt>
      <trkpt lat="45.16327" lon="5.29353">
        <ele>637.79998779297</ele>
        <time>2020-03-01T10:11:58.000Z</time>
      </trkpt>
      <trkpt lat="45.16328" lon="5.29355">
        <ele>638</ele>
        <time>2020-03-01T10:11:59.000Z</time>
      </trkpt>
      <trkpt lat="45.16329" lon="5.29356">
        <ele>638</ele>
        <time>2020-03-01T10:12:00.000Z</time>
      </trkpt>
      <trkpt lat="45.1633" lon="5.29358">
        <ele>638</ele>
        <time>2020-03-01T10:12:01.000Z</time>
      </trkpt>
      <trkpt lat="45.1633" lon="5.2936">
        <ele>638.20001220703</ele>
        <time>2020-03-01T10:12:02.000Z</time>
      </trkpt>
      <trkpt lat="45.16331" lon="5.29362">
        <ele>638.40002441406</ele>
        <time>2020-03-01T10:12:03.000Z</time>
      </trkpt>
      <trkpt lat="45.16332" lon="5.29364">
        <ele>638.59997558594</ele>
        <time>2020-03-01T10:12:04.000Z</time>
      </trkpt>
      <trkpt lat="45.16333" lon="5.29365">
        <ele>639</ele>
        <time>2020-03-01T10:12:05.000Z</time>
      </trkpt>
      <trkpt lat="45.16333" lon="5.29367">
        <ele>639.20001220703</ele>
        <time>2020-03-01T10:12:06.000Z</time>
      </trkpt>
      <trkpt lat="45.16333" lon="5.29368">
        <ele>639.40002441406</ele>
        <time>2020-03-01T10:12:07.000Z</time>
      </trkpt>
      <trkpt lat="45.16333" lon="5.29369">
        <ele>639.40002441406</ele>
        <time>2020-03-01T10:12:08.000Z</time>
      </trkpt>
      <trkpt lat="45.16333" lon="5.2937">
        <ele>639.59997558594</ele>
        <time>2020-03-01T10:12:09.000Z</time>
      </trkpt>
      <trkpt lat="45.16333" lon="5.29372">
        <ele>639.79998779297</ele>
        <time>2020-03-01T10:12:10.000Z</time>
      </trkpt>
      <trkpt lat="45.16333" lon="5.29373">
        <ele>639.79998779297</ele>
        <time>2020-03-01T10:12:11.000Z</time>
      </trkpt>
      <trkpt lat="45.16333" lon="5.29374">
        <ele>640</ele>
        <time>2020-03-01T10:12:12.000Z</time>
      </trkpt>
      <trkpt lat="45.16333" lon="5.29375">
        <ele>640</ele>
        <time>2020-03-01T10:12:13.000Z</time>
      </trkpt>
      <trkpt lat="45.16334" lon="5.29377">
        <ele>640</ele>
        <time>2020-03-01T10:12:14.000Z</time>
      </trkpt>
      <trkpt lat="45.16335" lon="5.29379">
        <ele>640.20001220703</ele>
        <time>2020-03-01T10:12:15.000Z</time>
      </trkpt>
      <trkpt lat="45.16335" lon="5.29381">
        <ele>640.40002441406</ele>
        <time>2020-03-01T10:12:16.000Z</time>
      </trkpt>
      <trkpt lat="45.16336" lon="5.29383">
        <ele>640.59997558594</ele>
        <time>2020-03-01T10:12:17.000Z</time>
      </trkpt>
      <trkpt lat="45.16337" lon="5.29385">
        <ele>640.79998779297</ele>
        <time>2020-03-01T10:12:18.000Z</time>
      </trkpt>
      <trkpt lat="45.16337" lon="5.29386">
        <ele>640.79998779297</ele>
        <time>2020-03-01T10:12:19.000Z</time>
      </trkpt>
      <trkpt lat="45.16338" lon="5.29387">
        <ele>641.20001220703</ele>
        <time>2020-03-01T10:12:20.000Z</time>
      </trkpt>
      <trkpt lat="45.16339" lon="5.2939">
        <ele>641.40002441406</ele>
        <time>2020-03-01T10:12:21.000Z</time>
      </trkpt>
      <trkpt lat="45.16339" lon="5.29391">
        <ele>641.79998779297</ele>
        <time>2020-03-01T10:12:22.000Z</time>
      </trkpt>
      <trkpt lat="45.16339" lon="5.29392">
        <ele>642</ele>
        <time>2020-03-01T10:12:23.000Z</time>
      </trkpt>
      <trkpt lat="45.1634" lon="5.29394">
        <ele>642.20001220703</ele>
        <time>2020-03-01T10:12:24.000Z</time>
      </trkpt>
      <trkpt lat="45.1634" lon="5.29395">
        <ele>642.59997558594</ele>
        <time>2020-03-01T10:12:25.000Z</time>
      </trkpt>
      <trkpt lat="45.16341" lon="5.29397">
        <ele>642.79998779297</ele>
        <time>2020-03-01T10:12:26.000Z</time>
      </trkpt>
      <trkpt lat="45.16341" lon="5.29398">
        <ele>643</ele>
        <time>2020-03-01T10:12:27.000Z</time>
      </trkpt>
      <trkpt lat="45.16341" lon="5.29399">
        <ele>643.20001220703</ele>
        <time>2020-03-01T10:12:28.000Z</time>
      </trkpt>
      <trkpt lat="45.16341" lon="5.294">
        <ele>643.40002441406</ele>
        <time>2020-03-01T10:12:29.000Z</time>
      </trkpt>
      <trkpt lat="45.16341" lon="5.29402">
        <ele>643.59997558594</ele>
        <time>2020-03-01T10:12:30.000Z</time>
      </trkpt>
      <trkpt lat="45.16342" lon="5.29403">
        <ele>643.79998779297</ele>
        <time>2020-03-01T10:12:31.000Z</time>
      </trkpt>
      <trkpt lat="45.16343" lon="5.29405">
        <ele>644</ele>
        <time>2020-03-01T10:12:32.000Z</time>
      </trkpt>
      <trkpt lat="45.16343" lon="5.29406">
        <ele>644.20001220703</ele>
        <time>2020-03-01T10:12:33.000Z</time>
      </trkpt>
      <trkpt lat="45.16343" lon="5.29407">
        <ele>644.40002441406</ele>
        <time>2020-03-01T10:12:34.000Z</time>
      </trkpt>
      <trkpt lat="45.16344" lon="5.29409">
        <ele>644.40002441406</ele>
        <time>2020-03-01T10:12:35.000Z</time>
      </trkpt>
      <trkpt lat="45.16344" lon="5.29411">
        <ele>644.59997558594</ele>
        <time>2020-03-01T10:12:36.000Z</time>
      </trkpt>
      <trkpt lat="45.16344" lon="5.29412">
        <ele>644.79998779297</ele>
        <time>2020-03-01T10:12:37.000Z</time>
      </trkpt>
      <trkpt lat="45.16344" lon="5.29414">
        <ele>645</ele>
        <time>2020-03-01T10:12:38.000Z</time>
      </trkpt>
      <trkpt lat="45.16344" lon="5.29416">
        <ele>645.20001220703</ele>
        <time>2020-03-01T10:12:39.000Z</time>
      </trkpt>
      <trkpt lat="45.16345" lon="5.29418">
        <ele>645.59997558594</ele>
        <time>2020-03-01T10:12:40.000Z</time>
      </trkpt>
      <trkpt lat="45.16346" lon="5.29419">
        <ele>646</ele>
        <time>2020-03-01T10:12:41.000Z</time>
      </trkpt>
      <trkpt lat="45.16346" lon="5.29421">
        <ele>646.20001220703</ele>
        <time>2020-03-01T10:12:42.000Z</time>
      </trkpt>
      <trkpt lat="45.16346" lon="5.29424">
        <ele>646.40002441406</ele>
        <time>2020-03-01T10:12:43.000Z</time>
      </trkpt>
      <trkpt lat="45.16346" lon="5.29426">
        <ele>646.59997558594</ele>
        <time>2020-03-01T10:12:44.000Z</time>
      </trkpt>
      <trkpt lat="45.16346" lon="5.29428">
        <ele>647</ele>
        <time>2020-03-01T10:12:45.000Z</time>
      </trkpt>
      <trkpt lat="45.16346" lon="5.2943">
        <ele>647</ele>
        <time>2020-03-01T10:12:46.000Z</time>
      </trkpt>
      <trkpt lat="45.16346" lon="5.29431">
        <ele>647.20001220703</ele>
        <time>2020-03-01T10:12:47.000Z</time>
      </trkpt>
      <trkpt lat="45.16346" lon="5.29432">
        <ele>647.40002441406</ele>
        <time>2020-03-01T10:12:48.000Z</time>
      </trkpt>
      <trkpt lat="45.16346" lon="5.29434">
        <ele>647.59997558594</ele>
        <time>2020-03-01T10:12:49.000Z</time>
      </trkpt>
      <trkpt lat="45.16346" lon="5.29435">
        <ele>647.79998779297</ele>
        <time>2020-03-01T10:12:50.000Z</time>
      </trkpt>
      <trkpt lat="45.16346" lon="5.29436">
        <ele>647.79998779297</ele>
        <time>2020-03-01T10:12:51.000Z</time>
      </trkpt>
      <trkpt lat="45.16347" lon="5.29438">
        <ele>648</ele>
        <time>2020-03-01T10:12:52.000Z</time>
      </trkpt>
      <trkpt lat="45.16348" lon="5.2944">
        <ele>648</ele>
        <time>2020-03-01T10:12:53.000Z</time>
      </trkpt>
      <trkpt lat="45.16348" lon="5.29443">
        <ele>648.20001220703</ele>
        <time>2020-03-01T10:12:54.000Z</time>
      </trkpt>
      <trkpt lat="45.16349" lon="5.29444">
        <ele>648.40002441406</ele>
        <time>2020-03-01T10:12:55.000Z</time>
      </trkpt>
      <trkpt lat="45.16349" lon="5.29446">
        <ele>648.59997558594</ele>
        <time>2020-03-01T10:12:56.000Z</time>
      </trkpt>
      <trkpt lat="45.1635" lon="5.29447">
        <ele>648.79998779297</ele>
        <time>2020-03-01T10:12:57.000Z</time>
      </trkpt>
      <trkpt lat="45.1635" lon="5.29449">
        <ele>649</ele>
        <time>2020-03-01T10:12:58.000Z</time>
      </trkpt>
      <trkpt lat="45.1635" lon="5.29451">
        <ele>649</ele>
        <time>2020-03-01T10:12:59.000Z</time>
      </trkpt>
      <trkpt lat="45.16351" lon="5.29453">
        <ele>649.20001220703</ele>
        <time>2020-03-01T10:13:00.000Z</time>
      </trkpt>
      <trkpt lat="45.16351" lon="5.29455">
        <ele>649.40002441406</ele>
        <time>2020-03-01T10:13:01.000Z</time>
      </trkpt>
      <trkpt lat="45.16352" lon="5.29457">
        <ele>649.59997558594</ele>
        <time>2020-03-01T10:13:02.000Z</time>
      </trkpt>
      <trkpt lat="45.16352" lon="5.29458">
        <ele>649.79998779297</ele>
        <time>2020-03-01T10:13:03.000Z</time>
      </trkpt>
      <trkpt lat="45.16353" lon="5.2946">
        <ele>650</ele>
        <time>2020-03-01T10:13:04.000Z</time>
      </trkpt>
      <trkpt lat="45.16354" lon="5.29462">
        <ele>650</ele>
        <time>2020-03-01T10:13:05.000Z</time>
      </trkpt>
      <trkpt lat="45.16354" lon="5.29464">
        <ele>650.20001220703</ele>
        <time>2020-03-01T10:13:06.000Z</time>
      </trkpt>
      <trkpt lat="45.16354" lon="5.29466">
        <ele>650.20001220703</ele>
        <time>2020-03-01T10:13:07.000Z</time>
      </trkpt>
      <trkpt lat="45.16355" lon="5.29467">
        <ele>650.20001220703</ele>
        <time>2020-03-01T10:13:08.000Z</time>
      </trkpt>
      <trkpt lat="45.16355" lon="5.29469">
        <ele>650.20001220703</ele>
        <time>2020-03-01T10:13:09.000Z</time>
      </trkpt>
      <trkpt lat="45.16356" lon="5.29471">
        <ele>650.20001220703</ele>
        <time>2020-03-01T10:13:10.000Z</time>
      </trkpt>
      <trkpt lat="45.16357" lon="5.29473">
        <ele>650.40002441406</ele>
        <time>2020-03-01T10:13:11.000Z</time>
      </trkpt>
      <trkpt lat="45.16357" lon="5.29475">
        <ele>650.59997558594</ele>
        <time>2020-03-01T10:13:12.000Z</time>
      </trkpt>
      <trkpt lat="45.16358" lon="5.29478">
        <ele>650.59997558594</ele>
        <time>2020-03-01T10:13:13.000Z</time>
      </trkpt>
      <trkpt lat="45.16358" lon="5.2948">
        <ele>650.59997558594</ele>
        <time>2020-03-01T10:13:14.000Z</time>
      </trkpt>
      <trkpt lat="45.16359" lon="5.29483">
        <ele>650.59997558594</ele>
        <time>2020-03-01T10:13:15.000Z</time>
      </trkpt>
      <trkpt lat="45.16359" lon="5.29485">
        <ele>650.79998779297</ele>
        <time>2020-03-01T10:13:16.000Z</time>
      </trkpt>
      <trkpt lat="45.1636" lon="5.29488">
        <ele>651</ele>
        <time>2020-03-01T10:13:17.000Z</time>
      </trkpt>
      <trkpt lat="45.16361" lon="5.2949">
        <ele>651.20001220703</ele>
        <time>2020-03-01T10:13:18.000Z</time>
      </trkpt>
      <trkpt lat="45.16362" lon="5.29493">
        <ele>651.20001220703</ele>
        <time>2020-03-01T10:13:19.000Z</time>
      </trkpt>
      <trkpt lat="45.16364" lon="5.29495">
        <ele>651.59997558594</ele>
        <time>2020-03-01T10:13:20.000Z</time>
      </trkpt>
      <trkpt lat="45.16366" lon="5.29497">
        <ele>652</ele>
        <time>2020-03-01T10:13:21.000Z</time>
      </trkpt>
      <trkpt lat="45.16367" lon="5.29499">
        <ele>652</ele>
        <time>2020-03-01T10:13:22.000Z</time>
      </trkpt>
      <trkpt lat="45.16367" lon="5.29502">
        <ele>652</ele>
        <time>2020-03-01T10:13:23.000Z</time>
      </trkpt>
      <trkpt lat="45.16368" lon="5.29504">
        <ele>652.20001220703</ele>
        <time>2020-03-01T10:13:24.000Z</time>
      </trkpt>
      <trkpt lat="45.16368" lon="5.29506">
        <ele>652.40002441406</ele>
        <time>2020-03-01T10:13:25.000Z</time>
      </trkpt>
      <trkpt lat="45.16369" lon="5.29509">
        <ele>652.40002441406</ele>
        <time>2020-03-01T10:13:26.000Z</time>
      </trkpt>
      <trkpt lat="45.16369" lon="5.29511">
        <ele>652.59997558594</ele>
        <time>2020-03-01T10:13:27.000Z</time>
      </trkpt>
      <trkpt lat="45.16369" lon="5.29514">
        <ele>652.59997558594</ele>
        <time>2020-03-01T10:13:28.000Z</time>
      </trkpt>
      <trkpt lat="45.16369" lon="5.29517">
        <ele>652.59997558594</ele>
        <time>2020-03-01T10:13:29.000Z</time>
      </trkpt>
      <trkpt lat="45.16369" lon="5.29519">
        <ele>652.40002441406</ele>
        <time>2020-03-01T10:13:30.000Z</time>
      </trkpt>
      <trkpt lat="45.16369" lon="5.29521">
        <ele>652.40002441406</ele>
        <time>2020-03-01T10:13:31.000Z</time>
      </trkpt>
      <trkpt lat="45.16369" lon="5.29523">
        <ele>652.20001220703</ele>
        <time>2020-03-01T10:13:32.000Z</time>
      </trkpt>
      <trkpt lat="45.16369" lon="5.29526">
        <ele>652</ele>
        <time>2020-03-01T10:13:33.000Z</time>
      </trkpt>
      <trkpt lat="45.16369" lon="5.29528">
        <ele>652</ele>
        <time>2020-03-01T10:13:34.000Z</time>
      </trkpt>
      <trkpt lat="45.16369" lon="5.29531">
        <ele>652</ele>
        <time>2020-03-01T10:13:35.000Z</time>
      </trkpt>
      <trkpt lat="45.16369" lon="5.29534">
        <ele>652</ele>
        <time>2020-03-01T10:13:36.000Z</time>
      </trkpt>
      <trkpt lat="45.1637" lon="5.29537">
        <ele>652</ele>
        <time>2020-03-01T10:13:37.000Z</time>
      </trkpt>
      <trkpt lat="45.16371" lon="5.29539">
        <ele>652</ele>
        <time>2020-03-01T10:13:38.000Z</time>
      </trkpt>
      <trkpt lat="45.16372" lon="5.29541">
        <ele>652.20001220703</ele>
        <time>2020-03-01T10:13:39.000Z</time>
      </trkpt>
      <trkpt lat="45.16372" lon="5.29544">
        <ele>652.20001220703</ele>
        <time>2020-03-01T10:13:40.000Z</time>
      </trkpt>
      <trkpt lat="45.16373" lon="5.29546">
        <ele>652.40002441406</ele>
        <time>2020-03-01T10:13:41.000Z</time>
      </trkpt>
      <trkpt lat="45.16373" lon="5.29548">
        <ele>652.40002441406</ele>
        <time>2020-03-01T10:13:42.000Z</time>
      </trkpt>
      <trkpt lat="45.16374" lon="5.29551">
        <ele>652.40002441406</ele>
        <time>2020-03-01T10:13:43.000Z</time>
      </trkpt>
      <trkpt lat="45.16374" lon="5.29553">
        <ele>652.20001220703</ele>
        <time>2020-03-01T10:13:44.000Z</time>
      </trkpt>
      <trkpt lat="45.16375" lon="5.29555">
        <ele>652.20001220703</ele>
        <time>2020-03-01T10:13:45.000Z</time>
      </trkpt>
      <trkpt lat="45.16376" lon="5.29557">
        <ele>652.20001220703</ele>
        <time>2020-03-01T10:13:46.000Z</time>
      </trkpt>
      <trkpt lat="45.16377" lon="5.29559">
        <ele>652.40002441406</ele>
        <time>2020-03-01T10:13:47.000Z</time>
      </trkpt>
      <trkpt lat="45.16378" lon="5.29561">
        <ele>652.59997558594</ele>
        <time>2020-03-01T10:13:48.000Z</time>
      </trkpt>
      <trkpt lat="45.16379" lon="5.29563">
        <ele>652.79998779297</ele>
        <time>2020-03-01T10:13:49.000Z</time>
      </trkpt>
      <trkpt lat="45.1638" lon="5.29566">
        <ele>653</ele>
        <time>2020-03-01T10:13:50.000Z</time>
      </trkpt>
      <trkpt lat="45.16381" lon="5.29567">
        <ele>653.20001220703</ele>
        <time>2020-03-01T10:13:51.000Z</time>
      </trkpt>
      <trkpt lat="45.16383" lon="5.29569">
        <ele>653.20001220703</ele>
        <time>2020-03-01T10:13:52.000Z</time>
      </trkpt>
      <trkpt lat="45.16384" lon="5.2957">
        <ele>653.59997558594</ele>
        <time>2020-03-01T10:13:53.000Z</time>
      </trkpt>
      <trkpt lat="45.16385" lon="5.29572">
        <ele>653.40002441406</ele>
        <time>2020-03-01T10:13:54.000Z</time>
      </trkpt>
      <trkpt lat="45.16387" lon="5.29574">
        <ele>653.59997558594</ele>
        <time>2020-03-01T10:13:55.000Z</time>
      </trkpt>
      <trkpt lat="45.16388" lon="5.29577">
        <ele>653.79998779297</ele>
        <time>2020-03-01T10:13:56.000Z</time>
      </trkpt>
      <trkpt lat="45.16389" lon="5.2958">
        <ele>654.20001220703</ele>
        <time>2020-03-01T10:13:57.000Z</time>
      </trkpt>
      <trkpt lat="45.1639" lon="5.29582">
        <ele>654.40002441406</ele>
        <time>2020-03-01T10:13:58.000Z</time>
      </trkpt>
      <trkpt lat="45.16391" lon="5.29585">
        <ele>654.59997558594</ele>
        <time>2020-03-01T10:13:59.000Z</time>
      </trkpt>
      <trkpt lat="45.16392" lon="5.29588">
        <ele>654.59997558594</ele>
        <time>2020-03-01T10:14:00.000Z</time>
      </trkpt>
      <trkpt lat="45.16393" lon="5.29589">
        <ele>654.59997558594</ele>
        <time>2020-03-01T10:14:01.000Z</time>
      </trkpt>
      <trkpt lat="45.16394" lon="5.29591">
        <ele>654.59997558594</ele>
        <time>2020-03-01T10:14:02.000Z</time>
      </trkpt>
      <trkpt lat="45.16395" lon="5.29593">
        <ele>654.59997558594</ele>
        <time>2020-03-01T10:14:03.000Z</time>
      </trkpt>
      <trkpt lat="45.16395" lon="5.29596">
        <ele>654.79998779297</ele>
        <time>2020-03-01T10:14:04.000Z</time>
      </trkpt>
      <trkpt lat="45.16396" lon="5.29599">
        <ele>655</ele>
        <time>2020-03-01T10:14:05.000Z</time>
      </trkpt>
      <trkpt lat="45.16397" lon="5.296">
        <ele>655.40002441406</ele>
        <time>2020-03-01T10:14:06.000Z</time>
      </trkpt>
      <trkpt lat="45.16397" lon="5.29603">
        <ele>655.20001220703</ele>
        <time>2020-03-01T10:14:07.000Z</time>
      </trkpt>
      <trkpt lat="45.16398" lon="5.29605">
        <ele>655.40002441406</ele>
        <time>2020-03-01T10:14:08.000Z</time>
      </trkpt>
      <trkpt lat="45.164" lon="5.29608">
        <ele>655.59997558594</ele>
        <time>2020-03-01T10:14:09.000Z</time>
      </trkpt>
      <trkpt lat="45.16401" lon="5.29611">
        <ele>655.79998779297</ele>
        <time>2020-03-01T10:14:10.000Z</time>
      </trkpt>
      <trkpt lat="45.16402" lon="5.29613">
        <ele>656</ele>
        <time>2020-03-01T10:14:11.000Z</time>
      </trkpt>
      <trkpt lat="45.16404" lon="5.29615">
        <ele>656</ele>
        <time>2020-03-01T10:14:12.000Z</time>
      </trkpt>
      <trkpt lat="45.16406" lon="5.29617">
        <ele>656.20001220703</ele>
        <time>2020-03-01T10:14:13.000Z</time>
      </trkpt>
      <trkpt lat="45.16406" lon="5.29619">
        <ele>656.20001220703</ele>
        <time>2020-03-01T10:14:14.000Z</time>
      </trkpt>
      <trkpt lat="45.16408" lon="5.29622">
        <ele>656.20001220703</ele>
        <time>2020-03-01T10:14:15.000Z</time>
      </trkpt>
      <trkpt lat="45.16409" lon="5.29625">
        <ele>656.20001220703</ele>
        <time>2020-03-01T10:14:16.000Z</time>
      </trkpt>
      <trkpt lat="45.1641" lon="5.29628">
        <ele>656.20001220703</ele>
        <time>2020-03-01T10:14:17.000Z</time>
      </trkpt>
      <trkpt lat="45.16412" lon="5.2963">
        <ele>656.20001220703</ele>
        <time>2020-03-01T10:14:18.000Z</time>
      </trkpt>
      <trkpt lat="45.16413" lon="5.29633">
        <ele>656.20001220703</ele>
        <time>2020-03-01T10:14:19.000Z</time>
      </trkpt>
      <trkpt lat="45.16415" lon="5.29636">
        <ele>656.40002441406</ele>
        <time>2020-03-01T10:14:20.000Z</time>
      </trkpt>
      <trkpt lat="45.16416" lon="5.29638">
        <ele>656.59997558594</ele>
        <time>2020-03-01T10:14:21.000Z</time>
      </trkpt>
      <trkpt lat="45.16418" lon="5.2964">
        <ele>656.59997558594</ele>
        <time>2020-03-01T10:14:22.000Z</time>
      </trkpt>
      <trkpt lat="45.16419" lon="5.29642">
        <ele>656.59997558594</ele>
        <time>2020-03-01T10:14:23.000Z</time>
      </trkpt>
      <trkpt lat="45.1642" lon="5.29645">
        <ele>656.79998779297</ele>
        <time>2020-03-01T10:14:24.000Z</time>
      </trkpt>
      <trkpt lat="45.16421" lon="5.29648">
        <ele>657</ele>
        <time>2020-03-01T10:14:25.000Z</time>
      </trkpt>
      <trkpt lat="45.16421" lon="5.2965">
        <ele>657</ele>
        <time>2020-03-01T10:14:26.000Z</time>
      </trkpt>
      <trkpt lat="45.16422" lon="5.29652">
        <ele>657.20001220703</ele>
        <time>2020-03-01T10:14:27.000Z</time>
      </trkpt>
      <trkpt lat="45.16423" lon="5.29655">
        <ele>657.40002441406</ele>
        <time>2020-03-01T10:14:28.000Z</time>
      </trkpt>
      <trkpt lat="45.16423" lon="5.29658">
        <ele>657.59997558594</ele>
        <time>2020-03-01T10:14:29.000Z</time>
      </trkpt>
      <trkpt lat="45.16424" lon="5.2966">
        <ele>657.79998779297</ele>
        <time>2020-03-01T10:14:30.000Z</time>
      </trkpt>
      <trkpt lat="45.16425" lon="5.29663">
        <ele>657.79998779297</ele>
        <time>2020-03-01T10:14:31.000Z</time>
      </trkpt>
      <trkpt lat="45.16426" lon="5.29664">
        <ele>657.79998779297</ele>
        <time>2020-03-01T10:14:32.000Z</time>
      </trkpt>
      <trkpt lat="45.16427" lon="5.29666">
        <ele>658</ele>
        <time>2020-03-01T10:14:33.000Z</time>
      </trkpt>
      <trkpt lat="45.16427" lon="5.29668">
        <ele>658</ele>
        <time>2020-03-01T10:14:34.000Z</time>
      </trkpt>
      <trkpt lat="45.16428" lon="5.2967">
        <ele>658</ele>
        <time>2020-03-01T10:14:35.000Z</time>
      </trkpt>
      <trkpt lat="45.16429" lon="5.29673">
        <ele>658</ele>
        <time>2020-03-01T10:14:36.000Z</time>
      </trkpt>
      <trkpt lat="45.1643" lon="5.29675">
        <ele>658</ele>
        <time>2020-03-01T10:14:37.000Z</time>
      </trkpt>
      <trkpt lat="45.16431" lon="5.29677">
        <ele>658.20001220703</ele>
        <time>2020-03-01T10:14:38.000Z</time>
      </trkpt>
      <trkpt lat="45.16432" lon="5.2968">
        <ele>658.20001220703</ele>
        <time>2020-03-01T10:14:39.000Z</time>
      </trkpt>
      <trkpt lat="45.16431" lon="5.29681">
        <ele>658.20001220703</ele>
        <time>2020-03-01T10:14:40.000Z</time>
      </trkpt>
      <trkpt lat="45.16432" lon="5.29683">
        <ele>658.20001220703</ele>
        <time>2020-03-01T10:14:41.000Z</time>
      </trkpt>
      <trkpt lat="45.16432" lon="5.29685">
        <ele>658.40002441406</ele>
        <time>2020-03-01T10:14:42.000Z</time>
      </trkpt>
      <trkpt lat="45.16433" lon="5.29689">
        <ele>658.20001220703</ele>
        <time>2020-03-01T10:14:43.000Z</time>
      </trkpt>
      <trkpt lat="45.16433" lon="5.29691">
        <ele>658.20001220703</ele>
        <time>2020-03-01T10:14:44.000Z</time>
      </trkpt>
      <trkpt lat="45.16434" lon="5.29694">
        <ele>658.20001220703</ele>
        <time>2020-03-01T10:14:45.000Z</time>
      </trkpt>
      <trkpt lat="45.16435" lon="5.29696">
        <ele>658.20001220703</ele>
        <time>2020-03-01T10:14:46.000Z</time>
      </trkpt>
      <trkpt lat="45.16435" lon="5.29699">
        <ele>658.20001220703</ele>
        <time>2020-03-01T10:14:47.000Z</time>
      </trkpt>
      <trkpt lat="45.16436" lon="5.29701">
        <ele>658.40002441406</ele>
        <time>2020-03-01T10:14:48.000Z</time>
      </trkpt>
      <trkpt lat="45.16436" lon="5.29704">
        <ele>658.40002441406</ele>
        <time>2020-03-01T10:14:49.000Z</time>
      </trkpt>
      <trkpt lat="45.16436" lon="5.29705">
        <ele>658.59997558594</ele>
        <time>2020-03-01T10:14:50.000Z</time>
      </trkpt>
      <trkpt lat="45.16436" lon="5.29706">
        <ele>658.59997558594</ele>
        <time>2020-03-01T10:14:51.000Z</time>
      </trkpt>
      <trkpt lat="45.16437" lon="5.29708">
        <ele>659</ele>
        <time>2020-03-01T10:14:52.000Z</time>
      </trkpt>
      <trkpt lat="45.16439" lon="5.29712">
        <ele>659.20001220703</ele>
        <time>2020-03-01T10:14:53.000Z</time>
      </trkpt>
      <trkpt lat="45.1644" lon="5.29714">
        <ele>659.20001220703</ele>
        <time>2020-03-01T10:14:54.000Z</time>
      </trkpt>
      <trkpt lat="45.16441" lon="5.29716">
        <ele>659.20001220703</ele>
        <time>2020-03-01T10:14:55.000Z</time>
      </trkpt>
      <trkpt lat="45.16442" lon="5.29717">
        <ele>659.20001220703</ele>
        <time>2020-03-01T10:14:56.000Z</time>
      </trkpt>
      <trkpt lat="45.16443" lon="5.29718">
        <ele>659.20001220703</ele>
        <time>2020-03-01T10:14:57.000Z</time>
      </trkpt>
      <trkpt lat="45.16444" lon="5.2972">
        <ele>659.40002441406</ele>
        <time>2020-03-01T10:14:58.000Z</time>
      </trkpt>
      <trkpt lat="45.16445" lon="5.29722">
        <ele>659.40002441406</ele>
        <time>2020-03-01T10:14:59.000Z</time>
      </trkpt>
      <trkpt lat="45.16446" lon="5.29724">
        <ele>659.40002441406</ele>
        <time>2020-03-01T10:15:00.000Z</time>
      </trkpt>
      <trkpt lat="45.16446" lon="5.29726">
        <ele>659.79998779297</ele>
        <time>2020-03-01T10:15:01.000Z</time>
      </trkpt>
      <trkpt lat="45.16447" lon="5.29727">
        <ele>660</ele>
        <time>2020-03-01T10:15:02.000Z</time>
      </trkpt>
      <trkpt lat="45.16447" lon="5.29729">
        <ele>660</ele>
        <time>2020-03-01T10:15:03.000Z</time>
      </trkpt>
      <trkpt lat="45.16448" lon="5.29731">
        <ele>660.20001220703</ele>
        <time>2020-03-01T10:15:04.000Z</time>
      </trkpt>
      <trkpt lat="45.16448" lon="5.29732">
        <ele>660.20001220703</ele>
        <time>2020-03-01T10:15:05.000Z</time>
      </trkpt>
      <trkpt lat="45.16447" lon="5.29734">
        <ele>660.40002441406</ele>
        <time>2020-03-01T10:15:06.000Z</time>
      </trkpt>
      <trkpt lat="45.1645" lon="5.29735">
        <ele>660.59997558594</ele>
        <time>2020-03-01T10:15:07.000Z</time>
      </trkpt>
      <trkpt lat="45.1645" lon="5.29736">
        <ele>660.79998779297</ele>
        <time>2020-03-01T10:15:08.000Z</time>
      </trkpt>
      <trkpt lat="45.16451" lon="5.29737">
        <ele>660.79998779297</ele>
        <time>2020-03-01T10:15:09.000Z</time>
      </trkpt>
      <trkpt lat="45.16453" lon="5.29738">
        <ele>661</ele>
        <time>2020-03-01T10:15:10.000Z</time>
      </trkpt>
      <trkpt lat="45.16456" lon="5.29739">
        <ele>661</ele>
        <time>2020-03-01T10:15:11.000Z</time>
      </trkpt>
      <trkpt lat="45.16457" lon="5.29741">
        <ele>661.20001220703</ele>
        <time>2020-03-01T10:15:12.000Z</time>
      </trkpt>
      <trkpt lat="45.16458" lon="5.29742">
        <ele>661.40002441406</ele>
        <time>2020-03-01T10:15:13.000Z</time>
      </trkpt>
      <trkpt lat="45.16459" lon="5.29744">
        <ele>661.40002441406</ele>
        <time>2020-03-01T10:15:14.000Z</time>
      </trkpt>
      <trkpt lat="45.1646" lon="5.29746">
        <ele>661.40002441406</ele>
        <time>2020-03-01T10:15:15.000Z</time>
      </trkpt>
      <trkpt lat="45.16462" lon="5.29749">
        <ele>661.59997558594</ele>
        <time>2020-03-01T10:15:16.000Z</time>
      </trkpt>
      <trkpt lat="45.16463" lon="5.2975">
        <ele>661.59997558594</ele>
        <time>2020-03-01T10:15:17.000Z</time>
      </trkpt>
      <trkpt lat="45.16463" lon="5.29751">
        <ele>661.59997558594</ele>
        <time>2020-03-01T10:15:18.000Z</time>
      </trkpt>
      <trkpt lat="45.16464" lon="5.29752">
        <ele>661.79998779297</ele>
        <time>2020-03-01T10:15:19.000Z</time>
      </trkpt>
      <trkpt lat="45.16465" lon="5.29754">
        <ele>661.79998779297</ele>
        <time>2020-03-01T10:15:20.000Z</time>
      </trkpt>
      <trkpt lat="45.16466" lon="5.29756">
        <ele>661.79998779297</ele>
        <time>2020-03-01T10:15:21.000Z</time>
      </trkpt>
      <trkpt lat="45.16467" lon="5.29757">
        <ele>662</ele>
        <time>2020-03-01T10:15:22.000Z</time>
      </trkpt>
      <trkpt lat="45.16467" lon="5.29758">
        <ele>662.20001220703</ele>
        <time>2020-03-01T10:15:23.000Z</time>
      </trkpt>
      <trkpt lat="45.16468" lon="5.2976">
        <ele>662.40002441406</ele>
        <time>2020-03-01T10:15:24.000Z</time>
      </trkpt>
      <trkpt lat="45.16468" lon="5.29761">
        <ele>662.59997558594</ele>
        <time>2020-03-01T10:15:25.000Z</time>
      </trkpt>
      <trkpt lat="45.16468" lon="5.29762">
        <ele>662.59997558594</ele>
        <time>2020-03-01T10:15:26.000Z</time>
      </trkpt>
      <trkpt lat="45.16468" lon="5.29764">
        <ele>662.79998779297</ele>
        <time>2020-03-01T10:15:27.000Z</time>
      </trkpt>
      <trkpt lat="45.16468" lon="5.29765">
        <ele>663</ele>
        <time>2020-03-01T10:15:28.000Z</time>
      </trkpt>
      <trkpt lat="45.16468" lon="5.29767">
        <ele>663.20001220703</ele>
        <time>2020-03-01T10:15:29.000Z</time>
      </trkpt>
      <trkpt lat="45.16466" lon="5.29769">
        <ele>663.40002441406</ele>
        <time>2020-03-01T10:15:30.000Z</time>
      </trkpt>
      <trkpt lat="45.16466" lon="5.2977">
        <ele>663.40002441406</ele>
        <time>2020-03-01T10:15:31.000Z</time>
      </trkpt>
      <trkpt lat="45.16465" lon="5.29771">
        <ele>663.59997558594</ele>
        <time>2020-03-01T10:15:32.000Z</time>
      </trkpt>
      <trkpt lat="45.16466" lon="5.29773">
        <ele>663.79998779297</ele>
        <time>2020-03-01T10:15:33.000Z</time>
      </trkpt>
      <trkpt lat="45.16466" lon="5.29774">
        <ele>663.79998779297</ele>
        <time>2020-03-01T10:15:34.000Z</time>
      </trkpt>
      <trkpt lat="45.16466" lon="5.29776">
        <ele>664</ele>
        <time>2020-03-01T10:15:35.000Z</time>
      </trkpt>
      <trkpt lat="45.16467" lon="5.29777">
        <ele>664.20001220703</ele>
        <time>2020-03-01T10:15:36.000Z</time>
      </trkpt>
      <trkpt lat="45.16467" lon="5.29778">
        <ele>664.59997558594</ele>
        <time>2020-03-01T10:15:37.000Z</time>
      </trkpt>
      <trkpt lat="45.16468" lon="5.2978">
        <ele>664.79998779297</ele>
        <time>2020-03-01T10:15:38.000Z</time>
      </trkpt>
      <trkpt lat="45.16469" lon="5.29782">
        <ele>664.79998779297</ele>
        <time>2020-03-01T10:15:39.000Z</time>
      </trkpt>
      <trkpt lat="45.1647" lon="5.29783">
        <ele>664.79998779297</ele>
        <time>2020-03-01T10:15:40.000Z</time>
      </trkpt>
      <trkpt lat="45.1647" lon="5.29785">
        <ele>664.79998779297</ele>
        <time>2020-03-01T10:15:41.000Z</time>
      </trkpt>
      <trkpt lat="45.16471" lon="5.29787">
        <ele>665</ele>
        <time>2020-03-01T10:15:42.000Z</time>
      </trkpt>
      <trkpt lat="45.16472" lon="5.29789">
        <ele>665</ele>
        <time>2020-03-01T10:15:43.000Z</time>
      </trkpt>
      <trkpt lat="45.16473" lon="5.2979">
        <ele>665</ele>
        <time>2020-03-01T10:15:44.000Z</time>
      </trkpt>
      <trkpt lat="45.16473" lon="5.29791">
        <ele>665.20001220703</ele>
        <time>2020-03-01T10:15:45.000Z</time>
      </trkpt>
      <trkpt lat="45.16472" lon="5.29792">
        <ele>665.40002441406</ele>
        <time>2020-03-01T10:15:46.000Z</time>
      </trkpt>
      <trkpt lat="45.16472" lon="5.29793">
        <ele>665.59997558594</ele>
        <time>2020-03-01T10:15:47.000Z</time>
      </trkpt>
      <trkpt lat="45.16472" lon="5.29794">
        <ele>665.59997558594</ele>
        <time>2020-03-01T10:15:48.000Z</time>
      </trkpt>
      <trkpt lat="45.16475" lon="5.29795">
        <ele>665.79998779297</ele>
        <time>2020-03-01T10:15:49.000Z</time>
      </trkpt>
      <trkpt lat="45.16477" lon="5.29796">
        <ele>665.79998779297</ele>
        <time>2020-03-01T10:15:50.000Z</time>
      </trkpt>
      <trkpt lat="45.16481" lon="5.29796">
        <ele>666</ele>
        <time>2020-03-01T10:15:51.000Z</time>
      </trkpt>
      <trkpt lat="45.16484" lon="5.29796">
        <ele>666</ele>
        <time>2020-03-01T10:15:52.000Z</time>
      </trkpt>
      <trkpt lat="45.16485" lon="5.29797">
        <ele>666</ele>
        <time>2020-03-01T10:15:53.000Z</time>
      </trkpt>
      <trkpt lat="45.16487" lon="5.29798">
        <ele>666.20001220703</ele>
        <time>2020-03-01T10:15:54.000Z</time>
      </trkpt>
      <trkpt lat="45.16488" lon="5.29799">
        <ele>666.40002441406</ele>
        <time>2020-03-01T10:15:55.000Z</time>
      </trkpt>
      <trkpt lat="45.16489" lon="5.298">
        <ele>666.40002441406</ele>
        <time>2020-03-01T10:15:56.000Z</time>
      </trkpt>
      <trkpt lat="45.16489" lon="5.29801">
        <ele>666.59997558594</ele>
        <time>2020-03-01T10:15:57.000Z</time>
      </trkpt>
      <trkpt lat="45.16489" lon="5.29803">
        <ele>666.59997558594</ele>
        <time>2020-03-01T10:15:58.000Z</time>
      </trkpt>
      <trkpt lat="45.16489" lon="5.29804">
        <ele>666.59997558594</ele>
        <time>2020-03-01T10:15:59.000Z</time>
      </trkpt>
      <trkpt lat="45.1649" lon="5.29806">
        <ele>666.59997558594</ele>
        <time>2020-03-01T10:16:00.000Z</time>
      </trkpt>
      <trkpt lat="45.16491" lon="5.29808">
        <ele>666.59997558594</ele>
        <time>2020-03-01T10:16:01.000Z</time>
      </trkpt>
      <trkpt lat="45.16491" lon="5.29809">
        <ele>666.59997558594</ele>
        <time>2020-03-01T10:16:02.000Z</time>
      </trkpt>
      <trkpt lat="45.16491" lon="5.29811">
        <ele>666.59997558594</ele>
        <time>2020-03-01T10:16:03.000Z</time>
      </trkpt>
      <trkpt lat="45.16491" lon="5.29813">
        <ele>666.59997558594</ele>
        <time>2020-03-01T10:16:04.000Z</time>
      </trkpt>
      <trkpt lat="45.1649" lon="5.29816">
        <ele>666.79998779297</ele>
        <time>2020-03-01T10:16:05.000Z</time>
      </trkpt>
      <trkpt lat="45.16489" lon="5.29818">
        <ele>666.79998779297</ele>
        <time>2020-03-01T10:16:06.000Z</time>
      </trkpt>
      <trkpt lat="45.16489" lon="5.29821">
        <ele>667</ele>
        <time>2020-03-01T10:16:07.000Z</time>
      </trkpt>
      <trkpt lat="45.16489" lon="5.29822">
        <ele>667</ele>
        <time>2020-03-01T10:16:08.000Z</time>
      </trkpt>
      <trkpt lat="45.16488" lon="5.29824">
        <ele>667.20001220703</ele>
        <time>2020-03-01T10:16:09.000Z</time>
      </trkpt>
      <trkpt lat="45.16488" lon="5.29826">
        <ele>667.20001220703</ele>
        <time>2020-03-01T10:16:10.000Z</time>
      </trkpt>
      <trkpt lat="45.16488" lon="5.29827">
        <ele>667.20001220703</ele>
        <time>2020-03-01T10:16:11.000Z</time>
      </trkpt>
      <trkpt lat="45.16488" lon="5.29828">
        <ele>667.40002441406</ele>
        <time>2020-03-01T10:16:12.000Z</time>
      </trkpt>
      <trkpt lat="45.16488" lon="5.29829">
        <ele>667.40002441406</ele>
        <time>2020-03-01T10:16:13.000Z</time>
      </trkpt>
      <trkpt lat="45.16487" lon="5.29831">
        <ele>667.59997558594</ele>
        <time>2020-03-01T10:16:14.000Z</time>
      </trkpt>
      <trkpt lat="45.16486" lon="5.29832">
        <ele>667.59997558594</ele>
        <time>2020-03-01T10:16:15.000Z</time>
      </trkpt>
      <trkpt lat="45.16486" lon="5.29834">
        <ele>667.59997558594</ele>
        <time>2020-03-01T10:16:16.000Z</time>
      </trkpt>
      <trkpt lat="45.16487" lon="5.29835">
        <ele>667.79998779297</ele>
        <time>2020-03-01T10:16:17.000Z</time>
      </trkpt>
      <trkpt lat="45.16488" lon="5.29837">
        <ele>667.79998779297</ele>
        <time>2020-03-01T10:16:18.000Z</time>
      </trkpt>
      <trkpt lat="45.16488" lon="5.29839">
        <ele>668</ele>
        <time>2020-03-01T10:16:19.000Z</time>
      </trkpt>
      <trkpt lat="45.16489" lon="5.29841">
        <ele>668</ele>
        <time>2020-03-01T10:16:20.000Z</time>
      </trkpt>
      <trkpt lat="45.16488" lon="5.29843">
        <ele>668.20001220703</ele>
        <time>2020-03-01T10:16:21.000Z</time>
      </trkpt>
      <trkpt lat="45.1649" lon="5.29845">
        <ele>668.20001220703</ele>
        <time>2020-03-01T10:16:22.000Z</time>
      </trkpt>
      <trkpt lat="45.16491" lon="5.29847">
        <ele>668.20001220703</ele>
        <time>2020-03-01T10:16:23.000Z</time>
      </trkpt>
      <trkpt lat="45.16493" lon="5.29849">
        <ele>668.20001220703</ele>
        <time>2020-03-01T10:16:24.000Z</time>
      </trkpt>
      <trkpt lat="45.16492" lon="5.29851">
        <ele>668.20001220703</ele>
        <time>2020-03-01T10:16:25.000Z</time>
      </trkpt>
      <trkpt lat="45.16494" lon="5.29852">
        <ele>668.40002441406</ele>
        <time>2020-03-01T10:16:26.000Z</time>
      </trkpt>
      <trkpt lat="45.16494" lon="5.29854">
        <ele>668.40002441406</ele>
        <time>2020-03-01T10:16:27.000Z</time>
      </trkpt>
      <trkpt lat="45.16493" lon="5.29856">
        <ele>668.59997558594</ele>
        <time>2020-03-01T10:16:28.000Z</time>
      </trkpt>
      <trkpt lat="45.16493" lon="5.29858">
        <ele>668.59997558594</ele>
        <time>2020-03-01T10:16:29.000Z</time>
      </trkpt>
      <trkpt lat="45.16492" lon="5.2986">
        <ele>668.59997558594</ele>
        <time>2020-03-01T10:16:30.000Z</time>
      </trkpt>
      <trkpt lat="45.16492" lon="5.29862">
        <ele>668.79998779297</ele>
        <time>2020-03-01T10:16:31.000Z</time>
      </trkpt>
      <trkpt lat="45.16491" lon="5.29863">
        <ele>668.79998779297</ele>
        <time>2020-03-01T10:16:32.000Z</time>
      </trkpt>
      <trkpt lat="45.16491" lon="5.29864">
        <ele>668.79998779297</ele>
        <time>2020-03-01T10:16:33.000Z</time>
      </trkpt>
      <trkpt lat="45.16491" lon="5.29866">
        <ele>668.79998779297</ele>
        <time>2020-03-01T10:16:34.000Z</time>
      </trkpt>
      <trkpt lat="45.16491" lon="5.29868">
        <ele>668.79998779297</ele>
        <time>2020-03-01T10:16:35.000Z</time>
      </trkpt>
      <trkpt lat="45.16492" lon="5.29872">
        <ele>668.79998779297</ele>
        <time>2020-03-01T10:16:36.000Z</time>
      </trkpt>
      <trkpt lat="45.16492" lon="5.29874">
        <ele>669</ele>
        <time>2020-03-01T10:16:37.000Z</time>
      </trkpt>
      <trkpt lat="45.16491" lon="5.29876">
        <ele>669</ele>
        <time>2020-03-01T10:16:38.000Z</time>
      </trkpt>
      <trkpt lat="45.16492" lon="5.29878">
        <ele>669</ele>
        <time>2020-03-01T10:16:39.000Z</time>
      </trkpt>
      <trkpt lat="45.16493" lon="5.2988">
        <ele>669.20001220703</ele>
        <time>2020-03-01T10:16:40.000Z</time>
      </trkpt>
      <trkpt lat="45.16493" lon="5.29883">
        <ele>669.20001220703</ele>
        <time>2020-03-01T10:16:41.000Z</time>
      </trkpt>
      <trkpt lat="45.16493" lon="5.29885">
        <ele>669.40002441406</ele>
        <time>2020-03-01T10:16:42.000Z</time>
      </trkpt>
      <trkpt lat="45.16494" lon="5.29886">
        <ele>669.40002441406</ele>
        <time>2020-03-01T10:16:43.000Z</time>
      </trkpt>
      <trkpt lat="45.16494" lon="5.29888">
        <ele>669.40002441406</ele>
        <time>2020-03-01T10:16:44.000Z</time>
      </trkpt>
      <trkpt lat="45.16495" lon="5.2989">
        <ele>669.40002441406</ele>
        <time>2020-03-01T10:16:45.000Z</time>
      </trkpt>
      <trkpt lat="45.16495" lon="5.29891">
        <ele>669.40002441406</ele>
        <time>2020-03-01T10:16:46.000Z</time>
      </trkpt>
      <trkpt lat="45.16496" lon="5.29893">
        <ele>669.40002441406</ele>
        <time>2020-03-01T10:16:47.000Z</time>
      </trkpt>
      <trkpt lat="45.16496" lon="5.29895">
        <ele>669.40002441406</ele>
        <time>2020-03-01T10:16:48.000Z</time>
      </trkpt>
      <trkpt lat="45.16496" lon="5.29896">
        <ele>669.59997558594</ele>
        <time>2020-03-01T10:16:49.000Z</time>
      </trkpt>
      <trkpt lat="45.16497" lon="5.29898">
        <ele>669.59997558594</ele>
        <time>2020-03-01T10:16:50.000Z</time>
      </trkpt>
      <trkpt lat="45.16498" lon="5.299">
        <ele>669.59997558594</ele>
        <time>2020-03-01T10:16:51.000Z</time>
      </trkpt>
      <trkpt lat="45.16499" lon="5.29902">
        <ele>669.79998779297</ele>
        <time>2020-03-01T10:16:52.000Z</time>
      </trkpt>
      <trkpt lat="45.16499" lon="5.29903">
        <ele>669.79998779297</ele>
        <time>2020-03-01T10:16:53.000Z</time>
      </trkpt>
      <trkpt lat="45.165" lon="5.29905">
        <ele>669.79998779297</ele>
        <time>2020-03-01T10:16:54.000Z</time>
      </trkpt>
      <trkpt lat="45.16499" lon="5.29907">
        <ele>669.79998779297</ele>
        <time>2020-03-01T10:16:55.000Z</time>
      </trkpt>
      <trkpt lat="45.16499" lon="5.29909">
        <ele>669.79998779297</ele>
        <time>2020-03-01T10:16:56.000Z</time>
      </trkpt>
      <trkpt lat="45.16499" lon="5.29911">
        <ele>669.79998779297</ele>
        <time>2020-03-01T10:16:57.000Z</time>
      </trkpt>
      <trkpt lat="45.16499" lon="5.29913">
        <ele>669.79998779297</ele>
        <time>2020-03-01T10:16:58.000Z</time>
      </trkpt>
      <trkpt lat="45.16499" lon="5.29915">
        <ele>670</ele>
        <time>2020-03-01T10:16:59.000Z</time>
      </trkpt>
      <trkpt lat="45.16498" lon="5.29918">
        <ele>670.20001220703</ele>
        <time>2020-03-01T10:17:00.000Z</time>
      </trkpt>
      <trkpt lat="45.16498" lon="5.2992">
        <ele>670.40002441406</ele>
        <time>2020-03-01T10:17:01.000Z</time>
      </trkpt>
      <trkpt lat="45.16498" lon="5.29922">
        <ele>670.59997558594</ele>
        <time>2020-03-01T10:17:02.000Z</time>
      </trkpt>
      <trkpt lat="45.16499" lon="5.29924">
        <ele>670.79998779297</ele>
        <time>2020-03-01T10:17:03.000Z</time>
      </trkpt>
      <trkpt lat="45.16499" lon="5.29926">
        <ele>670.59997558594</ele>
        <time>2020-03-01T10:17:04.000Z</time>
      </trkpt>
      <trkpt lat="45.165" lon="5.29928">
        <ele>670.59997558594</ele>
        <time>2020-03-01T10:17:05.000Z</time>
      </trkpt>
      <trkpt lat="45.16501" lon="5.2993">
        <ele>670.59997558594</ele>
        <time>2020-03-01T10:17:06.000Z</time>
      </trkpt>
      <trkpt lat="45.165" lon="5.29932">
        <ele>670.59997558594</ele>
        <time>2020-03-01T10:17:07.000Z</time>
      </trkpt>
      <trkpt lat="45.16501" lon="5.29934">
        <ele>670.59997558594</ele>
        <time>2020-03-01T10:17:08.000Z</time>
      </trkpt>
      <trkpt lat="45.16501" lon="5.29936">
        <ele>670.59997558594</ele>
        <time>2020-03-01T10:17:09.000Z</time>
      </trkpt>
      <trkpt lat="45.16502" lon="5.29938">
        <ele>670.59997558594</ele>
        <time>2020-03-01T10:17:10.000Z</time>
      </trkpt>
      <trkpt lat="45.16503" lon="5.2994">
        <ele>670.59997558594</ele>
        <time>2020-03-01T10:17:11.000Z</time>
      </trkpt>
      <trkpt lat="45.16504" lon="5.29943">
        <ele>670.79998779297</ele>
        <time>2020-03-01T10:17:12.000Z</time>
      </trkpt>
      <trkpt lat="45.16505" lon="5.29945">
        <ele>670.79998779297</ele>
        <time>2020-03-01T10:17:13.000Z</time>
      </trkpt>
      <trkpt lat="45.16505" lon="5.29947">
        <ele>670.79998779297</ele>
        <time>2020-03-01T10:17:14.000Z</time>
      </trkpt>
      <trkpt lat="45.16506" lon="5.29949">
        <ele>670.79998779297</ele>
        <time>2020-03-01T10:17:15.000Z</time>
      </trkpt>
      <trkpt lat="45.16507" lon="5.29952">
        <ele>670.79998779297</ele>
        <time>2020-03-01T10:17:16.000Z</time>
      </trkpt>
      <trkpt lat="45.16508" lon="5.29954">
        <ele>670.59997558594</ele>
        <time>2020-03-01T10:17:17.000Z</time>
      </trkpt>
      <trkpt lat="45.16507" lon="5.29957">
        <ele>670.59997558594</ele>
        <time>2020-03-01T10:17:18.000Z</time>
      </trkpt>
      <trkpt lat="45.16507" lon="5.29959">
        <ele>670.59997558594</ele>
        <time>2020-03-01T10:17:19.000Z</time>
      </trkpt>
      <trkpt lat="45.16507" lon="5.29962">
        <ele>670.59997558594</ele>
        <time>2020-03-01T10:17:20.000Z</time>
      </trkpt>
      <trkpt lat="45.16507" lon="5.29964">
        <ele>670.59997558594</ele>
        <time>2020-03-01T10:17:21.000Z</time>
      </trkpt>
      <trkpt lat="45.16508" lon="5.29966">
        <ele>670.79998779297</ele>
        <time>2020-03-01T10:17:22.000Z</time>
      </trkpt>
      <trkpt lat="45.16509" lon="5.29969">
        <ele>670.79998779297</ele>
        <time>2020-03-01T10:17:23.000Z</time>
      </trkpt>
      <trkpt lat="45.1651" lon="5.29971">
        <ele>671</ele>
        <time>2020-03-01T10:17:24.000Z</time>
      </trkpt>
      <trkpt lat="45.16511" lon="5.29973">
        <ele>671.20001220703</ele>
        <time>2020-03-01T10:17:25.000Z</time>
      </trkpt>
      <trkpt lat="45.16511" lon="5.29976">
        <ele>671.20001220703</ele>
        <time>2020-03-01T10:17:26.000Z</time>
      </trkpt>
      <trkpt lat="45.16511" lon="5.29978">
        <ele>671.20001220703</ele>
        <time>2020-03-01T10:17:27.000Z</time>
      </trkpt>
      <trkpt lat="45.16512" lon="5.2998">
        <ele>671.40002441406</ele>
        <time>2020-03-01T10:17:28.000Z</time>
      </trkpt>
      <trkpt lat="45.16512" lon="5.29983">
        <ele>671.40002441406</ele>
        <time>2020-03-01T10:17:29.000Z</time>
      </trkpt>
      <trkpt lat="45.16512" lon="5.29985">
        <ele>671.40002441406</ele>
        <time>2020-03-01T10:17:30.000Z</time>
      </trkpt>
      <trkpt lat="45.16512" lon="5.29987">
        <ele>671.40002441406</ele>
        <time>2020-03-01T10:17:31.000Z</time>
      </trkpt>
      <trkpt lat="45.16512" lon="5.29989">
        <ele>671.40002441406</ele>
        <time>2020-03-01T10:17:32.000Z</time>
      </trkpt>
      <trkpt lat="45.16512" lon="5.29991">
        <ele>671.59997558594</ele>
        <time>2020-03-01T10:17:33.000Z</time>
      </trkpt>
      <trkpt lat="45.16511" lon="5.29993">
        <ele>671.59997558594</ele>
        <time>2020-03-01T10:17:34.000Z</time>
      </trkpt>
      <trkpt lat="45.16511" lon="5.29995">
        <ele>671.79998779297</ele>
        <time>2020-03-01T10:17:35.000Z</time>
      </trkpt>
      <trkpt lat="45.1651" lon="5.29997">
        <ele>671.79998779297</ele>
        <time>2020-03-01T10:17:36.000Z</time>
      </trkpt>
      <trkpt lat="45.1651" lon="5.29999">
        <ele>672</ele>
        <time>2020-03-01T10:17:37.000Z</time>
      </trkpt>
      <trkpt lat="45.16511" lon="5.30001">
        <ele>672</ele>
        <time>2020-03-01T10:17:38.000Z</time>
      </trkpt>
      <trkpt lat="45.16511" lon="5.30004">
        <ele>672</ele>
        <time>2020-03-01T10:17:39.000Z</time>
      </trkpt>
      <trkpt lat="45.16511" lon="5.30006">
        <ele>672</ele>
        <time>2020-03-01T10:17:40.000Z</time>
      </trkpt>
      <trkpt lat="45.16512" lon="5.30009">
        <ele>672.20001220703</ele>
        <time>2020-03-01T10:17:41.000Z</time>
      </trkpt>
      <trkpt lat="45.16512" lon="5.3001">
        <ele>672.40002441406</ele>
        <time>2020-03-01T10:17:42.000Z</time>
      </trkpt>
      <trkpt lat="45.16513" lon="5.30012">
        <ele>672.59997558594</ele>
        <time>2020-03-01T10:17:43.000Z</time>
      </trkpt>
      <trkpt lat="45.16515" lon="5.30014">
        <ele>672.79998779297</ele>
        <time>2020-03-01T10:17:44.000Z</time>
      </trkpt>
      <trkpt lat="45.16515" lon="5.30015">
        <ele>673</ele>
        <time>2020-03-01T10:17:45.000Z</time>
      </trkpt>
      <trkpt lat="45.16517" lon="5.30016">
        <ele>673.20001220703</ele>
        <time>2020-03-01T10:17:46.000Z</time>
      </trkpt>
      <trkpt lat="45.16518" lon="5.30018">
        <ele>673.20001220703</ele>
        <time>2020-03-01T10:17:47.000Z</time>
      </trkpt>
      <trkpt lat="45.1652" lon="5.30019">
        <ele>673.20001220703</ele>
        <time>2020-03-01T10:17:48.000Z</time>
      </trkpt>
      <trkpt lat="45.16521" lon="5.30021">
        <ele>673.20001220703</ele>
        <time>2020-03-01T10:17:49.000Z</time>
      </trkpt>
      <trkpt lat="45.16522" lon="5.30023">
        <ele>673.20001220703</ele>
        <time>2020-03-01T10:17:50.000Z</time>
      </trkpt>
      <trkpt lat="45.16522" lon="5.30025">
        <ele>673.20001220703</ele>
        <time>2020-03-01T10:17:51.000Z</time>
      </trkpt>
      <trkpt lat="45.16522" lon="5.30027">
        <ele>673.20001220703</ele>
        <time>2020-03-01T10:17:52.000Z</time>
      </trkpt>
      <trkpt lat="45.16522" lon="5.30028">
        <ele>673.40002441406</ele>
        <time>2020-03-01T10:17:53.000Z</time>
      </trkpt>
      <trkpt lat="45.16522" lon="5.30029">
        <ele>673.40002441406</ele>
        <time>2020-03-01T10:17:54.000Z</time>
      </trkpt>
      <trkpt lat="45.16522" lon="5.30031">
        <ele>673.40002441406</ele>
        <time>2020-03-01T10:17:55.000Z</time>
      </trkpt>
      <trkpt lat="45.16523" lon="5.30034">
        <ele>673.40002441406</ele>
        <time>2020-03-01T10:17:56.000Z</time>
      </trkpt>
      <trkpt lat="45.16523" lon="5.30037">
        <ele>673.40002441406</ele>
        <time>2020-03-01T10:17:57.000Z</time>
      </trkpt>
      <trkpt lat="45.16523" lon="5.30039">
        <ele>673.40002441406</ele>
        <time>2020-03-01T10:17:58.000Z</time>
      </trkpt>
      <trkpt lat="45.16522" lon="5.30041">
        <ele>673.59997558594</ele>
        <time>2020-03-01T10:17:59.000Z</time>
      </trkpt>
      <trkpt lat="45.16521" lon="5.30044">
        <ele>673.79998779297</ele>
        <time>2020-03-01T10:18:00.000Z</time>
      </trkpt>
      <trkpt lat="45.16522" lon="5.30046">
        <ele>674</ele>
        <time>2020-03-01T10:18:01.000Z</time>
      </trkpt>
      <trkpt lat="45.16523" lon="5.30048">
        <ele>674</ele>
        <time>2020-03-01T10:18:02.000Z</time>
      </trkpt>
      <trkpt lat="45.16523" lon="5.3005">
        <ele>674</ele>
        <time>2020-03-01T10:18:03.000Z</time>
      </trkpt>
      <trkpt lat="45.16523" lon="5.30052">
        <ele>674.20001220703</ele>
        <time>2020-03-01T10:18:04.000Z</time>
      </trkpt>
      <trkpt lat="45.16523" lon="5.30053">
        <ele>674.20001220703</ele>
        <time>2020-03-01T10:18:05.000Z</time>
      </trkpt>
      <trkpt lat="45.16523" lon="5.30055">
        <ele>674.20001220703</ele>
        <time>2020-03-01T10:18:06.000Z</time>
      </trkpt>
      <trkpt lat="45.16523" lon="5.30057">
        <ele>674.20001220703</ele>
        <time>2020-03-01T10:18:07.000Z</time>
      </trkpt>
      <trkpt lat="45.16523" lon="5.30058">
        <ele>674.40002441406</ele>
        <time>2020-03-01T10:18:08.000Z</time>
      </trkpt>
      <trkpt lat="45.16523" lon="5.3006">
        <ele>674.40002441406</ele>
        <time>2020-03-01T10:18:09.000Z</time>
      </trkpt>
      <trkpt lat="45.16523" lon="5.30062">
        <ele>674.59997558594</ele>
        <time>2020-03-01T10:18:10.000Z</time>
      </trkpt>
      <trkpt lat="45.16523" lon="5.30064">
        <ele>674.59997558594</ele>
        <time>2020-03-01T10:18:11.000Z</time>
      </trkpt>
      <trkpt lat="45.16523" lon="5.30066">
        <ele>674.79998779297</ele>
        <time>2020-03-01T10:18:12.000Z</time>
      </trkpt>
      <trkpt lat="45.16523" lon="5.30069">
        <ele>674.79998779297</ele>
        <time>2020-03-01T10:18:13.000Z</time>
      </trkpt>
      <trkpt lat="45.16524" lon="5.30071">
        <ele>675</ele>
        <time>2020-03-01T10:18:14.000Z</time>
      </trkpt>
      <trkpt lat="45.16524" lon="5.30073">
        <ele>675</ele>
        <time>2020-03-01T10:18:15.000Z</time>
      </trkpt>
      <trkpt lat="45.16524" lon="5.30075">
        <ele>675.20001220703</ele>
        <time>2020-03-01T10:18:16.000Z</time>
      </trkpt>
      <trkpt lat="45.16525" lon="5.30078">
        <ele>675.40002441406</ele>
        <time>2020-03-01T10:18:17.000Z</time>
      </trkpt>
      <trkpt lat="45.16526" lon="5.30079">
        <ele>675.40002441406</ele>
        <time>2020-03-01T10:18:18.000Z</time>
      </trkpt>
      <trkpt lat="45.16526" lon="5.30081">
        <ele>675.40002441406</ele>
        <time>2020-03-01T10:18:19.000Z</time>
      </trkpt>
      <trkpt lat="45.16526" lon="5.30083">
        <ele>675.40002441406</ele>
        <time>2020-03-01T10:18:20.000Z</time>
      </trkpt>
      <trkpt lat="45.16526" lon="5.30086">
        <ele>675.59997558594</ele>
        <time>2020-03-01T10:18:21.000Z</time>
      </trkpt>
      <trkpt lat="45.16528" lon="5.30089">
        <ele>675.59997558594</ele>
        <time>2020-03-01T10:18:22.000Z</time>
      </trkpt>
      <trkpt lat="45.16529" lon="5.30092">
        <ele>675.79998779297</ele>
        <time>2020-03-01T10:18:23.000Z</time>
      </trkpt>
      <trkpt lat="45.16529" lon="5.30093">
        <ele>675.79998779297</ele>
        <time>2020-03-01T10:18:24.000Z</time>
      </trkpt>
      <trkpt lat="45.1653" lon="5.30096">
        <ele>675.79998779297</ele>
        <time>2020-03-01T10:18:25.000Z</time>
      </trkpt>
      <trkpt lat="45.1653" lon="5.30098">
        <ele>676</ele>
        <time>2020-03-01T10:18:26.000Z</time>
      </trkpt>
      <trkpt lat="45.16531" lon="5.301">
        <ele>676</ele>
        <time>2020-03-01T10:18:27.000Z</time>
      </trkpt>
      <trkpt lat="45.16532" lon="5.30102">
        <ele>676</ele>
        <time>2020-03-01T10:18:28.000Z</time>
      </trkpt>
      <trkpt lat="45.16532" lon="5.30103">
        <ele>676</ele>
        <time>2020-03-01T10:18:29.000Z</time>
      </trkpt>
      <trkpt lat="45.16532" lon="5.30105">
        <ele>676.20001220703</ele>
        <time>2020-03-01T10:18:30.000Z</time>
      </trkpt>
      <trkpt lat="45.16533" lon="5.30107">
        <ele>676.40002441406</ele>
        <time>2020-03-01T10:18:31.000Z</time>
      </trkpt>
      <trkpt lat="45.16533" lon="5.30109">
        <ele>676.40002441406</ele>
        <time>2020-03-01T10:18:32.000Z</time>
      </trkpt>
      <trkpt lat="45.16533" lon="5.30111">
        <ele>676.20001220703</ele>
        <time>2020-03-01T10:18:33.000Z</time>
      </trkpt>
      <trkpt lat="45.16535" lon="5.30114">
        <ele>676.40002441406</ele>
        <time>2020-03-01T10:18:34.000Z</time>
      </trkpt>
      <trkpt lat="45.16535" lon="5.30116">
        <ele>676.40002441406</ele>
        <time>2020-03-01T10:18:35.000Z</time>
      </trkpt>
      <trkpt lat="45.16536" lon="5.30118">
        <ele>676.59997558594</ele>
        <time>2020-03-01T10:18:36.000Z</time>
      </trkpt>
      <trkpt lat="45.16537" lon="5.30121">
        <ele>676.59997558594</ele>
        <time>2020-03-01T10:18:37.000Z</time>
      </trkpt>
      <trkpt lat="45.16538" lon="5.30124">
        <ele>676.40002441406</ele>
        <time>2020-03-01T10:18:38.000Z</time>
      </trkpt>
      <trkpt lat="45.16538" lon="5.30127">
        <ele>676.59997558594</ele>
        <time>2020-03-01T10:18:39.000Z</time>
      </trkpt>
      <trkpt lat="45.1654" lon="5.30129">
        <ele>676.79998779297</ele>
        <time>2020-03-01T10:18:40.000Z</time>
      </trkpt>
      <trkpt lat="45.16541" lon="5.30132">
        <ele>676.79998779297</ele>
        <time>2020-03-01T10:18:41.000Z</time>
      </trkpt>
      <trkpt lat="45.16541" lon="5.30134">
        <ele>676.79998779297</ele>
        <time>2020-03-01T10:18:42.000Z</time>
      </trkpt>
      <trkpt lat="45.16542" lon="5.30136">
        <ele>676.59997558594</ele>
        <time>2020-03-01T10:18:43.000Z</time>
      </trkpt>
      <trkpt lat="45.16542" lon="5.30138">
        <ele>676.79998779297</ele>
        <time>2020-03-01T10:18:44.000Z</time>
      </trkpt>
      <trkpt lat="45.16543" lon="5.30141">
        <ele>676.79998779297</ele>
        <time>2020-03-01T10:18:45.000Z</time>
      </trkpt>
      <trkpt lat="45.16543" lon="5.30142">
        <ele>677</ele>
        <time>2020-03-01T10:18:46.000Z</time>
      </trkpt>
      <trkpt lat="45.16543" lon="5.30144">
        <ele>677</ele>
        <time>2020-03-01T10:18:47.000Z</time>
      </trkpt>
      <trkpt lat="45.16543" lon="5.30147">
        <ele>677.20001220703</ele>
        <time>2020-03-01T10:18:48.000Z</time>
      </trkpt>
      <trkpt lat="45.16544" lon="5.30149">
        <ele>677.20001220703</ele>
        <time>2020-03-01T10:18:49.000Z</time>
      </trkpt>
      <trkpt lat="45.16544" lon="5.30151">
        <ele>677.20001220703</ele>
        <time>2020-03-01T10:18:50.000Z</time>
      </trkpt>
      <trkpt lat="45.16545" lon="5.30153">
        <ele>677.20001220703</ele>
        <time>2020-03-01T10:18:51.000Z</time>
      </trkpt>
      <trkpt lat="45.16545" lon="5.30155">
        <ele>677</ele>
        <time>2020-03-01T10:18:52.000Z</time>
      </trkpt>
      <trkpt lat="45.16544" lon="5.30157">
        <ele>677.20001220703</ele>
        <time>2020-03-01T10:18:53.000Z</time>
      </trkpt>
      <trkpt lat="45.16543" lon="5.3016">
        <ele>677.20001220703</ele>
        <time>2020-03-01T10:18:54.000Z</time>
      </trkpt>
      <trkpt lat="45.16543" lon="5.30162">
        <ele>677.40002441406</ele>
        <time>2020-03-01T10:18:55.000Z</time>
      </trkpt>
      <trkpt lat="45.16543" lon="5.30165">
        <ele>677.40002441406</ele>
        <time>2020-03-01T10:18:56.000Z</time>
      </trkpt>
      <trkpt lat="45.16543" lon="5.30167">
        <ele>677.40002441406</ele>
        <time>2020-03-01T10:18:57.000Z</time>
      </trkpt>
      <trkpt lat="45.16543" lon="5.30169">
        <ele>677.59997558594</ele>
        <time>2020-03-01T10:18:58.000Z</time>
      </trkpt>
      <trkpt lat="45.16543" lon="5.30172">
        <ele>677.79998779297</ele>
        <time>2020-03-01T10:18:59.000Z</time>
      </trkpt>
      <trkpt lat="45.16543" lon="5.30174">
        <ele>677.79998779297</ele>
        <time>2020-03-01T10:19:00.000Z</time>
      </trkpt>
      <trkpt lat="45.16543" lon="5.30177">
        <ele>677.79998779297</ele>
        <time>2020-03-01T10:19:01.000Z</time>
      </trkpt>
      <trkpt lat="45.16543" lon="5.30179">
        <ele>677.79998779297</ele>
        <time>2020-03-01T10:19:02.000Z</time>
      </trkpt>
      <trkpt lat="45.16543" lon="5.30182">
        <ele>677.79998779297</ele>
        <time>2020-03-01T10:19:03.000Z</time>
      </trkpt>
      <trkpt lat="45.16543" lon="5.30184">
        <ele>677.79998779297</ele>
        <time>2020-03-01T10:19:04.000Z</time>
      </trkpt>
      <trkpt lat="45.16542" lon="5.30186">
        <ele>677.79998779297</ele>
        <time>2020-03-01T10:19:05.000Z</time>
      </trkpt>
      <trkpt lat="45.16541" lon="5.30188">
        <ele>677.79998779297</ele>
        <time>2020-03-01T10:19:06.000Z</time>
      </trkpt>
      <trkpt lat="45.16541" lon="5.30191">
        <ele>677.79998779297</ele>
        <time>2020-03-01T10:19:07.000Z</time>
      </trkpt>
      <trkpt lat="45.1654" lon="5.30193">
        <ele>677.79998779297</ele>
        <time>2020-03-01T10:19:08.000Z</time>
      </trkpt>
      <trkpt lat="45.16539" lon="5.30194">
        <ele>677.79998779297</ele>
        <time>2020-03-01T10:19:09.000Z</time>
      </trkpt>
      <trkpt lat="45.16538" lon="5.30196">
        <ele>677.79998779297</ele>
        <time>2020-03-01T10:19:10.000Z</time>
      </trkpt>
      <trkpt lat="45.16537" lon="5.30198">
        <ele>677.79998779297</ele>
        <time>2020-03-01T10:19:11.000Z</time>
      </trkpt>
      <trkpt lat="45.16535" lon="5.30201">
        <ele>677.79998779297</ele>
        <time>2020-03-01T10:19:12.000Z</time>
      </trkpt>
      <trkpt lat="45.16534" lon="5.30203">
        <ele>677.59997558594</ele>
        <time>2020-03-01T10:19:13.000Z</time>
      </trkpt>
      <trkpt lat="45.16533" lon="5.30205">
        <ele>677.59997558594</ele>
        <time>2020-03-01T10:19:14.000Z</time>
      </trkpt>
      <trkpt lat="45.16532" lon="5.30207">
        <ele>677.40002441406</ele>
        <time>2020-03-01T10:19:15.000Z</time>
      </trkpt>
      <trkpt lat="45.16531" lon="5.30209">
        <ele>677.40002441406</ele>
        <time>2020-03-01T10:19:16.000Z</time>
      </trkpt>
      <trkpt lat="45.16529" lon="5.30211">
        <ele>677.40002441406</ele>
        <time>2020-03-01T10:19:17.000Z</time>
      </trkpt>
      <trkpt lat="45.16529" lon="5.30213">
        <ele>677.20001220703</ele>
        <time>2020-03-01T10:19:18.000Z</time>
      </trkpt>
      <trkpt lat="45.16528" lon="5.30215">
        <ele>677.20001220703</ele>
        <time>2020-03-01T10:19:19.000Z</time>
      </trkpt>
      <trkpt lat="45.16527" lon="5.30217">
        <ele>677</ele>
        <time>2020-03-01T10:19:20.000Z</time>
      </trkpt>
      <trkpt lat="45.16526" lon="5.3022">
        <ele>677</ele>
        <time>2020-03-01T10:19:21.000Z</time>
      </trkpt>
      <trkpt lat="45.16525" lon="5.30222">
        <ele>676.79998779297</ele>
        <time>2020-03-01T10:19:22.000Z</time>
      </trkpt>
      <trkpt lat="45.16524" lon="5.30225">
        <ele>676.59997558594</ele>
        <time>2020-03-01T10:19:23.000Z</time>
      </trkpt>
      <trkpt lat="45.16523" lon="5.30228">
        <ele>676.40002441406</ele>
        <time>2020-03-01T10:19:24.000Z</time>
      </trkpt>
      <trkpt lat="45.16521" lon="5.30231">
        <ele>676.40002441406</ele>
        <time>2020-03-01T10:19:25.000Z</time>
      </trkpt>
      <trkpt lat="45.1652" lon="5.30233">
        <ele>676.20001220703</ele>
        <time>2020-03-01T10:19:26.000Z</time>
      </trkpt>
      <trkpt lat="45.16519" lon="5.30236">
        <ele>676.20001220703</ele>
        <time>2020-03-01T10:19:27.000Z</time>
      </trkpt>
      <trkpt lat="45.16517" lon="5.30239">
        <ele>676</ele>
        <time>2020-03-01T10:19:28.000Z</time>
      </trkpt>
      <trkpt lat="45.16516" lon="5.30241">
        <ele>675.79998779297</ele>
        <time>2020-03-01T10:19:29.000Z</time>
      </trkpt>
      <trkpt lat="45.16516" lon="5.30244">
        <ele>675.79998779297</ele>
        <time>2020-03-01T10:19:30.000Z</time>
      </trkpt>
      <trkpt lat="45.16515" lon="5.30246">
        <ele>675.59997558594</ele>
        <time>2020-03-01T10:19:31.000Z</time>
      </trkpt>
      <trkpt lat="45.16514" lon="5.30248">
        <ele>675.59997558594</ele>
        <time>2020-03-01T10:19:32.000Z</time>
      </trkpt>
      <trkpt lat="45.16514" lon="5.3025">
        <ele>675.59997558594</ele>
        <time>2020-03-01T10:19:33.000Z</time>
      </trkpt>
      <trkpt lat="45.16516" lon="5.30253">
        <ele>675.59997558594</ele>
        <time>2020-03-01T10:19:34.000Z</time>
      </trkpt>
      <trkpt lat="45.16515" lon="5.30257">
        <ele>675.59997558594</ele>
        <time>2020-03-01T10:19:35.000Z</time>
      </trkpt>
      <trkpt lat="45.16517" lon="5.3026">
        <ele>675.59997558594</ele>
        <time>2020-03-01T10:19:36.000Z</time>
      </trkpt>
      <trkpt lat="45.16518" lon="5.30263">
        <ele>675.59997558594</ele>
        <time>2020-03-01T10:19:37.000Z</time>
      </trkpt>
      <trkpt lat="45.16519" lon="5.30265">
        <ele>675.79998779297</ele>
        <time>2020-03-01T10:19:38.000Z</time>
      </trkpt>
      <trkpt lat="45.16519" lon="5.30269">
        <ele>675.79998779297</ele>
        <time>2020-03-01T10:19:39.000Z</time>
      </trkpt>
      <trkpt lat="45.16521" lon="5.30272">
        <ele>675.79998779297</ele>
        <time>2020-03-01T10:19:40.000Z</time>
      </trkpt>
      <trkpt lat="45.1652" lon="5.30274">
        <ele>675.79998779297</ele>
        <time>2020-03-01T10:19:41.000Z</time>
      </trkpt>
      <trkpt lat="45.1652" lon="5.30276">
        <ele>676</ele>
        <time>2020-03-01T10:19:42.000Z</time>
      </trkpt>
      <trkpt lat="45.16521" lon="5.30278">
        <ele>676</ele>
        <time>2020-03-01T10:19:43.000Z</time>
      </trkpt>
      <trkpt lat="45.16522" lon="5.3028">
        <ele>676</ele>
        <time>2020-03-01T10:19:44.000Z</time>
      </trkpt>
      <trkpt lat="45.16523" lon="5.30283">
        <ele>676</ele>
        <time>2020-03-01T10:19:45.000Z</time>
      </trkpt>
      <trkpt lat="45.16523" lon="5.30286">
        <ele>676.20001220703</ele>
        <time>2020-03-01T10:19:46.000Z</time>
      </trkpt>
      <trkpt lat="45.16522" lon="5.30288">
        <ele>676.59997558594</ele>
        <time>2020-03-01T10:19:47.000Z</time>
      </trkpt>
      <trkpt lat="45.16522" lon="5.30291">
        <ele>677</ele>
        <time>2020-03-01T10:19:48.000Z</time>
      </trkpt>
      <trkpt lat="45.16521" lon="5.30293">
        <ele>677</ele>
        <time>2020-03-01T10:19:49.000Z</time>
      </trkpt>
      <trkpt lat="45.16521" lon="5.30294">
        <ele>677.20001220703</ele>
        <time>2020-03-01T10:19:50.000Z</time>
      </trkpt>
      <trkpt lat="45.1652" lon="5.30298">
        <ele>677.40002441406</ele>
        <time>2020-03-01T10:19:51.000Z</time>
      </trkpt>
      <trkpt lat="45.16521" lon="5.30301">
        <ele>677.40002441406</ele>
        <time>2020-03-01T10:19:52.000Z</time>
      </trkpt>
      <trkpt lat="45.16522" lon="5.30303">
        <ele>677.40002441406</ele>
        <time>2020-03-01T10:19:53.000Z</time>
      </trkpt>
      <trkpt lat="45.16523" lon="5.30305">
        <ele>677.40002441406</ele>
        <time>2020-03-01T10:19:54.000Z</time>
      </trkpt>
      <trkpt lat="45.16523" lon="5.30306">
        <ele>677.40002441406</ele>
        <time>2020-03-01T10:19:55.000Z</time>
      </trkpt>
      <trkpt lat="45.16524" lon="5.30308">
        <ele>677.59997558594</ele>
        <time>2020-03-01T10:19:56.000Z</time>
      </trkpt>
      <trkpt lat="45.16524" lon="5.30309">
        <ele>677.79998779297</ele>
        <time>2020-03-01T10:19:57.000Z</time>
      </trkpt>
      <trkpt lat="45.16525" lon="5.30311">
        <ele>678</ele>
        <time>2020-03-01T10:19:58.000Z</time>
      </trkpt>
      <trkpt lat="45.16526" lon="5.30312">
        <ele>678.20001220703</ele>
        <time>2020-03-01T10:19:59.000Z</time>
      </trkpt>
      <trkpt lat="45.16526" lon="5.30313">
        <ele>678.40002441406</ele>
        <time>2020-03-01T10:20:00.000Z</time>
      </trkpt>
      <trkpt lat="45.16527" lon="5.30315">
        <ele>678.40002441406</ele>
        <time>2020-03-01T10:20:01.000Z</time>
      </trkpt>
      <trkpt lat="45.16528" lon="5.30316">
        <ele>678.59997558594</ele>
        <time>2020-03-01T10:20:02.000Z</time>
      </trkpt>
      <trkpt lat="45.16528" lon="5.30318">
        <ele>678.59997558594</ele>
        <time>2020-03-01T10:20:03.000Z</time>
      </trkpt>
      <trkpt lat="45.1653" lon="5.30319">
        <ele>678.59997558594</ele>
        <time>2020-03-01T10:20:04.000Z</time>
      </trkpt>
      <trkpt lat="45.16531" lon="5.30321">
        <ele>678.59997558594</ele>
        <time>2020-03-01T10:20:05.000Z</time>
      </trkpt>
      <trkpt lat="45.16531" lon="5.30322">
        <ele>678.79998779297</ele>
        <time>2020-03-01T10:20:06.000Z</time>
      </trkpt>
      <trkpt lat="45.16531" lon="5.30324">
        <ele>679</ele>
        <time>2020-03-01T10:20:07.000Z</time>
      </trkpt>
      <trkpt lat="45.16531" lon="5.30325">
        <ele>679.20001220703</ele>
        <time>2020-03-01T10:20:08.000Z</time>
      </trkpt>
      <trkpt lat="45.1653" lon="5.30326">
        <ele>679.40002441406</ele>
        <time>2020-03-01T10:20:09.000Z</time>
      </trkpt>
      <trkpt lat="45.1653" lon="5.30328">
        <ele>679.59997558594</ele>
        <time>2020-03-01T10:20:10.000Z</time>
      </trkpt>
      <trkpt lat="45.16529" lon="5.30329">
        <ele>679.79998779297</ele>
        <time>2020-03-01T10:20:11.000Z</time>
      </trkpt>
      <trkpt lat="45.16527" lon="5.30331">
        <ele>680</ele>
        <time>2020-03-01T10:20:12.000Z</time>
      </trkpt>
      <trkpt lat="45.16526" lon="5.30333">
        <ele>680</ele>
        <time>2020-03-01T10:20:13.000Z</time>
      </trkpt>
      <trkpt lat="45.16525" lon="5.30335">
        <ele>680.20001220703</ele>
        <time>2020-03-01T10:20:14.000Z</time>
      </trkpt>
      <trkpt lat="45.16525" lon="5.30336">
        <ele>680.20001220703</ele>
        <time>2020-03-01T10:20:15.000Z</time>
      </trkpt>
      <trkpt lat="45.16525" lon="5.30337">
        <ele>680.40002441406</ele>
        <time>2020-03-01T10:20:16.000Z</time>
      </trkpt>
      <trkpt lat="45.16525" lon="5.30339">
        <ele>680.59997558594</ele>
        <time>2020-03-01T10:20:17.000Z</time>
      </trkpt>
      <trkpt lat="45.16525" lon="5.30342">
        <ele>680.79998779297</ele>
        <time>2020-03-01T10:20:18.000Z</time>
      </trkpt>
      <trkpt lat="45.16525" lon="5.30343">
        <ele>681</ele>
        <time>2020-03-01T10:20:19.000Z</time>
      </trkpt>
      <trkpt lat="45.16524" lon="5.30345">
        <ele>681</ele>
        <time>2020-03-01T10:20:20.000Z</time>
      </trkpt>
      <trkpt lat="45.16523" lon="5.30346">
        <ele>681.20001220703</ele>
        <time>2020-03-01T10:20:21.000Z</time>
      </trkpt>
      <trkpt lat="45.16522" lon="5.30347">
        <ele>681.40002441406</ele>
        <time>2020-03-01T10:20:22.000Z</time>
      </trkpt>
      <trkpt lat="45.16522" lon="5.30349">
        <ele>681.40002441406</ele>
        <time>2020-03-01T10:20:23.000Z</time>
      </trkpt>
      <trkpt lat="45.16521" lon="5.3035">
        <ele>681.59997558594</ele>
        <time>2020-03-01T10:20:24.000Z</time>
      </trkpt>
      <trkpt lat="45.1652" lon="5.30352">
        <ele>681.79998779297</ele>
        <time>2020-03-01T10:20:25.000Z</time>
      </trkpt>
      <trkpt lat="45.1652" lon="5.30354">
        <ele>682.20001220703</ele>
        <time>2020-03-01T10:20:26.000Z</time>
      </trkpt>
      <trkpt lat="45.1652" lon="5.30356">
        <ele>682.40002441406</ele>
        <time>2020-03-01T10:20:27.000Z</time>
      </trkpt>
      <trkpt lat="45.16519" lon="5.30358">
        <ele>682.59997558594</ele>
        <time>2020-03-01T10:20:28.000Z</time>
      </trkpt>
      <trkpt lat="45.16518" lon="5.30359">
        <ele>682.79998779297</ele>
        <time>2020-03-01T10:20:29.000Z</time>
      </trkpt>
      <trkpt lat="45.16517" lon="5.3036">
        <ele>683</ele>
        <time>2020-03-01T10:20:30.000Z</time>
      </trkpt>
      <trkpt lat="45.16517" lon="5.30361">
        <ele>683.20001220703</ele>
        <time>2020-03-01T10:20:31.000Z</time>
      </trkpt>
      <trkpt lat="45.16515" lon="5.30362">
        <ele>683.40002441406</ele>
        <time>2020-03-01T10:20:32.000Z</time>
      </trkpt>
      <trkpt lat="45.16514" lon="5.30363">
        <ele>683.40002441406</ele>
        <time>2020-03-01T10:20:33.000Z</time>
      </trkpt>
      <trkpt lat="45.16513" lon="5.30364">
        <ele>683.59997558594</ele>
        <time>2020-03-01T10:20:34.000Z</time>
      </trkpt>
      <trkpt lat="45.16512" lon="5.30364">
        <ele>684</ele>
        <time>2020-03-01T10:20:35.000Z</time>
      </trkpt>
      <trkpt lat="45.16511" lon="5.30364">
        <ele>684.20001220703</ele>
        <time>2020-03-01T10:20:36.000Z</time>
      </trkpt>
      <trkpt lat="45.1651" lon="5.30363">
        <ele>684.40002441406</ele>
        <time>2020-03-01T10:20:37.000Z</time>
      </trkpt>
      <trkpt lat="45.16509" lon="5.30363">
        <ele>684.40002441406</ele>
        <time>2020-03-01T10:20:38.000Z</time>
      </trkpt>
      <trkpt lat="45.16508" lon="5.30362">
        <ele>684.59997558594</ele>
        <time>2020-03-01T10:20:39.000Z</time>
      </trkpt>
      <trkpt lat="45.16507" lon="5.30362">
        <ele>684.79998779297</ele>
        <time>2020-03-01T10:20:40.000Z</time>
      </trkpt>
      <trkpt lat="45.16506" lon="5.30362">
        <ele>684.79998779297</ele>
        <time>2020-03-01T10:20:41.000Z</time>
      </trkpt>
      <trkpt lat="45.16504" lon="5.30363">
        <ele>685</ele>
        <time>2020-03-01T10:20:42.000Z</time>
      </trkpt>
      <trkpt lat="45.16503" lon="5.30362">
        <ele>685</ele>
        <time>2020-03-01T10:20:43.000Z</time>
      </trkpt>
      <trkpt lat="45.16502" lon="5.30363">
        <ele>685</ele>
        <time>2020-03-01T10:20:44.000Z</time>
      </trkpt>
      <trkpt lat="45.16501" lon="5.30363">
        <ele>685.20001220703</ele>
        <time>2020-03-01T10:20:45.000Z</time>
      </trkpt>
      <trkpt lat="45.165" lon="5.30363">
        <ele>685.20001220703</ele>
        <time>2020-03-01T10:20:46.000Z</time>
      </trkpt>
      <trkpt lat="45.165" lon="5.30362">
        <ele>685.40002441406</ele>
        <time>2020-03-01T10:20:47.000Z</time>
      </trkpt>
      <trkpt lat="45.16498" lon="5.30362">
        <ele>685.79998779297</ele>
        <time>2020-03-01T10:20:48.000Z</time>
      </trkpt>
      <trkpt lat="45.16497" lon="5.30361">
        <ele>685.79998779297</ele>
        <time>2020-03-01T10:20:49.000Z</time>
      </trkpt>
      <trkpt lat="45.16496" lon="5.30362">
        <ele>686</ele>
        <time>2020-03-01T10:20:50.000Z</time>
      </trkpt>
      <trkpt lat="45.16494" lon="5.30361">
        <ele>686</ele>
        <time>2020-03-01T10:20:51.000Z</time>
      </trkpt>
      <trkpt lat="45.16493" lon="5.30361">
        <ele>686</ele>
        <time>2020-03-01T10:20:52.000Z</time>
      </trkpt>
      <trkpt lat="45.16492" lon="5.3036">
        <ele>686.20001220703</ele>
        <time>2020-03-01T10:20:53.000Z</time>
      </trkpt>
      <trkpt lat="45.16491" lon="5.3036">
        <ele>686.40002441406</ele>
        <time>2020-03-01T10:20:54.000Z</time>
      </trkpt>
      <trkpt lat="45.1649" lon="5.3036">
        <ele>686.20001220703</ele>
        <time>2020-03-01T10:20:55.000Z</time>
      </trkpt>
      <trkpt lat="45.16489" lon="5.30359">
        <ele>686.40002441406</ele>
        <time>2020-03-01T10:20:56.000Z</time>
      </trkpt>
      <trkpt lat="45.16488" lon="5.30359">
        <ele>686.79998779297</ele>
        <time>2020-03-01T10:20:57.000Z</time>
      </trkpt>
      <trkpt lat="45.16487" lon="5.30358">
        <ele>687</ele>
        <time>2020-03-01T10:20:58.000Z</time>
      </trkpt>
      <trkpt lat="45.16486" lon="5.30358">
        <ele>687.20001220703</ele>
        <time>2020-03-01T10:20:59.000Z</time>
      </trkpt>
      <trkpt lat="45.16485" lon="5.30357">
        <ele>687.20001220703</ele>
        <time>2020-03-01T10:21:00.000Z</time>
      </trkpt>
      <trkpt lat="45.16484" lon="5.30356">
        <ele>687.20001220703</ele>
        <time>2020-03-01T10:21:01.000Z</time>
      </trkpt>
      <trkpt lat="45.16483" lon="5.30355">
        <ele>687.40002441406</ele>
        <time>2020-03-01T10:21:02.000Z</time>
      </trkpt>
      <trkpt lat="45.16482" lon="5.30354">
        <ele>687.59997558594</ele>
        <time>2020-03-01T10:21:03.000Z</time>
      </trkpt>
      <trkpt lat="45.1648" lon="5.30353">
        <ele>687.79998779297</ele>
        <time>2020-03-01T10:21:04.000Z</time>
      </trkpt>
      <trkpt lat="45.1648" lon="5.30353">
        <ele>688</ele>
        <time>2020-03-01T10:21:05.000Z</time>
      </trkpt>
      <trkpt lat="45.16479" lon="5.30353">
        <ele>688.20001220703</ele>
        <time>2020-03-01T10:21:06.000Z</time>
      </trkpt>
      <trkpt lat="45.16477" lon="5.30352">
        <ele>688.20001220703</ele>
        <time>2020-03-01T10:21:07.000Z</time>
      </trkpt>
      <trkpt lat="45.16476" lon="5.30352">
        <ele>688.40002441406</ele>
        <time>2020-03-01T10:21:08.000Z</time>
      </trkpt>
      <trkpt lat="45.16475" lon="5.30351">
        <ele>688.59997558594</ele>
        <time>2020-03-01T10:21:09.000Z</time>
      </trkpt>
      <trkpt lat="45.16474" lon="5.3035">
        <ele>688.59997558594</ele>
        <time>2020-03-01T10:21:10.000Z</time>
      </trkpt>
      <trkpt lat="45.16473" lon="5.30349">
        <ele>688.79998779297</ele>
        <time>2020-03-01T10:21:11.000Z</time>
      </trkpt>
      <trkpt lat="45.16472" lon="5.30348">
        <ele>688.79998779297</ele>
        <time>2020-03-01T10:21:12.000Z</time>
      </trkpt>
      <trkpt lat="45.16471" lon="5.30348">
        <ele>689</ele>
        <time>2020-03-01T10:21:13.000Z</time>
      </trkpt>
      <trkpt lat="45.1647" lon="5.30347">
        <ele>689.20001220703</ele>
        <time>2020-03-01T10:21:14.000Z</time>
      </trkpt>
      <trkpt lat="45.16469" lon="5.30346">
        <ele>689.20001220703</ele>
        <time>2020-03-01T10:21:15.000Z</time>
      </trkpt>
      <trkpt lat="45.16468" lon="5.30346">
        <ele>689.40002441406</ele>
        <time>2020-03-01T10:21:16.000Z</time>
      </trkpt>
      <trkpt lat="45.16467" lon="5.30346">
        <ele>689.59997558594</ele>
        <time>2020-03-01T10:21:17.000Z</time>
      </trkpt>
      <trkpt lat="45.16466" lon="5.30346">
        <ele>689.59997558594</ele>
        <time>2020-03-01T10:21:18.000Z</time>
      </trkpt>
      <trkpt lat="45.16465" lon="5.30346">
        <ele>690</ele>
        <time>2020-03-01T10:21:19.000Z</time>
      </trkpt>
      <trkpt lat="45.16464" lon="5.30345">
        <ele>690.40002441406</ele>
        <time>2020-03-01T10:21:20.000Z</time>
      </trkpt>
      <trkpt lat="45.16462" lon="5.30344">
        <ele>690.59997558594</ele>
        <time>2020-03-01T10:21:21.000Z</time>
      </trkpt>
      <trkpt lat="45.16461" lon="5.30343">
        <ele>691</ele>
        <time>2020-03-01T10:21:22.000Z</time>
      </trkpt>
      <trkpt lat="45.16461" lon="5.30343">
        <ele>691</ele>
        <time>2020-03-01T10:21:23.000Z</time>
      </trkpt>
      <trkpt lat="45.16459" lon="5.30343">
        <ele>691.20001220703</ele>
        <time>2020-03-01T10:21:24.000Z</time>
      </trkpt>
      <trkpt lat="45.16457" lon="5.30342">
        <ele>691.20001220703</ele>
        <time>2020-03-01T10:21:25.000Z</time>
      </trkpt>
      <trkpt lat="45.16455" lon="5.30341">
        <ele>691.20001220703</ele>
        <time>2020-03-01T10:21:26.000Z</time>
      </trkpt>
      <trkpt lat="45.16453" lon="5.30341">
        <ele>691.40002441406</ele>
        <time>2020-03-01T10:21:27.000Z</time>
      </trkpt>
      <trkpt lat="45.16451" lon="5.30341">
        <ele>691.59997558594</ele>
        <time>2020-03-01T10:21:28.000Z</time>
      </trkpt>
      <trkpt lat="45.1645" lon="5.30341">
        <ele>691.79998779297</ele>
        <time>2020-03-01T10:21:29.000Z</time>
      </trkpt>
      <trkpt lat="45.16448" lon="5.30342">
        <ele>692</ele>
        <time>2020-03-01T10:21:30.000Z</time>
      </trkpt>
      <trkpt lat="45.16447" lon="5.30342">
        <ele>692.20001220703</ele>
        <time>2020-03-01T10:21:31.000Z</time>
      </trkpt>
      <trkpt lat="45.16446" lon="5.30341">
        <ele>692.20001220703</ele>
        <time>2020-03-01T10:21:32.000Z</time>
      </trkpt>
      <trkpt lat="45.16445" lon="5.30341">
        <ele>692.40002441406</ele>
        <time>2020-03-01T10:21:33.000Z</time>
      </trkpt>
      <trkpt lat="45.16444" lon="5.30342">
        <ele>692.59997558594</ele>
        <time>2020-03-01T10:21:34.000Z</time>
      </trkpt>
      <trkpt lat="45.16443" lon="5.30341">
        <ele>692.59997558594</ele>
        <time>2020-03-01T10:21:35.000Z</time>
      </trkpt>
      <trkpt lat="45.16441" lon="5.3034">
        <ele>692.79998779297</ele>
        <time>2020-03-01T10:21:36.000Z</time>
      </trkpt>
      <trkpt lat="45.1644" lon="5.30339">
        <ele>693</ele>
        <time>2020-03-01T10:21:37.000Z</time>
      </trkpt>
      <trkpt lat="45.16439" lon="5.30339">
        <ele>693.20001220703</ele>
        <time>2020-03-01T10:21:38.000Z</time>
      </trkpt>
      <trkpt lat="45.16438" lon="5.30338">
        <ele>693.59997558594</ele>
        <time>2020-03-01T10:21:39.000Z</time>
      </trkpt>
      <trkpt lat="45.16437" lon="5.30338">
        <ele>693.59997558594</ele>
        <time>2020-03-01T10:21:40.000Z</time>
      </trkpt>
      <trkpt lat="45.16435" lon="5.30338">
        <ele>693.79998779297</ele>
        <time>2020-03-01T10:21:41.000Z</time>
      </trkpt>
      <trkpt lat="45.16434" lon="5.30338">
        <ele>694</ele>
        <time>2020-03-01T10:21:42.000Z</time>
      </trkpt>
      <trkpt lat="45.16432" lon="5.30337">
        <ele>694</ele>
        <time>2020-03-01T10:21:43.000Z</time>
      </trkpt>
      <trkpt lat="45.16431" lon="5.30337">
        <ele>694</ele>
        <time>2020-03-01T10:21:44.000Z</time>
      </trkpt>
      <trkpt lat="45.1643" lon="5.30337">
        <ele>694.20001220703</ele>
        <time>2020-03-01T10:21:45.000Z</time>
      </trkpt>
      <trkpt lat="45.16428" lon="5.30337">
        <ele>694.40002441406</ele>
        <time>2020-03-01T10:21:46.000Z</time>
      </trkpt>
      <trkpt lat="45.16427" lon="5.30337">
        <ele>694.40002441406</ele>
        <time>2020-03-01T10:21:47.000Z</time>
      </trkpt>
      <trkpt lat="45.16426" lon="5.30337">
        <ele>694.59997558594</ele>
        <time>2020-03-01T10:21:48.000Z</time>
      </trkpt>
      <trkpt lat="45.16424" lon="5.30337">
        <ele>694.79998779297</ele>
        <time>2020-03-01T10:21:49.000Z</time>
      </trkpt>
      <trkpt lat="45.16423" lon="5.30337">
        <ele>695</ele>
        <time>2020-03-01T10:21:50.000Z</time>
      </trkpt>
      <trkpt lat="45.16422" lon="5.30337">
        <ele>695.20001220703</ele>
        <time>2020-03-01T10:21:51.000Z</time>
      </trkpt>
      <trkpt lat="45.16421" lon="5.30336">
        <ele>695.40002441406</ele>
        <time>2020-03-01T10:21:52.000Z</time>
      </trkpt>
      <trkpt lat="45.1642" lon="5.30337">
        <ele>695.59997558594</ele>
        <time>2020-03-01T10:21:53.000Z</time>
      </trkpt>
      <trkpt lat="45.16419" lon="5.30337">
        <ele>695.59997558594</ele>
        <time>2020-03-01T10:21:54.000Z</time>
      </trkpt>
      <trkpt lat="45.16418" lon="5.30337">
        <ele>695.59997558594</ele>
        <time>2020-03-01T10:21:55.000Z</time>
      </trkpt>
      <trkpt lat="45.16417" lon="5.30337">
        <ele>695.59997558594</ele>
        <time>2020-03-01T10:21:56.000Z</time>
      </trkpt>
      <trkpt lat="45.16415" lon="5.30336">
        <ele>695.79998779297</ele>
        <time>2020-03-01T10:21:57.000Z</time>
      </trkpt>
      <trkpt lat="45.16413" lon="5.30335">
        <ele>695.79998779297</ele>
        <time>2020-03-01T10:21:58.000Z</time>
      </trkpt>
      <trkpt lat="45.16412" lon="5.30335">
        <ele>695.79998779297</ele>
        <time>2020-03-01T10:21:59.000Z</time>
      </trkpt>
      <trkpt lat="45.16411" lon="5.30335">
        <ele>696</ele>
        <time>2020-03-01T10:22:00.000Z</time>
      </trkpt>
      <trkpt lat="45.1641" lon="5.30335">
        <ele>696.20001220703</ele>
        <time>2020-03-01T10:22:01.000Z</time>
      </trkpt>
      <trkpt lat="45.16409" lon="5.30336">
        <ele>696.20001220703</ele>
        <time>2020-03-01T10:22:02.000Z</time>
      </trkpt>
      <trkpt lat="45.16408" lon="5.30336">
        <ele>696.40002441406</ele>
        <time>2020-03-01T10:22:03.000Z</time>
      </trkpt>
      <trkpt lat="45.16408" lon="5.30337">
        <ele>696.40002441406</ele>
        <time>2020-03-01T10:22:04.000Z</time>
      </trkpt>
      <trkpt lat="45.16407" lon="5.30337">
        <ele>696.40002441406</ele>
        <time>2020-03-01T10:22:05.000Z</time>
      </trkpt>
      <trkpt lat="45.16406" lon="5.30337">
        <ele>696.40002441406</ele>
        <time>2020-03-01T10:22:06.000Z</time>
      </trkpt>
      <trkpt lat="45.16405" lon="5.30337">
        <ele>696.40002441406</ele>
        <time>2020-03-01T10:22:07.000Z</time>
      </trkpt>
      <trkpt lat="45.16404" lon="5.30337">
        <ele>696.40002441406</ele>
        <time>2020-03-01T10:22:08.000Z</time>
      </trkpt>
      <trkpt lat="45.16403" lon="5.30337">
        <ele>696.59997558594</ele>
        <time>2020-03-01T10:22:09.000Z</time>
      </trkpt>
      <trkpt lat="45.16403" lon="5.30338">
        <ele>696.79998779297</ele>
        <time>2020-03-01T10:22:10.000Z</time>
      </trkpt>
      <trkpt lat="45.16401" lon="5.30338">
        <ele>697</ele>
        <time>2020-03-01T10:22:11.000Z</time>
      </trkpt>
      <trkpt lat="45.16401" lon="5.30339">
        <ele>697</ele>
        <time>2020-03-01T10:22:12.000Z</time>
      </trkpt>
      <trkpt lat="45.164" lon="5.3034">
        <ele>697.20001220703</ele>
        <time>2020-03-01T10:22:13.000Z</time>
      </trkpt>
      <trkpt lat="45.16399" lon="5.30341">
        <ele>697.20001220703</ele>
        <time>2020-03-01T10:22:14.000Z</time>
      </trkpt>
      <trkpt lat="45.16398" lon="5.30342">
        <ele>697.40002441406</ele>
        <time>2020-03-01T10:22:15.000Z</time>
      </trkpt>
      <trkpt lat="45.16397" lon="5.30342">
        <ele>697.40002441406</ele>
        <time>2020-03-01T10:22:16.000Z</time>
      </trkpt>
      <trkpt lat="45.16396" lon="5.30342">
        <ele>697.40002441406</ele>
        <time>2020-03-01T10:22:17.000Z</time>
      </trkpt>
      <trkpt lat="45.16394" lon="5.30342">
        <ele>697.40002441406</ele>
        <time>2020-03-01T10:22:18.000Z</time>
      </trkpt>
      <trkpt lat="45.16393" lon="5.30344">
        <ele>697.40002441406</ele>
        <time>2020-03-01T10:22:19.000Z</time>
      </trkpt>
      <trkpt lat="45.16392" lon="5.30344">
        <ele>697.40002441406</ele>
        <time>2020-03-01T10:22:20.000Z</time>
      </trkpt>
      <trkpt lat="45.1639" lon="5.30345">
        <ele>697.40002441406</ele>
        <time>2020-03-01T10:22:21.000Z</time>
      </trkpt>
      <trkpt lat="45.16389" lon="5.30347">
        <ele>697.40002441406</ele>
        <time>2020-03-01T10:22:22.000Z</time>
      </trkpt>
      <trkpt lat="45.16388" lon="5.30347">
        <ele>697.40002441406</ele>
        <time>2020-03-01T10:22:23.000Z</time>
      </trkpt>
      <trkpt lat="45.16387" lon="5.30348">
        <ele>697.20001220703</ele>
        <time>2020-03-01T10:22:24.000Z</time>
      </trkpt>
      <trkpt lat="45.16386" lon="5.30349">
        <ele>697.20001220703</ele>
        <time>2020-03-01T10:22:25.000Z</time>
      </trkpt>
      <trkpt lat="45.16385" lon="5.30351">
        <ele>697.20001220703</ele>
        <time>2020-03-01T10:22:26.000Z</time>
      </trkpt>
      <trkpt lat="45.16384" lon="5.30353">
        <ele>697.20001220703</ele>
        <time>2020-03-01T10:22:27.000Z</time>
      </trkpt>
      <trkpt lat="45.16382" lon="5.30355">
        <ele>697.20001220703</ele>
        <time>2020-03-01T10:22:28.000Z</time>
      </trkpt>
      <trkpt lat="45.16381" lon="5.30357">
        <ele>697.20001220703</ele>
        <time>2020-03-01T10:22:29.000Z</time>
      </trkpt>
      <trkpt lat="45.16381" lon="5.30359">
        <ele>697.20001220703</ele>
        <time>2020-03-01T10:22:30.000Z</time>
      </trkpt>
      <trkpt lat="45.1638" lon="5.30361">
        <ele>697.40002441406</ele>
        <time>2020-03-01T10:22:31.000Z</time>
      </trkpt>
      <trkpt lat="45.1638" lon="5.30363">
        <ele>697.59997558594</ele>
        <time>2020-03-01T10:22:32.000Z</time>
      </trkpt>
      <trkpt lat="45.16379" lon="5.30365">
        <ele>697.79998779297</ele>
        <time>2020-03-01T10:22:33.000Z</time>
      </trkpt>
      <trkpt lat="45.16378" lon="5.30367">
        <ele>698</ele>
        <time>2020-03-01T10:22:34.000Z</time>
      </trkpt>
      <trkpt lat="45.16377" lon="5.30369">
        <ele>698.20001220703</ele>
        <time>2020-03-01T10:22:35.000Z</time>
      </trkpt>
      <trkpt lat="45.16377" lon="5.30371">
        <ele>698.20001220703</ele>
        <time>2020-03-01T10:22:36.000Z</time>
      </trkpt>
      <trkpt lat="45.16376" lon="5.30374">
        <ele>698.40002441406</ele>
        <time>2020-03-01T10:22:37.000Z</time>
      </trkpt>
      <trkpt lat="45.16376" lon="5.30376">
        <ele>698.40002441406</ele>
        <time>2020-03-01T10:22:38.000Z</time>
      </trkpt>
      <trkpt lat="45.16375" lon="5.30379">
        <ele>698.40002441406</ele>
        <time>2020-03-01T10:22:39.000Z</time>
      </trkpt>
      <trkpt lat="45.16374" lon="5.30381">
        <ele>698.59997558594</ele>
        <time>2020-03-01T10:22:40.000Z</time>
      </trkpt>
      <trkpt lat="45.16373" lon="5.30383">
        <ele>698.59997558594</ele>
        <time>2020-03-01T10:22:41.000Z</time>
      </trkpt>
      <trkpt lat="45.16373" lon="5.30386">
        <ele>698.79998779297</ele>
        <time>2020-03-01T10:22:42.000Z</time>
      </trkpt>
      <trkpt lat="45.16372" lon="5.30388">
        <ele>698.79998779297</ele>
        <time>2020-03-01T10:22:43.000Z</time>
      </trkpt>
      <trkpt lat="45.16372" lon="5.3039">
        <ele>699</ele>
        <time>2020-03-01T10:22:44.000Z</time>
      </trkpt>
      <trkpt lat="45.16372" lon="5.30392">
        <ele>699</ele>
        <time>2020-03-01T10:22:45.000Z</time>
      </trkpt>
      <trkpt lat="45.16372" lon="5.30395">
        <ele>699.20001220703</ele>
        <time>2020-03-01T10:22:46.000Z</time>
      </trkpt>
      <trkpt lat="45.16371" lon="5.30397">
        <ele>699.40002441406</ele>
        <time>2020-03-01T10:22:47.000Z</time>
      </trkpt>
      <trkpt lat="45.1637" lon="5.30399">
        <ele>699.79998779297</ele>
        <time>2020-03-01T10:22:48.000Z</time>
      </trkpt>
      <trkpt lat="45.16369" lon="5.30401">
        <ele>700</ele>
        <time>2020-03-01T10:22:49.000Z</time>
      </trkpt>
      <trkpt lat="45.16369" lon="5.30405">
        <ele>700.20001220703</ele>
        <time>2020-03-01T10:22:50.000Z</time>
      </trkpt>
      <trkpt lat="45.16369" lon="5.30407">
        <ele>700.20001220703</ele>
        <time>2020-03-01T10:22:51.000Z</time>
      </trkpt>
      <trkpt lat="45.16369" lon="5.30409">
        <ele>700.40002441406</ele>
        <time>2020-03-01T10:22:52.000Z</time>
      </trkpt>
      <trkpt lat="45.16368" lon="5.30412">
        <ele>700.40002441406</ele>
        <time>2020-03-01T10:22:53.000Z</time>
      </trkpt>
      <trkpt lat="45.16368" lon="5.30414">
        <ele>700.40002441406</ele>
        <time>2020-03-01T10:22:54.000Z</time>
      </trkpt>
      <trkpt lat="45.16367" lon="5.30417">
        <ele>700.59997558594</ele>
        <time>2020-03-01T10:22:55.000Z</time>
      </trkpt>
      <trkpt lat="45.16367" lon="5.30419">
        <ele>700.59997558594</ele>
        <time>2020-03-01T10:22:56.000Z</time>
      </trkpt>
      <trkpt lat="45.16366" lon="5.30421">
        <ele>701</ele>
        <time>2020-03-01T10:22:57.000Z</time>
      </trkpt>
      <trkpt lat="45.16364" lon="5.30423">
        <ele>701</ele>
        <time>2020-03-01T10:22:58.000Z</time>
      </trkpt>
      <trkpt lat="45.16362" lon="5.30425">
        <ele>701.40002441406</ele>
        <time>2020-03-01T10:22:59.000Z</time>
      </trkpt>
      <trkpt lat="45.1636" lon="5.30427">
        <ele>701.59997558594</ele>
        <time>2020-03-01T10:23:00.000Z</time>
      </trkpt>
      <trkpt lat="45.16359" lon="5.30428">
        <ele>701.79998779297</ele>
        <time>2020-03-01T10:23:01.000Z</time>
      </trkpt>
      <trkpt lat="45.16357" lon="5.3043">
        <ele>702</ele>
        <time>2020-03-01T10:23:02.000Z</time>
      </trkpt>
      <trkpt lat="45.16357" lon="5.30433">
        <ele>702</ele>
        <time>2020-03-01T10:23:03.000Z</time>
      </trkpt>
      <trkpt lat="45.16356" lon="5.30435">
        <ele>702</ele>
        <time>2020-03-01T10:23:04.000Z</time>
      </trkpt>
      <trkpt lat="45.16356" lon="5.30437">
        <ele>702.20001220703</ele>
        <time>2020-03-01T10:23:05.000Z</time>
      </trkpt>
      <trkpt lat="45.16356" lon="5.30439">
        <ele>702.20001220703</ele>
        <time>2020-03-01T10:23:06.000Z</time>
      </trkpt>
      <trkpt lat="45.16355" lon="5.30441">
        <ele>702.20001220703</ele>
        <time>2020-03-01T10:23:07.000Z</time>
      </trkpt>
      <trkpt lat="45.16355" lon="5.30442">
        <ele>702.20001220703</ele>
        <time>2020-03-01T10:23:08.000Z</time>
      </trkpt>
      <trkpt lat="45.16355" lon="5.30444">
        <ele>702.40002441406</ele>
        <time>2020-03-01T10:23:09.000Z</time>
      </trkpt>
      <trkpt lat="45.16356" lon="5.30446">
        <ele>702.79998779297</ele>
        <time>2020-03-01T10:23:10.000Z</time>
      </trkpt>
      <trkpt lat="45.16355" lon="5.30447">
        <ele>703</ele>
        <time>2020-03-01T10:23:11.000Z</time>
      </trkpt>
      <trkpt lat="45.16354" lon="5.3045">
        <ele>703.20001220703</ele>
        <time>2020-03-01T10:23:12.000Z</time>
      </trkpt>
      <trkpt lat="45.16353" lon="5.30452">
        <ele>703.40002441406</ele>
        <time>2020-03-01T10:23:13.000Z</time>
      </trkpt>
      <trkpt lat="45.16353" lon="5.30454">
        <ele>703.59997558594</ele>
        <time>2020-03-01T10:23:14.000Z</time>
      </trkpt>
      <trkpt lat="45.16352" lon="5.30457">
        <ele>703.59997558594</ele>
        <time>2020-03-01T10:23:15.000Z</time>
      </trkpt>
      <trkpt lat="45.16352" lon="5.30458">
        <ele>703.59997558594</ele>
        <time>2020-03-01T10:23:16.000Z</time>
      </trkpt>
      <trkpt lat="45.16351" lon="5.30461">
        <ele>703.59997558594</ele>
        <time>2020-03-01T10:23:17.000Z</time>
      </trkpt>
      <trkpt lat="45.16352" lon="5.30463">
        <ele>703.79998779297</ele>
        <time>2020-03-01T10:23:18.000Z</time>
      </trkpt>
      <trkpt lat="45.16352" lon="5.30465">
        <ele>704</ele>
        <time>2020-03-01T10:23:19.000Z</time>
      </trkpt>
      <trkpt lat="45.16352" lon="5.30467">
        <ele>704.20001220703</ele>
        <time>2020-03-01T10:23:20.000Z</time>
      </trkpt>
      <trkpt lat="45.16351" lon="5.3047">
        <ele>704.40002441406</ele>
        <time>2020-03-01T10:23:21.000Z</time>
      </trkpt>
      <trkpt lat="45.1635" lon="5.30472">
        <ele>704.40002441406</ele>
        <time>2020-03-01T10:23:22.000Z</time>
      </trkpt>
      <trkpt lat="45.16349" lon="5.30474">
        <ele>704.59997558594</ele>
        <time>2020-03-01T10:23:23.000Z</time>
      </trkpt>
      <trkpt lat="45.16348" lon="5.30475">
        <ele>704.59997558594</ele>
        <time>2020-03-01T10:23:24.000Z</time>
      </trkpt>
      <trkpt lat="45.16348" lon="5.30476">
        <ele>704.79998779297</ele>
        <time>2020-03-01T10:23:25.000Z</time>
      </trkpt>
      <trkpt lat="45.16348" lon="5.30478">
        <ele>705</ele>
        <time>2020-03-01T10:23:26.000Z</time>
      </trkpt>
      <trkpt lat="45.16347" lon="5.30479">
        <ele>705.20001220703</ele>
        <time>2020-03-01T10:23:27.000Z</time>
      </trkpt>
      <trkpt lat="45.16347" lon="5.30481">
        <ele>705.40002441406</ele>
        <time>2020-03-01T10:23:28.000Z</time>
      </trkpt>
      <trkpt lat="45.16347" lon="5.30483">
        <ele>705.59997558594</ele>
        <time>2020-03-01T10:23:29.000Z</time>
      </trkpt>
      <trkpt lat="45.16347" lon="5.30484">
        <ele>705.79998779297</ele>
        <time>2020-03-01T10:23:30.000Z</time>
      </trkpt>
      <trkpt lat="45.16346" lon="5.30486">
        <ele>706</ele>
        <time>2020-03-01T10:23:31.000Z</time>
      </trkpt>
      <trkpt lat="45.16346" lon="5.30488">
        <ele>706.20001220703</ele>
        <time>2020-03-01T10:23:32.000Z</time>
      </trkpt>
      <trkpt lat="45.16346" lon="5.30491">
        <ele>706.20001220703</ele>
        <time>2020-03-01T10:23:33.000Z</time>
      </trkpt>
      <trkpt lat="45.16346" lon="5.30492">
        <ele>706.40002441406</ele>
        <time>2020-03-01T10:23:34.000Z</time>
      </trkpt>
      <trkpt lat="45.16346" lon="5.30494">
        <ele>706.40002441406</ele>
        <time>2020-03-01T10:23:35.000Z</time>
      </trkpt>
      <trkpt lat="45.16346" lon="5.30496">
        <ele>706.59997558594</ele>
        <time>2020-03-01T10:23:36.000Z</time>
      </trkpt>
      <trkpt lat="45.16345" lon="5.30498">
        <ele>706.79998779297</ele>
        <time>2020-03-01T10:23:37.000Z</time>
      </trkpt>
      <trkpt lat="45.16345" lon="5.305">
        <ele>706.79998779297</ele>
        <time>2020-03-01T10:23:38.000Z</time>
      </trkpt>
      <trkpt lat="45.16344" lon="5.30501">
        <ele>707</ele>
        <time>2020-03-01T10:23:39.000Z</time>
      </trkpt>
      <trkpt lat="45.16344" lon="5.30503">
        <ele>707</ele>
        <time>2020-03-01T10:23:40.000Z</time>
      </trkpt>
      <trkpt lat="45.16343" lon="5.30504">
        <ele>707.20001220703</ele>
        <time>2020-03-01T10:23:41.000Z</time>
      </trkpt>
      <trkpt lat="45.16343" lon="5.30505">
        <ele>707.20001220703</ele>
        <time>2020-03-01T10:23:42.000Z</time>
      </trkpt>
      <trkpt lat="45.16342" lon="5.30507">
        <ele>707.40002441406</ele>
        <time>2020-03-01T10:23:43.000Z</time>
      </trkpt>
      <trkpt lat="45.16342" lon="5.30508">
        <ele>707.40002441406</ele>
        <time>2020-03-01T10:23:44.000Z</time>
      </trkpt>
      <trkpt lat="45.16341" lon="5.30509">
        <ele>707.59997558594</ele>
        <time>2020-03-01T10:23:45.000Z</time>
      </trkpt>
      <trkpt lat="45.16341" lon="5.30511">
        <ele>707.79998779297</ele>
        <time>2020-03-01T10:23:46.000Z</time>
      </trkpt>
      <trkpt lat="45.1634" lon="5.30513">
        <ele>708</ele>
        <time>2020-03-01T10:23:47.000Z</time>
      </trkpt>
      <trkpt lat="45.16339" lon="5.30515">
        <ele>708</ele>
        <time>2020-03-01T10:23:48.000Z</time>
      </trkpt>
      <trkpt lat="45.16339" lon="5.30516">
        <ele>708.20001220703</ele>
        <time>2020-03-01T10:23:49.000Z</time>
      </trkpt>
      <trkpt lat="45.16339" lon="5.30518">
        <ele>708.20001220703</ele>
        <time>2020-03-01T10:23:50.000Z</time>
      </trkpt>
      <trkpt lat="45.16339" lon="5.3052">
        <ele>708.20001220703</ele>
        <time>2020-03-01T10:23:51.000Z</time>
      </trkpt>
      <trkpt lat="45.16338" lon="5.30522">
        <ele>708.40002441406</ele>
        <time>2020-03-01T10:23:52.000Z</time>
      </trkpt>
      <trkpt lat="45.16338" lon="5.30524">
        <ele>708.40002441406</ele>
        <time>2020-03-01T10:23:53.000Z</time>
      </trkpt>
      <trkpt lat="45.16337" lon="5.30526">
        <ele>708.59997558594</ele>
        <time>2020-03-01T10:23:54.000Z</time>
      </trkpt>
      <trkpt lat="45.16337" lon="5.30527">
        <ele>708.79998779297</ele>
        <time>2020-03-01T10:23:55.000Z</time>
      </trkpt>
      <trkpt lat="45.16337" lon="5.30529">
        <ele>708.79998779297</ele>
        <time>2020-03-01T10:23:56.000Z</time>
      </trkpt>
      <trkpt lat="45.16337" lon="5.30531">
        <ele>709</ele>
        <time>2020-03-01T10:23:57.000Z</time>
      </trkpt>
      <trkpt lat="45.16336" lon="5.30532">
        <ele>709</ele>
        <time>2020-03-01T10:23:58.000Z</time>
      </trkpt>
      <trkpt lat="45.16335" lon="5.30534">
        <ele>709.20001220703</ele>
        <time>2020-03-01T10:23:59.000Z</time>
      </trkpt>
      <trkpt lat="45.16336" lon="5.30536">
        <ele>709.40002441406</ele>
        <time>2020-03-01T10:24:00.000Z</time>
      </trkpt>
      <trkpt lat="45.16335" lon="5.30537">
        <ele>709.40002441406</ele>
        <time>2020-03-01T10:24:01.000Z</time>
      </trkpt>
      <trkpt lat="45.16334" lon="5.30538">
        <ele>709.59997558594</ele>
        <time>2020-03-01T10:24:02.000Z</time>
      </trkpt>
      <trkpt lat="45.16334" lon="5.3054">
        <ele>709.59997558594</ele>
        <time>2020-03-01T10:24:03.000Z</time>
      </trkpt>
      <trkpt lat="45.16333" lon="5.30542">
        <ele>709.59997558594</ele>
        <time>2020-03-01T10:24:04.000Z</time>
      </trkpt>
      <trkpt lat="45.16332" lon="5.30544">
        <ele>709.59997558594</ele>
        <time>2020-03-01T10:24:05.000Z</time>
      </trkpt>
      <trkpt lat="45.16331" lon="5.30546">
        <ele>709.59997558594</ele>
        <time>2020-03-01T10:24:06.000Z</time>
      </trkpt>
      <trkpt lat="45.1633" lon="5.30548">
        <ele>709.79998779297</ele>
        <time>2020-03-01T10:24:07.000Z</time>
      </trkpt>
      <trkpt lat="45.1633" lon="5.3055">
        <ele>709.79998779297</ele>
        <time>2020-03-01T10:24:08.000Z</time>
      </trkpt>
      <trkpt lat="45.16329" lon="5.30552">
        <ele>709.79998779297</ele>
        <time>2020-03-01T10:24:09.000Z</time>
      </trkpt>
      <trkpt lat="45.16329" lon="5.30555">
        <ele>710</ele>
        <time>2020-03-01T10:24:10.000Z</time>
      </trkpt>
      <trkpt lat="45.16329" lon="5.30556">
        <ele>710.20001220703</ele>
        <time>2020-03-01T10:24:11.000Z</time>
      </trkpt>
      <trkpt lat="45.16328" lon="5.30558">
        <ele>710.20001220703</ele>
        <time>2020-03-01T10:24:12.000Z</time>
      </trkpt>
      <trkpt lat="45.16327" lon="5.3056">
        <ele>710.40002441406</ele>
        <time>2020-03-01T10:24:13.000Z</time>
      </trkpt>
      <trkpt lat="45.16327" lon="5.30562">
        <ele>710.59997558594</ele>
        <time>2020-03-01T10:24:14.000Z</time>
      </trkpt>
      <trkpt lat="45.16326" lon="5.30564">
        <ele>710.79998779297</ele>
        <time>2020-03-01T10:24:15.000Z</time>
      </trkpt>
      <trkpt lat="45.16325" lon="5.30566">
        <ele>711</ele>
        <time>2020-03-01T10:24:16.000Z</time>
      </trkpt>
      <trkpt lat="45.16325" lon="5.30567">
        <ele>711</ele>
        <time>2020-03-01T10:24:17.000Z</time>
      </trkpt>
      <trkpt lat="45.16324" lon="5.30569">
        <ele>711</ele>
        <time>2020-03-01T10:24:18.000Z</time>
      </trkpt>
      <trkpt lat="45.16324" lon="5.30571">
        <ele>711.20001220703</ele>
        <time>2020-03-01T10:24:19.000Z</time>
      </trkpt>
      <trkpt lat="45.16323" lon="5.30573">
        <ele>711.20001220703</ele>
        <time>2020-03-01T10:24:20.000Z</time>
      </trkpt>
      <trkpt lat="45.16322" lon="5.30574">
        <ele>711.40002441406</ele>
        <time>2020-03-01T10:24:21.000Z</time>
      </trkpt>
      <trkpt lat="45.16321" lon="5.30576">
        <ele>711.40002441406</ele>
        <time>2020-03-01T10:24:22.000Z</time>
      </trkpt>
      <trkpt lat="45.16319" lon="5.30577">
        <ele>711.59997558594</ele>
        <time>2020-03-01T10:24:23.000Z</time>
      </trkpt>
      <trkpt lat="45.16318" lon="5.30578">
        <ele>712</ele>
        <time>2020-03-01T10:24:24.000Z</time>
      </trkpt>
      <trkpt lat="45.16317" lon="5.3058">
        <ele>712</ele>
        <time>2020-03-01T10:24:25.000Z</time>
      </trkpt>
      <trkpt lat="45.16316" lon="5.30581">
        <ele>712.40002441406</ele>
        <time>2020-03-01T10:24:26.000Z</time>
      </trkpt>
      <trkpt lat="45.16316" lon="5.30583">
        <ele>712.59997558594</ele>
        <time>2020-03-01T10:24:27.000Z</time>
      </trkpt>
      <trkpt lat="45.16315" lon="5.30585">
        <ele>712.79998779297</ele>
        <time>2020-03-01T10:24:28.000Z</time>
      </trkpt>
      <trkpt lat="45.16314" lon="5.30587">
        <ele>712.79998779297</ele>
        <time>2020-03-01T10:24:29.000Z</time>
      </trkpt>
      <trkpt lat="45.16314" lon="5.30589">
        <ele>713</ele>
        <time>2020-03-01T10:24:30.000Z</time>
      </trkpt>
      <trkpt lat="45.16313" lon="5.30591">
        <ele>713</ele>
        <time>2020-03-01T10:24:31.000Z</time>
      </trkpt>
      <trkpt lat="45.16312" lon="5.30593">
        <ele>713</ele>
        <time>2020-03-01T10:24:32.000Z</time>
      </trkpt>
      <trkpt lat="45.16311" lon="5.30596">
        <ele>713.20001220703</ele>
        <time>2020-03-01T10:24:33.000Z</time>
      </trkpt>
      <trkpt lat="45.16311" lon="5.30598">
        <ele>713.40002441406</ele>
        <time>2020-03-01T10:24:34.000Z</time>
      </trkpt>
      <trkpt lat="45.1631" lon="5.306">
        <ele>713.40002441406</ele>
        <time>2020-03-01T10:24:35.000Z</time>
      </trkpt>
      <trkpt lat="45.16309" lon="5.30602">
        <ele>713.59997558594</ele>
        <time>2020-03-01T10:24:36.000Z</time>
      </trkpt>
      <trkpt lat="45.16308" lon="5.30604">
        <ele>713.59997558594</ele>
        <time>2020-03-01T10:24:37.000Z</time>
      </trkpt>
      <trkpt lat="45.16307" lon="5.30606">
        <ele>713.79998779297</ele>
        <time>2020-03-01T10:24:38.000Z</time>
      </trkpt>
      <trkpt lat="45.16306" lon="5.30608">
        <ele>714</ele>
        <time>2020-03-01T10:24:39.000Z</time>
      </trkpt>
      <trkpt lat="45.16305" lon="5.30609">
        <ele>714.20001220703</ele>
        <time>2020-03-01T10:24:40.000Z</time>
      </trkpt>
      <trkpt lat="45.16304" lon="5.30611">
        <ele>714.20001220703</ele>
        <time>2020-03-01T10:24:41.000Z</time>
      </trkpt>
      <trkpt lat="45.16304" lon="5.30612">
        <ele>714.40002441406</ele>
        <time>2020-03-01T10:24:42.000Z</time>
      </trkpt>
      <trkpt lat="45.16303" lon="5.30614">
        <ele>714.40002441406</ele>
        <time>2020-03-01T10:24:43.000Z</time>
      </trkpt>
      <trkpt lat="45.16302" lon="5.30616">
        <ele>714.59997558594</ele>
        <time>2020-03-01T10:24:44.000Z</time>
      </trkpt>
      <trkpt lat="45.16301" lon="5.30618">
        <ele>714.59997558594</ele>
        <time>2020-03-01T10:24:45.000Z</time>
      </trkpt>
      <trkpt lat="45.163" lon="5.3062">
        <ele>714.59997558594</ele>
        <time>2020-03-01T10:24:46.000Z</time>
      </trkpt>
      <trkpt lat="45.16299" lon="5.30622">
        <ele>714.79998779297</ele>
        <time>2020-03-01T10:24:47.000Z</time>
      </trkpt>
      <trkpt lat="45.16298" lon="5.30624">
        <ele>715.20001220703</ele>
        <time>2020-03-01T10:24:48.000Z</time>
      </trkpt>
      <trkpt lat="45.16298" lon="5.30626">
        <ele>715.40002441406</ele>
        <time>2020-03-01T10:24:49.000Z</time>
      </trkpt>
      <trkpt lat="45.16297" lon="5.30628">
        <ele>715.59997558594</ele>
        <time>2020-03-01T10:24:50.000Z</time>
      </trkpt>
      <trkpt lat="45.16296" lon="5.30631">
        <ele>715.79998779297</ele>
        <time>2020-03-01T10:24:51.000Z</time>
      </trkpt>
      <trkpt lat="45.16296" lon="5.30633">
        <ele>715.79998779297</ele>
        <time>2020-03-01T10:24:52.000Z</time>
      </trkpt>
      <trkpt lat="45.16295" lon="5.30635">
        <ele>716.20001220703</ele>
        <time>2020-03-01T10:24:53.000Z</time>
      </trkpt>
      <trkpt lat="45.16294" lon="5.30638">
        <ele>716.79998779297</ele>
        <time>2020-03-01T10:24:54.000Z</time>
      </trkpt>
      <trkpt lat="45.16293" lon="5.3064">
        <ele>717</ele>
        <time>2020-03-01T10:24:55.000Z</time>
      </trkpt>
      <trkpt lat="45.16293" lon="5.30642">
        <ele>717.20001220703</ele>
        <time>2020-03-01T10:24:56.000Z</time>
      </trkpt>
      <trkpt lat="45.16292" lon="5.30644">
        <ele>717.40002441406</ele>
        <time>2020-03-01T10:24:57.000Z</time>
      </trkpt>
      <trkpt lat="45.16291" lon="5.30646">
        <ele>717.59997558594</ele>
        <time>2020-03-01T10:24:58.000Z</time>
      </trkpt>
      <trkpt lat="45.1629" lon="5.30649">
        <ele>717.59997558594</ele>
        <time>2020-03-01T10:24:59.000Z</time>
      </trkpt>
      <trkpt lat="45.16289" lon="5.30651">
        <ele>717.59997558594</ele>
        <time>2020-03-01T10:25:00.000Z</time>
      </trkpt>
      <trkpt lat="45.16288" lon="5.30653">
        <ele>717.40002441406</ele>
        <time>2020-03-01T10:25:01.000Z</time>
      </trkpt>
      <trkpt lat="45.16287" lon="5.30656">
        <ele>717.59997558594</ele>
        <time>2020-03-01T10:25:02.000Z</time>
      </trkpt>
      <trkpt lat="45.16286" lon="5.30659">
        <ele>717.79998779297</ele>
        <time>2020-03-01T10:25:03.000Z</time>
      </trkpt>
      <trkpt lat="45.16285" lon="5.30661">
        <ele>718</ele>
        <time>2020-03-01T10:25:04.000Z</time>
      </trkpt>
      <trkpt lat="45.16284" lon="5.30663">
        <ele>718</ele>
        <time>2020-03-01T10:25:05.000Z</time>
      </trkpt>
      <trkpt lat="45.16283" lon="5.30665">
        <ele>718.20001220703</ele>
        <time>2020-03-01T10:25:06.000Z</time>
      </trkpt>
      <trkpt lat="45.16282" lon="5.30667">
        <ele>718.40002441406</ele>
        <time>2020-03-01T10:25:07.000Z</time>
      </trkpt>
      <trkpt lat="45.16282" lon="5.30671">
        <ele>718.59997558594</ele>
        <time>2020-03-01T10:25:08.000Z</time>
      </trkpt>
      <trkpt lat="45.16282" lon="5.30673">
        <ele>718.79998779297</ele>
        <time>2020-03-01T10:25:09.000Z</time>
      </trkpt>
      <trkpt lat="45.16281" lon="5.30676">
        <ele>719</ele>
        <time>2020-03-01T10:25:10.000Z</time>
      </trkpt>
      <trkpt lat="45.16281" lon="5.30679">
        <ele>719.20001220703</ele>
        <time>2020-03-01T10:25:11.000Z</time>
      </trkpt>
      <trkpt lat="45.1628" lon="5.30681">
        <ele>719.20001220703</ele>
        <time>2020-03-01T10:25:12.000Z</time>
      </trkpt>
      <trkpt lat="45.16279" lon="5.30683">
        <ele>719.20001220703</ele>
        <time>2020-03-01T10:25:13.000Z</time>
      </trkpt>
      <trkpt lat="45.16278" lon="5.30686">
        <ele>719.20001220703</ele>
        <time>2020-03-01T10:25:14.000Z</time>
      </trkpt>
      <trkpt lat="45.16277" lon="5.30688">
        <ele>719.20001220703</ele>
        <time>2020-03-01T10:25:15.000Z</time>
      </trkpt>
      <trkpt lat="45.16276" lon="5.30691">
        <ele>719.20001220703</ele>
        <time>2020-03-01T10:25:16.000Z</time>
      </trkpt>
      <trkpt lat="45.16274" lon="5.30694">
        <ele>719</ele>
        <time>2020-03-01T10:25:17.000Z</time>
      </trkpt>
      <trkpt lat="45.16273" lon="5.30697">
        <ele>719.20001220703</ele>
        <time>2020-03-01T10:25:18.000Z</time>
      </trkpt>
      <trkpt lat="45.16273" lon="5.307">
        <ele>719.20001220703</ele>
        <time>2020-03-01T10:25:19.000Z</time>
      </trkpt>
      <trkpt lat="45.16272" lon="5.30703">
        <ele>719</ele>
        <time>2020-03-01T10:25:20.000Z</time>
      </trkpt>
      <trkpt lat="45.16271" lon="5.30707">
        <ele>719</ele>
        <time>2020-03-01T10:25:21.000Z</time>
      </trkpt>
      <trkpt lat="45.16271" lon="5.3071">
        <ele>719</ele>
        <time>2020-03-01T10:25:22.000Z</time>
      </trkpt>
      <trkpt lat="45.16271" lon="5.30713">
        <ele>719</ele>
        <time>2020-03-01T10:25:23.000Z</time>
      </trkpt>
      <trkpt lat="45.16271" lon="5.30716">
        <ele>719</ele>
        <time>2020-03-01T10:25:24.000Z</time>
      </trkpt>
      <trkpt lat="45.1627" lon="5.30719">
        <ele>718.79998779297</ele>
        <time>2020-03-01T10:25:25.000Z</time>
      </trkpt>
      <trkpt lat="45.1627" lon="5.30722">
        <ele>718.59997558594</ele>
        <time>2020-03-01T10:25:26.000Z</time>
      </trkpt>
      <trkpt lat="45.16269" lon="5.30725">
        <ele>718.40002441406</ele>
        <time>2020-03-01T10:25:27.000Z</time>
      </trkpt>
      <trkpt lat="45.16269" lon="5.30728">
        <ele>718.20001220703</ele>
        <time>2020-03-01T10:25:28.000Z</time>
      </trkpt>
      <trkpt lat="45.16268" lon="5.3073">
        <ele>717.79998779297</ele>
        <time>2020-03-01T10:25:29.000Z</time>
      </trkpt>
      <trkpt lat="45.16268" lon="5.30733">
        <ele>717.59997558594</ele>
        <time>2020-03-01T10:25:30.000Z</time>
      </trkpt>
      <trkpt lat="45.16266" lon="5.30736">
        <ele>717.59997558594</ele>
        <time>2020-03-01T10:25:31.000Z</time>
      </trkpt>
      <trkpt lat="45.16266" lon="5.30739">
        <ele>717.40002441406</ele>
        <time>2020-03-01T10:25:32.000Z</time>
      </trkpt>
      <trkpt lat="45.16265" lon="5.30742">
        <ele>717</ele>
        <time>2020-03-01T10:25:33.000Z</time>
      </trkpt>
      <trkpt lat="45.16265" lon="5.30745">
        <ele>716.79998779297</ele>
        <time>2020-03-01T10:25:34.000Z</time>
      </trkpt>
      <trkpt lat="45.16264" lon="5.30749">
        <ele>716.59997558594</ele>
        <time>2020-03-01T10:25:35.000Z</time>
      </trkpt>
      <trkpt lat="45.16263" lon="5.30752">
        <ele>716</ele>
        <time>2020-03-01T10:25:36.000Z</time>
      </trkpt>
      <trkpt lat="45.16262" lon="5.30756">
        <ele>715.40002441406</ele>
        <time>2020-03-01T10:25:37.000Z</time>
      </trkpt>
      <trkpt lat="45.16261" lon="5.30759">
        <ele>715</ele>
        <time>2020-03-01T10:25:38.000Z</time>
      </trkpt>
      <trkpt lat="45.16261" lon="5.30763">
        <ele>714.59997558594</ele>
        <time>2020-03-01T10:25:39.000Z</time>
      </trkpt>
      <trkpt lat="45.1626" lon="5.30768">
        <ele>714</ele>
        <time>2020-03-01T10:25:40.000Z</time>
      </trkpt>
      <trkpt lat="45.16258" lon="5.30771">
        <ele>713.59997558594</ele>
        <time>2020-03-01T10:25:41.000Z</time>
      </trkpt>
      <trkpt lat="45.16257" lon="5.30774">
        <ele>713.40002441406</ele>
        <time>2020-03-01T10:25:42.000Z</time>
      </trkpt>
      <trkpt lat="45.16256" lon="5.30777">
        <ele>713.20001220703</ele>
        <time>2020-03-01T10:25:43.000Z</time>
      </trkpt>
      <trkpt lat="45.16255" lon="5.3078">
        <ele>713</ele>
        <time>2020-03-01T10:25:44.000Z</time>
      </trkpt>
      <trkpt lat="45.16253" lon="5.30782">
        <ele>712.40002441406</ele>
        <time>2020-03-01T10:25:45.000Z</time>
      </trkpt>
      <trkpt lat="45.16252" lon="5.30784">
        <ele>712.20001220703</ele>
        <time>2020-03-01T10:25:46.000Z</time>
      </trkpt>
      <trkpt lat="45.1625" lon="5.30786">
        <ele>711.79998779297</ele>
        <time>2020-03-01T10:25:47.000Z</time>
      </trkpt>
      <trkpt lat="45.16249" lon="5.30788">
        <ele>711.59997558594</ele>
        <time>2020-03-01T10:25:48.000Z</time>
      </trkpt>
      <trkpt lat="45.16247" lon="5.3079">
        <ele>711.40002441406</ele>
        <time>2020-03-01T10:25:49.000Z</time>
      </trkpt>
      <trkpt lat="45.16246" lon="5.30793">
        <ele>711.20001220703</ele>
        <time>2020-03-01T10:25:50.000Z</time>
      </trkpt>
      <trkpt lat="45.16244" lon="5.30794">
        <ele>711.20001220703</ele>
        <time>2020-03-01T10:25:51.000Z</time>
      </trkpt>
      <trkpt lat="45.16243" lon="5.30796">
        <ele>710.79998779297</ele>
        <time>2020-03-01T10:25:52.000Z</time>
      </trkpt>
      <trkpt lat="45.16242" lon="5.30798">
        <ele>710.59997558594</ele>
        <time>2020-03-01T10:25:53.000Z</time>
      </trkpt>
      <trkpt lat="45.1624" lon="5.30799">
        <ele>710.20001220703</ele>
        <time>2020-03-01T10:25:54.000Z</time>
      </trkpt>
      <trkpt lat="45.16239" lon="5.30801">
        <ele>710.20001220703</ele>
        <time>2020-03-01T10:25:55.000Z</time>
      </trkpt>
      <trkpt lat="45.16237" lon="5.30802">
        <ele>710</ele>
        <time>2020-03-01T10:25:56.000Z</time>
      </trkpt>
      <trkpt lat="45.16235" lon="5.30804">
        <ele>709.79998779297</ele>
        <time>2020-03-01T10:25:57.000Z</time>
      </trkpt>
      <trkpt lat="45.16233" lon="5.30807">
        <ele>709.59997558594</ele>
        <time>2020-03-01T10:25:58.000Z</time>
      </trkpt>
      <trkpt lat="45.1623" lon="5.30809">
        <ele>709.40002441406</ele>
        <time>2020-03-01T10:25:59.000Z</time>
      </trkpt>
      <trkpt lat="45.16228" lon="5.30812">
        <ele>709.20001220703</ele>
        <time>2020-03-01T10:26:00.000Z</time>
      </trkpt>
      <trkpt lat="45.16226" lon="5.30814">
        <ele>709</ele>
        <time>2020-03-01T10:26:01.000Z</time>
      </trkpt>
      <trkpt lat="45.16224" lon="5.30816">
        <ele>708.59997558594</ele>
        <time>2020-03-01T10:26:02.000Z</time>
      </trkpt>
      <trkpt lat="45.16222" lon="5.30819">
        <ele>708.40002441406</ele>
        <time>2020-03-01T10:26:03.000Z</time>
      </trkpt>
      <trkpt lat="45.1622" lon="5.30821">
        <ele>708.20001220703</ele>
        <time>2020-03-01T10:26:04.000Z</time>
      </trkpt>
      <trkpt lat="45.16218" lon="5.30823">
        <ele>708</ele>
        <time>2020-03-01T10:26:05.000Z</time>
      </trkpt>
      <trkpt lat="45.16216" lon="5.30825">
        <ele>708</ele>
        <time>2020-03-01T10:26:06.000Z</time>
      </trkpt>
      <trkpt lat="45.16214" lon="5.30827">
        <ele>707.79998779297</ele>
        <time>2020-03-01T10:26:07.000Z</time>
      </trkpt>
      <trkpt lat="45.16212" lon="5.30829">
        <ele>707.40002441406</ele>
        <time>2020-03-01T10:26:08.000Z</time>
      </trkpt>
      <trkpt lat="45.1621" lon="5.30831">
        <ele>707.40002441406</ele>
        <time>2020-03-01T10:26:09.000Z</time>
      </trkpt>
      <trkpt lat="45.16208" lon="5.30833">
        <ele>707.20001220703</ele>
        <time>2020-03-01T10:26:10.000Z</time>
      </trkpt>
      <trkpt lat="45.16206" lon="5.30836">
        <ele>707</ele>
        <time>2020-03-01T10:26:11.000Z</time>
      </trkpt>
      <trkpt lat="45.16204" lon="5.30838">
        <ele>706.79998779297</ele>
        <time>2020-03-01T10:26:12.000Z</time>
      </trkpt>
      <trkpt lat="45.16202" lon="5.3084">
        <ele>706.40002441406</ele>
        <time>2020-03-01T10:26:13.000Z</time>
      </trkpt>
      <trkpt lat="45.162" lon="5.30842">
        <ele>706.20001220703</ele>
        <time>2020-03-01T10:26:14.000Z</time>
      </trkpt>
      <trkpt lat="45.16198" lon="5.30844">
        <ele>705.79998779297</ele>
        <time>2020-03-01T10:26:15.000Z</time>
      </trkpt>
      <trkpt lat="45.16196" lon="5.30845">
        <ele>705.40002441406</ele>
        <time>2020-03-01T10:26:16.000Z</time>
      </trkpt>
      <trkpt lat="45.16193" lon="5.30847">
        <ele>705</ele>
        <time>2020-03-01T10:26:17.000Z</time>
      </trkpt>
      <trkpt lat="45.1619" lon="5.30848">
        <ele>704.59997558594</ele>
        <time>2020-03-01T10:26:18.000Z</time>
      </trkpt>
      <trkpt lat="45.16187" lon="5.3085">
        <ele>704.40002441406</ele>
        <time>2020-03-01T10:26:19.000Z</time>
      </trkpt>
      <trkpt lat="45.16185" lon="5.30852">
        <ele>704.20001220703</ele>
        <time>2020-03-01T10:26:20.000Z</time>
      </trkpt>
      <trkpt lat="45.16183" lon="5.30854">
        <ele>703.79998779297</ele>
        <time>2020-03-01T10:26:21.000Z</time>
      </trkpt>
      <trkpt lat="45.1618" lon="5.30858">
        <ele>703.40002441406</ele>
        <time>2020-03-01T10:26:22.000Z</time>
      </trkpt>
      <trkpt lat="45.16179" lon="5.3086">
        <ele>703.20001220703</ele>
        <time>2020-03-01T10:26:23.000Z</time>
      </trkpt>
      <trkpt lat="45.16177" lon="5.30862">
        <ele>703.20001220703</ele>
        <time>2020-03-01T10:26:24.000Z</time>
      </trkpt>
      <trkpt lat="45.16174" lon="5.30865">
        <ele>703</ele>
        <time>2020-03-01T10:26:25.000Z</time>
      </trkpt>
      <trkpt lat="45.16171" lon="5.30869">
        <ele>702.59997558594</ele>
        <time>2020-03-01T10:26:26.000Z</time>
      </trkpt>
      <trkpt lat="45.16169" lon="5.30872">
        <ele>702.20001220703</ele>
        <time>2020-03-01T10:26:27.000Z</time>
      </trkpt>
      <trkpt lat="45.16166" lon="5.30875">
        <ele>702</ele>
        <time>2020-03-01T10:26:28.000Z</time>
      </trkpt>
      <trkpt lat="45.16164" lon="5.30876">
        <ele>701.40002441406</ele>
        <time>2020-03-01T10:26:29.000Z</time>
      </trkpt>
      <trkpt lat="45.16161" lon="5.30877">
        <ele>701.20001220703</ele>
        <time>2020-03-01T10:26:30.000Z</time>
      </trkpt>
      <trkpt lat="45.1616" lon="5.30879">
        <ele>700.79998779297</ele>
        <time>2020-03-01T10:26:31.000Z</time>
      </trkpt>
      <trkpt lat="45.16158" lon="5.3088">
        <ele>700.59997558594</ele>
        <time>2020-03-01T10:26:32.000Z</time>
      </trkpt>
      <trkpt lat="45.16155" lon="5.30881">
        <ele>700.40002441406</ele>
        <time>2020-03-01T10:26:33.000Z</time>
      </trkpt>
      <trkpt lat="45.16154" lon="5.30883">
        <ele>700.20001220703</ele>
        <time>2020-03-01T10:26:34.000Z</time>
      </trkpt>
      <trkpt lat="45.16152" lon="5.30887">
        <ele>700</ele>
        <time>2020-03-01T10:26:35.000Z</time>
      </trkpt>
      <trkpt lat="45.16151" lon="5.30893">
        <ele>699.40002441406</ele>
        <time>2020-03-01T10:26:36.000Z</time>
      </trkpt>
      <trkpt lat="45.1615" lon="5.30898">
        <ele>699</ele>
        <time>2020-03-01T10:26:37.000Z</time>
      </trkpt>
      <trkpt lat="45.16149" lon="5.30901">
        <ele>698.59997558594</ele>
        <time>2020-03-01T10:26:38.000Z</time>
      </trkpt>
      <trkpt lat="45.16147" lon="5.30904">
        <ele>698.20001220703</ele>
        <time>2020-03-01T10:26:39.000Z</time>
      </trkpt>
      <trkpt lat="45.16146" lon="5.30907">
        <ele>697.79998779297</ele>
        <time>2020-03-01T10:26:40.000Z</time>
      </trkpt>
      <trkpt lat="45.16145" lon="5.30911">
        <ele>697.40002441406</ele>
        <time>2020-03-01T10:26:41.000Z</time>
      </trkpt>
      <trkpt lat="45.16145" lon="5.30918">
        <ele>697</ele>
        <time>2020-03-01T10:26:42.000Z</time>
      </trkpt>
      <trkpt lat="45.16144" lon="5.30922">
        <ele>696.40002441406</ele>
        <time>2020-03-01T10:26:43.000Z</time>
      </trkpt>
      <trkpt lat="45.16142" lon="5.30928">
        <ele>695.79998779297</ele>
        <time>2020-03-01T10:26:44.000Z</time>
      </trkpt>
      <trkpt lat="45.16141" lon="5.30934">
        <ele>695.40002441406</ele>
        <time>2020-03-01T10:26:45.000Z</time>
      </trkpt>
      <trkpt lat="45.16139" lon="5.30938">
        <ele>695</ele>
        <time>2020-03-01T10:26:46.000Z</time>
      </trkpt>
      <trkpt lat="45.16138" lon="5.30944">
        <ele>694.40002441406</ele>
        <time>2020-03-01T10:26:47.000Z</time>
      </trkpt>
      <trkpt lat="45.16136" lon="5.30949">
        <ele>693.59997558594</ele>
        <time>2020-03-01T10:26:48.000Z</time>
      </trkpt>
      <trkpt lat="45.16134" lon="5.30953">
        <ele>693</ele>
        <time>2020-03-01T10:26:49.000Z</time>
      </trkpt>
      <trkpt lat="45.16133" lon="5.30958">
        <ele>692.40002441406</ele>
        <time>2020-03-01T10:26:50.000Z</time>
      </trkpt>
      <trkpt lat="45.16131" lon="5.30962">
        <ele>692</ele>
        <time>2020-03-01T10:26:51.000Z</time>
      </trkpt>
      <trkpt lat="45.1613" lon="5.30973">
        <ele>691.59997558594</ele>
        <time>2020-03-01T10:26:52.000Z</time>
      </trkpt>
      <trkpt lat="45.16128" lon="5.30977">
        <ele>691.40002441406</ele>
        <time>2020-03-01T10:26:53.000Z</time>
      </trkpt>
      <trkpt lat="45.16126" lon="5.30984">
        <ele>691.20001220703</ele>
        <time>2020-03-01T10:26:54.000Z</time>
      </trkpt>
      <trkpt lat="45.16125" lon="5.30989">
        <ele>691</ele>
        <time>2020-03-01T10:26:55.000Z</time>
      </trkpt>
      <trkpt lat="45.16125" lon="5.30993">
        <ele>690.79998779297</ele>
        <time>2020-03-01T10:26:56.000Z</time>
      </trkpt>
      <trkpt lat="45.16125" lon="5.30998">
        <ele>690.40002441406</ele>
        <time>2020-03-01T10:26:57.000Z</time>
      </trkpt>
      <trkpt lat="45.16126" lon="5.31002">
        <ele>690.20001220703</ele>
        <time>2020-03-01T10:26:58.000Z</time>
      </trkpt>
      <trkpt lat="45.16129" lon="5.31005">
        <ele>690</ele>
        <time>2020-03-01T10:26:59.000Z</time>
      </trkpt>
      <trkpt lat="45.16131" lon="5.31008">
        <ele>689.59997558594</ele>
        <time>2020-03-01T10:27:00.000Z</time>
      </trkpt>
      <trkpt lat="45.16134" lon="5.3101">
        <ele>689.20001220703</ele>
        <time>2020-03-01T10:27:01.000Z</time>
      </trkpt>
      <trkpt lat="45.16137" lon="5.31012">
        <ele>688.79998779297</ele>
        <time>2020-03-01T10:27:02.000Z</time>
      </trkpt>
      <trkpt lat="45.16139" lon="5.31014">
        <ele>688.59997558594</ele>
        <time>2020-03-01T10:27:03.000Z</time>
      </trkpt>
      <trkpt lat="45.16142" lon="5.31016">
        <ele>688.20001220703</ele>
        <time>2020-03-01T10:27:04.000Z</time>
      </trkpt>
      <trkpt lat="45.16145" lon="5.31018">
        <ele>687.79998779297</ele>
        <time>2020-03-01T10:27:05.000Z</time>
      </trkpt>
      <trkpt lat="45.16148" lon="5.3102">
        <ele>687.59997558594</ele>
        <time>2020-03-01T10:27:06.000Z</time>
      </trkpt>
      <trkpt lat="45.16152" lon="5.31022">
        <ele>687.20001220703</ele>
        <time>2020-03-01T10:27:07.000Z</time>
      </trkpt>
      <trkpt lat="45.16154" lon="5.31024">
        <ele>687.20001220703</ele>
        <time>2020-03-01T10:27:08.000Z</time>
      </trkpt>
      <trkpt lat="45.16157" lon="5.31026">
        <ele>687.20001220703</ele>
        <time>2020-03-01T10:27:09.000Z</time>
      </trkpt>
      <trkpt lat="45.1616" lon="5.31029">
        <ele>686.79998779297</ele>
        <time>2020-03-01T10:27:10.000Z</time>
      </trkpt>
      <trkpt lat="45.16163" lon="5.31031">
        <ele>686.40002441406</ele>
        <time>2020-03-01T10:27:11.000Z</time>
      </trkpt>
      <trkpt lat="45.16166" lon="5.31033">
        <ele>686.20001220703</ele>
        <time>2020-03-01T10:27:12.000Z</time>
      </trkpt>
      <trkpt lat="45.16168" lon="5.31035">
        <ele>685.79998779297</ele>
        <time>2020-03-01T10:27:13.000Z</time>
      </trkpt>
      <trkpt lat="45.16171" lon="5.31037">
        <ele>685.59997558594</ele>
        <time>2020-03-01T10:27:14.000Z</time>
      </trkpt>
      <trkpt lat="45.16173" lon="5.31039">
        <ele>685.40002441406</ele>
        <time>2020-03-01T10:27:15.000Z</time>
      </trkpt>
      <trkpt lat="45.16176" lon="5.31041">
        <ele>685.20001220703</ele>
        <time>2020-03-01T10:27:16.000Z</time>
      </trkpt>
      <trkpt lat="45.16179" lon="5.31043">
        <ele>685</ele>
        <time>2020-03-01T10:27:17.000Z</time>
      </trkpt>
      <trkpt lat="45.16182" lon="5.31045">
        <ele>684.79998779297</ele>
        <time>2020-03-01T10:27:18.000Z</time>
      </trkpt>
      <trkpt lat="45.16184" lon="5.31047">
        <ele>684.79998779297</ele>
        <time>2020-03-01T10:27:19.000Z</time>
      </trkpt>
      <trkpt lat="45.16186" lon="5.31049">
        <ele>684.59997558594</ele>
        <time>2020-03-01T10:27:20.000Z</time>
      </trkpt>
      <trkpt lat="45.16188" lon="5.31051">
        <ele>684</ele>
        <time>2020-03-01T10:27:21.000Z</time>
      </trkpt>
      <trkpt lat="45.16191" lon="5.31053">
        <ele>683.79998779297</ele>
        <time>2020-03-01T10:27:22.000Z</time>
      </trkpt>
      <trkpt lat="45.16193" lon="5.31055">
        <ele>683.59997558594</ele>
        <time>2020-03-01T10:27:23.000Z</time>
      </trkpt>
      <trkpt lat="45.16195" lon="5.31057">
        <ele>683.40002441406</ele>
        <time>2020-03-01T10:27:24.000Z</time>
      </trkpt>
      <trkpt lat="45.16196" lon="5.31059">
        <ele>683</ele>
        <time>2020-03-01T10:27:25.000Z</time>
      </trkpt>
      <trkpt lat="45.16195" lon="5.3106">
        <ele>682.59997558594</ele>
        <time>2020-03-01T10:27:26.000Z</time>
      </trkpt>
      <trkpt lat="45.16194" lon="5.31063">
        <ele>682.20001220703</ele>
        <time>2020-03-01T10:27:27.000Z</time>
      </trkpt>
      <trkpt lat="45.16191" lon="5.31066">
        <ele>682</ele>
        <time>2020-03-01T10:27:28.000Z</time>
      </trkpt>
      <trkpt lat="45.16189" lon="5.31068">
        <ele>682</ele>
        <time>2020-03-01T10:27:29.000Z</time>
      </trkpt>
      <trkpt lat="45.16187" lon="5.3107">
        <ele>681.59997558594</ele>
        <time>2020-03-01T10:27:30.000Z</time>
      </trkpt>
      <trkpt lat="45.16185" lon="5.31071">
        <ele>681.40002441406</ele>
        <time>2020-03-01T10:27:31.000Z</time>
      </trkpt>
      <trkpt lat="45.16183" lon="5.31073">
        <ele>680.79998779297</ele>
        <time>2020-03-01T10:27:32.000Z</time>
      </trkpt>
      <trkpt lat="45.16182" lon="5.31073">
        <ele>680.59997558594</ele>
        <time>2020-03-01T10:27:33.000Z</time>
      </trkpt>
      <trkpt lat="45.1618" lon="5.31073">
        <ele>680</ele>
        <time>2020-03-01T10:27:34.000Z</time>
      </trkpt>
      <trkpt lat="45.16179" lon="5.31072">
        <ele>679.40002441406</ele>
        <time>2020-03-01T10:27:35.000Z</time>
      </trkpt>
      <trkpt lat="45.16177" lon="5.31072">
        <ele>678.79998779297</ele>
        <time>2020-03-01T10:27:36.000Z</time>
      </trkpt>
      <trkpt lat="45.16175" lon="5.31071">
        <ele>678.20001220703</ele>
        <time>2020-03-01T10:27:37.000Z</time>
      </trkpt>
      <trkpt lat="45.16172" lon="5.3107">
        <ele>677.59997558594</ele>
        <time>2020-03-01T10:27:38.000Z</time>
      </trkpt>
      <trkpt lat="45.16171" lon="5.31068">
        <ele>677</ele>
        <time>2020-03-01T10:27:39.000Z</time>
      </trkpt>
      <trkpt lat="45.16169" lon="5.31067">
        <ele>676.59997558594</ele>
        <time>2020-03-01T10:27:40.000Z</time>
      </trkpt>
      <trkpt lat="45.16167" lon="5.31066">
        <ele>676.40002441406</ele>
        <time>2020-03-01T10:27:41.000Z</time>
      </trkpt>
      <trkpt lat="45.16166" lon="5.31065">
        <ele>676</ele>
        <time>2020-03-01T10:27:42.000Z</time>
      </trkpt>
      <trkpt lat="45.16164" lon="5.31065">
        <ele>675.59997558594</ele>
        <time>2020-03-01T10:27:43.000Z</time>
      </trkpt>
      <trkpt lat="45.16162" lon="5.31065">
        <ele>675.40002441406</ele>
        <time>2020-03-01T10:27:44.000Z</time>
      </trkpt>
      <trkpt lat="45.1616" lon="5.31065">
        <ele>675</ele>
        <time>2020-03-01T10:27:45.000Z</time>
      </trkpt>
      <trkpt lat="45.16158" lon="5.31065">
        <ele>674.59997558594</ele>
        <time>2020-03-01T10:27:46.000Z</time>
      </trkpt>
      <trkpt lat="45.16156" lon="5.31064">
        <ele>674.20001220703</ele>
        <time>2020-03-01T10:27:47.000Z</time>
      </trkpt>
      <trkpt lat="45.16153" lon="5.31064">
        <ele>673.79998779297</ele>
        <time>2020-03-01T10:27:48.000Z</time>
      </trkpt>
      <trkpt lat="45.16151" lon="5.31065">
        <ele>673.40002441406</ele>
        <time>2020-03-01T10:27:49.000Z</time>
      </trkpt>
      <trkpt lat="45.16149" lon="5.31065">
        <ele>673</ele>
        <time>2020-03-01T10:27:50.000Z</time>
      </trkpt>
      <trkpt lat="45.16147" lon="5.31065">
        <ele>672.40002441406</ele>
        <time>2020-03-01T10:27:51.000Z</time>
      </trkpt>
      <trkpt lat="45.16145" lon="5.31066">
        <ele>672</ele>
        <time>2020-03-01T10:27:52.000Z</time>
      </trkpt>
      <trkpt lat="45.16143" lon="5.31067">
        <ele>671.40002441406</ele>
        <time>2020-03-01T10:27:53.000Z</time>
      </trkpt>
      <trkpt lat="45.16141" lon="5.31067">
        <ele>670.79998779297</ele>
        <time>2020-03-01T10:27:54.000Z</time>
      </trkpt>
      <trkpt lat="45.16139" lon="5.31068">
        <ele>670.20001220703</ele>
        <time>2020-03-01T10:27:55.000Z</time>
      </trkpt>
      <trkpt lat="45.16137" lon="5.31069">
        <ele>669.59997558594</ele>
        <time>2020-03-01T10:27:56.000Z</time>
      </trkpt>
      <trkpt lat="45.16135" lon="5.31069">
        <ele>668.79998779297</ele>
        <time>2020-03-01T10:27:57.000Z</time>
      </trkpt>
      <trkpt lat="45.16133" lon="5.31071">
        <ele>668</ele>
        <time>2020-03-01T10:27:58.000Z</time>
      </trkpt>
      <trkpt lat="45.1613" lon="5.31072">
        <ele>667.40002441406</ele>
        <time>2020-03-01T10:27:59.000Z</time>
      </trkpt>
      <trkpt lat="45.16128" lon="5.31073">
        <ele>666.59997558594</ele>
        <time>2020-03-01T10:28:00.000Z</time>
      </trkpt>
      <trkpt lat="45.16126" lon="5.31074">
        <ele>666</ele>
        <time>2020-03-01T10:28:01.000Z</time>
      </trkpt>
      <trkpt lat="45.16124" lon="5.31075">
        <ele>665.20001220703</ele>
        <time>2020-03-01T10:28:02.000Z</time>
      </trkpt>
      <trkpt lat="45.16122" lon="5.31077">
        <ele>664.79998779297</ele>
        <time>2020-03-01T10:28:03.000Z</time>
      </trkpt>
      <trkpt lat="45.16119" lon="5.31077">
        <ele>664.20001220703</ele>
        <time>2020-03-01T10:28:04.000Z</time>
      </trkpt>
      <trkpt lat="45.16117" lon="5.31078">
        <ele>663.20001220703</ele>
        <time>2020-03-01T10:28:05.000Z</time>
      </trkpt>
      <trkpt lat="45.16114" lon="5.3108">
        <ele>662.40002441406</ele>
        <time>2020-03-01T10:28:06.000Z</time>
      </trkpt>
      <trkpt lat="45.16112" lon="5.31081">
        <ele>662</ele>
        <time>2020-03-01T10:28:07.000Z</time>
      </trkpt>
      <trkpt lat="45.1611" lon="5.31082">
        <ele>661.59997558594</ele>
        <time>2020-03-01T10:28:08.000Z</time>
      </trkpt>
      <trkpt lat="45.16108" lon="5.31082">
        <ele>661</ele>
        <time>2020-03-01T10:28:09.000Z</time>
      </trkpt>
      <trkpt lat="45.16105" lon="5.31083">
        <ele>660.59997558594</ele>
        <time>2020-03-01T10:28:10.000Z</time>
      </trkpt>
      <trkpt lat="45.16103" lon="5.31083">
        <ele>660.20001220703</ele>
        <time>2020-03-01T10:28:11.000Z</time>
      </trkpt>
      <trkpt lat="45.16101" lon="5.31084">
        <ele>659.79998779297</ele>
        <time>2020-03-01T10:28:12.000Z</time>
      </trkpt>
      <trkpt lat="45.16099" lon="5.31085">
        <ele>659.20001220703</ele>
        <time>2020-03-01T10:28:13.000Z</time>
      </trkpt>
      <trkpt lat="45.16097" lon="5.31086">
        <ele>658.79998779297</ele>
        <time>2020-03-01T10:28:14.000Z</time>
      </trkpt>
      <trkpt lat="45.16095" lon="5.31087">
        <ele>658.40002441406</ele>
        <time>2020-03-01T10:28:15.000Z</time>
      </trkpt>
      <trkpt lat="45.16092" lon="5.31088">
        <ele>658</ele>
        <time>2020-03-01T10:28:16.000Z</time>
      </trkpt>
      <trkpt lat="45.1609" lon="5.3109">
        <ele>657.59997558594</ele>
        <time>2020-03-01T10:28:17.000Z</time>
      </trkpt>
      <trkpt lat="45.16087" lon="5.31095">
        <ele>657.20001220703</ele>
        <time>2020-03-01T10:28:18.000Z</time>
      </trkpt>
      <trkpt lat="45.16085" lon="5.311">
        <ele>656.79998779297</ele>
        <time>2020-03-01T10:28:19.000Z</time>
      </trkpt>
      <trkpt lat="45.16082" lon="5.31103">
        <ele>656.59997558594</ele>
        <time>2020-03-01T10:28:20.000Z</time>
      </trkpt>
      <trkpt lat="45.16079" lon="5.31104">
        <ele>656.40002441406</ele>
        <time>2020-03-01T10:28:21.000Z</time>
      </trkpt>
      <trkpt lat="45.16076" lon="5.31106">
        <ele>656</ele>
        <time>2020-03-01T10:28:22.000Z</time>
      </trkpt>
      <trkpt lat="45.16073" lon="5.3111">
        <ele>655.59997558594</ele>
        <time>2020-03-01T10:28:23.000Z</time>
      </trkpt>
      <trkpt lat="45.16071" lon="5.31112">
        <ele>655.20001220703</ele>
        <time>2020-03-01T10:28:24.000Z</time>
      </trkpt>
      <trkpt lat="45.16067" lon="5.31115">
        <ele>654.79998779297</ele>
        <time>2020-03-01T10:28:25.000Z</time>
      </trkpt>
      <trkpt lat="45.16065" lon="5.31118">
        <ele>654.59997558594</ele>
        <time>2020-03-01T10:28:26.000Z</time>
      </trkpt>
      <trkpt lat="45.16062" lon="5.31119">
        <ele>654</ele>
        <time>2020-03-01T10:28:27.000Z</time>
      </trkpt>
      <trkpt lat="45.16059" lon="5.3112">
        <ele>653.59997558594</ele>
        <time>2020-03-01T10:28:28.000Z</time>
      </trkpt>
      <trkpt lat="45.16057" lon="5.31123">
        <ele>653</ele>
        <time>2020-03-01T10:28:29.000Z</time>
      </trkpt>
      <trkpt lat="45.16054" lon="5.31126">
        <ele>652.40002441406</ele>
        <time>2020-03-01T10:28:30.000Z</time>
      </trkpt>
      <trkpt lat="45.16052" lon="5.31129">
        <ele>651.59997558594</ele>
        <time>2020-03-01T10:28:31.000Z</time>
      </trkpt>
      <trkpt lat="45.1605" lon="5.31132">
        <ele>651</ele>
        <time>2020-03-01T10:28:32.000Z</time>
      </trkpt>
      <trkpt lat="45.16047" lon="5.31136">
        <ele>650.59997558594</ele>
        <time>2020-03-01T10:28:33.000Z</time>
      </trkpt>
      <trkpt lat="45.16045" lon="5.31138">
        <ele>650.40002441406</ele>
        <time>2020-03-01T10:28:34.000Z</time>
      </trkpt>
      <trkpt lat="45.16043" lon="5.31141">
        <ele>650</ele>
        <time>2020-03-01T10:28:35.000Z</time>
      </trkpt>
      <trkpt lat="45.1604" lon="5.31143">
        <ele>649.59997558594</ele>
        <time>2020-03-01T10:28:36.000Z</time>
      </trkpt>
      <trkpt lat="45.16038" lon="5.31145">
        <ele>649.20001220703</ele>
        <time>2020-03-01T10:28:37.000Z</time>
      </trkpt>
      <trkpt lat="45.16036" lon="5.31146">
        <ele>648.79998779297</ele>
        <time>2020-03-01T10:28:38.000Z</time>
      </trkpt>
      <trkpt lat="45.16034" lon="5.31148">
        <ele>648</ele>
        <time>2020-03-01T10:28:39.000Z</time>
      </trkpt>
      <trkpt lat="45.16031" lon="5.31152">
        <ele>647.40002441406</ele>
        <time>2020-03-01T10:28:40.000Z</time>
      </trkpt>
      <trkpt lat="45.16029" lon="5.31154">
        <ele>646.40002441406</ele>
        <time>2020-03-01T10:28:41.000Z</time>
      </trkpt>
      <trkpt lat="45.16027" lon="5.31159">
        <ele>645.59997558594</ele>
        <time>2020-03-01T10:28:42.000Z</time>
      </trkpt>
      <trkpt lat="45.16025" lon="5.31161">
        <ele>645.20001220703</ele>
        <time>2020-03-01T10:28:43.000Z</time>
      </trkpt>
      <trkpt lat="45.16023" lon="5.31164">
        <ele>644.79998779297</ele>
        <time>2020-03-01T10:28:44.000Z</time>
      </trkpt>
      <trkpt lat="45.16021" lon="5.31166">
        <ele>644.20001220703</ele>
        <time>2020-03-01T10:28:45.000Z</time>
      </trkpt>
      <trkpt lat="45.1602" lon="5.31169">
        <ele>643.40002441406</ele>
        <time>2020-03-01T10:28:46.000Z</time>
      </trkpt>
      <trkpt lat="45.16019" lon="5.31171">
        <ele>642.59997558594</ele>
        <time>2020-03-01T10:28:47.000Z</time>
      </trkpt>
      <trkpt lat="45.16018" lon="5.31174">
        <ele>641.79998779297</ele>
        <time>2020-03-01T10:28:48.000Z</time>
      </trkpt>
      <trkpt lat="45.16017" lon="5.31177">
        <ele>641.20001220703</ele>
        <time>2020-03-01T10:28:49.000Z</time>
      </trkpt>
      <trkpt lat="45.16017" lon="5.3118">
        <ele>640.20001220703</ele>
        <time>2020-03-01T10:28:50.000Z</time>
      </trkpt>
      <trkpt lat="45.16017" lon="5.31185">
        <ele>639.59997558594</ele>
        <time>2020-03-01T10:28:51.000Z</time>
      </trkpt>
      <trkpt lat="45.16017" lon="5.3119">
        <ele>638.79998779297</ele>
        <time>2020-03-01T10:28:52.000Z</time>
      </trkpt>
      <trkpt lat="45.16016" lon="5.31196">
        <ele>638</ele>
        <time>2020-03-01T10:28:53.000Z</time>
      </trkpt>
      <trkpt lat="45.16015" lon="5.31202">
        <ele>637.40002441406</ele>
        <time>2020-03-01T10:28:54.000Z</time>
      </trkpt>
      <trkpt lat="45.16014" lon="5.31208">
        <ele>637</ele>
        <time>2020-03-01T10:28:55.000Z</time>
      </trkpt>
      <trkpt lat="45.16014" lon="5.31213">
        <ele>636.59997558594</ele>
        <time>2020-03-01T10:28:56.000Z</time>
      </trkpt>
      <trkpt lat="45.16013" lon="5.31218">
        <ele>636.40002441406</ele>
        <time>2020-03-01T10:28:57.000Z</time>
      </trkpt>
      <trkpt lat="45.16013" lon="5.31224">
        <ele>636</ele>
        <time>2020-03-01T10:28:58.000Z</time>
      </trkpt>
      <trkpt lat="45.16013" lon="5.31226">
        <ele>635.79998779297</ele>
        <time>2020-03-01T10:28:59.000Z</time>
      </trkpt>
      <trkpt lat="45.16013" lon="5.31229">
        <ele>635.40002441406</ele>
        <time>2020-03-01T10:29:00.000Z</time>
      </trkpt>
      <trkpt lat="45.16014" lon="5.31231">
        <ele>635</ele>
        <time>2020-03-01T10:29:01.000Z</time>
      </trkpt>
      <trkpt lat="45.16015" lon="5.31233">
        <ele>634.79998779297</ele>
        <time>2020-03-01T10:29:02.000Z</time>
      </trkpt>
      <trkpt lat="45.16016" lon="5.31235">
        <ele>634.20001220703</ele>
        <time>2020-03-01T10:29:03.000Z</time>
      </trkpt>
      <trkpt lat="45.16016" lon="5.31237">
        <ele>633.20001220703</ele>
        <time>2020-03-01T10:29:04.000Z</time>
      </trkpt>
      <trkpt lat="45.16015" lon="5.3124">
        <ele>632.20001220703</ele>
        <time>2020-03-01T10:29:05.000Z</time>
      </trkpt>
      <trkpt lat="45.16014" lon="5.31242">
        <ele>631.59997558594</ele>
        <time>2020-03-01T10:29:06.000Z</time>
      </trkpt>
      <trkpt lat="45.16013" lon="5.31244">
        <ele>631</ele>
        <time>2020-03-01T10:29:07.000Z</time>
      </trkpt>
      <trkpt lat="45.16012" lon="5.31246">
        <ele>630.40002441406</ele>
        <time>2020-03-01T10:29:08.000Z</time>
      </trkpt>
      <trkpt lat="45.1601" lon="5.31248">
        <ele>629.79998779297</ele>
        <time>2020-03-01T10:29:09.000Z</time>
      </trkpt>
      <trkpt lat="45.16008" lon="5.3125">
        <ele>629</ele>
        <time>2020-03-01T10:29:10.000Z</time>
      </trkpt>
      <trkpt lat="45.16006" lon="5.31252">
        <ele>628.20001220703</ele>
        <time>2020-03-01T10:29:11.000Z</time>
      </trkpt>
      <trkpt lat="45.16004" lon="5.31254">
        <ele>627.20001220703</ele>
        <time>2020-03-01T10:29:12.000Z</time>
      </trkpt>
      <trkpt lat="45.16002" lon="5.31256">
        <ele>626.40002441406</ele>
        <time>2020-03-01T10:29:13.000Z</time>
      </trkpt>
      <trkpt lat="45.16001" lon="5.31259">
        <ele>625.59997558594</ele>
        <time>2020-03-01T10:29:14.000Z</time>
      </trkpt>
      <trkpt lat="45.15999" lon="5.3126">
        <ele>625</ele>
        <time>2020-03-01T10:29:15.000Z</time>
      </trkpt>
      <trkpt lat="45.15997" lon="5.31261">
        <ele>624.20001220703</ele>
        <time>2020-03-01T10:29:16.000Z</time>
      </trkpt>
      <trkpt lat="45.15994" lon="5.31264">
        <ele>623.59997558594</ele>
        <time>2020-03-01T10:29:17.000Z</time>
      </trkpt>
      <trkpt lat="45.15992" lon="5.31266">
        <ele>623.20001220703</ele>
        <time>2020-03-01T10:29:18.000Z</time>
      </trkpt>
      <trkpt lat="45.15991" lon="5.31268">
        <ele>622.59997558594</ele>
        <time>2020-03-01T10:29:19.000Z</time>
      </trkpt>
      <trkpt lat="45.1599" lon="5.3127">
        <ele>622</ele>
        <time>2020-03-01T10:29:20.000Z</time>
      </trkpt>
      <trkpt lat="45.15989" lon="5.31273">
        <ele>621.20001220703</ele>
        <time>2020-03-01T10:29:21.000Z</time>
      </trkpt>
      <trkpt lat="45.15988" lon="5.31275">
        <ele>620.40002441406</ele>
        <time>2020-03-01T10:29:22.000Z</time>
      </trkpt>
      <trkpt lat="45.15987" lon="5.31277">
        <ele>619.59997558594</ele>
        <time>2020-03-01T10:29:23.000Z</time>
      </trkpt>
      <trkpt lat="45.15985" lon="5.31279">
        <ele>618.79998779297</ele>
        <time>2020-03-01T10:29:24.000Z</time>
      </trkpt>
      <trkpt lat="45.15984" lon="5.31281">
        <ele>618.40002441406</ele>
        <time>2020-03-01T10:29:25.000Z</time>
      </trkpt>
      <trkpt lat="45.15982" lon="5.31285">
        <ele>618</ele>
        <time>2020-03-01T10:29:26.000Z</time>
      </trkpt>
      <trkpt lat="45.1598" lon="5.31287">
        <ele>617.59997558594</ele>
        <time>2020-03-01T10:29:27.000Z</time>
      </trkpt>
      <trkpt lat="45.15979" lon="5.31289">
        <ele>617.20001220703</ele>
        <time>2020-03-01T10:29:28.000Z</time>
      </trkpt>
      <trkpt lat="45.15977" lon="5.31293">
        <ele>616.79998779297</ele>
        <time>2020-03-01T10:29:29.000Z</time>
      </trkpt>
      <trkpt lat="45.15975" lon="5.31295">
        <ele>616.20001220703</ele>
        <time>2020-03-01T10:29:30.000Z</time>
      </trkpt>
      <trkpt lat="45.15974" lon="5.31297">
        <ele>615.40002441406</ele>
        <time>2020-03-01T10:29:31.000Z</time>
      </trkpt>
      <trkpt lat="45.15972" lon="5.31298">
        <ele>614.59997558594</ele>
        <time>2020-03-01T10:29:32.000Z</time>
      </trkpt>
      <trkpt lat="45.15971" lon="5.313">
        <ele>613.59997558594</ele>
        <time>2020-03-01T10:29:33.000Z</time>
      </trkpt>
      <trkpt lat="45.15969" lon="5.31301">
        <ele>612.59997558594</ele>
        <time>2020-03-01T10:29:34.000Z</time>
      </trkpt>
      <trkpt lat="45.15968" lon="5.31303">
        <ele>611.59997558594</ele>
        <time>2020-03-01T10:29:35.000Z</time>
      </trkpt>
      <trkpt lat="45.15967" lon="5.31305">
        <ele>611</ele>
        <time>2020-03-01T10:29:36.000Z</time>
      </trkpt>
      <trkpt lat="45.15965" lon="5.31311">
        <ele>610.20001220703</ele>
        <time>2020-03-01T10:29:37.000Z</time>
      </trkpt>
      <trkpt lat="45.15964" lon="5.31314">
        <ele>609.59997558594</ele>
        <time>2020-03-01T10:29:38.000Z</time>
      </trkpt>
      <trkpt lat="45.15963" lon="5.31317">
        <ele>609</ele>
        <time>2020-03-01T10:29:39.000Z</time>
      </trkpt>
      <trkpt lat="45.15962" lon="5.31318">
        <ele>608.79998779297</ele>
        <time>2020-03-01T10:29:40.000Z</time>
      </trkpt>
      <trkpt lat="45.1596" lon="5.3132">
        <ele>608.59997558594</ele>
        <time>2020-03-01T10:29:41.000Z</time>
      </trkpt>
      <trkpt lat="45.1596" lon="5.31322">
        <ele>608</ele>
        <time>2020-03-01T10:29:42.000Z</time>
      </trkpt>
      <trkpt lat="45.15959" lon="5.31329">
        <ele>606.79998779297</ele>
        <time>2020-03-01T10:29:43.000Z</time>
      </trkpt>
      <trkpt lat="45.15958" lon="5.31336">
        <ele>606</ele>
        <time>2020-03-01T10:29:44.000Z</time>
      </trkpt>
      <trkpt lat="45.15958" lon="5.31341">
        <ele>605.40002441406</ele>
        <time>2020-03-01T10:29:45.000Z</time>
      </trkpt>
      <trkpt lat="45.15957" lon="5.31347">
        <ele>604.79998779297</ele>
        <time>2020-03-01T10:29:46.000Z</time>
      </trkpt>
      <trkpt lat="45.15957" lon="5.31351">
        <ele>604.20001220703</ele>
        <time>2020-03-01T10:29:47.000Z</time>
      </trkpt>
      <trkpt lat="45.15957" lon="5.31354">
        <ele>603.59997558594</ele>
        <time>2020-03-01T10:29:48.000Z</time>
      </trkpt>
      <trkpt lat="45.15955" lon="5.31356">
        <ele>602.79998779297</ele>
        <time>2020-03-01T10:29:49.000Z</time>
      </trkpt>
      <trkpt lat="45.15953" lon="5.31357">
        <ele>602</ele>
        <time>2020-03-01T10:29:50.000Z</time>
      </trkpt>
      <trkpt lat="45.15951" lon="5.31357">
        <ele>601</ele>
        <time>2020-03-01T10:29:51.000Z</time>
      </trkpt>
      <trkpt lat="45.15949" lon="5.31358">
        <ele>600.20001220703</ele>
        <time>2020-03-01T10:29:52.000Z</time>
      </trkpt>
      <trkpt lat="45.15946" lon="5.31358">
        <ele>599.59997558594</ele>
        <time>2020-03-01T10:29:53.000Z</time>
      </trkpt>
      <trkpt lat="45.15945" lon="5.31357">
        <ele>599.20001220703</ele>
        <time>2020-03-01T10:29:54.000Z</time>
      </trkpt>
      <trkpt lat="45.15942" lon="5.31357">
        <ele>598.40002441406</ele>
        <time>2020-03-01T10:29:55.000Z</time>
      </trkpt>
      <trkpt lat="45.15939" lon="5.31358">
        <ele>597.59997558594</ele>
        <time>2020-03-01T10:29:56.000Z</time>
      </trkpt>
      <trkpt lat="45.15935" lon="5.31359">
        <ele>596.79998779297</ele>
        <time>2020-03-01T10:29:57.000Z</time>
      </trkpt>
      <trkpt lat="45.15932" lon="5.31361">
        <ele>596.40002441406</ele>
        <time>2020-03-01T10:29:58.000Z</time>
      </trkpt>
      <trkpt lat="45.1593" lon="5.31363">
        <ele>596.20001220703</ele>
        <time>2020-03-01T10:29:59.000Z</time>
      </trkpt>
      <trkpt lat="45.15928" lon="5.31365">
        <ele>595.79998779297</ele>
        <time>2020-03-01T10:30:00.000Z</time>
      </trkpt>
      <trkpt lat="45.15926" lon="5.31368">
        <ele>595.59997558594</ele>
        <time>2020-03-01T10:30:01.000Z</time>
      </trkpt>
      <trkpt lat="45.15924" lon="5.3137">
        <ele>595.20001220703</ele>
        <time>2020-03-01T10:30:02.000Z</time>
      </trkpt>
      <trkpt lat="45.15922" lon="5.31372">
        <ele>594.40002441406</ele>
        <time>2020-03-01T10:30:03.000Z</time>
      </trkpt>
      <trkpt lat="45.15919" lon="5.31374">
        <ele>593.79998779297</ele>
        <time>2020-03-01T10:30:04.000Z</time>
      </trkpt>
      <trkpt lat="45.15917" lon="5.31378">
        <ele>593.20001220703</ele>
        <time>2020-03-01T10:30:05.000Z</time>
      </trkpt>
      <trkpt lat="45.15914" lon="5.31383">
        <ele>592.59997558594</ele>
        <time>2020-03-01T10:30:06.000Z</time>
      </trkpt>
      <trkpt lat="45.15911" lon="5.31386">
        <ele>592</ele>
        <time>2020-03-01T10:30:07.000Z</time>
      </trkpt>
      <trkpt lat="45.15909" lon="5.31387">
        <ele>591.20001220703</ele>
        <time>2020-03-01T10:30:08.000Z</time>
      </trkpt>
      <trkpt lat="45.15907" lon="5.3139">
        <ele>590.59997558594</ele>
        <time>2020-03-01T10:30:09.000Z</time>
      </trkpt>
      <trkpt lat="45.15904" lon="5.31391">
        <ele>590.20001220703</ele>
        <time>2020-03-01T10:30:10.000Z</time>
      </trkpt>
      <trkpt lat="45.15901" lon="5.31392">
        <ele>589.79998779297</ele>
        <time>2020-03-01T10:30:11.000Z</time>
      </trkpt>
      <trkpt lat="45.15898" lon="5.31394">
        <ele>589.20001220703</ele>
        <time>2020-03-01T10:30:12.000Z</time>
      </trkpt>
      <trkpt lat="45.15895" lon="5.31394">
        <ele>588.40002441406</ele>
        <time>2020-03-01T10:30:13.000Z</time>
      </trkpt>
      <trkpt lat="45.15893" lon="5.31394">
        <ele>587.79998779297</ele>
        <time>2020-03-01T10:30:14.000Z</time>
      </trkpt>
      <trkpt lat="45.15891" lon="5.31395">
        <ele>587.20001220703</ele>
        <time>2020-03-01T10:30:15.000Z</time>
      </trkpt>
      <trkpt lat="45.1589" lon="5.31396">
        <ele>586.40002441406</ele>
        <time>2020-03-01T10:30:16.000Z</time>
      </trkpt>
      <trkpt lat="45.15888" lon="5.31396">
        <ele>586.20001220703</ele>
        <time>2020-03-01T10:30:17.000Z</time>
      </trkpt>
      <trkpt lat="45.15886" lon="5.31396">
        <ele>585.59997558594</ele>
        <time>2020-03-01T10:30:18.000Z</time>
      </trkpt>
      <trkpt lat="45.15884" lon="5.31396">
        <ele>585</ele>
        <time>2020-03-01T10:30:19.000Z</time>
      </trkpt>
      <trkpt lat="45.15881" lon="5.31396">
        <ele>584.59997558594</ele>
        <time>2020-03-01T10:30:20.000Z</time>
      </trkpt>
      <trkpt lat="45.15879" lon="5.31396">
        <ele>584.40002441406</ele>
        <time>2020-03-01T10:30:21.000Z</time>
      </trkpt>
      <trkpt lat="45.15877" lon="5.31396">
        <ele>584</ele>
        <time>2020-03-01T10:30:22.000Z</time>
      </trkpt>
      <trkpt lat="45.15875" lon="5.31395">
        <ele>583.59997558594</ele>
        <time>2020-03-01T10:30:23.000Z</time>
      </trkpt>
      <trkpt lat="45.15874" lon="5.31394">
        <ele>583.20001220703</ele>
        <time>2020-03-01T10:30:24.000Z</time>
      </trkpt>
      <trkpt lat="45.15871" lon="5.31392">
        <ele>583</ele>
        <time>2020-03-01T10:30:25.000Z</time>
      </trkpt>
      <trkpt lat="45.15869" lon="5.3139">
        <ele>582.79998779297</ele>
        <time>2020-03-01T10:30:26.000Z</time>
      </trkpt>
      <trkpt lat="45.15867" lon="5.31388">
        <ele>582.40002441406</ele>
        <time>2020-03-01T10:30:27.000Z</time>
      </trkpt>
      <trkpt lat="45.15864" lon="5.31387">
        <ele>581.79998779297</ele>
        <time>2020-03-01T10:30:28.000Z</time>
      </trkpt>
      <trkpt lat="45.15861" lon="5.31385">
        <ele>581</ele>
        <time>2020-03-01T10:30:29.000Z</time>
      </trkpt>
      <trkpt lat="45.15858" lon="5.31383">
        <ele>580.59997558594</ele>
        <time>2020-03-01T10:30:30.000Z</time>
      </trkpt>
      <trkpt lat="45.15856" lon="5.31382">
        <ele>580</ele>
        <time>2020-03-01T10:30:31.000Z</time>
      </trkpt>
      <trkpt lat="45.15853" lon="5.3138">
        <ele>579.59997558594</ele>
        <time>2020-03-01T10:30:32.000Z</time>
      </trkpt>
      <trkpt lat="45.1585" lon="5.31378">
        <ele>579</ele>
        <time>2020-03-01T10:30:33.000Z</time>
      </trkpt>
      <trkpt lat="45.15849" lon="5.31376">
        <ele>578.59997558594</ele>
        <time>2020-03-01T10:30:34.000Z</time>
      </trkpt>
      <trkpt lat="45.15847" lon="5.31373">
        <ele>578.20001220703</ele>
        <time>2020-03-01T10:30:35.000Z</time>
      </trkpt>
      <trkpt lat="45.15846" lon="5.31373">
        <ele>577.79998779297</ele>
        <time>2020-03-01T10:30:36.000Z</time>
      </trkpt>
      <trkpt lat="45.15845" lon="5.31373">
        <ele>577.20001220703</ele>
        <time>2020-03-01T10:30:37.000Z</time>
      </trkpt>
      <trkpt lat="45.15842" lon="5.31372">
        <ele>576.20001220703</ele>
        <time>2020-03-01T10:30:38.000Z</time>
      </trkpt>
      <trkpt lat="45.1584" lon="5.31371">
        <ele>575.59997558594</ele>
        <time>2020-03-01T10:30:39.000Z</time>
      </trkpt>
      <trkpt lat="45.15837" lon="5.3137">
        <ele>575.20001220703</ele>
        <time>2020-03-01T10:30:40.000Z</time>
      </trkpt>
      <trkpt lat="45.15835" lon="5.3137">
        <ele>574.79998779297</ele>
        <time>2020-03-01T10:30:41.000Z</time>
      </trkpt>
      <trkpt lat="45.15833" lon="5.3137">
        <ele>574.40002441406</ele>
        <time>2020-03-01T10:30:42.000Z</time>
      </trkpt>
      <trkpt lat="45.15832" lon="5.31369">
        <ele>574.20001220703</ele>
        <time>2020-03-01T10:30:43.000Z</time>
      </trkpt>
      <trkpt lat="45.1583" lon="5.31368">
        <ele>574</ele>
        <time>2020-03-01T10:30:44.000Z</time>
      </trkpt>
      <trkpt lat="45.15822" lon="5.31368">
        <ele>573.79998779297</ele>
        <time>2020-03-01T10:30:45.000Z</time>
      </trkpt>
      <trkpt lat="45.15815" lon="5.31369">
        <ele>573.40002441406</ele>
        <time>2020-03-01T10:30:46.000Z</time>
      </trkpt>
      <trkpt lat="45.15812" lon="5.31371">
        <ele>573.20001220703</ele>
        <time>2020-03-01T10:30:47.000Z</time>
      </trkpt>
      <trkpt lat="45.15809" lon="5.31375">
        <ele>572.79998779297</ele>
        <time>2020-03-01T10:30:48.000Z</time>
      </trkpt>
      <trkpt lat="45.15806" lon="5.31378">
        <ele>572.59997558594</ele>
        <time>2020-03-01T10:30:49.000Z</time>
      </trkpt>
      <trkpt lat="45.15804" lon="5.31381">
        <ele>572.20001220703</ele>
        <time>2020-03-01T10:30:50.000Z</time>
      </trkpt>
      <trkpt lat="45.15801" lon="5.31387">
        <ele>571.79998779297</ele>
        <time>2020-03-01T10:30:51.000Z</time>
      </trkpt>
      <trkpt lat="45.15799" lon="5.3139">
        <ele>571.40002441406</ele>
        <time>2020-03-01T10:30:52.000Z</time>
      </trkpt>
      <trkpt lat="45.15796" lon="5.31394">
        <ele>570.79998779297</ele>
        <time>2020-03-01T10:30:53.000Z</time>
      </trkpt>
      <trkpt lat="45.15794" lon="5.31396">
        <ele>570.20001220703</ele>
        <time>2020-03-01T10:30:54.000Z</time>
      </trkpt>
      <trkpt lat="45.15793" lon="5.314">
        <ele>569.79998779297</ele>
        <time>2020-03-01T10:30:55.000Z</time>
      </trkpt>
      <trkpt lat="45.15792" lon="5.31402">
        <ele>569.59997558594</ele>
        <time>2020-03-01T10:30:56.000Z</time>
      </trkpt>
      <trkpt lat="45.15789" lon="5.31406">
        <ele>569.40002441406</ele>
        <time>2020-03-01T10:30:57.000Z</time>
      </trkpt>
      <trkpt lat="45.15787" lon="5.31409">
        <ele>569</ele>
        <time>2020-03-01T10:30:58.000Z</time>
      </trkpt>
      <trkpt lat="45.15785" lon="5.31412">
        <ele>568.40002441406</ele>
        <time>2020-03-01T10:30:59.000Z</time>
      </trkpt>
      <trkpt lat="45.15783" lon="5.31416">
        <ele>567.79998779297</ele>
        <time>2020-03-01T10:31:00.000Z</time>
      </trkpt>
      <trkpt lat="45.1578" lon="5.31419">
        <ele>567</ele>
        <time>2020-03-01T10:31:01.000Z</time>
      </trkpt>
      <trkpt lat="45.15779" lon="5.31422">
        <ele>566.40002441406</ele>
        <time>2020-03-01T10:31:02.000Z</time>
      </trkpt>
      <trkpt lat="45.15776" lon="5.31424">
        <ele>565.79998779297</ele>
        <time>2020-03-01T10:31:03.000Z</time>
      </trkpt>
      <trkpt lat="45.15773" lon="5.31426">
        <ele>565.40002441406</ele>
        <time>2020-03-01T10:31:04.000Z</time>
      </trkpt>
      <trkpt lat="45.1577" lon="5.31429">
        <ele>565</ele>
        <time>2020-03-01T10:31:05.000Z</time>
      </trkpt>
      <trkpt lat="45.15768" lon="5.31433">
        <ele>564.59997558594</ele>
        <time>2020-03-01T10:31:06.000Z</time>
      </trkpt>
      <trkpt lat="45.15767" lon="5.31436">
        <ele>564.40002441406</ele>
        <time>2020-03-01T10:31:07.000Z</time>
      </trkpt>
      <trkpt lat="45.15766" lon="5.31439">
        <ele>564</ele>
        <time>2020-03-01T10:31:08.000Z</time>
      </trkpt>
      <trkpt lat="45.15766" lon="5.31441">
        <ele>563.59997558594</ele>
        <time>2020-03-01T10:31:09.000Z</time>
      </trkpt>
      <trkpt lat="45.15766" lon="5.31444">
        <ele>563.40002441406</ele>
        <time>2020-03-01T10:31:10.000Z</time>
      </trkpt>
      <trkpt lat="45.15766" lon="5.31446">
        <ele>563</ele>
        <time>2020-03-01T10:31:11.000Z</time>
      </trkpt>
      <trkpt lat="45.15767" lon="5.31448">
        <ele>562.79998779297</ele>
        <time>2020-03-01T10:31:12.000Z</time>
      </trkpt>
      <trkpt lat="45.15768" lon="5.3145">
        <ele>562.79998779297</ele>
        <time>2020-03-01T10:31:13.000Z</time>
      </trkpt>
      <trkpt lat="45.15769" lon="5.31452">
        <ele>562.59997558594</ele>
        <time>2020-03-01T10:31:14.000Z</time>
      </trkpt>
      <trkpt lat="45.15769" lon="5.31454">
        <ele>562.40002441406</ele>
        <time>2020-03-01T10:31:15.000Z</time>
      </trkpt>
      <trkpt lat="45.1577" lon="5.31456">
        <ele>562.20001220703</ele>
        <time>2020-03-01T10:31:16.000Z</time>
      </trkpt>
      <trkpt lat="45.15771" lon="5.31457">
        <ele>562.20001220703</ele>
        <time>2020-03-01T10:31:17.000Z</time>
      </trkpt>
      <trkpt lat="45.15772" lon="5.31458">
        <ele>562</ele>
        <time>2020-03-01T10:31:18.000Z</time>
      </trkpt>
      <trkpt lat="45.15773" lon="5.31459">
        <ele>562</ele>
        <time>2020-03-01T10:31:19.000Z</time>
      </trkpt>
      <trkpt lat="45.15773" lon="5.31462">
        <ele>562</ele>
        <time>2020-03-01T10:31:20.000Z</time>
      </trkpt>
      <trkpt lat="45.15774" lon="5.31463">
        <ele>562.20001220703</ele>
        <time>2020-03-01T10:31:21.000Z</time>
      </trkpt>
      <trkpt lat="45.15774" lon="5.31465">
        <ele>562.20001220703</ele>
        <time>2020-03-01T10:31:22.000Z</time>
      </trkpt>
      <trkpt lat="45.15775" lon="5.31467">
        <ele>562.20001220703</ele>
        <time>2020-03-01T10:31:23.000Z</time>
      </trkpt>
      <trkpt lat="45.15776" lon="5.31468">
        <ele>562.20001220703</ele>
        <time>2020-03-01T10:31:24.000Z</time>
      </trkpt>
      <trkpt lat="45.15778" lon="5.31471">
        <ele>562.20001220703</ele>
        <time>2020-03-01T10:31:25.000Z</time>
      </trkpt>
      <trkpt lat="45.1578" lon="5.31474">
        <ele>562.20001220703</ele>
        <time>2020-03-01T10:31:26.000Z</time>
      </trkpt>
      <trkpt lat="45.15782" lon="5.31475">
        <ele>562.20001220703</ele>
        <time>2020-03-01T10:31:27.000Z</time>
      </trkpt>
      <trkpt lat="45.15784" lon="5.31477">
        <ele>562</ele>
        <time>2020-03-01T10:31:28.000Z</time>
      </trkpt>
      <trkpt lat="45.15786" lon="5.31479">
        <ele>562</ele>
        <time>2020-03-01T10:31:29.000Z</time>
      </trkpt>
      <trkpt lat="45.15787" lon="5.31481">
        <ele>562</ele>
        <time>2020-03-01T10:31:30.000Z</time>
      </trkpt>
      <trkpt lat="45.15789" lon="5.31483">
        <ele>562.20001220703</ele>
        <time>2020-03-01T10:31:31.000Z</time>
      </trkpt>
      <trkpt lat="45.15791" lon="5.31485">
        <ele>562.20001220703</ele>
        <time>2020-03-01T10:31:32.000Z</time>
      </trkpt>
      <trkpt lat="45.15793" lon="5.31487">
        <ele>562</ele>
        <time>2020-03-01T10:31:33.000Z</time>
      </trkpt>
      <trkpt lat="45.15795" lon="5.31488">
        <ele>562</ele>
        <time>2020-03-01T10:31:34.000Z</time>
      </trkpt>
      <trkpt lat="45.15797" lon="5.3149">
        <ele>562.20001220703</ele>
        <time>2020-03-01T10:31:35.000Z</time>
      </trkpt>
      <trkpt lat="45.15799" lon="5.31492">
        <ele>562.40002441406</ele>
        <time>2020-03-01T10:31:36.000Z</time>
      </trkpt>
      <trkpt lat="45.15801" lon="5.31492">
        <ele>562.40002441406</ele>
        <time>2020-03-01T10:31:37.000Z</time>
      </trkpt>
      <trkpt lat="45.15804" lon="5.31493">
        <ele>562.40002441406</ele>
        <time>2020-03-01T10:31:38.000Z</time>
      </trkpt>
      <trkpt lat="45.15806" lon="5.31493">
        <ele>562.59997558594</ele>
        <time>2020-03-01T10:31:39.000Z</time>
      </trkpt>
      <trkpt lat="45.15808" lon="5.31493">
        <ele>562.59997558594</ele>
        <time>2020-03-01T10:31:40.000Z</time>
      </trkpt>
      <trkpt lat="45.15811" lon="5.31494">
        <ele>562.79998779297</ele>
        <time>2020-03-01T10:31:41.000Z</time>
      </trkpt>
      <trkpt lat="45.15813" lon="5.31494">
        <ele>562.79998779297</ele>
        <time>2020-03-01T10:31:42.000Z</time>
      </trkpt>
      <trkpt lat="45.15816" lon="5.31495">
        <ele>563</ele>
        <time>2020-03-01T10:31:43.000Z</time>
      </trkpt>
      <trkpt lat="45.15818" lon="5.31496">
        <ele>563.20001220703</ele>
        <time>2020-03-01T10:31:44.000Z</time>
      </trkpt>
      <trkpt lat="45.15819" lon="5.31497">
        <ele>563.40002441406</ele>
        <time>2020-03-01T10:31:45.000Z</time>
      </trkpt>
      <trkpt lat="45.1582" lon="5.31499">
        <ele>563.40002441406</ele>
        <time>2020-03-01T10:31:46.000Z</time>
      </trkpt>
      <trkpt lat="45.15822" lon="5.31502">
        <ele>563.59997558594</ele>
        <time>2020-03-01T10:31:47.000Z</time>
      </trkpt>
      <trkpt lat="45.15822" lon="5.31511">
        <ele>564</ele>
        <time>2020-03-01T10:31:48.000Z</time>
      </trkpt>
      <trkpt lat="45.15824" lon="5.31515">
        <ele>564</ele>
        <time>2020-03-01T10:31:49.000Z</time>
      </trkpt>
      <trkpt lat="45.15826" lon="5.3152">
        <ele>564.20001220703</ele>
        <time>2020-03-01T10:31:50.000Z</time>
      </trkpt>
      <trkpt lat="45.15828" lon="5.31525">
        <ele>564.40002441406</ele>
        <time>2020-03-01T10:31:51.000Z</time>
      </trkpt>
      <trkpt lat="45.1583" lon="5.31528">
        <ele>564.59997558594</ele>
        <time>2020-03-01T10:31:52.000Z</time>
      </trkpt>
      <trkpt lat="45.15833" lon="5.31532">
        <ele>564.59997558594</ele>
        <time>2020-03-01T10:31:53.000Z</time>
      </trkpt>
      <trkpt lat="45.15835" lon="5.31534">
        <ele>565</ele>
        <time>2020-03-01T10:31:54.000Z</time>
      </trkpt>
      <trkpt lat="45.15838" lon="5.31536">
        <ele>565</ele>
        <time>2020-03-01T10:31:55.000Z</time>
      </trkpt>
      <trkpt lat="45.1584" lon="5.31538">
        <ele>565.20001220703</ele>
        <time>2020-03-01T10:31:56.000Z</time>
      </trkpt>
      <trkpt lat="45.15842" lon="5.3154">
        <ele>565.20001220703</ele>
        <time>2020-03-01T10:31:57.000Z</time>
      </trkpt>
      <trkpt lat="45.15843" lon="5.31542">
        <ele>565.40002441406</ele>
        <time>2020-03-01T10:31:58.000Z</time>
      </trkpt>
      <trkpt lat="45.15845" lon="5.31543">
        <ele>565.40002441406</ele>
        <time>2020-03-01T10:31:59.000Z</time>
      </trkpt>
      <trkpt lat="45.15846" lon="5.31544">
        <ele>565.59997558594</ele>
        <time>2020-03-01T10:32:00.000Z</time>
      </trkpt>
      <trkpt lat="45.15847" lon="5.31545">
        <ele>565.79998779297</ele>
        <time>2020-03-01T10:32:01.000Z</time>
      </trkpt>
      <trkpt lat="45.15848" lon="5.31547">
        <ele>566</ele>
        <time>2020-03-01T10:32:02.000Z</time>
      </trkpt>
      <trkpt lat="45.15849" lon="5.31548">
        <ele>566.20001220703</ele>
        <time>2020-03-01T10:32:03.000Z</time>
      </trkpt>
      <trkpt lat="45.1585" lon="5.3155">
        <ele>566.40002441406</ele>
        <time>2020-03-01T10:32:04.000Z</time>
      </trkpt>
      <trkpt lat="45.15852" lon="5.31551">
        <ele>566.40002441406</ele>
        <time>2020-03-01T10:32:05.000Z</time>
      </trkpt>
      <trkpt lat="45.15853" lon="5.31552">
        <ele>566.59997558594</ele>
        <time>2020-03-01T10:32:06.000Z</time>
      </trkpt>
      <trkpt lat="45.15854" lon="5.31554">
        <ele>566.79998779297</ele>
        <time>2020-03-01T10:32:07.000Z</time>
      </trkpt>
      <trkpt lat="45.15854" lon="5.31555">
        <ele>567</ele>
        <time>2020-03-01T10:32:08.000Z</time>
      </trkpt>
      <trkpt lat="45.15855" lon="5.31557">
        <ele>567.20001220703</ele>
        <time>2020-03-01T10:32:09.000Z</time>
      </trkpt>
      <trkpt lat="45.15855" lon="5.31559">
        <ele>567.40002441406</ele>
        <time>2020-03-01T10:32:10.000Z</time>
      </trkpt>
      <trkpt lat="45.15856" lon="5.31561">
        <ele>567.59997558594</ele>
        <time>2020-03-01T10:32:11.000Z</time>
      </trkpt>
      <trkpt lat="45.15858" lon="5.31563">
        <ele>567.79998779297</ele>
        <time>2020-03-01T10:32:12.000Z</time>
      </trkpt>
      <trkpt lat="45.15861" lon="5.31564">
        <ele>567.79998779297</ele>
        <time>2020-03-01T10:32:13.000Z</time>
      </trkpt>
      <trkpt lat="45.15862" lon="5.31566">
        <ele>568</ele>
        <time>2020-03-01T10:32:14.000Z</time>
      </trkpt>
      <trkpt lat="45.15863" lon="5.31568">
        <ele>568.20001220703</ele>
        <time>2020-03-01T10:32:15.000Z</time>
      </trkpt>
      <trkpt lat="45.15863" lon="5.31571">
        <ele>568.20001220703</ele>
        <time>2020-03-01T10:32:16.000Z</time>
      </trkpt>
      <trkpt lat="45.15864" lon="5.31574">
        <ele>568.20001220703</ele>
        <time>2020-03-01T10:32:17.000Z</time>
      </trkpt>
      <trkpt lat="45.15864" lon="5.31578">
        <ele>568</ele>
        <time>2020-03-01T10:32:18.000Z</time>
      </trkpt>
      <trkpt lat="45.15864" lon="5.31582">
        <ele>567.59997558594</ele>
        <time>2020-03-01T10:32:19.000Z</time>
      </trkpt>
      <trkpt lat="45.15863" lon="5.31586">
        <ele>567.40002441406</ele>
        <time>2020-03-01T10:32:20.000Z</time>
      </trkpt>
      <trkpt lat="45.15863" lon="5.31589">
        <ele>567</ele>
        <time>2020-03-01T10:32:21.000Z</time>
      </trkpt>
      <trkpt lat="45.15862" lon="5.31592">
        <ele>566.59997558594</ele>
        <time>2020-03-01T10:32:22.000Z</time>
      </trkpt>
      <trkpt lat="45.15862" lon="5.31595">
        <ele>566.40002441406</ele>
        <time>2020-03-01T10:32:23.000Z</time>
      </trkpt>
      <trkpt lat="45.15862" lon="5.31599">
        <ele>566.40002441406</ele>
        <time>2020-03-01T10:32:24.000Z</time>
      </trkpt>
      <trkpt lat="45.15863" lon="5.31603">
        <ele>566.40002441406</ele>
        <time>2020-03-01T10:32:25.000Z</time>
      </trkpt>
      <trkpt lat="45.15864" lon="5.31606">
        <ele>566.20001220703</ele>
        <time>2020-03-01T10:32:26.000Z</time>
      </trkpt>
      <trkpt lat="45.15866" lon="5.31608">
        <ele>566.20001220703</ele>
        <time>2020-03-01T10:32:27.000Z</time>
      </trkpt>
      <trkpt lat="45.15868" lon="5.3161">
        <ele>566.20001220703</ele>
        <time>2020-03-01T10:32:28.000Z</time>
      </trkpt>
      <trkpt lat="45.1587" lon="5.31612">
        <ele>566.20001220703</ele>
        <time>2020-03-01T10:32:29.000Z</time>
      </trkpt>
      <trkpt lat="45.15871" lon="5.31613">
        <ele>566.40002441406</ele>
        <time>2020-03-01T10:32:30.000Z</time>
      </trkpt>
      <trkpt lat="45.15873" lon="5.31615">
        <ele>566.40002441406</ele>
        <time>2020-03-01T10:32:31.000Z</time>
      </trkpt>
      <trkpt lat="45.15874" lon="5.31617">
        <ele>566.40002441406</ele>
        <time>2020-03-01T10:32:32.000Z</time>
      </trkpt>
      <trkpt lat="45.15876" lon="5.31618">
        <ele>566.40002441406</ele>
        <time>2020-03-01T10:32:33.000Z</time>
      </trkpt>
      <trkpt lat="45.15878" lon="5.3162">
        <ele>566.59997558594</ele>
        <time>2020-03-01T10:32:34.000Z</time>
      </trkpt>
      <trkpt lat="45.1588" lon="5.31621">
        <ele>566.79998779297</ele>
        <time>2020-03-01T10:32:35.000Z</time>
      </trkpt>
      <trkpt lat="45.15881" lon="5.31623">
        <ele>567.20001220703</ele>
        <time>2020-03-01T10:32:36.000Z</time>
      </trkpt>
      <trkpt lat="45.15883" lon="5.31625">
        <ele>567.40002441406</ele>
        <time>2020-03-01T10:32:37.000Z</time>
      </trkpt>
      <trkpt lat="45.15884" lon="5.31626">
        <ele>567.59997558594</ele>
        <time>2020-03-01T10:32:38.000Z</time>
      </trkpt>
      <trkpt lat="45.15886" lon="5.31628">
        <ele>567.59997558594</ele>
        <time>2020-03-01T10:32:39.000Z</time>
      </trkpt>
      <trkpt lat="45.15889" lon="5.31629">
        <ele>567.59997558594</ele>
        <time>2020-03-01T10:32:40.000Z</time>
      </trkpt>
      <trkpt lat="45.15891" lon="5.31631">
        <ele>567.20001220703</ele>
        <time>2020-03-01T10:32:41.000Z</time>
      </trkpt>
      <trkpt lat="45.15893" lon="5.31631">
        <ele>567.20001220703</ele>
        <time>2020-03-01T10:32:42.000Z</time>
      </trkpt>
      <trkpt lat="45.15896" lon="5.31632">
        <ele>567</ele>
        <time>2020-03-01T10:32:43.000Z</time>
      </trkpt>
      <trkpt lat="45.15899" lon="5.31633">
        <ele>567</ele>
        <time>2020-03-01T10:32:44.000Z</time>
      </trkpt>
      <trkpt lat="45.15902" lon="5.31634">
        <ele>566.79998779297</ele>
        <time>2020-03-01T10:32:45.000Z</time>
      </trkpt>
      <trkpt lat="45.15905" lon="5.31634">
        <ele>566.79998779297</ele>
        <time>2020-03-01T10:32:46.000Z</time>
      </trkpt>
      <trkpt lat="45.15908" lon="5.31636">
        <ele>566.59997558594</ele>
        <time>2020-03-01T10:32:47.000Z</time>
      </trkpt>
      <trkpt lat="45.1591" lon="5.31637">
        <ele>566.40002441406</ele>
        <time>2020-03-01T10:32:48.000Z</time>
      </trkpt>
      <trkpt lat="45.15913" lon="5.31639">
        <ele>566.20001220703</ele>
        <time>2020-03-01T10:32:49.000Z</time>
      </trkpt>
      <trkpt lat="45.15917" lon="5.31641">
        <ele>566.20001220703</ele>
        <time>2020-03-01T10:32:50.000Z</time>
      </trkpt>
      <trkpt lat="45.15919" lon="5.31643">
        <ele>566.20001220703</ele>
        <time>2020-03-01T10:32:51.000Z</time>
      </trkpt>
      <trkpt lat="45.15921" lon="5.31645">
        <ele>566</ele>
        <time>2020-03-01T10:32:52.000Z</time>
      </trkpt>
      <trkpt lat="45.15923" lon="5.31646">
        <ele>565.79998779297</ele>
        <time>2020-03-01T10:32:53.000Z</time>
      </trkpt>
      <trkpt lat="45.15925" lon="5.31648">
        <ele>565.79998779297</ele>
        <time>2020-03-01T10:32:54.000Z</time>
      </trkpt>
      <trkpt lat="45.15928" lon="5.3165">
        <ele>565.59997558594</ele>
        <time>2020-03-01T10:32:55.000Z</time>
      </trkpt>
      <trkpt lat="45.15932" lon="5.31651">
        <ele>565.59997558594</ele>
        <time>2020-03-01T10:32:56.000Z</time>
      </trkpt>
      <trkpt lat="45.15934" lon="5.31652">
        <ele>565.40002441406</ele>
        <time>2020-03-01T10:32:57.000Z</time>
      </trkpt>
      <trkpt lat="45.15937" lon="5.31653">
        <ele>565.20001220703</ele>
        <time>2020-03-01T10:32:58.000Z</time>
      </trkpt>
      <trkpt lat="45.1594" lon="5.31653">
        <ele>565.20001220703</ele>
        <time>2020-03-01T10:32:59.000Z</time>
      </trkpt>
      <trkpt lat="45.15942" lon="5.31655">
        <ele>565.20001220703</ele>
        <time>2020-03-01T10:33:00.000Z</time>
      </trkpt>
      <trkpt lat="45.15945" lon="5.31657">
        <ele>564.79998779297</ele>
        <time>2020-03-01T10:33:01.000Z</time>
      </trkpt>
      <trkpt lat="45.15947" lon="5.31659">
        <ele>564.79998779297</ele>
        <time>2020-03-01T10:33:02.000Z</time>
      </trkpt>
      <trkpt lat="45.1595" lon="5.3166">
        <ele>564.79998779297</ele>
        <time>2020-03-01T10:33:03.000Z</time>
      </trkpt>
      <trkpt lat="45.15953" lon="5.31661">
        <ele>564.79998779297</ele>
        <time>2020-03-01T10:33:04.000Z</time>
      </trkpt>
      <trkpt lat="45.15955" lon="5.31662">
        <ele>564.79998779297</ele>
        <time>2020-03-01T10:33:05.000Z</time>
      </trkpt>
      <trkpt lat="45.15957" lon="5.31663">
        <ele>564.79998779297</ele>
        <time>2020-03-01T10:33:06.000Z</time>
      </trkpt>
      <trkpt lat="45.15959" lon="5.31664">
        <ele>565</ele>
        <time>2020-03-01T10:33:07.000Z</time>
      </trkpt>
      <trkpt lat="45.15961" lon="5.31665">
        <ele>565</ele>
        <time>2020-03-01T10:33:08.000Z</time>
      </trkpt>
      <trkpt lat="45.15963" lon="5.31666">
        <ele>565.20001220703</ele>
        <time>2020-03-01T10:33:09.000Z</time>
      </trkpt>
      <trkpt lat="45.15965" lon="5.31668">
        <ele>565.20001220703</ele>
        <time>2020-03-01T10:33:10.000Z</time>
      </trkpt>
      <trkpt lat="45.15967" lon="5.31669">
        <ele>565.20001220703</ele>
        <time>2020-03-01T10:33:11.000Z</time>
      </trkpt>
      <trkpt lat="45.15968" lon="5.3167">
        <ele>565</ele>
        <time>2020-03-01T10:33:12.000Z</time>
      </trkpt>
      <trkpt lat="45.15971" lon="5.31671">
        <ele>565</ele>
        <time>2020-03-01T10:33:13.000Z</time>
      </trkpt>
      <trkpt lat="45.15973" lon="5.31672">
        <ele>564.79998779297</ele>
        <time>2020-03-01T10:33:14.000Z</time>
      </trkpt>
      <trkpt lat="45.15975" lon="5.31674">
        <ele>564.79998779297</ele>
        <time>2020-03-01T10:33:15.000Z</time>
      </trkpt>
      <trkpt lat="45.15977" lon="5.31675">
        <ele>564.79998779297</ele>
        <time>2020-03-01T10:33:16.000Z</time>
      </trkpt>
      <trkpt lat="45.15979" lon="5.31676">
        <ele>564.79998779297</ele>
        <time>2020-03-01T10:33:17.000Z</time>
      </trkpt>
      <trkpt lat="45.15981" lon="5.31678">
        <ele>565</ele>
        <time>2020-03-01T10:33:18.000Z</time>
      </trkpt>
      <trkpt lat="45.15982" lon="5.31679">
        <ele>565</ele>
        <time>2020-03-01T10:33:19.000Z</time>
      </trkpt>
      <trkpt lat="45.15985" lon="5.3168">
        <ele>565.40002441406</ele>
        <time>2020-03-01T10:33:20.000Z</time>
      </trkpt>
      <trkpt lat="45.15987" lon="5.31682">
        <ele>565.40002441406</ele>
        <time>2020-03-01T10:33:21.000Z</time>
      </trkpt>
      <trkpt lat="45.1599" lon="5.31685">
        <ele>565.59997558594</ele>
        <time>2020-03-01T10:33:22.000Z</time>
      </trkpt>
      <trkpt lat="45.15992" lon="5.31687">
        <ele>565.40002441406</ele>
        <time>2020-03-01T10:33:23.000Z</time>
      </trkpt>
      <trkpt lat="45.15994" lon="5.31689">
        <ele>565.40002441406</ele>
        <time>2020-03-01T10:33:24.000Z</time>
      </trkpt>
      <trkpt lat="45.15996" lon="5.31692">
        <ele>565.40002441406</ele>
        <time>2020-03-01T10:33:25.000Z</time>
      </trkpt>
      <trkpt lat="45.15998" lon="5.31696">
        <ele>565.40002441406</ele>
        <time>2020-03-01T10:33:26.000Z</time>
      </trkpt>
      <trkpt lat="45.16001" lon="5.31699">
        <ele>565.40002441406</ele>
        <time>2020-03-01T10:33:27.000Z</time>
      </trkpt>
      <trkpt lat="45.16003" lon="5.31702">
        <ele>565.40002441406</ele>
        <time>2020-03-01T10:33:28.000Z</time>
      </trkpt>
      <trkpt lat="45.16003" lon="5.31705">
        <ele>565.59997558594</ele>
        <time>2020-03-01T10:33:29.000Z</time>
      </trkpt>
      <trkpt lat="45.16004" lon="5.31708">
        <ele>565.79998779297</ele>
        <time>2020-03-01T10:33:30.000Z</time>
      </trkpt>
      <trkpt lat="45.16004" lon="5.31712">
        <ele>566.20001220703</ele>
        <time>2020-03-01T10:33:31.000Z</time>
      </trkpt>
      <trkpt lat="45.16004" lon="5.31715">
        <ele>566.20001220703</ele>
        <time>2020-03-01T10:33:32.000Z</time>
      </trkpt>
      <trkpt lat="45.16004" lon="5.31719">
        <ele>566.20001220703</ele>
        <time>2020-03-01T10:33:33.000Z</time>
      </trkpt>
      <trkpt lat="45.16003" lon="5.31722">
        <ele>566.20001220703</ele>
        <time>2020-03-01T10:33:34.000Z</time>
      </trkpt>
      <trkpt lat="45.16002" lon="5.31725">
        <ele>566.20001220703</ele>
        <time>2020-03-01T10:33:35.000Z</time>
      </trkpt>
      <trkpt lat="45.16001" lon="5.31728">
        <ele>566.20001220703</ele>
        <time>2020-03-01T10:33:36.000Z</time>
      </trkpt>
      <trkpt lat="45.16" lon="5.31731">
        <ele>566.20001220703</ele>
        <time>2020-03-01T10:33:37.000Z</time>
      </trkpt>
      <trkpt lat="45.15999" lon="5.31734">
        <ele>566.20001220703</ele>
        <time>2020-03-01T10:33:38.000Z</time>
      </trkpt>
      <trkpt lat="45.15998" lon="5.31737">
        <ele>566.20001220703</ele>
        <time>2020-03-01T10:33:39.000Z</time>
      </trkpt>
      <trkpt lat="45.15997" lon="5.3174">
        <ele>566</ele>
        <time>2020-03-01T10:33:40.000Z</time>
      </trkpt>
      <trkpt lat="45.15996" lon="5.31743">
        <ele>565.79998779297</ele>
        <time>2020-03-01T10:33:41.000Z</time>
      </trkpt>
      <trkpt lat="45.15995" lon="5.31746">
        <ele>565.40002441406</ele>
        <time>2020-03-01T10:33:42.000Z</time>
      </trkpt>
      <trkpt lat="45.15995" lon="5.31749">
        <ele>565.40002441406</ele>
        <time>2020-03-01T10:33:43.000Z</time>
      </trkpt>
      <trkpt lat="45.15994" lon="5.31752">
        <ele>565.40002441406</ele>
        <time>2020-03-01T10:33:44.000Z</time>
      </trkpt>
      <trkpt lat="45.15993" lon="5.31755">
        <ele>565.40002441406</ele>
        <time>2020-03-01T10:33:45.000Z</time>
      </trkpt>
      <trkpt lat="45.15991" lon="5.31758">
        <ele>565.40002441406</ele>
        <time>2020-03-01T10:33:46.000Z</time>
      </trkpt>
      <trkpt lat="45.1599" lon="5.31762">
        <ele>565.40002441406</ele>
        <time>2020-03-01T10:33:47.000Z</time>
      </trkpt>
      <trkpt lat="45.15989" lon="5.31765">
        <ele>565.40002441406</ele>
        <time>2020-03-01T10:33:48.000Z</time>
      </trkpt>
      <trkpt lat="45.15987" lon="5.31769">
        <ele>565.59997558594</ele>
        <time>2020-03-01T10:33:49.000Z</time>
      </trkpt>
      <trkpt lat="45.15986" lon="5.31772">
        <ele>565.79998779297</ele>
        <time>2020-03-01T10:33:50.000Z</time>
      </trkpt>
      <trkpt lat="45.15984" lon="5.31776">
        <ele>565.40002441406</ele>
        <time>2020-03-01T10:33:51.000Z</time>
      </trkpt>
      <trkpt lat="45.15982" lon="5.31779">
        <ele>565.40002441406</ele>
        <time>2020-03-01T10:33:52.000Z</time>
      </trkpt>
      <trkpt lat="45.15981" lon="5.31782">
        <ele>565</ele>
        <time>2020-03-01T10:33:53.000Z</time>
      </trkpt>
      <trkpt lat="45.1598" lon="5.31785">
        <ele>565</ele>
        <time>2020-03-01T10:33:54.000Z</time>
      </trkpt>
      <trkpt lat="45.15979" lon="5.31788">
        <ele>564.59997558594</ele>
        <time>2020-03-01T10:33:55.000Z</time>
      </trkpt>
      <trkpt lat="45.15979" lon="5.31791">
        <ele>564.59997558594</ele>
        <time>2020-03-01T10:33:56.000Z</time>
      </trkpt>
      <trkpt lat="45.15978" lon="5.31794">
        <ele>564.40002441406</ele>
        <time>2020-03-01T10:33:57.000Z</time>
      </trkpt>
      <trkpt lat="45.15977" lon="5.31797">
        <ele>564.40002441406</ele>
        <time>2020-03-01T10:33:58.000Z</time>
      </trkpt>
      <trkpt lat="45.15975" lon="5.318">
        <ele>564.40002441406</ele>
        <time>2020-03-01T10:33:59.000Z</time>
      </trkpt>
      <trkpt lat="45.15974" lon="5.31803">
        <ele>564.40002441406</ele>
        <time>2020-03-01T10:34:00.000Z</time>
      </trkpt>
      <trkpt lat="45.15972" lon="5.31806">
        <ele>564.40002441406</ele>
        <time>2020-03-01T10:34:01.000Z</time>
      </trkpt>
      <trkpt lat="45.15971" lon="5.31809">
        <ele>564.40002441406</ele>
        <time>2020-03-01T10:34:02.000Z</time>
      </trkpt>
      <trkpt lat="45.15969" lon="5.31812">
        <ele>564.20001220703</ele>
        <time>2020-03-01T10:34:03.000Z</time>
      </trkpt>
      <trkpt lat="45.15968" lon="5.31815">
        <ele>564.40002441406</ele>
        <time>2020-03-01T10:34:04.000Z</time>
      </trkpt>
      <trkpt lat="45.15966" lon="5.31819">
        <ele>564.40002441406</ele>
        <time>2020-03-01T10:34:05.000Z</time>
      </trkpt>
      <trkpt lat="45.15965" lon="5.31823">
        <ele>564.20001220703</ele>
        <time>2020-03-01T10:34:06.000Z</time>
      </trkpt>
      <trkpt lat="45.15963" lon="5.31826">
        <ele>564.20001220703</ele>
        <time>2020-03-01T10:34:07.000Z</time>
      </trkpt>
      <trkpt lat="45.15962" lon="5.31828">
        <ele>564</ele>
        <time>2020-03-01T10:34:08.000Z</time>
      </trkpt>
      <trkpt lat="45.1596" lon="5.31828">
        <ele>563.79998779297</ele>
        <time>2020-03-01T10:34:09.000Z</time>
      </trkpt>
      <trkpt lat="45.15958" lon="5.31827">
        <ele>563.59997558594</ele>
        <time>2020-03-01T10:34:10.000Z</time>
      </trkpt>
      <trkpt lat="45.15956" lon="5.31825">
        <ele>563.20001220703</ele>
        <time>2020-03-01T10:34:11.000Z</time>
      </trkpt>
      <trkpt lat="45.15954" lon="5.31823">
        <ele>562.59997558594</ele>
        <time>2020-03-01T10:34:12.000Z</time>
      </trkpt>
      <trkpt lat="45.15952" lon="5.31821">
        <ele>562.40002441406</ele>
        <time>2020-03-01T10:34:13.000Z</time>
      </trkpt>
      <trkpt lat="45.15951" lon="5.31817">
        <ele>562.20001220703</ele>
        <time>2020-03-01T10:34:14.000Z</time>
      </trkpt>
      <trkpt lat="45.15949" lon="5.31814">
        <ele>562</ele>
        <time>2020-03-01T10:34:15.000Z</time>
      </trkpt>
      <trkpt lat="45.15946" lon="5.31813">
        <ele>562</ele>
        <time>2020-03-01T10:34:16.000Z</time>
      </trkpt>
      <trkpt lat="45.15942" lon="5.31811">
        <ele>562</ele>
        <time>2020-03-01T10:34:17.000Z</time>
      </trkpt>
      <trkpt lat="45.15939" lon="5.3181">
        <ele>562</ele>
        <time>2020-03-01T10:34:18.000Z</time>
      </trkpt>
      <trkpt lat="45.15936" lon="5.31809">
        <ele>562</ele>
        <time>2020-03-01T10:34:19.000Z</time>
      </trkpt>
      <trkpt lat="45.15933" lon="5.31808">
        <ele>562</ele>
        <time>2020-03-01T10:34:20.000Z</time>
      </trkpt>
      <trkpt lat="45.15931" lon="5.31806">
        <ele>562</ele>
        <time>2020-03-01T10:34:21.000Z</time>
      </trkpt>
      <trkpt lat="45.15928" lon="5.31805">
        <ele>561.79998779297</ele>
        <time>2020-03-01T10:34:22.000Z</time>
      </trkpt>
      <trkpt lat="45.15925" lon="5.31803">
        <ele>561.79998779297</ele>
        <time>2020-03-01T10:34:23.000Z</time>
      </trkpt>
      <trkpt lat="45.15923" lon="5.31802">
        <ele>561.79998779297</ele>
        <time>2020-03-01T10:34:24.000Z</time>
      </trkpt>
      <trkpt lat="45.1592" lon="5.31801">
        <ele>562</ele>
        <time>2020-03-01T10:34:25.000Z</time>
      </trkpt>
      <trkpt lat="45.15917" lon="5.318">
        <ele>561.79998779297</ele>
        <time>2020-03-01T10:34:26.000Z</time>
      </trkpt>
      <trkpt lat="45.15913" lon="5.31799">
        <ele>561.79998779297</ele>
        <time>2020-03-01T10:34:27.000Z</time>
      </trkpt>
      <trkpt lat="45.15911" lon="5.31797">
        <ele>561.79998779297</ele>
        <time>2020-03-01T10:34:28.000Z</time>
      </trkpt>
      <trkpt lat="45.15909" lon="5.31796">
        <ele>562</ele>
        <time>2020-03-01T10:34:29.000Z</time>
      </trkpt>
      <trkpt lat="45.15907" lon="5.31795">
        <ele>562</ele>
        <time>2020-03-01T10:34:30.000Z</time>
      </trkpt>
      <trkpt lat="45.15907" lon="5.31795">
        <ele>562.20001220703</ele>
        <time>2020-03-01T10:34:31.000Z</time>
      </trkpt>
      <trkpt lat="45.15906" lon="5.31795">
        <ele>562</ele>
        <time>2020-03-01T10:34:32.000Z</time>
      </trkpt>
      <trkpt lat="45.15906" lon="5.31795">
        <ele>562</ele>
        <time>2020-03-01T10:34:33.000Z</time>
      </trkpt>
      <trkpt lat="45.15906" lon="5.31796">
        <ele>562.40002441406</ele>
        <time>2020-03-01T10:34:34.000Z</time>
      </trkpt>
    </trkseg>
  </trk>
</gpx>